<?xml version="1.0" encoding="UTF-8"?>
<gpx version="1.1" creator="https://www.youtrack.es" xsi:schemaLocation="http://www.topografix.com/GPX/1/1 http://www.topografix.com/GPX/1/1/gpx.xsd http://www.garmin.com/xmlschemas/GpxExtensions/v3 http://www.garmin.com/xmlschemas/GpxExtensionsv3.xsd http://www.garmin.com/xmlschemas/TrackPointExtension/v1 http://www.garmin.com/xmlschemas/TrackPointExtensionv1.xsd" xmlns:gpxtpx="http://www.garmin.com/xmlschemas/TrackPointExtension/v1" xmlns:gpxx="http://www.garmin.com/xmlschemas/GpxExtensions/v3" xmlns:xsi="http://www.w3.org/2001/XMLSchema-instance">
  <metadata>
    <link href="https://www.youtrack.es">
      <text>YouTrack.es</text>
    </link>
    <time>2026-05-08T21:00:35Z</time>
  </metadata>
  <trk>
    <src>https://www.youtrack.es</src>
    <link href="https://www.youtrack.es/ruta/26831-ruta-del-agua">
      <text>YouTrack.es</text>
    </link>
    <trkseg>
      <trkpt lat="42.651092" lon="-2.759453">
        <ele>641.712</ele>
        <time>2021-10-22T10:59:23Z</time>
      </trkpt>
      <trkpt lat="42.651162" lon="-2.75942">
        <ele>641.732</ele>
        <time>2021-10-22T10:59:27Z</time>
      </trkpt>
      <trkpt lat="42.651176" lon="-2.759354">
        <ele>641.705</ele>
        <time>2021-10-22T10:59:28Z</time>
      </trkpt>
      <trkpt lat="42.65115" lon="-2.759296">
        <ele>641.708</ele>
        <time>2021-10-22T10:59:31Z</time>
      </trkpt>
      <trkpt lat="42.651129" lon="-2.75924">
        <ele>641.799</ele>
        <time>2021-10-22T10:59:46Z</time>
      </trkpt>
      <trkpt lat="42.651114" lon="-2.759174">
        <ele>641.748</ele>
        <time>2021-10-22T10:59:49Z</time>
      </trkpt>
      <trkpt lat="42.651131" lon="-2.759112">
        <ele>641.721</ele>
        <time>2021-10-22T10:59:52Z</time>
      </trkpt>
      <trkpt lat="42.651104" lon="-2.759039">
        <ele>641.764</ele>
        <time>2021-10-22T10:59:55Z</time>
      </trkpt>
      <trkpt lat="42.651103" lon="-2.758954">
        <ele>641.714</ele>
        <time>2021-10-22T10:59:58Z</time>
      </trkpt>
      <trkpt lat="42.651101" lon="-2.758887">
        <ele>641.780</ele>
        <time>2021-10-22T11:00:02Z</time>
      </trkpt>
      <trkpt lat="42.651087" lon="-2.758825">
        <ele>641.720</ele>
        <time>2021-10-22T11:00:06Z</time>
      </trkpt>
      <trkpt lat="42.651074" lon="-2.758758">
        <ele>641.714</ele>
        <time>2021-10-22T11:00:10Z</time>
      </trkpt>
      <trkpt lat="42.651071" lon="-2.758692">
        <ele>641.745</ele>
        <time>2021-10-22T11:00:13Z</time>
      </trkpt>
      <trkpt lat="42.651063" lon="-2.758624">
        <ele>641.747</ele>
        <time>2021-10-22T11:00:17Z</time>
      </trkpt>
      <trkpt lat="42.651055" lon="-2.758557">
        <ele>641.711</ele>
        <time>2021-10-22T11:00:21Z</time>
      </trkpt>
      <trkpt lat="42.651034" lon="-2.758497">
        <ele>641.708</ele>
        <time>2021-10-22T11:00:25Z</time>
      </trkpt>
      <trkpt lat="42.651017" lon="-2.75843">
        <ele>641.792</ele>
        <time>2021-10-22T11:00:30Z</time>
      </trkpt>
      <trkpt lat="42.651003" lon="-2.758371">
        <ele>641.771</ele>
        <time>2021-10-22T11:00:34Z</time>
      </trkpt>
      <trkpt lat="42.650972" lon="-2.758314">
        <ele>641.774</ele>
        <time>2021-10-22T11:00:38Z</time>
      </trkpt>
      <trkpt lat="42.650956" lon="-2.758256">
        <ele>641.727</ele>
        <time>2021-10-22T11:00:43Z</time>
      </trkpt>
      <trkpt lat="42.65093" lon="-2.758192">
        <ele>641.767</ele>
        <time>2021-10-22T11:00:48Z</time>
      </trkpt>
      <trkpt lat="42.650899" lon="-2.758144">
        <ele>641.763</ele>
        <time>2021-10-22T11:00:52Z</time>
      </trkpt>
      <trkpt lat="42.650867" lon="-2.758101">
        <ele>641.753</ele>
        <time>2021-10-22T11:00:56Z</time>
      </trkpt>
      <trkpt lat="42.650831" lon="-2.758063">
        <ele>641.777</ele>
        <time>2021-10-22T11:00:59Z</time>
      </trkpt>
      <trkpt lat="42.65079" lon="-2.758019">
        <ele>641.737</ele>
        <time>2021-10-22T11:01:05Z</time>
      </trkpt>
      <trkpt lat="42.650749" lon="-2.757974">
        <ele>641.749</ele>
        <time>2021-10-22T11:01:09Z</time>
      </trkpt>
      <trkpt lat="42.650721" lon="-2.757925">
        <ele>641.713</ele>
        <time>2021-10-22T11:01:13Z</time>
      </trkpt>
      <trkpt lat="42.650696" lon="-2.757869">
        <ele>641.708</ele>
        <time>2021-10-22T11:01:17Z</time>
      </trkpt>
      <trkpt lat="42.650665" lon="-2.757822">
        <ele>641.781</ele>
        <time>2021-10-22T11:01:21Z</time>
      </trkpt>
      <trkpt lat="42.650629" lon="-2.757782">
        <ele>641.710</ele>
        <time>2021-10-22T11:01:25Z</time>
      </trkpt>
      <trkpt lat="42.650587" lon="-2.757749">
        <ele>641.713</ele>
        <time>2021-10-22T11:01:29Z</time>
      </trkpt>
      <trkpt lat="42.650543" lon="-2.757726">
        <ele>641.746</ele>
        <time>2021-10-22T11:01:33Z</time>
      </trkpt>
      <trkpt lat="42.650498" lon="-2.757696">
        <ele>641.716</ele>
        <time>2021-10-22T11:01:38Z</time>
      </trkpt>
      <trkpt lat="42.650452" lon="-2.757685">
        <ele>657.332</ele>
        <time>2021-10-22T11:01:42Z</time>
      </trkpt>
      <trkpt lat="42.650402" lon="-2.757662">
        <ele>668.512</ele>
        <time>2021-10-22T11:01:46Z</time>
      </trkpt>
      <trkpt lat="42.650357" lon="-2.757638">
        <ele>667.796</ele>
        <time>2021-10-22T11:01:49Z</time>
      </trkpt>
      <trkpt lat="42.650313" lon="-2.757604">
        <ele>669.039</ele>
        <time>2021-10-22T11:01:53Z</time>
      </trkpt>
      <trkpt lat="42.650273" lon="-2.757575">
        <ele>670.801</ele>
        <time>2021-10-22T11:01:57Z</time>
      </trkpt>
      <trkpt lat="42.650232" lon="-2.757535">
        <ele>671.221</ele>
        <time>2021-10-22T11:02:01Z</time>
      </trkpt>
      <trkpt lat="42.650196" lon="-2.757493">
        <ele>672.108</ele>
        <time>2021-10-22T11:02:05Z</time>
      </trkpt>
      <trkpt lat="42.65016" lon="-2.757447">
        <ele>673.371</ele>
        <time>2021-10-22T11:02:09Z</time>
      </trkpt>
      <trkpt lat="42.650119" lon="-2.757403">
        <ele>673.880</ele>
        <time>2021-10-22T11:02:13Z</time>
      </trkpt>
      <trkpt lat="42.650078" lon="-2.75737">
        <ele>674.473</ele>
        <time>2021-10-22T11:02:17Z</time>
      </trkpt>
      <trkpt lat="42.650035" lon="-2.757328">
        <ele>675.316</ele>
        <time>2021-10-22T11:02:20Z</time>
      </trkpt>
      <trkpt lat="42.649995" lon="-2.757283">
        <ele>676.266</ele>
        <time>2021-10-22T11:02:23Z</time>
      </trkpt>
      <trkpt lat="42.649956" lon="-2.757239">
        <ele>679.152</ele>
        <time>2021-10-22T11:02:27Z</time>
      </trkpt>
      <trkpt lat="42.649912" lon="-2.757201">
        <ele>676.942</ele>
        <time>2021-10-22T11:02:31Z</time>
      </trkpt>
      <trkpt lat="42.649868" lon="-2.757171">
        <ele>678.856</ele>
        <time>2021-10-22T11:02:34Z</time>
      </trkpt>
      <trkpt lat="42.649842" lon="-2.75712">
        <ele>680.865</ele>
        <time>2021-10-22T11:02:38Z</time>
      </trkpt>
      <trkpt lat="42.649867" lon="-2.757068">
        <ele>682.068</ele>
        <time>2021-10-22T11:02:43Z</time>
      </trkpt>
      <trkpt lat="42.649839" lon="-2.757018">
        <ele>679.314</ele>
        <time>2021-10-22T11:02:50Z</time>
      </trkpt>
      <trkpt lat="42.64983" lon="-2.756947">
        <ele>678.708</ele>
        <time>2021-10-22T11:02:53Z</time>
      </trkpt>
      <trkpt lat="42.64981" lon="-2.756884">
        <ele>680.194</ele>
        <time>2021-10-22T11:02:56Z</time>
      </trkpt>
      <trkpt lat="42.649795" lon="-2.756819">
        <ele>680.163</ele>
        <time>2021-10-22T11:02:59Z</time>
      </trkpt>
      <trkpt lat="42.649798" lon="-2.75675">
        <ele>679.576</ele>
        <time>2021-10-22T11:03:03Z</time>
      </trkpt>
      <trkpt lat="42.649808" lon="-2.756685">
        <ele>679.999</ele>
        <time>2021-10-22T11:03:07Z</time>
      </trkpt>
      <trkpt lat="42.649825" lon="-2.75662">
        <ele>679.859</ele>
        <time>2021-10-22T11:03:11Z</time>
      </trkpt>
      <trkpt lat="42.649809" lon="-2.756562">
        <ele>681.275</ele>
        <time>2021-10-22T11:03:25Z</time>
      </trkpt>
      <trkpt lat="42.64981" lon="-2.756491">
        <ele>682.625</ele>
        <time>2021-10-22T11:03:30Z</time>
      </trkpt>
      <trkpt lat="42.649814" lon="-2.756428">
        <ele>678.969</ele>
        <time>2021-10-22T11:03:33Z</time>
      </trkpt>
      <trkpt lat="42.649813" lon="-2.756367">
        <ele>676.843</ele>
        <time>2021-10-22T11:03:37Z</time>
      </trkpt>
      <trkpt lat="42.649814" lon="-2.756295">
        <ele>676.164</ele>
        <time>2021-10-22T11:03:41Z</time>
      </trkpt>
      <trkpt lat="42.649818" lon="-2.756223">
        <ele>679.010</ele>
        <time>2021-10-22T11:03:45Z</time>
      </trkpt>
      <trkpt lat="42.649829" lon="-2.756151">
        <ele>681.608</ele>
        <time>2021-10-22T11:03:50Z</time>
      </trkpt>
      <trkpt lat="42.649854" lon="-2.756099">
        <ele>683.532</ele>
        <time>2021-10-22T11:03:54Z</time>
      </trkpt>
      <trkpt lat="42.649901" lon="-2.756104">
        <ele>682.161</ele>
        <time>2021-10-22T11:03:59Z</time>
      </trkpt>
      <trkpt lat="42.649897" lon="-2.756036">
        <ele>688.054</ele>
        <time>2021-10-22T11:04:09Z</time>
      </trkpt>
      <trkpt lat="42.64991" lon="-2.755973">
        <ele>687.757</ele>
        <time>2021-10-22T11:04:12Z</time>
      </trkpt>
      <trkpt lat="42.64993" lon="-2.755915">
        <ele>687.247</ele>
        <time>2021-10-22T11:04:15Z</time>
      </trkpt>
      <trkpt lat="42.649949" lon="-2.755852">
        <ele>688.613</ele>
        <time>2021-10-22T11:04:19Z</time>
      </trkpt>
      <trkpt lat="42.649984" lon="-2.755796">
        <ele>687.993</ele>
        <time>2021-10-22T11:04:24Z</time>
      </trkpt>
      <trkpt lat="42.650028" lon="-2.755813">
        <ele>688.147</ele>
        <time>2021-10-22T11:04:29Z</time>
      </trkpt>
      <trkpt lat="42.650073" lon="-2.755801">
        <ele>682.269</ele>
        <time>2021-10-22T11:05:16Z</time>
      </trkpt>
      <trkpt lat="42.650111" lon="-2.755846">
        <ele>677.204</ele>
        <time>2021-10-22T11:05:25Z</time>
      </trkpt>
      <trkpt lat="42.650106" lon="-2.755911">
        <ele>677.624</ele>
        <time>2021-10-22T11:05:28Z</time>
      </trkpt>
      <trkpt lat="42.650067" lon="-2.755954">
        <ele>677.508</ele>
        <time>2021-10-22T11:05:32Z</time>
      </trkpt>
      <trkpt lat="42.650059" lon="-2.755887">
        <ele>678.144</ele>
        <time>2021-10-22T11:06:01Z</time>
      </trkpt>
      <trkpt lat="42.650108" lon="-2.755864">
        <ele>679.063</ele>
        <time>2021-10-22T11:06:45Z</time>
      </trkpt>
      <trkpt lat="42.650141" lon="-2.755801">
        <ele>684.496</ele>
        <time>2021-10-22T11:06:53Z</time>
      </trkpt>
      <trkpt lat="42.650186" lon="-2.755811">
        <ele>683.449</ele>
        <time>2021-10-22T11:07:07Z</time>
      </trkpt>
      <trkpt lat="42.65014" lon="-2.755804">
        <ele>681.699</ele>
        <time>2021-10-22T11:09:41Z</time>
      </trkpt>
      <trkpt lat="42.650093" lon="-2.755796">
        <ele>681.545</ele>
        <time>2021-10-22T11:09:49Z</time>
      </trkpt>
      <trkpt lat="42.650082" lon="-2.755727">
        <ele>668.785</ele>
        <time>2021-10-22T11:16:13Z</time>
      </trkpt>
      <trkpt lat="42.650097" lon="-2.755631">
        <ele>667.819</ele>
        <time>2021-10-22T11:16:19Z</time>
      </trkpt>
      <trkpt lat="42.650129" lon="-2.755587">
        <ele>667.825</ele>
        <time>2021-10-22T11:16:25Z</time>
      </trkpt>
      <trkpt lat="42.65009" lon="-2.755548">
        <ele>668.626</ele>
        <time>2021-10-22T11:16:40Z</time>
      </trkpt>
      <trkpt lat="42.65005" lon="-2.755608">
        <ele>666.708</ele>
        <time>2021-10-22T11:16:44Z</time>
      </trkpt>
      <trkpt lat="42.65" lon="-2.755646">
        <ele>669.408</ele>
        <time>2021-10-22T11:16:49Z</time>
      </trkpt>
      <trkpt lat="42.649992" lon="-2.755571">
        <ele>673.550</ele>
        <time>2021-10-22T11:17:00Z</time>
      </trkpt>
      <trkpt lat="42.649981" lon="-2.755509">
        <ele>678.719</ele>
        <time>2021-10-22T11:17:06Z</time>
      </trkpt>
      <trkpt lat="42.649962" lon="-2.75545">
        <ele>678.512</ele>
        <time>2021-10-22T11:17:12Z</time>
      </trkpt>
      <trkpt lat="42.649975" lon="-2.755382">
        <ele>684.465</ele>
        <time>2021-10-22T11:17:25Z</time>
      </trkpt>
      <trkpt lat="42.64997" lon="-2.755314">
        <ele>682.915</ele>
        <time>2021-10-22T11:17:31Z</time>
      </trkpt>
      <trkpt lat="42.649966" lon="-2.755246">
        <ele>684.271</ele>
        <time>2021-10-22T11:17:37Z</time>
      </trkpt>
      <trkpt lat="42.649964" lon="-2.755176">
        <ele>682.181</ele>
        <time>2021-10-22T11:17:46Z</time>
      </trkpt>
      <trkpt lat="42.650009" lon="-2.7552">
        <ele>681.025</ele>
        <time>2021-10-22T11:17:55Z</time>
      </trkpt>
      <trkpt lat="42.649969" lon="-2.755239">
        <ele>679.044</ele>
        <time>2021-10-22T11:18:16Z</time>
      </trkpt>
      <trkpt lat="42.649926" lon="-2.755205">
        <ele>673.605</ele>
        <time>2021-10-22T11:18:20Z</time>
      </trkpt>
      <trkpt lat="42.649885" lon="-2.755178">
        <ele>673.515</ele>
        <time>2021-10-22T11:18:24Z</time>
      </trkpt>
      <trkpt lat="42.649858" lon="-2.755127">
        <ele>672.908</ele>
        <time>2021-10-22T11:18:29Z</time>
      </trkpt>
      <trkpt lat="42.649861" lon="-2.755061">
        <ele>676.272</ele>
        <time>2021-10-22T11:18:36Z</time>
      </trkpt>
      <trkpt lat="42.649874" lon="-2.754999">
        <ele>680.891</ele>
        <time>2021-10-22T11:18:50Z</time>
      </trkpt>
      <trkpt lat="42.649855" lon="-2.754941">
        <ele>684.834</ele>
        <time>2021-10-22T11:18:56Z</time>
      </trkpt>
      <trkpt lat="42.64982" lon="-2.754903">
        <ele>687.427</ele>
        <time>2021-10-22T11:19:21Z</time>
      </trkpt>
      <trkpt lat="42.649785" lon="-2.754951">
        <ele>686.617</ele>
        <time>2021-10-22T11:20:22Z</time>
      </trkpt>
      <trkpt lat="42.649739" lon="-2.754981">
        <ele>686.183</ele>
        <time>2021-10-22T11:20:31Z</time>
      </trkpt>
      <trkpt lat="42.649693" lon="-2.754973">
        <ele>684.493</ele>
        <time>2021-10-22T11:20:35Z</time>
      </trkpt>
      <trkpt lat="42.649646" lon="-2.754954">
        <ele>681.917</ele>
        <time>2021-10-22T11:20:40Z</time>
      </trkpt>
      <trkpt lat="42.64962" lon="-2.754899">
        <ele>681.865</ele>
        <time>2021-10-22T11:20:44Z</time>
      </trkpt>
      <trkpt lat="42.649609" lon="-2.754838">
        <ele>680.768</ele>
        <time>2021-10-22T11:20:48Z</time>
      </trkpt>
      <trkpt lat="42.649582" lon="-2.754789">
        <ele>676.814</ele>
        <time>2021-10-22T11:20:53Z</time>
      </trkpt>
      <trkpt lat="42.649542" lon="-2.754757">
        <ele>679.508</ele>
        <time>2021-10-22T11:20:58Z</time>
      </trkpt>
      <trkpt lat="42.649491" lon="-2.754753">
        <ele>678.914</ele>
        <time>2021-10-22T11:21:03Z</time>
      </trkpt>
      <trkpt lat="42.649452" lon="-2.754785">
        <ele>681.663</ele>
        <time>2021-10-22T11:21:07Z</time>
      </trkpt>
      <trkpt lat="42.649401" lon="-2.754797">
        <ele>681.726</ele>
        <time>2021-10-22T11:21:12Z</time>
      </trkpt>
      <trkpt lat="42.64936" lon="-2.754767">
        <ele>680.379</ele>
        <time>2021-10-22T11:21:16Z</time>
      </trkpt>
      <trkpt lat="42.649325" lon="-2.754727">
        <ele>680.439</ele>
        <time>2021-10-22T11:21:19Z</time>
      </trkpt>
      <trkpt lat="42.649291" lon="-2.754678">
        <ele>683.175</ele>
        <time>2021-10-22T11:21:25Z</time>
      </trkpt>
      <trkpt lat="42.649282" lon="-2.754616">
        <ele>681.645</ele>
        <time>2021-10-22T11:21:29Z</time>
      </trkpt>
      <trkpt lat="42.649265" lon="-2.754545">
        <ele>684.019</ele>
        <time>2021-10-22T11:21:31Z</time>
      </trkpt>
      <trkpt lat="42.649258" lon="-2.754468">
        <ele>684.959</ele>
        <time>2021-10-22T11:21:34Z</time>
      </trkpt>
      <trkpt lat="42.649257" lon="-2.754386">
        <ele>683.703</ele>
        <time>2021-10-22T11:21:36Z</time>
      </trkpt>
      <trkpt lat="42.649253" lon="-2.754323">
        <ele>683.223</ele>
        <time>2021-10-22T11:21:39Z</time>
      </trkpt>
      <trkpt lat="42.649243" lon="-2.754252">
        <ele>686.208</ele>
        <time>2021-10-22T11:21:43Z</time>
      </trkpt>
      <trkpt lat="42.649231" lon="-2.754183">
        <ele>686.933</ele>
        <time>2021-10-22T11:21:48Z</time>
      </trkpt>
      <trkpt lat="42.649246" lon="-2.754124">
        <ele>689.622</ele>
        <time>2021-10-22T11:21:54Z</time>
      </trkpt>
      <trkpt lat="42.649263" lon="-2.754059">
        <ele>691.485</ele>
        <time>2021-10-22T11:21:59Z</time>
      </trkpt>
      <trkpt lat="42.649294" lon="-2.754012">
        <ele>691.718</ele>
        <time>2021-10-22T11:22:03Z</time>
      </trkpt>
      <trkpt lat="42.649336" lon="-2.754043">
        <ele>695.218</ele>
        <time>2021-10-22T11:22:09Z</time>
      </trkpt>
      <trkpt lat="42.649376" lon="-2.754085">
        <ele>700.384</ele>
        <time>2021-10-22T11:22:27Z</time>
      </trkpt>
      <trkpt lat="42.649385" lon="-2.754023">
        <ele>701.754</ele>
        <time>2021-10-22T11:22:51Z</time>
      </trkpt>
      <trkpt lat="42.649434" lon="-2.754004">
        <ele>698.178</ele>
        <time>2021-10-22T11:22:55Z</time>
      </trkpt>
      <trkpt lat="42.649475" lon="-2.753971">
        <ele>700.839</ele>
        <time>2021-10-22T11:23:00Z</time>
      </trkpt>
      <trkpt lat="42.64951" lon="-2.753921">
        <ele>701.501</ele>
        <time>2021-10-22T11:23:04Z</time>
      </trkpt>
      <trkpt lat="42.649535" lon="-2.753859">
        <ele>702.621</ele>
        <time>2021-10-22T11:23:07Z</time>
      </trkpt>
      <trkpt lat="42.64953" lon="-2.753788">
        <ele>700.908</ele>
        <time>2021-10-22T11:23:10Z</time>
      </trkpt>
      <trkpt lat="42.649511" lon="-2.75373">
        <ele>699.891</ele>
        <time>2021-10-22T11:23:12Z</time>
      </trkpt>
      <trkpt lat="42.649483" lon="-2.753667">
        <ele>698.770</ele>
        <time>2021-10-22T11:23:15Z</time>
      </trkpt>
      <trkpt lat="42.649466" lon="-2.753606">
        <ele>695.573</ele>
        <time>2021-10-22T11:23:18Z</time>
      </trkpt>
      <trkpt lat="42.649457" lon="-2.753543">
        <ele>694.516</ele>
        <time>2021-10-22T11:23:23Z</time>
      </trkpt>
      <trkpt lat="42.649473" lon="-2.753478">
        <ele>695.396</ele>
        <time>2021-10-22T11:23:27Z</time>
      </trkpt>
      <trkpt lat="42.649508" lon="-2.753425">
        <ele>695.172</ele>
        <time>2021-10-22T11:23:31Z</time>
      </trkpt>
      <trkpt lat="42.649538" lon="-2.753376">
        <ele>696.772</ele>
        <time>2021-10-22T11:23:35Z</time>
      </trkpt>
      <trkpt lat="42.649587" lon="-2.753355">
        <ele>698.036</ele>
        <time>2021-10-22T11:23:40Z</time>
      </trkpt>
      <trkpt lat="42.64959" lon="-2.75342">
        <ele>696.848</ele>
        <time>2021-10-22T11:23:50Z</time>
      </trkpt>
      <trkpt lat="42.649619" lon="-2.75337">
        <ele>696.361</ele>
        <time>2021-10-22T11:24:06Z</time>
      </trkpt>
      <trkpt lat="42.649638" lon="-2.753301">
        <ele>694.017</ele>
        <time>2021-10-22T11:24:10Z</time>
      </trkpt>
      <trkpt lat="42.64965" lon="-2.75324">
        <ele>695.508</ele>
        <time>2021-10-22T11:24:15Z</time>
      </trkpt>
      <trkpt lat="42.649659" lon="-2.75318">
        <ele>698.632</ele>
        <time>2021-10-22T11:24:19Z</time>
      </trkpt>
      <trkpt lat="42.649683" lon="-2.753128">
        <ele>699.351</ele>
        <time>2021-10-22T11:24:23Z</time>
      </trkpt>
      <trkpt lat="42.649708" lon="-2.75307">
        <ele>701.574</ele>
        <time>2021-10-22T11:24:28Z</time>
      </trkpt>
      <trkpt lat="42.649734" lon="-2.753017">
        <ele>703.427</ele>
        <time>2021-10-22T11:24:32Z</time>
      </trkpt>
      <trkpt lat="42.649747" lon="-2.752958">
        <ele>704.537</ele>
        <time>2021-10-22T11:24:35Z</time>
      </trkpt>
      <trkpt lat="42.649768" lon="-2.752902">
        <ele>704.213</ele>
        <time>2021-10-22T11:24:39Z</time>
      </trkpt>
      <trkpt lat="42.649777" lon="-2.752836">
        <ele>706.253</ele>
        <time>2021-10-22T11:24:44Z</time>
      </trkpt>
      <trkpt lat="42.649792" lon="-2.75277">
        <ele>706.027</ele>
        <time>2021-10-22T11:24:50Z</time>
      </trkpt>
      <trkpt lat="42.649837" lon="-2.75275">
        <ele>701.463</ele>
        <time>2021-10-22T11:24:56Z</time>
      </trkpt>
      <trkpt lat="42.6498" lon="-2.752708">
        <ele>695.544</ele>
        <time>2021-10-22T11:25:10Z</time>
      </trkpt>
      <trkpt lat="42.649769" lon="-2.752662">
        <ele>696.918</ele>
        <time>2021-10-22T11:25:14Z</time>
      </trkpt>
      <trkpt lat="42.649734" lon="-2.75262">
        <ele>691.708</ele>
        <time>2021-10-22T11:25:18Z</time>
      </trkpt>
      <trkpt lat="42.64969" lon="-2.752599">
        <ele>695.474</ele>
        <time>2021-10-22T11:25:22Z</time>
      </trkpt>
      <trkpt lat="42.649645" lon="-2.752583">
        <ele>695.783</ele>
        <time>2021-10-22T11:25:27Z</time>
      </trkpt>
      <trkpt lat="42.649598" lon="-2.752608">
        <ele>697.446</ele>
        <time>2021-10-22T11:25:53Z</time>
      </trkpt>
      <trkpt lat="42.649553" lon="-2.752594">
        <ele>699.199</ele>
        <time>2021-10-22T11:25:56Z</time>
      </trkpt>
      <trkpt lat="42.649506" lon="-2.752572">
        <ele>698.159</ele>
        <time>2021-10-22T11:25:58Z</time>
      </trkpt>
      <trkpt lat="42.649457" lon="-2.752545">
        <ele>696.515</ele>
        <time>2021-10-22T11:26:01Z</time>
      </trkpt>
      <trkpt lat="42.649407" lon="-2.752535">
        <ele>698.275</ele>
        <time>2021-10-22T11:26:05Z</time>
      </trkpt>
      <trkpt lat="42.649362" lon="-2.752542">
        <ele>697.519</ele>
        <time>2021-10-22T11:26:08Z</time>
      </trkpt>
      <trkpt lat="42.649318" lon="-2.752572">
        <ele>698.989</ele>
        <time>2021-10-22T11:26:13Z</time>
      </trkpt>
      <trkpt lat="42.649273" lon="-2.752594">
        <ele>696.406</ele>
        <time>2021-10-22T11:26:18Z</time>
      </trkpt>
      <trkpt lat="42.649224" lon="-2.752591">
        <ele>697.226</ele>
        <time>2021-10-22T11:26:24Z</time>
      </trkpt>
      <trkpt lat="42.649186" lon="-2.752551">
        <ele>698.208</ele>
        <time>2021-10-22T11:26:29Z</time>
      </trkpt>
      <trkpt lat="42.649159" lon="-2.752491">
        <ele>700.356</ele>
        <time>2021-10-22T11:26:33Z</time>
      </trkpt>
      <trkpt lat="42.649133" lon="-2.75244">
        <ele>698.565</ele>
        <time>2021-10-22T11:26:36Z</time>
      </trkpt>
      <trkpt lat="42.649091" lon="-2.752404">
        <ele>699.998</ele>
        <time>2021-10-22T11:26:41Z</time>
      </trkpt>
      <trkpt lat="42.649049" lon="-2.752362">
        <ele>706.521</ele>
        <time>2021-10-22T11:26:44Z</time>
      </trkpt>
      <trkpt lat="42.649028" lon="-2.752304">
        <ele>706.541</ele>
        <time>2021-10-22T11:26:49Z</time>
      </trkpt>
      <trkpt lat="42.648996" lon="-2.752248">
        <ele>704.877</ele>
        <time>2021-10-22T11:27:00Z</time>
      </trkpt>
      <trkpt lat="42.648958" lon="-2.752206">
        <ele>704.927</ele>
        <time>2021-10-22T11:27:03Z</time>
      </trkpt>
      <trkpt lat="42.648922" lon="-2.752151">
        <ele>703.151</ele>
        <time>2021-10-22T11:27:06Z</time>
      </trkpt>
      <trkpt lat="42.648907" lon="-2.752093">
        <ele>704.198</ele>
        <time>2021-10-22T11:27:09Z</time>
      </trkpt>
      <trkpt lat="42.648915" lon="-2.752029">
        <ele>704.615</ele>
        <time>2021-10-22T11:27:13Z</time>
      </trkpt>
      <trkpt lat="42.648916" lon="-2.751964">
        <ele>704.026</ele>
        <time>2021-10-22T11:27:17Z</time>
      </trkpt>
      <trkpt lat="42.648868" lon="-2.751962">
        <ele>704.208</ele>
        <time>2021-10-22T11:27:31Z</time>
      </trkpt>
      <trkpt lat="42.648829" lon="-2.751929">
        <ele>704.357</ele>
        <time>2021-10-22T11:27:36Z</time>
      </trkpt>
      <trkpt lat="42.648783" lon="-2.751903">
        <ele>705.036</ele>
        <time>2021-10-22T11:27:41Z</time>
      </trkpt>
      <trkpt lat="42.648741" lon="-2.751878">
        <ele>707.449</ele>
        <time>2021-10-22T11:27:45Z</time>
      </trkpt>
      <trkpt lat="42.648704" lon="-2.751836">
        <ele>706.912</ele>
        <time>2021-10-22T11:27:50Z</time>
      </trkpt>
      <trkpt lat="42.648662" lon="-2.751814">
        <ele>708.462</ele>
        <time>2021-10-22T11:27:54Z</time>
      </trkpt>
      <trkpt lat="42.648613" lon="-2.751795">
        <ele>707.428</ele>
        <time>2021-10-22T11:27:59Z</time>
      </trkpt>
      <trkpt lat="42.648563" lon="-2.751779">
        <ele>706.758</ele>
        <time>2021-10-22T11:28:03Z</time>
      </trkpt>
      <trkpt lat="42.648513" lon="-2.751781">
        <ele>705.772</ele>
        <time>2021-10-22T11:28:07Z</time>
      </trkpt>
      <trkpt lat="42.648466" lon="-2.751781">
        <ele>704.042</ele>
        <time>2021-10-22T11:28:11Z</time>
      </trkpt>
      <trkpt lat="42.648421" lon="-2.751785">
        <ele>705.022</ele>
        <time>2021-10-22T11:28:15Z</time>
      </trkpt>
      <trkpt lat="42.648369" lon="-2.751799">
        <ele>702.714</ele>
        <time>2021-10-22T11:28:34Z</time>
      </trkpt>
      <trkpt lat="42.648322" lon="-2.751823">
        <ele>704.308</ele>
        <time>2021-10-22T11:28:36Z</time>
      </trkpt>
      <trkpt lat="42.648288" lon="-2.751865">
        <ele>703.232</ele>
        <time>2021-10-22T11:28:41Z</time>
      </trkpt>
      <trkpt lat="42.648237" lon="-2.751868">
        <ele>700.491</ele>
        <time>2021-10-22T11:28:46Z</time>
      </trkpt>
      <trkpt lat="42.648186" lon="-2.751872">
        <ele>700.074</ele>
        <time>2021-10-22T11:28:50Z</time>
      </trkpt>
      <trkpt lat="42.648137" lon="-2.751877">
        <ele>700.567</ele>
        <time>2021-10-22T11:28:54Z</time>
      </trkpt>
      <trkpt lat="42.64809" lon="-2.751879">
        <ele>700.797</ele>
        <time>2021-10-22T11:28:59Z</time>
      </trkpt>
      <trkpt lat="42.648041" lon="-2.751886">
        <ele>702.023</ele>
        <time>2021-10-22T11:29:13Z</time>
      </trkpt>
      <trkpt lat="42.648002" lon="-2.751918">
        <ele>705.333</ele>
        <time>2021-10-22T11:29:19Z</time>
      </trkpt>
      <trkpt lat="42.647954" lon="-2.751927">
        <ele>704.947</ele>
        <time>2021-10-22T11:29:23Z</time>
      </trkpt>
      <trkpt lat="42.647907" lon="-2.75189">
        <ele>705.025</ele>
        <time>2021-10-22T11:29:27Z</time>
      </trkpt>
      <trkpt lat="42.647864" lon="-2.751851">
        <ele>706.826</ele>
        <time>2021-10-22T11:29:31Z</time>
      </trkpt>
      <trkpt lat="42.647831" lon="-2.751808">
        <ele>707.308</ele>
        <time>2021-10-22T11:29:35Z</time>
      </trkpt>
      <trkpt lat="42.647782" lon="-2.751786">
        <ele>706.908</ele>
        <time>2021-10-22T11:29:38Z</time>
      </trkpt>
      <trkpt lat="42.647794" lon="-2.751845">
        <ele>709.090</ele>
        <time>2021-10-22T11:30:05Z</time>
      </trkpt>
      <trkpt lat="42.647799" lon="-2.751913">
        <ele>711.999</ele>
        <time>2021-10-22T11:30:07Z</time>
      </trkpt>
      <trkpt lat="42.647826" lon="-2.751988">
        <ele>714.922</ele>
        <time>2021-10-22T11:30:09Z</time>
      </trkpt>
      <trkpt lat="42.647857" lon="-2.752036">
        <ele>713.295</ele>
        <time>2021-10-22T11:30:11Z</time>
      </trkpt>
      <trkpt lat="42.647902" lon="-2.752028">
        <ele>711.895</ele>
        <time>2021-10-22T11:30:29Z</time>
      </trkpt>
      <trkpt lat="42.647932" lon="-2.751977">
        <ele>713.751</ele>
        <time>2021-10-22T11:30:57Z</time>
      </trkpt>
      <trkpt lat="42.647947" lon="-2.751917">
        <ele>711.151</ele>
        <time>2021-10-22T11:31:01Z</time>
      </trkpt>
      <trkpt lat="42.647988" lon="-2.751891">
        <ele>715.165</ele>
        <time>2021-10-22T11:31:04Z</time>
      </trkpt>
      <trkpt lat="42.648022" lon="-2.751842">
        <ele>710.248</ele>
        <time>2021-10-22T11:31:15Z</time>
      </trkpt>
      <trkpt lat="42.648052" lon="-2.751793">
        <ele>709.561</ele>
        <time>2021-10-22T11:31:21Z</time>
      </trkpt>
      <trkpt lat="42.648037" lon="-2.751721">
        <ele>715.317</ele>
        <time>2021-10-22T11:31:26Z</time>
      </trkpt>
      <trkpt lat="42.648025" lon="-2.751656">
        <ele>718.508</ele>
        <time>2021-10-22T11:31:29Z</time>
      </trkpt>
      <trkpt lat="42.648016" lon="-2.751579">
        <ele>719.592</ele>
        <time>2021-10-22T11:31:32Z</time>
      </trkpt>
      <trkpt lat="42.648023" lon="-2.751504">
        <ele>719.441</ele>
        <time>2021-10-22T11:31:33Z</time>
      </trkpt>
      <trkpt lat="42.648038" lon="-2.751426">
        <ele>718.994</ele>
        <time>2021-10-22T11:31:34Z</time>
      </trkpt>
      <trkpt lat="42.648041" lon="-2.751364">
        <ele>719.027</ele>
        <time>2021-10-22T11:31:36Z</time>
      </trkpt>
      <trkpt lat="42.648" lon="-2.751331">
        <ele>718.847</ele>
        <time>2021-10-22T11:31:41Z</time>
      </trkpt>
      <trkpt lat="42.647956" lon="-2.751353">
        <ele>720.573</ele>
        <time>2021-10-22T11:31:47Z</time>
      </trkpt>
      <trkpt lat="42.647911" lon="-2.751359">
        <ele>717.383</ele>
        <time>2021-10-22T11:31:54Z</time>
      </trkpt>
      <trkpt lat="42.647951" lon="-2.751317">
        <ele>709.567</ele>
        <time>2021-10-22T11:32:35Z</time>
      </trkpt>
      <trkpt lat="42.647992" lon="-2.751275">
        <ele>715.054</ele>
        <time>2021-10-22T11:32:39Z</time>
      </trkpt>
      <trkpt lat="42.648009" lon="-2.751218">
        <ele>721.056</ele>
        <time>2021-10-22T11:32:49Z</time>
      </trkpt>
      <trkpt lat="42.647991" lon="-2.75116">
        <ele>723.811</ele>
        <time>2021-10-22T11:33:12Z</time>
      </trkpt>
      <trkpt lat="42.648003" lon="-2.751219">
        <ele>726.908</ele>
        <time>2021-10-22T11:33:34Z</time>
      </trkpt>
      <trkpt lat="42.647972" lon="-2.75117">
        <ele>730.443</ele>
        <time>2021-10-22T11:33:50Z</time>
      </trkpt>
      <trkpt lat="42.647995" lon="-2.751116">
        <ele>730.452</ele>
        <time>2021-10-22T11:34:11Z</time>
      </trkpt>
      <trkpt lat="42.647988" lon="-2.751187">
        <ele>733.765</ele>
        <time>2021-10-22T11:35:13Z</time>
      </trkpt>
      <trkpt lat="42.647956" lon="-2.751233">
        <ele>727.918</ele>
        <time>2021-10-22T11:35:27Z</time>
      </trkpt>
      <trkpt lat="42.647943" lon="-2.751295">
        <ele>721.898</ele>
        <time>2021-10-22T11:35:57Z</time>
      </trkpt>
      <trkpt lat="42.647943" lon="-2.751363">
        <ele>719.944</ele>
        <time>2021-10-22T11:36:02Z</time>
      </trkpt>
      <trkpt lat="42.647897" lon="-2.751404">
        <ele>719.914</ele>
        <time>2021-10-22T11:36:05Z</time>
      </trkpt>
      <trkpt lat="42.647855" lon="-2.751436">
        <ele>719.358</ele>
        <time>2021-10-22T11:36:08Z</time>
      </trkpt>
      <trkpt lat="42.647838" lon="-2.751496">
        <ele>718.124</ele>
        <time>2021-10-22T11:36:11Z</time>
      </trkpt>
      <trkpt lat="42.647831" lon="-2.751561">
        <ele>714.404</ele>
        <time>2021-10-22T11:36:20Z</time>
      </trkpt>
      <trkpt lat="42.647833" lon="-2.751628">
        <ele>710.714</ele>
        <time>2021-10-22T11:36:25Z</time>
      </trkpt>
      <trkpt lat="42.647826" lon="-2.75169">
        <ele>708.808</ele>
        <time>2021-10-22T11:36:28Z</time>
      </trkpt>
      <trkpt lat="42.647851" lon="-2.751742">
        <ele>708.840</ele>
        <time>2021-10-22T11:36:32Z</time>
      </trkpt>
      <trkpt lat="42.647864" lon="-2.751808">
        <ele>709.639</ele>
        <time>2021-10-22T11:36:36Z</time>
      </trkpt>
      <trkpt lat="42.647864" lon="-2.751871">
        <ele>708.942</ele>
        <time>2021-10-22T11:36:41Z</time>
      </trkpt>
      <trkpt lat="42.647816" lon="-2.751887">
        <ele>707.275</ele>
        <time>2021-10-22T11:36:47Z</time>
      </trkpt>
      <trkpt lat="42.64777" lon="-2.751907">
        <ele>707.085</ele>
        <time>2021-10-22T11:36:51Z</time>
      </trkpt>
      <trkpt lat="42.64773" lon="-2.751946">
        <ele>704.851</ele>
        <time>2021-10-22T11:36:55Z</time>
      </trkpt>
      <trkpt lat="42.647692" lon="-2.751989">
        <ele>706.481</ele>
        <time>2021-10-22T11:36:58Z</time>
      </trkpt>
      <trkpt lat="42.647644" lon="-2.751987">
        <ele>704.855</ele>
        <time>2021-10-22T11:37:03Z</time>
      </trkpt>
      <trkpt lat="42.647626" lon="-2.751926">
        <ele>705.739</ele>
        <time>2021-10-22T11:37:06Z</time>
      </trkpt>
      <trkpt lat="42.647608" lon="-2.75187">
        <ele>707.601</ele>
        <time>2021-10-22T11:37:09Z</time>
      </trkpt>
      <trkpt lat="42.647595" lon="-2.751808">
        <ele>708.821</ele>
        <time>2021-10-22T11:37:14Z</time>
      </trkpt>
      <trkpt lat="42.647593" lon="-2.75174">
        <ele>711.008</ele>
        <time>2021-10-22T11:37:18Z</time>
      </trkpt>
      <trkpt lat="42.647611" lon="-2.75168">
        <ele>711.851</ele>
        <time>2021-10-22T11:37:21Z</time>
      </trkpt>
      <trkpt lat="42.647643" lon="-2.751622">
        <ele>712.890</ele>
        <time>2021-10-22T11:37:24Z</time>
      </trkpt>
      <trkpt lat="42.647672" lon="-2.751564">
        <ele>714.283</ele>
        <time>2021-10-22T11:37:27Z</time>
      </trkpt>
      <trkpt lat="42.647717" lon="-2.751546">
        <ele>715.076</ele>
        <time>2021-10-22T11:37:29Z</time>
      </trkpt>
      <trkpt lat="42.647754" lon="-2.751508">
        <ele>713.856</ele>
        <time>2021-10-22T11:37:32Z</time>
      </trkpt>
      <trkpt lat="42.647785" lon="-2.751443">
        <ele>712.152</ele>
        <time>2021-10-22T11:37:35Z</time>
      </trkpt>
      <trkpt lat="42.64781" lon="-2.751391">
        <ele>712.782</ele>
        <time>2021-10-22T11:37:37Z</time>
      </trkpt>
      <trkpt lat="42.647826" lon="-2.751328">
        <ele>713.646</ele>
        <time>2021-10-22T11:37:40Z</time>
      </trkpt>
      <trkpt lat="42.64784" lon="-2.751266">
        <ele>714.362</ele>
        <time>2021-10-22T11:37:44Z</time>
      </trkpt>
      <trkpt lat="42.647888" lon="-2.751249">
        <ele>714.983</ele>
        <time>2021-10-22T11:37:48Z</time>
      </trkpt>
      <trkpt lat="42.647872" lon="-2.75118">
        <ele>717.211</ele>
        <time>2021-10-22T11:37:56Z</time>
      </trkpt>
      <trkpt lat="42.647909" lon="-2.751143">
        <ele>717.808</ele>
        <time>2021-10-22T11:38:12Z</time>
      </trkpt>
      <trkpt lat="42.647944" lon="-2.751181">
        <ele>713.264</ele>
        <time>2021-10-22T11:38:34Z</time>
      </trkpt>
      <trkpt lat="42.647898" lon="-2.751167">
        <ele>718.733</ele>
        <time>2021-10-22T11:39:17Z</time>
      </trkpt>
      <trkpt lat="42.647863" lon="-2.751229">
        <ele>719.496</ele>
        <time>2021-10-22T11:39:20Z</time>
      </trkpt>
      <trkpt lat="42.647831" lon="-2.751272">
        <ele>718.969</ele>
        <time>2021-10-22T11:39:22Z</time>
      </trkpt>
      <trkpt lat="42.647785" lon="-2.751307">
        <ele>719.489</ele>
        <time>2021-10-22T11:39:25Z</time>
      </trkpt>
      <trkpt lat="42.647744" lon="-2.751337">
        <ele>717.445</ele>
        <time>2021-10-22T11:39:28Z</time>
      </trkpt>
      <trkpt lat="42.647699" lon="-2.751364">
        <ele>717.495</ele>
        <time>2021-10-22T11:39:31Z</time>
      </trkpt>
      <trkpt lat="42.64767" lon="-2.75142">
        <ele>716.999</ele>
        <time>2021-10-22T11:39:33Z</time>
      </trkpt>
      <trkpt lat="42.647649" lon="-2.751488">
        <ele>715.939</ele>
        <time>2021-10-22T11:39:35Z</time>
      </trkpt>
      <trkpt lat="42.647627" lon="-2.75156">
        <ele>718.001</ele>
        <time>2021-10-22T11:39:37Z</time>
      </trkpt>
      <trkpt lat="42.647615" lon="-2.751635">
        <ele>719.121</ele>
        <time>2021-10-22T11:39:39Z</time>
      </trkpt>
      <trkpt lat="42.647621" lon="-2.751712">
        <ele>720.408</ele>
        <time>2021-10-22T11:39:42Z</time>
      </trkpt>
      <trkpt lat="42.647638" lon="-2.751794">
        <ele>721.151</ele>
        <time>2021-10-22T11:39:44Z</time>
      </trkpt>
      <trkpt lat="42.647661" lon="-2.751859">
        <ele>718.860</ele>
        <time>2021-10-22T11:39:46Z</time>
      </trkpt>
      <trkpt lat="42.647695" lon="-2.751921">
        <ele>718.033</ele>
        <time>2021-10-22T11:39:48Z</time>
      </trkpt>
      <trkpt lat="42.647726" lon="-2.75199">
        <ele>720.596</ele>
        <time>2021-10-22T11:39:50Z</time>
      </trkpt>
      <trkpt lat="42.647771" lon="-2.752028">
        <ele>719.656</ele>
        <time>2021-10-22T11:39:51Z</time>
      </trkpt>
      <trkpt lat="42.647817" lon="-2.752015">
        <ele>719.352</ele>
        <time>2021-10-22T11:39:53Z</time>
      </trkpt>
      <trkpt lat="42.647868" lon="-2.751995">
        <ele>715.522</ele>
        <time>2021-10-22T11:39:56Z</time>
      </trkpt>
      <trkpt lat="42.647876" lon="-2.751933">
        <ele>715.346</ele>
        <time>2021-10-22T11:39:59Z</time>
      </trkpt>
      <trkpt lat="42.647922" lon="-2.751916">
        <ele>713.914</ele>
        <time>2021-10-22T11:40:03Z</time>
      </trkpt>
      <trkpt lat="42.647961" lon="-2.751876">
        <ele>716.254</ele>
        <time>2021-10-22T11:40:06Z</time>
      </trkpt>
      <trkpt lat="42.648003" lon="-2.751853">
        <ele>716.509</ele>
        <time>2021-10-22T11:40:09Z</time>
      </trkpt>
      <trkpt lat="42.648044" lon="-2.751824">
        <ele>714.708</ele>
        <time>2021-10-22T11:40:17Z</time>
      </trkpt>
      <trkpt lat="42.648085" lon="-2.751778">
        <ele>715.919</ele>
        <time>2021-10-22T11:40:21Z</time>
      </trkpt>
      <trkpt lat="42.648104" lon="-2.751706">
        <ele>719.598</ele>
        <time>2021-10-22T11:40:25Z</time>
      </trkpt>
      <trkpt lat="42.648116" lon="-2.751638">
        <ele>719.151</ele>
        <time>2021-10-22T11:40:27Z</time>
      </trkpt>
      <trkpt lat="42.648098" lon="-2.751579">
        <ele>720.864</ele>
        <time>2021-10-22T11:40:30Z</time>
      </trkpt>
      <trkpt lat="42.648066" lon="-2.751532">
        <ele>719.824</ele>
        <time>2021-10-22T11:40:33Z</time>
      </trkpt>
      <trkpt lat="42.648032" lon="-2.75149">
        <ele>721.640</ele>
        <time>2021-10-22T11:40:36Z</time>
      </trkpt>
      <trkpt lat="42.648015" lon="-2.751427">
        <ele>720.790</ele>
        <time>2021-10-22T11:40:39Z</time>
      </trkpt>
      <trkpt lat="42.648015" lon="-2.751361">
        <ele>721.284</ele>
        <time>2021-10-22T11:40:43Z</time>
      </trkpt>
      <trkpt lat="42.648066" lon="-2.751327">
        <ele>719.552</ele>
        <time>2021-10-22T11:40:46Z</time>
      </trkpt>
      <trkpt lat="42.648112" lon="-2.751302">
        <ele>722.553</ele>
        <time>2021-10-22T11:40:50Z</time>
      </trkpt>
      <trkpt lat="42.648158" lon="-2.75131">
        <ele>722.508</ele>
        <time>2021-10-22T11:41:02Z</time>
      </trkpt>
      <trkpt lat="42.648181" lon="-2.751246">
        <ele>720.208</ele>
        <time>2021-10-22T11:41:11Z</time>
      </trkpt>
      <trkpt lat="42.648183" lon="-2.751177">
        <ele>719.863</ele>
        <time>2021-10-22T11:41:28Z</time>
      </trkpt>
      <trkpt lat="42.648215" lon="-2.75113">
        <ele>721.682</ele>
        <time>2021-10-22T11:41:31Z</time>
      </trkpt>
      <trkpt lat="42.648257" lon="-2.751096">
        <ele>720.335</ele>
        <time>2021-10-22T11:41:34Z</time>
      </trkpt>
      <trkpt lat="42.64828" lon="-2.751037">
        <ele>723.988</ele>
        <time>2021-10-22T11:41:38Z</time>
      </trkpt>
      <trkpt lat="42.648262" lon="-2.750979">
        <ele>727.458</ele>
        <time>2021-10-22T11:41:43Z</time>
      </trkpt>
      <trkpt lat="42.648215" lon="-2.750964">
        <ele>729.444</ele>
        <time>2021-10-22T11:41:47Z</time>
      </trkpt>
      <trkpt lat="42.648165" lon="-2.750968">
        <ele>733.684</ele>
        <time>2021-10-22T11:41:50Z</time>
      </trkpt>
      <trkpt lat="42.648115" lon="-2.75096">
        <ele>734.918</ele>
        <time>2021-10-22T11:41:54Z</time>
      </trkpt>
      <trkpt lat="42.648157" lon="-2.750927">
        <ele>734.717</ele>
        <time>2021-10-22T11:42:04Z</time>
      </trkpt>
      <trkpt lat="42.648204" lon="-2.750945">
        <ele>738.687</ele>
        <time>2021-10-22T11:42:07Z</time>
      </trkpt>
      <trkpt lat="42.648249" lon="-2.750928">
        <ele>741.615</ele>
        <time>2021-10-22T11:42:11Z</time>
      </trkpt>
      <trkpt lat="42.648291" lon="-2.750906">
        <ele>737.208</ele>
        <time>2021-10-22T11:42:15Z</time>
      </trkpt>
      <trkpt lat="42.648284" lon="-2.75084">
        <ele>737.139</ele>
        <time>2021-10-22T11:42:19Z</time>
      </trkpt>
      <trkpt lat="42.648257" lon="-2.75079">
        <ele>734.738</ele>
        <time>2021-10-22T11:42:23Z</time>
      </trkpt>
      <trkpt lat="42.648215" lon="-2.750751">
        <ele>734.741</ele>
        <time>2021-10-22T11:42:27Z</time>
      </trkpt>
      <trkpt lat="42.648169" lon="-2.75072">
        <ele>734.544</ele>
        <time>2021-10-22T11:42:32Z</time>
      </trkpt>
      <trkpt lat="42.648124" lon="-2.750681">
        <ele>734.194</ele>
        <time>2021-10-22T11:42:38Z</time>
      </trkpt>
      <trkpt lat="42.648078" lon="-2.750687">
        <ele>733.150</ele>
        <time>2021-10-22T11:42:45Z</time>
      </trkpt>
      <trkpt lat="42.648046" lon="-2.750745">
        <ele>733.050</ele>
        <time>2021-10-22T11:42:51Z</time>
      </trkpt>
      <trkpt lat="42.648048" lon="-2.75067">
        <ele>730.464</ele>
        <time>2021-10-22T11:43:09Z</time>
      </trkpt>
      <trkpt lat="42.648027" lon="-2.750607">
        <ele>728.864</ele>
        <time>2021-10-22T11:43:14Z</time>
      </trkpt>
      <trkpt lat="42.648012" lon="-2.750545">
        <ele>731.506</ele>
        <time>2021-10-22T11:43:18Z</time>
      </trkpt>
      <trkpt lat="42.647966" lon="-2.750528">
        <ele>734.516</ele>
        <time>2021-10-22T11:43:23Z</time>
      </trkpt>
      <trkpt lat="42.647955" lon="-2.750463">
        <ele>735.408</ele>
        <time>2021-10-22T11:43:39Z</time>
      </trkpt>
      <trkpt lat="42.647926" lon="-2.75041">
        <ele>738.864</ele>
        <time>2021-10-22T11:43:47Z</time>
      </trkpt>
      <trkpt lat="42.647924" lon="-2.750342">
        <ele>740.423</ele>
        <time>2021-10-22T11:43:56Z</time>
      </trkpt>
      <trkpt lat="42.647921" lon="-2.750276">
        <ele>742.746</ele>
        <time>2021-10-22T11:44:03Z</time>
      </trkpt>
      <trkpt lat="42.647972" lon="-2.750254">
        <ele>745.269</ele>
        <time>2021-10-22T11:44:13Z</time>
      </trkpt>
      <trkpt lat="42.648021" lon="-2.750267">
        <ele>745.149</ele>
        <time>2021-10-22T11:44:19Z</time>
      </trkpt>
      <trkpt lat="42.648061" lon="-2.750297">
        <ele>746.265</ele>
        <time>2021-10-22T11:44:23Z</time>
      </trkpt>
      <trkpt lat="42.648108" lon="-2.750316">
        <ele>746.355</ele>
        <time>2021-10-22T11:44:28Z</time>
      </trkpt>
      <trkpt lat="42.648159" lon="-2.750308">
        <ele>747.569</ele>
        <time>2021-10-22T11:44:33Z</time>
      </trkpt>
      <trkpt lat="42.648214" lon="-2.750306">
        <ele>750.245</ele>
        <time>2021-10-22T11:44:38Z</time>
      </trkpt>
      <trkpt lat="42.64826" lon="-2.750305">
        <ele>750.647</ele>
        <time>2021-10-22T11:44:42Z</time>
      </trkpt>
      <trkpt lat="42.648307" lon="-2.750316">
        <ele>751.711</ele>
        <time>2021-10-22T11:44:47Z</time>
      </trkpt>
      <trkpt lat="42.648355" lon="-2.750333">
        <ele>752.208</ele>
        <time>2021-10-22T11:44:52Z</time>
      </trkpt>
      <trkpt lat="42.648404" lon="-2.750338">
        <ele>758.592</ele>
        <time>2021-10-22T11:45:03Z</time>
      </trkpt>
      <trkpt lat="42.649765" lon="-2.75012">
        <ele>750.791</ele>
        <time>2021-10-22T12:19:42Z</time>
      </trkpt>
      <trkpt lat="42.649808" lon="-2.750139">
        <ele>751.724</ele>
        <time>2021-10-22T12:20:20Z</time>
      </trkpt>
      <trkpt lat="42.649766" lon="-2.750167">
        <ele>752.527</ele>
        <time>2021-10-22T12:21:23Z</time>
      </trkpt>
      <trkpt lat="42.649723" lon="-2.75019">
        <ele>753.597</ele>
        <time>2021-10-22T12:21:34Z</time>
      </trkpt>
      <trkpt lat="42.649694" lon="-2.750251">
        <ele>753.263</ele>
        <time>2021-10-22T12:21:37Z</time>
      </trkpt>
      <trkpt lat="42.649657" lon="-2.750293">
        <ele>752.993</ele>
        <time>2021-10-22T12:21:40Z</time>
      </trkpt>
      <trkpt lat="42.649616" lon="-2.750334">
        <ele>751.517</ele>
        <time>2021-10-22T12:21:43Z</time>
      </trkpt>
      <trkpt lat="42.649566" lon="-2.750364">
        <ele>751.139</ele>
        <time>2021-10-22T12:21:47Z</time>
      </trkpt>
      <trkpt lat="42.64952" lon="-2.750382">
        <ele>750.401</ele>
        <time>2021-10-22T12:21:51Z</time>
      </trkpt>
      <trkpt lat="42.649478" lon="-2.750404">
        <ele>752.121</ele>
        <time>2021-10-22T12:21:57Z</time>
      </trkpt>
      <trkpt lat="42.649519" lon="-2.750361">
        <ele>750.108</ele>
        <time>2021-10-22T12:22:07Z</time>
      </trkpt>
      <trkpt lat="42.649557" lon="-2.750321">
        <ele>749.561</ele>
        <time>2021-10-22T12:22:11Z</time>
      </trkpt>
      <trkpt lat="42.649595" lon="-2.750282">
        <ele>748.040</ele>
        <time>2021-10-22T12:22:14Z</time>
      </trkpt>
      <trkpt lat="42.649631" lon="-2.75024">
        <ele>749.983</ele>
        <time>2021-10-22T12:22:17Z</time>
      </trkpt>
      <trkpt lat="42.649667" lon="-2.7502">
        <ele>749.796</ele>
        <time>2021-10-22T12:22:21Z</time>
      </trkpt>
      <trkpt lat="42.649705" lon="-2.750166">
        <ele>747.466</ele>
        <time>2021-10-22T12:22:25Z</time>
      </trkpt>
      <trkpt lat="42.64975" lon="-2.750134">
        <ele>744.332</ele>
        <time>2021-10-22T12:22:30Z</time>
      </trkpt>
      <trkpt lat="42.649796" lon="-2.750135">
        <ele>746.562</ele>
        <time>2021-10-22T12:22:36Z</time>
      </trkpt>
      <trkpt lat="42.649848" lon="-2.750122">
        <ele>744.856</ele>
        <time>2021-10-22T12:22:42Z</time>
      </trkpt>
      <trkpt lat="42.649894" lon="-2.750107">
        <ele>746.753</ele>
        <time>2021-10-22T12:22:47Z</time>
      </trkpt>
      <trkpt lat="42.649938" lon="-2.750094">
        <ele>746.504</ele>
        <time>2021-10-22T12:22:52Z</time>
      </trkpt>
      <trkpt lat="42.649983" lon="-2.750083">
        <ele>744.314</ele>
        <time>2021-10-22T12:22:57Z</time>
      </trkpt>
      <trkpt lat="42.65003" lon="-2.750076">
        <ele>743.908</ele>
        <time>2021-10-22T12:23:02Z</time>
      </trkpt>
      <trkpt lat="42.650075" lon="-2.750071">
        <ele>744.523</ele>
        <time>2021-10-22T12:23:07Z</time>
      </trkpt>
      <trkpt lat="42.650125" lon="-2.750073">
        <ele>742.692</ele>
        <time>2021-10-22T12:23:13Z</time>
      </trkpt>
      <trkpt lat="42.650172" lon="-2.750089">
        <ele>740.625</ele>
        <time>2021-10-22T12:23:18Z</time>
      </trkpt>
      <trkpt lat="42.650219" lon="-2.750101">
        <ele>740.088</ele>
        <time>2021-10-22T12:23:22Z</time>
      </trkpt>
      <trkpt lat="42.650267" lon="-2.750114">
        <ele>741.338</ele>
        <time>2021-10-22T12:23:25Z</time>
      </trkpt>
      <trkpt lat="42.650312" lon="-2.75014">
        <ele>742.674</ele>
        <time>2021-10-22T12:23:30Z</time>
      </trkpt>
      <trkpt lat="42.650354" lon="-2.750167">
        <ele>741.284</ele>
        <time>2021-10-22T12:23:34Z</time>
      </trkpt>
      <trkpt lat="42.650394" lon="-2.750202">
        <ele>740.858</ele>
        <time>2021-10-22T12:23:38Z</time>
      </trkpt>
      <trkpt lat="42.650436" lon="-2.750233">
        <ele>741.666</ele>
        <time>2021-10-22T12:23:45Z</time>
      </trkpt>
      <trkpt lat="42.650479" lon="-2.750267">
        <ele>741.629</ele>
        <time>2021-10-22T12:23:54Z</time>
      </trkpt>
      <trkpt lat="42.650517" lon="-2.750309">
        <ele>742.621</ele>
        <time>2021-10-22T12:24:00Z</time>
      </trkpt>
      <trkpt lat="42.650562" lon="-2.750347">
        <ele>742.308</ele>
        <time>2021-10-22T12:24:05Z</time>
      </trkpt>
      <trkpt lat="42.650614" lon="-2.750374">
        <ele>743.274</ele>
        <time>2021-10-22T12:24:09Z</time>
      </trkpt>
      <trkpt lat="42.650658" lon="-2.750391">
        <ele>743.253</ele>
        <time>2021-10-22T12:24:12Z</time>
      </trkpt>
      <trkpt lat="42.650707" lon="-2.750391">
        <ele>743.546</ele>
        <time>2021-10-22T12:24:16Z</time>
      </trkpt>
      <trkpt lat="42.650752" lon="-2.7504">
        <ele>745.389</ele>
        <time>2021-10-22T12:24:27Z</time>
      </trkpt>
      <trkpt lat="42.650799" lon="-2.750404">
        <ele>748.449</ele>
        <time>2021-10-22T12:24:32Z</time>
      </trkpt>
      <trkpt lat="42.650847" lon="-2.750404">
        <ele>749.295</ele>
        <time>2021-10-22T12:24:37Z</time>
      </trkpt>
      <trkpt lat="42.650896" lon="-2.750405">
        <ele>751.845</ele>
        <time>2021-10-22T12:24:41Z</time>
      </trkpt>
      <trkpt lat="42.650943" lon="-2.750407">
        <ele>749.919</ele>
        <time>2021-10-22T12:24:46Z</time>
      </trkpt>
      <trkpt lat="42.650995" lon="-2.750418">
        <ele>751.035</ele>
        <time>2021-10-22T12:24:51Z</time>
      </trkpt>
      <trkpt lat="42.651044" lon="-2.750429">
        <ele>750.186</ele>
        <time>2021-10-22T12:24:56Z</time>
      </trkpt>
      <trkpt lat="42.651092" lon="-2.750436">
        <ele>751.214</ele>
        <time>2021-10-22T12:25:01Z</time>
      </trkpt>
      <trkpt lat="42.651137" lon="-2.750454">
        <ele>749.908</ele>
        <time>2021-10-22T12:25:05Z</time>
      </trkpt>
      <trkpt lat="42.651183" lon="-2.750482">
        <ele>747.151</ele>
        <time>2021-10-22T12:25:10Z</time>
      </trkpt>
      <trkpt lat="42.651234" lon="-2.750493">
        <ele>746.570</ele>
        <time>2021-10-22T12:25:14Z</time>
      </trkpt>
      <trkpt lat="42.651287" lon="-2.750481">
        <ele>743.523</ele>
        <time>2021-10-22T12:25:19Z</time>
      </trkpt>
      <trkpt lat="42.651331" lon="-2.750513">
        <ele>741.956</ele>
        <time>2021-10-22T12:25:25Z</time>
      </trkpt>
      <trkpt lat="42.651379" lon="-2.750531">
        <ele>744.516</ele>
        <time>2021-10-22T12:25:31Z</time>
      </trkpt>
      <trkpt lat="42.651425" lon="-2.750541">
        <ele>743.882</ele>
        <time>2021-10-22T12:25:36Z</time>
      </trkpt>
      <trkpt lat="42.651474" lon="-2.750566">
        <ele>744.142</ele>
        <time>2021-10-22T12:25:41Z</time>
      </trkpt>
      <trkpt lat="42.651519" lon="-2.750584">
        <ele>744.966</ele>
        <time>2021-10-22T12:25:46Z</time>
      </trkpt>
      <trkpt lat="42.651565" lon="-2.750603">
        <ele>744.596</ele>
        <time>2021-10-22T12:25:53Z</time>
      </trkpt>
      <trkpt lat="42.651613" lon="-2.750622">
        <ele>745.031</ele>
        <time>2021-10-22T12:25:58Z</time>
      </trkpt>
      <trkpt lat="42.651658" lon="-2.750634">
        <ele>747.124</ele>
        <time>2021-10-22T12:26:03Z</time>
      </trkpt>
      <trkpt lat="42.651705" lon="-2.750655">
        <ele>746.908</ele>
        <time>2021-10-22T12:26:13Z</time>
      </trkpt>
      <trkpt lat="42.651743" lon="-2.75069">
        <ele>748.327</ele>
        <time>2021-10-22T12:26:18Z</time>
      </trkpt>
      <trkpt lat="42.651771" lon="-2.75074">
        <ele>749.856</ele>
        <time>2021-10-22T12:26:22Z</time>
      </trkpt>
      <trkpt lat="42.651794" lon="-2.750797">
        <ele>751.559</ele>
        <time>2021-10-22T12:26:26Z</time>
      </trkpt>
      <trkpt lat="42.651812" lon="-2.750858">
        <ele>753.552</ele>
        <time>2021-10-22T12:26:30Z</time>
      </trkpt>
      <trkpt lat="42.651837" lon="-2.750925">
        <ele>754.222</ele>
        <time>2021-10-22T12:26:35Z</time>
      </trkpt>
      <trkpt lat="42.651856" lon="-2.750983">
        <ele>753.838</ele>
        <time>2021-10-22T12:26:40Z</time>
      </trkpt>
      <trkpt lat="42.651876" lon="-2.751045">
        <ele>751.048</ele>
        <time>2021-10-22T12:26:45Z</time>
      </trkpt>
      <trkpt lat="42.651896" lon="-2.75111">
        <ele>750.652</ele>
        <time>2021-10-22T12:26:50Z</time>
      </trkpt>
      <trkpt lat="42.651918" lon="-2.751172">
        <ele>749.125</ele>
        <time>2021-10-22T12:26:54Z</time>
      </trkpt>
      <trkpt lat="42.65194" lon="-2.751226">
        <ele>750.026</ele>
        <time>2021-10-22T12:26:58Z</time>
      </trkpt>
      <trkpt lat="42.651967" lon="-2.751281">
        <ele>749.708</ele>
        <time>2021-10-22T12:27:03Z</time>
      </trkpt>
      <trkpt lat="42.651999" lon="-2.75133">
        <ele>752.008</ele>
        <time>2021-10-22T12:27:08Z</time>
      </trkpt>
      <trkpt lat="42.652029" lon="-2.751382">
        <ele>750.330</ele>
        <time>2021-10-22T12:27:13Z</time>
      </trkpt>
      <trkpt lat="42.652061" lon="-2.751435">
        <ele>748.559</ele>
        <time>2021-10-22T12:27:18Z</time>
      </trkpt>
      <trkpt lat="42.652095" lon="-2.751485">
        <ele>750.232</ele>
        <time>2021-10-22T12:27:23Z</time>
      </trkpt>
      <trkpt lat="42.652141" lon="-2.751515">
        <ele>749.795</ele>
        <time>2021-10-22T12:27:29Z</time>
      </trkpt>
      <trkpt lat="42.652188" lon="-2.751532">
        <ele>750.555</ele>
        <time>2021-10-22T12:27:35Z</time>
      </trkpt>
      <trkpt lat="42.652238" lon="-2.751544">
        <ele>750.071</ele>
        <time>2021-10-22T12:27:40Z</time>
      </trkpt>
      <trkpt lat="42.652284" lon="-2.75156">
        <ele>753.941</ele>
        <time>2021-10-22T12:27:44Z</time>
      </trkpt>
      <trkpt lat="42.652328" lon="-2.751574">
        <ele>755.435</ele>
        <time>2021-10-22T12:27:48Z</time>
      </trkpt>
      <trkpt lat="42.652374" lon="-2.751592">
        <ele>757.357</ele>
        <time>2021-10-22T12:27:53Z</time>
      </trkpt>
      <trkpt lat="42.652423" lon="-2.75161">
        <ele>757.700</ele>
        <time>2021-10-22T12:27:57Z</time>
      </trkpt>
      <trkpt lat="42.652473" lon="-2.751621">
        <ele>755.820</ele>
        <time>2021-10-22T12:28:01Z</time>
      </trkpt>
      <trkpt lat="42.652524" lon="-2.751631">
        <ele>759.508</ele>
        <time>2021-10-22T12:28:06Z</time>
      </trkpt>
      <trkpt lat="42.652566" lon="-2.751664">
        <ele>761.733</ele>
        <time>2021-10-22T12:28:28Z</time>
      </trkpt>
      <trkpt lat="42.652618" lon="-2.75168">
        <ele>762.312</ele>
        <time>2021-10-22T12:28:32Z</time>
      </trkpt>
      <trkpt lat="42.652667" lon="-2.751687">
        <ele>762.265</ele>
        <time>2021-10-22T12:28:36Z</time>
      </trkpt>
      <trkpt lat="42.652712" lon="-2.751694">
        <ele>758.798</ele>
        <time>2021-10-22T12:28:41Z</time>
      </trkpt>
      <trkpt lat="42.652755" lon="-2.751711">
        <ele>756.188</ele>
        <time>2021-10-22T12:28:49Z</time>
      </trkpt>
      <trkpt lat="42.652798" lon="-2.751736">
        <ele>759.094</ele>
        <time>2021-10-22T12:28:58Z</time>
      </trkpt>
      <trkpt lat="42.652828" lon="-2.751782">
        <ele>759.434</ele>
        <time>2021-10-22T12:29:02Z</time>
      </trkpt>
      <trkpt lat="42.652831" lon="-2.751851">
        <ele>757.378</ele>
        <time>2021-10-22T12:29:07Z</time>
      </trkpt>
      <trkpt lat="42.652806" lon="-2.751902">
        <ele>756.849</ele>
        <time>2021-10-22T12:29:12Z</time>
      </trkpt>
      <trkpt lat="42.652769" lon="-2.751944">
        <ele>755.602</ele>
        <time>2021-10-22T12:29:18Z</time>
      </trkpt>
      <trkpt lat="42.65273" lon="-2.751986">
        <ele>756.522</ele>
        <time>2021-10-22T12:29:23Z</time>
      </trkpt>
      <trkpt lat="42.652697" lon="-2.752031">
        <ele>756.008</ele>
        <time>2021-10-22T12:29:28Z</time>
      </trkpt>
      <trkpt lat="42.652666" lon="-2.752078">
        <ele>754.022</ele>
        <time>2021-10-22T12:29:33Z</time>
      </trkpt>
      <trkpt lat="42.652635" lon="-2.752127">
        <ele>756.641</ele>
        <time>2021-10-22T12:29:39Z</time>
      </trkpt>
      <trkpt lat="42.652601" lon="-2.752179">
        <ele>754.224</ele>
        <time>2021-10-22T12:29:44Z</time>
      </trkpt>
      <trkpt lat="42.652565" lon="-2.752216">
        <ele>754.237</ele>
        <time>2021-10-22T12:29:48Z</time>
      </trkpt>
      <trkpt lat="42.652537" lon="-2.752266">
        <ele>753.997</ele>
        <time>2021-10-22T12:29:53Z</time>
      </trkpt>
      <trkpt lat="42.652515" lon="-2.752324">
        <ele>752.023</ele>
        <time>2021-10-22T12:29:58Z</time>
      </trkpt>
      <trkpt lat="42.65249" lon="-2.75238">
        <ele>754.223</ele>
        <time>2021-10-22T12:30:02Z</time>
      </trkpt>
      <trkpt lat="42.65246" lon="-2.752432">
        <ele>755.087</ele>
        <time>2021-10-22T12:30:07Z</time>
      </trkpt>
      <trkpt lat="42.652429" lon="-2.752483">
        <ele>755.134</ele>
        <time>2021-10-22T12:30:11Z</time>
      </trkpt>
      <trkpt lat="42.65239" lon="-2.752514">
        <ele>753.555</ele>
        <time>2021-10-22T12:30:19Z</time>
      </trkpt>
      <trkpt lat="42.652357" lon="-2.752568">
        <ele>752.810</ele>
        <time>2021-10-22T12:30:26Z</time>
      </trkpt>
      <trkpt lat="42.652328" lon="-2.752621">
        <ele>751.008</ele>
        <time>2021-10-22T12:30:32Z</time>
      </trkpt>
      <trkpt lat="42.652303" lon="-2.752676">
        <ele>750.671</ele>
        <time>2021-10-22T12:30:37Z</time>
      </trkpt>
      <trkpt lat="42.652277" lon="-2.752735">
        <ele>749.420</ele>
        <time>2021-10-22T12:30:42Z</time>
      </trkpt>
      <trkpt lat="42.652257" lon="-2.752795">
        <ele>747.023</ele>
        <time>2021-10-22T12:30:47Z</time>
      </trkpt>
      <trkpt lat="42.652245" lon="-2.752857">
        <ele>747.376</ele>
        <time>2021-10-22T12:30:52Z</time>
      </trkpt>
      <trkpt lat="42.652223" lon="-2.752918">
        <ele>746.176</ele>
        <time>2021-10-22T12:30:57Z</time>
      </trkpt>
      <trkpt lat="42.652188" lon="-2.752959">
        <ele>746.232</ele>
        <time>2021-10-22T12:31:01Z</time>
      </trkpt>
      <trkpt lat="42.652152" lon="-2.752995">
        <ele>745.752</ele>
        <time>2021-10-22T12:31:05Z</time>
      </trkpt>
      <trkpt lat="42.65211" lon="-2.75302">
        <ele>744.996</ele>
        <time>2021-10-22T12:31:10Z</time>
      </trkpt>
      <trkpt lat="42.652063" lon="-2.753041">
        <ele>744.996</ele>
        <time>2021-10-22T12:31:15Z</time>
      </trkpt>
      <trkpt lat="42.652022" lon="-2.753066">
        <ele>744.131</ele>
        <time>2021-10-22T12:31:20Z</time>
      </trkpt>
      <trkpt lat="42.65198" lon="-2.753096">
        <ele>744.424</ele>
        <time>2021-10-22T12:31:25Z</time>
      </trkpt>
      <trkpt lat="42.651941" lon="-2.753129">
        <ele>746.608</ele>
        <time>2021-10-22T12:31:31Z</time>
      </trkpt>
      <trkpt lat="42.651908" lon="-2.753175">
        <ele>746.897</ele>
        <time>2021-10-22T12:31:36Z</time>
      </trkpt>
      <trkpt lat="42.651879" lon="-2.753222">
        <ele>746.276</ele>
        <time>2021-10-22T12:31:41Z</time>
      </trkpt>
      <trkpt lat="42.65185" lon="-2.75327">
        <ele>744.669</ele>
        <time>2021-10-22T12:31:45Z</time>
      </trkpt>
      <trkpt lat="42.651808" lon="-2.753306">
        <ele>744.962</ele>
        <time>2021-10-22T12:31:50Z</time>
      </trkpt>
      <trkpt lat="42.65176" lon="-2.753327">
        <ele>744.062</ele>
        <time>2021-10-22T12:31:54Z</time>
      </trkpt>
      <trkpt lat="42.651714" lon="-2.753336">
        <ele>743.258</ele>
        <time>2021-10-22T12:31:59Z</time>
      </trkpt>
      <trkpt lat="42.651667" lon="-2.753338">
        <ele>744.238</ele>
        <time>2021-10-22T12:32:03Z</time>
      </trkpt>
      <trkpt lat="42.651622" lon="-2.753323">
        <ele>745.432</ele>
        <time>2021-10-22T12:32:07Z</time>
      </trkpt>
      <trkpt lat="42.651576" lon="-2.753312">
        <ele>745.747</ele>
        <time>2021-10-22T12:32:12Z</time>
      </trkpt>
      <trkpt lat="42.651531" lon="-2.753285">
        <ele>745.829</ele>
        <time>2021-10-22T12:32:17Z</time>
      </trkpt>
      <trkpt lat="42.651488" lon="-2.753265">
        <ele>744.821</ele>
        <time>2021-10-22T12:32:22Z</time>
      </trkpt>
      <trkpt lat="42.651449" lon="-2.753228">
        <ele>748.608</ele>
        <time>2021-10-22T12:32:31Z</time>
      </trkpt>
      <trkpt lat="42.651406" lon="-2.75321">
        <ele>746.052</ele>
        <time>2021-10-22T12:32:36Z</time>
      </trkpt>
      <trkpt lat="42.651357" lon="-2.753211">
        <ele>747.871</ele>
        <time>2021-10-22T12:32:40Z</time>
      </trkpt>
      <trkpt lat="42.651311" lon="-2.753248">
        <ele>748.374</ele>
        <time>2021-10-22T12:32:44Z</time>
      </trkpt>
      <trkpt lat="42.651275" lon="-2.753291">
        <ele>747.777</ele>
        <time>2021-10-22T12:32:48Z</time>
      </trkpt>
      <trkpt lat="42.651243" lon="-2.753339">
        <ele>748.877</ele>
        <time>2021-10-22T12:32:52Z</time>
      </trkpt>
      <trkpt lat="42.651213" lon="-2.753388">
        <ele>749.493</ele>
        <time>2021-10-22T12:32:57Z</time>
      </trkpt>
      <trkpt lat="42.651191" lon="-2.753444">
        <ele>748.583</ele>
        <time>2021-10-22T12:33:02Z</time>
      </trkpt>
      <trkpt lat="42.651172" lon="-2.7535">
        <ele>747.767</ele>
        <time>2021-10-22T12:33:07Z</time>
      </trkpt>
      <trkpt lat="42.651144" lon="-2.753549">
        <ele>747.686</ele>
        <time>2021-10-22T12:33:13Z</time>
      </trkpt>
      <trkpt lat="42.651106" lon="-2.753586">
        <ele>749.260</ele>
        <time>2021-10-22T12:33:20Z</time>
      </trkpt>
      <trkpt lat="42.651079" lon="-2.753639">
        <ele>751.426</ele>
        <time>2021-10-22T12:33:44Z</time>
      </trkpt>
      <trkpt lat="42.651084" lon="-2.753701">
        <ele>750.708</ele>
        <time>2021-10-22T12:33:49Z</time>
      </trkpt>
      <trkpt lat="42.651099" lon="-2.753766">
        <ele>752.016</ele>
        <time>2021-10-22T12:33:53Z</time>
      </trkpt>
      <trkpt lat="42.6511" lon="-2.753834">
        <ele>752.725</ele>
        <time>2021-10-22T12:33:57Z</time>
      </trkpt>
      <trkpt lat="42.651106" lon="-2.753896">
        <ele>752.618</ele>
        <time>2021-10-22T12:34:02Z</time>
      </trkpt>
      <trkpt lat="42.651118" lon="-2.753958">
        <ele>751.631</ele>
        <time>2021-10-22T12:34:07Z</time>
      </trkpt>
      <trkpt lat="42.651128" lon="-2.754021">
        <ele>751.491</ele>
        <time>2021-10-22T12:34:13Z</time>
      </trkpt>
      <trkpt lat="42.651157" lon="-2.75407">
        <ele>750.657</ele>
        <time>2021-10-22T12:34:19Z</time>
      </trkpt>
      <trkpt lat="42.6512" lon="-2.754091">
        <ele>751.117</ele>
        <time>2021-10-22T12:34:35Z</time>
      </trkpt>
      <trkpt lat="42.651239" lon="-2.754133">
        <ele>748.551</ele>
        <time>2021-10-22T12:34:42Z</time>
      </trkpt>
      <trkpt lat="42.651277" lon="-2.754173">
        <ele>749.472</ele>
        <time>2021-10-22T12:34:48Z</time>
      </trkpt>
      <trkpt lat="42.651313" lon="-2.754215">
        <ele>747.113</ele>
        <time>2021-10-22T12:34:53Z</time>
      </trkpt>
      <trkpt lat="42.651336" lon="-2.754271">
        <ele>746.814</ele>
        <time>2021-10-22T12:34:58Z</time>
      </trkpt>
      <trkpt lat="42.651375" lon="-2.754311">
        <ele>746.808</ele>
        <time>2021-10-22T12:35:04Z</time>
      </trkpt>
      <trkpt lat="42.651406" lon="-2.754366">
        <ele>747.035</ele>
        <time>2021-10-22T12:35:09Z</time>
      </trkpt>
      <trkpt lat="42.651427" lon="-2.754433">
        <ele>748.744</ele>
        <time>2021-10-22T12:35:14Z</time>
      </trkpt>
      <trkpt lat="42.651458" lon="-2.754496">
        <ele>749.157</ele>
        <time>2021-10-22T12:35:19Z</time>
      </trkpt>
      <trkpt lat="42.651483" lon="-2.754548">
        <ele>749.140</ele>
        <time>2021-10-22T12:35:24Z</time>
      </trkpt>
      <trkpt lat="42.651506" lon="-2.754608">
        <ele>747.280</ele>
        <time>2021-10-22T12:35:29Z</time>
      </trkpt>
      <trkpt lat="42.651539" lon="-2.754659">
        <ele>748.036</ele>
        <time>2021-10-22T12:35:35Z</time>
      </trkpt>
      <trkpt lat="42.651546" lon="-2.754721">
        <ele>746.396</ele>
        <time>2021-10-22T12:35:40Z</time>
      </trkpt>
      <trkpt lat="42.651537" lon="-2.754784">
        <ele>745.890</ele>
        <time>2021-10-22T12:35:44Z</time>
      </trkpt>
      <trkpt lat="42.651529" lon="-2.754859">
        <ele>745.941</ele>
        <time>2021-10-22T12:35:50Z</time>
      </trkpt>
      <trkpt lat="42.651543" lon="-2.754921">
        <ele>748.081</ele>
        <time>2021-10-22T12:35:55Z</time>
      </trkpt>
      <trkpt lat="42.651563" lon="-2.754981">
        <ele>747.509</ele>
        <time>2021-10-22T12:36:00Z</time>
      </trkpt>
      <trkpt lat="42.651593" lon="-2.755045">
        <ele>747.308</ele>
        <time>2021-10-22T12:36:05Z</time>
      </trkpt>
      <trkpt lat="42.651621" lon="-2.755108">
        <ele>746.342</ele>
        <time>2021-10-22T12:36:10Z</time>
      </trkpt>
      <trkpt lat="42.651641" lon="-2.75518">
        <ele>745.841</ele>
        <time>2021-10-22T12:36:15Z</time>
      </trkpt>
      <trkpt lat="42.651649" lon="-2.755254">
        <ele>746.924</ele>
        <time>2021-10-22T12:36:20Z</time>
      </trkpt>
      <trkpt lat="42.651666" lon="-2.755322">
        <ele>746.667</ele>
        <time>2021-10-22T12:36:25Z</time>
      </trkpt>
      <trkpt lat="42.651693" lon="-2.755383">
        <ele>748.417</ele>
        <time>2021-10-22T12:36:30Z</time>
      </trkpt>
      <trkpt lat="42.651724" lon="-2.755432">
        <ele>747.233</ele>
        <time>2021-10-22T12:36:35Z</time>
      </trkpt>
      <trkpt lat="42.65177" lon="-2.755458">
        <ele>749.353</ele>
        <time>2021-10-22T12:36:40Z</time>
      </trkpt>
      <trkpt lat="42.651806" lon="-2.755499">
        <ele>751.627</ele>
        <time>2021-10-22T12:36:49Z</time>
      </trkpt>
      <trkpt lat="42.651853" lon="-2.755482">
        <ele>750.597</ele>
        <time>2021-10-22T12:36:53Z</time>
      </trkpt>
      <trkpt lat="42.651895" lon="-2.755455">
        <ele>750.123</ele>
        <time>2021-10-22T12:36:57Z</time>
      </trkpt>
      <trkpt lat="42.651934" lon="-2.755413">
        <ele>733.525</ele>
        <time>2021-10-22T12:37:01Z</time>
      </trkpt>
      <trkpt lat="42.65197" lon="-2.755373">
        <ele>718.008</ele>
        <time>2021-10-22T12:37:05Z</time>
      </trkpt>
      <trkpt lat="42.652015" lon="-2.755335">
        <ele>707.767</ele>
        <time>2021-10-22T12:37:10Z</time>
      </trkpt>
      <trkpt lat="42.652056" lon="-2.755306">
        <ele>711.726</ele>
        <time>2021-10-22T12:37:16Z</time>
      </trkpt>
      <trkpt lat="42.6521" lon="-2.755283">
        <ele>703.399</ele>
        <time>2021-10-22T12:37:21Z</time>
      </trkpt>
      <trkpt lat="42.652144" lon="-2.755263">
        <ele>699.042</ele>
        <time>2021-10-22T12:37:26Z</time>
      </trkpt>
      <trkpt lat="42.652186" lon="-2.755241">
        <ele>689.142</ele>
        <time>2021-10-22T12:37:31Z</time>
      </trkpt>
      <trkpt lat="42.652233" lon="-2.755241">
        <ele>691.658</ele>
        <time>2021-10-22T12:37:39Z</time>
      </trkpt>
      <trkpt lat="42.652277" lon="-2.755216">
        <ele>691.418</ele>
        <time>2021-10-22T12:37:43Z</time>
      </trkpt>
      <trkpt lat="42.652316" lon="-2.755186">
        <ele>700.552</ele>
        <time>2021-10-22T12:37:47Z</time>
      </trkpt>
      <trkpt lat="42.652356" lon="-2.755153">
        <ele>698.924</ele>
        <time>2021-10-22T12:37:52Z</time>
      </trkpt>
      <trkpt lat="42.652405" lon="-2.755139">
        <ele>694.104</ele>
        <time>2021-10-22T12:37:57Z</time>
      </trkpt>
      <trkpt lat="42.652457" lon="-2.755131">
        <ele>689.514</ele>
        <time>2021-10-22T12:38:02Z</time>
      </trkpt>
      <trkpt lat="42.652509" lon="-2.75513">
        <ele>689.908</ele>
        <time>2021-10-22T12:38:07Z</time>
      </trkpt>
      <trkpt lat="42.652559" lon="-2.755125">
        <ele>692.870</ele>
        <time>2021-10-22T12:38:12Z</time>
      </trkpt>
      <trkpt lat="42.652602" lon="-2.755092">
        <ele>693.689</ele>
        <time>2021-10-22T12:38:17Z</time>
      </trkpt>
      <trkpt lat="42.652633" lon="-2.755047">
        <ele>696.222</ele>
        <time>2021-10-22T12:38:21Z</time>
      </trkpt>
      <trkpt lat="42.652662" lon="-2.754991">
        <ele>703.785</ele>
        <time>2021-10-22T12:38:26Z</time>
      </trkpt>
      <trkpt lat="42.652689" lon="-2.754938">
        <ele>694.265</ele>
        <time>2021-10-22T12:38:30Z</time>
      </trkpt>
      <trkpt lat="42.652719" lon="-2.754891">
        <ele>699.291</ele>
        <time>2021-10-22T12:38:35Z</time>
      </trkpt>
      <trkpt lat="42.652747" lon="-2.754838">
        <ele>692.551</ele>
        <time>2021-10-22T12:38:39Z</time>
      </trkpt>
      <trkpt lat="42.652763" lon="-2.754776">
        <ele>695.065</ele>
        <time>2021-10-22T12:38:44Z</time>
      </trkpt>
      <trkpt lat="42.652774" lon="-2.754713">
        <ele>692.914</ele>
        <time>2021-10-22T12:38:48Z</time>
      </trkpt>
      <trkpt lat="42.652796" lon="-2.754658">
        <ele>708.354</ele>
        <time>2021-10-22T12:38:53Z</time>
      </trkpt>
      <trkpt lat="42.652828" lon="-2.754614">
        <ele>723.409</ele>
        <time>2021-10-22T12:38:58Z</time>
      </trkpt>
      <trkpt lat="42.652867" lon="-2.754579">
        <ele>739.008</ele>
        <time>2021-10-22T12:39:02Z</time>
      </trkpt>
      <trkpt lat="42.652916" lon="-2.754557">
        <ele>745.059</ele>
        <time>2021-10-22T12:39:07Z</time>
      </trkpt>
      <trkpt lat="42.652961" lon="-2.754531">
        <ele>745.018</ele>
        <time>2021-10-22T12:39:12Z</time>
      </trkpt>
      <trkpt lat="42.653006" lon="-2.7545">
        <ele>743.481</ele>
        <time>2021-10-22T12:39:16Z</time>
      </trkpt>
      <trkpt lat="42.653052" lon="-2.754473">
        <ele>743.084</ele>
        <time>2021-10-22T12:39:20Z</time>
      </trkpt>
      <trkpt lat="42.653101" lon="-2.754462">
        <ele>745.374</ele>
        <time>2021-10-22T12:39:25Z</time>
      </trkpt>
      <trkpt lat="42.653147" lon="-2.754463">
        <ele>729.890</ele>
        <time>2021-10-22T12:39:32Z</time>
      </trkpt>
      <trkpt lat="42.653191" lon="-2.754481">
        <ele>714.420</ele>
        <time>2021-10-22T12:39:35Z</time>
      </trkpt>
      <trkpt lat="42.65324" lon="-2.754514">
        <ele>696.334</ele>
        <time>2021-10-22T12:39:39Z</time>
      </trkpt>
      <trkpt lat="42.653282" lon="-2.754539">
        <ele>692.117</ele>
        <time>2021-10-22T12:39:42Z</time>
      </trkpt>
      <trkpt lat="42.653332" lon="-2.754564">
        <ele>709.987</ele>
        <time>2021-10-22T12:39:45Z</time>
      </trkpt>
      <trkpt lat="42.653363" lon="-2.754611">
        <ele>720.815</ele>
        <time>2021-10-22T12:39:51Z</time>
      </trkpt>
      <trkpt lat="42.653407" lon="-2.754626">
        <ele>705.808</ele>
        <time>2021-10-22T12:39:59Z</time>
      </trkpt>
      <trkpt lat="42.653453" lon="-2.754632">
        <ele>701.629</ele>
        <time>2021-10-22T12:40:03Z</time>
      </trkpt>
      <trkpt lat="42.653498" lon="-2.75464">
        <ele>700.248</ele>
        <time>2021-10-22T12:40:07Z</time>
      </trkpt>
      <trkpt lat="42.653541" lon="-2.754673">
        <ele>696.071</ele>
        <time>2021-10-22T12:40:12Z</time>
      </trkpt>
      <trkpt lat="42.653578" lon="-2.75471">
        <ele>693.214</ele>
        <time>2021-10-22T12:40:17Z</time>
      </trkpt>
      <trkpt lat="42.653612" lon="-2.754753">
        <ele>699.384</ele>
        <time>2021-10-22T12:40:22Z</time>
      </trkpt>
      <trkpt lat="42.653645" lon="-2.754796">
        <ele>711.720</ele>
        <time>2021-10-22T12:40:26Z</time>
      </trkpt>
      <trkpt lat="42.653675" lon="-2.754848">
        <ele>712.110</ele>
        <time>2021-10-22T12:40:31Z</time>
      </trkpt>
      <trkpt lat="42.653715" lon="-2.754877">
        <ele>714.444</ele>
        <time>2021-10-22T12:40:36Z</time>
      </trkpt>
      <trkpt lat="42.653758" lon="-2.754898">
        <ele>716.211</ele>
        <time>2021-10-22T12:40:41Z</time>
      </trkpt>
      <trkpt lat="42.653805" lon="-2.754898">
        <ele>712.821</ele>
        <time>2021-10-22T12:40:46Z</time>
      </trkpt>
      <trkpt lat="42.65386" lon="-2.754902">
        <ele>714.703</ele>
        <time>2021-10-22T12:40:51Z</time>
      </trkpt>
      <trkpt lat="42.653903" lon="-2.754933">
        <ele>716.608</ele>
        <time>2021-10-22T12:40:56Z</time>
      </trkpt>
      <trkpt lat="42.653946" lon="-2.754957">
        <ele>722.679</ele>
        <time>2021-10-22T12:41:01Z</time>
      </trkpt>
      <trkpt lat="42.653989" lon="-2.754989">
        <ele>720.558</ele>
        <time>2021-10-22T12:41:06Z</time>
      </trkpt>
      <trkpt lat="42.654034" lon="-2.755032">
        <ele>724.551</ele>
        <time>2021-10-22T12:41:11Z</time>
      </trkpt>
      <trkpt lat="42.654067" lon="-2.755079">
        <ele>726.474</ele>
        <time>2021-10-22T12:41:15Z</time>
      </trkpt>
      <trkpt lat="42.654107" lon="-2.755118">
        <ele>741.264</ele>
        <time>2021-10-22T12:41:19Z</time>
      </trkpt>
      <trkpt lat="42.654152" lon="-2.755138">
        <ele>745.870</ele>
        <time>2021-10-22T12:41:24Z</time>
      </trkpt>
      <trkpt lat="42.654196" lon="-2.755155">
        <ele>748.550</ele>
        <time>2021-10-22T12:41:28Z</time>
      </trkpt>
      <trkpt lat="42.654236" lon="-2.755194">
        <ele>732.224</ele>
        <time>2021-10-22T12:41:33Z</time>
      </trkpt>
      <trkpt lat="42.654269" lon="-2.755245">
        <ele>729.066</ele>
        <time>2021-10-22T12:41:38Z</time>
      </trkpt>
      <trkpt lat="42.65431" lon="-2.755283">
        <ele>740.829</ele>
        <time>2021-10-22T12:41:42Z</time>
      </trkpt>
      <trkpt lat="42.654353" lon="-2.755311">
        <ele>747.721</ele>
        <time>2021-10-22T12:41:46Z</time>
      </trkpt>
      <trkpt lat="42.654403" lon="-2.755338">
        <ele>748.908</ele>
        <time>2021-10-22T12:41:50Z</time>
      </trkpt>
      <trkpt lat="42.654447" lon="-2.755356">
        <ele>749.574</ele>
        <time>2021-10-22T12:41:54Z</time>
      </trkpt>
      <trkpt lat="42.654495" lon="-2.755359">
        <ele>748.933</ele>
        <time>2021-10-22T12:41:59Z</time>
      </trkpt>
      <trkpt lat="42.654541" lon="-2.755331">
        <ele>749.846</ele>
        <time>2021-10-22T12:42:06Z</time>
      </trkpt>
      <trkpt lat="42.654585" lon="-2.755291">
        <ele>750.289</ele>
        <time>2021-10-22T12:42:10Z</time>
      </trkpt>
      <trkpt lat="42.654629" lon="-2.75525">
        <ele>750.919</ele>
        <time>2021-10-22T12:42:15Z</time>
      </trkpt>
      <trkpt lat="42.654674" lon="-2.755221">
        <ele>750.275</ele>
        <time>2021-10-22T12:42:20Z</time>
      </trkpt>
      <trkpt lat="42.654719" lon="-2.755194">
        <ele>754.735</ele>
        <time>2021-10-22T12:42:25Z</time>
      </trkpt>
      <trkpt lat="42.654766" lon="-2.75517">
        <ele>754.359</ele>
        <time>2021-10-22T12:42:30Z</time>
      </trkpt>
      <trkpt lat="42.654811" lon="-2.755148">
        <ele>751.072</ele>
        <time>2021-10-22T12:42:36Z</time>
      </trkpt>
      <trkpt lat="42.65483" lon="-2.755088">
        <ele>752.613</ele>
        <time>2021-10-22T12:42:43Z</time>
      </trkpt>
      <trkpt lat="42.65486" lon="-2.75504">
        <ele>753.514</ele>
        <time>2021-10-22T12:42:48Z</time>
      </trkpt>
      <trkpt lat="42.6549" lon="-2.755008">
        <ele>752.608</ele>
        <time>2021-10-22T12:42:52Z</time>
      </trkpt>
      <trkpt lat="42.654945" lon="-2.75498">
        <ele>750.145</ele>
        <time>2021-10-22T12:42:56Z</time>
      </trkpt>
      <trkpt lat="42.654919" lon="-2.755036">
        <ele>753.174</ele>
        <time>2021-10-22T12:43:21Z</time>
      </trkpt>
      <trkpt lat="42.654873" lon="-2.75502">
        <ele>750.727</ele>
        <time>2021-10-22T12:43:35Z</time>
      </trkpt>
      <trkpt lat="42.654824" lon="-2.755034">
        <ele>753.690</ele>
        <time>2021-10-22T12:43:41Z</time>
      </trkpt>
      <trkpt lat="42.654789" lon="-2.755074">
        <ele>755.180</ele>
        <time>2021-10-22T12:43:50Z</time>
      </trkpt>
      <trkpt lat="42.654832" lon="-2.755095">
        <ele>756.726</ele>
        <time>2021-10-22T12:44:10Z</time>
      </trkpt>
      <trkpt lat="42.65485" lon="-2.75503">
        <ele>757.766</ele>
        <time>2021-10-22T12:44:13Z</time>
      </trkpt>
      <trkpt lat="42.654884" lon="-2.754985">
        <ele>756.830</ele>
        <time>2021-10-22T12:44:15Z</time>
      </trkpt>
      <trkpt lat="42.654929" lon="-2.754961">
        <ele>757.661</ele>
        <time>2021-10-22T12:44:18Z</time>
      </trkpt>
      <trkpt lat="42.654971" lon="-2.754939">
        <ele>757.621</ele>
        <time>2021-10-22T12:44:21Z</time>
      </trkpt>
      <trkpt lat="42.655015" lon="-2.754911">
        <ele>757.513</ele>
        <time>2021-10-22T12:44:24Z</time>
      </trkpt>
      <trkpt lat="42.655052" lon="-2.754874">
        <ele>758.608</ele>
        <time>2021-10-22T12:44:28Z</time>
      </trkpt>
      <trkpt lat="42.65509" lon="-2.754828">
        <ele>754.744</ele>
        <time>2021-10-22T12:44:32Z</time>
      </trkpt>
      <trkpt lat="42.655133" lon="-2.754794">
        <ele>755.283</ele>
        <time>2021-10-22T12:44:36Z</time>
      </trkpt>
      <trkpt lat="42.655181" lon="-2.754779">
        <ele>755.156</ele>
        <time>2021-10-22T12:44:41Z</time>
      </trkpt>
      <trkpt lat="42.655227" lon="-2.754764">
        <ele>757.599</ele>
        <time>2021-10-22T12:44:47Z</time>
      </trkpt>
      <trkpt lat="42.655272" lon="-2.754766">
        <ele>756.389</ele>
        <time>2021-10-22T12:44:51Z</time>
      </trkpt>
      <trkpt lat="42.655324" lon="-2.754761">
        <ele>755.615</ele>
        <time>2021-10-22T12:44:55Z</time>
      </trkpt>
      <trkpt lat="42.655376" lon="-2.754753">
        <ele>752.715</ele>
        <time>2021-10-22T12:44:59Z</time>
      </trkpt>
      <trkpt lat="42.65543" lon="-2.754746">
        <ele>757.979</ele>
        <time>2021-10-22T12:45:03Z</time>
      </trkpt>
      <trkpt lat="42.655479" lon="-2.754745">
        <ele>759.071</ele>
        <time>2021-10-22T12:45:07Z</time>
      </trkpt>
      <trkpt lat="42.655533" lon="-2.754746">
        <ele>763.841</ele>
        <time>2021-10-22T12:45:10Z</time>
      </trkpt>
      <trkpt lat="42.655588" lon="-2.754757">
        <ele>764.015</ele>
        <time>2021-10-22T12:45:14Z</time>
      </trkpt>
      <trkpt lat="42.655633" lon="-2.754764">
        <ele>762.208</ele>
        <time>2021-10-22T12:45:17Z</time>
      </trkpt>
      <trkpt lat="42.655681" lon="-2.754764">
        <ele>761.485</ele>
        <time>2021-10-22T12:45:21Z</time>
      </trkpt>
      <trkpt lat="42.65573" lon="-2.754744">
        <ele>758.264</ele>
        <time>2021-10-22T12:45:25Z</time>
      </trkpt>
      <trkpt lat="42.655778" lon="-2.754731">
        <ele>757.557</ele>
        <time>2021-10-22T12:45:29Z</time>
      </trkpt>
      <trkpt lat="42.655827" lon="-2.754728">
        <ele>758.020</ele>
        <time>2021-10-22T12:45:33Z</time>
      </trkpt>
      <trkpt lat="42.655875" lon="-2.754749">
        <ele>762.480</ele>
        <time>2021-10-22T12:45:37Z</time>
      </trkpt>
      <trkpt lat="42.655912" lon="-2.754786">
        <ele>760.476</ele>
        <time>2021-10-22T12:45:41Z</time>
      </trkpt>
      <trkpt lat="42.655913" lon="-2.754857">
        <ele>763.686</ele>
        <time>2021-10-22T12:45:45Z</time>
      </trkpt>
      <trkpt lat="42.655884" lon="-2.754904">
        <ele>761.730</ele>
        <time>2021-10-22T12:45:49Z</time>
      </trkpt>
      <trkpt lat="42.655871" lon="-2.754967">
        <ele>763.829</ele>
        <time>2021-10-22T12:45:53Z</time>
      </trkpt>
      <trkpt lat="42.655835" lon="-2.755018">
        <ele>763.100</ele>
        <time>2021-10-22T12:45:59Z</time>
      </trkpt>
      <trkpt lat="42.655803" lon="-2.755061">
        <ele>761.820</ele>
        <time>2021-10-22T12:46:04Z</time>
      </trkpt>
      <trkpt lat="42.655767" lon="-2.755103">
        <ele>760.708</ele>
        <time>2021-10-22T12:46:08Z</time>
      </trkpt>
      <trkpt lat="42.655728" lon="-2.755149">
        <ele>756.650</ele>
        <time>2021-10-22T12:46:13Z</time>
      </trkpt>
      <trkpt lat="42.655693" lon="-2.755194">
        <ele>757.359</ele>
        <time>2021-10-22T12:46:18Z</time>
      </trkpt>
      <trkpt lat="42.655656" lon="-2.755235">
        <ele>756.972</ele>
        <time>2021-10-22T12:46:23Z</time>
      </trkpt>
      <trkpt lat="42.655623" lon="-2.755279">
        <ele>756.285</ele>
        <time>2021-10-22T12:46:28Z</time>
      </trkpt>
      <trkpt lat="42.655595" lon="-2.755342">
        <ele>754.715</ele>
        <time>2021-10-22T12:46:33Z</time>
      </trkpt>
      <trkpt lat="42.655586" lon="-2.75541">
        <ele>755.341</ele>
        <time>2021-10-22T12:46:38Z</time>
      </trkpt>
      <trkpt lat="42.655579" lon="-2.755471">
        <ele>753.011</ele>
        <time>2021-10-22T12:46:42Z</time>
      </trkpt>
      <trkpt lat="42.655563" lon="-2.75553">
        <ele>752.335</ele>
        <time>2021-10-22T12:46:47Z</time>
      </trkpt>
      <trkpt lat="42.655543" lon="-2.75559">
        <ele>750.756</ele>
        <time>2021-10-22T12:46:51Z</time>
      </trkpt>
      <trkpt lat="42.655522" lon="-2.755645">
        <ele>749.359</ele>
        <time>2021-10-22T12:46:56Z</time>
      </trkpt>
      <trkpt lat="42.655503" lon="-2.75571">
        <ele>750.114</ele>
        <time>2021-10-22T12:47:01Z</time>
      </trkpt>
      <trkpt lat="42.65549" lon="-2.755772">
        <ele>750.608</ele>
        <time>2021-10-22T12:47:06Z</time>
      </trkpt>
      <trkpt lat="42.655476" lon="-2.755836">
        <ele>752.773</ele>
        <time>2021-10-22T12:47:12Z</time>
      </trkpt>
      <trkpt lat="42.655447" lon="-2.755889">
        <ele>752.042</ele>
        <time>2021-10-22T12:47:17Z</time>
      </trkpt>
      <trkpt lat="42.655423" lon="-2.755941">
        <ele>751.685</ele>
        <time>2021-10-22T12:47:22Z</time>
      </trkpt>
      <trkpt lat="42.655415" lon="-2.756006">
        <ele>753.818</ele>
        <time>2021-10-22T12:47:27Z</time>
      </trkpt>
      <trkpt lat="42.65541" lon="-2.756072">
        <ele>752.768</ele>
        <time>2021-10-22T12:47:32Z</time>
      </trkpt>
      <trkpt lat="42.655403" lon="-2.75614">
        <ele>754.784</ele>
        <time>2021-10-22T12:47:37Z</time>
      </trkpt>
      <trkpt lat="42.655397" lon="-2.756201">
        <ele>751.674</ele>
        <time>2021-10-22T12:47:42Z</time>
      </trkpt>
      <trkpt lat="42.655395" lon="-2.756269">
        <ele>754.698</ele>
        <time>2021-10-22T12:47:48Z</time>
      </trkpt>
      <trkpt lat="42.655392" lon="-2.756338">
        <ele>752.034</ele>
        <time>2021-10-22T12:47:53Z</time>
      </trkpt>
      <trkpt lat="42.655393" lon="-2.756402">
        <ele>751.355</ele>
        <time>2021-10-22T12:47:57Z</time>
      </trkpt>
      <trkpt lat="42.655401" lon="-2.756473">
        <ele>751.410</ele>
        <time>2021-10-22T12:48:02Z</time>
      </trkpt>
      <trkpt lat="42.655408" lon="-2.756538">
        <ele>751.408</ele>
        <time>2021-10-22T12:48:07Z</time>
      </trkpt>
      <trkpt lat="42.655414" lon="-2.756602">
        <ele>749.241</ele>
        <time>2021-10-22T12:48:12Z</time>
      </trkpt>
      <trkpt lat="42.655415" lon="-2.756664">
        <ele>749.510</ele>
        <time>2021-10-22T12:48:17Z</time>
      </trkpt>
      <trkpt lat="42.65541" lon="-2.756731">
        <ele>750.073</ele>
        <time>2021-10-22T12:48:22Z</time>
      </trkpt>
      <trkpt lat="42.655399" lon="-2.756797">
        <ele>751.876</ele>
        <time>2021-10-22T12:48:27Z</time>
      </trkpt>
      <trkpt lat="42.655396" lon="-2.756861">
        <ele>750.256</ele>
        <time>2021-10-22T12:48:32Z</time>
      </trkpt>
      <trkpt lat="42.655393" lon="-2.756929">
        <ele>750.192</ele>
        <time>2021-10-22T12:48:37Z</time>
      </trkpt>
      <trkpt lat="42.6554" lon="-2.756995">
        <ele>750.542</ele>
        <time>2021-10-22T12:48:42Z</time>
      </trkpt>
      <trkpt lat="42.655408" lon="-2.757055">
        <ele>750.986</ele>
        <time>2021-10-22T12:48:46Z</time>
      </trkpt>
      <trkpt lat="42.655402" lon="-2.757117">
        <ele>748.359</ele>
        <time>2021-10-22T12:48:50Z</time>
      </trkpt>
      <trkpt lat="42.6554" lon="-2.757185">
        <ele>747.303</ele>
        <time>2021-10-22T12:48:55Z</time>
      </trkpt>
      <trkpt lat="42.655398" lon="-2.757247">
        <ele>747.023</ele>
        <time>2021-10-22T12:49:00Z</time>
      </trkpt>
      <trkpt lat="42.65541" lon="-2.757314">
        <ele>746.408</ele>
        <time>2021-10-22T12:49:05Z</time>
      </trkpt>
      <trkpt lat="42.655422" lon="-2.757378">
        <ele>744.563</ele>
        <time>2021-10-22T12:49:09Z</time>
      </trkpt>
      <trkpt lat="42.655425" lon="-2.757443">
        <ele>749.372</ele>
        <time>2021-10-22T12:49:13Z</time>
      </trkpt>
      <trkpt lat="42.655424" lon="-2.757515">
        <ele>747.895</ele>
        <time>2021-10-22T12:49:17Z</time>
      </trkpt>
      <trkpt lat="42.655408" lon="-2.757581">
        <ele>752.288</ele>
        <time>2021-10-22T12:49:22Z</time>
      </trkpt>
      <trkpt lat="42.6554" lon="-2.757647">
        <ele>753.028</ele>
        <time>2021-10-22T12:49:27Z</time>
      </trkpt>
      <trkpt lat="42.655398" lon="-2.757718">
        <ele>753.584</ele>
        <time>2021-10-22T12:49:31Z</time>
      </trkpt>
      <trkpt lat="42.655393" lon="-2.757781">
        <ele>752.334</ele>
        <time>2021-10-22T12:49:35Z</time>
      </trkpt>
      <trkpt lat="42.655394" lon="-2.757842">
        <ele>753.688</ele>
        <time>2021-10-22T12:49:39Z</time>
      </trkpt>
      <trkpt lat="42.655393" lon="-2.757906">
        <ele>753.352</ele>
        <time>2021-10-22T12:49:43Z</time>
      </trkpt>
      <trkpt lat="42.655384" lon="-2.757972">
        <ele>752.653</ele>
        <time>2021-10-22T12:49:48Z</time>
      </trkpt>
      <trkpt lat="42.655369" lon="-2.758036">
        <ele>753.608</ele>
        <time>2021-10-22T12:49:52Z</time>
      </trkpt>
      <trkpt lat="42.655337" lon="-2.758084">
        <ele>755.108</ele>
        <time>2021-10-22T12:49:59Z</time>
      </trkpt>
      <trkpt lat="42.655292" lon="-2.758093">
        <ele>756.543</ele>
        <time>2021-10-22T12:50:08Z</time>
      </trkpt>
      <trkpt lat="42.655249" lon="-2.758076">
        <ele>757.442</ele>
        <time>2021-10-22T12:50:14Z</time>
      </trkpt>
      <trkpt lat="42.655203" lon="-2.758071">
        <ele>757.695</ele>
        <time>2021-10-22T12:50:18Z</time>
      </trkpt>
      <trkpt lat="42.655154" lon="-2.758061">
        <ele>758.288</ele>
        <time>2021-10-22T12:50:22Z</time>
      </trkpt>
      <trkpt lat="42.655109" lon="-2.758044">
        <ele>757.688</ele>
        <time>2021-10-22T12:50:25Z</time>
      </trkpt>
      <trkpt lat="42.655064" lon="-2.758037">
        <ele>757.084</ele>
        <time>2021-10-22T12:50:29Z</time>
      </trkpt>
      <trkpt lat="42.655017" lon="-2.758026">
        <ele>758.594</ele>
        <time>2021-10-22T12:50:35Z</time>
      </trkpt>
      <trkpt lat="42.654972" lon="-2.758007">
        <ele>758.478</ele>
        <time>2021-10-22T12:50:41Z</time>
      </trkpt>
      <trkpt lat="42.65492" lon="-2.758023">
        <ele>759.481</ele>
        <time>2021-10-22T12:50:46Z</time>
      </trkpt>
      <trkpt lat="42.654872" lon="-2.758029">
        <ele>758.061</ele>
        <time>2021-10-22T12:50:50Z</time>
      </trkpt>
      <trkpt lat="42.654823" lon="-2.758036">
        <ele>759.017</ele>
        <time>2021-10-22T12:50:54Z</time>
      </trkpt>
      <trkpt lat="42.65477" lon="-2.758038">
        <ele>758.808</ele>
        <time>2021-10-22T12:50:59Z</time>
      </trkpt>
      <trkpt lat="42.654716" lon="-2.758031">
        <ele>757.096</ele>
        <time>2021-10-22T12:51:03Z</time>
      </trkpt>
      <trkpt lat="42.654667" lon="-2.75802">
        <ele>755.025</ele>
        <time>2021-10-22T12:51:08Z</time>
      </trkpt>
      <trkpt lat="42.654622" lon="-2.758018">
        <ele>754.648</ele>
        <time>2021-10-22T12:51:12Z</time>
      </trkpt>
      <trkpt lat="42.654573" lon="-2.758006">
        <ele>752.721</ele>
        <time>2021-10-22T12:51:16Z</time>
      </trkpt>
      <trkpt lat="42.654527" lon="-2.757998">
        <ele>752.221</ele>
        <time>2021-10-22T12:51:21Z</time>
      </trkpt>
      <trkpt lat="42.654479" lon="-2.757996">
        <ele>751.627</ele>
        <time>2021-10-22T12:51:29Z</time>
      </trkpt>
      <trkpt lat="42.654429" lon="-2.757979">
        <ele>750.897</ele>
        <time>2021-10-22T12:51:34Z</time>
      </trkpt>
      <trkpt lat="42.654382" lon="-2.757973">
        <ele>752.931</ele>
        <time>2021-10-22T12:51:39Z</time>
      </trkpt>
      <trkpt lat="42.654341" lon="-2.75801">
        <ele>747.196</ele>
        <time>2021-10-22T12:51:43Z</time>
      </trkpt>
      <trkpt lat="42.654301" lon="-2.758049">
        <ele>747.631</ele>
        <time>2021-10-22T12:51:48Z</time>
      </trkpt>
      <trkpt lat="42.654255" lon="-2.758053">
        <ele>746.824</ele>
        <time>2021-10-22T12:51:59Z</time>
      </trkpt>
      <trkpt lat="42.65421" lon="-2.758094">
        <ele>739.508</ele>
        <time>2021-10-22T12:52:06Z</time>
      </trkpt>
      <trkpt lat="42.654168" lon="-2.758134">
        <ele>745.677</ele>
        <time>2021-10-22T12:52:10Z</time>
      </trkpt>
      <trkpt lat="42.654122" lon="-2.758159">
        <ele>746.576</ele>
        <time>2021-10-22T12:52:14Z</time>
      </trkpt>
      <trkpt lat="42.654086" lon="-2.7582">
        <ele>744.399</ele>
        <time>2021-10-22T12:52:17Z</time>
      </trkpt>
      <trkpt lat="42.654049" lon="-2.758242">
        <ele>744.442</ele>
        <time>2021-10-22T12:52:21Z</time>
      </trkpt>
      <trkpt lat="42.654013" lon="-2.758284">
        <ele>745.132</ele>
        <time>2021-10-22T12:52:26Z</time>
      </trkpt>
      <trkpt lat="42.653976" lon="-2.758319">
        <ele>749.968</ele>
        <time>2021-10-22T12:52:30Z</time>
      </trkpt>
      <trkpt lat="42.653939" lon="-2.758354">
        <ele>749.028</ele>
        <time>2021-10-22T12:52:35Z</time>
      </trkpt>
      <trkpt lat="42.653898" lon="-2.758381">
        <ele>750.472</ele>
        <time>2021-10-22T12:52:41Z</time>
      </trkpt>
      <trkpt lat="42.65385" lon="-2.758407">
        <ele>752.738</ele>
        <time>2021-10-22T12:52:45Z</time>
      </trkpt>
      <trkpt lat="42.653813" lon="-2.758445">
        <ele>752.570</ele>
        <time>2021-10-22T12:52:48Z</time>
      </trkpt>
      <trkpt lat="42.653778" lon="-2.758495">
        <ele>751.117</ele>
        <time>2021-10-22T12:52:52Z</time>
      </trkpt>
      <trkpt lat="42.653732" lon="-2.758514">
        <ele>743.808</ele>
        <time>2021-10-22T12:52:58Z</time>
      </trkpt>
      <trkpt lat="42.653703" lon="-2.758563">
        <ele>744.851</ele>
        <time>2021-10-22T12:53:04Z</time>
      </trkpt>
      <trkpt lat="42.653684" lon="-2.75862">
        <ele>745.340</ele>
        <time>2021-10-22T12:53:11Z</time>
      </trkpt>
      <trkpt lat="42.653681" lon="-2.758684">
        <ele>745.873</ele>
        <time>2021-10-22T12:53:19Z</time>
      </trkpt>
      <trkpt lat="42.653669" lon="-2.758744">
        <ele>744.676</ele>
        <time>2021-10-22T12:53:23Z</time>
      </trkpt>
      <trkpt lat="42.653665" lon="-2.758817">
        <ele>747.836</ele>
        <time>2021-10-22T12:53:27Z</time>
      </trkpt>
      <trkpt lat="42.653655" lon="-2.758881">
        <ele>748.832</ele>
        <time>2021-10-22T12:53:30Z</time>
      </trkpt>
      <trkpt lat="42.653645" lon="-2.758948">
        <ele>748.792</ele>
        <time>2021-10-22T12:53:33Z</time>
      </trkpt>
      <trkpt lat="42.653638" lon="-2.75901">
        <ele>749.716</ele>
        <time>2021-10-22T12:53:36Z</time>
      </trkpt>
      <trkpt lat="42.653635" lon="-2.759084">
        <ele>750.817</ele>
        <time>2021-10-22T12:53:40Z</time>
      </trkpt>
      <trkpt lat="42.653637" lon="-2.759154">
        <ele>749.787</ele>
        <time>2021-10-22T12:53:44Z</time>
      </trkpt>
      <trkpt lat="42.653634" lon="-2.759224">
        <ele>748.415</ele>
        <time>2021-10-22T12:53:48Z</time>
      </trkpt>
      <trkpt lat="42.653637" lon="-2.759288">
        <ele>747.608</ele>
        <time>2021-10-22T12:53:52Z</time>
      </trkpt>
      <trkpt lat="42.653638" lon="-2.75935">
        <ele>746.029</ele>
        <time>2021-10-22T12:53:56Z</time>
      </trkpt>
      <trkpt lat="42.653641" lon="-2.759416">
        <ele>745.248</ele>
        <time>2021-10-22T12:54:01Z</time>
      </trkpt>
      <trkpt lat="42.653662" lon="-2.759471">
        <ele>729.941</ele>
        <time>2021-10-22T12:54:06Z</time>
      </trkpt>
      <trkpt lat="42.65369" lon="-2.759528">
        <ele>713.074</ele>
        <time>2021-10-22T12:54:10Z</time>
      </trkpt>
      <trkpt lat="42.653712" lon="-2.759599">
        <ele>698.224</ele>
        <time>2021-10-22T12:54:15Z</time>
      </trkpt>
      <trkpt lat="42.65373" lon="-2.759656">
        <ele>692.840</ele>
        <time>2021-10-22T12:54:19Z</time>
      </trkpt>
      <trkpt lat="42.653742" lon="-2.759725">
        <ele>702.890</ele>
        <time>2021-10-22T12:54:25Z</time>
      </trkpt>
      <trkpt lat="42.653756" lon="-2.759795">
        <ele>706.344</ele>
        <time>2021-10-22T12:54:31Z</time>
      </trkpt>
      <trkpt lat="42.653746" lon="-2.759856">
        <ele>691.046</ele>
        <time>2021-10-22T12:54:38Z</time>
      </trkpt>
      <trkpt lat="42.653743" lon="-2.759928">
        <ele>689.088</ele>
        <time>2021-10-22T12:54:41Z</time>
      </trkpt>
      <trkpt lat="42.653742" lon="-2.760001">
        <ele>693.416</ele>
        <time>2021-10-22T12:54:45Z</time>
      </trkpt>
      <trkpt lat="42.653713" lon="-2.760048">
        <ele>708.408</ele>
        <time>2021-10-22T12:54:59Z</time>
      </trkpt>
      <trkpt lat="42.653716" lon="-2.760115">
        <ele>709.942</ele>
        <time>2021-10-22T12:55:28Z</time>
      </trkpt>
      <trkpt lat="42.653721" lon="-2.760177">
        <ele>699.941</ele>
        <time>2021-10-22T12:55:33Z</time>
      </trkpt>
      <trkpt lat="42.653715" lon="-2.760241">
        <ele>696.234</ele>
        <time>2021-10-22T12:55:37Z</time>
      </trkpt>
      <trkpt lat="42.653713" lon="-2.760303">
        <ele>692.157</ele>
        <time>2021-10-22T12:55:40Z</time>
      </trkpt>
      <trkpt lat="42.653712" lon="-2.76037">
        <ele>687.277</ele>
        <time>2021-10-22T12:55:44Z</time>
      </trkpt>
      <trkpt lat="42.653725" lon="-2.760438">
        <ele>687.733</ele>
        <time>2021-10-22T12:55:48Z</time>
      </trkpt>
      <trkpt lat="42.653739" lon="-2.760499">
        <ele>682.173</ele>
        <time>2021-10-22T12:55:52Z</time>
      </trkpt>
      <trkpt lat="42.653743" lon="-2.760565">
        <ele>681.837</ele>
        <time>2021-10-22T12:55:56Z</time>
      </trkpt>
      <trkpt lat="42.653734" lon="-2.760633">
        <ele>678.955</ele>
        <time>2021-10-22T12:56:01Z</time>
      </trkpt>
      <trkpt lat="42.653722" lon="-2.760703">
        <ele>676.307</ele>
        <time>2021-10-22T12:56:05Z</time>
      </trkpt>
      <trkpt lat="42.653703" lon="-2.760766">
        <ele>681.717</ele>
        <time>2021-10-22T12:56:09Z</time>
      </trkpt>
      <trkpt lat="42.653688" lon="-2.76083">
        <ele>687.208</ele>
        <time>2021-10-22T12:56:13Z</time>
      </trkpt>
      <trkpt lat="42.653674" lon="-2.760896">
        <ele>682.453</ele>
        <time>2021-10-22T12:56:18Z</time>
      </trkpt>
      <trkpt lat="42.653671" lon="-2.760958">
        <ele>689.082</ele>
        <time>2021-10-22T12:56:22Z</time>
      </trkpt>
      <trkpt lat="42.653689" lon="-2.76102">
        <ele>695.965</ele>
        <time>2021-10-22T12:56:26Z</time>
      </trkpt>
      <trkpt lat="42.653705" lon="-2.76109">
        <ele>691.668</ele>
        <time>2021-10-22T12:56:32Z</time>
      </trkpt>
      <trkpt lat="42.653731" lon="-2.761151">
        <ele>693.678</ele>
        <time>2021-10-22T12:56:37Z</time>
      </trkpt>
      <trkpt lat="42.653759" lon="-2.761201">
        <ele>678.254</ele>
        <time>2021-10-22T12:56:41Z</time>
      </trkpt>
      <trkpt lat="42.653796" lon="-2.761248">
        <ele>672.414</ele>
        <time>2021-10-22T12:56:46Z</time>
      </trkpt>
      <trkpt lat="42.653834" lon="-2.761285">
        <ele>669.318</ele>
        <time>2021-10-22T12:56:51Z</time>
      </trkpt>
      <trkpt lat="42.653879" lon="-2.761312">
        <ele>669.332</ele>
        <time>2021-10-22T12:56:57Z</time>
      </trkpt>
      <trkpt lat="42.653915" lon="-2.761363">
        <ele>675.392</ele>
        <time>2021-10-22T12:57:01Z</time>
      </trkpt>
      <trkpt lat="42.653954" lon="-2.761405">
        <ele>676.611</ele>
        <time>2021-10-22T12:57:05Z</time>
      </trkpt>
      <trkpt lat="42.654001" lon="-2.761436">
        <ele>677.108</ele>
        <time>2021-10-22T12:57:09Z</time>
      </trkpt>
      <trkpt lat="42.654045" lon="-2.761457">
        <ele>672.231</ele>
        <time>2021-10-22T12:57:13Z</time>
      </trkpt>
      <trkpt lat="42.654088" lon="-2.761478">
        <ele>672.280</ele>
        <time>2021-10-22T12:57:16Z</time>
      </trkpt>
      <trkpt lat="42.654134" lon="-2.761488">
        <ele>672.113</ele>
        <time>2021-10-22T12:57:20Z</time>
      </trkpt>
      <trkpt lat="42.654183" lon="-2.761477">
        <ele>668.496</ele>
        <time>2021-10-22T12:57:24Z</time>
      </trkpt>
      <trkpt lat="42.654234" lon="-2.761481">
        <ele>674.216</ele>
        <time>2021-10-22T12:57:29Z</time>
      </trkpt>
      <trkpt lat="42.654274" lon="-2.761518">
        <ele>667.522</ele>
        <time>2021-10-22T12:57:34Z</time>
      </trkpt>
      <trkpt lat="42.654317" lon="-2.761543">
        <ele>665.112</ele>
        <time>2021-10-22T12:57:39Z</time>
      </trkpt>
      <trkpt lat="42.65437" lon="-2.761547">
        <ele>662.316</ele>
        <time>2021-10-22T12:57:44Z</time>
      </trkpt>
      <trkpt lat="42.654423" lon="-2.761552">
        <ele>661.269</ele>
        <time>2021-10-22T12:57:48Z</time>
      </trkpt>
      <trkpt lat="42.654471" lon="-2.761585">
        <ele>655.304</ele>
        <time>2021-10-22T12:57:52Z</time>
      </trkpt>
      <trkpt lat="42.654518" lon="-2.76161">
        <ele>658.824</ele>
        <time>2021-10-22T12:57:56Z</time>
      </trkpt>
      <trkpt lat="42.654565" lon="-2.761626">
        <ele>660.708</ele>
        <time>2021-10-22T12:58:00Z</time>
      </trkpt>
      <trkpt lat="42.65461" lon="-2.761643">
        <ele>666.964</ele>
        <time>2021-10-22T12:58:06Z</time>
      </trkpt>
      <trkpt lat="42.654614" lon="-2.761704">
        <ele>682.023</ele>
        <time>2021-10-22T12:58:14Z</time>
      </trkpt>
      <trkpt lat="42.65464" lon="-2.761754">
        <ele>697.086</ele>
        <time>2021-10-22T12:58:20Z</time>
      </trkpt>
      <trkpt lat="42.654695" lon="-2.76176">
        <ele>715.399</ele>
        <time>2021-10-22T12:58:24Z</time>
      </trkpt>
      <trkpt lat="42.654742" lon="-2.761769">
        <ele>731.049</ele>
        <time>2021-10-22T12:58:27Z</time>
      </trkpt>
      <trkpt lat="42.654788" lon="-2.761773">
        <ele>746.295</ele>
        <time>2021-10-22T12:58:30Z</time>
      </trkpt>
      <trkpt lat="42.654834" lon="-2.761765">
        <ele>751.375</ele>
        <time>2021-10-22T12:58:33Z</time>
      </trkpt>
      <trkpt lat="42.654882" lon="-2.76176">
        <ele>752.159</ele>
        <time>2021-10-22T12:58:37Z</time>
      </trkpt>
      <trkpt lat="42.654924" lon="-2.761783">
        <ele>752.831</ele>
        <time>2021-10-22T12:58:41Z</time>
      </trkpt>
      <trkpt lat="42.654956" lon="-2.761834">
        <ele>753.561</ele>
        <time>2021-10-22T12:58:46Z</time>
      </trkpt>
      <trkpt lat="42.655003" lon="-2.761817">
        <ele>753.807</ele>
        <time>2021-10-22T12:58:56Z</time>
      </trkpt>
      <trkpt lat="42.655052" lon="-2.761827">
        <ele>765.208</ele>
        <time>2021-10-22T12:59:04Z</time>
      </trkpt>
      <trkpt lat="42.655095" lon="-2.761861">
        <ele>759.651</ele>
        <time>2021-10-22T12:59:08Z</time>
      </trkpt>
      <trkpt lat="42.655133" lon="-2.761902">
        <ele>762.180</ele>
        <time>2021-10-22T12:59:11Z</time>
      </trkpt>
      <trkpt lat="42.655175" lon="-2.76194">
        <ele>763.733</ele>
        <time>2021-10-22T12:59:15Z</time>
      </trkpt>
      <trkpt lat="42.655219" lon="-2.761969">
        <ele>763.716</ele>
        <time>2021-10-22T12:59:18Z</time>
      </trkpt>
      <trkpt lat="42.655263" lon="-2.761996">
        <ele>761.796</ele>
        <time>2021-10-22T12:59:21Z</time>
      </trkpt>
      <trkpt lat="42.655306" lon="-2.762026">
        <ele>757.792</ele>
        <time>2021-10-22T12:59:25Z</time>
      </trkpt>
      <trkpt lat="42.655354" lon="-2.76205">
        <ele>759.822</ele>
        <time>2021-10-22T12:59:28Z</time>
      </trkpt>
      <trkpt lat="42.6554" lon="-2.762045">
        <ele>757.286</ele>
        <time>2021-10-22T12:59:32Z</time>
      </trkpt>
      <trkpt lat="42.655446" lon="-2.762043">
        <ele>758.429</ele>
        <time>2021-10-22T12:59:35Z</time>
      </trkpt>
      <trkpt lat="42.65548" lon="-2.762087">
        <ele>759.500</ele>
        <time>2021-10-22T12:59:43Z</time>
      </trkpt>
      <trkpt lat="42.655445" lon="-2.762136">
        <ele>753.220</ele>
        <time>2021-10-22T12:59:50Z</time>
      </trkpt>
      <trkpt lat="42.655397" lon="-2.762147">
        <ele>754.308</ele>
        <time>2021-10-22T12:59:56Z</time>
      </trkpt>
      <trkpt lat="42.655376" lon="-2.762204">
        <ele>754.190</ele>
        <time>2021-10-22T13:00:02Z</time>
      </trkpt>
      <trkpt lat="42.655352" lon="-2.762258">
        <ele>754.649</ele>
        <time>2021-10-22T13:00:06Z</time>
      </trkpt>
      <trkpt lat="42.655315" lon="-2.762314">
        <ele>756.052</ele>
        <time>2021-10-22T13:00:10Z</time>
      </trkpt>
      <trkpt lat="42.655278" lon="-2.762372">
        <ele>755.765</ele>
        <time>2021-10-22T13:00:13Z</time>
      </trkpt>
      <trkpt lat="42.655252" lon="-2.762423">
        <ele>756.315</ele>
        <time>2021-10-22T13:00:16Z</time>
      </trkpt>
      <trkpt lat="42.655221" lon="-2.762467">
        <ele>758.921</ele>
        <time>2021-10-22T13:00:20Z</time>
      </trkpt>
      <trkpt lat="42.655199" lon="-2.762526">
        <ele>756.911</ele>
        <time>2021-10-22T13:00:25Z</time>
      </trkpt>
      <trkpt lat="42.655158" lon="-2.762555">
        <ele>754.985</ele>
        <time>2021-10-22T13:00:30Z</time>
      </trkpt>
      <trkpt lat="42.65511" lon="-2.762547">
        <ele>753.424</ele>
        <time>2021-10-22T13:00:33Z</time>
      </trkpt>
      <trkpt lat="42.655064" lon="-2.762552">
        <ele>754.204</ele>
        <time>2021-10-22T13:00:36Z</time>
      </trkpt>
      <trkpt lat="42.655018" lon="-2.762562">
        <ele>755.514</ele>
        <time>2021-10-22T13:00:39Z</time>
      </trkpt>
      <trkpt lat="42.654974" lon="-2.762587">
        <ele>753.308</ele>
        <time>2021-10-22T13:00:42Z</time>
      </trkpt>
      <trkpt lat="42.654929" lon="-2.76262">
        <ele>756.560</ele>
        <time>2021-10-22T13:00:46Z</time>
      </trkpt>
      <trkpt lat="42.654974" lon="-2.762631">
        <ele>750.749</ele>
        <time>2021-10-22T13:00:57Z</time>
      </trkpt>
      <trkpt lat="42.654927" lon="-2.76265">
        <ele>753.952</ele>
        <time>2021-10-22T13:01:20Z</time>
      </trkpt>
      <trkpt lat="42.654916" lon="-2.762715">
        <ele>756.065</ele>
        <time>2021-10-22T13:01:26Z</time>
      </trkpt>
      <trkpt lat="42.654892" lon="-2.762768">
        <ele>757.175</ele>
        <time>2021-10-22T13:01:29Z</time>
      </trkpt>
      <trkpt lat="42.654858" lon="-2.762816">
        <ele>758.021</ele>
        <time>2021-10-22T13:01:32Z</time>
      </trkpt>
      <trkpt lat="42.654822" lon="-2.762865">
        <ele>757.421</ele>
        <time>2021-10-22T13:01:34Z</time>
      </trkpt>
      <trkpt lat="42.654774" lon="-2.762918">
        <ele>756.895</ele>
        <time>2021-10-22T13:01:37Z</time>
      </trkpt>
      <trkpt lat="42.654716" lon="-2.762929">
        <ele>757.861</ele>
        <time>2021-10-22T13:01:39Z</time>
      </trkpt>
      <trkpt lat="42.654666" lon="-2.762934">
        <ele>758.421</ele>
        <time>2021-10-22T13:01:41Z</time>
      </trkpt>
      <trkpt lat="42.654616" lon="-2.762931">
        <ele>755.913</ele>
        <time>2021-10-22T13:01:43Z</time>
      </trkpt>
      <trkpt lat="42.654566" lon="-2.762921">
        <ele>756.308</ele>
        <time>2021-10-22T13:01:45Z</time>
      </trkpt>
      <trkpt lat="42.654507" lon="-2.762917">
        <ele>755.824</ele>
        <time>2021-10-22T13:01:47Z</time>
      </trkpt>
      <trkpt lat="42.654457" lon="-2.762916">
        <ele>754.083</ele>
        <time>2021-10-22T13:01:49Z</time>
      </trkpt>
      <trkpt lat="42.654409" lon="-2.762919">
        <ele>756.546</ele>
        <time>2021-10-22T13:01:52Z</time>
      </trkpt>
      <trkpt lat="42.654364" lon="-2.762914">
        <ele>756.289</ele>
        <time>2021-10-22T13:01:54Z</time>
      </trkpt>
      <trkpt lat="42.654314" lon="-2.7629">
        <ele>757.239</ele>
        <time>2021-10-22T13:01:58Z</time>
      </trkpt>
      <trkpt lat="42.654269" lon="-2.762878">
        <ele>756.185</ele>
        <time>2021-10-22T13:02:02Z</time>
      </trkpt>
      <trkpt lat="42.654228" lon="-2.762846">
        <ele>756.515</ele>
        <time>2021-10-22T13:02:05Z</time>
      </trkpt>
      <trkpt lat="42.654189" lon="-2.762801">
        <ele>755.449</ele>
        <time>2021-10-22T13:02:09Z</time>
      </trkpt>
      <trkpt lat="42.654128" lon="-2.762807">
        <ele>757.772</ele>
        <time>2021-10-22T13:02:13Z</time>
      </trkpt>
      <trkpt lat="42.654087" lon="-2.762841">
        <ele>762.313</ele>
        <time>2021-10-22T13:02:16Z</time>
      </trkpt>
      <trkpt lat="42.654048" lon="-2.762888">
        <ele>759.914</ele>
        <time>2021-10-22T13:02:21Z</time>
      </trkpt>
      <trkpt lat="42.654009" lon="-2.762922">
        <ele>756.808</ele>
        <time>2021-10-22T13:02:24Z</time>
      </trkpt>
      <trkpt lat="42.653963" lon="-2.762949">
        <ele>755.235</ele>
        <time>2021-10-22T13:02:28Z</time>
      </trkpt>
      <trkpt lat="42.653915" lon="-2.762965">
        <ele>757.284</ele>
        <time>2021-10-22T13:02:32Z</time>
      </trkpt>
      <trkpt lat="42.653876" lon="-2.763008">
        <ele>758.887</ele>
        <time>2021-10-22T13:02:37Z</time>
      </trkpt>
      <trkpt lat="42.653839" lon="-2.763046">
        <ele>760.340</ele>
        <time>2021-10-22T13:02:40Z</time>
      </trkpt>
      <trkpt lat="42.653804" lon="-2.763088">
        <ele>756.080</ele>
        <time>2021-10-22T13:02:44Z</time>
      </trkpt>
      <trkpt lat="42.653771" lon="-2.763133">
        <ele>756.346</ele>
        <time>2021-10-22T13:02:48Z</time>
      </trkpt>
      <trkpt lat="42.653749" lon="-2.763194">
        <ele>758.246</ele>
        <time>2021-10-22T13:02:52Z</time>
      </trkpt>
      <trkpt lat="42.653762" lon="-2.763264">
        <ele>757.950</ele>
        <time>2021-10-22T13:02:55Z</time>
      </trkpt>
      <trkpt lat="42.653752" lon="-2.76333">
        <ele>755.837</ele>
        <time>2021-10-22T13:02:58Z</time>
      </trkpt>
      <trkpt lat="42.653719" lon="-2.7634">
        <ele>756.949</ele>
        <time>2021-10-22T13:03:02Z</time>
      </trkpt>
      <trkpt lat="42.653693" lon="-2.76345">
        <ele>756.013</ele>
        <time>2021-10-22T13:03:06Z</time>
      </trkpt>
      <trkpt lat="42.653669" lon="-2.763513">
        <ele>753.608</ele>
        <time>2021-10-22T13:03:10Z</time>
      </trkpt>
      <trkpt lat="42.653651" lon="-2.763576">
        <ele>751.931</ele>
        <time>2021-10-22T13:03:17Z</time>
      </trkpt>
      <trkpt lat="42.653653" lon="-2.763644">
        <ele>752.850</ele>
        <time>2021-10-22T13:03:24Z</time>
      </trkpt>
      <trkpt lat="42.65364" lon="-2.763703">
        <ele>753.123</ele>
        <time>2021-10-22T13:03:31Z</time>
      </trkpt>
      <trkpt lat="42.653627" lon="-2.763767">
        <ele>753.396</ele>
        <time>2021-10-22T13:03:36Z</time>
      </trkpt>
      <trkpt lat="42.653635" lon="-2.763833">
        <ele>752.576</ele>
        <time>2021-10-22T13:03:40Z</time>
      </trkpt>
      <trkpt lat="42.653635" lon="-2.763895">
        <ele>753.412</ele>
        <time>2021-10-22T13:03:43Z</time>
      </trkpt>
      <trkpt lat="42.653634" lon="-2.763971">
        <ele>753.432</ele>
        <time>2021-10-22T13:03:46Z</time>
      </trkpt>
      <trkpt lat="42.653641" lon="-2.764034">
        <ele>753.966</ele>
        <time>2021-10-22T13:03:49Z</time>
      </trkpt>
      <trkpt lat="42.653648" lon="-2.764095">
        <ele>754.265</ele>
        <time>2021-10-22T13:03:52Z</time>
      </trkpt>
      <trkpt lat="42.653654" lon="-2.764156">
        <ele>752.668</ele>
        <time>2021-10-22T13:03:55Z</time>
      </trkpt>
      <trkpt lat="42.653668" lon="-2.764215">
        <ele>750.614</ele>
        <time>2021-10-22T13:04:00Z</time>
      </trkpt>
      <trkpt lat="42.653682" lon="-2.764274">
        <ele>750.908</ele>
        <time>2021-10-22T13:04:05Z</time>
      </trkpt>
      <trkpt lat="42.653683" lon="-2.764346">
        <ele>751.764</ele>
        <time>2021-10-22T13:04:11Z</time>
      </trkpt>
      <trkpt lat="42.653669" lon="-2.764405">
        <ele>751.493</ele>
        <time>2021-10-22T13:04:15Z</time>
      </trkpt>
      <trkpt lat="42.653645" lon="-2.764457">
        <ele>751.366</ele>
        <time>2021-10-22T13:04:19Z</time>
      </trkpt>
      <trkpt lat="42.653602" lon="-2.764475">
        <ele>751.089</ele>
        <time>2021-10-22T13:04:40Z</time>
      </trkpt>
      <trkpt lat="42.653594" lon="-2.764539">
        <ele>752.079</ele>
        <time>2021-10-22T13:04:47Z</time>
      </trkpt>
      <trkpt lat="42.653577" lon="-2.764596">
        <ele>751.735</ele>
        <time>2021-10-22T13:05:30Z</time>
      </trkpt>
      <trkpt lat="42.653551" lon="-2.764647">
        <ele>751.365</ele>
        <time>2021-10-22T13:05:36Z</time>
      </trkpt>
      <trkpt lat="42.653516" lon="-2.764685">
        <ele>751.189</ele>
        <time>2021-10-22T13:05:43Z</time>
      </trkpt>
      <trkpt lat="42.653477" lon="-2.764732">
        <ele>752.075</ele>
        <time>2021-10-22T13:05:47Z</time>
      </trkpt>
      <trkpt lat="42.653445" lon="-2.764783">
        <ele>751.428</ele>
        <time>2021-10-22T13:05:51Z</time>
      </trkpt>
      <trkpt lat="42.653409" lon="-2.764829">
        <ele>750.820</ele>
        <time>2021-10-22T13:05:54Z</time>
      </trkpt>
      <trkpt lat="42.653385" lon="-2.764882">
        <ele>751.908</ele>
        <time>2021-10-22T13:06:17Z</time>
      </trkpt>
      <trkpt lat="42.653361" lon="-2.764941">
        <ele>751.815</ele>
        <time>2021-10-22T13:06:25Z</time>
      </trkpt>
      <trkpt lat="42.653337" lon="-2.764998">
        <ele>750.834</ele>
        <time>2021-10-22T13:06:30Z</time>
      </trkpt>
      <trkpt lat="42.65334" lon="-2.765062">
        <ele>751.057</ele>
        <time>2021-10-22T13:06:36Z</time>
      </trkpt>
      <trkpt lat="42.653335" lon="-2.765124">
        <ele>750.810</ele>
        <time>2021-10-22T13:06:39Z</time>
      </trkpt>
      <trkpt lat="42.653317" lon="-2.765191">
        <ele>750.120</ele>
        <time>2021-10-22T13:06:42Z</time>
      </trkpt>
      <trkpt lat="42.65329" lon="-2.765244">
        <ele>750.286</ele>
        <time>2021-10-22T13:06:45Z</time>
      </trkpt>
      <trkpt lat="42.653261" lon="-2.765296">
        <ele>749.626</ele>
        <time>2021-10-22T13:06:49Z</time>
      </trkpt>
      <trkpt lat="42.653233" lon="-2.765348">
        <ele>749.940</ele>
        <time>2021-10-22T13:06:52Z</time>
      </trkpt>
      <trkpt lat="42.653212" lon="-2.765403">
        <ele>749.462</ele>
        <time>2021-10-22T13:06:55Z</time>
      </trkpt>
      <trkpt lat="42.653194" lon="-2.765468">
        <ele>749.483</ele>
        <time>2021-10-22T13:06:58Z</time>
      </trkpt>
      <trkpt lat="42.65319" lon="-2.765535">
        <ele>749.811</ele>
        <time>2021-10-22T13:07:02Z</time>
      </trkpt>
      <trkpt lat="42.653191" lon="-2.765607">
        <ele>748.808</ele>
        <time>2021-10-22T13:07:06Z</time>
      </trkpt>
      <trkpt lat="42.65319" lon="-2.76567">
        <ele>747.924</ele>
        <time>2021-10-22T13:07:10Z</time>
      </trkpt>
      <trkpt lat="42.653181" lon="-2.765731">
        <ele>749.493</ele>
        <time>2021-10-22T13:07:14Z</time>
      </trkpt>
      <trkpt lat="42.653167" lon="-2.765794">
        <ele>748.456</ele>
        <time>2021-10-22T13:07:18Z</time>
      </trkpt>
      <trkpt lat="42.653161" lon="-2.765862">
        <ele>749.139</ele>
        <time>2021-10-22T13:07:21Z</time>
      </trkpt>
      <trkpt lat="42.653153" lon="-2.765935">
        <ele>748.669</ele>
        <time>2021-10-22T13:07:25Z</time>
      </trkpt>
      <trkpt lat="42.653154" lon="-2.766005">
        <ele>745.585</ele>
        <time>2021-10-22T13:07:29Z</time>
      </trkpt>
      <trkpt lat="42.65316" lon="-2.766071">
        <ele>745.035</ele>
        <time>2021-10-22T13:07:32Z</time>
      </trkpt>
      <trkpt lat="42.653161" lon="-2.766145">
        <ele>726.999</ele>
        <time>2021-10-22T13:07:37Z</time>
      </trkpt>
      <trkpt lat="42.653167" lon="-2.766212">
        <ele>710.559</ele>
        <time>2021-10-22T13:07:42Z</time>
      </trkpt>
      <trkpt lat="42.653171" lon="-2.766273">
        <ele>695.403</ele>
        <time>2021-10-22T13:07:46Z</time>
      </trkpt>
      <trkpt lat="42.653187" lon="-2.766333">
        <ele>679.823</ele>
        <time>2021-10-22T13:07:49Z</time>
      </trkpt>
      <trkpt lat="42.653231" lon="-2.766366">
        <ele>663.108</ele>
        <time>2021-10-22T13:07:54Z</time>
      </trkpt>
      <trkpt lat="42.653262" lon="-2.766412">
        <ele>666.553</ele>
        <time>2021-10-22T13:07:57Z</time>
      </trkpt>
      <trkpt lat="42.653301" lon="-2.766464">
        <ele>674.152</ele>
        <time>2021-10-22T13:08:01Z</time>
      </trkpt>
      <trkpt lat="42.653323" lon="-2.766519">
        <ele>673.045</ele>
        <time>2021-10-22T13:08:05Z</time>
      </trkpt>
      <trkpt lat="42.653294" lon="-2.766568">
        <ele>683.738</ele>
        <time>2021-10-22T13:08:08Z</time>
      </trkpt>
      <trkpt lat="42.653276" lon="-2.766626">
        <ele>680.168</ele>
        <time>2021-10-22T13:08:12Z</time>
      </trkpt>
      <trkpt lat="42.653279" lon="-2.766691">
        <ele>694.744</ele>
        <time>2021-10-22T13:08:19Z</time>
      </trkpt>
      <trkpt lat="42.653312" lon="-2.766734">
        <ele>679.364</ele>
        <time>2021-10-22T13:08:30Z</time>
      </trkpt>
      <trkpt lat="42.653345" lon="-2.76679">
        <ele>665.898</ele>
        <time>2021-10-22T13:08:34Z</time>
      </trkpt>
      <trkpt lat="42.653389" lon="-2.766834">
        <ele>665.683</ele>
        <time>2021-10-22T13:08:37Z</time>
      </trkpt>
      <trkpt lat="42.653434" lon="-2.766873">
        <ele>659.525</ele>
        <time>2021-10-22T13:08:39Z</time>
      </trkpt>
      <trkpt lat="42.653475" lon="-2.766906">
        <ele>658.517</ele>
        <time>2021-10-22T13:08:41Z</time>
      </trkpt>
      <trkpt lat="42.653525" lon="-2.76694">
        <ele>670.708</ele>
        <time>2021-10-22T13:08:44Z</time>
      </trkpt>
      <trkpt lat="42.653567" lon="-2.766966">
        <ele>671.346</ele>
        <time>2021-10-22T13:08:47Z</time>
      </trkpt>
      <trkpt lat="42.653606" lon="-2.766997">
        <ele>669.245</ele>
        <time>2021-10-22T13:08:50Z</time>
      </trkpt>
      <trkpt lat="42.653645" lon="-2.767032">
        <ele>669.548</ele>
        <time>2021-10-22T13:08:53Z</time>
      </trkpt>
      <trkpt lat="42.653692" lon="-2.767044">
        <ele>667.321</ele>
        <time>2021-10-22T13:08:57Z</time>
      </trkpt>
      <trkpt lat="42.653731" lon="-2.76701">
        <ele>674.531</ele>
        <time>2021-10-22T13:09:02Z</time>
      </trkpt>
      <trkpt lat="42.653756" lon="-2.766957">
        <ele>689.997</ele>
        <time>2021-10-22T13:09:14Z</time>
      </trkpt>
      <trkpt lat="42.65379" lon="-2.766916">
        <ele>705.287</ele>
        <time>2021-10-22T13:09:20Z</time>
      </trkpt>
      <trkpt lat="42.653788" lon="-2.766853">
        <ele>720.871</ele>
        <time>2021-10-22T13:09:29Z</time>
      </trkpt>
      <trkpt lat="42.653837" lon="-2.766825">
        <ele>738.659</ele>
        <time>2021-10-22T13:09:34Z</time>
      </trkpt>
      <trkpt lat="42.653884" lon="-2.76679">
        <ele>754.703</ele>
        <time>2021-10-22T13:09:37Z</time>
      </trkpt>
      <trkpt lat="42.653923" lon="-2.76674">
        <ele>753.323</ele>
        <time>2021-10-22T13:09:39Z</time>
      </trkpt>
      <trkpt lat="42.653953" lon="-2.766682">
        <ele>752.908</ele>
        <time>2021-10-22T13:09:42Z</time>
      </trkpt>
      <trkpt lat="42.653981" lon="-2.766625">
        <ele>751.443</ele>
        <time>2021-10-22T13:09:45Z</time>
      </trkpt>
      <trkpt lat="42.654011" lon="-2.766573">
        <ele>748.172</ele>
        <time>2021-10-22T13:09:48Z</time>
      </trkpt>
      <trkpt lat="42.654059" lon="-2.766569">
        <ele>732.235</ele>
        <time>2021-10-22T13:09:59Z</time>
      </trkpt>
      <trkpt lat="42.654101" lon="-2.766546">
        <ele>717.068</ele>
        <time>2021-10-22T13:10:09Z</time>
      </trkpt>
      <trkpt lat="42.654157" lon="-2.766496">
        <ele>694.748</ele>
        <time>2021-10-22T13:10:13Z</time>
      </trkpt>
      <trkpt lat="42.654197" lon="-2.766458">
        <ele>678.594</ele>
        <time>2021-10-22T13:10:15Z</time>
      </trkpt>
      <trkpt lat="42.65424" lon="-2.766405">
        <ele>697.994</ele>
        <time>2021-10-22T13:10:18Z</time>
      </trkpt>
      <trkpt lat="42.654292" lon="-2.766366">
        <ele>678.268</ele>
        <time>2021-10-22T13:10:23Z</time>
      </trkpt>
      <trkpt lat="42.654339" lon="-2.766338">
        <ele>661.453</ele>
        <time>2021-10-22T13:10:28Z</time>
      </trkpt>
      <trkpt lat="42.654381" lon="-2.766307">
        <ele>659.504</ele>
        <time>2021-10-22T13:10:35Z</time>
      </trkpt>
      <trkpt lat="42.654402" lon="-2.766367">
        <ele>675.814</ele>
        <time>2021-10-22T13:10:43Z</time>
      </trkpt>
      <trkpt lat="42.654413" lon="-2.76643">
        <ele>676.908</ele>
        <time>2021-10-22T13:10:49Z</time>
      </trkpt>
      <trkpt lat="42.654433" lon="-2.766487">
        <ele>677.673</ele>
        <time>2021-10-22T13:10:52Z</time>
      </trkpt>
      <trkpt lat="42.654455" lon="-2.766553">
        <ele>685.252</ele>
        <time>2021-10-22T13:10:55Z</time>
      </trkpt>
      <trkpt lat="42.65447" lon="-2.766616">
        <ele>686.995</ele>
        <time>2021-10-22T13:10:58Z</time>
      </trkpt>
      <trkpt lat="42.65447" lon="-2.766682">
        <ele>670.868</ele>
        <time>2021-10-22T13:11:01Z</time>
      </trkpt>
      <trkpt lat="42.65447" lon="-2.766743">
        <ele>655.868</ele>
        <time>2021-10-22T13:11:05Z</time>
      </trkpt>
      <trkpt lat="42.654484" lon="-2.766814">
        <ele>651.784</ele>
        <time>2021-10-22T13:11:08Z</time>
      </trkpt>
      <trkpt lat="42.654491" lon="-2.76689">
        <ele>652.234</ele>
        <time>2021-10-22T13:11:12Z</time>
      </trkpt>
      <trkpt lat="42.654503" lon="-2.766958">
        <ele>657.998</ele>
        <time>2021-10-22T13:11:15Z</time>
      </trkpt>
      <trkpt lat="42.654527" lon="-2.767013">
        <ele>656.171</ele>
        <time>2021-10-22T13:11:18Z</time>
      </trkpt>
      <trkpt lat="42.654548" lon="-2.767071">
        <ele>662.241</ele>
        <time>2021-10-22T13:11:21Z</time>
      </trkpt>
      <trkpt lat="42.654554" lon="-2.76714">
        <ele>666.315</ele>
        <time>2021-10-22T13:11:25Z</time>
      </trkpt>
      <trkpt lat="42.654533" lon="-2.767077">
        <ele>652.908</ele>
        <time>2021-10-22T13:11:32Z</time>
      </trkpt>
      <trkpt lat="42.654542" lon="-2.767009">
        <ele>648.875</ele>
        <time>2021-10-22T13:11:35Z</time>
      </trkpt>
      <trkpt lat="42.654558" lon="-2.766947">
        <ele>656.794</ele>
        <time>2021-10-22T13:11:39Z</time>
      </trkpt>
      <trkpt lat="42.654601" lon="-2.766968">
        <ele>653.577</ele>
        <time>2021-10-22T13:12:02Z</time>
      </trkpt>
      <trkpt lat="42.654598" lon="-2.767035">
        <ele>662.170</ele>
        <time>2021-10-22T13:12:07Z</time>
      </trkpt>
      <trkpt lat="42.654584" lon="-2.767103">
        <ele>660.860</ele>
        <time>2021-10-22T13:12:10Z</time>
      </trkpt>
      <trkpt lat="42.654568" lon="-2.767168">
        <ele>665.986</ele>
        <time>2021-10-22T13:12:14Z</time>
      </trkpt>
      <trkpt lat="42.654549" lon="-2.767224">
        <ele>664.466</ele>
        <time>2021-10-22T13:12:18Z</time>
      </trkpt>
      <trkpt lat="42.654543" lon="-2.767289">
        <ele>661.560</ele>
        <time>2021-10-22T13:12:22Z</time>
      </trkpt>
      <trkpt lat="42.654537" lon="-2.767351">
        <ele>665.135</ele>
        <time>2021-10-22T13:12:25Z</time>
      </trkpt>
      <trkpt lat="42.654492" lon="-2.767387">
        <ele>670.286</ele>
        <time>2021-10-22T13:12:31Z</time>
      </trkpt>
      <trkpt lat="42.654475" lon="-2.767447">
        <ele>665.214</ele>
        <time>2021-10-22T13:12:35Z</time>
      </trkpt>
      <trkpt lat="42.65448" lon="-2.767519">
        <ele>672.908</ele>
        <time>2021-10-22T13:12:38Z</time>
      </trkpt>
      <trkpt lat="42.654502" lon="-2.767581">
        <ele>673.411</ele>
        <time>2021-10-22T13:12:41Z</time>
      </trkpt>
      <trkpt lat="42.654537" lon="-2.767642">
        <ele>673.120</ele>
        <time>2021-10-22T13:12:43Z</time>
      </trkpt>
      <trkpt lat="42.654568" lon="-2.767696">
        <ele>674.513</ele>
        <time>2021-10-22T13:12:46Z</time>
      </trkpt>
      <trkpt lat="42.6546" lon="-2.767752">
        <ele>658.756</ele>
        <time>2021-10-22T13:12:50Z</time>
      </trkpt>
      <trkpt lat="42.654621" lon="-2.767816">
        <ele>651.636</ele>
        <time>2021-10-22T13:12:55Z</time>
      </trkpt>
      <trkpt lat="42.654622" lon="-2.76788">
        <ele>659.142</ele>
        <time>2021-10-22T13:13:00Z</time>
      </trkpt>
      <trkpt lat="42.65459" lon="-2.767924">
        <ele>674.162</ele>
        <time>2021-10-22T13:13:06Z</time>
      </trkpt>
      <trkpt lat="42.654572" lon="-2.767985">
        <ele>667.896</ele>
        <time>2021-10-22T13:13:11Z</time>
      </trkpt>
      <trkpt lat="42.654587" lon="-2.768059">
        <ele>679.336</ele>
        <time>2021-10-22T13:13:19Z</time>
      </trkpt>
      <trkpt lat="42.654581" lon="-2.76813">
        <ele>683.517</ele>
        <time>2021-10-22T13:13:22Z</time>
      </trkpt>
      <trkpt lat="42.654573" lon="-2.768192">
        <ele>684.718</ele>
        <time>2021-10-22T13:13:23Z</time>
      </trkpt>
      <trkpt lat="42.654566" lon="-2.768267">
        <ele>684.708</ele>
        <time>2021-10-22T13:13:25Z</time>
      </trkpt>
      <trkpt lat="42.654563" lon="-2.768334">
        <ele>685.211</ele>
        <time>2021-10-22T13:13:28Z</time>
      </trkpt>
      <trkpt lat="42.654572" lon="-2.768405">
        <ele>679.850</ele>
        <time>2021-10-22T13:13:32Z</time>
      </trkpt>
      <trkpt lat="42.65461" lon="-2.768446">
        <ele>688.663</ele>
        <time>2021-10-22T13:13:46Z</time>
      </trkpt>
      <trkpt lat="42.654607" lon="-2.768512">
        <ele>689.076</ele>
        <time>2021-10-22T13:13:52Z</time>
      </trkpt>
      <trkpt lat="42.654614" lon="-2.768573">
        <ele>683.096</ele>
        <time>2021-10-22T13:14:00Z</time>
      </trkpt>
      <trkpt lat="42.654605" lon="-2.768635">
        <ele>667.482</ele>
        <time>2021-10-22T13:14:09Z</time>
      </trkpt>
      <trkpt lat="42.654634" lon="-2.768691">
        <ele>672.832</ele>
        <time>2021-10-22T13:14:15Z</time>
      </trkpt>
      <trkpt lat="42.654582" lon="-2.768712">
        <ele>664.866</ele>
        <time>2021-10-22T13:14:23Z</time>
      </trkpt>
      <trkpt lat="42.654683" lon="-2.768801">
        <ele>664.911</ele>
        <time>2021-10-22T13:14:25Z</time>
      </trkpt>
      <trkpt lat="42.654839" lon="-2.76892">
        <ele>664.321</ele>
        <time>2021-10-22T13:14:26Z</time>
      </trkpt>
      <trkpt lat="42.65494" lon="-2.769">
        <ele>664.003</ele>
        <time>2021-10-22T13:14:27Z</time>
      </trkpt>
      <trkpt lat="42.654999" lon="-2.769052">
        <ele>667.008</ele>
        <time>2021-10-22T13:14:28Z</time>
      </trkpt>
      <trkpt lat="42.655038" lon="-2.769092">
        <ele>650.669</ele>
        <time>2021-10-22T13:14:29Z</time>
      </trkpt>
      <trkpt lat="42.65507" lon="-2.769145">
        <ele>633.858</ele>
        <time>2021-10-22T13:14:32Z</time>
      </trkpt>
      <trkpt lat="42.655086" lon="-2.769211">
        <ele>616.831</ele>
        <time>2021-10-22T13:14:36Z</time>
      </trkpt>
      <trkpt lat="42.655103" lon="-2.769271">
        <ele>600.994</ele>
        <time>2021-10-22T13:14:40Z</time>
      </trkpt>
      <trkpt lat="42.655141" lon="-2.769323">
        <ele>619.034</ele>
        <time>2021-10-22T13:14:44Z</time>
      </trkpt>
      <trkpt lat="42.655151" lon="-2.76939">
        <ele>602.340</ele>
        <time>2021-10-22T13:14:49Z</time>
      </trkpt>
      <trkpt lat="42.655141" lon="-2.769453">
        <ele>586.430</ele>
        <time>2021-10-22T13:14:53Z</time>
      </trkpt>
      <trkpt lat="42.65511" lon="-2.769499">
        <ele>577.264</ele>
        <time>2021-10-22T13:14:58Z</time>
      </trkpt>
      <trkpt lat="42.655068" lon="-2.769531">
        <ele>581.151</ele>
        <time>2021-10-22T13:15:01Z</time>
      </trkpt>
      <trkpt lat="42.655026" lon="-2.769577">
        <ele>573.301</ele>
        <time>2021-10-22T13:15:06Z</time>
      </trkpt>
      <trkpt lat="42.654981" lon="-2.769611">
        <ele>561.811</ele>
        <time>2021-10-22T13:15:09Z</time>
      </trkpt>
      <trkpt lat="42.654936" lon="-2.769622">
        <ele>560.208</ele>
        <time>2021-10-22T13:15:12Z</time>
      </trkpt>
      <trkpt lat="42.654886" lon="-2.769629">
        <ele>556.493</ele>
        <time>2021-10-22T13:15:17Z</time>
      </trkpt>
      <trkpt lat="42.654845" lon="-2.769673">
        <ele>559.472</ele>
        <time>2021-10-22T13:15:22Z</time>
      </trkpt>
      <trkpt lat="42.654831" lon="-2.769734">
        <ele>575.025</ele>
        <time>2021-10-22T13:15:26Z</time>
      </trkpt>
      <trkpt lat="42.654812" lon="-2.769804">
        <ele>593.438</ele>
        <time>2021-10-22T13:15:30Z</time>
      </trkpt>
      <trkpt lat="42.654786" lon="-2.769865">
        <ele>610.668</ele>
        <time>2021-10-22T13:15:33Z</time>
      </trkpt>
      <trkpt lat="42.654763" lon="-2.769928">
        <ele>628.074</ele>
        <time>2021-10-22T13:15:35Z</time>
      </trkpt>
      <trkpt lat="42.65475" lon="-2.769993">
        <ele>611.514</ele>
        <time>2021-10-22T13:15:38Z</time>
      </trkpt>
      <trkpt lat="42.654734" lon="-2.770051">
        <ele>596.428</ele>
        <time>2021-10-22T13:15:40Z</time>
      </trkpt>
      <trkpt lat="42.654711" lon="-2.770106">
        <ele>580.982</ele>
        <time>2021-10-22T13:15:43Z</time>
      </trkpt>
      <trkpt lat="42.654678" lon="-2.770155">
        <ele>583.843</ele>
        <time>2021-10-22T13:15:46Z</time>
      </trkpt>
      <trkpt lat="42.654641" lon="-2.770205">
        <ele>575.717</ele>
        <time>2021-10-22T13:15:49Z</time>
      </trkpt>
      <trkpt lat="42.654617" lon="-2.77026">
        <ele>569.908</ele>
        <time>2021-10-22T13:15:53Z</time>
      </trkpt>
      <trkpt lat="42.654601" lon="-2.770323">
        <ele>577.886</ele>
        <time>2021-10-22T13:15:57Z</time>
      </trkpt>
      <trkpt lat="42.654591" lon="-2.770387">
        <ele>593.925</ele>
        <time>2021-10-22T13:16:00Z</time>
      </trkpt>
      <trkpt lat="42.654566" lon="-2.77044">
        <ele>609.228</ele>
        <time>2021-10-22T13:16:03Z</time>
      </trkpt>
      <trkpt lat="42.65452" lon="-2.77045">
        <ele>605.761</ele>
        <time>2021-10-22T13:16:06Z</time>
      </trkpt>
      <trkpt lat="42.654467" lon="-2.770433">
        <ele>599.551</ele>
        <time>2021-10-22T13:16:08Z</time>
      </trkpt>
      <trkpt lat="42.654414" lon="-2.770395">
        <ele>596.747</ele>
        <time>2021-10-22T13:16:10Z</time>
      </trkpt>
      <trkpt lat="42.654364" lon="-2.770377">
        <ele>606.237</ele>
        <time>2021-10-22T13:16:13Z</time>
      </trkpt>
      <trkpt lat="42.654316" lon="-2.770382">
        <ele>609.951</ele>
        <time>2021-10-22T13:16:16Z</time>
      </trkpt>
      <trkpt lat="42.654268" lon="-2.770408">
        <ele>600.023</ele>
        <time>2021-10-22T13:16:20Z</time>
      </trkpt>
      <trkpt lat="42.654223" lon="-2.770439">
        <ele>593.883</ele>
        <time>2021-10-22T13:16:24Z</time>
      </trkpt>
      <trkpt lat="42.654182" lon="-2.770466">
        <ele>608.811</ele>
        <time>2021-10-22T13:16:27Z</time>
      </trkpt>
      <trkpt lat="42.654133" lon="-2.770464">
        <ele>619.008</ele>
        <time>2021-10-22T13:16:31Z</time>
      </trkpt>
      <trkpt lat="42.654087" lon="-2.77044">
        <ele>610.730</ele>
        <time>2021-10-22T13:16:36Z</time>
      </trkpt>
      <trkpt lat="42.654042" lon="-2.770441">
        <ele>625.859</ele>
        <time>2021-10-22T13:16:40Z</time>
      </trkpt>
      <trkpt lat="42.654" lon="-2.770481">
        <ele>642.912</ele>
        <time>2021-10-22T13:16:45Z</time>
      </trkpt>
      <trkpt lat="42.653992" lon="-2.770542">
        <ele>658.175</ele>
        <time>2021-10-22T13:16:49Z</time>
      </trkpt>
      <trkpt lat="42.653974" lon="-2.770604">
        <ele>674.545</ele>
        <time>2021-10-22T13:16:52Z</time>
      </trkpt>
      <trkpt lat="42.653969" lon="-2.770676">
        <ele>692.311</ele>
        <time>2021-10-22T13:16:56Z</time>
      </trkpt>
      <trkpt lat="42.653964" lon="-2.770746">
        <ele>709.751</ele>
        <time>2021-10-22T13:16:59Z</time>
      </trkpt>
      <trkpt lat="42.653958" lon="-2.770816">
        <ele>727.035</ele>
        <time>2021-10-22T13:17:03Z</time>
      </trkpt>
      <trkpt lat="42.653939" lon="-2.770882">
        <ele>744.515</ele>
        <time>2021-10-22T13:17:07Z</time>
      </trkpt>
      <trkpt lat="42.653923" lon="-2.770939">
        <ele>743.165</ele>
        <time>2021-10-22T13:17:11Z</time>
      </trkpt>
      <trkpt lat="42.653904" lon="-2.771">
        <ele>727.011</ele>
        <time>2021-10-22T13:17:14Z</time>
      </trkpt>
      <trkpt lat="42.653883" lon="-2.771057">
        <ele>711.408</ele>
        <time>2021-10-22T13:17:17Z</time>
      </trkpt>
      <trkpt lat="42.65386" lon="-2.771114">
        <ele>695.369</ele>
        <time>2021-10-22T13:17:20Z</time>
      </trkpt>
      <trkpt lat="42.653837" lon="-2.771176">
        <ele>683.028</ele>
        <time>2021-10-22T13:17:24Z</time>
      </trkpt>
      <trkpt lat="42.653836" lon="-2.771242">
        <ele>672.371</ele>
        <time>2021-10-22T13:17:28Z</time>
      </trkpt>
      <trkpt lat="42.653879" lon="-2.771276">
        <ele>666.854</ele>
        <time>2021-10-22T13:17:32Z</time>
      </trkpt>
      <trkpt lat="42.653919" lon="-2.771307">
        <ele>669.744</ele>
        <time>2021-10-22T13:17:35Z</time>
      </trkpt>
      <trkpt lat="42.653915" lon="-2.771373">
        <ele>662.620</ele>
        <time>2021-10-22T13:17:39Z</time>
      </trkpt>
      <trkpt lat="42.6539" lon="-2.771433">
        <ele>664.040</ele>
        <time>2021-10-22T13:17:42Z</time>
      </trkpt>
      <trkpt lat="42.653882" lon="-2.771491">
        <ele>661.854</ele>
        <time>2021-10-22T13:17:44Z</time>
      </trkpt>
      <trkpt lat="42.653885" lon="-2.771554">
        <ele>661.692</ele>
        <time>2021-10-22T13:17:49Z</time>
      </trkpt>
      <trkpt lat="42.653925" lon="-2.771592">
        <ele>678.173</ele>
        <time>2021-10-22T13:17:55Z</time>
      </trkpt>
      <trkpt lat="42.653913" lon="-2.771662">
        <ele>660.420</ele>
        <time>2021-10-22T13:18:01Z</time>
      </trkpt>
      <trkpt lat="42.653913" lon="-2.771744">
        <ele>640.208</ele>
        <time>2021-10-22T13:18:04Z</time>
      </trkpt>
      <trkpt lat="42.65393" lon="-2.771802">
        <ele>624.817</ele>
        <time>2021-10-22T13:18:07Z</time>
      </trkpt>
      <trkpt lat="42.653959" lon="-2.771849">
        <ele>609.816</ele>
        <time>2021-10-22T13:18:19Z</time>
      </trkpt>
      <trkpt lat="42.653984" lon="-2.771905">
        <ele>593.719</ele>
        <time>2021-10-22T13:18:23Z</time>
      </trkpt>
      <trkpt lat="42.653998" lon="-2.771975">
        <ele>595.552</ele>
        <time>2021-10-22T13:18:27Z</time>
      </trkpt>
      <trkpt lat="42.653998" lon="-2.772042">
        <ele>593.272</ele>
        <time>2021-10-22T13:18:30Z</time>
      </trkpt>
      <trkpt lat="42.653987" lon="-2.772106">
        <ele>598.198</ele>
        <time>2021-10-22T13:18:34Z</time>
      </trkpt>
      <trkpt lat="42.653973" lon="-2.772167">
        <ele>610.538</ele>
        <time>2021-10-22T13:18:39Z</time>
      </trkpt>
      <trkpt lat="42.653977" lon="-2.772228">
        <ele>615.042</ele>
        <time>2021-10-22T13:18:44Z</time>
      </trkpt>
      <trkpt lat="42.653986" lon="-2.772292">
        <ele>617.859</ele>
        <time>2021-10-22T13:18:47Z</time>
      </trkpt>
      <trkpt lat="42.653996" lon="-2.772361">
        <ele>600.603</ele>
        <time>2021-10-22T13:18:51Z</time>
      </trkpt>
      <trkpt lat="42.654016" lon="-2.77243">
        <ele>582.423</ele>
        <time>2021-10-22T13:18:54Z</time>
      </trkpt>
      <trkpt lat="42.654046" lon="-2.772486">
        <ele>565.308</ele>
        <time>2021-10-22T13:18:56Z</time>
      </trkpt>
      <trkpt lat="42.654075" lon="-2.772543">
        <ele>552.893</ele>
        <time>2021-10-22T13:18:59Z</time>
      </trkpt>
      <trkpt lat="42.654098" lon="-2.772605">
        <ele>551.412</ele>
        <time>2021-10-22T13:19:03Z</time>
      </trkpt>
      <trkpt lat="42.654087" lon="-2.772668">
        <ele>552.655</ele>
        <time>2021-10-22T13:19:09Z</time>
      </trkpt>
      <trkpt lat="42.65405" lon="-2.772718">
        <ele>570.278</ele>
        <time>2021-10-22T13:19:13Z</time>
      </trkpt>
      <trkpt lat="42.654034" lon="-2.772775">
        <ele>573.388</ele>
        <time>2021-10-22T13:19:17Z</time>
      </trkpt>
      <trkpt lat="42.654048" lon="-2.772837">
        <ele>579.474</ele>
        <time>2021-10-22T13:19:22Z</time>
      </trkpt>
      <trkpt lat="42.654102" lon="-2.772877">
        <ele>572.044</ele>
        <time>2021-10-22T13:19:25Z</time>
      </trkpt>
      <trkpt lat="42.654149" lon="-2.772912">
        <ele>579.838</ele>
        <time>2021-10-22T13:19:29Z</time>
      </trkpt>
      <trkpt lat="42.654175" lon="-2.772963">
        <ele>580.296</ele>
        <time>2021-10-22T13:19:36Z</time>
      </trkpt>
      <trkpt lat="42.654168" lon="-2.773028">
        <ele>596.331</ele>
        <time>2021-10-22T13:19:43Z</time>
      </trkpt>
      <trkpt lat="42.654167" lon="-2.773093">
        <ele>612.324</ele>
        <time>2021-10-22T13:19:46Z</time>
      </trkpt>
      <trkpt lat="42.654177" lon="-2.773156">
        <ele>628.108</ele>
        <time>2021-10-22T13:19:50Z</time>
      </trkpt>
      <trkpt lat="42.654212" lon="-2.773211">
        <ele>646.017</ele>
        <time>2021-10-22T13:19:55Z</time>
      </trkpt>
      <trkpt lat="42.65425" lon="-2.773249">
        <ele>661.666</ele>
        <time>2021-10-22T13:20:01Z</time>
      </trkpt>
      <trkpt lat="42.65427" lon="-2.773314">
        <ele>678.949</ele>
        <time>2021-10-22T13:20:05Z</time>
      </trkpt>
      <trkpt lat="42.654283" lon="-2.773381">
        <ele>695.822</ele>
        <time>2021-10-22T13:20:09Z</time>
      </trkpt>
      <trkpt lat="42.654307" lon="-2.773445">
        <ele>713.522</ele>
        <time>2021-10-22T13:20:13Z</time>
      </trkpt>
      <trkpt lat="42.654328" lon="-2.773501">
        <ele>729.058</ele>
        <time>2021-10-22T13:20:15Z</time>
      </trkpt>
      <trkpt lat="42.654343" lon="-2.773565">
        <ele>745.578</ele>
        <time>2021-10-22T13:20:19Z</time>
      </trkpt>
      <trkpt lat="42.654356" lon="-2.77363">
        <ele>755.312</ele>
        <time>2021-10-22T13:20:22Z</time>
      </trkpt>
      <trkpt lat="42.654385" lon="-2.773691">
        <ele>755.869</ele>
        <time>2021-10-22T13:20:25Z</time>
      </trkpt>
      <trkpt lat="42.654407" lon="-2.773749">
        <ele>755.504</ele>
        <time>2021-10-22T13:20:30Z</time>
      </trkpt>
      <trkpt lat="42.654427" lon="-2.773809">
        <ele>755.324</ele>
        <time>2021-10-22T13:20:34Z</time>
      </trkpt>
      <trkpt lat="42.654433" lon="-2.773881">
        <ele>754.708</ele>
        <time>2021-10-22T13:20:38Z</time>
      </trkpt>
      <trkpt lat="42.65441" lon="-2.773942">
        <ele>738.094</ele>
        <time>2021-10-22T13:20:42Z</time>
      </trkpt>
      <trkpt lat="42.65436" lon="-2.773986">
        <ele>718.133</ele>
        <time>2021-10-22T13:20:45Z</time>
      </trkpt>
      <trkpt lat="42.654321" lon="-2.774023">
        <ele>702.156</ele>
        <time>2021-10-22T13:20:47Z</time>
      </trkpt>
      <trkpt lat="42.65429" lon="-2.774071">
        <ele>686.499</ele>
        <time>2021-10-22T13:20:51Z</time>
      </trkpt>
      <trkpt lat="42.65426" lon="-2.774122">
        <ele>670.339</ele>
        <time>2021-10-22T13:20:55Z</time>
      </trkpt>
      <trkpt lat="42.654224" lon="-2.774162">
        <ele>654.895</ele>
        <time>2021-10-22T13:20:59Z</time>
      </trkpt>
      <trkpt lat="42.65419" lon="-2.774202">
        <ele>639.785</ele>
        <time>2021-10-22T13:21:02Z</time>
      </trkpt>
      <trkpt lat="42.654156" lon="-2.774246">
        <ele>640.929</ele>
        <time>2021-10-22T13:21:06Z</time>
      </trkpt>
      <trkpt lat="42.654121" lon="-2.774294">
        <ele>633.132</ele>
        <time>2021-10-22T13:21:10Z</time>
      </trkpt>
      <trkpt lat="42.65409" lon="-2.774342">
        <ele>617.392</ele>
        <time>2021-10-22T13:21:14Z</time>
      </trkpt>
      <trkpt lat="42.654059" lon="-2.774396">
        <ele>627.111</ele>
        <time>2021-10-22T13:21:27Z</time>
      </trkpt>
      <trkpt lat="42.654047" lon="-2.774461">
        <ele>643.408</ele>
        <time>2021-10-22T13:21:33Z</time>
      </trkpt>
      <trkpt lat="42.654029" lon="-2.774526">
        <ele>647.951</ele>
        <time>2021-10-22T13:21:37Z</time>
      </trkpt>
      <trkpt lat="42.653996" lon="-2.774586">
        <ele>629.680</ele>
        <time>2021-10-22T13:21:41Z</time>
      </trkpt>
      <trkpt lat="42.65397" lon="-2.774637">
        <ele>614.223</ele>
        <time>2021-10-22T13:21:44Z</time>
      </trkpt>
      <trkpt lat="42.653952" lon="-2.774704">
        <ele>612.016</ele>
        <time>2021-10-22T13:21:47Z</time>
      </trkpt>
      <trkpt lat="42.653942" lon="-2.77477">
        <ele>626.316</ele>
        <time>2021-10-22T13:21:51Z</time>
      </trkpt>
      <trkpt lat="42.653923" lon="-2.774826">
        <ele>633.742</ele>
        <time>2021-10-22T13:21:54Z</time>
      </trkpt>
      <trkpt lat="42.653893" lon="-2.774878">
        <ele>617.662</ele>
        <time>2021-10-22T13:21:58Z</time>
      </trkpt>
      <trkpt lat="42.653861" lon="-2.774922">
        <ele>616.026</ele>
        <time>2021-10-22T13:22:02Z</time>
      </trkpt>
      <trkpt lat="42.653827" lon="-2.774969">
        <ele>613.491</ele>
        <time>2021-10-22T13:22:05Z</time>
      </trkpt>
      <trkpt lat="42.653793" lon="-2.775018">
        <ele>596.981</ele>
        <time>2021-10-22T13:22:09Z</time>
      </trkpt>
      <trkpt lat="42.653758" lon="-2.775072">
        <ele>590.119</ele>
        <time>2021-10-22T13:22:13Z</time>
      </trkpt>
      <trkpt lat="42.653723" lon="-2.775122">
        <ele>599.108</ele>
        <time>2021-10-22T13:22:16Z</time>
      </trkpt>
      <trkpt lat="42.65369" lon="-2.775165">
        <ele>614.317</ele>
        <time>2021-10-22T13:22:19Z</time>
      </trkpt>
      <trkpt lat="42.653662" lon="-2.775213">
        <ele>608.166</ele>
        <time>2021-10-22T13:22:22Z</time>
      </trkpt>
      <trkpt lat="42.653638" lon="-2.775278">
        <ele>599.839</ele>
        <time>2021-10-22T13:22:26Z</time>
      </trkpt>
      <trkpt lat="42.653622" lon="-2.775343">
        <ele>599.192</ele>
        <time>2021-10-22T13:22:29Z</time>
      </trkpt>
      <trkpt lat="42.65361" lon="-2.775405">
        <ele>597.282</ele>
        <time>2021-10-22T13:22:32Z</time>
      </trkpt>
      <trkpt lat="42.653578" lon="-2.775454">
        <ele>599.528</ele>
        <time>2021-10-22T13:22:36Z</time>
      </trkpt>
      <trkpt lat="42.65353" lon="-2.775446">
        <ele>597.428</ele>
        <time>2021-10-22T13:22:39Z</time>
      </trkpt>
      <trkpt lat="42.653487" lon="-2.775423">
        <ele>589.322</ele>
        <time>2021-10-22T13:22:42Z</time>
      </trkpt>
      <trkpt lat="42.653441" lon="-2.775401">
        <ele>602.457</ele>
        <time>2021-10-22T13:22:46Z</time>
      </trkpt>
      <trkpt lat="42.653393" lon="-2.775389">
        <ele>604.600</ele>
        <time>2021-10-22T13:22:51Z</time>
      </trkpt>
      <trkpt lat="42.653352" lon="-2.775441">
        <ele>590.420</ele>
        <time>2021-10-22T13:22:56Z</time>
      </trkpt>
      <trkpt lat="42.653331" lon="-2.775498">
        <ele>592.208</ele>
        <time>2021-10-22T13:23:00Z</time>
      </trkpt>
      <trkpt lat="42.653341" lon="-2.775566">
        <ele>575.113</ele>
        <time>2021-10-22T13:23:03Z</time>
      </trkpt>
      <trkpt lat="42.65334" lon="-2.775643">
        <ele>594.042</ele>
        <time>2021-10-22T13:23:06Z</time>
      </trkpt>
      <trkpt lat="42.653325" lon="-2.775705">
        <ele>609.925</ele>
        <time>2021-10-22T13:23:09Z</time>
      </trkpt>
      <trkpt lat="42.653303" lon="-2.775759">
        <ele>613.878</ele>
        <time>2021-10-22T13:23:12Z</time>
      </trkpt>
      <trkpt lat="42.653266" lon="-2.775809">
        <ele>611.758</ele>
        <time>2021-10-22T13:23:15Z</time>
      </trkpt>
      <trkpt lat="42.653237" lon="-2.775856">
        <ele>602.424</ele>
        <time>2021-10-22T13:23:18Z</time>
      </trkpt>
      <trkpt lat="42.653195" lon="-2.775892">
        <ele>596.154</ele>
        <time>2021-10-22T13:23:21Z</time>
      </trkpt>
      <trkpt lat="42.653147" lon="-2.775908">
        <ele>604.588</ele>
        <time>2021-10-22T13:23:25Z</time>
      </trkpt>
      <trkpt lat="42.653102" lon="-2.775943">
        <ele>607.536</ele>
        <time>2021-10-22T13:23:28Z</time>
      </trkpt>
      <trkpt lat="42.653077" lon="-2.776004">
        <ele>604.817</ele>
        <time>2021-10-22T13:23:32Z</time>
      </trkpt>
      <trkpt lat="42.653068" lon="-2.776069">
        <ele>607.318</ele>
        <time>2021-10-22T13:23:35Z</time>
      </trkpt>
      <trkpt lat="42.653049" lon="-2.776128">
        <ele>611.508</ele>
        <time>2021-10-22T13:23:39Z</time>
      </trkpt>
      <trkpt lat="42.653023" lon="-2.776182">
        <ele>617.231</ele>
        <time>2021-10-22T13:23:42Z</time>
      </trkpt>
      <trkpt lat="42.652991" lon="-2.776226">
        <ele>615.980</ele>
        <time>2021-10-22T13:23:46Z</time>
      </trkpt>
      <trkpt lat="42.652949" lon="-2.776257">
        <ele>606.613</ele>
        <time>2021-10-22T13:23:51Z</time>
      </trkpt>
      <trkpt lat="42.652905" lon="-2.776271">
        <ele>621.746</ele>
        <time>2021-10-22T13:23:56Z</time>
      </trkpt>
      <trkpt lat="42.652861" lon="-2.776289">
        <ele>606.386</ele>
        <time>2021-10-22T13:24:01Z</time>
      </trkpt>
      <trkpt lat="42.652819" lon="-2.77631">
        <ele>594.022</ele>
        <time>2021-10-22T13:24:05Z</time>
      </trkpt>
      <trkpt lat="42.652785" lon="-2.776352">
        <ele>609.262</ele>
        <time>2021-10-22T13:24:09Z</time>
      </trkpt>
      <trkpt lat="42.652752" lon="-2.776396">
        <ele>624.716</ele>
        <time>2021-10-22T13:24:12Z</time>
      </trkpt>
      <trkpt lat="42.652722" lon="-2.776456">
        <ele>642.549</ele>
        <time>2021-10-22T13:24:16Z</time>
      </trkpt>
      <trkpt lat="42.65269" lon="-2.776499">
        <ele>657.602</ele>
        <time>2021-10-22T13:24:20Z</time>
      </trkpt>
      <trkpt lat="42.652643" lon="-2.776526">
        <ele>664.122</ele>
        <time>2021-10-22T13:24:59Z</time>
      </trkpt>
      <trkpt lat="42.652597" lon="-2.776543">
        <ele>656.308</ele>
        <time>2021-10-22T13:25:05Z</time>
      </trkpt>
      <trkpt lat="42.652558" lon="-2.776576">
        <ele>662.322</ele>
        <time>2021-10-22T13:25:11Z</time>
      </trkpt>
      <trkpt lat="42.652508" lon="-2.776587">
        <ele>655.951</ele>
        <time>2021-10-22T13:25:16Z</time>
      </trkpt>
      <trkpt lat="42.652459" lon="-2.776589">
        <ele>654.394</ele>
        <time>2021-10-22T13:25:19Z</time>
      </trkpt>
      <trkpt lat="42.652412" lon="-2.776583">
        <ele>651.117</ele>
        <time>2021-10-22T13:25:22Z</time>
      </trkpt>
      <trkpt lat="42.652363" lon="-2.776601">
        <ele>647.947</ele>
        <time>2021-10-22T13:25:24Z</time>
      </trkpt>
      <trkpt lat="42.652316" lon="-2.776625">
        <ele>647.813</ele>
        <time>2021-10-22T13:25:27Z</time>
      </trkpt>
      <trkpt lat="42.652265" lon="-2.776654">
        <ele>653.743</ele>
        <time>2021-10-22T13:25:30Z</time>
      </trkpt>
      <trkpt lat="42.65222" lon="-2.776683">
        <ele>657.217</ele>
        <time>2021-10-22T13:25:33Z</time>
      </trkpt>
      <trkpt lat="42.652154" lon="-2.776693">
        <ele>653.223</ele>
        <time>2021-10-22T13:25:37Z</time>
      </trkpt>
      <trkpt lat="42.652107" lon="-2.776696">
        <ele>658.383</ele>
        <time>2021-10-22T13:25:41Z</time>
      </trkpt>
      <trkpt lat="42.652057" lon="-2.77669">
        <ele>662.311</ele>
        <time>2021-10-22T13:25:43Z</time>
      </trkpt>
      <trkpt lat="42.651999" lon="-2.776699">
        <ele>681.908</ele>
        <time>2021-10-22T13:25:46Z</time>
      </trkpt>
      <trkpt lat="42.651955" lon="-2.776727">
        <ele>698.120</ele>
        <time>2021-10-22T13:25:48Z</time>
      </trkpt>
      <trkpt lat="42.651922" lon="-2.776769">
        <ele>698.159</ele>
        <time>2021-10-22T13:25:52Z</time>
      </trkpt>
      <trkpt lat="42.651885" lon="-2.776807">
        <ele>688.452</ele>
        <time>2021-10-22T13:25:55Z</time>
      </trkpt>
      <trkpt lat="42.651878" lon="-2.77689">
        <ele>692.045</ele>
        <time>2021-10-22T13:25:57Z</time>
      </trkpt>
      <trkpt lat="42.651882" lon="-2.776954">
        <ele>694.825</ele>
        <time>2021-10-22T13:25:59Z</time>
      </trkpt>
      <trkpt lat="42.651896" lon="-2.777014">
        <ele>692.811</ele>
        <time>2021-10-22T13:26:03Z</time>
      </trkpt>
      <trkpt lat="42.651914" lon="-2.777074">
        <ele>698.231</ele>
        <time>2021-10-22T13:26:07Z</time>
      </trkpt>
      <trkpt lat="42.651936" lon="-2.777138">
        <ele>685.075</ele>
        <time>2021-10-22T13:26:11Z</time>
      </trkpt>
      <trkpt lat="42.651928" lon="-2.777206">
        <ele>684.666</ele>
        <time>2021-10-22T13:26:14Z</time>
      </trkpt>
      <trkpt lat="42.651913" lon="-2.777271">
        <ele>699.429</ele>
        <time>2021-10-22T13:26:17Z</time>
      </trkpt>
      <trkpt lat="42.651901" lon="-2.777341">
        <ele>701.421</ele>
        <time>2021-10-22T13:26:22Z</time>
      </trkpt>
      <trkpt lat="42.651893" lon="-2.777405">
        <ele>699.408</ele>
        <time>2021-10-22T13:26:26Z</time>
      </trkpt>
      <trkpt lat="42.651873" lon="-2.77747">
        <ele>685.464</ele>
        <time>2021-10-22T13:26:29Z</time>
      </trkpt>
      <trkpt lat="42.651855" lon="-2.777532">
        <ele>684.283</ele>
        <time>2021-10-22T13:26:34Z</time>
      </trkpt>
      <trkpt lat="42.651824" lon="-2.777582">
        <ele>690.116</ele>
        <time>2021-10-22T13:26:38Z</time>
      </trkpt>
      <trkpt lat="42.651799" lon="-2.777636">
        <ele>702.719</ele>
        <time>2021-10-22T13:26:42Z</time>
      </trkpt>
      <trkpt lat="42.651807" lon="-2.777702">
        <ele>701.429</ele>
        <time>2021-10-22T13:26:46Z</time>
      </trkpt>
      <trkpt lat="42.651809" lon="-2.777781">
        <ele>692.895</ele>
        <time>2021-10-22T13:26:50Z</time>
      </trkpt>
      <trkpt lat="42.651809" lon="-2.777857">
        <ele>684.195</ele>
        <time>2021-10-22T13:26:54Z</time>
      </trkpt>
      <trkpt lat="42.651814" lon="-2.777925">
        <ele>673.919</ele>
        <time>2021-10-22T13:26:58Z</time>
      </trkpt>
      <trkpt lat="42.651814" lon="-2.777989">
        <ele>688.011</ele>
        <time>2021-10-22T13:27:02Z</time>
      </trkpt>
      <trkpt lat="42.651821" lon="-2.778055">
        <ele>693.121</ele>
        <time>2021-10-22T13:27:06Z</time>
      </trkpt>
      <trkpt lat="42.651829" lon="-2.77812">
        <ele>691.403</ele>
        <time>2021-10-22T13:27:10Z</time>
      </trkpt>
      <trkpt lat="42.65182" lon="-2.778181">
        <ele>693.708</ele>
        <time>2021-10-22T13:27:14Z</time>
      </trkpt>
      <trkpt lat="42.651808" lon="-2.778242">
        <ele>694.339</ele>
        <time>2021-10-22T13:27:18Z</time>
      </trkpt>
      <trkpt lat="42.651809" lon="-2.778311">
        <ele>685.688</ele>
        <time>2021-10-22T13:27:23Z</time>
      </trkpt>
      <trkpt lat="42.651789" lon="-2.778376">
        <ele>688.931</ele>
        <time>2021-10-22T13:27:29Z</time>
      </trkpt>
      <trkpt lat="42.651771" lon="-2.778441">
        <ele>688.264</ele>
        <time>2021-10-22T13:27:32Z</time>
      </trkpt>
      <trkpt lat="42.651753" lon="-2.778498">
        <ele>678.384</ele>
        <time>2021-10-22T13:27:39Z</time>
      </trkpt>
      <trkpt lat="42.651784" lon="-2.778546">
        <ele>678.020</ele>
        <time>2021-10-22T13:27:45Z</time>
      </trkpt>
      <trkpt lat="42.651798" lon="-2.778605">
        <ele>662.970</ele>
        <time>2021-10-22T13:27:49Z</time>
      </trkpt>
      <trkpt lat="42.651798" lon="-2.778671">
        <ele>654.744</ele>
        <time>2021-10-22T13:27:53Z</time>
      </trkpt>
      <trkpt lat="42.651803" lon="-2.778736">
        <ele>652.968</ele>
        <time>2021-10-22T13:27:58Z</time>
      </trkpt>
      <trkpt lat="42.651815" lon="-2.778795">
        <ele>651.142</ele>
        <time>2021-10-22T13:28:03Z</time>
      </trkpt>
      <trkpt lat="42.651824" lon="-2.778857">
        <ele>647.626</ele>
        <time>2021-10-22T13:28:07Z</time>
      </trkpt>
      <trkpt lat="42.651816" lon="-2.778929">
        <ele>648.208</ele>
        <time>2021-10-22T13:28:11Z</time>
      </trkpt>
      <trkpt lat="42.651826" lon="-2.778996">
        <ele>646.824</ele>
        <time>2021-10-22T13:28:16Z</time>
      </trkpt>
      <trkpt lat="42.651836" lon="-2.77906">
        <ele>662.843</ele>
        <time>2021-10-22T13:28:20Z</time>
      </trkpt>
      <trkpt lat="42.651853" lon="-2.779128">
        <ele>646.196</ele>
        <time>2021-10-22T13:28:25Z</time>
      </trkpt>
      <trkpt lat="42.651861" lon="-2.779189">
        <ele>644.739</ele>
        <time>2021-10-22T13:28:29Z</time>
      </trkpt>
      <trkpt lat="42.65187" lon="-2.779249">
        <ele>644.939</ele>
        <time>2021-10-22T13:28:33Z</time>
      </trkpt>
      <trkpt lat="42.651886" lon="-2.779311">
        <ele>661.035</ele>
        <time>2021-10-22T13:28:36Z</time>
      </trkpt>
      <trkpt lat="42.651911" lon="-2.779368">
        <ele>661.965</ele>
        <time>2021-10-22T13:28:40Z</time>
      </trkpt>
      <trkpt lat="42.651924" lon="-2.779432">
        <ele>661.789</ele>
        <time>2021-10-22T13:28:45Z</time>
      </trkpt>
      <trkpt lat="42.651929" lon="-2.779505">
        <ele>643.762</ele>
        <time>2021-10-22T13:28:50Z</time>
      </trkpt>
      <trkpt lat="42.651922" lon="-2.779583">
        <ele>640.883</ele>
        <time>2021-10-22T13:28:55Z</time>
      </trkpt>
      <trkpt lat="42.651918" lon="-2.779656">
        <ele>639.411</ele>
        <time>2021-10-22T13:29:00Z</time>
      </trkpt>
      <trkpt lat="42.651907" lon="-2.779717">
        <ele>654.908</ele>
        <time>2021-10-22T13:29:05Z</time>
      </trkpt>
      <trkpt lat="42.65192" lon="-2.779788">
        <ele>656.094</ele>
        <time>2021-10-22T13:29:10Z</time>
      </trkpt>
      <trkpt lat="42.651914" lon="-2.779851">
        <ele>654.753</ele>
        <time>2021-10-22T13:29:14Z</time>
      </trkpt>
      <trkpt lat="42.651904" lon="-2.779912">
        <ele>654.846</ele>
        <time>2021-10-22T13:29:18Z</time>
      </trkpt>
      <trkpt lat="42.651894" lon="-2.779977">
        <ele>655.019</ele>
        <time>2021-10-22T13:29:22Z</time>
      </trkpt>
      <trkpt lat="42.651896" lon="-2.780039">
        <ele>639.819</ele>
        <time>2021-10-22T13:29:25Z</time>
      </trkpt>
      <trkpt lat="42.651904" lon="-2.780106">
        <ele>636.045</ele>
        <time>2021-10-22T13:29:29Z</time>
      </trkpt>
      <trkpt lat="42.651903" lon="-2.780172">
        <ele>652.225</ele>
        <time>2021-10-22T13:29:33Z</time>
      </trkpt>
      <trkpt lat="42.651897" lon="-2.78024">
        <ele>636.879</ele>
        <time>2021-10-22T13:29:37Z</time>
      </trkpt>
      <trkpt lat="42.651899" lon="-2.780305">
        <ele>635.525</ele>
        <time>2021-10-22T13:29:41Z</time>
      </trkpt>
      <trkpt lat="42.651895" lon="-2.780371">
        <ele>651.926</ele>
        <time>2021-10-22T13:29:45Z</time>
      </trkpt>
      <trkpt lat="42.651887" lon="-2.780435">
        <ele>653.008</ele>
        <time>2021-10-22T13:29:49Z</time>
      </trkpt>
      <trkpt lat="42.651863" lon="-2.780492">
        <ele>637.008</ele>
        <time>2021-10-22T13:29:53Z</time>
      </trkpt>
      <trkpt lat="42.651839" lon="-2.780547">
        <ele>651.780</ele>
        <time>2021-10-22T13:29:57Z</time>
      </trkpt>
      <trkpt lat="42.651827" lon="-2.780609">
        <ele>650.369</ele>
        <time>2021-10-22T13:30:01Z</time>
      </trkpt>
      <trkpt lat="42.651804" lon="-2.780669">
        <ele>649.142</ele>
        <time>2021-10-22T13:30:05Z</time>
      </trkpt>
      <trkpt lat="42.651776" lon="-2.780723">
        <ele>647.055</ele>
        <time>2021-10-22T13:30:09Z</time>
      </trkpt>
      <trkpt lat="42.651749" lon="-2.780775">
        <ele>631.485</ele>
        <time>2021-10-22T13:30:13Z</time>
      </trkpt>
      <trkpt lat="42.651728" lon="-2.780844">
        <ele>649.761</ele>
        <time>2021-10-22T13:30:17Z</time>
      </trkpt>
      <trkpt lat="42.651697" lon="-2.780892">
        <ele>665.421</ele>
        <time>2021-10-22T13:30:20Z</time>
      </trkpt>
      <trkpt lat="42.651667" lon="-2.780961">
        <ele>673.495</ele>
        <time>2021-10-22T13:30:25Z</time>
      </trkpt>
      <trkpt lat="42.651658" lon="-2.781022">
        <ele>659.999</ele>
        <time>2021-10-22T13:30:29Z</time>
      </trkpt>
      <trkpt lat="42.651638" lon="-2.781082">
        <ele>659.607</ele>
        <time>2021-10-22T13:30:33Z</time>
      </trkpt>
      <trkpt lat="42.651612" lon="-2.781136">
        <ele>659.527</ele>
        <time>2021-10-22T13:30:37Z</time>
      </trkpt>
      <trkpt lat="42.651575" lon="-2.781173">
        <ele>663.808</ele>
        <time>2021-10-22T13:30:40Z</time>
      </trkpt>
      <trkpt lat="42.651536" lon="-2.781216">
        <ele>663.127</ele>
        <time>2021-10-22T13:30:44Z</time>
      </trkpt>
      <trkpt lat="42.651496" lon="-2.781248">
        <ele>662.726</ele>
        <time>2021-10-22T13:30:48Z</time>
      </trkpt>
      <trkpt lat="42.651459" lon="-2.781286">
        <ele>647.119</ele>
        <time>2021-10-22T13:30:52Z</time>
      </trkpt>
      <trkpt lat="42.651402" lon="-2.781301">
        <ele>627.692</ele>
        <time>2021-10-22T13:30:57Z</time>
      </trkpt>
      <trkpt lat="42.651359" lon="-2.781325">
        <ele>619.972</ele>
        <time>2021-10-22T13:31:01Z</time>
      </trkpt>
      <trkpt lat="42.651307" lon="-2.78132">
        <ele>619.918</ele>
        <time>2021-10-22T13:31:05Z</time>
      </trkpt>
      <trkpt lat="42.651254" lon="-2.78132">
        <ele>620.088</ele>
        <time>2021-10-22T13:31:10Z</time>
      </trkpt>
      <trkpt lat="42.651204" lon="-2.781325">
        <ele>620.012</ele>
        <time>2021-10-22T13:31:15Z</time>
      </trkpt>
      <trkpt lat="42.651156" lon="-2.781342">
        <ele>619.977</ele>
        <time>2021-10-22T13:31:19Z</time>
      </trkpt>
      <trkpt lat="42.651108" lon="-2.781344">
        <ele>619.961</ele>
        <time>2021-10-22T13:31:23Z</time>
      </trkpt>
      <trkpt lat="42.651059" lon="-2.781354">
        <ele>620.027</ele>
        <time>2021-10-22T13:31:27Z</time>
      </trkpt>
      <trkpt lat="42.651012" lon="-2.78136">
        <ele>619.908</ele>
        <time>2021-10-22T13:31:31Z</time>
      </trkpt>
      <trkpt lat="42.650969" lon="-2.781394">
        <ele>619.985</ele>
        <time>2021-10-22T13:31:36Z</time>
      </trkpt>
      <trkpt lat="42.650924" lon="-2.781409">
        <ele>619.934</ele>
        <time>2021-10-22T13:31:40Z</time>
      </trkpt>
      <trkpt lat="42.650883" lon="-2.781372">
        <ele>619.917</ele>
        <time>2021-10-22T13:31:44Z</time>
      </trkpt>
      <trkpt lat="42.650836" lon="-2.781395">
        <ele>619.690</ele>
        <time>2021-10-22T13:31:48Z</time>
      </trkpt>
      <trkpt lat="42.650816" lon="-2.781451">
        <ele>619.580</ele>
        <time>2021-10-22T13:31:52Z</time>
      </trkpt>
      <trkpt lat="42.650776" lon="-2.781482">
        <ele>619.466</ele>
        <time>2021-10-22T13:31:56Z</time>
      </trkpt>
      <trkpt lat="42.650802" lon="-2.781536">
        <ele>619.496</ele>
        <time>2021-10-22T13:32:00Z</time>
      </trkpt>
      <trkpt lat="42.650846" lon="-2.781566">
        <ele>619.480</ele>
        <time>2021-10-22T13:32:05Z</time>
      </trkpt>
      <trkpt lat="42.650858" lon="-2.781625">
        <ele>619.473</ele>
        <time>2021-10-22T13:32:09Z</time>
      </trkpt>
      <trkpt lat="42.650899" lon="-2.781671">
        <ele>619.385</ele>
        <time>2021-10-22T13:32:14Z</time>
      </trkpt>
      <trkpt lat="42.650908" lon="-2.781732">
        <ele>619.513</ele>
        <time>2021-10-22T13:32:19Z</time>
      </trkpt>
      <trkpt lat="42.650949" lon="-2.78176">
        <ele>619.608</ele>
        <time>2021-10-22T13:32:23Z</time>
      </trkpt>
      <trkpt lat="42.650976" lon="-2.781813">
        <ele>619.455</ele>
        <time>2021-10-22T13:32:28Z</time>
      </trkpt>
      <trkpt lat="42.651017" lon="-2.781844">
        <ele>619.474</ele>
        <time>2021-10-22T13:32:33Z</time>
      </trkpt>
      <trkpt lat="42.651054" lon="-2.78189">
        <ele>619.527</ele>
        <time>2021-10-22T13:32:38Z</time>
      </trkpt>
      <trkpt lat="42.651066" lon="-2.781953">
        <ele>619.690</ele>
        <time>2021-10-22T13:32:42Z</time>
      </trkpt>
      <trkpt lat="42.651085" lon="-2.782009">
        <ele>619.670</ele>
        <time>2021-10-22T13:32:56Z</time>
      </trkpt>
      <trkpt lat="42.651083" lon="-2.782075">
        <ele>619.666</ele>
        <time>2021-10-22T13:33:00Z</time>
      </trkpt>
      <trkpt lat="42.651073" lon="-2.782135">
        <ele>619.756</ele>
        <time>2021-10-22T13:33:04Z</time>
      </trkpt>
      <trkpt lat="42.651091" lon="-2.782194">
        <ele>619.670</ele>
        <time>2021-10-22T13:33:08Z</time>
      </trkpt>
      <trkpt lat="42.651105" lon="-2.782258">
        <ele>619.723</ele>
        <time>2021-10-22T13:33:13Z</time>
      </trkpt>
      <trkpt lat="42.651116" lon="-2.782324">
        <ele>619.783</ele>
        <time>2021-10-22T13:33:17Z</time>
      </trkpt>
      <trkpt lat="42.651143" lon="-2.782381">
        <ele>619.711</ele>
        <time>2021-10-22T13:33:21Z</time>
      </trkpt>
      <trkpt lat="42.651178" lon="-2.782424">
        <ele>619.708</ele>
        <time>2021-10-22T13:33:25Z</time>
      </trkpt>
      <trkpt lat="42.651208" lon="-2.782472">
        <ele>619.790</ele>
        <time>2021-10-22T13:33:32Z</time>
      </trkpt>
      <trkpt lat="42.651244" lon="-2.78251">
        <ele>619.749</ele>
        <time>2021-10-22T13:33:37Z</time>
      </trkpt>
      <trkpt lat="42.651257" lon="-2.782572">
        <ele>619.722</ele>
        <time>2021-10-22T13:33:41Z</time>
      </trkpt>
      <trkpt lat="42.651254" lon="-2.782635">
        <ele>619.765</ele>
        <time>2021-10-22T13:33:45Z</time>
      </trkpt>
      <trkpt lat="42.651253" lon="-2.782704">
        <ele>619.775</ele>
        <time>2021-10-22T13:33:50Z</time>
      </trkpt>
      <trkpt lat="42.651269" lon="-2.782768">
        <ele>619.881</ele>
        <time>2021-10-22T13:33:55Z</time>
      </trkpt>
      <trkpt lat="42.65128" lon="-2.782833">
        <ele>619.861</ele>
        <time>2021-10-22T13:33:59Z</time>
      </trkpt>
      <trkpt lat="42.65129" lon="-2.782902">
        <ele>619.775</ele>
        <time>2021-10-22T13:34:04Z</time>
      </trkpt>
      <trkpt lat="42.651295" lon="-2.782963">
        <ele>619.793</ele>
        <time>2021-10-22T13:34:08Z</time>
      </trkpt>
      <trkpt lat="42.651316" lon="-2.783024">
        <ele>619.765</ele>
        <time>2021-10-22T13:34:12Z</time>
      </trkpt>
      <trkpt lat="42.651314" lon="-2.783098">
        <ele>618.621</ele>
        <time>2021-10-22T13:34:16Z</time>
      </trkpt>
      <trkpt lat="42.651333" lon="-2.783154">
        <ele>617.308</ele>
        <time>2021-10-22T13:34:20Z</time>
      </trkpt>
      <trkpt lat="42.65131" lon="-2.783216">
        <ele>617.377</ele>
        <time>2021-10-22T13:34:24Z</time>
      </trkpt>
      <trkpt lat="42.651259" lon="-2.783186">
        <ele>617.186</ele>
        <time>2021-10-22T13:35:14Z</time>
      </trkpt>
      <trkpt lat="42.651209" lon="-2.783198">
        <ele>617.159</ele>
        <time>2021-10-22T13:35:17Z</time>
      </trkpt>
      <trkpt lat="42.651172" lon="-2.783237">
        <ele>617.122</ele>
        <time>2021-10-22T13:35:20Z</time>
      </trkpt>
      <trkpt lat="42.651211" lon="-2.783203">
        <ele>617.272</ele>
        <time>2021-10-22T13:37:20Z</time>
      </trkpt>
      <trkpt lat="42.651172" lon="-2.783234">
        <ele>617.168</ele>
        <time>2021-10-22T13:38:14Z</time>
      </trkpt>
      <trkpt lat="42.651134" lon="-2.78327">
        <ele>617.128</ele>
        <time>2021-10-22T13:38:18Z</time>
      </trkpt>
      <trkpt lat="42.651099" lon="-2.783311">
        <ele>617.192</ele>
        <time>2021-10-22T13:38:21Z</time>
      </trkpt>
      <trkpt lat="42.651052" lon="-2.783336">
        <ele>617.256</ele>
        <time>2021-10-22T13:38:25Z</time>
      </trkpt>
      <trkpt lat="42.651" lon="-2.78332">
        <ele>617.159</ele>
        <time>2021-10-22T13:38:29Z</time>
      </trkpt>
      <trkpt lat="42.650956" lon="-2.783301">
        <ele>617.114</ele>
        <time>2021-10-22T13:38:33Z</time>
      </trkpt>
      <trkpt lat="42.650907" lon="-2.783309">
        <ele>617.208</ele>
        <time>2021-10-22T13:38:37Z</time>
      </trkpt>
      <trkpt lat="42.650864" lon="-2.783342">
        <ele>617.243</ele>
        <time>2021-10-22T13:38:41Z</time>
      </trkpt>
      <trkpt lat="42.650817" lon="-2.783337">
        <ele>617.352</ele>
        <time>2021-10-22T13:38:45Z</time>
      </trkpt>
      <trkpt lat="42.650771" lon="-2.78331">
        <ele>617.385</ele>
        <time>2021-10-22T13:38:50Z</time>
      </trkpt>
      <trkpt lat="42.65074" lon="-2.783357">
        <ele>617.368</ele>
        <time>2021-10-22T13:38:55Z</time>
      </trkpt>
      <trkpt lat="42.650694" lon="-2.783362">
        <ele>617.178</ele>
        <time>2021-10-22T13:39:01Z</time>
      </trkpt>
      <trkpt lat="42.650648" lon="-2.783339">
        <ele>617.274</ele>
        <time>2021-10-22T13:39:05Z</time>
      </trkpt>
      <trkpt lat="42.650606" lon="-2.783313">
        <ele>617.114</ele>
        <time>2021-10-22T13:39:09Z</time>
      </trkpt>
      <trkpt lat="42.650564" lon="-2.783279">
        <ele>617.448</ele>
        <time>2021-10-22T13:39:14Z</time>
      </trkpt>
      <trkpt lat="42.650516" lon="-2.783264">
        <ele>617.497</ele>
        <time>2021-10-22T13:39:19Z</time>
      </trkpt>
      <trkpt lat="42.650477" lon="-2.783233">
        <ele>617.323</ele>
        <time>2021-10-22T13:39:23Z</time>
      </trkpt>
      <trkpt lat="42.650436" lon="-2.7832">
        <ele>618.225</ele>
        <time>2021-10-22T13:39:28Z</time>
      </trkpt>
      <trkpt lat="42.650387" lon="-2.783173">
        <ele>618.408</ele>
        <time>2021-10-22T13:39:32Z</time>
      </trkpt>
      <trkpt lat="42.650337" lon="-2.783181">
        <ele>618.777</ele>
        <time>2021-10-22T13:39:36Z</time>
      </trkpt>
      <trkpt lat="42.650298" lon="-2.783214">
        <ele>619.086</ele>
        <time>2021-10-22T13:39:40Z</time>
      </trkpt>
      <trkpt lat="42.650246" lon="-2.783217">
        <ele>619.059</ele>
        <time>2021-10-22T13:39:45Z</time>
      </trkpt>
      <trkpt lat="42.650289" lon="-2.783248">
        <ele>619.422</ele>
        <time>2021-10-22T13:40:02Z</time>
      </trkpt>
      <trkpt lat="42.650304" lon="-2.783316">
        <ele>619.692</ele>
        <time>2021-10-22T13:40:06Z</time>
      </trkpt>
      <trkpt lat="42.650328" lon="-2.783378">
        <ele>619.888</ele>
        <time>2021-10-22T13:40:10Z</time>
      </trkpt>
      <trkpt lat="42.650345" lon="-2.783439">
        <ele>620.068</ele>
        <time>2021-10-22T13:40:14Z</time>
      </trkpt>
      <trkpt lat="42.650376" lon="-2.783484">
        <ele>619.952</ele>
        <time>2021-10-22T13:40:18Z</time>
      </trkpt>
      <trkpt lat="42.650424" lon="-2.78352">
        <ele>619.949</ele>
        <time>2021-10-22T13:40:23Z</time>
      </trkpt>
      <trkpt lat="42.650472" lon="-2.78354">
        <ele>619.802</ele>
        <time>2021-10-22T13:40:27Z</time>
      </trkpt>
      <trkpt lat="42.650518" lon="-2.783554">
        <ele>619.422</ele>
        <time>2021-10-22T13:40:31Z</time>
      </trkpt>
      <trkpt lat="42.650561" lon="-2.783572">
        <ele>619.208</ele>
        <time>2021-10-22T13:40:35Z</time>
      </trkpt>
      <trkpt lat="42.650609" lon="-2.783586">
        <ele>618.892</ele>
        <time>2021-10-22T13:40:42Z</time>
      </trkpt>
      <trkpt lat="42.650651" lon="-2.783614">
        <ele>617.921</ele>
        <time>2021-10-22T13:40:46Z</time>
      </trkpt>
      <trkpt lat="42.65068" lon="-2.783668">
        <ele>617.534</ele>
        <time>2021-10-22T13:41:09Z</time>
      </trkpt>
      <trkpt lat="42.650701" lon="-2.783724">
        <ele>617.327</ele>
        <time>2021-10-22T13:41:13Z</time>
      </trkpt>
      <trkpt lat="42.650734" lon="-2.783781">
        <ele>617.247</ele>
        <time>2021-10-22T13:41:18Z</time>
      </trkpt>
      <trkpt lat="42.650774" lon="-2.783812">
        <ele>618.483</ele>
        <time>2021-10-22T13:41:22Z</time>
      </trkpt>
      <trkpt lat="42.650821" lon="-2.783843">
        <ele>618.323</ele>
        <time>2021-10-22T13:41:27Z</time>
      </trkpt>
      <trkpt lat="42.650861" lon="-2.783891">
        <ele>619.267</ele>
        <time>2021-10-22T13:41:32Z</time>
      </trkpt>
      <trkpt lat="42.650897" lon="-2.783928">
        <ele>619.427</ele>
        <time>2021-10-22T13:41:36Z</time>
      </trkpt>
      <trkpt lat="42.650934" lon="-2.783965">
        <ele>619.468</ele>
        <time>2021-10-22T13:41:40Z</time>
      </trkpt>
      <trkpt lat="42.650978" lon="-2.784017">
        <ele>619.314</ele>
        <time>2021-10-22T13:41:45Z</time>
      </trkpt>
      <trkpt lat="42.651013" lon="-2.784062">
        <ele>619.308</ele>
        <time>2021-10-22T13:41:50Z</time>
      </trkpt>
      <trkpt lat="42.651054" lon="-2.784103">
        <ele>619.760</ele>
        <time>2021-10-22T13:41:54Z</time>
      </trkpt>
      <trkpt lat="42.651088" lon="-2.784155">
        <ele>619.959</ele>
        <time>2021-10-22T13:41:58Z</time>
      </trkpt>
      <trkpt lat="42.65112" lon="-2.784207">
        <ele>619.992</ele>
        <time>2021-10-22T13:42:02Z</time>
      </trkpt>
      <trkpt lat="42.651151" lon="-2.784264">
        <ele>619.915</ele>
        <time>2021-10-22T13:42:06Z</time>
      </trkpt>
      <trkpt lat="42.651188" lon="-2.784327">
        <ele>619.875</ele>
        <time>2021-10-22T13:42:10Z</time>
      </trkpt>
      <trkpt lat="42.651219" lon="-2.784372">
        <ele>619.911</ele>
        <time>2021-10-22T13:42:14Z</time>
      </trkpt>
      <trkpt lat="42.651259" lon="-2.784424">
        <ele>620.061</ele>
        <time>2021-10-22T13:42:18Z</time>
      </trkpt>
      <trkpt lat="42.651294" lon="-2.784478">
        <ele>620.025</ele>
        <time>2021-10-22T13:42:22Z</time>
      </trkpt>
      <trkpt lat="42.651325" lon="-2.784526">
        <ele>620.175</ele>
        <time>2021-10-22T13:42:26Z</time>
      </trkpt>
      <trkpt lat="42.651365" lon="-2.784574">
        <ele>620.128</ele>
        <time>2021-10-22T13:42:30Z</time>
      </trkpt>
      <trkpt lat="42.651401" lon="-2.784619">
        <ele>620.120</ele>
        <time>2021-10-22T13:42:34Z</time>
      </trkpt>
      <trkpt lat="42.651441" lon="-2.784666">
        <ele>620.108</ele>
        <time>2021-10-22T13:42:38Z</time>
      </trkpt>
      <trkpt lat="42.651476" lon="-2.784708">
        <ele>620.115</ele>
        <time>2021-10-22T13:42:42Z</time>
      </trkpt>
      <trkpt lat="42.651512" lon="-2.784754">
        <ele>620.124</ele>
        <time>2021-10-22T13:42:46Z</time>
      </trkpt>
      <trkpt lat="42.651547" lon="-2.784797">
        <ele>620.187</ele>
        <time>2021-10-22T13:42:50Z</time>
      </trkpt>
      <trkpt lat="42.651584" lon="-2.784847">
        <ele>620.010</ele>
        <time>2021-10-22T13:42:54Z</time>
      </trkpt>
      <trkpt lat="42.651621" lon="-2.784902">
        <ele>601.780</ele>
        <time>2021-10-22T13:42:58Z</time>
      </trkpt>
      <trkpt lat="42.651652" lon="-2.784958">
        <ele>603.786</ele>
        <time>2021-10-22T13:43:02Z</time>
      </trkpt>
      <trkpt lat="42.651685" lon="-2.785007">
        <ele>603.396</ele>
        <time>2021-10-22T13:43:06Z</time>
      </trkpt>
      <trkpt lat="42.651722" lon="-2.785047">
        <ele>602.190</ele>
        <time>2021-10-22T13:43:10Z</time>
      </trkpt>
      <trkpt lat="42.65176" lon="-2.785089">
        <ele>602.044</ele>
        <time>2021-10-22T13:43:14Z</time>
      </trkpt>
      <trkpt lat="42.65179" lon="-2.785143">
        <ele>601.205</ele>
        <time>2021-10-22T13:43:18Z</time>
      </trkpt>
      <trkpt lat="42.651821" lon="-2.785189">
        <ele>600.215</ele>
        <time>2021-10-22T13:43:22Z</time>
      </trkpt>
      <trkpt lat="42.65186" lon="-2.785234">
        <ele>602.608</ele>
        <time>2021-10-22T13:43:26Z</time>
      </trkpt>
      <trkpt lat="42.651892" lon="-2.785287">
        <ele>598.952</ele>
        <time>2021-10-22T13:43:29Z</time>
      </trkpt>
      <trkpt lat="42.651922" lon="-2.785334">
        <ele>599.021</ele>
        <time>2021-10-22T13:43:32Z</time>
      </trkpt>
      <trkpt lat="42.65196" lon="-2.785388">
        <ele>598.864</ele>
        <time>2021-10-22T13:43:36Z</time>
      </trkpt>
      <trkpt lat="42.651986" lon="-2.785438">
        <ele>597.157</ele>
        <time>2021-10-22T13:43:40Z</time>
      </trkpt>
      <trkpt lat="42.652009" lon="-2.785496">
        <ele>599.147</ele>
        <time>2021-10-22T13:43:44Z</time>
      </trkpt>
      <trkpt lat="42.652037" lon="-2.785543">
        <ele>598.873</ele>
        <time>2021-10-22T13:43:48Z</time>
      </trkpt>
      <trkpt lat="42.652068" lon="-2.785593">
        <ele>598.553</ele>
        <time>2021-10-22T13:43:52Z</time>
      </trkpt>
      <trkpt lat="42.652095" lon="-2.785656">
        <ele>598.147</ele>
        <time>2021-10-22T13:43:57Z</time>
      </trkpt>
      <trkpt lat="42.652121" lon="-2.785725">
        <ele>598.133</ele>
        <time>2021-10-22T13:44:02Z</time>
      </trkpt>
      <trkpt lat="42.652139" lon="-2.785786">
        <ele>598.023</ele>
        <time>2021-10-22T13:44:06Z</time>
      </trkpt>
      <trkpt lat="42.652155" lon="-2.785845">
        <ele>598.615</ele>
        <time>2021-10-22T13:44:10Z</time>
      </trkpt>
      <trkpt lat="42.652169" lon="-2.78591">
        <ele>596.008</ele>
        <time>2021-10-22T13:44:13Z</time>
      </trkpt>
      <trkpt lat="42.652177" lon="-2.785976">
        <ele>597.581</ele>
        <time>2021-10-22T13:44:17Z</time>
      </trkpt>
      <trkpt lat="42.652186" lon="-2.786039">
        <ele>596.390</ele>
        <time>2021-10-22T13:44:21Z</time>
      </trkpt>
      <trkpt lat="42.652191" lon="-2.786103">
        <ele>596.743</ele>
        <time>2021-10-22T13:44:25Z</time>
      </trkpt>
      <trkpt lat="42.652194" lon="-2.786171">
        <ele>599.696</ele>
        <time>2021-10-22T13:44:28Z</time>
      </trkpt>
      <trkpt lat="42.652206" lon="-2.786237">
        <ele>600.786</ele>
        <time>2021-10-22T13:44:32Z</time>
      </trkpt>
      <trkpt lat="42.652211" lon="-2.786299">
        <ele>600.592</ele>
        <time>2021-10-22T13:44:36Z</time>
      </trkpt>
      <trkpt lat="42.652212" lon="-2.786362">
        <ele>601.472</ele>
        <time>2021-10-22T13:44:39Z</time>
      </trkpt>
      <trkpt lat="42.652218" lon="-2.786439">
        <ele>600.686</ele>
        <time>2021-10-22T13:44:43Z</time>
      </trkpt>
      <trkpt lat="42.652229" lon="-2.7865">
        <ele>600.695</ele>
        <time>2021-10-22T13:44:47Z</time>
      </trkpt>
      <trkpt lat="42.652236" lon="-2.786564">
        <ele>600.649</ele>
        <time>2021-10-22T13:44:50Z</time>
      </trkpt>
      <trkpt lat="42.652245" lon="-2.786637">
        <ele>600.623</ele>
        <time>2021-10-22T13:44:54Z</time>
      </trkpt>
      <trkpt lat="42.652254" lon="-2.786698">
        <ele>600.608</ele>
        <time>2021-10-22T13:44:57Z</time>
      </trkpt>
      <trkpt lat="42.652215" lon="-2.78674">
        <ele>600.757</ele>
        <time>2021-10-22T13:45:07Z</time>
      </trkpt>
      <trkpt lat="42.652198" lon="-2.786804">
        <ele>600.896</ele>
        <time>2021-10-22T13:45:09Z</time>
      </trkpt>
      <trkpt lat="42.652192" lon="-2.786865">
        <ele>600.829</ele>
        <time>2021-10-22T13:45:12Z</time>
      </trkpt>
      <trkpt lat="42.652201" lon="-2.786933">
        <ele>600.862</ele>
        <time>2021-10-22T13:45:15Z</time>
      </trkpt>
      <trkpt lat="42.65222" lon="-2.786997">
        <ele>600.862</ele>
        <time>2021-10-22T13:45:19Z</time>
      </trkpt>
      <trkpt lat="42.65224" lon="-2.787061">
        <ele>600.878</ele>
        <time>2021-10-22T13:45:23Z</time>
      </trkpt>
      <trkpt lat="42.652252" lon="-2.787137">
        <ele>600.968</ele>
        <time>2021-10-22T13:45:27Z</time>
      </trkpt>
      <trkpt lat="42.652258" lon="-2.787198">
        <ele>600.842</ele>
        <time>2021-10-22T13:45:31Z</time>
      </trkpt>
      <trkpt lat="42.652264" lon="-2.787268">
        <ele>602.661</ele>
        <time>2021-10-22T13:45:35Z</time>
      </trkpt>
      <trkpt lat="42.652264" lon="-2.787338">
        <ele>603.221</ele>
        <time>2021-10-22T13:45:39Z</time>
      </trkpt>
      <trkpt lat="42.652269" lon="-2.7874">
        <ele>603.213</ele>
        <time>2021-10-22T13:45:42Z</time>
      </trkpt>
      <trkpt lat="42.652272" lon="-2.787464">
        <ele>603.208</ele>
        <time>2021-10-22T13:45:46Z</time>
      </trkpt>
      <trkpt lat="42.652277" lon="-2.787527">
        <ele>603.334</ele>
        <time>2021-10-22T13:45:50Z</time>
      </trkpt>
      <trkpt lat="42.652279" lon="-2.787592">
        <ele>603.493</ele>
        <time>2021-10-22T13:45:54Z</time>
      </trkpt>
      <trkpt lat="42.652283" lon="-2.787659">
        <ele>603.386</ele>
        <time>2021-10-22T13:45:57Z</time>
      </trkpt>
      <trkpt lat="42.652293" lon="-2.78772">
        <ele>603.399</ele>
        <time>2021-10-22T13:46:01Z</time>
      </trkpt>
      <trkpt lat="42.652302" lon="-2.787782">
        <ele>603.329</ele>
        <time>2021-10-22T13:46:04Z</time>
      </trkpt>
      <trkpt lat="42.652306" lon="-2.787848">
        <ele>603.195</ele>
        <time>2021-10-22T13:46:07Z</time>
      </trkpt>
      <trkpt lat="42.652304" lon="-2.787914">
        <ele>603.045</ele>
        <time>2021-10-22T13:46:11Z</time>
      </trkpt>
      <trkpt lat="42.65232" lon="-2.787983">
        <ele>602.989</ele>
        <time>2021-10-22T13:46:14Z</time>
      </trkpt>
      <trkpt lat="42.65233" lon="-2.788054">
        <ele>603.245</ele>
        <time>2021-10-22T13:46:17Z</time>
      </trkpt>
      <trkpt lat="42.652334" lon="-2.788129">
        <ele>603.347</ele>
        <time>2021-10-22T13:46:21Z</time>
      </trkpt>
      <trkpt lat="42.652341" lon="-2.7882">
        <ele>603.311</ele>
        <time>2021-10-22T13:46:25Z</time>
      </trkpt>
      <trkpt lat="42.652346" lon="-2.788264">
        <ele>603.308</ele>
        <time>2021-10-22T13:46:29Z</time>
      </trkpt>
      <trkpt lat="42.652369" lon="-2.788325">
        <ele>603.242</ele>
        <time>2021-10-22T13:46:32Z</time>
      </trkpt>
      <trkpt lat="42.65238" lon="-2.788388">
        <ele>603.211</ele>
        <time>2021-10-22T13:46:35Z</time>
      </trkpt>
      <trkpt lat="42.652389" lon="-2.788451">
        <ele>603.084</ele>
        <time>2021-10-22T13:46:39Z</time>
      </trkpt>
      <trkpt lat="42.652401" lon="-2.788526">
        <ele>603.097</ele>
        <time>2021-10-22T13:46:42Z</time>
      </trkpt>
      <trkpt lat="42.652414" lon="-2.78859">
        <ele>603.077</ele>
        <time>2021-10-22T13:46:46Z</time>
      </trkpt>
      <trkpt lat="42.652425" lon="-2.78865">
        <ele>603.143</ele>
        <time>2021-10-22T13:46:49Z</time>
      </trkpt>
      <trkpt lat="42.652435" lon="-2.788719">
        <ele>603.183</ele>
        <time>2021-10-22T13:46:52Z</time>
      </trkpt>
      <trkpt lat="42.652438" lon="-2.788784">
        <ele>603.177</ele>
        <time>2021-10-22T13:46:56Z</time>
      </trkpt>
      <trkpt lat="42.65244" lon="-2.788852">
        <ele>603.155</ele>
        <time>2021-10-22T13:47:00Z</time>
      </trkpt>
      <trkpt lat="42.652446" lon="-2.788916">
        <ele>603.207</ele>
        <time>2021-10-22T13:47:03Z</time>
      </trkpt>
      <trkpt lat="42.652449" lon="-2.788977">
        <ele>603.317</ele>
        <time>2021-10-22T13:47:06Z</time>
      </trkpt>
      <trkpt lat="42.652456" lon="-2.789045">
        <ele>603.308</ele>
        <time>2021-10-22T13:47:10Z</time>
      </trkpt>
      <trkpt lat="42.65246" lon="-2.789109">
        <ele>603.223</ele>
        <time>2021-10-22T13:47:13Z</time>
      </trkpt>
      <trkpt lat="42.652466" lon="-2.78918">
        <ele>603.252</ele>
        <time>2021-10-22T13:47:17Z</time>
      </trkpt>
      <trkpt lat="42.652464" lon="-2.789244">
        <ele>603.255</ele>
        <time>2021-10-22T13:47:22Z</time>
      </trkpt>
      <trkpt lat="42.652429" lon="-2.789288">
        <ele>603.248</ele>
        <time>2021-10-22T13:47:27Z</time>
      </trkpt>
      <trkpt lat="42.652379" lon="-2.789296">
        <ele>603.358</ele>
        <time>2021-10-22T13:47:32Z</time>
      </trkpt>
      <trkpt lat="42.652356" lon="-2.789239">
        <ele>603.234</ele>
        <time>2021-10-22T13:47:35Z</time>
      </trkpt>
      <trkpt lat="42.652353" lon="-2.789176">
        <ele>603.164</ele>
        <time>2021-10-22T13:47:38Z</time>
      </trkpt>
      <trkpt lat="42.652357" lon="-2.789109">
        <ele>603.198</ele>
        <time>2021-10-22T13:47:42Z</time>
      </trkpt>
      <trkpt lat="42.652354" lon="-2.789033">
        <ele>602.996</ele>
        <time>2021-10-22T13:47:46Z</time>
      </trkpt>
      <trkpt lat="42.652366" lon="-2.788973">
        <ele>602.931</ele>
        <time>2021-10-22T13:47:49Z</time>
      </trkpt>
      <trkpt lat="42.652369" lon="-2.788903">
        <ele>602.924</ele>
        <time>2021-10-22T13:47:53Z</time>
      </trkpt>
      <trkpt lat="42.65237" lon="-2.788825">
        <ele>603.108</ele>
        <time>2021-10-22T13:47:58Z</time>
      </trkpt>
      <trkpt lat="42.652381" lon="-2.788763">
        <ele>603.127</ele>
        <time>2021-10-22T13:48:02Z</time>
      </trkpt>
      <trkpt lat="42.652389" lon="-2.788698">
        <ele>603.126</ele>
        <time>2021-10-22T13:48:05Z</time>
      </trkpt>
      <trkpt lat="42.652376" lon="-2.788629">
        <ele>603.229</ele>
        <time>2021-10-22T13:48:09Z</time>
      </trkpt>
      <trkpt lat="42.652369" lon="-2.788567">
        <ele>603.332</ele>
        <time>2021-10-22T13:48:12Z</time>
      </trkpt>
      <trkpt lat="42.652376" lon="-2.7885">
        <ele>603.212</ele>
        <time>2021-10-22T13:48:16Z</time>
      </trkpt>
      <trkpt lat="42.652368" lon="-2.78844">
        <ele>603.288</ele>
        <time>2021-10-22T13:48:20Z</time>
      </trkpt>
      <trkpt lat="42.652353" lon="-2.788375">
        <ele>603.298</ele>
        <time>2021-10-22T13:48:24Z</time>
      </trkpt>
      <trkpt lat="42.652332" lon="-2.788306">
        <ele>603.282</ele>
        <time>2021-10-22T13:48:28Z</time>
      </trkpt>
      <trkpt lat="42.652295" lon="-2.788345">
        <ele>603.225</ele>
        <time>2021-10-22T13:48:31Z</time>
      </trkpt>
      <trkpt lat="42.6523" lon="-2.788409">
        <ele>603.226</ele>
        <time>2021-10-22T13:48:34Z</time>
      </trkpt>
      <trkpt lat="42.652304" lon="-2.788471">
        <ele>603.108</ele>
        <time>2021-10-22T13:48:36Z</time>
      </trkpt>
      <trkpt lat="42.652266" lon="-2.788512">
        <ele>603.108</ele>
        <time>2021-10-22T13:48:41Z</time>
      </trkpt>
      <trkpt lat="42.65226" lon="-2.788583">
        <ele>603.170</ele>
        <time>2021-10-22T13:48:45Z</time>
      </trkpt>
      <trkpt lat="42.652272" lon="-2.78865">
        <ele>603.139</ele>
        <time>2021-10-22T13:48:49Z</time>
      </trkpt>
      <trkpt lat="42.65229" lon="-2.788707">
        <ele>603.172</ele>
        <time>2021-10-22T13:48:52Z</time>
      </trkpt>
      <trkpt lat="42.652317" lon="-2.788757">
        <ele>603.195</ele>
        <time>2021-10-22T13:48:56Z</time>
      </trkpt>
      <trkpt lat="42.652331" lon="-2.788821">
        <ele>603.195</ele>
        <time>2021-10-22T13:49:00Z</time>
      </trkpt>
      <trkpt lat="42.65233" lon="-2.788891">
        <ele>603.161</ele>
        <time>2021-10-22T13:49:04Z</time>
      </trkpt>
      <trkpt lat="42.652335" lon="-2.788954">
        <ele>603.131</ele>
        <time>2021-10-22T13:49:08Z</time>
      </trkpt>
      <trkpt lat="42.652345" lon="-2.789023">
        <ele>603.125</ele>
        <time>2021-10-22T13:49:12Z</time>
      </trkpt>
      <trkpt lat="42.652353" lon="-2.789085">
        <ele>587.659</ele>
        <time>2021-10-22T13:49:16Z</time>
      </trkpt>
      <trkpt lat="42.652358" lon="-2.789155">
        <ele>585.203</ele>
        <time>2021-10-22T13:49:20Z</time>
      </trkpt>
      <trkpt lat="42.652368" lon="-2.789218">
        <ele>575.123</ele>
        <time>2021-10-22T13:49:24Z</time>
      </trkpt>
      <trkpt lat="42.652375" lon="-2.789287">
        <ele>575.808</ele>
        <time>2021-10-22T13:49:27Z</time>
      </trkpt>
      <trkpt lat="42.652384" lon="-2.789353">
        <ele>592.453</ele>
        <time>2021-10-22T13:49:31Z</time>
      </trkpt>
      <trkpt lat="42.652399" lon="-2.78942">
        <ele>597.072</ele>
        <time>2021-10-22T13:49:35Z</time>
      </trkpt>
      <trkpt lat="42.652409" lon="-2.789481">
        <ele>596.355</ele>
        <time>2021-10-22T13:49:39Z</time>
      </trkpt>
      <trkpt lat="42.652425" lon="-2.789547">
        <ele>603.248</ele>
        <time>2021-10-22T13:49:42Z</time>
      </trkpt>
      <trkpt lat="42.652434" lon="-2.789612">
        <ele>602.918</ele>
        <time>2021-10-22T13:49:46Z</time>
      </trkpt>
      <trkpt lat="42.652447" lon="-2.789673">
        <ele>602.934</ele>
        <time>2021-10-22T13:49:49Z</time>
      </trkpt>
      <trkpt lat="42.652459" lon="-2.789742">
        <ele>602.934</ele>
        <time>2021-10-22T13:49:53Z</time>
      </trkpt>
      <trkpt lat="42.652473" lon="-2.789804">
        <ele>603.128</ele>
        <time>2021-10-22T13:49:56Z</time>
      </trkpt>
      <trkpt lat="42.652485" lon="-2.789866">
        <ele>603.137</ele>
        <time>2021-10-22T13:50:00Z</time>
      </trkpt>
      <trkpt lat="42.652493" lon="-2.789938">
        <ele>603.149</ele>
        <time>2021-10-22T13:50:03Z</time>
      </trkpt>
      <trkpt lat="42.652497" lon="-2.790007">
        <ele>603.113</ele>
        <time>2021-10-22T13:50:07Z</time>
      </trkpt>
      <trkpt lat="42.652503" lon="-2.790069">
        <ele>603.108</ele>
        <time>2021-10-22T13:50:10Z</time>
      </trkpt>
      <trkpt lat="42.652513" lon="-2.790133">
        <ele>603.141</ele>
        <time>2021-10-22T13:50:13Z</time>
      </trkpt>
      <trkpt lat="42.652522" lon="-2.790199">
        <ele>603.140</ele>
        <time>2021-10-22T13:50:17Z</time>
      </trkpt>
      <trkpt lat="42.652533" lon="-2.790269">
        <ele>603.133</ele>
        <time>2021-10-22T13:50:21Z</time>
      </trkpt>
      <trkpt lat="42.652544" lon="-2.790331">
        <ele>603.156</ele>
        <time>2021-10-22T13:50:24Z</time>
      </trkpt>
      <trkpt lat="42.652558" lon="-2.790401">
        <ele>603.066</ele>
        <time>2021-10-22T13:50:28Z</time>
      </trkpt>
      <trkpt lat="42.652572" lon="-2.790459">
        <ele>602.952</ele>
        <time>2021-10-22T13:50:32Z</time>
      </trkpt>
      <trkpt lat="42.652595" lon="-2.790521">
        <ele>602.942</ele>
        <time>2021-10-22T13:50:36Z</time>
      </trkpt>
      <trkpt lat="42.652616" lon="-2.790584">
        <ele>603.066</ele>
        <time>2021-10-22T13:50:39Z</time>
      </trkpt>
      <trkpt lat="42.652636" lon="-2.790653">
        <ele>603.077</ele>
        <time>2021-10-22T13:50:43Z</time>
      </trkpt>
      <trkpt lat="42.652622" lon="-2.790713">
        <ele>602.961</ele>
        <time>2021-10-22T13:50:47Z</time>
      </trkpt>
      <trkpt lat="42.652588" lon="-2.790758">
        <ele>602.927</ele>
        <time>2021-10-22T13:50:50Z</time>
      </trkpt>
      <trkpt lat="42.652548" lon="-2.790799">
        <ele>602.908</ele>
        <time>2021-10-22T13:50:54Z</time>
      </trkpt>
      <trkpt lat="42.652515" lon="-2.790849">
        <ele>586.385</ele>
        <time>2021-10-22T13:50:57Z</time>
      </trkpt>
      <trkpt lat="42.652489" lon="-2.790901">
        <ele>580.514</ele>
        <time>2021-10-22T13:51:01Z</time>
      </trkpt>
      <trkpt lat="42.652471" lon="-2.790963">
        <ele>581.387</ele>
        <time>2021-10-22T13:51:05Z</time>
      </trkpt>
      <trkpt lat="42.652452" lon="-2.79103">
        <ele>572.230</ele>
        <time>2021-10-22T13:51:08Z</time>
      </trkpt>
      <trkpt lat="42.652462" lon="-2.791111">
        <ele>571.580</ele>
        <time>2021-10-22T13:51:12Z</time>
      </trkpt>
      <trkpt lat="42.652474" lon="-2.791178">
        <ele>571.446</ele>
        <time>2021-10-22T13:51:15Z</time>
      </trkpt>
      <trkpt lat="42.652493" lon="-2.791254">
        <ele>571.136</ele>
        <time>2021-10-22T13:51:18Z</time>
      </trkpt>
      <trkpt lat="42.6525" lon="-2.791323">
        <ele>570.130</ele>
        <time>2021-10-22T13:51:21Z</time>
      </trkpt>
      <trkpt lat="42.652504" lon="-2.791402">
        <ele>571.199</ele>
        <time>2021-10-22T13:51:25Z</time>
      </trkpt>
      <trkpt lat="42.652514" lon="-2.791468">
        <ele>570.507</ele>
        <time>2021-10-22T13:51:29Z</time>
      </trkpt>
      <trkpt lat="42.652526" lon="-2.79153">
        <ele>570.727</ele>
        <time>2021-10-22T13:51:32Z</time>
      </trkpt>
      <trkpt lat="42.652503" lon="-2.791584">
        <ele>571.308</ele>
        <time>2021-10-22T13:51:37Z</time>
      </trkpt>
      <trkpt lat="42.652502" lon="-2.79165">
        <ele>569.737</ele>
        <time>2021-10-22T13:51:40Z</time>
      </trkpt>
      <trkpt lat="42.65271667" lon="-2.79002333">
        <ele>409.0</ele>
        <time>2021-10-22T08:17:50.000Z</time>
      </trkpt>
      <trkpt lat="42.65271667" lon="-2.79002333">
        <ele>569.0</ele>
        <time>2021-10-22T08:17:52.000Z</time>
      </trkpt>
      <trkpt lat="42.65271667" lon="-2.79002333">
        <ele>563.0</ele>
        <time>2021-10-22T08:17:53.000Z</time>
      </trkpt>
      <trkpt lat="42.65238833" lon="-2.791185">
        <ele>556.0</ele>
        <time>2021-10-22T08:17:54.000Z</time>
      </trkpt>
      <trkpt lat="42.65240833" lon="-2.791115">
        <ele>549.0</ele>
        <time>2021-10-22T08:17:55.000Z</time>
      </trkpt>
      <trkpt lat="42.65242833" lon="-2.79105333">
        <ele>542.0</ele>
        <time>2021-10-22T08:17:56.000Z</time>
      </trkpt>
      <trkpt lat="42.65244667" lon="-2.79099333">
        <ele>536.0</ele>
        <time>2021-10-22T08:17:57.000Z</time>
      </trkpt>
      <trkpt lat="42.65246" lon="-2.790935">
        <ele>529.0</ele>
        <time>2021-10-22T08:17:58.000Z</time>
      </trkpt>
      <trkpt lat="42.65247833" lon="-2.79087833">
        <ele>523.0</ele>
        <time>2021-10-22T08:17:59.000Z</time>
      </trkpt>
      <trkpt lat="42.652495" lon="-2.790825">
        <ele>518.0</ele>
        <time>2021-10-22T08:18:00.000Z</time>
      </trkpt>
      <trkpt lat="42.65251333" lon="-2.79077333">
        <ele>512.0</ele>
        <time>2021-10-22T08:18:01.000Z</time>
      </trkpt>
      <trkpt lat="42.652515" lon="-2.79076333">
        <ele>516.0</ele>
        <time>2021-10-22T08:18:02.000Z</time>
      </trkpt>
      <trkpt lat="42.65252" lon="-2.79075">
        <ele>518.0</ele>
        <time>2021-10-22T08:18:03.000Z</time>
      </trkpt>
      <trkpt lat="42.65252167" lon="-2.79074167">
        <ele>521.0</ele>
        <time>2021-10-22T08:18:04.000Z</time>
      </trkpt>
      <trkpt lat="42.65252167" lon="-2.790735">
        <ele>524.0</ele>
        <time>2021-10-22T08:18:05.000Z</time>
      </trkpt>
      <trkpt lat="42.65252333" lon="-2.79072833">
        <ele>527.0</ele>
        <time>2021-10-22T08:18:06.000Z</time>
      </trkpt>
      <trkpt lat="42.65252667" lon="-2.79071833">
        <ele>530.0</ele>
        <time>2021-10-22T08:18:07.000Z</time>
      </trkpt>
      <trkpt lat="42.65253" lon="-2.79070833">
        <ele>532.0</ele>
        <time>2021-10-22T08:18:08.000Z</time>
      </trkpt>
      <trkpt lat="42.65253333" lon="-2.79069667">
        <ele>534.0</ele>
        <time>2021-10-22T08:18:09.000Z</time>
      </trkpt>
      <trkpt lat="42.65253667" lon="-2.79068833">
        <ele>537.0</ele>
        <time>2021-10-22T08:18:10.000Z</time>
      </trkpt>
      <trkpt lat="42.65253833" lon="-2.79068">
        <ele>539.0</ele>
        <time>2021-10-22T08:18:11.000Z</time>
      </trkpt>
      <trkpt lat="42.65254" lon="-2.790675">
        <ele>541.0</ele>
        <time>2021-10-22T08:18:12.000Z</time>
      </trkpt>
      <trkpt lat="42.65254" lon="-2.79067">
        <ele>543.0</ele>
        <time>2021-10-22T08:18:13.000Z</time>
      </trkpt>
      <trkpt lat="42.65254333" lon="-2.79066667">
        <ele>545.0</ele>
        <time>2021-10-22T08:18:14.000Z</time>
      </trkpt>
      <trkpt lat="42.652545" lon="-2.790665">
        <ele>547.0</ele>
        <time>2021-10-22T08:18:15.000Z</time>
      </trkpt>
      <trkpt lat="42.65254833" lon="-2.79066333">
        <ele>549.0</ele>
        <time>2021-10-22T08:18:16.000Z</time>
      </trkpt>
      <trkpt lat="42.65255167" lon="-2.79066167">
        <ele>551.0</ele>
        <time>2021-10-22T08:18:17.000Z</time>
      </trkpt>
      <trkpt lat="42.65255333" lon="-2.79066">
        <ele>552.0</ele>
        <time>2021-10-22T08:18:18.000Z</time>
      </trkpt>
      <trkpt lat="42.65255167" lon="-2.79065833">
        <ele>553.0</ele>
        <time>2021-10-22T08:18:19.000Z</time>
      </trkpt>
      <trkpt lat="42.65255" lon="-2.79065167">
        <ele>555.0</ele>
        <time>2021-10-22T08:18:20.000Z</time>
      </trkpt>
      <trkpt lat="42.65254667" lon="-2.790645">
        <ele>556.0</ele>
        <time>2021-10-22T08:18:21.000Z</time>
      </trkpt>
      <trkpt lat="42.65254333" lon="-2.790635">
        <ele>557.0</ele>
        <time>2021-10-22T08:18:22.000Z</time>
      </trkpt>
      <trkpt lat="42.65254167" lon="-2.79062167">
        <ele>558.0</ele>
        <time>2021-10-22T08:18:23.000Z</time>
      </trkpt>
      <trkpt lat="42.65253667" lon="-2.79061">
        <ele>559.0</ele>
        <time>2021-10-22T08:18:24.000Z</time>
      </trkpt>
      <trkpt lat="42.65253167" lon="-2.79059667">
        <ele>559.0</ele>
        <time>2021-10-22T08:18:25.000Z</time>
      </trkpt>
      <trkpt lat="42.652525" lon="-2.79058667">
        <ele>560.0</ele>
        <time>2021-10-22T08:18:26.000Z</time>
      </trkpt>
      <trkpt lat="42.65252" lon="-2.790575">
        <ele>561.0</ele>
        <time>2021-10-22T08:18:27.000Z</time>
      </trkpt>
      <trkpt lat="42.652515" lon="-2.79055833">
        <ele>562.0</ele>
        <time>2021-10-22T08:18:28.000Z</time>
      </trkpt>
      <trkpt lat="42.65251167" lon="-2.79054167">
        <ele>562.0</ele>
        <time>2021-10-22T08:18:29.000Z</time>
      </trkpt>
      <trkpt lat="42.65250833" lon="-2.79053">
        <ele>563.0</ele>
        <time>2021-10-22T08:18:30.000Z</time>
      </trkpt>
      <trkpt lat="42.652505" lon="-2.790515">
        <ele>564.0</ele>
        <time>2021-10-22T08:18:31.000Z</time>
      </trkpt>
      <trkpt lat="42.65249833" lon="-2.7905">
        <ele>564.0</ele>
        <time>2021-10-22T08:18:32.000Z</time>
      </trkpt>
      <trkpt lat="42.65249167" lon="-2.79048333">
        <ele>565.0</ele>
        <time>2021-10-22T08:18:33.000Z</time>
      </trkpt>
      <trkpt lat="42.652485" lon="-2.79046333">
        <ele>565.0</ele>
        <time>2021-10-22T08:18:34.000Z</time>
      </trkpt>
      <trkpt lat="42.65248" lon="-2.790445">
        <ele>566.0</ele>
        <time>2021-10-22T08:18:35.000Z</time>
      </trkpt>
      <trkpt lat="42.65247333" lon="-2.79043333">
        <ele>566.0</ele>
        <time>2021-10-22T08:18:36.000Z</time>
      </trkpt>
      <trkpt lat="42.65246833" lon="-2.79041833">
        <ele>567.0</ele>
        <time>2021-10-22T08:18:37.000Z</time>
      </trkpt>
      <trkpt lat="42.65246333" lon="-2.79040333">
        <ele>567.0</ele>
        <time>2021-10-22T08:18:38.000Z</time>
      </trkpt>
      <trkpt lat="42.65246" lon="-2.79039167">
        <ele>568.0</ele>
        <time>2021-10-22T08:18:39.000Z</time>
      </trkpt>
      <trkpt lat="42.65245667" lon="-2.79038333">
        <ele>568.0</ele>
        <time>2021-10-22T08:18:40.000Z</time>
      </trkpt>
      <trkpt lat="42.65245333" lon="-2.79037667">
        <ele>568.0</ele>
        <time>2021-10-22T08:18:41.000Z</time>
      </trkpt>
      <trkpt lat="42.65245" lon="-2.79037">
        <ele>569.0</ele>
        <time>2021-10-22T08:18:42.000Z</time>
      </trkpt>
      <trkpt lat="42.65244667" lon="-2.790365">
        <ele>569.0</ele>
        <time>2021-10-22T08:18:43.000Z</time>
      </trkpt>
      <trkpt lat="42.652445" lon="-2.790355">
        <ele>569.0</ele>
        <time>2021-10-22T08:18:44.000Z</time>
      </trkpt>
      <trkpt lat="42.65244333" lon="-2.79034333">
        <ele>570.0</ele>
        <time>2021-10-22T08:18:45.000Z</time>
      </trkpt>
      <trkpt lat="42.65244167" lon="-2.79033">
        <ele>570.0</ele>
        <time>2021-10-22T08:18:46.000Z</time>
      </trkpt>
      <trkpt lat="42.65244" lon="-2.79031667">
        <ele>570.0</ele>
        <time>2021-10-22T08:18:47.000Z</time>
      </trkpt>
      <trkpt lat="42.65243833" lon="-2.79030333">
        <ele>570.0</ele>
        <time>2021-10-22T08:18:48.000Z</time>
      </trkpt>
      <trkpt lat="42.652435" lon="-2.79028833">
        <ele>570.0</ele>
        <time>2021-10-22T08:18:49.000Z</time>
      </trkpt>
      <trkpt lat="42.65243167" lon="-2.79027333">
        <ele>570.0</ele>
        <time>2021-10-22T08:18:50.000Z</time>
      </trkpt>
      <trkpt lat="42.65243" lon="-2.79025833">
        <ele>570.0</ele>
        <time>2021-10-22T08:18:51.000Z</time>
      </trkpt>
      <trkpt lat="42.65242667" lon="-2.79024167">
        <ele>570.0</ele>
        <time>2021-10-22T08:18:52.000Z</time>
      </trkpt>
      <trkpt lat="42.65242333" lon="-2.790225">
        <ele>570.0</ele>
        <time>2021-10-22T08:18:53.000Z</time>
      </trkpt>
      <trkpt lat="42.65242167" lon="-2.79020833">
        <ele>570.0</ele>
        <time>2021-10-22T08:18:54.000Z</time>
      </trkpt>
      <trkpt lat="42.65242" lon="-2.79019333">
        <ele>570.0</ele>
        <time>2021-10-22T08:18:55.000Z</time>
      </trkpt>
      <trkpt lat="42.65242" lon="-2.79017833">
        <ele>570.0</ele>
        <time>2021-10-22T08:18:56.000Z</time>
      </trkpt>
      <trkpt lat="42.65241833" lon="-2.79016333">
        <ele>570.0</ele>
        <time>2021-10-22T08:18:57.000Z</time>
      </trkpt>
      <trkpt lat="42.65241833" lon="-2.79014333">
        <ele>570.0</ele>
        <time>2021-10-22T08:18:58.000Z</time>
      </trkpt>
      <trkpt lat="42.65241833" lon="-2.790125">
        <ele>570.0</ele>
        <time>2021-10-22T08:18:59.000Z</time>
      </trkpt>
      <trkpt lat="42.65241667" lon="-2.79010667">
        <ele>570.0</ele>
        <time>2021-10-22T08:19:00.000Z</time>
      </trkpt>
      <trkpt lat="42.65241333" lon="-2.79008833">
        <ele>570.0</ele>
        <time>2021-10-22T08:19:01.000Z</time>
      </trkpt>
      <trkpt lat="42.65241167" lon="-2.79007">
        <ele>569.0</ele>
        <time>2021-10-22T08:19:02.000Z</time>
      </trkpt>
      <trkpt lat="42.65240833" lon="-2.790055">
        <ele>569.0</ele>
        <time>2021-10-22T08:19:03.000Z</time>
      </trkpt>
      <trkpt lat="42.65240833" lon="-2.79004">
        <ele>569.0</ele>
        <time>2021-10-22T08:19:04.000Z</time>
      </trkpt>
      <trkpt lat="42.652405" lon="-2.79002333">
        <ele>569.0</ele>
        <time>2021-10-22T08:19:05.000Z</time>
      </trkpt>
      <trkpt lat="42.65240333" lon="-2.79000667">
        <ele>569.0</ele>
        <time>2021-10-22T08:19:06.000Z</time>
      </trkpt>
      <trkpt lat="42.65240333" lon="-2.78998833">
        <ele>569.0</ele>
        <time>2021-10-22T08:19:07.000Z</time>
      </trkpt>
      <trkpt lat="42.65240167" lon="-2.78997167">
        <ele>569.0</ele>
        <time>2021-10-22T08:19:08.000Z</time>
      </trkpt>
      <trkpt lat="42.65239833" lon="-2.789955">
        <ele>569.0</ele>
        <time>2021-10-22T08:19:09.000Z</time>
      </trkpt>
      <trkpt lat="42.652395" lon="-2.78993833">
        <ele>569.0</ele>
        <time>2021-10-22T08:19:10.000Z</time>
      </trkpt>
      <trkpt lat="42.65239333" lon="-2.78992333">
        <ele>569.0</ele>
        <time>2021-10-22T08:19:11.000Z</time>
      </trkpt>
      <trkpt lat="42.65239" lon="-2.78990667">
        <ele>569.0</ele>
        <time>2021-10-22T08:19:12.000Z</time>
      </trkpt>
      <trkpt lat="42.65238667" lon="-2.78989">
        <ele>569.0</ele>
        <time>2021-10-22T08:19:13.000Z</time>
      </trkpt>
      <trkpt lat="42.65238333" lon="-2.78987167">
        <ele>569.0</ele>
        <time>2021-10-22T08:19:14.000Z</time>
      </trkpt>
      <trkpt lat="42.65238" lon="-2.789855">
        <ele>569.0</ele>
        <time>2021-10-22T08:19:15.000Z</time>
      </trkpt>
      <trkpt lat="42.652375" lon="-2.78984">
        <ele>569.0</ele>
        <time>2021-10-22T08:19:16.000Z</time>
      </trkpt>
      <trkpt lat="42.65237333" lon="-2.78982167">
        <ele>569.0</ele>
        <time>2021-10-22T08:19:17.000Z</time>
      </trkpt>
      <trkpt lat="42.65237" lon="-2.78980333">
        <ele>569.0</ele>
        <time>2021-10-22T08:19:18.000Z</time>
      </trkpt>
      <trkpt lat="42.652365" lon="-2.78978333">
        <ele>569.0</ele>
        <time>2021-10-22T08:19:19.000Z</time>
      </trkpt>
      <trkpt lat="42.65236167" lon="-2.78976667">
        <ele>569.0</ele>
        <time>2021-10-22T08:19:20.000Z</time>
      </trkpt>
      <trkpt lat="42.65235833" lon="-2.78974833">
        <ele>569.0</ele>
        <time>2021-10-22T08:19:21.000Z</time>
      </trkpt>
      <trkpt lat="42.652355" lon="-2.78973">
        <ele>569.0</ele>
        <time>2021-10-22T08:19:22.000Z</time>
      </trkpt>
      <trkpt lat="42.65235333" lon="-2.78971167">
        <ele>569.0</ele>
        <time>2021-10-22T08:19:23.000Z</time>
      </trkpt>
      <trkpt lat="42.65235333" lon="-2.78969167">
        <ele>569.0</ele>
        <time>2021-10-22T08:19:24.000Z</time>
      </trkpt>
      <trkpt lat="42.65235167" lon="-2.78967333">
        <ele>569.0</ele>
        <time>2021-10-22T08:19:25.000Z</time>
      </trkpt>
      <trkpt lat="42.65235" lon="-2.78965667">
        <ele>569.0</ele>
        <time>2021-10-22T08:19:26.000Z</time>
      </trkpt>
      <trkpt lat="42.65234667" lon="-2.78963833">
        <ele>569.0</ele>
        <time>2021-10-22T08:19:27.000Z</time>
      </trkpt>
      <trkpt lat="42.65234333" lon="-2.78962">
        <ele>569.0</ele>
        <time>2021-10-22T08:19:28.000Z</time>
      </trkpt>
      <trkpt lat="42.65234" lon="-2.78960167">
        <ele>568.0</ele>
        <time>2021-10-22T08:19:29.000Z</time>
      </trkpt>
      <trkpt lat="42.65233667" lon="-2.789585">
        <ele>568.0</ele>
        <time>2021-10-22T08:19:30.000Z</time>
      </trkpt>
      <trkpt lat="42.65233333" lon="-2.78956833">
        <ele>568.0</ele>
        <time>2021-10-22T08:19:31.000Z</time>
      </trkpt>
      <trkpt lat="42.65233167" lon="-2.78955333">
        <ele>568.0</ele>
        <time>2021-10-22T08:19:32.000Z</time>
      </trkpt>
      <trkpt lat="42.65232833" lon="-2.789535">
        <ele>568.0</ele>
        <time>2021-10-22T08:19:33.000Z</time>
      </trkpt>
      <trkpt lat="42.652325" lon="-2.78951667">
        <ele>568.0</ele>
        <time>2021-10-22T08:19:34.000Z</time>
      </trkpt>
      <trkpt lat="42.65232333" lon="-2.78949667">
        <ele>568.0</ele>
        <time>2021-10-22T08:19:35.000Z</time>
      </trkpt>
      <trkpt lat="42.65232167" lon="-2.78948">
        <ele>568.0</ele>
        <time>2021-10-22T08:19:36.000Z</time>
      </trkpt>
      <trkpt lat="42.65232" lon="-2.78946333">
        <ele>568.0</ele>
        <time>2021-10-22T08:19:37.000Z</time>
      </trkpt>
      <trkpt lat="42.65231833" lon="-2.789445">
        <ele>568.0</ele>
        <time>2021-10-22T08:19:38.000Z</time>
      </trkpt>
      <trkpt lat="42.65231667" lon="-2.78942667">
        <ele>568.0</ele>
        <time>2021-10-22T08:19:39.000Z</time>
      </trkpt>
      <trkpt lat="42.652315" lon="-2.78940833">
        <ele>568.0</ele>
        <time>2021-10-22T08:19:40.000Z</time>
      </trkpt>
      <trkpt lat="42.65231333" lon="-2.78939333">
        <ele>568.0</ele>
        <time>2021-10-22T08:19:41.000Z</time>
      </trkpt>
      <trkpt lat="42.65231333" lon="-2.78937667">
        <ele>568.0</ele>
        <time>2021-10-22T08:19:42.000Z</time>
      </trkpt>
      <trkpt lat="42.65231167" lon="-2.78936">
        <ele>568.0</ele>
        <time>2021-10-22T08:19:43.000Z</time>
      </trkpt>
      <trkpt lat="42.65231" lon="-2.78934">
        <ele>568.0</ele>
        <time>2021-10-22T08:19:44.000Z</time>
      </trkpt>
      <trkpt lat="42.65230833" lon="-2.78932">
        <ele>568.0</ele>
        <time>2021-10-22T08:19:45.000Z</time>
      </trkpt>
      <trkpt lat="42.65230667" lon="-2.78929667">
        <ele>568.0</ele>
        <time>2021-10-22T08:19:46.000Z</time>
      </trkpt>
      <trkpt lat="42.652305" lon="-2.78927333">
        <ele>568.0</ele>
        <time>2021-10-22T08:19:47.000Z</time>
      </trkpt>
      <trkpt lat="42.652305" lon="-2.78925">
        <ele>568.0</ele>
        <time>2021-10-22T08:19:48.000Z</time>
      </trkpt>
      <trkpt lat="42.65230333" lon="-2.78922833">
        <ele>568.0</ele>
        <time>2021-10-22T08:19:49.000Z</time>
      </trkpt>
      <trkpt lat="42.65230167" lon="-2.789205">
        <ele>568.0</ele>
        <time>2021-10-22T08:19:50.000Z</time>
      </trkpt>
      <trkpt lat="42.6523" lon="-2.78918333">
        <ele>568.0</ele>
        <time>2021-10-22T08:19:51.000Z</time>
      </trkpt>
      <trkpt lat="42.65229833" lon="-2.78916333">
        <ele>568.0</ele>
        <time>2021-10-22T08:19:52.000Z</time>
      </trkpt>
      <trkpt lat="42.65229667" lon="-2.78914333">
        <ele>568.0</ele>
        <time>2021-10-22T08:19:53.000Z</time>
      </trkpt>
      <trkpt lat="42.65229333" lon="-2.78912333">
        <ele>568.0</ele>
        <time>2021-10-22T08:19:54.000Z</time>
      </trkpt>
      <trkpt lat="42.65229333" lon="-2.78910167">
        <ele>568.0</ele>
        <time>2021-10-22T08:19:55.000Z</time>
      </trkpt>
      <trkpt lat="42.65229167" lon="-2.78908167">
        <ele>568.0</ele>
        <time>2021-10-22T08:19:56.000Z</time>
      </trkpt>
      <trkpt lat="42.65229" lon="-2.78906167">
        <ele>568.0</ele>
        <time>2021-10-22T08:19:57.000Z</time>
      </trkpt>
      <trkpt lat="42.65228833" lon="-2.78904167">
        <ele>568.0</ele>
        <time>2021-10-22T08:19:58.000Z</time>
      </trkpt>
      <trkpt lat="42.65228833" lon="-2.78901833">
        <ele>568.0</ele>
        <time>2021-10-22T08:19:59.000Z</time>
      </trkpt>
      <trkpt lat="42.65228833" lon="-2.78899667">
        <ele>568.0</ele>
        <time>2021-10-22T08:20:00.000Z</time>
      </trkpt>
      <trkpt lat="42.65228667" lon="-2.78897667">
        <ele>568.0</ele>
        <time>2021-10-22T08:20:01.000Z</time>
      </trkpt>
      <trkpt lat="42.65228833" lon="-2.78895667">
        <ele>568.0</ele>
        <time>2021-10-22T08:20:02.000Z</time>
      </trkpt>
      <trkpt lat="42.65228833" lon="-2.78893833">
        <ele>569.0</ele>
        <time>2021-10-22T08:20:03.000Z</time>
      </trkpt>
      <trkpt lat="42.65228833" lon="-2.78892">
        <ele>569.0</ele>
        <time>2021-10-22T08:20:04.000Z</time>
      </trkpt>
      <trkpt lat="42.65228667" lon="-2.78890167">
        <ele>569.0</ele>
        <time>2021-10-22T08:20:05.000Z</time>
      </trkpt>
      <trkpt lat="42.65228333" lon="-2.78888167">
        <ele>569.0</ele>
        <time>2021-10-22T08:20:06.000Z</time>
      </trkpt>
      <trkpt lat="42.65228333" lon="-2.78886167">
        <ele>569.0</ele>
        <time>2021-10-22T08:20:07.000Z</time>
      </trkpt>
      <trkpt lat="42.65228333" lon="-2.78884333">
        <ele>569.0</ele>
        <time>2021-10-22T08:20:08.000Z</time>
      </trkpt>
      <trkpt lat="42.65228" lon="-2.788825">
        <ele>569.0</ele>
        <time>2021-10-22T08:20:09.000Z</time>
      </trkpt>
      <trkpt lat="42.65227833" lon="-2.788805">
        <ele>569.0</ele>
        <time>2021-10-22T08:20:10.000Z</time>
      </trkpt>
      <trkpt lat="42.65227667" lon="-2.78878667">
        <ele>569.0</ele>
        <time>2021-10-22T08:20:11.000Z</time>
      </trkpt>
      <trkpt lat="42.652275" lon="-2.78876833">
        <ele>569.0</ele>
        <time>2021-10-22T08:20:12.000Z</time>
      </trkpt>
      <trkpt lat="42.65227333" lon="-2.78875167">
        <ele>569.0</ele>
        <time>2021-10-22T08:20:13.000Z</time>
      </trkpt>
      <trkpt lat="42.65227" lon="-2.78873833">
        <ele>569.0</ele>
        <time>2021-10-22T08:20:14.000Z</time>
      </trkpt>
      <trkpt lat="42.65226167" lon="-2.78872667">
        <ele>569.0</ele>
        <time>2021-10-22T08:20:15.000Z</time>
      </trkpt>
      <trkpt lat="42.65225333" lon="-2.788715">
        <ele>569.0</ele>
        <time>2021-10-22T08:20:16.000Z</time>
      </trkpt>
      <trkpt lat="42.652245" lon="-2.78870333">
        <ele>569.0</ele>
        <time>2021-10-22T08:20:17.000Z</time>
      </trkpt>
      <trkpt lat="42.65223667" lon="-2.788685">
        <ele>569.0</ele>
        <time>2021-10-22T08:20:18.000Z</time>
      </trkpt>
      <trkpt lat="42.65223" lon="-2.78866833">
        <ele>569.0</ele>
        <time>2021-10-22T08:20:19.000Z</time>
      </trkpt>
      <trkpt lat="42.65222333" lon="-2.78865167">
        <ele>569.0</ele>
        <time>2021-10-22T08:20:20.000Z</time>
      </trkpt>
      <trkpt lat="42.65222" lon="-2.788635">
        <ele>569.0</ele>
        <time>2021-10-22T08:20:21.000Z</time>
      </trkpt>
      <trkpt lat="42.65221833" lon="-2.78861667">
        <ele>569.0</ele>
        <time>2021-10-22T08:20:22.000Z</time>
      </trkpt>
      <trkpt lat="42.65221833" lon="-2.7886">
        <ele>570.0</ele>
        <time>2021-10-22T08:20:23.000Z</time>
      </trkpt>
      <trkpt lat="42.65221667" lon="-2.78858333">
        <ele>570.0</ele>
        <time>2021-10-22T08:20:24.000Z</time>
      </trkpt>
      <trkpt lat="42.652215" lon="-2.788565">
        <ele>570.0</ele>
        <time>2021-10-22T08:20:25.000Z</time>
      </trkpt>
      <trkpt lat="42.65221333" lon="-2.78855">
        <ele>570.0</ele>
        <time>2021-10-22T08:20:26.000Z</time>
      </trkpt>
      <trkpt lat="42.65221167" lon="-2.78853667">
        <ele>570.0</ele>
        <time>2021-10-22T08:20:27.000Z</time>
      </trkpt>
      <trkpt lat="42.65220833" lon="-2.78851833">
        <ele>570.0</ele>
        <time>2021-10-22T08:20:28.000Z</time>
      </trkpt>
      <trkpt lat="42.65220667" lon="-2.7885">
        <ele>570.0</ele>
        <time>2021-10-22T08:20:29.000Z</time>
      </trkpt>
      <trkpt lat="42.65220167" lon="-2.78848167">
        <ele>570.0</ele>
        <time>2021-10-22T08:20:30.000Z</time>
      </trkpt>
      <trkpt lat="42.65219667" lon="-2.78846333">
        <ele>571.0</ele>
        <time>2021-10-22T08:20:31.000Z</time>
      </trkpt>
      <trkpt lat="42.65219667" lon="-2.78844667">
        <ele>571.0</ele>
        <time>2021-10-22T08:20:32.000Z</time>
      </trkpt>
      <trkpt lat="42.65219333" lon="-2.78843">
        <ele>571.0</ele>
        <time>2021-10-22T08:20:33.000Z</time>
      </trkpt>
      <trkpt lat="42.65219167" lon="-2.788415">
        <ele>571.0</ele>
        <time>2021-10-22T08:20:34.000Z</time>
      </trkpt>
      <trkpt lat="42.65218833" lon="-2.78840333">
        <ele>571.0</ele>
        <time>2021-10-22T08:20:35.000Z</time>
      </trkpt>
      <trkpt lat="42.652185" lon="-2.78839">
        <ele>571.0</ele>
        <time>2021-10-22T08:20:36.000Z</time>
      </trkpt>
      <trkpt lat="42.65218" lon="-2.78837333">
        <ele>571.0</ele>
        <time>2021-10-22T08:20:37.000Z</time>
      </trkpt>
      <trkpt lat="42.652175" lon="-2.78836167">
        <ele>571.0</ele>
        <time>2021-10-22T08:20:38.000Z</time>
      </trkpt>
      <trkpt lat="42.65217" lon="-2.78834667">
        <ele>571.0</ele>
        <time>2021-10-22T08:20:39.000Z</time>
      </trkpt>
      <trkpt lat="42.65216333" lon="-2.78833333">
        <ele>571.0</ele>
        <time>2021-10-22T08:20:40.000Z</time>
      </trkpt>
      <trkpt lat="42.65215667" lon="-2.78831833">
        <ele>571.0</ele>
        <time>2021-10-22T08:20:41.000Z</time>
      </trkpt>
      <trkpt lat="42.65215" lon="-2.78830667">
        <ele>571.0</ele>
        <time>2021-10-22T08:20:42.000Z</time>
      </trkpt>
      <trkpt lat="42.65214167" lon="-2.788295">
        <ele>571.0</ele>
        <time>2021-10-22T08:20:43.000Z</time>
      </trkpt>
      <trkpt lat="42.65213333" lon="-2.78828">
        <ele>571.0</ele>
        <time>2021-10-22T08:20:44.000Z</time>
      </trkpt>
      <trkpt lat="42.652125" lon="-2.78826167">
        <ele>571.0</ele>
        <time>2021-10-22T08:20:45.000Z</time>
      </trkpt>
      <trkpt lat="42.65211833" lon="-2.78824667">
        <ele>571.0</ele>
        <time>2021-10-22T08:20:46.000Z</time>
      </trkpt>
      <trkpt lat="42.65211167" lon="-2.788225">
        <ele>571.0</ele>
        <time>2021-10-22T08:20:47.000Z</time>
      </trkpt>
      <trkpt lat="42.65210833" lon="-2.78821">
        <ele>571.0</ele>
        <time>2021-10-22T08:20:48.000Z</time>
      </trkpt>
      <trkpt lat="42.65210333" lon="-2.78819833">
        <ele>571.0</ele>
        <time>2021-10-22T08:20:49.000Z</time>
      </trkpt>
      <trkpt lat="42.65209833" lon="-2.78818667">
        <ele>571.0</ele>
        <time>2021-10-22T08:20:50.000Z</time>
      </trkpt>
      <trkpt lat="42.65209333" lon="-2.78817667">
        <ele>571.0</ele>
        <time>2021-10-22T08:20:51.000Z</time>
      </trkpt>
      <trkpt lat="42.65208833" lon="-2.78816667">
        <ele>571.0</ele>
        <time>2021-10-22T08:20:52.000Z</time>
      </trkpt>
      <trkpt lat="42.65208333" lon="-2.78815167">
        <ele>571.0</ele>
        <time>2021-10-22T08:20:53.000Z</time>
      </trkpt>
      <trkpt lat="42.65207833" lon="-2.78814">
        <ele>571.0</ele>
        <time>2021-10-22T08:20:54.000Z</time>
      </trkpt>
      <trkpt lat="42.65207333" lon="-2.78812667">
        <ele>571.0</ele>
        <time>2021-10-22T08:20:55.000Z</time>
      </trkpt>
      <trkpt lat="42.65206667" lon="-2.78811333">
        <ele>571.0</ele>
        <time>2021-10-22T08:20:56.000Z</time>
      </trkpt>
      <trkpt lat="42.65206167" lon="-2.78809833">
        <ele>571.0</ele>
        <time>2021-10-22T08:20:57.000Z</time>
      </trkpt>
      <trkpt lat="42.65205333" lon="-2.78808333">
        <ele>571.0</ele>
        <time>2021-10-22T08:20:58.000Z</time>
      </trkpt>
      <trkpt lat="42.65204667" lon="-2.78806833">
        <ele>571.0</ele>
        <time>2021-10-22T08:20:59.000Z</time>
      </trkpt>
      <trkpt lat="42.65203833" lon="-2.78805167">
        <ele>571.0</ele>
        <time>2021-10-22T08:21:00.000Z</time>
      </trkpt>
      <trkpt lat="42.65203" lon="-2.78803667">
        <ele>571.0</ele>
        <time>2021-10-22T08:21:01.000Z</time>
      </trkpt>
      <trkpt lat="42.65202167" lon="-2.78802">
        <ele>571.0</ele>
        <time>2021-10-22T08:21:02.000Z</time>
      </trkpt>
      <trkpt lat="42.652015" lon="-2.78800333">
        <ele>571.0</ele>
        <time>2021-10-22T08:21:03.000Z</time>
      </trkpt>
      <trkpt lat="42.65200667" lon="-2.78798833">
        <ele>571.0</ele>
        <time>2021-10-22T08:21:04.000Z</time>
      </trkpt>
      <trkpt lat="42.652" lon="-2.78797333">
        <ele>571.0</ele>
        <time>2021-10-22T08:21:05.000Z</time>
      </trkpt>
      <trkpt lat="42.65199167" lon="-2.78795833">
        <ele>571.0</ele>
        <time>2021-10-22T08:21:06.000Z</time>
      </trkpt>
      <trkpt lat="42.65198167" lon="-2.78794667">
        <ele>571.0</ele>
        <time>2021-10-22T08:21:07.000Z</time>
      </trkpt>
      <trkpt lat="42.65197167" lon="-2.78793167">
        <ele>571.0</ele>
        <time>2021-10-22T08:21:08.000Z</time>
      </trkpt>
      <trkpt lat="42.65196" lon="-2.78792">
        <ele>571.0</ele>
        <time>2021-10-22T08:21:09.000Z</time>
      </trkpt>
      <trkpt lat="42.65194833" lon="-2.78790667">
        <ele>571.0</ele>
        <time>2021-10-22T08:21:10.000Z</time>
      </trkpt>
      <trkpt lat="42.65193667" lon="-2.787895">
        <ele>571.0</ele>
        <time>2021-10-22T08:21:11.000Z</time>
      </trkpt>
      <trkpt lat="42.651925" lon="-2.78788167">
        <ele>571.0</ele>
        <time>2021-10-22T08:21:12.000Z</time>
      </trkpt>
      <trkpt lat="42.651915" lon="-2.78786833">
        <ele>571.0</ele>
        <time>2021-10-22T08:21:13.000Z</time>
      </trkpt>
      <trkpt lat="42.65190667" lon="-2.78785333">
        <ele>571.0</ele>
        <time>2021-10-22T08:21:14.000Z</time>
      </trkpt>
      <trkpt lat="42.65189833" lon="-2.78783667">
        <ele>570.0</ele>
        <time>2021-10-22T08:21:15.000Z</time>
      </trkpt>
      <trkpt lat="42.65189" lon="-2.78781833">
        <ele>570.0</ele>
        <time>2021-10-22T08:21:16.000Z</time>
      </trkpt>
      <trkpt lat="42.65188167" lon="-2.78780333">
        <ele>570.0</ele>
        <time>2021-10-22T08:21:17.000Z</time>
      </trkpt>
      <trkpt lat="42.65187333" lon="-2.787785">
        <ele>569.0</ele>
        <time>2021-10-22T08:21:18.000Z</time>
      </trkpt>
      <trkpt lat="42.65186667" lon="-2.78776833">
        <ele>569.0</ele>
        <time>2021-10-22T08:21:19.000Z</time>
      </trkpt>
      <trkpt lat="42.65185667" lon="-2.78775333">
        <ele>569.0</ele>
        <time>2021-10-22T08:21:20.000Z</time>
      </trkpt>
      <trkpt lat="42.651845" lon="-2.78774167">
        <ele>568.0</ele>
        <time>2021-10-22T08:21:21.000Z</time>
      </trkpt>
      <trkpt lat="42.651835" lon="-2.787725">
        <ele>568.0</ele>
        <time>2021-10-22T08:21:22.000Z</time>
      </trkpt>
      <trkpt lat="42.65182667" lon="-2.78771">
        <ele>568.0</ele>
        <time>2021-10-22T08:21:23.000Z</time>
      </trkpt>
      <trkpt lat="42.65181667" lon="-2.787695">
        <ele>567.0</ele>
        <time>2021-10-22T08:21:24.000Z</time>
      </trkpt>
      <trkpt lat="42.65181" lon="-2.78767833">
        <ele>567.0</ele>
        <time>2021-10-22T08:21:25.000Z</time>
      </trkpt>
      <trkpt lat="42.65180333" lon="-2.78766">
        <ele>567.0</ele>
        <time>2021-10-22T08:21:26.000Z</time>
      </trkpt>
      <trkpt lat="42.65179833" lon="-2.78764167">
        <ele>566.0</ele>
        <time>2021-10-22T08:21:27.000Z</time>
      </trkpt>
      <trkpt lat="42.65179333" lon="-2.78762333">
        <ele>566.0</ele>
        <time>2021-10-22T08:21:28.000Z</time>
      </trkpt>
      <trkpt lat="42.65178833" lon="-2.787605">
        <ele>566.0</ele>
        <time>2021-10-22T08:21:29.000Z</time>
      </trkpt>
      <trkpt lat="42.651785" lon="-2.78758333">
        <ele>565.0</ele>
        <time>2021-10-22T08:21:30.000Z</time>
      </trkpt>
      <trkpt lat="42.65178167" lon="-2.78756167">
        <ele>565.0</ele>
        <time>2021-10-22T08:21:31.000Z</time>
      </trkpt>
      <trkpt lat="42.65177833" lon="-2.78754">
        <ele>565.0</ele>
        <time>2021-10-22T08:21:32.000Z</time>
      </trkpt>
      <trkpt lat="42.651775" lon="-2.78751833">
        <ele>565.0</ele>
        <time>2021-10-22T08:21:33.000Z</time>
      </trkpt>
      <trkpt lat="42.65177" lon="-2.78749833">
        <ele>564.0</ele>
        <time>2021-10-22T08:21:34.000Z</time>
      </trkpt>
      <trkpt lat="42.65176833" lon="-2.78747833">
        <ele>564.0</ele>
        <time>2021-10-22T08:21:35.000Z</time>
      </trkpt>
      <trkpt lat="42.65176667" lon="-2.78746">
        <ele>564.0</ele>
        <time>2021-10-22T08:21:36.000Z</time>
      </trkpt>
      <trkpt lat="42.65176667" lon="-2.78744">
        <ele>563.0</ele>
        <time>2021-10-22T08:21:37.000Z</time>
      </trkpt>
      <trkpt lat="42.651765" lon="-2.78742167">
        <ele>563.0</ele>
        <time>2021-10-22T08:21:38.000Z</time>
      </trkpt>
      <trkpt lat="42.65176333" lon="-2.78740333">
        <ele>563.0</ele>
        <time>2021-10-22T08:21:39.000Z</time>
      </trkpt>
      <trkpt lat="42.65176167" lon="-2.787385">
        <ele>563.0</ele>
        <time>2021-10-22T08:21:40.000Z</time>
      </trkpt>
      <trkpt lat="42.65176167" lon="-2.78736333">
        <ele>563.0</ele>
        <time>2021-10-22T08:21:41.000Z</time>
      </trkpt>
      <trkpt lat="42.65176" lon="-2.78734333">
        <ele>563.0</ele>
        <time>2021-10-22T08:21:42.000Z</time>
      </trkpt>
      <trkpt lat="42.65176" lon="-2.78732667">
        <ele>562.0</ele>
        <time>2021-10-22T08:21:43.000Z</time>
      </trkpt>
      <trkpt lat="42.65176" lon="-2.78730833">
        <ele>562.0</ele>
        <time>2021-10-22T08:21:44.000Z</time>
      </trkpt>
      <trkpt lat="42.65176" lon="-2.78729167">
        <ele>562.0</ele>
        <time>2021-10-22T08:21:45.000Z</time>
      </trkpt>
      <trkpt lat="42.65176" lon="-2.78727333">
        <ele>562.0</ele>
        <time>2021-10-22T08:21:46.000Z</time>
      </trkpt>
      <trkpt lat="42.65175833" lon="-2.78725667">
        <ele>562.0</ele>
        <time>2021-10-22T08:21:47.000Z</time>
      </trkpt>
      <trkpt lat="42.651755" lon="-2.78724">
        <ele>562.0</ele>
        <time>2021-10-22T08:21:48.000Z</time>
      </trkpt>
      <trkpt lat="42.65175333" lon="-2.78722333">
        <ele>562.0</ele>
        <time>2021-10-22T08:21:49.000Z</time>
      </trkpt>
      <trkpt lat="42.65175" lon="-2.78720667">
        <ele>562.0</ele>
        <time>2021-10-22T08:21:50.000Z</time>
      </trkpt>
      <trkpt lat="42.65174667" lon="-2.78718833">
        <ele>561.0</ele>
        <time>2021-10-22T08:21:51.000Z</time>
      </trkpt>
      <trkpt lat="42.65174667" lon="-2.78717167">
        <ele>561.0</ele>
        <time>2021-10-22T08:21:52.000Z</time>
      </trkpt>
      <trkpt lat="42.651745" lon="-2.787155">
        <ele>561.0</ele>
        <time>2021-10-22T08:21:53.000Z</time>
      </trkpt>
      <trkpt lat="42.65174333" lon="-2.787135">
        <ele>561.0</ele>
        <time>2021-10-22T08:21:54.000Z</time>
      </trkpt>
      <trkpt lat="42.65174167" lon="-2.78711833">
        <ele>561.0</ele>
        <time>2021-10-22T08:21:55.000Z</time>
      </trkpt>
      <trkpt lat="42.65173667" lon="-2.78710167">
        <ele>561.0</ele>
        <time>2021-10-22T08:21:56.000Z</time>
      </trkpt>
      <trkpt lat="42.65173333" lon="-2.787085">
        <ele>561.0</ele>
        <time>2021-10-22T08:21:57.000Z</time>
      </trkpt>
      <trkpt lat="42.65173" lon="-2.78706667">
        <ele>561.0</ele>
        <time>2021-10-22T08:21:58.000Z</time>
      </trkpt>
      <trkpt lat="42.65172667" lon="-2.78704833">
        <ele>560.0</ele>
        <time>2021-10-22T08:21:59.000Z</time>
      </trkpt>
      <trkpt lat="42.65172333" lon="-2.78703">
        <ele>560.0</ele>
        <time>2021-10-22T08:22:00.000Z</time>
      </trkpt>
      <trkpt lat="42.65171833" lon="-2.78701333">
        <ele>560.0</ele>
        <time>2021-10-22T08:22:01.000Z</time>
      </trkpt>
      <trkpt lat="42.65171167" lon="-2.78699667">
        <ele>560.0</ele>
        <time>2021-10-22T08:22:02.000Z</time>
      </trkpt>
      <trkpt lat="42.65170667" lon="-2.786975">
        <ele>560.0</ele>
        <time>2021-10-22T08:22:03.000Z</time>
      </trkpt>
      <trkpt lat="42.65170167" lon="-2.78695667">
        <ele>560.0</ele>
        <time>2021-10-22T08:22:04.000Z</time>
      </trkpt>
      <trkpt lat="42.65169667" lon="-2.78694">
        <ele>560.0</ele>
        <time>2021-10-22T08:22:05.000Z</time>
      </trkpt>
      <trkpt lat="42.65169167" lon="-2.78692333">
        <ele>560.0</ele>
        <time>2021-10-22T08:22:06.000Z</time>
      </trkpt>
      <trkpt lat="42.65168833" lon="-2.78690667">
        <ele>560.0</ele>
        <time>2021-10-22T08:22:07.000Z</time>
      </trkpt>
      <trkpt lat="42.65168333" lon="-2.786895">
        <ele>559.0</ele>
        <time>2021-10-22T08:22:08.000Z</time>
      </trkpt>
      <trkpt lat="42.65168" lon="-2.78687833">
        <ele>559.0</ele>
        <time>2021-10-22T08:22:09.000Z</time>
      </trkpt>
      <trkpt lat="42.65167667" lon="-2.78686167">
        <ele>559.0</ele>
        <time>2021-10-22T08:22:10.000Z</time>
      </trkpt>
      <trkpt lat="42.651675" lon="-2.786845">
        <ele>559.0</ele>
        <time>2021-10-22T08:22:11.000Z</time>
      </trkpt>
      <trkpt lat="42.65167167" lon="-2.78682833">
        <ele>559.0</ele>
        <time>2021-10-22T08:22:12.000Z</time>
      </trkpt>
      <trkpt lat="42.65167" lon="-2.78681333">
        <ele>559.0</ele>
        <time>2021-10-22T08:22:13.000Z</time>
      </trkpt>
      <trkpt lat="42.65166667" lon="-2.786795">
        <ele>559.0</ele>
        <time>2021-10-22T08:22:14.000Z</time>
      </trkpt>
      <trkpt lat="42.65166333" lon="-2.78677833">
        <ele>559.0</ele>
        <time>2021-10-22T08:22:15.000Z</time>
      </trkpt>
      <trkpt lat="42.65165833" lon="-2.78676333">
        <ele>558.0</ele>
        <time>2021-10-22T08:22:16.000Z</time>
      </trkpt>
      <trkpt lat="42.651655" lon="-2.786745">
        <ele>558.0</ele>
        <time>2021-10-22T08:22:17.000Z</time>
      </trkpt>
      <trkpt lat="42.65165167" lon="-2.78672667">
        <ele>558.0</ele>
        <time>2021-10-22T08:22:18.000Z</time>
      </trkpt>
      <trkpt lat="42.65164667" lon="-2.78671">
        <ele>558.0</ele>
        <time>2021-10-22T08:22:19.000Z</time>
      </trkpt>
      <trkpt lat="42.65164" lon="-2.78669333">
        <ele>558.0</ele>
        <time>2021-10-22T08:22:20.000Z</time>
      </trkpt>
      <trkpt lat="42.65163167" lon="-2.78667833">
        <ele>558.0</ele>
        <time>2021-10-22T08:22:21.000Z</time>
      </trkpt>
      <trkpt lat="42.65162667" lon="-2.78666333">
        <ele>558.0</ele>
        <time>2021-10-22T08:22:22.000Z</time>
      </trkpt>
      <trkpt lat="42.65162" lon="-2.78664833">
        <ele>558.0</ele>
        <time>2021-10-22T08:22:23.000Z</time>
      </trkpt>
      <trkpt lat="42.65161333" lon="-2.78663333">
        <ele>558.0</ele>
        <time>2021-10-22T08:22:24.000Z</time>
      </trkpt>
      <trkpt lat="42.65161" lon="-2.78661833">
        <ele>558.0</ele>
        <time>2021-10-22T08:22:25.000Z</time>
      </trkpt>
      <trkpt lat="42.651605" lon="-2.78660167">
        <ele>558.0</ele>
        <time>2021-10-22T08:22:26.000Z</time>
      </trkpt>
      <trkpt lat="42.6516" lon="-2.78658667">
        <ele>558.0</ele>
        <time>2021-10-22T08:22:27.000Z</time>
      </trkpt>
      <trkpt lat="42.65159167" lon="-2.786575">
        <ele>557.0</ele>
        <time>2021-10-22T08:22:28.000Z</time>
      </trkpt>
      <trkpt lat="42.651585" lon="-2.78656333">
        <ele>557.0</ele>
        <time>2021-10-22T08:22:29.000Z</time>
      </trkpt>
      <trkpt lat="42.65157667" lon="-2.78654833">
        <ele>557.0</ele>
        <time>2021-10-22T08:22:30.000Z</time>
      </trkpt>
      <trkpt lat="42.65157" lon="-2.78653333">
        <ele>557.0</ele>
        <time>2021-10-22T08:22:31.000Z</time>
      </trkpt>
      <trkpt lat="42.65156333" lon="-2.78651667">
        <ele>557.0</ele>
        <time>2021-10-22T08:22:32.000Z</time>
      </trkpt>
      <trkpt lat="42.65155833" lon="-2.7865">
        <ele>557.0</ele>
        <time>2021-10-22T08:22:33.000Z</time>
      </trkpt>
      <trkpt lat="42.65155333" lon="-2.786485">
        <ele>557.0</ele>
        <time>2021-10-22T08:22:34.000Z</time>
      </trkpt>
      <trkpt lat="42.65155167" lon="-2.78647">
        <ele>557.0</ele>
        <time>2021-10-22T08:22:35.000Z</time>
      </trkpt>
      <trkpt lat="42.65154833" lon="-2.78645833">
        <ele>557.0</ele>
        <time>2021-10-22T08:22:36.000Z</time>
      </trkpt>
      <trkpt lat="42.65154167" lon="-2.786445">
        <ele>557.0</ele>
        <time>2021-10-22T08:22:37.000Z</time>
      </trkpt>
      <trkpt lat="42.651535" lon="-2.78643167">
        <ele>557.0</ele>
        <time>2021-10-22T08:22:38.000Z</time>
      </trkpt>
      <trkpt lat="42.65152667" lon="-2.78642">
        <ele>557.0</ele>
        <time>2021-10-22T08:22:39.000Z</time>
      </trkpt>
      <trkpt lat="42.65152" lon="-2.78640667">
        <ele>557.0</ele>
        <time>2021-10-22T08:22:40.000Z</time>
      </trkpt>
      <trkpt lat="42.651515" lon="-2.78639">
        <ele>557.0</ele>
        <time>2021-10-22T08:22:41.000Z</time>
      </trkpt>
      <trkpt lat="42.65150833" lon="-2.78637333">
        <ele>557.0</ele>
        <time>2021-10-22T08:22:42.000Z</time>
      </trkpt>
      <trkpt lat="42.65150333" lon="-2.78635667">
        <ele>557.0</ele>
        <time>2021-10-22T08:22:43.000Z</time>
      </trkpt>
      <trkpt lat="42.65149667" lon="-2.78633667">
        <ele>557.0</ele>
        <time>2021-10-22T08:22:44.000Z</time>
      </trkpt>
      <trkpt lat="42.65149167" lon="-2.78632">
        <ele>557.0</ele>
        <time>2021-10-22T08:22:45.000Z</time>
      </trkpt>
      <trkpt lat="42.65148667" lon="-2.786305">
        <ele>556.0</ele>
        <time>2021-10-22T08:22:46.000Z</time>
      </trkpt>
      <trkpt lat="42.65148333" lon="-2.78629">
        <ele>556.0</ele>
        <time>2021-10-22T08:22:47.000Z</time>
      </trkpt>
      <trkpt lat="42.65148" lon="-2.78627333">
        <ele>556.0</ele>
        <time>2021-10-22T08:22:48.000Z</time>
      </trkpt>
      <trkpt lat="42.651475" lon="-2.78626167">
        <ele>556.0</ele>
        <time>2021-10-22T08:22:49.000Z</time>
      </trkpt>
      <trkpt lat="42.65147333" lon="-2.78625">
        <ele>556.0</ele>
        <time>2021-10-22T08:22:50.000Z</time>
      </trkpt>
      <trkpt lat="42.65146833" lon="-2.78623833">
        <ele>556.0</ele>
        <time>2021-10-22T08:22:51.000Z</time>
      </trkpt>
      <trkpt lat="42.65146167" lon="-2.78622333">
        <ele>556.0</ele>
        <time>2021-10-22T08:22:52.000Z</time>
      </trkpt>
      <trkpt lat="42.65145667" lon="-2.78620667">
        <ele>556.0</ele>
        <time>2021-10-22T08:22:53.000Z</time>
      </trkpt>
      <trkpt lat="42.65145" lon="-2.78619">
        <ele>555.0</ele>
        <time>2021-10-22T08:22:54.000Z</time>
      </trkpt>
      <trkpt lat="42.651445" lon="-2.786175">
        <ele>555.0</ele>
        <time>2021-10-22T08:22:55.000Z</time>
      </trkpt>
      <trkpt lat="42.65144333" lon="-2.78615833">
        <ele>555.0</ele>
        <time>2021-10-22T08:22:56.000Z</time>
      </trkpt>
      <trkpt lat="42.65144333" lon="-2.78614667">
        <ele>555.0</ele>
        <time>2021-10-22T08:22:57.000Z</time>
      </trkpt>
      <trkpt lat="42.65144" lon="-2.786135">
        <ele>555.0</ele>
        <time>2021-10-22T08:22:58.000Z</time>
      </trkpt>
      <trkpt lat="42.651435" lon="-2.786125">
        <ele>555.0</ele>
        <time>2021-10-22T08:22:59.000Z</time>
      </trkpt>
      <trkpt lat="42.65142833" lon="-2.786115">
        <ele>555.0</ele>
        <time>2021-10-22T08:23:00.000Z</time>
      </trkpt>
      <trkpt lat="42.65142" lon="-2.78610167">
        <ele>555.0</ele>
        <time>2021-10-22T08:23:01.000Z</time>
      </trkpt>
      <trkpt lat="42.651415" lon="-2.78608167">
        <ele>555.0</ele>
        <time>2021-10-22T08:23:02.000Z</time>
      </trkpt>
      <trkpt lat="42.65141" lon="-2.786065">
        <ele>555.0</ele>
        <time>2021-10-22T08:23:03.000Z</time>
      </trkpt>
      <trkpt lat="42.65140333" lon="-2.78604667">
        <ele>555.0</ele>
        <time>2021-10-22T08:23:04.000Z</time>
      </trkpt>
      <trkpt lat="42.6514" lon="-2.78602833">
        <ele>555.0</ele>
        <time>2021-10-22T08:23:05.000Z</time>
      </trkpt>
      <trkpt lat="42.651395" lon="-2.78600833">
        <ele>555.0</ele>
        <time>2021-10-22T08:23:06.000Z</time>
      </trkpt>
      <trkpt lat="42.65139" lon="-2.78598667">
        <ele>555.0</ele>
        <time>2021-10-22T08:23:07.000Z</time>
      </trkpt>
      <trkpt lat="42.651385" lon="-2.78596667">
        <ele>555.0</ele>
        <time>2021-10-22T08:23:08.000Z</time>
      </trkpt>
      <trkpt lat="42.65137833" lon="-2.78594833">
        <ele>555.0</ele>
        <time>2021-10-22T08:23:09.000Z</time>
      </trkpt>
      <trkpt lat="42.65137167" lon="-2.78593">
        <ele>555.0</ele>
        <time>2021-10-22T08:23:10.000Z</time>
      </trkpt>
      <trkpt lat="42.65136667" lon="-2.78591167">
        <ele>555.0</ele>
        <time>2021-10-22T08:23:11.000Z</time>
      </trkpt>
      <trkpt lat="42.65135833" lon="-2.785895">
        <ele>555.0</ele>
        <time>2021-10-22T08:23:12.000Z</time>
      </trkpt>
      <trkpt lat="42.65135" lon="-2.78587833">
        <ele>555.0</ele>
        <time>2021-10-22T08:23:13.000Z</time>
      </trkpt>
      <trkpt lat="42.65134167" lon="-2.785865">
        <ele>555.0</ele>
        <time>2021-10-22T08:23:14.000Z</time>
      </trkpt>
      <trkpt lat="42.65133333" lon="-2.78585333">
        <ele>555.0</ele>
        <time>2021-10-22T08:23:15.000Z</time>
      </trkpt>
      <trkpt lat="42.65132667" lon="-2.78584">
        <ele>555.0</ele>
        <time>2021-10-22T08:23:16.000Z</time>
      </trkpt>
      <trkpt lat="42.65132" lon="-2.78582833">
        <ele>555.0</ele>
        <time>2021-10-22T08:23:17.000Z</time>
      </trkpt>
      <trkpt lat="42.651315" lon="-2.78581333">
        <ele>555.0</ele>
        <time>2021-10-22T08:23:18.000Z</time>
      </trkpt>
      <trkpt lat="42.65131167" lon="-2.78579833">
        <ele>555.0</ele>
        <time>2021-10-22T08:23:19.000Z</time>
      </trkpt>
      <trkpt lat="42.65131" lon="-2.78578833">
        <ele>555.0</ele>
        <time>2021-10-22T08:23:20.000Z</time>
      </trkpt>
      <trkpt lat="42.65130833" lon="-2.78578333">
        <ele>555.0</ele>
        <time>2021-10-22T08:23:21.000Z</time>
      </trkpt>
      <trkpt lat="42.65130833" lon="-2.78578167">
        <ele>555.0</ele>
        <time>2021-10-22T08:23:22.000Z</time>
      </trkpt>
      <trkpt lat="42.65131" lon="-2.78578167">
        <ele>555.0</ele>
        <time>2021-10-22T08:23:23.000Z</time>
      </trkpt>
      <trkpt lat="42.65131" lon="-2.78578167">
        <ele>555.0</ele>
        <time>2021-10-22T08:23:24.000Z</time>
      </trkpt>
      <trkpt lat="42.65131167" lon="-2.78578167">
        <ele>555.0</ele>
        <time>2021-10-22T08:23:25.000Z</time>
      </trkpt>
      <trkpt lat="42.65131333" lon="-2.78577833">
        <ele>555.0</ele>
        <time>2021-10-22T08:23:26.000Z</time>
      </trkpt>
      <trkpt lat="42.65131333" lon="-2.78577167">
        <ele>555.0</ele>
        <time>2021-10-22T08:23:27.000Z</time>
      </trkpt>
      <trkpt lat="42.65131" lon="-2.78576">
        <ele>555.0</ele>
        <time>2021-10-22T08:23:28.000Z</time>
      </trkpt>
      <trkpt lat="42.65130667" lon="-2.78574333">
        <ele>555.0</ele>
        <time>2021-10-22T08:23:29.000Z</time>
      </trkpt>
      <trkpt lat="42.65130333" lon="-2.78572333">
        <ele>555.0</ele>
        <time>2021-10-22T08:23:30.000Z</time>
      </trkpt>
      <trkpt lat="42.65129833" lon="-2.78570667">
        <ele>555.0</ele>
        <time>2021-10-22T08:23:31.000Z</time>
      </trkpt>
      <trkpt lat="42.65129333" lon="-2.78568667">
        <ele>555.0</ele>
        <time>2021-10-22T08:23:32.000Z</time>
      </trkpt>
      <trkpt lat="42.65128833" lon="-2.78567">
        <ele>555.0</ele>
        <time>2021-10-22T08:23:33.000Z</time>
      </trkpt>
      <trkpt lat="42.65128333" lon="-2.785655">
        <ele>555.0</ele>
        <time>2021-10-22T08:23:34.000Z</time>
      </trkpt>
      <trkpt lat="42.65128" lon="-2.78564167">
        <ele>555.0</ele>
        <time>2021-10-22T08:23:35.000Z</time>
      </trkpt>
      <trkpt lat="42.65127833" lon="-2.78562833">
        <ele>555.0</ele>
        <time>2021-10-22T08:23:36.000Z</time>
      </trkpt>
      <trkpt lat="42.651275" lon="-2.78561667">
        <ele>555.0</ele>
        <time>2021-10-22T08:23:37.000Z</time>
      </trkpt>
      <trkpt lat="42.65127" lon="-2.785605">
        <ele>555.0</ele>
        <time>2021-10-22T08:23:38.000Z</time>
      </trkpt>
      <trkpt lat="42.651265" lon="-2.78559">
        <ele>555.0</ele>
        <time>2021-10-22T08:23:39.000Z</time>
      </trkpt>
      <trkpt lat="42.65126167" lon="-2.78557833">
        <ele>555.0</ele>
        <time>2021-10-22T08:23:40.000Z</time>
      </trkpt>
      <trkpt lat="42.65125667" lon="-2.78556667">
        <ele>555.0</ele>
        <time>2021-10-22T08:23:41.000Z</time>
      </trkpt>
      <trkpt lat="42.65125167" lon="-2.78555333">
        <ele>555.0</ele>
        <time>2021-10-22T08:23:42.000Z</time>
      </trkpt>
      <trkpt lat="42.65124333" lon="-2.78553667">
        <ele>555.0</ele>
        <time>2021-10-22T08:23:43.000Z</time>
      </trkpt>
      <trkpt lat="42.65123667" lon="-2.78551833">
        <ele>555.0</ele>
        <time>2021-10-22T08:23:44.000Z</time>
      </trkpt>
      <trkpt lat="42.65122833" lon="-2.78550167">
        <ele>555.0</ele>
        <time>2021-10-22T08:23:45.000Z</time>
      </trkpt>
      <trkpt lat="42.65122" lon="-2.78548333">
        <ele>555.0</ele>
        <time>2021-10-22T08:23:46.000Z</time>
      </trkpt>
      <trkpt lat="42.65120833" lon="-2.78546667">
        <ele>555.0</ele>
        <time>2021-10-22T08:23:47.000Z</time>
      </trkpt>
      <trkpt lat="42.6512" lon="-2.78545333">
        <ele>555.0</ele>
        <time>2021-10-22T08:23:48.000Z</time>
      </trkpt>
      <trkpt lat="42.65119333" lon="-2.78543833">
        <ele>555.0</ele>
        <time>2021-10-22T08:23:49.000Z</time>
      </trkpt>
      <trkpt lat="42.651185" lon="-2.785425">
        <ele>555.0</ele>
        <time>2021-10-22T08:23:50.000Z</time>
      </trkpt>
      <trkpt lat="42.65117667" lon="-2.78541167">
        <ele>555.0</ele>
        <time>2021-10-22T08:23:51.000Z</time>
      </trkpt>
      <trkpt lat="42.65117167" lon="-2.785395">
        <ele>555.0</ele>
        <time>2021-10-22T08:23:52.000Z</time>
      </trkpt>
      <trkpt lat="42.651165" lon="-2.78537833">
        <ele>555.0</ele>
        <time>2021-10-22T08:23:53.000Z</time>
      </trkpt>
      <trkpt lat="42.65115833" lon="-2.785365">
        <ele>555.0</ele>
        <time>2021-10-22T08:23:54.000Z</time>
      </trkpt>
      <trkpt lat="42.65114833" lon="-2.78535167">
        <ele>555.0</ele>
        <time>2021-10-22T08:23:55.000Z</time>
      </trkpt>
      <trkpt lat="42.65114167" lon="-2.78533667">
        <ele>555.0</ele>
        <time>2021-10-22T08:23:56.000Z</time>
      </trkpt>
      <trkpt lat="42.65113667" lon="-2.78531833">
        <ele>555.0</ele>
        <time>2021-10-22T08:23:57.000Z</time>
      </trkpt>
      <trkpt lat="42.65113167" lon="-2.78530167">
        <ele>555.0</ele>
        <time>2021-10-22T08:23:58.000Z</time>
      </trkpt>
      <trkpt lat="42.651125" lon="-2.78528667">
        <ele>555.0</ele>
        <time>2021-10-22T08:23:59.000Z</time>
      </trkpt>
      <trkpt lat="42.65111667" lon="-2.78527333">
        <ele>555.0</ele>
        <time>2021-10-22T08:24:00.000Z</time>
      </trkpt>
      <trkpt lat="42.65110833" lon="-2.78525833">
        <ele>556.0</ele>
        <time>2021-10-22T08:24:01.000Z</time>
      </trkpt>
      <trkpt lat="42.6511" lon="-2.78524">
        <ele>556.0</ele>
        <time>2021-10-22T08:24:02.000Z</time>
      </trkpt>
      <trkpt lat="42.65109" lon="-2.785225">
        <ele>556.0</ele>
        <time>2021-10-22T08:24:03.000Z</time>
      </trkpt>
      <trkpt lat="42.65108" lon="-2.78521">
        <ele>556.0</ele>
        <time>2021-10-22T08:24:04.000Z</time>
      </trkpt>
      <trkpt lat="42.65107167" lon="-2.785195">
        <ele>556.0</ele>
        <time>2021-10-22T08:24:05.000Z</time>
      </trkpt>
      <trkpt lat="42.65106333" lon="-2.78518">
        <ele>556.0</ele>
        <time>2021-10-22T08:24:06.000Z</time>
      </trkpt>
      <trkpt lat="42.65105333" lon="-2.785165">
        <ele>556.0</ele>
        <time>2021-10-22T08:24:07.000Z</time>
      </trkpt>
      <trkpt lat="42.65104333" lon="-2.78515167">
        <ele>556.0</ele>
        <time>2021-10-22T08:24:08.000Z</time>
      </trkpt>
      <trkpt lat="42.65103333" lon="-2.78514">
        <ele>556.0</ele>
        <time>2021-10-22T08:24:09.000Z</time>
      </trkpt>
      <trkpt lat="42.651025" lon="-2.785125">
        <ele>556.0</ele>
        <time>2021-10-22T08:24:10.000Z</time>
      </trkpt>
      <trkpt lat="42.65101833" lon="-2.78511167">
        <ele>557.0</ele>
        <time>2021-10-22T08:24:11.000Z</time>
      </trkpt>
      <trkpt lat="42.65101167" lon="-2.78509833">
        <ele>557.0</ele>
        <time>2021-10-22T08:24:12.000Z</time>
      </trkpt>
      <trkpt lat="42.651005" lon="-2.785085">
        <ele>557.0</ele>
        <time>2021-10-22T08:24:13.000Z</time>
      </trkpt>
      <trkpt lat="42.65099833" lon="-2.78507167">
        <ele>557.0</ele>
        <time>2021-10-22T08:24:14.000Z</time>
      </trkpt>
      <trkpt lat="42.65099" lon="-2.78505667">
        <ele>557.0</ele>
        <time>2021-10-22T08:24:15.000Z</time>
      </trkpt>
      <trkpt lat="42.65098333" lon="-2.78504">
        <ele>557.0</ele>
        <time>2021-10-22T08:24:16.000Z</time>
      </trkpt>
      <trkpt lat="42.65097833" lon="-2.78502833">
        <ele>557.0</ele>
        <time>2021-10-22T08:24:17.000Z</time>
      </trkpt>
      <trkpt lat="42.65097167" lon="-2.78501333">
        <ele>557.0</ele>
        <time>2021-10-22T08:24:18.000Z</time>
      </trkpt>
      <trkpt lat="42.65096667" lon="-2.785">
        <ele>557.0</ele>
        <time>2021-10-22T08:24:19.000Z</time>
      </trkpt>
      <trkpt lat="42.65096167" lon="-2.78498667">
        <ele>557.0</ele>
        <time>2021-10-22T08:24:20.000Z</time>
      </trkpt>
      <trkpt lat="42.65095667" lon="-2.78497333">
        <ele>557.0</ele>
        <time>2021-10-22T08:24:21.000Z</time>
      </trkpt>
      <trkpt lat="42.65095167" lon="-2.78496">
        <ele>557.0</ele>
        <time>2021-10-22T08:24:22.000Z</time>
      </trkpt>
      <trkpt lat="42.65094667" lon="-2.784945">
        <ele>557.0</ele>
        <time>2021-10-22T08:24:23.000Z</time>
      </trkpt>
      <trkpt lat="42.65094167" lon="-2.78492833">
        <ele>558.0</ele>
        <time>2021-10-22T08:24:24.000Z</time>
      </trkpt>
      <trkpt lat="42.65093667" lon="-2.78491167">
        <ele>558.0</ele>
        <time>2021-10-22T08:24:25.000Z</time>
      </trkpt>
      <trkpt lat="42.65093167" lon="-2.78489667">
        <ele>558.0</ele>
        <time>2021-10-22T08:24:26.000Z</time>
      </trkpt>
      <trkpt lat="42.65092833" lon="-2.78488">
        <ele>558.0</ele>
        <time>2021-10-22T08:24:27.000Z</time>
      </trkpt>
      <trkpt lat="42.650925" lon="-2.78486833">
        <ele>558.0</ele>
        <time>2021-10-22T08:24:28.000Z</time>
      </trkpt>
      <trkpt lat="42.65091833" lon="-2.784855">
        <ele>558.0</ele>
        <time>2021-10-22T08:24:29.000Z</time>
      </trkpt>
      <trkpt lat="42.65091333" lon="-2.78484">
        <ele>558.0</ele>
        <time>2021-10-22T08:24:30.000Z</time>
      </trkpt>
      <trkpt lat="42.65090667" lon="-2.784825">
        <ele>558.0</ele>
        <time>2021-10-22T08:24:31.000Z</time>
      </trkpt>
      <trkpt lat="42.65090167" lon="-2.78480667">
        <ele>559.0</ele>
        <time>2021-10-22T08:24:32.000Z</time>
      </trkpt>
      <trkpt lat="42.65089667" lon="-2.78479">
        <ele>559.0</ele>
        <time>2021-10-22T08:24:33.000Z</time>
      </trkpt>
      <trkpt lat="42.65089167" lon="-2.784775">
        <ele>559.0</ele>
        <time>2021-10-22T08:24:34.000Z</time>
      </trkpt>
      <trkpt lat="42.650885" lon="-2.78476333">
        <ele>559.0</ele>
        <time>2021-10-22T08:24:35.000Z</time>
      </trkpt>
      <trkpt lat="42.65088" lon="-2.78475">
        <ele>559.0</ele>
        <time>2021-10-22T08:24:36.000Z</time>
      </trkpt>
      <trkpt lat="42.650875" lon="-2.78473667">
        <ele>559.0</ele>
        <time>2021-10-22T08:24:37.000Z</time>
      </trkpt>
      <trkpt lat="42.65087" lon="-2.78472167">
        <ele>559.0</ele>
        <time>2021-10-22T08:24:38.000Z</time>
      </trkpt>
      <trkpt lat="42.65086167" lon="-2.78471">
        <ele>560.0</ele>
        <time>2021-10-22T08:24:39.000Z</time>
      </trkpt>
      <trkpt lat="42.65085333" lon="-2.78469667">
        <ele>560.0</ele>
        <time>2021-10-22T08:24:40.000Z</time>
      </trkpt>
      <trkpt lat="42.65084333" lon="-2.784685">
        <ele>560.0</ele>
        <time>2021-10-22T08:24:41.000Z</time>
      </trkpt>
      <trkpt lat="42.650835" lon="-2.78467167">
        <ele>560.0</ele>
        <time>2021-10-22T08:24:42.000Z</time>
      </trkpt>
      <trkpt lat="42.65082833" lon="-2.78466">
        <ele>560.0</ele>
        <time>2021-10-22T08:24:43.000Z</time>
      </trkpt>
      <trkpt lat="42.65082" lon="-2.78464667">
        <ele>560.0</ele>
        <time>2021-10-22T08:24:44.000Z</time>
      </trkpt>
      <trkpt lat="42.650815" lon="-2.784635">
        <ele>560.0</ele>
        <time>2021-10-22T08:24:45.000Z</time>
      </trkpt>
      <trkpt lat="42.65080833" lon="-2.78462167">
        <ele>561.0</ele>
        <time>2021-10-22T08:24:46.000Z</time>
      </trkpt>
      <trkpt lat="42.65080167" lon="-2.78460833">
        <ele>561.0</ele>
        <time>2021-10-22T08:24:47.000Z</time>
      </trkpt>
      <trkpt lat="42.650795" lon="-2.78459667">
        <ele>561.0</ele>
        <time>2021-10-22T08:24:48.000Z</time>
      </trkpt>
      <trkpt lat="42.650785" lon="-2.784585">
        <ele>561.0</ele>
        <time>2021-10-22T08:24:49.000Z</time>
      </trkpt>
      <trkpt lat="42.650775" lon="-2.784575">
        <ele>561.0</ele>
        <time>2021-10-22T08:24:50.000Z</time>
      </trkpt>
      <trkpt lat="42.65076333" lon="-2.78456333">
        <ele>561.0</ele>
        <time>2021-10-22T08:24:51.000Z</time>
      </trkpt>
      <trkpt lat="42.65075333" lon="-2.78455333">
        <ele>561.0</ele>
        <time>2021-10-22T08:24:52.000Z</time>
      </trkpt>
      <trkpt lat="42.650745" lon="-2.78454167">
        <ele>561.0</ele>
        <time>2021-10-22T08:24:53.000Z</time>
      </trkpt>
      <trkpt lat="42.65073667" lon="-2.78453167">
        <ele>562.0</ele>
        <time>2021-10-22T08:24:54.000Z</time>
      </trkpt>
      <trkpt lat="42.65072833" lon="-2.78452">
        <ele>562.0</ele>
        <time>2021-10-22T08:24:55.000Z</time>
      </trkpt>
      <trkpt lat="42.65072" lon="-2.78450833">
        <ele>562.0</ele>
        <time>2021-10-22T08:24:56.000Z</time>
      </trkpt>
      <trkpt lat="42.65071333" lon="-2.78449833">
        <ele>562.0</ele>
        <time>2021-10-22T08:24:57.000Z</time>
      </trkpt>
      <trkpt lat="42.65070667" lon="-2.78448667">
        <ele>562.0</ele>
        <time>2021-10-22T08:24:58.000Z</time>
      </trkpt>
      <trkpt lat="42.65069833" lon="-2.78447667">
        <ele>562.0</ele>
        <time>2021-10-22T08:24:59.000Z</time>
      </trkpt>
      <trkpt lat="42.65069" lon="-2.78446667">
        <ele>562.0</ele>
        <time>2021-10-22T08:25:00.000Z</time>
      </trkpt>
      <trkpt lat="42.65068167" lon="-2.78446167">
        <ele>562.0</ele>
        <time>2021-10-22T08:25:01.000Z</time>
      </trkpt>
      <trkpt lat="42.65067333" lon="-2.78445333">
        <ele>562.0</ele>
        <time>2021-10-22T08:25:02.000Z</time>
      </trkpt>
      <trkpt lat="42.65066667" lon="-2.78444333">
        <ele>562.0</ele>
        <time>2021-10-22T08:25:03.000Z</time>
      </trkpt>
      <trkpt lat="42.65066" lon="-2.78443667">
        <ele>562.0</ele>
        <time>2021-10-22T08:25:04.000Z</time>
      </trkpt>
      <trkpt lat="42.65065" lon="-2.78442667">
        <ele>562.0</ele>
        <time>2021-10-22T08:25:05.000Z</time>
      </trkpt>
      <trkpt lat="42.65063833" lon="-2.78441833">
        <ele>562.0</ele>
        <time>2021-10-22T08:25:06.000Z</time>
      </trkpt>
      <trkpt lat="42.65062667" lon="-2.78441333">
        <ele>562.0</ele>
        <time>2021-10-22T08:25:07.000Z</time>
      </trkpt>
      <trkpt lat="42.65061833" lon="-2.78441">
        <ele>562.0</ele>
        <time>2021-10-22T08:25:08.000Z</time>
      </trkpt>
      <trkpt lat="42.65061" lon="-2.78441">
        <ele>562.0</ele>
        <time>2021-10-22T08:25:09.000Z</time>
      </trkpt>
      <trkpt lat="42.65060167" lon="-2.78441333">
        <ele>562.0</ele>
        <time>2021-10-22T08:25:10.000Z</time>
      </trkpt>
      <trkpt lat="42.65059333" lon="-2.78441833">
        <ele>562.0</ele>
        <time>2021-10-22T08:25:11.000Z</time>
      </trkpt>
      <trkpt lat="42.650585" lon="-2.78442667">
        <ele>562.0</ele>
        <time>2021-10-22T08:25:12.000Z</time>
      </trkpt>
      <trkpt lat="42.650575" lon="-2.784435">
        <ele>562.0</ele>
        <time>2021-10-22T08:25:13.000Z</time>
      </trkpt>
      <trkpt lat="42.650565" lon="-2.78444333">
        <ele>562.0</ele>
        <time>2021-10-22T08:25:14.000Z</time>
      </trkpt>
      <trkpt lat="42.65055667" lon="-2.78445333">
        <ele>562.0</ele>
        <time>2021-10-22T08:25:15.000Z</time>
      </trkpt>
      <trkpt lat="42.65054833" lon="-2.78446333">
        <ele>563.0</ele>
        <time>2021-10-22T08:25:16.000Z</time>
      </trkpt>
      <trkpt lat="42.65054167" lon="-2.784475">
        <ele>563.0</ele>
        <time>2021-10-22T08:25:17.000Z</time>
      </trkpt>
      <trkpt lat="42.65053667" lon="-2.784485">
        <ele>563.0</ele>
        <time>2021-10-22T08:25:18.000Z</time>
      </trkpt>
      <trkpt lat="42.65053" lon="-2.78449333">
        <ele>563.0</ele>
        <time>2021-10-22T08:25:19.000Z</time>
      </trkpt>
      <trkpt lat="42.65052333" lon="-2.78450333">
        <ele>563.0</ele>
        <time>2021-10-22T08:25:20.000Z</time>
      </trkpt>
      <trkpt lat="42.65051833" lon="-2.78451667">
        <ele>563.0</ele>
        <time>2021-10-22T08:25:21.000Z</time>
      </trkpt>
      <trkpt lat="42.65051167" lon="-2.78452667">
        <ele>563.0</ele>
        <time>2021-10-22T08:25:22.000Z</time>
      </trkpt>
      <trkpt lat="42.65050667" lon="-2.78454333">
        <ele>563.0</ele>
        <time>2021-10-22T08:25:23.000Z</time>
      </trkpt>
      <trkpt lat="42.65050167" lon="-2.78455667">
        <ele>563.0</ele>
        <time>2021-10-22T08:25:24.000Z</time>
      </trkpt>
      <trkpt lat="42.65049667" lon="-2.78457167">
        <ele>564.0</ele>
        <time>2021-10-22T08:25:25.000Z</time>
      </trkpt>
      <trkpt lat="42.65049167" lon="-2.78459">
        <ele>564.0</ele>
        <time>2021-10-22T08:25:26.000Z</time>
      </trkpt>
      <trkpt lat="42.650485" lon="-2.78460333">
        <ele>564.0</ele>
        <time>2021-10-22T08:25:27.000Z</time>
      </trkpt>
      <trkpt lat="42.65047833" lon="-2.78461833">
        <ele>564.0</ele>
        <time>2021-10-22T08:25:28.000Z</time>
      </trkpt>
      <trkpt lat="42.65047167" lon="-2.78463333">
        <ele>564.0</ele>
        <time>2021-10-22T08:25:29.000Z</time>
      </trkpt>
      <trkpt lat="42.65046167" lon="-2.78465">
        <ele>564.0</ele>
        <time>2021-10-22T08:25:30.000Z</time>
      </trkpt>
      <trkpt lat="42.65045" lon="-2.78466833">
        <ele>564.0</ele>
        <time>2021-10-22T08:25:31.000Z</time>
      </trkpt>
      <trkpt lat="42.65043833" lon="-2.78468667">
        <ele>564.0</ele>
        <time>2021-10-22T08:25:32.000Z</time>
      </trkpt>
      <trkpt lat="42.65042667" lon="-2.784705">
        <ele>564.0</ele>
        <time>2021-10-22T08:25:33.000Z</time>
      </trkpt>
      <trkpt lat="42.650415" lon="-2.78472167">
        <ele>564.0</ele>
        <time>2021-10-22T08:25:34.000Z</time>
      </trkpt>
      <trkpt lat="42.650405" lon="-2.78473833">
        <ele>564.0</ele>
        <time>2021-10-22T08:25:35.000Z</time>
      </trkpt>
      <trkpt lat="42.650395" lon="-2.78475333">
        <ele>564.0</ele>
        <time>2021-10-22T08:25:36.000Z</time>
      </trkpt>
      <trkpt lat="42.65038333" lon="-2.78476833">
        <ele>564.0</ele>
        <time>2021-10-22T08:25:37.000Z</time>
      </trkpt>
      <trkpt lat="42.65037333" lon="-2.78478">
        <ele>564.0</ele>
        <time>2021-10-22T08:25:38.000Z</time>
      </trkpt>
      <trkpt lat="42.65036167" lon="-2.78479">
        <ele>564.0</ele>
        <time>2021-10-22T08:25:39.000Z</time>
      </trkpt>
      <trkpt lat="42.65035" lon="-2.78480167">
        <ele>564.0</ele>
        <time>2021-10-22T08:25:40.000Z</time>
      </trkpt>
      <trkpt lat="42.65033833" lon="-2.78481333">
        <ele>564.0</ele>
        <time>2021-10-22T08:25:41.000Z</time>
      </trkpt>
      <trkpt lat="42.65032833" lon="-2.784825">
        <ele>564.0</ele>
        <time>2021-10-22T08:25:42.000Z</time>
      </trkpt>
      <trkpt lat="42.65031833" lon="-2.78483667">
        <ele>564.0</ele>
        <time>2021-10-22T08:25:43.000Z</time>
      </trkpt>
      <trkpt lat="42.65030833" lon="-2.78485">
        <ele>564.0</ele>
        <time>2021-10-22T08:25:44.000Z</time>
      </trkpt>
      <trkpt lat="42.6503" lon="-2.784865">
        <ele>564.0</ele>
        <time>2021-10-22T08:25:45.000Z</time>
      </trkpt>
      <trkpt lat="42.65029333" lon="-2.78488">
        <ele>564.0</ele>
        <time>2021-10-22T08:25:46.000Z</time>
      </trkpt>
      <trkpt lat="42.65029" lon="-2.78489667">
        <ele>564.0</ele>
        <time>2021-10-22T08:25:47.000Z</time>
      </trkpt>
      <trkpt lat="42.65028667" lon="-2.784915">
        <ele>564.0</ele>
        <time>2021-10-22T08:25:48.000Z</time>
      </trkpt>
      <trkpt lat="42.65028667" lon="-2.78493333">
        <ele>564.0</ele>
        <time>2021-10-22T08:25:49.000Z</time>
      </trkpt>
      <trkpt lat="42.65028667" lon="-2.78495333">
        <ele>563.0</ele>
        <time>2021-10-22T08:25:50.000Z</time>
      </trkpt>
      <trkpt lat="42.65028667" lon="-2.78497167">
        <ele>563.0</ele>
        <time>2021-10-22T08:25:51.000Z</time>
      </trkpt>
      <trkpt lat="42.650285" lon="-2.78499167">
        <ele>563.0</ele>
        <time>2021-10-22T08:25:52.000Z</time>
      </trkpt>
      <trkpt lat="42.65028167" lon="-2.78501167">
        <ele>563.0</ele>
        <time>2021-10-22T08:25:53.000Z</time>
      </trkpt>
      <trkpt lat="42.65028" lon="-2.78503333">
        <ele>563.0</ele>
        <time>2021-10-22T08:25:54.000Z</time>
      </trkpt>
      <trkpt lat="42.650275" lon="-2.78504833">
        <ele>563.0</ele>
        <time>2021-10-22T08:25:55.000Z</time>
      </trkpt>
      <trkpt lat="42.65027" lon="-2.78506167">
        <ele>563.0</ele>
        <time>2021-10-22T08:25:56.000Z</time>
      </trkpt>
      <trkpt lat="42.65026333" lon="-2.785075">
        <ele>563.0</ele>
        <time>2021-10-22T08:25:57.000Z</time>
      </trkpt>
      <trkpt lat="42.65025667" lon="-2.78509">
        <ele>563.0</ele>
        <time>2021-10-22T08:25:58.000Z</time>
      </trkpt>
      <trkpt lat="42.65024833" lon="-2.78510333">
        <ele>563.0</ele>
        <time>2021-10-22T08:25:59.000Z</time>
      </trkpt>
      <trkpt lat="42.65023833" lon="-2.78511833">
        <ele>563.0</ele>
        <time>2021-10-22T08:26:00.000Z</time>
      </trkpt>
      <trkpt lat="42.65022833" lon="-2.78513167">
        <ele>563.0</ele>
        <time>2021-10-22T08:26:01.000Z</time>
      </trkpt>
      <trkpt lat="42.65021833" lon="-2.78514333">
        <ele>563.0</ele>
        <time>2021-10-22T08:26:02.000Z</time>
      </trkpt>
      <trkpt lat="42.65020667" lon="-2.78515167">
        <ele>563.0</ele>
        <time>2021-10-22T08:26:03.000Z</time>
      </trkpt>
      <trkpt lat="42.650195" lon="-2.78515667">
        <ele>563.0</ele>
        <time>2021-10-22T08:26:04.000Z</time>
      </trkpt>
      <trkpt lat="42.65018333" lon="-2.78516">
        <ele>563.0</ele>
        <time>2021-10-22T08:26:05.000Z</time>
      </trkpt>
      <trkpt lat="42.65017333" lon="-2.78515833">
        <ele>563.0</ele>
        <time>2021-10-22T08:26:06.000Z</time>
      </trkpt>
      <trkpt lat="42.65016167" lon="-2.78515167">
        <ele>563.0</ele>
        <time>2021-10-22T08:26:07.000Z</time>
      </trkpt>
      <trkpt lat="42.65015167" lon="-2.785145">
        <ele>563.0</ele>
        <time>2021-10-22T08:26:08.000Z</time>
      </trkpt>
      <trkpt lat="42.65014333" lon="-2.78513833">
        <ele>563.0</ele>
        <time>2021-10-22T08:26:09.000Z</time>
      </trkpt>
      <trkpt lat="42.65013333" lon="-2.78512667">
        <ele>563.0</ele>
        <time>2021-10-22T08:26:10.000Z</time>
      </trkpt>
      <trkpt lat="42.65012333" lon="-2.785115">
        <ele>563.0</ele>
        <time>2021-10-22T08:26:11.000Z</time>
      </trkpt>
      <trkpt lat="42.65011167" lon="-2.78510333">
        <ele>563.0</ele>
        <time>2021-10-22T08:26:12.000Z</time>
      </trkpt>
      <trkpt lat="42.65010167" lon="-2.78508833">
        <ele>563.0</ele>
        <time>2021-10-22T08:26:13.000Z</time>
      </trkpt>
      <trkpt lat="42.65009" lon="-2.78507333">
        <ele>563.0</ele>
        <time>2021-10-22T08:26:14.000Z</time>
      </trkpt>
      <trkpt lat="42.65008167" lon="-2.785055">
        <ele>563.0</ele>
        <time>2021-10-22T08:26:15.000Z</time>
      </trkpt>
      <trkpt lat="42.650075" lon="-2.785035">
        <ele>563.0</ele>
        <time>2021-10-22T08:26:16.000Z</time>
      </trkpt>
      <trkpt lat="42.65007167" lon="-2.785015">
        <ele>563.0</ele>
        <time>2021-10-22T08:26:17.000Z</time>
      </trkpt>
      <trkpt lat="42.65006833" lon="-2.78499667">
        <ele>563.0</ele>
        <time>2021-10-22T08:26:18.000Z</time>
      </trkpt>
      <trkpt lat="42.65006333" lon="-2.78498">
        <ele>563.0</ele>
        <time>2021-10-22T08:26:19.000Z</time>
      </trkpt>
      <trkpt lat="42.65006" lon="-2.78496667">
        <ele>563.0</ele>
        <time>2021-10-22T08:26:20.000Z</time>
      </trkpt>
      <trkpt lat="42.65005333" lon="-2.78495167">
        <ele>563.0</ele>
        <time>2021-10-22T08:26:21.000Z</time>
      </trkpt>
      <trkpt lat="42.65004833" lon="-2.784935">
        <ele>563.0</ele>
        <time>2021-10-22T08:26:22.000Z</time>
      </trkpt>
      <trkpt lat="42.65004" lon="-2.78491667">
        <ele>563.0</ele>
        <time>2021-10-22T08:26:23.000Z</time>
      </trkpt>
      <trkpt lat="42.65003167" lon="-2.7849">
        <ele>563.0</ele>
        <time>2021-10-22T08:26:24.000Z</time>
      </trkpt>
      <trkpt lat="42.65002333" lon="-2.78488333">
        <ele>563.0</ele>
        <time>2021-10-22T08:26:25.000Z</time>
      </trkpt>
      <trkpt lat="42.650015" lon="-2.784865">
        <ele>563.0</ele>
        <time>2021-10-22T08:26:26.000Z</time>
      </trkpt>
      <trkpt lat="42.65000833" lon="-2.78485">
        <ele>563.0</ele>
        <time>2021-10-22T08:26:27.000Z</time>
      </trkpt>
      <trkpt lat="42.65000167" lon="-2.784835">
        <ele>563.0</ele>
        <time>2021-10-22T08:26:28.000Z</time>
      </trkpt>
      <trkpt lat="42.64999667" lon="-2.78482">
        <ele>563.0</ele>
        <time>2021-10-22T08:26:29.000Z</time>
      </trkpt>
      <trkpt lat="42.64999" lon="-2.78480333">
        <ele>563.0</ele>
        <time>2021-10-22T08:26:30.000Z</time>
      </trkpt>
      <trkpt lat="42.649985" lon="-2.78478833">
        <ele>564.0</ele>
        <time>2021-10-22T08:26:31.000Z</time>
      </trkpt>
      <trkpt lat="42.64997833" lon="-2.78477167">
        <ele>564.0</ele>
        <time>2021-10-22T08:26:32.000Z</time>
      </trkpt>
      <trkpt lat="42.649975" lon="-2.78475667">
        <ele>564.0</ele>
        <time>2021-10-22T08:26:33.000Z</time>
      </trkpt>
      <trkpt lat="42.64997" lon="-2.78474167">
        <ele>564.0</ele>
        <time>2021-10-22T08:26:34.000Z</time>
      </trkpt>
      <trkpt lat="42.649965" lon="-2.784725">
        <ele>564.0</ele>
        <time>2021-10-22T08:26:35.000Z</time>
      </trkpt>
      <trkpt lat="42.64996" lon="-2.78471">
        <ele>564.0</ele>
        <time>2021-10-22T08:26:36.000Z</time>
      </trkpt>
      <trkpt lat="42.64995333" lon="-2.784695">
        <ele>564.0</ele>
        <time>2021-10-22T08:26:37.000Z</time>
      </trkpt>
      <trkpt lat="42.64994833" lon="-2.78467667">
        <ele>564.0</ele>
        <time>2021-10-22T08:26:38.000Z</time>
      </trkpt>
      <trkpt lat="42.64994333" lon="-2.78466167">
        <ele>564.0</ele>
        <time>2021-10-22T08:26:39.000Z</time>
      </trkpt>
      <trkpt lat="42.64993833" lon="-2.78465667">
        <ele>564.0</ele>
        <time>2021-10-22T08:26:40.000Z</time>
      </trkpt>
      <trkpt lat="42.64993667" lon="-2.78465333">
        <ele>565.0</ele>
        <time>2021-10-22T08:26:41.000Z</time>
      </trkpt>
      <trkpt lat="42.64993" lon="-2.78464">
        <ele>565.0</ele>
        <time>2021-10-22T08:26:42.000Z</time>
      </trkpt>
      <trkpt lat="42.64992667" lon="-2.784625">
        <ele>565.0</ele>
        <time>2021-10-22T08:26:43.000Z</time>
      </trkpt>
      <trkpt lat="42.64992167" lon="-2.78461167">
        <ele>565.0</ele>
        <time>2021-10-22T08:26:44.000Z</time>
      </trkpt>
      <trkpt lat="42.649915" lon="-2.78459667">
        <ele>565.0</ele>
        <time>2021-10-22T08:26:45.000Z</time>
      </trkpt>
      <trkpt lat="42.64991" lon="-2.784585">
        <ele>565.0</ele>
        <time>2021-10-22T08:26:46.000Z</time>
      </trkpt>
      <trkpt lat="42.64990333" lon="-2.78457">
        <ele>565.0</ele>
        <time>2021-10-22T08:26:47.000Z</time>
      </trkpt>
      <trkpt lat="42.64989667" lon="-2.78455333">
        <ele>565.0</ele>
        <time>2021-10-22T08:26:48.000Z</time>
      </trkpt>
      <trkpt lat="42.64988667" lon="-2.78453667">
        <ele>566.0</ele>
        <time>2021-10-22T08:26:49.000Z</time>
      </trkpt>
      <trkpt lat="42.64987667" lon="-2.784525">
        <ele>566.0</ele>
        <time>2021-10-22T08:26:50.000Z</time>
      </trkpt>
      <trkpt lat="42.64986667" lon="-2.784515">
        <ele>566.0</ele>
        <time>2021-10-22T08:26:51.000Z</time>
      </trkpt>
      <trkpt lat="42.64985167" lon="-2.78450833">
        <ele>566.0</ele>
        <time>2021-10-22T08:26:52.000Z</time>
      </trkpt>
      <trkpt lat="42.64983667" lon="-2.7845">
        <ele>566.0</ele>
        <time>2021-10-22T08:26:53.000Z</time>
      </trkpt>
      <trkpt lat="42.64982667" lon="-2.78448833">
        <ele>566.0</ele>
        <time>2021-10-22T08:26:54.000Z</time>
      </trkpt>
      <trkpt lat="42.64981833" lon="-2.78448">
        <ele>566.0</ele>
        <time>2021-10-22T08:26:55.000Z</time>
      </trkpt>
      <trkpt lat="42.64981333" lon="-2.78447667">
        <ele>566.0</ele>
        <time>2021-10-22T08:26:56.000Z</time>
      </trkpt>
      <trkpt lat="42.64981167" lon="-2.78448667">
        <ele>566.0</ele>
        <time>2021-10-22T08:26:57.000Z</time>
      </trkpt>
      <trkpt lat="42.64981333" lon="-2.78449667">
        <ele>566.0</ele>
        <time>2021-10-22T08:26:58.000Z</time>
      </trkpt>
      <trkpt lat="42.64981667" lon="-2.784505">
        <ele>566.0</ele>
        <time>2021-10-22T08:26:59.000Z</time>
      </trkpt>
      <trkpt lat="42.64981667" lon="-2.78451">
        <ele>566.0</ele>
        <time>2021-10-22T08:27:00.000Z</time>
      </trkpt>
      <trkpt lat="42.64981333" lon="-2.78451167">
        <ele>566.0</ele>
        <time>2021-10-22T08:27:01.000Z</time>
      </trkpt>
      <trkpt lat="42.64980833" lon="-2.784505">
        <ele>566.0</ele>
        <time>2021-10-22T08:27:02.000Z</time>
      </trkpt>
      <trkpt lat="42.64980333" lon="-2.78448833">
        <ele>566.0</ele>
        <time>2021-10-22T08:27:03.000Z</time>
      </trkpt>
      <trkpt lat="42.64979833" lon="-2.78447333">
        <ele>566.0</ele>
        <time>2021-10-22T08:27:04.000Z</time>
      </trkpt>
      <trkpt lat="42.64979333" lon="-2.78445667">
        <ele>566.0</ele>
        <time>2021-10-22T08:27:05.000Z</time>
      </trkpt>
      <trkpt lat="42.64978667" lon="-2.78444167">
        <ele>566.0</ele>
        <time>2021-10-22T08:27:06.000Z</time>
      </trkpt>
      <trkpt lat="42.64977833" lon="-2.78442667">
        <ele>566.0</ele>
        <time>2021-10-22T08:27:07.000Z</time>
      </trkpt>
      <trkpt lat="42.64977333" lon="-2.78441">
        <ele>566.0</ele>
        <time>2021-10-22T08:27:08.000Z</time>
      </trkpt>
      <trkpt lat="42.64976833" lon="-2.784395">
        <ele>566.0</ele>
        <time>2021-10-22T08:27:09.000Z</time>
      </trkpt>
      <trkpt lat="42.64976167" lon="-2.78438">
        <ele>566.0</ele>
        <time>2021-10-22T08:27:10.000Z</time>
      </trkpt>
      <trkpt lat="42.64975333" lon="-2.784365">
        <ele>566.0</ele>
        <time>2021-10-22T08:27:11.000Z</time>
      </trkpt>
      <trkpt lat="42.64974333" lon="-2.78434833">
        <ele>566.0</ele>
        <time>2021-10-22T08:27:12.000Z</time>
      </trkpt>
      <trkpt lat="42.649735" lon="-2.78433167">
        <ele>566.0</ele>
        <time>2021-10-22T08:27:13.000Z</time>
      </trkpt>
      <trkpt lat="42.64972833" lon="-2.78431333">
        <ele>566.0</ele>
        <time>2021-10-22T08:27:14.000Z</time>
      </trkpt>
      <trkpt lat="42.64972167" lon="-2.78429333">
        <ele>566.0</ele>
        <time>2021-10-22T08:27:15.000Z</time>
      </trkpt>
      <trkpt lat="42.64971333" lon="-2.784275">
        <ele>566.0</ele>
        <time>2021-10-22T08:27:16.000Z</time>
      </trkpt>
      <trkpt lat="42.64970833" lon="-2.78425833">
        <ele>566.0</ele>
        <time>2021-10-22T08:27:17.000Z</time>
      </trkpt>
      <trkpt lat="42.649705" lon="-2.78424667">
        <ele>566.0</ele>
        <time>2021-10-22T08:27:18.000Z</time>
      </trkpt>
      <trkpt lat="42.6497" lon="-2.78423833">
        <ele>566.0</ele>
        <time>2021-10-22T08:27:19.000Z</time>
      </trkpt>
      <trkpt lat="42.64969333" lon="-2.78423">
        <ele>566.0</ele>
        <time>2021-10-22T08:27:20.000Z</time>
      </trkpt>
      <trkpt lat="42.649685" lon="-2.78421833">
        <ele>566.0</ele>
        <time>2021-10-22T08:27:21.000Z</time>
      </trkpt>
      <trkpt lat="42.649675" lon="-2.784205">
        <ele>566.0</ele>
        <time>2021-10-22T08:27:22.000Z</time>
      </trkpt>
      <trkpt lat="42.64966667" lon="-2.78419167">
        <ele>566.0</ele>
        <time>2021-10-22T08:27:23.000Z</time>
      </trkpt>
      <trkpt lat="42.64965667" lon="-2.78417833">
        <ele>566.0</ele>
        <time>2021-10-22T08:27:24.000Z</time>
      </trkpt>
      <trkpt lat="42.64964833" lon="-2.784165">
        <ele>566.0</ele>
        <time>2021-10-22T08:27:25.000Z</time>
      </trkpt>
      <trkpt lat="42.64964167" lon="-2.78415">
        <ele>567.0</ele>
        <time>2021-10-22T08:27:26.000Z</time>
      </trkpt>
      <trkpt lat="42.64963333" lon="-2.78413833">
        <ele>567.0</ele>
        <time>2021-10-22T08:27:27.000Z</time>
      </trkpt>
      <trkpt lat="42.64962833" lon="-2.78412667">
        <ele>567.0</ele>
        <time>2021-10-22T08:27:28.000Z</time>
      </trkpt>
      <trkpt lat="42.64962333" lon="-2.78412167">
        <ele>567.0</ele>
        <time>2021-10-22T08:27:29.000Z</time>
      </trkpt>
      <trkpt lat="42.64962167" lon="-2.78411333">
        <ele>567.0</ele>
        <time>2021-10-22T08:27:30.000Z</time>
      </trkpt>
      <trkpt lat="42.64961833" lon="-2.78410333">
        <ele>567.0</ele>
        <time>2021-10-22T08:27:31.000Z</time>
      </trkpt>
      <trkpt lat="42.64961333" lon="-2.78409">
        <ele>567.0</ele>
        <time>2021-10-22T08:27:32.000Z</time>
      </trkpt>
      <trkpt lat="42.64961" lon="-2.78407833">
        <ele>568.0</ele>
        <time>2021-10-22T08:27:33.000Z</time>
      </trkpt>
      <trkpt lat="42.649605" lon="-2.784065">
        <ele>568.0</ele>
        <time>2021-10-22T08:27:34.000Z</time>
      </trkpt>
      <trkpt lat="42.64960167" lon="-2.78405167">
        <ele>568.0</ele>
        <time>2021-10-22T08:27:35.000Z</time>
      </trkpt>
      <trkpt lat="42.64959667" lon="-2.78403833">
        <ele>568.0</ele>
        <time>2021-10-22T08:27:36.000Z</time>
      </trkpt>
      <trkpt lat="42.64959" lon="-2.784025">
        <ele>568.0</ele>
        <time>2021-10-22T08:27:37.000Z</time>
      </trkpt>
      <trkpt lat="42.649585" lon="-2.78400833">
        <ele>568.0</ele>
        <time>2021-10-22T08:27:38.000Z</time>
      </trkpt>
      <trkpt lat="42.64957833" lon="-2.78399333">
        <ele>568.0</ele>
        <time>2021-10-22T08:27:39.000Z</time>
      </trkpt>
      <trkpt lat="42.64957333" lon="-2.78398">
        <ele>568.0</ele>
        <time>2021-10-22T08:27:40.000Z</time>
      </trkpt>
      <trkpt lat="42.64957" lon="-2.783965">
        <ele>569.0</ele>
        <time>2021-10-22T08:27:41.000Z</time>
      </trkpt>
      <trkpt lat="42.649565" lon="-2.78395167">
        <ele>569.0</ele>
        <time>2021-10-22T08:27:42.000Z</time>
      </trkpt>
      <trkpt lat="42.64955833" lon="-2.78393667">
        <ele>569.0</ele>
        <time>2021-10-22T08:27:43.000Z</time>
      </trkpt>
      <trkpt lat="42.64955" lon="-2.78391833">
        <ele>569.0</ele>
        <time>2021-10-22T08:27:44.000Z</time>
      </trkpt>
      <trkpt lat="42.64954167" lon="-2.7839">
        <ele>569.0</ele>
        <time>2021-10-22T08:27:45.000Z</time>
      </trkpt>
      <trkpt lat="42.64953333" lon="-2.78388667">
        <ele>569.0</ele>
        <time>2021-10-22T08:27:46.000Z</time>
      </trkpt>
      <trkpt lat="42.64952667" lon="-2.78387333">
        <ele>569.0</ele>
        <time>2021-10-22T08:27:47.000Z</time>
      </trkpt>
      <trkpt lat="42.64952167" lon="-2.78386">
        <ele>569.0</ele>
        <time>2021-10-22T08:27:48.000Z</time>
      </trkpt>
      <trkpt lat="42.64951833" lon="-2.783845">
        <ele>570.0</ele>
        <time>2021-10-22T08:27:49.000Z</time>
      </trkpt>
      <trkpt lat="42.64951" lon="-2.78382667">
        <ele>570.0</ele>
        <time>2021-10-22T08:27:50.000Z</time>
      </trkpt>
      <trkpt lat="42.64950167" lon="-2.78380833">
        <ele>570.0</ele>
        <time>2021-10-22T08:27:51.000Z</time>
      </trkpt>
      <trkpt lat="42.64949667" lon="-2.78379333">
        <ele>570.0</ele>
        <time>2021-10-22T08:27:52.000Z</time>
      </trkpt>
      <trkpt lat="42.64949" lon="-2.783775">
        <ele>570.0</ele>
        <time>2021-10-22T08:27:53.000Z</time>
      </trkpt>
      <trkpt lat="42.64948667" lon="-2.78376">
        <ele>570.0</ele>
        <time>2021-10-22T08:27:54.000Z</time>
      </trkpt>
      <trkpt lat="42.64948167" lon="-2.783745">
        <ele>570.0</ele>
        <time>2021-10-22T08:27:55.000Z</time>
      </trkpt>
      <trkpt lat="42.649475" lon="-2.78373167">
        <ele>571.0</ele>
        <time>2021-10-22T08:27:56.000Z</time>
      </trkpt>
      <trkpt lat="42.64946833" lon="-2.78371667">
        <ele>571.0</ele>
        <time>2021-10-22T08:27:57.000Z</time>
      </trkpt>
      <trkpt lat="42.64946333" lon="-2.78370333">
        <ele>571.0</ele>
        <time>2021-10-22T08:27:58.000Z</time>
      </trkpt>
      <trkpt lat="42.64945833" lon="-2.78369167">
        <ele>571.0</ele>
        <time>2021-10-22T08:27:59.000Z</time>
      </trkpt>
      <trkpt lat="42.64945333" lon="-2.78367667">
        <ele>571.0</ele>
        <time>2021-10-22T08:28:00.000Z</time>
      </trkpt>
      <trkpt lat="42.64944667" lon="-2.78366333">
        <ele>572.0</ele>
        <time>2021-10-22T08:28:01.000Z</time>
      </trkpt>
      <trkpt lat="42.64944167" lon="-2.78365167">
        <ele>572.0</ele>
        <time>2021-10-22T08:28:02.000Z</time>
      </trkpt>
      <trkpt lat="42.64943667" lon="-2.78363667">
        <ele>572.0</ele>
        <time>2021-10-22T08:28:03.000Z</time>
      </trkpt>
      <trkpt lat="42.64943333" lon="-2.78362167">
        <ele>572.0</ele>
        <time>2021-10-22T08:28:04.000Z</time>
      </trkpt>
      <trkpt lat="42.64942667" lon="-2.783605">
        <ele>572.0</ele>
        <time>2021-10-22T08:28:05.000Z</time>
      </trkpt>
      <trkpt lat="42.64942333" lon="-2.78358667">
        <ele>572.0</ele>
        <time>2021-10-22T08:28:06.000Z</time>
      </trkpt>
      <trkpt lat="42.64941833" lon="-2.783565">
        <ele>572.0</ele>
        <time>2021-10-22T08:28:07.000Z</time>
      </trkpt>
      <trkpt lat="42.64941167" lon="-2.783545">
        <ele>573.0</ele>
        <time>2021-10-22T08:28:08.000Z</time>
      </trkpt>
      <trkpt lat="42.64940667" lon="-2.78352667">
        <ele>573.0</ele>
        <time>2021-10-22T08:28:09.000Z</time>
      </trkpt>
      <trkpt lat="42.64940167" lon="-2.78350833">
        <ele>573.0</ele>
        <time>2021-10-22T08:28:10.000Z</time>
      </trkpt>
      <trkpt lat="42.64940167" lon="-2.78348833">
        <ele>573.0</ele>
        <time>2021-10-22T08:28:11.000Z</time>
      </trkpt>
      <trkpt lat="42.6494" lon="-2.78347333">
        <ele>573.0</ele>
        <time>2021-10-22T08:28:12.000Z</time>
      </trkpt>
      <trkpt lat="42.64940333" lon="-2.78345667">
        <ele>574.0</ele>
        <time>2021-10-22T08:28:13.000Z</time>
      </trkpt>
      <trkpt lat="42.649405" lon="-2.78343833">
        <ele>574.0</ele>
        <time>2021-10-22T08:28:14.000Z</time>
      </trkpt>
      <trkpt lat="42.64940833" lon="-2.78342167">
        <ele>574.0</ele>
        <time>2021-10-22T08:28:15.000Z</time>
      </trkpt>
      <trkpt lat="42.64941167" lon="-2.78340333">
        <ele>574.0</ele>
        <time>2021-10-22T08:28:16.000Z</time>
      </trkpt>
      <trkpt lat="42.649415" lon="-2.78338333">
        <ele>574.0</ele>
        <time>2021-10-22T08:28:17.000Z</time>
      </trkpt>
      <trkpt lat="42.64941667" lon="-2.78336667">
        <ele>574.0</ele>
        <time>2021-10-22T08:28:18.000Z</time>
      </trkpt>
      <trkpt lat="42.64941833" lon="-2.78335">
        <ele>575.0</ele>
        <time>2021-10-22T08:28:19.000Z</time>
      </trkpt>
      <trkpt lat="42.64942167" lon="-2.783335">
        <ele>575.0</ele>
        <time>2021-10-22T08:28:20.000Z</time>
      </trkpt>
      <trkpt lat="42.64942333" lon="-2.78332">
        <ele>575.0</ele>
        <time>2021-10-22T08:28:21.000Z</time>
      </trkpt>
      <trkpt lat="42.64942333" lon="-2.78330667">
        <ele>575.0</ele>
        <time>2021-10-22T08:28:22.000Z</time>
      </trkpt>
      <trkpt lat="42.649425" lon="-2.78329167">
        <ele>575.0</ele>
        <time>2021-10-22T08:28:23.000Z</time>
      </trkpt>
      <trkpt lat="42.649425" lon="-2.78328">
        <ele>575.0</ele>
        <time>2021-10-22T08:28:24.000Z</time>
      </trkpt>
      <trkpt lat="42.649425" lon="-2.78327167">
        <ele>575.0</ele>
        <time>2021-10-22T08:28:25.000Z</time>
      </trkpt>
      <trkpt lat="42.64942333" lon="-2.78326333">
        <ele>576.0</ele>
        <time>2021-10-22T08:28:26.000Z</time>
      </trkpt>
      <trkpt lat="42.64942167" lon="-2.783255">
        <ele>576.0</ele>
        <time>2021-10-22T08:28:27.000Z</time>
      </trkpt>
      <trkpt lat="42.64941833" lon="-2.78324167">
        <ele>576.0</ele>
        <time>2021-10-22T08:28:28.000Z</time>
      </trkpt>
      <trkpt lat="42.649415" lon="-2.783225">
        <ele>576.0</ele>
        <time>2021-10-22T08:28:29.000Z</time>
      </trkpt>
      <trkpt lat="42.64941167" lon="-2.78321">
        <ele>576.0</ele>
        <time>2021-10-22T08:28:30.000Z</time>
      </trkpt>
      <trkpt lat="42.64941" lon="-2.78319167">
        <ele>576.0</ele>
        <time>2021-10-22T08:28:31.000Z</time>
      </trkpt>
      <trkpt lat="42.64940667" lon="-2.78317167">
        <ele>576.0</ele>
        <time>2021-10-22T08:28:32.000Z</time>
      </trkpt>
      <trkpt lat="42.64940333" lon="-2.783155">
        <ele>576.0</ele>
        <time>2021-10-22T08:28:33.000Z</time>
      </trkpt>
      <trkpt lat="42.64940167" lon="-2.78314333">
        <ele>576.0</ele>
        <time>2021-10-22T08:28:34.000Z</time>
      </trkpt>
      <trkpt lat="42.6494" lon="-2.78313833">
        <ele>576.0</ele>
        <time>2021-10-22T08:28:35.000Z</time>
      </trkpt>
      <trkpt lat="42.64939833" lon="-2.78313167">
        <ele>576.0</ele>
        <time>2021-10-22T08:28:36.000Z</time>
      </trkpt>
      <trkpt lat="42.649395" lon="-2.78312333">
        <ele>576.0</ele>
        <time>2021-10-22T08:28:37.000Z</time>
      </trkpt>
      <trkpt lat="42.64939" lon="-2.78311167">
        <ele>576.0</ele>
        <time>2021-10-22T08:28:38.000Z</time>
      </trkpt>
      <trkpt lat="42.64938333" lon="-2.78309667">
        <ele>575.0</ele>
        <time>2021-10-22T08:28:39.000Z</time>
      </trkpt>
      <trkpt lat="42.64938" lon="-2.783085">
        <ele>575.0</ele>
        <time>2021-10-22T08:28:40.000Z</time>
      </trkpt>
      <trkpt lat="42.64937167" lon="-2.78307333">
        <ele>575.0</ele>
        <time>2021-10-22T08:28:41.000Z</time>
      </trkpt>
      <trkpt lat="42.64936167" lon="-2.78306333">
        <ele>575.0</ele>
        <time>2021-10-22T08:28:42.000Z</time>
      </trkpt>
      <trkpt lat="42.64935333" lon="-2.78305833">
        <ele>575.0</ele>
        <time>2021-10-22T08:28:43.000Z</time>
      </trkpt>
      <trkpt lat="42.649345" lon="-2.78305333">
        <ele>575.0</ele>
        <time>2021-10-22T08:28:44.000Z</time>
      </trkpt>
      <trkpt lat="42.64933667" lon="-2.78305">
        <ele>575.0</ele>
        <time>2021-10-22T08:28:45.000Z</time>
      </trkpt>
      <trkpt lat="42.64932833" lon="-2.783045">
        <ele>575.0</ele>
        <time>2021-10-22T08:28:46.000Z</time>
      </trkpt>
      <trkpt lat="42.64932167" lon="-2.783045">
        <ele>575.0</ele>
        <time>2021-10-22T08:28:47.000Z</time>
      </trkpt>
      <trkpt lat="42.64931333" lon="-2.783045">
        <ele>575.0</ele>
        <time>2021-10-22T08:28:48.000Z</time>
      </trkpt>
      <trkpt lat="42.649305" lon="-2.78304333">
        <ele>575.0</ele>
        <time>2021-10-22T08:28:49.000Z</time>
      </trkpt>
      <trkpt lat="42.649295" lon="-2.78304167">
        <ele>575.0</ele>
        <time>2021-10-22T08:28:50.000Z</time>
      </trkpt>
      <trkpt lat="42.64928333" lon="-2.78303833">
        <ele>575.0</ele>
        <time>2021-10-22T08:28:51.000Z</time>
      </trkpt>
      <trkpt lat="42.64927167" lon="-2.78303333">
        <ele>575.0</ele>
        <time>2021-10-22T08:28:52.000Z</time>
      </trkpt>
      <trkpt lat="42.64926333" lon="-2.78303">
        <ele>575.0</ele>
        <time>2021-10-22T08:28:53.000Z</time>
      </trkpt>
      <trkpt lat="42.64925167" lon="-2.78302333">
        <ele>575.0</ele>
        <time>2021-10-22T08:28:54.000Z</time>
      </trkpt>
      <trkpt lat="42.64924333" lon="-2.78301167">
        <ele>575.0</ele>
        <time>2021-10-22T08:28:55.000Z</time>
      </trkpt>
      <trkpt lat="42.64923667" lon="-2.78299833">
        <ele>575.0</ele>
        <time>2021-10-22T08:28:56.000Z</time>
      </trkpt>
      <trkpt lat="42.64923" lon="-2.78299">
        <ele>575.0</ele>
        <time>2021-10-22T08:28:57.000Z</time>
      </trkpt>
      <trkpt lat="42.64922333" lon="-2.78297667">
        <ele>575.0</ele>
        <time>2021-10-22T08:28:58.000Z</time>
      </trkpt>
      <trkpt lat="42.64921667" lon="-2.78296333">
        <ele>575.0</ele>
        <time>2021-10-22T08:28:59.000Z</time>
      </trkpt>
      <trkpt lat="42.64921" lon="-2.78294833">
        <ele>575.0</ele>
        <time>2021-10-22T08:29:00.000Z</time>
      </trkpt>
      <trkpt lat="42.649205" lon="-2.78293667">
        <ele>575.0</ele>
        <time>2021-10-22T08:29:01.000Z</time>
      </trkpt>
      <trkpt lat="42.64919667" lon="-2.78292667">
        <ele>575.0</ele>
        <time>2021-10-22T08:29:02.000Z</time>
      </trkpt>
      <trkpt lat="42.64919" lon="-2.78291667">
        <ele>575.0</ele>
        <time>2021-10-22T08:29:03.000Z</time>
      </trkpt>
      <trkpt lat="42.64918167" lon="-2.78290667">
        <ele>575.0</ele>
        <time>2021-10-22T08:29:04.000Z</time>
      </trkpt>
      <trkpt lat="42.64917167" lon="-2.7829">
        <ele>575.0</ele>
        <time>2021-10-22T08:29:05.000Z</time>
      </trkpt>
      <trkpt lat="42.64916167" lon="-2.78289167">
        <ele>575.0</ele>
        <time>2021-10-22T08:29:06.000Z</time>
      </trkpt>
      <trkpt lat="42.64915167" lon="-2.78288167">
        <ele>575.0</ele>
        <time>2021-10-22T08:29:07.000Z</time>
      </trkpt>
      <trkpt lat="42.64914167" lon="-2.78287">
        <ele>575.0</ele>
        <time>2021-10-22T08:29:08.000Z</time>
      </trkpt>
      <trkpt lat="42.64913167" lon="-2.78286">
        <ele>575.0</ele>
        <time>2021-10-22T08:29:09.000Z</time>
      </trkpt>
      <trkpt lat="42.64912333" lon="-2.78285">
        <ele>575.0</ele>
        <time>2021-10-22T08:29:10.000Z</time>
      </trkpt>
      <trkpt lat="42.649115" lon="-2.78284">
        <ele>575.0</ele>
        <time>2021-10-22T08:29:11.000Z</time>
      </trkpt>
      <trkpt lat="42.64910667" lon="-2.78283167">
        <ele>575.0</ele>
        <time>2021-10-22T08:29:12.000Z</time>
      </trkpt>
      <trkpt lat="42.64909833" lon="-2.78282167">
        <ele>575.0</ele>
        <time>2021-10-22T08:29:13.000Z</time>
      </trkpt>
      <trkpt lat="42.64908833" lon="-2.78281167">
        <ele>575.0</ele>
        <time>2021-10-22T08:29:14.000Z</time>
      </trkpt>
      <trkpt lat="42.64908" lon="-2.78280167">
        <ele>575.0</ele>
        <time>2021-10-22T08:29:15.000Z</time>
      </trkpt>
      <trkpt lat="42.64907167" lon="-2.78279">
        <ele>575.0</ele>
        <time>2021-10-22T08:29:16.000Z</time>
      </trkpt>
      <trkpt lat="42.64906333" lon="-2.78277667">
        <ele>575.0</ele>
        <time>2021-10-22T08:29:17.000Z</time>
      </trkpt>
      <trkpt lat="42.649055" lon="-2.782765">
        <ele>575.0</ele>
        <time>2021-10-22T08:29:18.000Z</time>
      </trkpt>
      <trkpt lat="42.649045" lon="-2.78275333">
        <ele>575.0</ele>
        <time>2021-10-22T08:29:19.000Z</time>
      </trkpt>
      <trkpt lat="42.64903667" lon="-2.78274167">
        <ele>575.0</ele>
        <time>2021-10-22T08:29:20.000Z</time>
      </trkpt>
      <trkpt lat="42.64902667" lon="-2.78273167">
        <ele>575.0</ele>
        <time>2021-10-22T08:29:21.000Z</time>
      </trkpt>
      <trkpt lat="42.64901667" lon="-2.78272">
        <ele>575.0</ele>
        <time>2021-10-22T08:29:22.000Z</time>
      </trkpt>
      <trkpt lat="42.649005" lon="-2.78271">
        <ele>574.0</ele>
        <time>2021-10-22T08:29:23.000Z</time>
      </trkpt>
      <trkpt lat="42.64899333" lon="-2.78269833">
        <ele>574.0</ele>
        <time>2021-10-22T08:29:24.000Z</time>
      </trkpt>
      <trkpt lat="42.64898167" lon="-2.782685">
        <ele>574.0</ele>
        <time>2021-10-22T08:29:25.000Z</time>
      </trkpt>
      <trkpt lat="42.64897167" lon="-2.78267">
        <ele>574.0</ele>
        <time>2021-10-22T08:29:26.000Z</time>
      </trkpt>
      <trkpt lat="42.64896333" lon="-2.78265833">
        <ele>574.0</ele>
        <time>2021-10-22T08:29:27.000Z</time>
      </trkpt>
      <trkpt lat="42.648955" lon="-2.78264833">
        <ele>574.0</ele>
        <time>2021-10-22T08:29:28.000Z</time>
      </trkpt>
      <trkpt lat="42.64894667" lon="-2.78263833">
        <ele>574.0</ele>
        <time>2021-10-22T08:29:29.000Z</time>
      </trkpt>
      <trkpt lat="42.64894167" lon="-2.782625">
        <ele>575.0</ele>
        <time>2021-10-22T08:29:30.000Z</time>
      </trkpt>
      <trkpt lat="42.64893333" lon="-2.78261">
        <ele>575.0</ele>
        <time>2021-10-22T08:29:31.000Z</time>
      </trkpt>
      <trkpt lat="42.64892667" lon="-2.78259333">
        <ele>574.0</ele>
        <time>2021-10-22T08:29:32.000Z</time>
      </trkpt>
      <trkpt lat="42.64892" lon="-2.782575">
        <ele>574.0</ele>
        <time>2021-10-22T08:29:33.000Z</time>
      </trkpt>
      <trkpt lat="42.64891667" lon="-2.78255333">
        <ele>574.0</ele>
        <time>2021-10-22T08:29:34.000Z</time>
      </trkpt>
      <trkpt lat="42.64891333" lon="-2.78253">
        <ele>574.0</ele>
        <time>2021-10-22T08:29:35.000Z</time>
      </trkpt>
      <trkpt lat="42.64890833" lon="-2.782505">
        <ele>574.0</ele>
        <time>2021-10-22T08:29:36.000Z</time>
      </trkpt>
      <trkpt lat="42.648905" lon="-2.78248167">
        <ele>574.0</ele>
        <time>2021-10-22T08:29:37.000Z</time>
      </trkpt>
      <trkpt lat="42.6489" lon="-2.78245833">
        <ele>574.0</ele>
        <time>2021-10-22T08:29:38.000Z</time>
      </trkpt>
      <trkpt lat="42.64889333" lon="-2.782435">
        <ele>574.0</ele>
        <time>2021-10-22T08:29:39.000Z</time>
      </trkpt>
      <trkpt lat="42.64888667" lon="-2.78241333">
        <ele>574.0</ele>
        <time>2021-10-22T08:29:40.000Z</time>
      </trkpt>
      <trkpt lat="42.648885" lon="-2.782395">
        <ele>574.0</ele>
        <time>2021-10-22T08:29:41.000Z</time>
      </trkpt>
      <trkpt lat="42.64888333" lon="-2.78238">
        <ele>574.0</ele>
        <time>2021-10-22T08:29:42.000Z</time>
      </trkpt>
      <trkpt lat="42.648885" lon="-2.782365">
        <ele>574.0</ele>
        <time>2021-10-22T08:29:43.000Z</time>
      </trkpt>
      <trkpt lat="42.64888667" lon="-2.78235167">
        <ele>574.0</ele>
        <time>2021-10-22T08:29:44.000Z</time>
      </trkpt>
      <trkpt lat="42.64888833" lon="-2.782335">
        <ele>574.0</ele>
        <time>2021-10-22T08:29:45.000Z</time>
      </trkpt>
      <trkpt lat="42.64888833" lon="-2.78232">
        <ele>574.0</ele>
        <time>2021-10-22T08:29:46.000Z</time>
      </trkpt>
      <trkpt lat="42.64889167" lon="-2.78230333">
        <ele>574.0</ele>
        <time>2021-10-22T08:29:47.000Z</time>
      </trkpt>
      <trkpt lat="42.64889333" lon="-2.782285">
        <ele>574.0</ele>
        <time>2021-10-22T08:29:48.000Z</time>
      </trkpt>
      <trkpt lat="42.64889333" lon="-2.782265">
        <ele>574.0</ele>
        <time>2021-10-22T08:29:49.000Z</time>
      </trkpt>
      <trkpt lat="42.64889667" lon="-2.782245">
        <ele>574.0</ele>
        <time>2021-10-22T08:29:50.000Z</time>
      </trkpt>
      <trkpt lat="42.64889833" lon="-2.782225">
        <ele>574.0</ele>
        <time>2021-10-22T08:29:51.000Z</time>
      </trkpt>
      <trkpt lat="42.64889833" lon="-2.782205">
        <ele>574.0</ele>
        <time>2021-10-22T08:29:52.000Z</time>
      </trkpt>
      <trkpt lat="42.6489" lon="-2.782185">
        <ele>574.0</ele>
        <time>2021-10-22T08:29:53.000Z</time>
      </trkpt>
      <trkpt lat="42.64890333" lon="-2.78216667">
        <ele>574.0</ele>
        <time>2021-10-22T08:29:54.000Z</time>
      </trkpt>
      <trkpt lat="42.648905" lon="-2.78214667">
        <ele>575.0</ele>
        <time>2021-10-22T08:29:55.000Z</time>
      </trkpt>
      <trkpt lat="42.64891" lon="-2.78212333">
        <ele>575.0</ele>
        <time>2021-10-22T08:29:56.000Z</time>
      </trkpt>
      <trkpt lat="42.64891333" lon="-2.7821">
        <ele>575.0</ele>
        <time>2021-10-22T08:29:57.000Z</time>
      </trkpt>
      <trkpt lat="42.64891833" lon="-2.782075">
        <ele>575.0</ele>
        <time>2021-10-22T08:29:58.000Z</time>
      </trkpt>
      <trkpt lat="42.64892" lon="-2.78205333">
        <ele>575.0</ele>
        <time>2021-10-22T08:29:59.000Z</time>
      </trkpt>
      <trkpt lat="42.64892333" lon="-2.78203333">
        <ele>575.0</ele>
        <time>2021-10-22T08:30:00.000Z</time>
      </trkpt>
      <trkpt lat="42.648925" lon="-2.782015">
        <ele>575.0</ele>
        <time>2021-10-22T08:30:01.000Z</time>
      </trkpt>
      <trkpt lat="42.648925" lon="-2.78199833">
        <ele>575.0</ele>
        <time>2021-10-22T08:30:02.000Z</time>
      </trkpt>
      <trkpt lat="42.648925" lon="-2.78198333">
        <ele>575.0</ele>
        <time>2021-10-22T08:30:03.000Z</time>
      </trkpt>
      <trkpt lat="42.648925" lon="-2.781965">
        <ele>575.0</ele>
        <time>2021-10-22T08:30:04.000Z</time>
      </trkpt>
      <trkpt lat="42.648925" lon="-2.781945">
        <ele>575.0</ele>
        <time>2021-10-22T08:30:05.000Z</time>
      </trkpt>
      <trkpt lat="42.64892667" lon="-2.78192833">
        <ele>575.0</ele>
        <time>2021-10-22T08:30:06.000Z</time>
      </trkpt>
      <trkpt lat="42.64893167" lon="-2.78191">
        <ele>576.0</ele>
        <time>2021-10-22T08:30:07.000Z</time>
      </trkpt>
      <trkpt lat="42.64893333" lon="-2.78189">
        <ele>576.0</ele>
        <time>2021-10-22T08:30:08.000Z</time>
      </trkpt>
      <trkpt lat="42.64893667" lon="-2.78187">
        <ele>576.0</ele>
        <time>2021-10-22T08:30:09.000Z</time>
      </trkpt>
      <trkpt lat="42.64893667" lon="-2.78184667">
        <ele>576.0</ele>
        <time>2021-10-22T08:30:10.000Z</time>
      </trkpt>
      <trkpt lat="42.64894" lon="-2.78182667">
        <ele>576.0</ele>
        <time>2021-10-22T08:30:11.000Z</time>
      </trkpt>
      <trkpt lat="42.648945" lon="-2.78180833">
        <ele>576.0</ele>
        <time>2021-10-22T08:30:12.000Z</time>
      </trkpt>
      <trkpt lat="42.64894833" lon="-2.78179333">
        <ele>576.0</ele>
        <time>2021-10-22T08:30:13.000Z</time>
      </trkpt>
      <trkpt lat="42.64895333" lon="-2.78178">
        <ele>576.0</ele>
        <time>2021-10-22T08:30:14.000Z</time>
      </trkpt>
      <trkpt lat="42.64895833" lon="-2.78176833">
        <ele>576.0</ele>
        <time>2021-10-22T08:30:15.000Z</time>
      </trkpt>
      <trkpt lat="42.64896333" lon="-2.781755">
        <ele>576.0</ele>
        <time>2021-10-22T08:30:16.000Z</time>
      </trkpt>
      <trkpt lat="42.64897" lon="-2.78174167">
        <ele>576.0</ele>
        <time>2021-10-22T08:30:17.000Z</time>
      </trkpt>
      <trkpt lat="42.64897667" lon="-2.78172667">
        <ele>576.0</ele>
        <time>2021-10-22T08:30:18.000Z</time>
      </trkpt>
      <trkpt lat="42.64898167" lon="-2.78171167">
        <ele>576.0</ele>
        <time>2021-10-22T08:30:19.000Z</time>
      </trkpt>
      <trkpt lat="42.648985" lon="-2.781695">
        <ele>576.0</ele>
        <time>2021-10-22T08:30:20.000Z</time>
      </trkpt>
      <trkpt lat="42.64898833" lon="-2.78168">
        <ele>576.0</ele>
        <time>2021-10-22T08:30:21.000Z</time>
      </trkpt>
      <trkpt lat="42.64899167" lon="-2.781665">
        <ele>576.0</ele>
        <time>2021-10-22T08:30:22.000Z</time>
      </trkpt>
      <trkpt lat="42.648995" lon="-2.78165">
        <ele>576.0</ele>
        <time>2021-10-22T08:30:23.000Z</time>
      </trkpt>
      <trkpt lat="42.64899833" lon="-2.78163333">
        <ele>576.0</ele>
        <time>2021-10-22T08:30:24.000Z</time>
      </trkpt>
      <trkpt lat="42.64900333" lon="-2.781615">
        <ele>576.0</ele>
        <time>2021-10-22T08:30:25.000Z</time>
      </trkpt>
      <trkpt lat="42.64900833" lon="-2.78159833">
        <ele>576.0</ele>
        <time>2021-10-22T08:30:26.000Z</time>
      </trkpt>
      <trkpt lat="42.64901333" lon="-2.78158167">
        <ele>576.0</ele>
        <time>2021-10-22T08:30:27.000Z</time>
      </trkpt>
      <trkpt lat="42.649015" lon="-2.781565">
        <ele>576.0</ele>
        <time>2021-10-22T08:30:28.000Z</time>
      </trkpt>
      <trkpt lat="42.64902167" lon="-2.78154667">
        <ele>576.0</ele>
        <time>2021-10-22T08:30:29.000Z</time>
      </trkpt>
      <trkpt lat="42.64902667" lon="-2.78152833">
        <ele>576.0</ele>
        <time>2021-10-22T08:30:30.000Z</time>
      </trkpt>
      <trkpt lat="42.64903" lon="-2.78151167">
        <ele>576.0</ele>
        <time>2021-10-22T08:30:31.000Z</time>
      </trkpt>
      <trkpt lat="42.649035" lon="-2.781495">
        <ele>576.0</ele>
        <time>2021-10-22T08:30:32.000Z</time>
      </trkpt>
      <trkpt lat="42.64904167" lon="-2.78147833">
        <ele>576.0</ele>
        <time>2021-10-22T08:30:33.000Z</time>
      </trkpt>
      <trkpt lat="42.64904833" lon="-2.78145833">
        <ele>576.0</ele>
        <time>2021-10-22T08:30:34.000Z</time>
      </trkpt>
      <trkpt lat="42.649055" lon="-2.78144333">
        <ele>576.0</ele>
        <time>2021-10-22T08:30:35.000Z</time>
      </trkpt>
      <trkpt lat="42.64905833" lon="-2.78143167">
        <ele>576.0</ele>
        <time>2021-10-22T08:30:36.000Z</time>
      </trkpt>
      <trkpt lat="42.64906167" lon="-2.78141833">
        <ele>576.0</ele>
        <time>2021-10-22T08:30:37.000Z</time>
      </trkpt>
      <trkpt lat="42.649065" lon="-2.781405">
        <ele>577.0</ele>
        <time>2021-10-22T08:30:38.000Z</time>
      </trkpt>
      <trkpt lat="42.64906833" lon="-2.78139167">
        <ele>577.0</ele>
        <time>2021-10-22T08:30:39.000Z</time>
      </trkpt>
      <trkpt lat="42.64907333" lon="-2.78137667">
        <ele>577.0</ele>
        <time>2021-10-22T08:30:40.000Z</time>
      </trkpt>
      <trkpt lat="42.64907667" lon="-2.78135833">
        <ele>577.0</ele>
        <time>2021-10-22T08:30:41.000Z</time>
      </trkpt>
      <trkpt lat="42.64907833" lon="-2.78134">
        <ele>577.0</ele>
        <time>2021-10-22T08:30:42.000Z</time>
      </trkpt>
      <trkpt lat="42.64908333" lon="-2.78132333">
        <ele>577.0</ele>
        <time>2021-10-22T08:30:43.000Z</time>
      </trkpt>
      <trkpt lat="42.64908667" lon="-2.78130667">
        <ele>577.0</ele>
        <time>2021-10-22T08:30:44.000Z</time>
      </trkpt>
      <trkpt lat="42.64908667" lon="-2.78128667">
        <ele>577.0</ele>
        <time>2021-10-22T08:30:45.000Z</time>
      </trkpt>
      <trkpt lat="42.64908833" lon="-2.78127167">
        <ele>577.0</ele>
        <time>2021-10-22T08:30:46.000Z</time>
      </trkpt>
      <trkpt lat="42.64909" lon="-2.781265">
        <ele>577.0</ele>
        <time>2021-10-22T08:30:47.000Z</time>
      </trkpt>
      <trkpt lat="42.64909333" lon="-2.78125833">
        <ele>577.0</ele>
        <time>2021-10-22T08:30:48.000Z</time>
      </trkpt>
      <trkpt lat="42.649095" lon="-2.78125667">
        <ele>577.0</ele>
        <time>2021-10-22T08:30:49.000Z</time>
      </trkpt>
      <trkpt lat="42.64909667" lon="-2.781255">
        <ele>577.0</ele>
        <time>2021-10-22T08:30:50.000Z</time>
      </trkpt>
      <trkpt lat="42.6491" lon="-2.78125167">
        <ele>577.0</ele>
        <time>2021-10-22T08:30:51.000Z</time>
      </trkpt>
      <trkpt lat="42.64910333" lon="-2.781245">
        <ele>576.0</ele>
        <time>2021-10-22T08:30:52.000Z</time>
      </trkpt>
      <trkpt lat="42.64910833" lon="-2.781235">
        <ele>576.0</ele>
        <time>2021-10-22T08:30:53.000Z</time>
      </trkpt>
      <trkpt lat="42.64911333" lon="-2.781225">
        <ele>576.0</ele>
        <time>2021-10-22T08:30:54.000Z</time>
      </trkpt>
      <trkpt lat="42.64912167" lon="-2.78121333">
        <ele>576.0</ele>
        <time>2021-10-22T08:30:55.000Z</time>
      </trkpt>
      <trkpt lat="42.64913167" lon="-2.78119667">
        <ele>576.0</ele>
        <time>2021-10-22T08:30:56.000Z</time>
      </trkpt>
      <trkpt lat="42.64914167" lon="-2.78118">
        <ele>576.0</ele>
        <time>2021-10-22T08:30:57.000Z</time>
      </trkpt>
      <trkpt lat="42.64915333" lon="-2.78116167">
        <ele>576.0</ele>
        <time>2021-10-22T08:30:58.000Z</time>
      </trkpt>
      <trkpt lat="42.649165" lon="-2.78114333">
        <ele>576.0</ele>
        <time>2021-10-22T08:30:59.000Z</time>
      </trkpt>
      <trkpt lat="42.64917667" lon="-2.78112333">
        <ele>576.0</ele>
        <time>2021-10-22T08:31:00.000Z</time>
      </trkpt>
      <trkpt lat="42.649185" lon="-2.78110667">
        <ele>576.0</ele>
        <time>2021-10-22T08:31:01.000Z</time>
      </trkpt>
      <trkpt lat="42.64919333" lon="-2.78109">
        <ele>576.0</ele>
        <time>2021-10-22T08:31:02.000Z</time>
      </trkpt>
      <trkpt lat="42.6492" lon="-2.78107667">
        <ele>576.0</ele>
        <time>2021-10-22T08:31:03.000Z</time>
      </trkpt>
      <trkpt lat="42.64920667" lon="-2.78106667">
        <ele>576.0</ele>
        <time>2021-10-22T08:31:04.000Z</time>
      </trkpt>
      <trkpt lat="42.64921167" lon="-2.78105167">
        <ele>576.0</ele>
        <time>2021-10-22T08:31:05.000Z</time>
      </trkpt>
      <trkpt lat="42.64921667" lon="-2.78103833">
        <ele>576.0</ele>
        <time>2021-10-22T08:31:06.000Z</time>
      </trkpt>
      <trkpt lat="42.64922167" lon="-2.781025">
        <ele>576.0</ele>
        <time>2021-10-22T08:31:07.000Z</time>
      </trkpt>
      <trkpt lat="42.649225" lon="-2.781015">
        <ele>576.0</ele>
        <time>2021-10-22T08:31:08.000Z</time>
      </trkpt>
      <trkpt lat="42.64923" lon="-2.78100333">
        <ele>576.0</ele>
        <time>2021-10-22T08:31:09.000Z</time>
      </trkpt>
      <trkpt lat="42.64923167" lon="-2.78098667">
        <ele>576.0</ele>
        <time>2021-10-22T08:31:10.000Z</time>
      </trkpt>
      <trkpt lat="42.64923667" lon="-2.78097">
        <ele>576.0</ele>
        <time>2021-10-22T08:31:11.000Z</time>
      </trkpt>
      <trkpt lat="42.64924167" lon="-2.78095667">
        <ele>576.0</ele>
        <time>2021-10-22T08:31:12.000Z</time>
      </trkpt>
      <trkpt lat="42.64924667" lon="-2.78094333">
        <ele>576.0</ele>
        <time>2021-10-22T08:31:13.000Z</time>
      </trkpt>
      <trkpt lat="42.64925" lon="-2.78093">
        <ele>576.0</ele>
        <time>2021-10-22T08:31:14.000Z</time>
      </trkpt>
      <trkpt lat="42.649255" lon="-2.780915">
        <ele>576.0</ele>
        <time>2021-10-22T08:31:15.000Z</time>
      </trkpt>
      <trkpt lat="42.64926333" lon="-2.7809">
        <ele>576.0</ele>
        <time>2021-10-22T08:31:16.000Z</time>
      </trkpt>
      <trkpt lat="42.64927333" lon="-2.78088667">
        <ele>576.0</ele>
        <time>2021-10-22T08:31:17.000Z</time>
      </trkpt>
      <trkpt lat="42.64928" lon="-2.780875">
        <ele>576.0</ele>
        <time>2021-10-22T08:31:18.000Z</time>
      </trkpt>
      <trkpt lat="42.64928833" lon="-2.78086333">
        <ele>576.0</ele>
        <time>2021-10-22T08:31:19.000Z</time>
      </trkpt>
      <trkpt lat="42.649295" lon="-2.78085333">
        <ele>576.0</ele>
        <time>2021-10-22T08:31:20.000Z</time>
      </trkpt>
      <trkpt lat="42.6493" lon="-2.78084167">
        <ele>576.0</ele>
        <time>2021-10-22T08:31:21.000Z</time>
      </trkpt>
      <trkpt lat="42.64930667" lon="-2.78083">
        <ele>576.0</ele>
        <time>2021-10-22T08:31:22.000Z</time>
      </trkpt>
      <trkpt lat="42.64931167" lon="-2.78082">
        <ele>576.0</ele>
        <time>2021-10-22T08:31:23.000Z</time>
      </trkpt>
      <trkpt lat="42.64931833" lon="-2.78080833">
        <ele>576.0</ele>
        <time>2021-10-22T08:31:24.000Z</time>
      </trkpt>
      <trkpt lat="42.64932333" lon="-2.78079667">
        <ele>576.0</ele>
        <time>2021-10-22T08:31:25.000Z</time>
      </trkpt>
      <trkpt lat="42.64933" lon="-2.780785">
        <ele>576.0</ele>
        <time>2021-10-22T08:31:26.000Z</time>
      </trkpt>
      <trkpt lat="42.64933833" lon="-2.78077167">
        <ele>576.0</ele>
        <time>2021-10-22T08:31:27.000Z</time>
      </trkpt>
      <trkpt lat="42.64934833" lon="-2.78075833">
        <ele>576.0</ele>
        <time>2021-10-22T08:31:28.000Z</time>
      </trkpt>
      <trkpt lat="42.64935667" lon="-2.78074333">
        <ele>576.0</ele>
        <time>2021-10-22T08:31:29.000Z</time>
      </trkpt>
      <trkpt lat="42.64936667" lon="-2.78072833">
        <ele>576.0</ele>
        <time>2021-10-22T08:31:30.000Z</time>
      </trkpt>
      <trkpt lat="42.649375" lon="-2.780715">
        <ele>576.0</ele>
        <time>2021-10-22T08:31:31.000Z</time>
      </trkpt>
      <trkpt lat="42.64938167" lon="-2.78070167">
        <ele>576.0</ele>
        <time>2021-10-22T08:31:32.000Z</time>
      </trkpt>
      <trkpt lat="42.64938833" lon="-2.78068833">
        <ele>576.0</ele>
        <time>2021-10-22T08:31:33.000Z</time>
      </trkpt>
      <trkpt lat="42.649395" lon="-2.78067333">
        <ele>576.0</ele>
        <time>2021-10-22T08:31:34.000Z</time>
      </trkpt>
      <trkpt lat="42.6494" lon="-2.78066">
        <ele>576.0</ele>
        <time>2021-10-22T08:31:35.000Z</time>
      </trkpt>
      <trkpt lat="42.64940333" lon="-2.78064333">
        <ele>576.0</ele>
        <time>2021-10-22T08:31:36.000Z</time>
      </trkpt>
      <trkpt lat="42.64940833" lon="-2.78063">
        <ele>576.0</ele>
        <time>2021-10-22T08:31:37.000Z</time>
      </trkpt>
      <trkpt lat="42.64941333" lon="-2.78061667">
        <ele>576.0</ele>
        <time>2021-10-22T08:31:38.000Z</time>
      </trkpt>
      <trkpt lat="42.64941833" lon="-2.78060667">
        <ele>576.0</ele>
        <time>2021-10-22T08:31:39.000Z</time>
      </trkpt>
      <trkpt lat="42.649425" lon="-2.78059833">
        <ele>577.0</ele>
        <time>2021-10-22T08:31:40.000Z</time>
      </trkpt>
      <trkpt lat="42.64943167" lon="-2.780585">
        <ele>577.0</ele>
        <time>2021-10-22T08:31:41.000Z</time>
      </trkpt>
      <trkpt lat="42.649435" lon="-2.78057">
        <ele>577.0</ele>
        <time>2021-10-22T08:31:42.000Z</time>
      </trkpt>
      <trkpt lat="42.649435" lon="-2.78055333">
        <ele>577.0</ele>
        <time>2021-10-22T08:31:43.000Z</time>
      </trkpt>
      <trkpt lat="42.64943667" lon="-2.78053833">
        <ele>577.0</ele>
        <time>2021-10-22T08:31:44.000Z</time>
      </trkpt>
      <trkpt lat="42.64943833" lon="-2.78052333">
        <ele>577.0</ele>
        <time>2021-10-22T08:31:45.000Z</time>
      </trkpt>
      <trkpt lat="42.64944" lon="-2.78051">
        <ele>577.0</ele>
        <time>2021-10-22T08:31:46.000Z</time>
      </trkpt>
      <trkpt lat="42.64943833" lon="-2.780495">
        <ele>577.0</ele>
        <time>2021-10-22T08:31:47.000Z</time>
      </trkpt>
      <trkpt lat="42.64943833" lon="-2.78048">
        <ele>577.0</ele>
        <time>2021-10-22T08:31:48.000Z</time>
      </trkpt>
      <trkpt lat="42.64943667" lon="-2.78046667">
        <ele>577.0</ele>
        <time>2021-10-22T08:31:49.000Z</time>
      </trkpt>
      <trkpt lat="42.64943333" lon="-2.78045">
        <ele>577.0</ele>
        <time>2021-10-22T08:31:50.000Z</time>
      </trkpt>
      <trkpt lat="42.64943167" lon="-2.780435">
        <ele>577.0</ele>
        <time>2021-10-22T08:31:51.000Z</time>
      </trkpt>
      <trkpt lat="42.64943" lon="-2.78042">
        <ele>577.0</ele>
        <time>2021-10-22T08:31:52.000Z</time>
      </trkpt>
      <trkpt lat="42.64942667" lon="-2.78040167">
        <ele>577.0</ele>
        <time>2021-10-22T08:31:53.000Z</time>
      </trkpt>
      <trkpt lat="42.64942333" lon="-2.78038167">
        <ele>577.0</ele>
        <time>2021-10-22T08:31:54.000Z</time>
      </trkpt>
      <trkpt lat="42.64942167" lon="-2.78036667">
        <ele>577.0</ele>
        <time>2021-10-22T08:31:55.000Z</time>
      </trkpt>
      <trkpt lat="42.64942" lon="-2.78035333">
        <ele>577.0</ele>
        <time>2021-10-22T08:31:56.000Z</time>
      </trkpt>
      <trkpt lat="42.64942" lon="-2.78033833">
        <ele>577.0</ele>
        <time>2021-10-22T08:31:57.000Z</time>
      </trkpt>
      <trkpt lat="42.64942" lon="-2.78032333">
        <ele>577.0</ele>
        <time>2021-10-22T08:31:58.000Z</time>
      </trkpt>
      <trkpt lat="42.64942167" lon="-2.78030667">
        <ele>577.0</ele>
        <time>2021-10-22T08:31:59.000Z</time>
      </trkpt>
      <trkpt lat="42.64942167" lon="-2.78028667">
        <ele>577.0</ele>
        <time>2021-10-22T08:32:00.000Z</time>
      </trkpt>
      <trkpt lat="42.64942" lon="-2.78026833">
        <ele>576.0</ele>
        <time>2021-10-22T08:32:01.000Z</time>
      </trkpt>
      <trkpt lat="42.64941667" lon="-2.78024833">
        <ele>576.0</ele>
        <time>2021-10-22T08:32:02.000Z</time>
      </trkpt>
      <trkpt lat="42.64941667" lon="-2.78023">
        <ele>576.0</ele>
        <time>2021-10-22T08:32:03.000Z</time>
      </trkpt>
      <trkpt lat="42.64941333" lon="-2.78021167">
        <ele>576.0</ele>
        <time>2021-10-22T08:32:04.000Z</time>
      </trkpt>
      <trkpt lat="42.64941167" lon="-2.78019167">
        <ele>576.0</ele>
        <time>2021-10-22T08:32:05.000Z</time>
      </trkpt>
      <trkpt lat="42.64941" lon="-2.78017167">
        <ele>576.0</ele>
        <time>2021-10-22T08:32:06.000Z</time>
      </trkpt>
      <trkpt lat="42.64941167" lon="-2.78015">
        <ele>576.0</ele>
        <time>2021-10-22T08:32:07.000Z</time>
      </trkpt>
      <trkpt lat="42.64941333" lon="-2.78012833">
        <ele>576.0</ele>
        <time>2021-10-22T08:32:08.000Z</time>
      </trkpt>
      <trkpt lat="42.649415" lon="-2.78011">
        <ele>576.0</ele>
        <time>2021-10-22T08:32:09.000Z</time>
      </trkpt>
      <trkpt lat="42.64941833" lon="-2.78009">
        <ele>576.0</ele>
        <time>2021-10-22T08:32:10.000Z</time>
      </trkpt>
      <trkpt lat="42.64942" lon="-2.780075">
        <ele>576.0</ele>
        <time>2021-10-22T08:32:11.000Z</time>
      </trkpt>
      <trkpt lat="42.64942" lon="-2.78006">
        <ele>576.0</ele>
        <time>2021-10-22T08:32:12.000Z</time>
      </trkpt>
      <trkpt lat="42.64942" lon="-2.78005">
        <ele>576.0</ele>
        <time>2021-10-22T08:32:13.000Z</time>
      </trkpt>
      <trkpt lat="42.64942" lon="-2.78004833">
        <ele>576.0</ele>
        <time>2021-10-22T08:32:14.000Z</time>
      </trkpt>
      <trkpt lat="42.64942" lon="-2.78004167">
        <ele>576.0</ele>
        <time>2021-10-22T08:32:15.000Z</time>
      </trkpt>
      <trkpt lat="42.64942" lon="-2.78002833">
        <ele>576.0</ele>
        <time>2021-10-22T08:32:16.000Z</time>
      </trkpt>
      <trkpt lat="42.64942167" lon="-2.78001">
        <ele>576.0</ele>
        <time>2021-10-22T08:32:17.000Z</time>
      </trkpt>
      <trkpt lat="42.649425" lon="-2.77999">
        <ele>577.0</ele>
        <time>2021-10-22T08:32:18.000Z</time>
      </trkpt>
      <trkpt lat="42.649425" lon="-2.77997">
        <ele>577.0</ele>
        <time>2021-10-22T08:32:19.000Z</time>
      </trkpt>
      <trkpt lat="42.64942833" lon="-2.77995">
        <ele>577.0</ele>
        <time>2021-10-22T08:32:20.000Z</time>
      </trkpt>
      <trkpt lat="42.64943" lon="-2.77993167">
        <ele>577.0</ele>
        <time>2021-10-22T08:32:21.000Z</time>
      </trkpt>
      <trkpt lat="42.64943333" lon="-2.77991167">
        <ele>577.0</ele>
        <time>2021-10-22T08:32:22.000Z</time>
      </trkpt>
      <trkpt lat="42.64943833" lon="-2.77989">
        <ele>577.0</ele>
        <time>2021-10-22T08:32:23.000Z</time>
      </trkpt>
      <trkpt lat="42.64944333" lon="-2.77986667">
        <ele>577.0</ele>
        <time>2021-10-22T08:32:24.000Z</time>
      </trkpt>
      <trkpt lat="42.64945167" lon="-2.77984333">
        <ele>577.0</ele>
        <time>2021-10-22T08:32:25.000Z</time>
      </trkpt>
      <trkpt lat="42.64946" lon="-2.77982333">
        <ele>577.0</ele>
        <time>2021-10-22T08:32:26.000Z</time>
      </trkpt>
      <trkpt lat="42.64946333" lon="-2.7798">
        <ele>577.0</ele>
        <time>2021-10-22T08:32:27.000Z</time>
      </trkpt>
      <trkpt lat="42.64946667" lon="-2.77977833">
        <ele>577.0</ele>
        <time>2021-10-22T08:32:28.000Z</time>
      </trkpt>
      <trkpt lat="42.64947333" lon="-2.77975667">
        <ele>577.0</ele>
        <time>2021-10-22T08:32:29.000Z</time>
      </trkpt>
      <trkpt lat="42.64947833" lon="-2.77973667">
        <ele>577.0</ele>
        <time>2021-10-22T08:32:30.000Z</time>
      </trkpt>
      <trkpt lat="42.64948333" lon="-2.77972">
        <ele>577.0</ele>
        <time>2021-10-22T08:32:31.000Z</time>
      </trkpt>
      <trkpt lat="42.64948667" lon="-2.77970333">
        <ele>577.0</ele>
        <time>2021-10-22T08:32:32.000Z</time>
      </trkpt>
      <trkpt lat="42.64949" lon="-2.77968833">
        <ele>577.0</ele>
        <time>2021-10-22T08:32:33.000Z</time>
      </trkpt>
      <trkpt lat="42.64949167" lon="-2.77967167">
        <ele>577.0</ele>
        <time>2021-10-22T08:32:34.000Z</time>
      </trkpt>
      <trkpt lat="42.64949667" lon="-2.779655">
        <ele>577.0</ele>
        <time>2021-10-22T08:32:35.000Z</time>
      </trkpt>
      <trkpt lat="42.64949667" lon="-2.77963667">
        <ele>577.0</ele>
        <time>2021-10-22T08:32:36.000Z</time>
      </trkpt>
      <trkpt lat="42.64949667" lon="-2.77961833">
        <ele>577.0</ele>
        <time>2021-10-22T08:32:37.000Z</time>
      </trkpt>
      <trkpt lat="42.64949333" lon="-2.77960167">
        <ele>577.0</ele>
        <time>2021-10-22T08:32:38.000Z</time>
      </trkpt>
      <trkpt lat="42.64948667" lon="-2.779585">
        <ele>577.0</ele>
        <time>2021-10-22T08:32:39.000Z</time>
      </trkpt>
      <trkpt lat="42.649485" lon="-2.77956833">
        <ele>577.0</ele>
        <time>2021-10-22T08:32:40.000Z</time>
      </trkpt>
      <trkpt lat="42.64948333" lon="-2.77956167">
        <ele>577.0</ele>
        <time>2021-10-22T08:32:41.000Z</time>
      </trkpt>
      <trkpt lat="42.64948333" lon="-2.77955833">
        <ele>577.0</ele>
        <time>2021-10-22T08:32:42.000Z</time>
      </trkpt>
      <trkpt lat="42.64948167" lon="-2.779555">
        <ele>577.0</ele>
        <time>2021-10-22T08:32:43.000Z</time>
      </trkpt>
      <trkpt lat="42.64948" lon="-2.779555">
        <ele>576.0</ele>
        <time>2021-10-22T08:32:44.000Z</time>
      </trkpt>
      <trkpt lat="42.64947667" lon="-2.77955333">
        <ele>576.0</ele>
        <time>2021-10-22T08:32:45.000Z</time>
      </trkpt>
      <trkpt lat="42.649475" lon="-2.77955167">
        <ele>576.0</ele>
        <time>2021-10-22T08:32:46.000Z</time>
      </trkpt>
      <trkpt lat="42.64947333" lon="-2.77954833">
        <ele>576.0</ele>
        <time>2021-10-22T08:32:47.000Z</time>
      </trkpt>
      <trkpt lat="42.64947167" lon="-2.77954333">
        <ele>576.0</ele>
        <time>2021-10-22T08:32:48.000Z</time>
      </trkpt>
      <trkpt lat="42.64947" lon="-2.77953833">
        <ele>576.0</ele>
        <time>2021-10-22T08:32:49.000Z</time>
      </trkpt>
      <trkpt lat="42.64946833" lon="-2.77953333">
        <ele>576.0</ele>
        <time>2021-10-22T08:32:50.000Z</time>
      </trkpt>
      <trkpt lat="42.64946667" lon="-2.779525">
        <ele>576.0</ele>
        <time>2021-10-22T08:32:51.000Z</time>
      </trkpt>
      <trkpt lat="42.649465" lon="-2.77951667">
        <ele>576.0</ele>
        <time>2021-10-22T08:32:52.000Z</time>
      </trkpt>
      <trkpt lat="42.64946333" lon="-2.77950833">
        <ele>576.0</ele>
        <time>2021-10-22T08:32:53.000Z</time>
      </trkpt>
      <trkpt lat="42.64946167" lon="-2.77950167">
        <ele>576.0</ele>
        <time>2021-10-22T08:32:54.000Z</time>
      </trkpt>
      <trkpt lat="42.64946167" lon="-2.77949333">
        <ele>576.0</ele>
        <time>2021-10-22T08:32:55.000Z</time>
      </trkpt>
      <trkpt lat="42.64946" lon="-2.779485">
        <ele>576.0</ele>
        <time>2021-10-22T08:32:56.000Z</time>
      </trkpt>
      <trkpt lat="42.64946" lon="-2.77947333">
        <ele>576.0</ele>
        <time>2021-10-22T08:32:57.000Z</time>
      </trkpt>
      <trkpt lat="42.64946" lon="-2.77946">
        <ele>576.0</ele>
        <time>2021-10-22T08:32:58.000Z</time>
      </trkpt>
      <trkpt lat="42.64946" lon="-2.77944667">
        <ele>576.0</ele>
        <time>2021-10-22T08:32:59.000Z</time>
      </trkpt>
      <trkpt lat="42.64946" lon="-2.779435">
        <ele>576.0</ele>
        <time>2021-10-22T08:33:00.000Z</time>
      </trkpt>
      <trkpt lat="42.64946" lon="-2.77942333">
        <ele>576.0</ele>
        <time>2021-10-22T08:33:01.000Z</time>
      </trkpt>
      <trkpt lat="42.64946" lon="-2.77941">
        <ele>576.0</ele>
        <time>2021-10-22T08:33:02.000Z</time>
      </trkpt>
      <trkpt lat="42.64946" lon="-2.77939833">
        <ele>577.0</ele>
        <time>2021-10-22T08:33:03.000Z</time>
      </trkpt>
      <trkpt lat="42.64946" lon="-2.779385">
        <ele>577.0</ele>
        <time>2021-10-22T08:33:04.000Z</time>
      </trkpt>
      <trkpt lat="42.64946" lon="-2.77937">
        <ele>577.0</ele>
        <time>2021-10-22T08:33:05.000Z</time>
      </trkpt>
      <trkpt lat="42.64945833" lon="-2.77935667">
        <ele>577.0</ele>
        <time>2021-10-22T08:33:06.000Z</time>
      </trkpt>
      <trkpt lat="42.649455" lon="-2.77934667">
        <ele>577.0</ele>
        <time>2021-10-22T08:33:07.000Z</time>
      </trkpt>
      <trkpt lat="42.64945333" lon="-2.77933833">
        <ele>577.0</ele>
        <time>2021-10-22T08:33:08.000Z</time>
      </trkpt>
      <trkpt lat="42.64945167" lon="-2.77932667">
        <ele>577.0</ele>
        <time>2021-10-22T08:33:09.000Z</time>
      </trkpt>
      <trkpt lat="42.64945" lon="-2.77931167">
        <ele>577.0</ele>
        <time>2021-10-22T08:33:10.000Z</time>
      </trkpt>
      <trkpt lat="42.64945" lon="-2.77929667">
        <ele>577.0</ele>
        <time>2021-10-22T08:33:11.000Z</time>
      </trkpt>
      <trkpt lat="42.64944667" lon="-2.77928">
        <ele>577.0</ele>
        <time>2021-10-22T08:33:12.000Z</time>
      </trkpt>
      <trkpt lat="42.649445" lon="-2.77926167">
        <ele>577.0</ele>
        <time>2021-10-22T08:33:13.000Z</time>
      </trkpt>
      <trkpt lat="42.64944167" lon="-2.77924667">
        <ele>577.0</ele>
        <time>2021-10-22T08:33:14.000Z</time>
      </trkpt>
      <trkpt lat="42.64943833" lon="-2.77923167">
        <ele>577.0</ele>
        <time>2021-10-22T08:33:15.000Z</time>
      </trkpt>
      <trkpt lat="42.649435" lon="-2.77921833">
        <ele>577.0</ele>
        <time>2021-10-22T08:33:16.000Z</time>
      </trkpt>
      <trkpt lat="42.64943167" lon="-2.77920667">
        <ele>577.0</ele>
        <time>2021-10-22T08:33:17.000Z</time>
      </trkpt>
      <trkpt lat="42.64942833" lon="-2.77919333">
        <ele>577.0</ele>
        <time>2021-10-22T08:33:18.000Z</time>
      </trkpt>
      <trkpt lat="42.64942333" lon="-2.77918167">
        <ele>577.0</ele>
        <time>2021-10-22T08:33:19.000Z</time>
      </trkpt>
      <trkpt lat="42.64942" lon="-2.77916667">
        <ele>577.0</ele>
        <time>2021-10-22T08:33:20.000Z</time>
      </trkpt>
      <trkpt lat="42.64941667" lon="-2.779155">
        <ele>577.0</ele>
        <time>2021-10-22T08:33:21.000Z</time>
      </trkpt>
      <trkpt lat="42.649415" lon="-2.77914333">
        <ele>577.0</ele>
        <time>2021-10-22T08:33:22.000Z</time>
      </trkpt>
      <trkpt lat="42.64941" lon="-2.77913333">
        <ele>577.0</ele>
        <time>2021-10-22T08:33:23.000Z</time>
      </trkpt>
      <trkpt lat="42.649405" lon="-2.77912167">
        <ele>577.0</ele>
        <time>2021-10-22T08:33:24.000Z</time>
      </trkpt>
      <trkpt lat="42.64940167" lon="-2.7791">
        <ele>577.0</ele>
        <time>2021-10-22T08:33:25.000Z</time>
      </trkpt>
      <trkpt lat="42.64939833" lon="-2.77907833">
        <ele>577.0</ele>
        <time>2021-10-22T08:33:26.000Z</time>
      </trkpt>
      <trkpt lat="42.649395" lon="-2.77905833">
        <ele>577.0</ele>
        <time>2021-10-22T08:33:27.000Z</time>
      </trkpt>
      <trkpt lat="42.64939167" lon="-2.77904167">
        <ele>577.0</ele>
        <time>2021-10-22T08:33:28.000Z</time>
      </trkpt>
      <trkpt lat="42.64939" lon="-2.779025">
        <ele>577.0</ele>
        <time>2021-10-22T08:33:29.000Z</time>
      </trkpt>
      <trkpt lat="42.64938833" lon="-2.77901">
        <ele>577.0</ele>
        <time>2021-10-22T08:33:30.000Z</time>
      </trkpt>
      <trkpt lat="42.64938667" lon="-2.77899333">
        <ele>577.0</ele>
        <time>2021-10-22T08:33:31.000Z</time>
      </trkpt>
      <trkpt lat="42.64938667" lon="-2.77897667">
        <ele>577.0</ele>
        <time>2021-10-22T08:33:32.000Z</time>
      </trkpt>
      <trkpt lat="42.64938667" lon="-2.77895833">
        <ele>577.0</ele>
        <time>2021-10-22T08:33:33.000Z</time>
      </trkpt>
      <trkpt lat="42.64938667" lon="-2.77893833">
        <ele>577.0</ele>
        <time>2021-10-22T08:33:34.000Z</time>
      </trkpt>
      <trkpt lat="42.64938667" lon="-2.77892167">
        <ele>577.0</ele>
        <time>2021-10-22T08:33:35.000Z</time>
      </trkpt>
      <trkpt lat="42.64938667" lon="-2.77890667">
        <ele>577.0</ele>
        <time>2021-10-22T08:33:36.000Z</time>
      </trkpt>
      <trkpt lat="42.64938667" lon="-2.77889167">
        <ele>577.0</ele>
        <time>2021-10-22T08:33:37.000Z</time>
      </trkpt>
      <trkpt lat="42.64938833" lon="-2.77887667">
        <ele>577.0</ele>
        <time>2021-10-22T08:33:38.000Z</time>
      </trkpt>
      <trkpt lat="42.64938833" lon="-2.77885833">
        <ele>577.0</ele>
        <time>2021-10-22T08:33:39.000Z</time>
      </trkpt>
      <trkpt lat="42.64938833" lon="-2.77884167">
        <ele>577.0</ele>
        <time>2021-10-22T08:33:40.000Z</time>
      </trkpt>
      <trkpt lat="42.64938667" lon="-2.77882333">
        <ele>577.0</ele>
        <time>2021-10-22T08:33:41.000Z</time>
      </trkpt>
      <trkpt lat="42.649385" lon="-2.778805">
        <ele>577.0</ele>
        <time>2021-10-22T08:33:42.000Z</time>
      </trkpt>
      <trkpt lat="42.64938333" lon="-2.77879">
        <ele>577.0</ele>
        <time>2021-10-22T08:33:43.000Z</time>
      </trkpt>
      <trkpt lat="42.64938167" lon="-2.778775">
        <ele>577.0</ele>
        <time>2021-10-22T08:33:44.000Z</time>
      </trkpt>
      <trkpt lat="42.64938" lon="-2.77876">
        <ele>578.0</ele>
        <time>2021-10-22T08:33:45.000Z</time>
      </trkpt>
      <trkpt lat="42.64937667" lon="-2.77874667">
        <ele>578.0</ele>
        <time>2021-10-22T08:33:46.000Z</time>
      </trkpt>
      <trkpt lat="42.649375" lon="-2.77873">
        <ele>578.0</ele>
        <time>2021-10-22T08:33:47.000Z</time>
      </trkpt>
      <trkpt lat="42.64937167" lon="-2.77871333">
        <ele>578.0</ele>
        <time>2021-10-22T08:33:48.000Z</time>
      </trkpt>
      <trkpt lat="42.64936833" lon="-2.77869667">
        <ele>578.0</ele>
        <time>2021-10-22T08:33:49.000Z</time>
      </trkpt>
      <trkpt lat="42.64936667" lon="-2.77868333">
        <ele>578.0</ele>
        <time>2021-10-22T08:33:50.000Z</time>
      </trkpt>
      <trkpt lat="42.64936667" lon="-2.778665">
        <ele>578.0</ele>
        <time>2021-10-22T08:33:51.000Z</time>
      </trkpt>
      <trkpt lat="42.64936667" lon="-2.77865">
        <ele>578.0</ele>
        <time>2021-10-22T08:33:52.000Z</time>
      </trkpt>
      <trkpt lat="42.64936667" lon="-2.778635">
        <ele>578.0</ele>
        <time>2021-10-22T08:33:53.000Z</time>
      </trkpt>
      <trkpt lat="42.64936333" lon="-2.778615">
        <ele>578.0</ele>
        <time>2021-10-22T08:33:54.000Z</time>
      </trkpt>
      <trkpt lat="42.64936333" lon="-2.77859667">
        <ele>578.0</ele>
        <time>2021-10-22T08:33:55.000Z</time>
      </trkpt>
      <trkpt lat="42.64936167" lon="-2.77858167">
        <ele>578.0</ele>
        <time>2021-10-22T08:33:56.000Z</time>
      </trkpt>
      <trkpt lat="42.64936167" lon="-2.778565">
        <ele>578.0</ele>
        <time>2021-10-22T08:33:57.000Z</time>
      </trkpt>
      <trkpt lat="42.64936167" lon="-2.77855">
        <ele>578.0</ele>
        <time>2021-10-22T08:33:58.000Z</time>
      </trkpt>
      <trkpt lat="42.64936167" lon="-2.778535">
        <ele>578.0</ele>
        <time>2021-10-22T08:33:59.000Z</time>
      </trkpt>
      <trkpt lat="42.64936" lon="-2.77852167">
        <ele>578.0</ele>
        <time>2021-10-22T08:34:00.000Z</time>
      </trkpt>
      <trkpt lat="42.64935667" lon="-2.778505">
        <ele>578.0</ele>
        <time>2021-10-22T08:34:01.000Z</time>
      </trkpt>
      <trkpt lat="42.649355" lon="-2.77849">
        <ele>578.0</ele>
        <time>2021-10-22T08:34:02.000Z</time>
      </trkpt>
      <trkpt lat="42.64935333" lon="-2.77847333">
        <ele>579.0</ele>
        <time>2021-10-22T08:34:03.000Z</time>
      </trkpt>
      <trkpt lat="42.64935333" lon="-2.77845333">
        <ele>579.0</ele>
        <time>2021-10-22T08:34:04.000Z</time>
      </trkpt>
      <trkpt lat="42.64935333" lon="-2.778435">
        <ele>579.0</ele>
        <time>2021-10-22T08:34:05.000Z</time>
      </trkpt>
      <trkpt lat="42.64935667" lon="-2.77841667">
        <ele>579.0</ele>
        <time>2021-10-22T08:34:06.000Z</time>
      </trkpt>
      <trkpt lat="42.64935667" lon="-2.7784">
        <ele>579.0</ele>
        <time>2021-10-22T08:34:07.000Z</time>
      </trkpt>
      <trkpt lat="42.64935833" lon="-2.77838333">
        <ele>579.0</ele>
        <time>2021-10-22T08:34:08.000Z</time>
      </trkpt>
      <trkpt lat="42.64936167" lon="-2.77836667">
        <ele>579.0</ele>
        <time>2021-10-22T08:34:09.000Z</time>
      </trkpt>
      <trkpt lat="42.64936333" lon="-2.77835167">
        <ele>579.0</ele>
        <time>2021-10-22T08:34:10.000Z</time>
      </trkpt>
      <trkpt lat="42.64936333" lon="-2.77833667">
        <ele>579.0</ele>
        <time>2021-10-22T08:34:11.000Z</time>
      </trkpt>
      <trkpt lat="42.649365" lon="-2.77832">
        <ele>579.0</ele>
        <time>2021-10-22T08:34:12.000Z</time>
      </trkpt>
      <trkpt lat="42.649365" lon="-2.77830333">
        <ele>579.0</ele>
        <time>2021-10-22T08:34:13.000Z</time>
      </trkpt>
      <trkpt lat="42.64936667" lon="-2.77829">
        <ele>579.0</ele>
        <time>2021-10-22T08:34:14.000Z</time>
      </trkpt>
      <trkpt lat="42.64936833" lon="-2.77827333">
        <ele>579.0</ele>
        <time>2021-10-22T08:34:15.000Z</time>
      </trkpt>
      <trkpt lat="42.64936833" lon="-2.77825667">
        <ele>579.0</ele>
        <time>2021-10-22T08:34:16.000Z</time>
      </trkpt>
      <trkpt lat="42.64937" lon="-2.77824">
        <ele>579.0</ele>
        <time>2021-10-22T08:34:17.000Z</time>
      </trkpt>
      <trkpt lat="42.64937167" lon="-2.77822333">
        <ele>579.0</ele>
        <time>2021-10-22T08:34:18.000Z</time>
      </trkpt>
      <trkpt lat="42.649375" lon="-2.778205">
        <ele>579.0</ele>
        <time>2021-10-22T08:34:19.000Z</time>
      </trkpt>
      <trkpt lat="42.64937667" lon="-2.77818667">
        <ele>579.0</ele>
        <time>2021-10-22T08:34:20.000Z</time>
      </trkpt>
      <trkpt lat="42.64937667" lon="-2.77817333">
        <ele>579.0</ele>
        <time>2021-10-22T08:34:21.000Z</time>
      </trkpt>
      <trkpt lat="42.649375" lon="-2.77815833">
        <ele>579.0</ele>
        <time>2021-10-22T08:34:22.000Z</time>
      </trkpt>
      <trkpt lat="42.64937667" lon="-2.77814333">
        <ele>579.0</ele>
        <time>2021-10-22T08:34:23.000Z</time>
      </trkpt>
      <trkpt lat="42.64937667" lon="-2.77813">
        <ele>579.0</ele>
        <time>2021-10-22T08:34:24.000Z</time>
      </trkpt>
      <trkpt lat="42.64937833" lon="-2.77811167">
        <ele>580.0</ele>
        <time>2021-10-22T08:34:25.000Z</time>
      </trkpt>
      <trkpt lat="42.64938" lon="-2.77809">
        <ele>580.0</ele>
        <time>2021-10-22T08:34:26.000Z</time>
      </trkpt>
      <trkpt lat="42.64938167" lon="-2.77807">
        <ele>580.0</ele>
        <time>2021-10-22T08:34:27.000Z</time>
      </trkpt>
      <trkpt lat="42.649385" lon="-2.77805333">
        <ele>580.0</ele>
        <time>2021-10-22T08:34:28.000Z</time>
      </trkpt>
      <trkpt lat="42.64939" lon="-2.778035">
        <ele>580.0</ele>
        <time>2021-10-22T08:34:29.000Z</time>
      </trkpt>
      <trkpt lat="42.64939333" lon="-2.77801667">
        <ele>580.0</ele>
        <time>2021-10-22T08:34:30.000Z</time>
      </trkpt>
      <trkpt lat="42.64939667" lon="-2.77799833">
        <ele>580.0</ele>
        <time>2021-10-22T08:34:31.000Z</time>
      </trkpt>
      <trkpt lat="42.6494" lon="-2.77798333">
        <ele>580.0</ele>
        <time>2021-10-22T08:34:32.000Z</time>
      </trkpt>
      <trkpt lat="42.64940333" lon="-2.777965">
        <ele>580.0</ele>
        <time>2021-10-22T08:34:33.000Z</time>
      </trkpt>
      <trkpt lat="42.649405" lon="-2.77794833">
        <ele>580.0</ele>
        <time>2021-10-22T08:34:34.000Z</time>
      </trkpt>
      <trkpt lat="42.64940667" lon="-2.77793333">
        <ele>580.0</ele>
        <time>2021-10-22T08:34:35.000Z</time>
      </trkpt>
      <trkpt lat="42.64940833" lon="-2.77791833">
        <ele>580.0</ele>
        <time>2021-10-22T08:34:36.000Z</time>
      </trkpt>
      <trkpt lat="42.64941" lon="-2.77790167">
        <ele>580.0</ele>
        <time>2021-10-22T08:34:37.000Z</time>
      </trkpt>
      <trkpt lat="42.64941333" lon="-2.777885">
        <ele>580.0</ele>
        <time>2021-10-22T08:34:38.000Z</time>
      </trkpt>
      <trkpt lat="42.64941667" lon="-2.77786667">
        <ele>580.0</ele>
        <time>2021-10-22T08:34:39.000Z</time>
      </trkpt>
      <trkpt lat="42.64942" lon="-2.77785">
        <ele>580.0</ele>
        <time>2021-10-22T08:34:40.000Z</time>
      </trkpt>
      <trkpt lat="42.649425" lon="-2.77783">
        <ele>580.0</ele>
        <time>2021-10-22T08:34:41.000Z</time>
      </trkpt>
      <trkpt lat="42.64942833" lon="-2.77781333">
        <ele>580.0</ele>
        <time>2021-10-22T08:34:42.000Z</time>
      </trkpt>
      <trkpt lat="42.64943167" lon="-2.77779667">
        <ele>580.0</ele>
        <time>2021-10-22T08:34:43.000Z</time>
      </trkpt>
      <trkpt lat="42.64943333" lon="-2.77778167">
        <ele>580.0</ele>
        <time>2021-10-22T08:34:44.000Z</time>
      </trkpt>
      <trkpt lat="42.649435" lon="-2.77777">
        <ele>580.0</ele>
        <time>2021-10-22T08:34:45.000Z</time>
      </trkpt>
      <trkpt lat="42.64943667" lon="-2.777755">
        <ele>580.0</ele>
        <time>2021-10-22T08:34:46.000Z</time>
      </trkpt>
      <trkpt lat="42.649435" lon="-2.77774">
        <ele>580.0</ele>
        <time>2021-10-22T08:34:47.000Z</time>
      </trkpt>
      <trkpt lat="42.64943333" lon="-2.777725">
        <ele>580.0</ele>
        <time>2021-10-22T08:34:48.000Z</time>
      </trkpt>
      <trkpt lat="42.64943333" lon="-2.77771">
        <ele>580.0</ele>
        <time>2021-10-22T08:34:49.000Z</time>
      </trkpt>
      <trkpt lat="42.64943" lon="-2.77769667">
        <ele>580.0</ele>
        <time>2021-10-22T08:34:50.000Z</time>
      </trkpt>
      <trkpt lat="42.64942667" lon="-2.77768167">
        <ele>580.0</ele>
        <time>2021-10-22T08:34:51.000Z</time>
      </trkpt>
      <trkpt lat="42.64942333" lon="-2.77766667">
        <ele>580.0</ele>
        <time>2021-10-22T08:34:52.000Z</time>
      </trkpt>
      <trkpt lat="42.64942" lon="-2.77765167">
        <ele>580.0</ele>
        <time>2021-10-22T08:34:53.000Z</time>
      </trkpt>
      <trkpt lat="42.64941833" lon="-2.77764">
        <ele>580.0</ele>
        <time>2021-10-22T08:34:54.000Z</time>
      </trkpt>
      <trkpt lat="42.64941667" lon="-2.777625">
        <ele>580.0</ele>
        <time>2021-10-22T08:34:55.000Z</time>
      </trkpt>
      <trkpt lat="42.649415" lon="-2.77761167">
        <ele>580.0</ele>
        <time>2021-10-22T08:34:56.000Z</time>
      </trkpt>
      <trkpt lat="42.64941333" lon="-2.77759667">
        <ele>580.0</ele>
        <time>2021-10-22T08:34:57.000Z</time>
      </trkpt>
      <trkpt lat="42.64941" lon="-2.77757833">
        <ele>581.0</ele>
        <time>2021-10-22T08:34:58.000Z</time>
      </trkpt>
      <trkpt lat="42.64940667" lon="-2.77756">
        <ele>581.0</ele>
        <time>2021-10-22T08:34:59.000Z</time>
      </trkpt>
      <trkpt lat="42.64940333" lon="-2.77753833">
        <ele>581.0</ele>
        <time>2021-10-22T08:35:00.000Z</time>
      </trkpt>
      <trkpt lat="42.6494" lon="-2.77751833">
        <ele>581.0</ele>
        <time>2021-10-22T08:35:01.000Z</time>
      </trkpt>
      <trkpt lat="42.649395" lon="-2.77750167">
        <ele>581.0</ele>
        <time>2021-10-22T08:35:02.000Z</time>
      </trkpt>
      <trkpt lat="42.64939167" lon="-2.777485">
        <ele>581.0</ele>
        <time>2021-10-22T08:35:03.000Z</time>
      </trkpt>
      <trkpt lat="42.64939" lon="-2.77746667">
        <ele>581.0</ele>
        <time>2021-10-22T08:35:04.000Z</time>
      </trkpt>
      <trkpt lat="42.64938667" lon="-2.77744833">
        <ele>581.0</ele>
        <time>2021-10-22T08:35:05.000Z</time>
      </trkpt>
      <trkpt lat="42.649385" lon="-2.777435">
        <ele>581.0</ele>
        <time>2021-10-22T08:35:06.000Z</time>
      </trkpt>
      <trkpt lat="42.649385" lon="-2.77742167">
        <ele>581.0</ele>
        <time>2021-10-22T08:35:07.000Z</time>
      </trkpt>
      <trkpt lat="42.64938167" lon="-2.77740833">
        <ele>581.0</ele>
        <time>2021-10-22T08:35:08.000Z</time>
      </trkpt>
      <trkpt lat="42.64937833" lon="-2.77739333">
        <ele>581.0</ele>
        <time>2021-10-22T08:35:09.000Z</time>
      </trkpt>
      <trkpt lat="42.649375" lon="-2.77737833">
        <ele>582.0</ele>
        <time>2021-10-22T08:35:10.000Z</time>
      </trkpt>
      <trkpt lat="42.64937167" lon="-2.777365">
        <ele>582.0</ele>
        <time>2021-10-22T08:35:11.000Z</time>
      </trkpt>
      <trkpt lat="42.64936667" lon="-2.77735">
        <ele>582.0</ele>
        <time>2021-10-22T08:35:12.000Z</time>
      </trkpt>
      <trkpt lat="42.649365" lon="-2.77733333">
        <ele>582.0</ele>
        <time>2021-10-22T08:35:13.000Z</time>
      </trkpt>
      <trkpt lat="42.649365" lon="-2.77732">
        <ele>582.0</ele>
        <time>2021-10-22T08:35:14.000Z</time>
      </trkpt>
      <trkpt lat="42.64936333" lon="-2.77730333">
        <ele>582.0</ele>
        <time>2021-10-22T08:35:15.000Z</time>
      </trkpt>
      <trkpt lat="42.64936167" lon="-2.77728667">
        <ele>582.0</ele>
        <time>2021-10-22T08:35:16.000Z</time>
      </trkpt>
      <trkpt lat="42.64936" lon="-2.77727">
        <ele>582.0</ele>
        <time>2021-10-22T08:35:17.000Z</time>
      </trkpt>
      <trkpt lat="42.64936" lon="-2.777255">
        <ele>582.0</ele>
        <time>2021-10-22T08:35:18.000Z</time>
      </trkpt>
      <trkpt lat="42.64935833" lon="-2.77723833">
        <ele>582.0</ele>
        <time>2021-10-22T08:35:19.000Z</time>
      </trkpt>
      <trkpt lat="42.64936" lon="-2.77722333">
        <ele>582.0</ele>
        <time>2021-10-22T08:35:20.000Z</time>
      </trkpt>
      <trkpt lat="42.64936" lon="-2.77721">
        <ele>583.0</ele>
        <time>2021-10-22T08:35:21.000Z</time>
      </trkpt>
      <trkpt lat="42.64936167" lon="-2.7772">
        <ele>583.0</ele>
        <time>2021-10-22T08:35:22.000Z</time>
      </trkpt>
      <trkpt lat="42.64936333" lon="-2.77718833">
        <ele>583.0</ele>
        <time>2021-10-22T08:35:23.000Z</time>
      </trkpt>
      <trkpt lat="42.64936667" lon="-2.77717167">
        <ele>583.0</ele>
        <time>2021-10-22T08:35:24.000Z</time>
      </trkpt>
      <trkpt lat="42.64937" lon="-2.777155">
        <ele>583.0</ele>
        <time>2021-10-22T08:35:25.000Z</time>
      </trkpt>
      <trkpt lat="42.649375" lon="-2.77714167">
        <ele>583.0</ele>
        <time>2021-10-22T08:35:26.000Z</time>
      </trkpt>
      <trkpt lat="42.64938333" lon="-2.77712833">
        <ele>583.0</ele>
        <time>2021-10-22T08:35:27.000Z</time>
      </trkpt>
      <trkpt lat="42.64939" lon="-2.77711333">
        <ele>583.0</ele>
        <time>2021-10-22T08:35:28.000Z</time>
      </trkpt>
      <trkpt lat="42.649395" lon="-2.77709833">
        <ele>583.0</ele>
        <time>2021-10-22T08:35:29.000Z</time>
      </trkpt>
      <trkpt lat="42.64939833" lon="-2.77708167">
        <ele>583.0</ele>
        <time>2021-10-22T08:35:30.000Z</time>
      </trkpt>
      <trkpt lat="42.64940333" lon="-2.777065">
        <ele>583.0</ele>
        <time>2021-10-22T08:35:31.000Z</time>
      </trkpt>
      <trkpt lat="42.64940667" lon="-2.77704667">
        <ele>583.0</ele>
        <time>2021-10-22T08:35:32.000Z</time>
      </trkpt>
      <trkpt lat="42.64941" lon="-2.77702667">
        <ele>583.0</ele>
        <time>2021-10-22T08:35:33.000Z</time>
      </trkpt>
      <trkpt lat="42.649415" lon="-2.77701">
        <ele>583.0</ele>
        <time>2021-10-22T08:35:34.000Z</time>
      </trkpt>
      <trkpt lat="42.64942" lon="-2.776995">
        <ele>583.0</ele>
        <time>2021-10-22T08:35:35.000Z</time>
      </trkpt>
      <trkpt lat="42.64942667" lon="-2.77698">
        <ele>583.0</ele>
        <time>2021-10-22T08:35:36.000Z</time>
      </trkpt>
      <trkpt lat="42.64943" lon="-2.77696667">
        <ele>583.0</ele>
        <time>2021-10-22T08:35:37.000Z</time>
      </trkpt>
      <trkpt lat="42.64943333" lon="-2.77695">
        <ele>583.0</ele>
        <time>2021-10-22T08:35:38.000Z</time>
      </trkpt>
      <trkpt lat="42.64943833" lon="-2.776935">
        <ele>584.0</ele>
        <time>2021-10-22T08:35:39.000Z</time>
      </trkpt>
      <trkpt lat="42.64944167" lon="-2.77691833">
        <ele>584.0</ele>
        <time>2021-10-22T08:35:40.000Z</time>
      </trkpt>
      <trkpt lat="42.64945" lon="-2.77690167">
        <ele>584.0</ele>
        <time>2021-10-22T08:35:41.000Z</time>
      </trkpt>
      <trkpt lat="42.64945667" lon="-2.77688167">
        <ele>584.0</ele>
        <time>2021-10-22T08:35:42.000Z</time>
      </trkpt>
      <trkpt lat="42.64946167" lon="-2.77686333">
        <ele>584.0</ele>
        <time>2021-10-22T08:35:43.000Z</time>
      </trkpt>
      <trkpt lat="42.64947" lon="-2.77684667">
        <ele>584.0</ele>
        <time>2021-10-22T08:35:44.000Z</time>
      </trkpt>
      <trkpt lat="42.649475" lon="-2.77683333">
        <ele>584.0</ele>
        <time>2021-10-22T08:35:45.000Z</time>
      </trkpt>
      <trkpt lat="42.64947833" lon="-2.77682167">
        <ele>584.0</ele>
        <time>2021-10-22T08:35:46.000Z</time>
      </trkpt>
      <trkpt lat="42.64948333" lon="-2.77681">
        <ele>584.0</ele>
        <time>2021-10-22T08:35:47.000Z</time>
      </trkpt>
      <trkpt lat="42.64949" lon="-2.77679667">
        <ele>584.0</ele>
        <time>2021-10-22T08:35:48.000Z</time>
      </trkpt>
      <trkpt lat="42.649495" lon="-2.77678167">
        <ele>584.0</ele>
        <time>2021-10-22T08:35:49.000Z</time>
      </trkpt>
      <trkpt lat="42.64949833" lon="-2.77676833">
        <ele>584.0</ele>
        <time>2021-10-22T08:35:50.000Z</time>
      </trkpt>
      <trkpt lat="42.6495" lon="-2.77675167">
        <ele>584.0</ele>
        <time>2021-10-22T08:35:51.000Z</time>
      </trkpt>
      <trkpt lat="42.649505" lon="-2.77673333">
        <ele>584.0</ele>
        <time>2021-10-22T08:35:52.000Z</time>
      </trkpt>
      <trkpt lat="42.64950833" lon="-2.776715">
        <ele>584.0</ele>
        <time>2021-10-22T08:35:53.000Z</time>
      </trkpt>
      <trkpt lat="42.64951167" lon="-2.77669833">
        <ele>584.0</ele>
        <time>2021-10-22T08:35:54.000Z</time>
      </trkpt>
      <trkpt lat="42.64951167" lon="-2.776685">
        <ele>584.0</ele>
        <time>2021-10-22T08:35:55.000Z</time>
      </trkpt>
      <trkpt lat="42.64951167" lon="-2.77667167">
        <ele>584.0</ele>
        <time>2021-10-22T08:35:56.000Z</time>
      </trkpt>
      <trkpt lat="42.64951167" lon="-2.77666">
        <ele>584.0</ele>
        <time>2021-10-22T08:35:57.000Z</time>
      </trkpt>
      <trkpt lat="42.64951333" lon="-2.776645">
        <ele>584.0</ele>
        <time>2021-10-22T08:35:58.000Z</time>
      </trkpt>
      <trkpt lat="42.649515" lon="-2.77663">
        <ele>584.0</ele>
        <time>2021-10-22T08:35:59.000Z</time>
      </trkpt>
      <trkpt lat="42.649515" lon="-2.776615">
        <ele>585.0</ele>
        <time>2021-10-22T08:36:00.000Z</time>
      </trkpt>
      <trkpt lat="42.64951333" lon="-2.77659667">
        <ele>585.0</ele>
        <time>2021-10-22T08:36:01.000Z</time>
      </trkpt>
      <trkpt lat="42.64951" lon="-2.77657667">
        <ele>585.0</ele>
        <time>2021-10-22T08:36:02.000Z</time>
      </trkpt>
      <trkpt lat="42.64950667" lon="-2.77655667">
        <ele>585.0</ele>
        <time>2021-10-22T08:36:03.000Z</time>
      </trkpt>
      <trkpt lat="42.64950667" lon="-2.77653833">
        <ele>585.0</ele>
        <time>2021-10-22T08:36:04.000Z</time>
      </trkpt>
      <trkpt lat="42.64950667" lon="-2.77652">
        <ele>585.0</ele>
        <time>2021-10-22T08:36:05.000Z</time>
      </trkpt>
      <trkpt lat="42.64950833" lon="-2.77650167">
        <ele>585.0</ele>
        <time>2021-10-22T08:36:06.000Z</time>
      </trkpt>
      <trkpt lat="42.64951167" lon="-2.77648333">
        <ele>585.0</ele>
        <time>2021-10-22T08:36:07.000Z</time>
      </trkpt>
      <trkpt lat="42.649515" lon="-2.77646333">
        <ele>585.0</ele>
        <time>2021-10-22T08:36:08.000Z</time>
      </trkpt>
      <trkpt lat="42.64951833" lon="-2.77644333">
        <ele>585.0</ele>
        <time>2021-10-22T08:36:09.000Z</time>
      </trkpt>
      <trkpt lat="42.64952" lon="-2.77642333">
        <ele>585.0</ele>
        <time>2021-10-22T08:36:10.000Z</time>
      </trkpt>
      <trkpt lat="42.64952" lon="-2.77640167">
        <ele>585.0</ele>
        <time>2021-10-22T08:36:11.000Z</time>
      </trkpt>
      <trkpt lat="42.64952" lon="-2.77638333">
        <ele>585.0</ele>
        <time>2021-10-22T08:36:12.000Z</time>
      </trkpt>
      <trkpt lat="42.64952" lon="-2.77636833">
        <ele>585.0</ele>
        <time>2021-10-22T08:36:13.000Z</time>
      </trkpt>
      <trkpt lat="42.64952" lon="-2.776355">
        <ele>585.0</ele>
        <time>2021-10-22T08:36:14.000Z</time>
      </trkpt>
      <trkpt lat="42.64952167" lon="-2.77634167">
        <ele>585.0</ele>
        <time>2021-10-22T08:36:15.000Z</time>
      </trkpt>
      <trkpt lat="42.64952333" lon="-2.77632667">
        <ele>585.0</ele>
        <time>2021-10-22T08:36:16.000Z</time>
      </trkpt>
      <trkpt lat="42.649525" lon="-2.77631167">
        <ele>585.0</ele>
        <time>2021-10-22T08:36:17.000Z</time>
      </trkpt>
      <trkpt lat="42.64952333" lon="-2.7763">
        <ele>585.0</ele>
        <time>2021-10-22T08:36:18.000Z</time>
      </trkpt>
      <trkpt lat="42.64952333" lon="-2.776285">
        <ele>585.0</ele>
        <time>2021-10-22T08:36:19.000Z</time>
      </trkpt>
      <trkpt lat="42.64952333" lon="-2.77627167">
        <ele>585.0</ele>
        <time>2021-10-22T08:36:20.000Z</time>
      </trkpt>
      <trkpt lat="42.649525" lon="-2.77625833">
        <ele>585.0</ele>
        <time>2021-10-22T08:36:21.000Z</time>
      </trkpt>
      <trkpt lat="42.64952667" lon="-2.77624167">
        <ele>585.0</ele>
        <time>2021-10-22T08:36:22.000Z</time>
      </trkpt>
      <trkpt lat="42.64952833" lon="-2.77622333">
        <ele>585.0</ele>
        <time>2021-10-22T08:36:23.000Z</time>
      </trkpt>
      <trkpt lat="42.64952833" lon="-2.77620833">
        <ele>585.0</ele>
        <time>2021-10-22T08:36:24.000Z</time>
      </trkpt>
      <trkpt lat="42.64953" lon="-2.77619167">
        <ele>585.0</ele>
        <time>2021-10-22T08:36:25.000Z</time>
      </trkpt>
      <trkpt lat="42.64953333" lon="-2.77617">
        <ele>585.0</ele>
        <time>2021-10-22T08:36:26.000Z</time>
      </trkpt>
      <trkpt lat="42.64953667" lon="-2.77615">
        <ele>585.0</ele>
        <time>2021-10-22T08:36:27.000Z</time>
      </trkpt>
      <trkpt lat="42.64954" lon="-2.77613333">
        <ele>585.0</ele>
        <time>2021-10-22T08:36:28.000Z</time>
      </trkpt>
      <trkpt lat="42.64954333" lon="-2.77611333">
        <ele>585.0</ele>
        <time>2021-10-22T08:36:29.000Z</time>
      </trkpt>
      <trkpt lat="42.64954833" lon="-2.776095">
        <ele>585.0</ele>
        <time>2021-10-22T08:36:30.000Z</time>
      </trkpt>
      <trkpt lat="42.64955333" lon="-2.77607833">
        <ele>586.0</ele>
        <time>2021-10-22T08:36:31.000Z</time>
      </trkpt>
      <trkpt lat="42.64956" lon="-2.77606167">
        <ele>586.0</ele>
        <time>2021-10-22T08:36:32.000Z</time>
      </trkpt>
      <trkpt lat="42.64956833" lon="-2.77604667">
        <ele>586.0</ele>
        <time>2021-10-22T08:36:33.000Z</time>
      </trkpt>
      <trkpt lat="42.64957333" lon="-2.77603167">
        <ele>586.0</ele>
        <time>2021-10-22T08:36:34.000Z</time>
      </trkpt>
      <trkpt lat="42.64958" lon="-2.776015">
        <ele>586.0</ele>
        <time>2021-10-22T08:36:35.000Z</time>
      </trkpt>
      <trkpt lat="42.64958667" lon="-2.775995">
        <ele>586.0</ele>
        <time>2021-10-22T08:36:36.000Z</time>
      </trkpt>
      <trkpt lat="42.64959167" lon="-2.77597667">
        <ele>586.0</ele>
        <time>2021-10-22T08:36:37.000Z</time>
      </trkpt>
      <trkpt lat="42.64959667" lon="-2.77595833">
        <ele>586.0</ele>
        <time>2021-10-22T08:36:38.000Z</time>
      </trkpt>
      <trkpt lat="42.6496" lon="-2.77594167">
        <ele>586.0</ele>
        <time>2021-10-22T08:36:39.000Z</time>
      </trkpt>
      <trkpt lat="42.64960667" lon="-2.77592667">
        <ele>586.0</ele>
        <time>2021-10-22T08:36:40.000Z</time>
      </trkpt>
      <trkpt lat="42.64961167" lon="-2.77591">
        <ele>586.0</ele>
        <time>2021-10-22T08:36:41.000Z</time>
      </trkpt>
      <trkpt lat="42.649615" lon="-2.77589333">
        <ele>586.0</ele>
        <time>2021-10-22T08:36:42.000Z</time>
      </trkpt>
      <trkpt lat="42.64962" lon="-2.77588167">
        <ele>586.0</ele>
        <time>2021-10-22T08:36:43.000Z</time>
      </trkpt>
      <trkpt lat="42.64962667" lon="-2.775865">
        <ele>586.0</ele>
        <time>2021-10-22T08:36:44.000Z</time>
      </trkpt>
      <trkpt lat="42.64963333" lon="-2.77585">
        <ele>586.0</ele>
        <time>2021-10-22T08:36:45.000Z</time>
      </trkpt>
      <trkpt lat="42.64964" lon="-2.77583333">
        <ele>586.0</ele>
        <time>2021-10-22T08:36:46.000Z</time>
      </trkpt>
      <trkpt lat="42.649645" lon="-2.77581833">
        <ele>587.0</ele>
        <time>2021-10-22T08:36:47.000Z</time>
      </trkpt>
      <trkpt lat="42.64964833" lon="-2.775805">
        <ele>586.0</ele>
        <time>2021-10-22T08:36:48.000Z</time>
      </trkpt>
      <trkpt lat="42.64965333" lon="-2.77578667">
        <ele>586.0</ele>
        <time>2021-10-22T08:36:49.000Z</time>
      </trkpt>
      <trkpt lat="42.64965667" lon="-2.77576833">
        <ele>586.0</ele>
        <time>2021-10-22T08:36:50.000Z</time>
      </trkpt>
      <trkpt lat="42.64965833" lon="-2.77575">
        <ele>587.0</ele>
        <time>2021-10-22T08:36:51.000Z</time>
      </trkpt>
      <trkpt lat="42.64965833" lon="-2.775735">
        <ele>587.0</ele>
        <time>2021-10-22T08:36:52.000Z</time>
      </trkpt>
      <trkpt lat="42.64965833" lon="-2.77572">
        <ele>587.0</ele>
        <time>2021-10-22T08:36:53.000Z</time>
      </trkpt>
      <trkpt lat="42.64965833" lon="-2.775705">
        <ele>587.0</ele>
        <time>2021-10-22T08:36:54.000Z</time>
      </trkpt>
      <trkpt lat="42.64965333" lon="-2.77568833">
        <ele>587.0</ele>
        <time>2021-10-22T08:36:55.000Z</time>
      </trkpt>
      <trkpt lat="42.64964667" lon="-2.77567">
        <ele>587.0</ele>
        <time>2021-10-22T08:36:56.000Z</time>
      </trkpt>
      <trkpt lat="42.64964" lon="-2.77564833">
        <ele>586.0</ele>
        <time>2021-10-22T08:36:57.000Z</time>
      </trkpt>
      <trkpt lat="42.649635" lon="-2.775625">
        <ele>586.0</ele>
        <time>2021-10-22T08:36:58.000Z</time>
      </trkpt>
      <trkpt lat="42.64962833" lon="-2.775605">
        <ele>586.0</ele>
        <time>2021-10-22T08:36:59.000Z</time>
      </trkpt>
      <trkpt lat="42.64962333" lon="-2.77558833">
        <ele>586.0</ele>
        <time>2021-10-22T08:37:00.000Z</time>
      </trkpt>
      <trkpt lat="42.64962" lon="-2.77557333">
        <ele>586.0</ele>
        <time>2021-10-22T08:37:01.000Z</time>
      </trkpt>
      <trkpt lat="42.64961667" lon="-2.77555667">
        <ele>586.0</ele>
        <time>2021-10-22T08:37:02.000Z</time>
      </trkpt>
      <trkpt lat="42.64961333" lon="-2.77554">
        <ele>586.0</ele>
        <time>2021-10-22T08:37:03.000Z</time>
      </trkpt>
      <trkpt lat="42.64961167" lon="-2.77552333">
        <ele>586.0</ele>
        <time>2021-10-22T08:37:04.000Z</time>
      </trkpt>
      <trkpt lat="42.64960667" lon="-2.77550667">
        <ele>586.0</ele>
        <time>2021-10-22T08:37:05.000Z</time>
      </trkpt>
      <trkpt lat="42.6496" lon="-2.77548667">
        <ele>586.0</ele>
        <time>2021-10-22T08:37:06.000Z</time>
      </trkpt>
      <trkpt lat="42.649595" lon="-2.775465">
        <ele>586.0</ele>
        <time>2021-10-22T08:37:07.000Z</time>
      </trkpt>
      <trkpt lat="42.64959167" lon="-2.77544667">
        <ele>586.0</ele>
        <time>2021-10-22T08:37:08.000Z</time>
      </trkpt>
      <trkpt lat="42.64958667" lon="-2.77543">
        <ele>586.0</ele>
        <time>2021-10-22T08:37:09.000Z</time>
      </trkpt>
      <trkpt lat="42.64958167" lon="-2.775415">
        <ele>586.0</ele>
        <time>2021-10-22T08:37:10.000Z</time>
      </trkpt>
      <trkpt lat="42.649575" lon="-2.77540167">
        <ele>586.0</ele>
        <time>2021-10-22T08:37:11.000Z</time>
      </trkpt>
      <trkpt lat="42.64957167" lon="-2.77538667">
        <ele>587.0</ele>
        <time>2021-10-22T08:37:12.000Z</time>
      </trkpt>
      <trkpt lat="42.64956833" lon="-2.77537167">
        <ele>587.0</ele>
        <time>2021-10-22T08:37:13.000Z</time>
      </trkpt>
      <trkpt lat="42.64956667" lon="-2.77535833">
        <ele>587.0</ele>
        <time>2021-10-22T08:37:14.000Z</time>
      </trkpt>
      <trkpt lat="42.64956333" lon="-2.77534333">
        <ele>587.0</ele>
        <time>2021-10-22T08:37:15.000Z</time>
      </trkpt>
      <trkpt lat="42.64956" lon="-2.77532833">
        <ele>587.0</ele>
        <time>2021-10-22T08:37:16.000Z</time>
      </trkpt>
      <trkpt lat="42.64955667" lon="-2.77531167">
        <ele>587.0</ele>
        <time>2021-10-22T08:37:17.000Z</time>
      </trkpt>
      <trkpt lat="42.64955333" lon="-2.775295">
        <ele>587.0</ele>
        <time>2021-10-22T08:37:18.000Z</time>
      </trkpt>
      <trkpt lat="42.64955167" lon="-2.775275">
        <ele>587.0</ele>
        <time>2021-10-22T08:37:19.000Z</time>
      </trkpt>
      <trkpt lat="42.64955" lon="-2.77525333">
        <ele>587.0</ele>
        <time>2021-10-22T08:37:20.000Z</time>
      </trkpt>
      <trkpt lat="42.64954667" lon="-2.77523667">
        <ele>587.0</ele>
        <time>2021-10-22T08:37:21.000Z</time>
      </trkpt>
      <trkpt lat="42.649545" lon="-2.77522">
        <ele>587.0</ele>
        <time>2021-10-22T08:37:22.000Z</time>
      </trkpt>
      <trkpt lat="42.64954333" lon="-2.775205">
        <ele>587.0</ele>
        <time>2021-10-22T08:37:23.000Z</time>
      </trkpt>
      <trkpt lat="42.64954333" lon="-2.77519167">
        <ele>587.0</ele>
        <time>2021-10-22T08:37:24.000Z</time>
      </trkpt>
      <trkpt lat="42.64954333" lon="-2.77517667">
        <ele>587.0</ele>
        <time>2021-10-22T08:37:25.000Z</time>
      </trkpt>
      <trkpt lat="42.64954333" lon="-2.77516333">
        <ele>587.0</ele>
        <time>2021-10-22T08:37:26.000Z</time>
      </trkpt>
      <trkpt lat="42.64954333" lon="-2.775155">
        <ele>587.0</ele>
        <time>2021-10-22T08:37:27.000Z</time>
      </trkpt>
      <trkpt lat="42.64954" lon="-2.77514667">
        <ele>587.0</ele>
        <time>2021-10-22T08:37:28.000Z</time>
      </trkpt>
      <trkpt lat="42.64953833" lon="-2.775135">
        <ele>587.0</ele>
        <time>2021-10-22T08:37:29.000Z</time>
      </trkpt>
      <trkpt lat="42.649535" lon="-2.775125">
        <ele>587.0</ele>
        <time>2021-10-22T08:37:30.000Z</time>
      </trkpt>
      <trkpt lat="42.64953167" lon="-2.77511333">
        <ele>587.0</ele>
        <time>2021-10-22T08:37:31.000Z</time>
      </trkpt>
      <trkpt lat="42.64952833" lon="-2.7751">
        <ele>587.0</ele>
        <time>2021-10-22T08:37:32.000Z</time>
      </trkpt>
      <trkpt lat="42.649525" lon="-2.77508333">
        <ele>587.0</ele>
        <time>2021-10-22T08:37:33.000Z</time>
      </trkpt>
      <trkpt lat="42.64952" lon="-2.77506833">
        <ele>587.0</ele>
        <time>2021-10-22T08:37:34.000Z</time>
      </trkpt>
      <trkpt lat="42.64951667" lon="-2.77505333">
        <ele>588.0</ele>
        <time>2021-10-22T08:37:35.000Z</time>
      </trkpt>
      <trkpt lat="42.64951333" lon="-2.77504">
        <ele>588.0</ele>
        <time>2021-10-22T08:37:36.000Z</time>
      </trkpt>
      <trkpt lat="42.64950833" lon="-2.77502333">
        <ele>588.0</ele>
        <time>2021-10-22T08:37:37.000Z</time>
      </trkpt>
      <trkpt lat="42.64950167" lon="-2.77500833">
        <ele>588.0</ele>
        <time>2021-10-22T08:37:38.000Z</time>
      </trkpt>
      <trkpt lat="42.649495" lon="-2.774995">
        <ele>588.0</ele>
        <time>2021-10-22T08:37:39.000Z</time>
      </trkpt>
      <trkpt lat="42.64948833" lon="-2.77498167">
        <ele>588.0</ele>
        <time>2021-10-22T08:37:40.000Z</time>
      </trkpt>
      <trkpt lat="42.64948167" lon="-2.77496667">
        <ele>588.0</ele>
        <time>2021-10-22T08:37:41.000Z</time>
      </trkpt>
      <trkpt lat="42.64947667" lon="-2.77495167">
        <ele>588.0</ele>
        <time>2021-10-22T08:37:42.000Z</time>
      </trkpt>
      <trkpt lat="42.64947" lon="-2.77493833">
        <ele>588.0</ele>
        <time>2021-10-22T08:37:43.000Z</time>
      </trkpt>
      <trkpt lat="42.64946333" lon="-2.774925">
        <ele>588.0</ele>
        <time>2021-10-22T08:37:44.000Z</time>
      </trkpt>
      <trkpt lat="42.64945667" lon="-2.77491167">
        <ele>588.0</ele>
        <time>2021-10-22T08:37:45.000Z</time>
      </trkpt>
      <trkpt lat="42.64945167" lon="-2.7749">
        <ele>588.0</ele>
        <time>2021-10-22T08:37:46.000Z</time>
      </trkpt>
      <trkpt lat="42.64944667" lon="-2.77489">
        <ele>588.0</ele>
        <time>2021-10-22T08:37:47.000Z</time>
      </trkpt>
      <trkpt lat="42.649445" lon="-2.77487833">
        <ele>588.0</ele>
        <time>2021-10-22T08:37:48.000Z</time>
      </trkpt>
      <trkpt lat="42.649445" lon="-2.77487">
        <ele>588.0</ele>
        <time>2021-10-22T08:37:49.000Z</time>
      </trkpt>
      <trkpt lat="42.64944333" lon="-2.77485667">
        <ele>588.0</ele>
        <time>2021-10-22T08:37:50.000Z</time>
      </trkpt>
      <trkpt lat="42.64944" lon="-2.77484333">
        <ele>588.0</ele>
        <time>2021-10-22T08:37:51.000Z</time>
      </trkpt>
      <trkpt lat="42.64943833" lon="-2.77482833">
        <ele>589.0</ele>
        <time>2021-10-22T08:37:52.000Z</time>
      </trkpt>
      <trkpt lat="42.64943667" lon="-2.774815">
        <ele>589.0</ele>
        <time>2021-10-22T08:37:53.000Z</time>
      </trkpt>
      <trkpt lat="42.64943667" lon="-2.7748">
        <ele>589.0</ele>
        <time>2021-10-22T08:37:54.000Z</time>
      </trkpt>
      <trkpt lat="42.64943667" lon="-2.77478333">
        <ele>589.0</ele>
        <time>2021-10-22T08:37:55.000Z</time>
      </trkpt>
      <trkpt lat="42.64943667" lon="-2.77477">
        <ele>589.0</ele>
        <time>2021-10-22T08:37:56.000Z</time>
      </trkpt>
      <trkpt lat="42.64943667" lon="-2.774755">
        <ele>589.0</ele>
        <time>2021-10-22T08:37:57.000Z</time>
      </trkpt>
      <trkpt lat="42.64943833" lon="-2.77474167">
        <ele>589.0</ele>
        <time>2021-10-22T08:37:58.000Z</time>
      </trkpt>
      <trkpt lat="42.64944" lon="-2.77473167">
        <ele>589.0</ele>
        <time>2021-10-22T08:37:59.000Z</time>
      </trkpt>
      <trkpt lat="42.64944" lon="-2.77472833">
        <ele>589.0</ele>
        <time>2021-10-22T08:38:00.000Z</time>
      </trkpt>
      <trkpt lat="42.64944167" lon="-2.77472167">
        <ele>589.0</ele>
        <time>2021-10-22T08:38:01.000Z</time>
      </trkpt>
      <trkpt lat="42.64944167" lon="-2.77471167">
        <ele>589.0</ele>
        <time>2021-10-22T08:38:02.000Z</time>
      </trkpt>
      <trkpt lat="42.64944333" lon="-2.77470167">
        <ele>589.0</ele>
        <time>2021-10-22T08:38:03.000Z</time>
      </trkpt>
      <trkpt lat="42.64944667" lon="-2.77469">
        <ele>589.0</ele>
        <time>2021-10-22T08:38:04.000Z</time>
      </trkpt>
      <trkpt lat="42.64944833" lon="-2.774675">
        <ele>589.0</ele>
        <time>2021-10-22T08:38:05.000Z</time>
      </trkpt>
      <trkpt lat="42.64945333" lon="-2.77465833">
        <ele>589.0</ele>
        <time>2021-10-22T08:38:06.000Z</time>
      </trkpt>
      <trkpt lat="42.64946" lon="-2.77464">
        <ele>589.0</ele>
        <time>2021-10-22T08:38:07.000Z</time>
      </trkpt>
      <trkpt lat="42.649465" lon="-2.77462333">
        <ele>589.0</ele>
        <time>2021-10-22T08:38:08.000Z</time>
      </trkpt>
      <trkpt lat="42.64946833" lon="-2.77460667">
        <ele>589.0</ele>
        <time>2021-10-22T08:38:09.000Z</time>
      </trkpt>
      <trkpt lat="42.64947167" lon="-2.77459">
        <ele>589.0</ele>
        <time>2021-10-22T08:38:10.000Z</time>
      </trkpt>
      <trkpt lat="42.64947333" lon="-2.77457333">
        <ele>589.0</ele>
        <time>2021-10-22T08:38:11.000Z</time>
      </trkpt>
      <trkpt lat="42.649475" lon="-2.774555">
        <ele>589.0</ele>
        <time>2021-10-22T08:38:12.000Z</time>
      </trkpt>
      <trkpt lat="42.64947667" lon="-2.77454">
        <ele>589.0</ele>
        <time>2021-10-22T08:38:13.000Z</time>
      </trkpt>
      <trkpt lat="42.64947833" lon="-2.77452667">
        <ele>589.0</ele>
        <time>2021-10-22T08:38:14.000Z</time>
      </trkpt>
      <trkpt lat="42.64948" lon="-2.77451167">
        <ele>589.0</ele>
        <time>2021-10-22T08:38:15.000Z</time>
      </trkpt>
      <trkpt lat="42.64947833" lon="-2.77451">
        <ele>589.0</ele>
        <time>2021-10-22T08:38:16.000Z</time>
      </trkpt>
      <trkpt lat="42.64947667" lon="-2.7745">
        <ele>589.0</ele>
        <time>2021-10-22T08:38:17.000Z</time>
      </trkpt>
      <trkpt lat="42.64947833" lon="-2.77449">
        <ele>589.0</ele>
        <time>2021-10-22T08:38:18.000Z</time>
      </trkpt>
      <trkpt lat="42.64948" lon="-2.77447833">
        <ele>589.0</ele>
        <time>2021-10-22T08:38:19.000Z</time>
      </trkpt>
      <trkpt lat="42.64948167" lon="-2.774465">
        <ele>590.0</ele>
        <time>2021-10-22T08:38:20.000Z</time>
      </trkpt>
      <trkpt lat="42.649485" lon="-2.77445167">
        <ele>590.0</ele>
        <time>2021-10-22T08:38:21.000Z</time>
      </trkpt>
      <trkpt lat="42.649485" lon="-2.77444">
        <ele>590.0</ele>
        <time>2021-10-22T08:38:22.000Z</time>
      </trkpt>
      <trkpt lat="42.64948667" lon="-2.77442667">
        <ele>590.0</ele>
        <time>2021-10-22T08:38:23.000Z</time>
      </trkpt>
      <trkpt lat="42.64948667" lon="-2.77441">
        <ele>590.0</ele>
        <time>2021-10-22T08:38:24.000Z</time>
      </trkpt>
      <trkpt lat="42.64949" lon="-2.77439833">
        <ele>590.0</ele>
        <time>2021-10-22T08:38:25.000Z</time>
      </trkpt>
      <trkpt lat="42.64949333" lon="-2.77438667">
        <ele>590.0</ele>
        <time>2021-10-22T08:38:26.000Z</time>
      </trkpt>
      <trkpt lat="42.64949333" lon="-2.774375">
        <ele>590.0</ele>
        <time>2021-10-22T08:38:27.000Z</time>
      </trkpt>
      <trkpt lat="42.649495" lon="-2.77436333">
        <ele>590.0</ele>
        <time>2021-10-22T08:38:28.000Z</time>
      </trkpt>
      <trkpt lat="42.64949667" lon="-2.77435">
        <ele>590.0</ele>
        <time>2021-10-22T08:38:29.000Z</time>
      </trkpt>
      <trkpt lat="42.64950167" lon="-2.774335">
        <ele>590.0</ele>
        <time>2021-10-22T08:38:30.000Z</time>
      </trkpt>
      <trkpt lat="42.64950333" lon="-2.77432667">
        <ele>590.0</ele>
        <time>2021-10-22T08:38:31.000Z</time>
      </trkpt>
      <trkpt lat="42.64950667" lon="-2.77431667">
        <ele>590.0</ele>
        <time>2021-10-22T08:38:32.000Z</time>
      </trkpt>
      <trkpt lat="42.64950833" lon="-2.77430667">
        <ele>590.0</ele>
        <time>2021-10-22T08:38:33.000Z</time>
      </trkpt>
      <trkpt lat="42.64951167" lon="-2.774295">
        <ele>590.0</ele>
        <time>2021-10-22T08:38:34.000Z</time>
      </trkpt>
      <trkpt lat="42.64951333" lon="-2.774285">
        <ele>590.0</ele>
        <time>2021-10-22T08:38:35.000Z</time>
      </trkpt>
      <trkpt lat="42.64951667" lon="-2.774275">
        <ele>590.0</ele>
        <time>2021-10-22T08:38:36.000Z</time>
      </trkpt>
      <trkpt lat="42.64952167" lon="-2.77426333">
        <ele>590.0</ele>
        <time>2021-10-22T08:38:37.000Z</time>
      </trkpt>
      <trkpt lat="42.64952833" lon="-2.77425">
        <ele>590.0</ele>
        <time>2021-10-22T08:38:38.000Z</time>
      </trkpt>
      <trkpt lat="42.649535" lon="-2.77424">
        <ele>591.0</ele>
        <time>2021-10-22T08:38:39.000Z</time>
      </trkpt>
      <trkpt lat="42.64954167" lon="-2.77422833">
        <ele>591.0</ele>
        <time>2021-10-22T08:38:40.000Z</time>
      </trkpt>
      <trkpt lat="42.64954833" lon="-2.77421667">
        <ele>591.0</ele>
        <time>2021-10-22T08:38:41.000Z</time>
      </trkpt>
      <trkpt lat="42.649555" lon="-2.77420167">
        <ele>591.0</ele>
        <time>2021-10-22T08:38:42.000Z</time>
      </trkpt>
      <trkpt lat="42.64956" lon="-2.77419">
        <ele>591.0</ele>
        <time>2021-10-22T08:38:43.000Z</time>
      </trkpt>
      <trkpt lat="42.64956667" lon="-2.77417833">
        <ele>591.0</ele>
        <time>2021-10-22T08:38:44.000Z</time>
      </trkpt>
      <trkpt lat="42.64957167" lon="-2.77416667">
        <ele>591.0</ele>
        <time>2021-10-22T08:38:45.000Z</time>
      </trkpt>
      <trkpt lat="42.649575" lon="-2.774155">
        <ele>591.0</ele>
        <time>2021-10-22T08:38:46.000Z</time>
      </trkpt>
      <trkpt lat="42.64957833" lon="-2.77414333">
        <ele>591.0</ele>
        <time>2021-10-22T08:38:47.000Z</time>
      </trkpt>
      <trkpt lat="42.64958333" lon="-2.77413">
        <ele>591.0</ele>
        <time>2021-10-22T08:38:48.000Z</time>
      </trkpt>
      <trkpt lat="42.64959" lon="-2.77411667">
        <ele>591.0</ele>
        <time>2021-10-22T08:38:49.000Z</time>
      </trkpt>
      <trkpt lat="42.649595" lon="-2.77410333">
        <ele>591.0</ele>
        <time>2021-10-22T08:38:50.000Z</time>
      </trkpt>
      <trkpt lat="42.64959833" lon="-2.77409">
        <ele>591.0</ele>
        <time>2021-10-22T08:38:51.000Z</time>
      </trkpt>
      <trkpt lat="42.649605" lon="-2.77407667">
        <ele>591.0</ele>
        <time>2021-10-22T08:38:52.000Z</time>
      </trkpt>
      <trkpt lat="42.64960833" lon="-2.77406333">
        <ele>592.0</ele>
        <time>2021-10-22T08:38:53.000Z</time>
      </trkpt>
      <trkpt lat="42.649615" lon="-2.77405167">
        <ele>592.0</ele>
        <time>2021-10-22T08:38:54.000Z</time>
      </trkpt>
      <trkpt lat="42.64962" lon="-2.77404">
        <ele>592.0</ele>
        <time>2021-10-22T08:38:55.000Z</time>
      </trkpt>
      <trkpt lat="42.64962333" lon="-2.77402833">
        <ele>592.0</ele>
        <time>2021-10-22T08:38:56.000Z</time>
      </trkpt>
      <trkpt lat="42.64962667" lon="-2.77401333">
        <ele>592.0</ele>
        <time>2021-10-22T08:38:57.000Z</time>
      </trkpt>
      <trkpt lat="42.64962833" lon="-2.77399833">
        <ele>592.0</ele>
        <time>2021-10-22T08:38:58.000Z</time>
      </trkpt>
      <trkpt lat="42.64963" lon="-2.773985">
        <ele>592.0</ele>
        <time>2021-10-22T08:38:59.000Z</time>
      </trkpt>
      <trkpt lat="42.64963333" lon="-2.77397">
        <ele>592.0</ele>
        <time>2021-10-22T08:39:00.000Z</time>
      </trkpt>
      <trkpt lat="42.64964" lon="-2.773955">
        <ele>593.0</ele>
        <time>2021-10-22T08:39:01.000Z</time>
      </trkpt>
      <trkpt lat="42.64964333" lon="-2.77394">
        <ele>593.0</ele>
        <time>2021-10-22T08:39:02.000Z</time>
      </trkpt>
      <trkpt lat="42.64965" lon="-2.773925">
        <ele>593.0</ele>
        <time>2021-10-22T08:39:03.000Z</time>
      </trkpt>
      <trkpt lat="42.64965667" lon="-2.77391">
        <ele>593.0</ele>
        <time>2021-10-22T08:39:04.000Z</time>
      </trkpt>
      <trkpt lat="42.64966333" lon="-2.77389667">
        <ele>593.0</ele>
        <time>2021-10-22T08:39:05.000Z</time>
      </trkpt>
      <trkpt lat="42.64966667" lon="-2.77388667">
        <ele>593.0</ele>
        <time>2021-10-22T08:39:06.000Z</time>
      </trkpt>
      <trkpt lat="42.64967" lon="-2.77387667">
        <ele>593.0</ele>
        <time>2021-10-22T08:39:07.000Z</time>
      </trkpt>
      <trkpt lat="42.64967333" lon="-2.77386167">
        <ele>593.0</ele>
        <time>2021-10-22T08:39:08.000Z</time>
      </trkpt>
      <trkpt lat="42.64967667" lon="-2.77384833">
        <ele>593.0</ele>
        <time>2021-10-22T08:39:09.000Z</time>
      </trkpt>
      <trkpt lat="42.64968" lon="-2.77383333">
        <ele>593.0</ele>
        <time>2021-10-22T08:39:10.000Z</time>
      </trkpt>
      <trkpt lat="42.64968167" lon="-2.77381667">
        <ele>593.0</ele>
        <time>2021-10-22T08:39:11.000Z</time>
      </trkpt>
      <trkpt lat="42.64968" lon="-2.77380167">
        <ele>593.0</ele>
        <time>2021-10-22T08:39:12.000Z</time>
      </trkpt>
      <trkpt lat="42.64968" lon="-2.77378833">
        <ele>593.0</ele>
        <time>2021-10-22T08:39:13.000Z</time>
      </trkpt>
      <trkpt lat="42.64967833" lon="-2.77377167">
        <ele>593.0</ele>
        <time>2021-10-22T08:39:14.000Z</time>
      </trkpt>
      <trkpt lat="42.64967833" lon="-2.77375667">
        <ele>593.0</ele>
        <time>2021-10-22T08:39:15.000Z</time>
      </trkpt>
      <trkpt lat="42.64967833" lon="-2.77374167">
        <ele>594.0</ele>
        <time>2021-10-22T08:39:16.000Z</time>
      </trkpt>
      <trkpt lat="42.64967833" lon="-2.77372667">
        <ele>594.0</ele>
        <time>2021-10-22T08:39:17.000Z</time>
      </trkpt>
      <trkpt lat="42.64967667" lon="-2.773715">
        <ele>594.0</ele>
        <time>2021-10-22T08:39:18.000Z</time>
      </trkpt>
      <trkpt lat="42.649675" lon="-2.773705">
        <ele>594.0</ele>
        <time>2021-10-22T08:39:19.000Z</time>
      </trkpt>
      <trkpt lat="42.64967667" lon="-2.77369667">
        <ele>594.0</ele>
        <time>2021-10-22T08:39:20.000Z</time>
      </trkpt>
      <trkpt lat="42.64967667" lon="-2.773685">
        <ele>594.0</ele>
        <time>2021-10-22T08:39:21.000Z</time>
      </trkpt>
      <trkpt lat="42.649675" lon="-2.77367333">
        <ele>594.0</ele>
        <time>2021-10-22T08:39:22.000Z</time>
      </trkpt>
      <trkpt lat="42.64967333" lon="-2.77366167">
        <ele>594.0</ele>
        <time>2021-10-22T08:39:23.000Z</time>
      </trkpt>
      <trkpt lat="42.64967" lon="-2.77364833">
        <ele>594.0</ele>
        <time>2021-10-22T08:39:24.000Z</time>
      </trkpt>
      <trkpt lat="42.64966833" lon="-2.77363167">
        <ele>594.0</ele>
        <time>2021-10-22T08:39:25.000Z</time>
      </trkpt>
      <trkpt lat="42.64967" lon="-2.77361667">
        <ele>595.0</ele>
        <time>2021-10-22T08:39:26.000Z</time>
      </trkpt>
      <trkpt lat="42.64967" lon="-2.77360167">
        <ele>595.0</ele>
        <time>2021-10-22T08:39:27.000Z</time>
      </trkpt>
      <trkpt lat="42.64967167" lon="-2.77358667">
        <ele>595.0</ele>
        <time>2021-10-22T08:39:28.000Z</time>
      </trkpt>
      <trkpt lat="42.64967333" lon="-2.77357">
        <ele>595.0</ele>
        <time>2021-10-22T08:39:29.000Z</time>
      </trkpt>
      <trkpt lat="42.649675" lon="-2.77355333">
        <ele>595.0</ele>
        <time>2021-10-22T08:39:30.000Z</time>
      </trkpt>
      <trkpt lat="42.64967667" lon="-2.77353833">
        <ele>595.0</ele>
        <time>2021-10-22T08:39:31.000Z</time>
      </trkpt>
      <trkpt lat="42.64967833" lon="-2.77352667">
        <ele>595.0</ele>
        <time>2021-10-22T08:39:32.000Z</time>
      </trkpt>
      <trkpt lat="42.64968" lon="-2.773515">
        <ele>595.0</ele>
        <time>2021-10-22T08:39:33.000Z</time>
      </trkpt>
      <trkpt lat="42.64968333" lon="-2.77350333">
        <ele>595.0</ele>
        <time>2021-10-22T08:39:34.000Z</time>
      </trkpt>
      <trkpt lat="42.64968667" lon="-2.77348833">
        <ele>595.0</ele>
        <time>2021-10-22T08:39:35.000Z</time>
      </trkpt>
      <trkpt lat="42.64969" lon="-2.77347167">
        <ele>595.0</ele>
        <time>2021-10-22T08:39:36.000Z</time>
      </trkpt>
      <trkpt lat="42.64969333" lon="-2.77345667">
        <ele>595.0</ele>
        <time>2021-10-22T08:39:37.000Z</time>
      </trkpt>
      <trkpt lat="42.64969667" lon="-2.77344167">
        <ele>595.0</ele>
        <time>2021-10-22T08:39:38.000Z</time>
      </trkpt>
      <trkpt lat="42.6497" lon="-2.77342333">
        <ele>595.0</ele>
        <time>2021-10-22T08:39:39.000Z</time>
      </trkpt>
      <trkpt lat="42.649705" lon="-2.77340833">
        <ele>596.0</ele>
        <time>2021-10-22T08:39:40.000Z</time>
      </trkpt>
      <trkpt lat="42.64970833" lon="-2.77339333">
        <ele>596.0</ele>
        <time>2021-10-22T08:39:41.000Z</time>
      </trkpt>
      <trkpt lat="42.64971167" lon="-2.77337833">
        <ele>596.0</ele>
        <time>2021-10-22T08:39:42.000Z</time>
      </trkpt>
      <trkpt lat="42.64971333" lon="-2.77336">
        <ele>596.0</ele>
        <time>2021-10-22T08:39:43.000Z</time>
      </trkpt>
      <trkpt lat="42.64971667" lon="-2.77334333">
        <ele>596.0</ele>
        <time>2021-10-22T08:39:44.000Z</time>
      </trkpt>
      <trkpt lat="42.64971833" lon="-2.77332667">
        <ele>596.0</ele>
        <time>2021-10-22T08:39:45.000Z</time>
      </trkpt>
      <trkpt lat="42.64972" lon="-2.77331333">
        <ele>596.0</ele>
        <time>2021-10-22T08:39:46.000Z</time>
      </trkpt>
      <trkpt lat="42.64972" lon="-2.7733">
        <ele>597.0</ele>
        <time>2021-10-22T08:39:47.000Z</time>
      </trkpt>
      <trkpt lat="42.64972" lon="-2.773285">
        <ele>597.0</ele>
        <time>2021-10-22T08:39:48.000Z</time>
      </trkpt>
      <trkpt lat="42.64972" lon="-2.77327">
        <ele>597.0</ele>
        <time>2021-10-22T08:39:49.000Z</time>
      </trkpt>
      <trkpt lat="42.64972167" lon="-2.773255">
        <ele>597.0</ele>
        <time>2021-10-22T08:39:50.000Z</time>
      </trkpt>
      <trkpt lat="42.64972167" lon="-2.77324">
        <ele>597.0</ele>
        <time>2021-10-22T08:39:51.000Z</time>
      </trkpt>
      <trkpt lat="42.64972167" lon="-2.77322667">
        <ele>597.0</ele>
        <time>2021-10-22T08:39:52.000Z</time>
      </trkpt>
      <trkpt lat="42.64972333" lon="-2.77321167">
        <ele>598.0</ele>
        <time>2021-10-22T08:39:53.000Z</time>
      </trkpt>
      <trkpt lat="42.64972333" lon="-2.77319333">
        <ele>598.0</ele>
        <time>2021-10-22T08:39:54.000Z</time>
      </trkpt>
      <trkpt lat="42.64972167" lon="-2.773175">
        <ele>598.0</ele>
        <time>2021-10-22T08:39:55.000Z</time>
      </trkpt>
      <trkpt lat="42.64972" lon="-2.77316">
        <ele>598.0</ele>
        <time>2021-10-22T08:39:56.000Z</time>
      </trkpt>
      <trkpt lat="42.64972" lon="-2.773145">
        <ele>599.0</ele>
        <time>2021-10-22T08:39:57.000Z</time>
      </trkpt>
      <trkpt lat="42.64971833" lon="-2.77313167">
        <ele>599.0</ele>
        <time>2021-10-22T08:39:58.000Z</time>
      </trkpt>
      <trkpt lat="42.64971667" lon="-2.77312">
        <ele>599.0</ele>
        <time>2021-10-22T08:39:59.000Z</time>
      </trkpt>
      <trkpt lat="42.649715" lon="-2.773105">
        <ele>599.0</ele>
        <time>2021-10-22T08:40:00.000Z</time>
      </trkpt>
      <trkpt lat="42.649715" lon="-2.77309">
        <ele>600.0</ele>
        <time>2021-10-22T08:40:01.000Z</time>
      </trkpt>
      <trkpt lat="42.649715" lon="-2.773075">
        <ele>600.0</ele>
        <time>2021-10-22T08:40:02.000Z</time>
      </trkpt>
      <trkpt lat="42.649715" lon="-2.77306">
        <ele>600.0</ele>
        <time>2021-10-22T08:40:03.000Z</time>
      </trkpt>
      <trkpt lat="42.649715" lon="-2.77304667">
        <ele>600.0</ele>
        <time>2021-10-22T08:40:04.000Z</time>
      </trkpt>
      <trkpt lat="42.649715" lon="-2.77303167">
        <ele>601.0</ele>
        <time>2021-10-22T08:40:05.000Z</time>
      </trkpt>
      <trkpt lat="42.649715" lon="-2.773015">
        <ele>601.0</ele>
        <time>2021-10-22T08:40:06.000Z</time>
      </trkpt>
      <trkpt lat="42.649715" lon="-2.77300167">
        <ele>601.0</ele>
        <time>2021-10-22T08:40:07.000Z</time>
      </trkpt>
      <trkpt lat="42.649715" lon="-2.77298667">
        <ele>601.0</ele>
        <time>2021-10-22T08:40:08.000Z</time>
      </trkpt>
      <trkpt lat="42.64971333" lon="-2.77297">
        <ele>601.0</ele>
        <time>2021-10-22T08:40:09.000Z</time>
      </trkpt>
      <trkpt lat="42.64971167" lon="-2.77295333">
        <ele>602.0</ele>
        <time>2021-10-22T08:40:10.000Z</time>
      </trkpt>
      <trkpt lat="42.64971" lon="-2.77293667">
        <ele>602.0</ele>
        <time>2021-10-22T08:40:11.000Z</time>
      </trkpt>
      <trkpt lat="42.64970833" lon="-2.77292">
        <ele>602.0</ele>
        <time>2021-10-22T08:40:12.000Z</time>
      </trkpt>
      <trkpt lat="42.64970667" lon="-2.772905">
        <ele>602.0</ele>
        <time>2021-10-22T08:40:13.000Z</time>
      </trkpt>
      <trkpt lat="42.64970333" lon="-2.77289167">
        <ele>602.0</ele>
        <time>2021-10-22T08:40:14.000Z</time>
      </trkpt>
      <trkpt lat="42.6497" lon="-2.77287667">
        <ele>603.0</ele>
        <time>2021-10-22T08:40:15.000Z</time>
      </trkpt>
      <trkpt lat="42.64969667" lon="-2.77286">
        <ele>603.0</ele>
        <time>2021-10-22T08:40:16.000Z</time>
      </trkpt>
      <trkpt lat="42.64969167" lon="-2.77284333">
        <ele>603.0</ele>
        <time>2021-10-22T08:40:17.000Z</time>
      </trkpt>
      <trkpt lat="42.64968667" lon="-2.77282667">
        <ele>603.0</ele>
        <time>2021-10-22T08:40:18.000Z</time>
      </trkpt>
      <trkpt lat="42.64968167" lon="-2.77281167">
        <ele>604.0</ele>
        <time>2021-10-22T08:40:19.000Z</time>
      </trkpt>
      <trkpt lat="42.649675" lon="-2.77279833">
        <ele>604.0</ele>
        <time>2021-10-22T08:40:20.000Z</time>
      </trkpt>
      <trkpt lat="42.64967" lon="-2.77278833">
        <ele>604.0</ele>
        <time>2021-10-22T08:40:21.000Z</time>
      </trkpt>
      <trkpt lat="42.64966333" lon="-2.77277333">
        <ele>604.0</ele>
        <time>2021-10-22T08:40:22.000Z</time>
      </trkpt>
      <trkpt lat="42.649655" lon="-2.77275667">
        <ele>605.0</ele>
        <time>2021-10-22T08:40:23.000Z</time>
      </trkpt>
      <trkpt lat="42.64965" lon="-2.77274167">
        <ele>605.0</ele>
        <time>2021-10-22T08:40:24.000Z</time>
      </trkpt>
      <trkpt lat="42.649645" lon="-2.77273">
        <ele>605.0</ele>
        <time>2021-10-22T08:40:25.000Z</time>
      </trkpt>
      <trkpt lat="42.64963833" lon="-2.77271833">
        <ele>605.0</ele>
        <time>2021-10-22T08:40:26.000Z</time>
      </trkpt>
      <trkpt lat="42.64963333" lon="-2.77270667">
        <ele>606.0</ele>
        <time>2021-10-22T08:40:27.000Z</time>
      </trkpt>
      <trkpt lat="42.649625" lon="-2.77269667">
        <ele>606.0</ele>
        <time>2021-10-22T08:40:28.000Z</time>
      </trkpt>
      <trkpt lat="42.649615" lon="-2.772685">
        <ele>606.0</ele>
        <time>2021-10-22T08:40:29.000Z</time>
      </trkpt>
      <trkpt lat="42.64960833" lon="-2.77267333">
        <ele>606.0</ele>
        <time>2021-10-22T08:40:30.000Z</time>
      </trkpt>
      <trkpt lat="42.6496" lon="-2.77265833">
        <ele>606.0</ele>
        <time>2021-10-22T08:40:31.000Z</time>
      </trkpt>
      <trkpt lat="42.64959333" lon="-2.77264333">
        <ele>607.0</ele>
        <time>2021-10-22T08:40:32.000Z</time>
      </trkpt>
      <trkpt lat="42.64958167" lon="-2.77263167">
        <ele>607.0</ele>
        <time>2021-10-22T08:40:33.000Z</time>
      </trkpt>
      <trkpt lat="42.649575" lon="-2.77262333">
        <ele>607.0</ele>
        <time>2021-10-22T08:40:34.000Z</time>
      </trkpt>
      <trkpt lat="42.64957" lon="-2.77261167">
        <ele>607.0</ele>
        <time>2021-10-22T08:40:35.000Z</time>
      </trkpt>
      <trkpt lat="42.64956333" lon="-2.7726">
        <ele>607.0</ele>
        <time>2021-10-22T08:40:36.000Z</time>
      </trkpt>
      <trkpt lat="42.64955833" lon="-2.77258667">
        <ele>608.0</ele>
        <time>2021-10-22T08:40:37.000Z</time>
      </trkpt>
      <trkpt lat="42.64955333" lon="-2.77257333">
        <ele>608.0</ele>
        <time>2021-10-22T08:40:38.000Z</time>
      </trkpt>
      <trkpt lat="42.64954667" lon="-2.77256167">
        <ele>608.0</ele>
        <time>2021-10-22T08:40:39.000Z</time>
      </trkpt>
      <trkpt lat="42.64954" lon="-2.77255">
        <ele>608.0</ele>
        <time>2021-10-22T08:40:40.000Z</time>
      </trkpt>
      <trkpt lat="42.64953333" lon="-2.77253833">
        <ele>608.0</ele>
        <time>2021-10-22T08:40:41.000Z</time>
      </trkpt>
      <trkpt lat="42.649525" lon="-2.77252833">
        <ele>609.0</ele>
        <time>2021-10-22T08:40:42.000Z</time>
      </trkpt>
      <trkpt lat="42.64951833" lon="-2.77251667">
        <ele>609.0</ele>
        <time>2021-10-22T08:40:43.000Z</time>
      </trkpt>
      <trkpt lat="42.64950833" lon="-2.77250333">
        <ele>609.0</ele>
        <time>2021-10-22T08:40:44.000Z</time>
      </trkpt>
      <trkpt lat="42.6495" lon="-2.77249">
        <ele>609.0</ele>
        <time>2021-10-22T08:40:45.000Z</time>
      </trkpt>
      <trkpt lat="42.64949333" lon="-2.77247833">
        <ele>609.0</ele>
        <time>2021-10-22T08:40:46.000Z</time>
      </trkpt>
      <trkpt lat="42.64948833" lon="-2.77246833">
        <ele>609.0</ele>
        <time>2021-10-22T08:40:47.000Z</time>
      </trkpt>
      <trkpt lat="42.64948" lon="-2.77245667">
        <ele>609.0</ele>
        <time>2021-10-22T08:40:48.000Z</time>
      </trkpt>
      <trkpt lat="42.64947167" lon="-2.772445">
        <ele>609.0</ele>
        <time>2021-10-22T08:40:49.000Z</time>
      </trkpt>
      <trkpt lat="42.64946333" lon="-2.77243167">
        <ele>609.0</ele>
        <time>2021-10-22T08:40:50.000Z</time>
      </trkpt>
      <trkpt lat="42.64945833" lon="-2.77241667">
        <ele>609.0</ele>
        <time>2021-10-22T08:40:51.000Z</time>
      </trkpt>
      <trkpt lat="42.64945167" lon="-2.77240167">
        <ele>609.0</ele>
        <time>2021-10-22T08:40:52.000Z</time>
      </trkpt>
      <trkpt lat="42.649445" lon="-2.77238333">
        <ele>609.0</ele>
        <time>2021-10-22T08:40:53.000Z</time>
      </trkpt>
      <trkpt lat="42.64943667" lon="-2.772365">
        <ele>609.0</ele>
        <time>2021-10-22T08:40:54.000Z</time>
      </trkpt>
      <trkpt lat="42.64943333" lon="-2.77234667">
        <ele>609.0</ele>
        <time>2021-10-22T08:40:55.000Z</time>
      </trkpt>
      <trkpt lat="42.64943333" lon="-2.77232833">
        <ele>610.0</ele>
        <time>2021-10-22T08:40:56.000Z</time>
      </trkpt>
      <trkpt lat="42.64943333" lon="-2.77230667">
        <ele>610.0</ele>
        <time>2021-10-22T08:40:57.000Z</time>
      </trkpt>
      <trkpt lat="42.649435" lon="-2.77229">
        <ele>610.0</ele>
        <time>2021-10-22T08:40:58.000Z</time>
      </trkpt>
      <trkpt lat="42.64943667" lon="-2.77227667">
        <ele>610.0</ele>
        <time>2021-10-22T08:40:59.000Z</time>
      </trkpt>
      <trkpt lat="42.64944" lon="-2.77226167">
        <ele>610.0</ele>
        <time>2021-10-22T08:41:00.000Z</time>
      </trkpt>
      <trkpt lat="42.649445" lon="-2.77224667">
        <ele>610.0</ele>
        <time>2021-10-22T08:41:01.000Z</time>
      </trkpt>
      <trkpt lat="42.64944833" lon="-2.77223167">
        <ele>610.0</ele>
        <time>2021-10-22T08:41:02.000Z</time>
      </trkpt>
      <trkpt lat="42.649455" lon="-2.772215">
        <ele>610.0</ele>
        <time>2021-10-22T08:41:03.000Z</time>
      </trkpt>
      <trkpt lat="42.64946167" lon="-2.77219833">
        <ele>610.0</ele>
        <time>2021-10-22T08:41:04.000Z</time>
      </trkpt>
      <trkpt lat="42.64946833" lon="-2.772185">
        <ele>610.0</ele>
        <time>2021-10-22T08:41:05.000Z</time>
      </trkpt>
      <trkpt lat="42.649475" lon="-2.77217167">
        <ele>610.0</ele>
        <time>2021-10-22T08:41:06.000Z</time>
      </trkpt>
      <trkpt lat="42.64948167" lon="-2.77215833">
        <ele>610.0</ele>
        <time>2021-10-22T08:41:07.000Z</time>
      </trkpt>
      <trkpt lat="42.64948833" lon="-2.772145">
        <ele>611.0</ele>
        <time>2021-10-22T08:41:08.000Z</time>
      </trkpt>
      <trkpt lat="42.649495" lon="-2.77213167">
        <ele>611.0</ele>
        <time>2021-10-22T08:41:09.000Z</time>
      </trkpt>
      <trkpt lat="42.64950167" lon="-2.772115">
        <ele>611.0</ele>
        <time>2021-10-22T08:41:10.000Z</time>
      </trkpt>
      <trkpt lat="42.64950833" lon="-2.7721">
        <ele>611.0</ele>
        <time>2021-10-22T08:41:11.000Z</time>
      </trkpt>
      <trkpt lat="42.649515" lon="-2.77208667">
        <ele>611.0</ele>
        <time>2021-10-22T08:41:12.000Z</time>
      </trkpt>
      <trkpt lat="42.64951833" lon="-2.77207333">
        <ele>611.0</ele>
        <time>2021-10-22T08:41:13.000Z</time>
      </trkpt>
      <trkpt lat="42.64952333" lon="-2.77206167">
        <ele>611.0</ele>
        <time>2021-10-22T08:41:14.000Z</time>
      </trkpt>
      <trkpt lat="42.64952833" lon="-2.77204833">
        <ele>612.0</ele>
        <time>2021-10-22T08:41:15.000Z</time>
      </trkpt>
      <trkpt lat="42.64952833" lon="-2.77204667">
        <ele>612.0</ele>
        <time>2021-10-22T08:41:16.000Z</time>
      </trkpt>
      <trkpt lat="42.64952833" lon="-2.77203667">
        <ele>612.0</ele>
        <time>2021-10-22T08:41:17.000Z</time>
      </trkpt>
      <trkpt lat="42.64953" lon="-2.77202333">
        <ele>612.0</ele>
        <time>2021-10-22T08:41:18.000Z</time>
      </trkpt>
      <trkpt lat="42.64953333" lon="-2.77201">
        <ele>612.0</ele>
        <time>2021-10-22T08:41:19.000Z</time>
      </trkpt>
      <trkpt lat="42.64953667" lon="-2.771995">
        <ele>612.0</ele>
        <time>2021-10-22T08:41:20.000Z</time>
      </trkpt>
      <trkpt lat="42.64954" lon="-2.77198167">
        <ele>612.0</ele>
        <time>2021-10-22T08:41:21.000Z</time>
      </trkpt>
      <trkpt lat="42.64954167" lon="-2.771965">
        <ele>612.0</ele>
        <time>2021-10-22T08:41:22.000Z</time>
      </trkpt>
      <trkpt lat="42.649545" lon="-2.77195">
        <ele>612.0</ele>
        <time>2021-10-22T08:41:23.000Z</time>
      </trkpt>
      <trkpt lat="42.64954833" lon="-2.77193833">
        <ele>612.0</ele>
        <time>2021-10-22T08:41:24.000Z</time>
      </trkpt>
      <trkpt lat="42.64954833" lon="-2.771925">
        <ele>612.0</ele>
        <time>2021-10-22T08:41:25.000Z</time>
      </trkpt>
      <trkpt lat="42.64955" lon="-2.77191">
        <ele>612.0</ele>
        <time>2021-10-22T08:41:26.000Z</time>
      </trkpt>
      <trkpt lat="42.64955167" lon="-2.771895">
        <ele>612.0</ele>
        <time>2021-10-22T08:41:27.000Z</time>
      </trkpt>
      <trkpt lat="42.649555" lon="-2.77187667">
        <ele>612.0</ele>
        <time>2021-10-22T08:41:28.000Z</time>
      </trkpt>
      <trkpt lat="42.64955667" lon="-2.77186">
        <ele>612.0</ele>
        <time>2021-10-22T08:41:29.000Z</time>
      </trkpt>
      <trkpt lat="42.64955833" lon="-2.771845">
        <ele>612.0</ele>
        <time>2021-10-22T08:41:30.000Z</time>
      </trkpt>
      <trkpt lat="42.64955833" lon="-2.77183">
        <ele>613.0</ele>
        <time>2021-10-22T08:41:31.000Z</time>
      </trkpt>
      <trkpt lat="42.64955833" lon="-2.771815">
        <ele>613.0</ele>
        <time>2021-10-22T08:41:32.000Z</time>
      </trkpt>
      <trkpt lat="42.64956" lon="-2.77179667">
        <ele>613.0</ele>
        <time>2021-10-22T08:41:33.000Z</time>
      </trkpt>
      <trkpt lat="42.64956167" lon="-2.77178167">
        <ele>613.0</ele>
        <time>2021-10-22T08:41:34.000Z</time>
      </trkpt>
      <trkpt lat="42.649565" lon="-2.77176667">
        <ele>613.0</ele>
        <time>2021-10-22T08:41:35.000Z</time>
      </trkpt>
      <trkpt lat="42.649565" lon="-2.77175167">
        <ele>613.0</ele>
        <time>2021-10-22T08:41:36.000Z</time>
      </trkpt>
      <trkpt lat="42.649565" lon="-2.771735">
        <ele>613.0</ele>
        <time>2021-10-22T08:41:37.000Z</time>
      </trkpt>
      <trkpt lat="42.649565" lon="-2.77172167">
        <ele>613.0</ele>
        <time>2021-10-22T08:41:38.000Z</time>
      </trkpt>
      <trkpt lat="42.64956667" lon="-2.771705">
        <ele>613.0</ele>
        <time>2021-10-22T08:41:39.000Z</time>
      </trkpt>
      <trkpt lat="42.64956833" lon="-2.77168833">
        <ele>613.0</ele>
        <time>2021-10-22T08:41:40.000Z</time>
      </trkpt>
      <trkpt lat="42.64957167" lon="-2.77167167">
        <ele>613.0</ele>
        <time>2021-10-22T08:41:41.000Z</time>
      </trkpt>
      <trkpt lat="42.64957333" lon="-2.77165667">
        <ele>613.0</ele>
        <time>2021-10-22T08:41:42.000Z</time>
      </trkpt>
      <trkpt lat="42.649575" lon="-2.77164333">
        <ele>613.0</ele>
        <time>2021-10-22T08:41:43.000Z</time>
      </trkpt>
      <trkpt lat="42.64957667" lon="-2.77163">
        <ele>613.0</ele>
        <time>2021-10-22T08:41:44.000Z</time>
      </trkpt>
      <trkpt lat="42.64957833" lon="-2.77161667">
        <ele>614.0</ele>
        <time>2021-10-22T08:41:45.000Z</time>
      </trkpt>
      <trkpt lat="42.64958" lon="-2.77159833">
        <ele>614.0</ele>
        <time>2021-10-22T08:41:46.000Z</time>
      </trkpt>
      <trkpt lat="42.649585" lon="-2.77158167">
        <ele>614.0</ele>
        <time>2021-10-22T08:41:47.000Z</time>
      </trkpt>
      <trkpt lat="42.64958833" lon="-2.771565">
        <ele>614.0</ele>
        <time>2021-10-22T08:41:48.000Z</time>
      </trkpt>
      <trkpt lat="42.64959167" lon="-2.77155167">
        <ele>614.0</ele>
        <time>2021-10-22T08:41:49.000Z</time>
      </trkpt>
      <trkpt lat="42.64959333" lon="-2.77153667">
        <ele>614.0</ele>
        <time>2021-10-22T08:41:50.000Z</time>
      </trkpt>
      <trkpt lat="42.64959667" lon="-2.77152">
        <ele>614.0</ele>
        <time>2021-10-22T08:41:51.000Z</time>
      </trkpt>
      <trkpt lat="42.64959833" lon="-2.771505">
        <ele>614.0</ele>
        <time>2021-10-22T08:41:52.000Z</time>
      </trkpt>
      <trkpt lat="42.64959833" lon="-2.77148833">
        <ele>614.0</ele>
        <time>2021-10-22T08:41:53.000Z</time>
      </trkpt>
      <trkpt lat="42.64960167" lon="-2.77147167">
        <ele>614.0</ele>
        <time>2021-10-22T08:41:54.000Z</time>
      </trkpt>
      <trkpt lat="42.64960667" lon="-2.77145333">
        <ele>614.0</ele>
        <time>2021-10-22T08:41:55.000Z</time>
      </trkpt>
      <trkpt lat="42.64961167" lon="-2.77143833">
        <ele>614.0</ele>
        <time>2021-10-22T08:41:56.000Z</time>
      </trkpt>
      <trkpt lat="42.64961667" lon="-2.77142333">
        <ele>614.0</ele>
        <time>2021-10-22T08:41:57.000Z</time>
      </trkpt>
      <trkpt lat="42.64962167" lon="-2.77140833">
        <ele>614.0</ele>
        <time>2021-10-22T08:41:58.000Z</time>
      </trkpt>
      <trkpt lat="42.64962667" lon="-2.771395">
        <ele>615.0</ele>
        <time>2021-10-22T08:41:59.000Z</time>
      </trkpt>
      <trkpt lat="42.64963167" lon="-2.77138">
        <ele>615.0</ele>
        <time>2021-10-22T08:42:00.000Z</time>
      </trkpt>
      <trkpt lat="42.64963833" lon="-2.77136667">
        <ele>615.0</ele>
        <time>2021-10-22T08:42:01.000Z</time>
      </trkpt>
      <trkpt lat="42.649645" lon="-2.77135167">
        <ele>615.0</ele>
        <time>2021-10-22T08:42:02.000Z</time>
      </trkpt>
      <trkpt lat="42.64965167" lon="-2.77134">
        <ele>615.0</ele>
        <time>2021-10-22T08:42:03.000Z</time>
      </trkpt>
      <trkpt lat="42.649655" lon="-2.77132667">
        <ele>615.0</ele>
        <time>2021-10-22T08:42:04.000Z</time>
      </trkpt>
      <trkpt lat="42.64965833" lon="-2.77131333">
        <ele>615.0</ele>
        <time>2021-10-22T08:42:05.000Z</time>
      </trkpt>
      <trkpt lat="42.64966667" lon="-2.77129833">
        <ele>615.0</ele>
        <time>2021-10-22T08:42:06.000Z</time>
      </trkpt>
      <trkpt lat="42.64967667" lon="-2.77128333">
        <ele>615.0</ele>
        <time>2021-10-22T08:42:07.000Z</time>
      </trkpt>
      <trkpt lat="42.649685" lon="-2.77126667">
        <ele>615.0</ele>
        <time>2021-10-22T08:42:08.000Z</time>
      </trkpt>
      <trkpt lat="42.64969333" lon="-2.77125">
        <ele>615.0</ele>
        <time>2021-10-22T08:42:09.000Z</time>
      </trkpt>
      <trkpt lat="42.64969667" lon="-2.77123333">
        <ele>615.0</ele>
        <time>2021-10-22T08:42:10.000Z</time>
      </trkpt>
      <trkpt lat="42.64969833" lon="-2.77121667">
        <ele>615.0</ele>
        <time>2021-10-22T08:42:11.000Z</time>
      </trkpt>
      <trkpt lat="42.64970167" lon="-2.7712">
        <ele>615.0</ele>
        <time>2021-10-22T08:42:12.000Z</time>
      </trkpt>
      <trkpt lat="42.649705" lon="-2.771185">
        <ele>615.0</ele>
        <time>2021-10-22T08:42:13.000Z</time>
      </trkpt>
      <trkpt lat="42.64970667" lon="-2.77117333">
        <ele>615.0</ele>
        <time>2021-10-22T08:42:14.000Z</time>
      </trkpt>
      <trkpt lat="42.64970833" lon="-2.77116167">
        <ele>615.0</ele>
        <time>2021-10-22T08:42:15.000Z</time>
      </trkpt>
      <trkpt lat="42.64971" lon="-2.77114833">
        <ele>615.0</ele>
        <time>2021-10-22T08:42:16.000Z</time>
      </trkpt>
      <trkpt lat="42.64971333" lon="-2.77113">
        <ele>615.0</ele>
        <time>2021-10-22T08:42:17.000Z</time>
      </trkpt>
      <trkpt lat="42.64971667" lon="-2.771115">
        <ele>615.0</ele>
        <time>2021-10-22T08:42:18.000Z</time>
      </trkpt>
      <trkpt lat="42.64971833" lon="-2.77110167">
        <ele>615.0</ele>
        <time>2021-10-22T08:42:19.000Z</time>
      </trkpt>
      <trkpt lat="42.64972333" lon="-2.77108833">
        <ele>615.0</ele>
        <time>2021-10-22T08:42:20.000Z</time>
      </trkpt>
      <trkpt lat="42.64972667" lon="-2.77107667">
        <ele>615.0</ele>
        <time>2021-10-22T08:42:21.000Z</time>
      </trkpt>
      <trkpt lat="42.64973167" lon="-2.77106667">
        <ele>616.0</ele>
        <time>2021-10-22T08:42:22.000Z</time>
      </trkpt>
      <trkpt lat="42.64973833" lon="-2.77105333">
        <ele>616.0</ele>
        <time>2021-10-22T08:42:23.000Z</time>
      </trkpt>
      <trkpt lat="42.649745" lon="-2.77103833">
        <ele>616.0</ele>
        <time>2021-10-22T08:42:24.000Z</time>
      </trkpt>
      <trkpt lat="42.64975333" lon="-2.77102333">
        <ele>616.0</ele>
        <time>2021-10-22T08:42:25.000Z</time>
      </trkpt>
      <trkpt lat="42.64975833" lon="-2.77100833">
        <ele>616.0</ele>
        <time>2021-10-22T08:42:26.000Z</time>
      </trkpt>
      <trkpt lat="42.64976333" lon="-2.77099333">
        <ele>616.0</ele>
        <time>2021-10-22T08:42:27.000Z</time>
      </trkpt>
      <trkpt lat="42.64976667" lon="-2.77098167">
        <ele>616.0</ele>
        <time>2021-10-22T08:42:28.000Z</time>
      </trkpt>
      <trkpt lat="42.64977167" lon="-2.77097">
        <ele>616.0</ele>
        <time>2021-10-22T08:42:29.000Z</time>
      </trkpt>
      <trkpt lat="42.64977667" lon="-2.77096">
        <ele>616.0</ele>
        <time>2021-10-22T08:42:30.000Z</time>
      </trkpt>
      <trkpt lat="42.64978333" lon="-2.77094667">
        <ele>616.0</ele>
        <time>2021-10-22T08:42:31.000Z</time>
      </trkpt>
      <trkpt lat="42.64979167" lon="-2.77093333">
        <ele>616.0</ele>
        <time>2021-10-22T08:42:32.000Z</time>
      </trkpt>
      <trkpt lat="42.64979833" lon="-2.77091833">
        <ele>616.0</ele>
        <time>2021-10-22T08:42:33.000Z</time>
      </trkpt>
      <trkpt lat="42.649805" lon="-2.770905">
        <ele>616.0</ele>
        <time>2021-10-22T08:42:34.000Z</time>
      </trkpt>
      <trkpt lat="42.64980833" lon="-2.77088833">
        <ele>616.0</ele>
        <time>2021-10-22T08:42:35.000Z</time>
      </trkpt>
      <trkpt lat="42.649815" lon="-2.77087333">
        <ele>616.0</ele>
        <time>2021-10-22T08:42:36.000Z</time>
      </trkpt>
      <trkpt lat="42.64982" lon="-2.77085667">
        <ele>616.0</ele>
        <time>2021-10-22T08:42:37.000Z</time>
      </trkpt>
      <trkpt lat="42.64982333" lon="-2.77084">
        <ele>616.0</ele>
        <time>2021-10-22T08:42:38.000Z</time>
      </trkpt>
      <trkpt lat="42.64982667" lon="-2.770825">
        <ele>616.0</ele>
        <time>2021-10-22T08:42:39.000Z</time>
      </trkpt>
      <trkpt lat="42.64983" lon="-2.77080833">
        <ele>616.0</ele>
        <time>2021-10-22T08:42:40.000Z</time>
      </trkpt>
      <trkpt lat="42.64983333" lon="-2.77079333">
        <ele>616.0</ele>
        <time>2021-10-22T08:42:41.000Z</time>
      </trkpt>
      <trkpt lat="42.64983833" lon="-2.77077833">
        <ele>616.0</ele>
        <time>2021-10-22T08:42:42.000Z</time>
      </trkpt>
      <trkpt lat="42.64984167" lon="-2.77076667">
        <ele>616.0</ele>
        <time>2021-10-22T08:42:43.000Z</time>
      </trkpt>
      <trkpt lat="42.649845" lon="-2.77075333">
        <ele>616.0</ele>
        <time>2021-10-22T08:42:44.000Z</time>
      </trkpt>
      <trkpt lat="42.64984833" lon="-2.77074167">
        <ele>617.0</ele>
        <time>2021-10-22T08:42:45.000Z</time>
      </trkpt>
      <trkpt lat="42.64985333" lon="-2.77072833">
        <ele>617.0</ele>
        <time>2021-10-22T08:42:46.000Z</time>
      </trkpt>
      <trkpt lat="42.64985833" lon="-2.77071667">
        <ele>617.0</ele>
        <time>2021-10-22T08:42:47.000Z</time>
      </trkpt>
      <trkpt lat="42.64986333" lon="-2.770705">
        <ele>617.0</ele>
        <time>2021-10-22T08:42:48.000Z</time>
      </trkpt>
      <trkpt lat="42.64986833" lon="-2.77069167">
        <ele>617.0</ele>
        <time>2021-10-22T08:42:49.000Z</time>
      </trkpt>
      <trkpt lat="42.64987333" lon="-2.77067667">
        <ele>617.0</ele>
        <time>2021-10-22T08:42:50.000Z</time>
      </trkpt>
      <trkpt lat="42.64987833" lon="-2.77066333">
        <ele>617.0</ele>
        <time>2021-10-22T08:42:51.000Z</time>
      </trkpt>
      <trkpt lat="42.64988167" lon="-2.77065333">
        <ele>617.0</ele>
        <time>2021-10-22T08:42:52.000Z</time>
      </trkpt>
      <trkpt lat="42.649885" lon="-2.77064">
        <ele>617.0</ele>
        <time>2021-10-22T08:42:53.000Z</time>
      </trkpt>
      <trkpt lat="42.64988833" lon="-2.770625">
        <ele>617.0</ele>
        <time>2021-10-22T08:42:54.000Z</time>
      </trkpt>
      <trkpt lat="42.64989" lon="-2.77060833">
        <ele>617.0</ele>
        <time>2021-10-22T08:42:55.000Z</time>
      </trkpt>
      <trkpt lat="42.649895" lon="-2.77059167">
        <ele>617.0</ele>
        <time>2021-10-22T08:42:56.000Z</time>
      </trkpt>
      <trkpt lat="42.64990167" lon="-2.77057333">
        <ele>617.0</ele>
        <time>2021-10-22T08:42:57.000Z</time>
      </trkpt>
      <trkpt lat="42.64990833" lon="-2.77055667">
        <ele>617.0</ele>
        <time>2021-10-22T08:42:58.000Z</time>
      </trkpt>
      <trkpt lat="42.64991333" lon="-2.77053833">
        <ele>616.0</ele>
        <time>2021-10-22T08:42:59.000Z</time>
      </trkpt>
      <trkpt lat="42.64991833" lon="-2.77051833">
        <ele>616.0</ele>
        <time>2021-10-22T08:43:00.000Z</time>
      </trkpt>
      <trkpt lat="42.649925" lon="-2.7705">
        <ele>616.0</ele>
        <time>2021-10-22T08:43:01.000Z</time>
      </trkpt>
      <trkpt lat="42.64993167" lon="-2.770485">
        <ele>616.0</ele>
        <time>2021-10-22T08:43:02.000Z</time>
      </trkpt>
      <trkpt lat="42.64993833" lon="-2.77047">
        <ele>616.0</ele>
        <time>2021-10-22T08:43:03.000Z</time>
      </trkpt>
      <trkpt lat="42.64994167" lon="-2.770455">
        <ele>616.0</ele>
        <time>2021-10-22T08:43:04.000Z</time>
      </trkpt>
      <trkpt lat="42.64995" lon="-2.77044">
        <ele>616.0</ele>
        <time>2021-10-22T08:43:05.000Z</time>
      </trkpt>
      <trkpt lat="42.64995667" lon="-2.770425">
        <ele>616.0</ele>
        <time>2021-10-22T08:43:06.000Z</time>
      </trkpt>
      <trkpt lat="42.64996333" lon="-2.77041167">
        <ele>616.0</ele>
        <time>2021-10-22T08:43:07.000Z</time>
      </trkpt>
      <trkpt lat="42.64996833" lon="-2.77039667">
        <ele>616.0</ele>
        <time>2021-10-22T08:43:08.000Z</time>
      </trkpt>
      <trkpt lat="42.64997333" lon="-2.77038167">
        <ele>616.0</ele>
        <time>2021-10-22T08:43:09.000Z</time>
      </trkpt>
      <trkpt lat="42.64997833" lon="-2.77036333">
        <ele>616.0</ele>
        <time>2021-10-22T08:43:10.000Z</time>
      </trkpt>
      <trkpt lat="42.64998333" lon="-2.77034833">
        <ele>616.0</ele>
        <time>2021-10-22T08:43:11.000Z</time>
      </trkpt>
      <trkpt lat="42.64999" lon="-2.77033333">
        <ele>616.0</ele>
        <time>2021-10-22T08:43:12.000Z</time>
      </trkpt>
      <trkpt lat="42.64999333" lon="-2.77032167">
        <ele>616.0</ele>
        <time>2021-10-22T08:43:13.000Z</time>
      </trkpt>
      <trkpt lat="42.64999667" lon="-2.77030667">
        <ele>616.0</ele>
        <time>2021-10-22T08:43:14.000Z</time>
      </trkpt>
      <trkpt lat="42.64999833" lon="-2.77029167">
        <ele>616.0</ele>
        <time>2021-10-22T08:43:15.000Z</time>
      </trkpt>
      <trkpt lat="42.65" lon="-2.77027667">
        <ele>616.0</ele>
        <time>2021-10-22T08:43:16.000Z</time>
      </trkpt>
      <trkpt lat="42.65000167" lon="-2.77026333">
        <ele>616.0</ele>
        <time>2021-10-22T08:43:17.000Z</time>
      </trkpt>
      <trkpt lat="42.650005" lon="-2.77024833">
        <ele>616.0</ele>
        <time>2021-10-22T08:43:18.000Z</time>
      </trkpt>
      <trkpt lat="42.65000833" lon="-2.770235">
        <ele>616.0</ele>
        <time>2021-10-22T08:43:19.000Z</time>
      </trkpt>
      <trkpt lat="42.65001333" lon="-2.77022">
        <ele>616.0</ele>
        <time>2021-10-22T08:43:20.000Z</time>
      </trkpt>
      <trkpt lat="42.65001833" lon="-2.77020667">
        <ele>616.0</ele>
        <time>2021-10-22T08:43:21.000Z</time>
      </trkpt>
      <trkpt lat="42.65002167" lon="-2.77019833">
        <ele>616.0</ele>
        <time>2021-10-22T08:43:22.000Z</time>
      </trkpt>
      <trkpt lat="42.65002333" lon="-2.77019167">
        <ele>616.0</ele>
        <time>2021-10-22T08:43:23.000Z</time>
      </trkpt>
      <trkpt lat="42.65002333" lon="-2.77018667">
        <ele>616.0</ele>
        <time>2021-10-22T08:43:24.000Z</time>
      </trkpt>
      <trkpt lat="42.65002667" lon="-2.77018333">
        <ele>616.0</ele>
        <time>2021-10-22T08:43:25.000Z</time>
      </trkpt>
      <trkpt lat="42.65002833" lon="-2.77018">
        <ele>616.0</ele>
        <time>2021-10-22T08:43:26.000Z</time>
      </trkpt>
      <trkpt lat="42.65003" lon="-2.77017667">
        <ele>616.0</ele>
        <time>2021-10-22T08:43:27.000Z</time>
      </trkpt>
      <trkpt lat="42.65003" lon="-2.77017333">
        <ele>616.0</ele>
        <time>2021-10-22T08:43:28.000Z</time>
      </trkpt>
      <trkpt lat="42.65003167" lon="-2.77017167">
        <ele>616.0</ele>
        <time>2021-10-22T08:43:29.000Z</time>
      </trkpt>
      <trkpt lat="42.65003" lon="-2.77017167">
        <ele>616.0</ele>
        <time>2021-10-22T08:43:30.000Z</time>
      </trkpt>
      <trkpt lat="42.65002667" lon="-2.77017">
        <ele>616.0</ele>
        <time>2021-10-22T08:43:31.000Z</time>
      </trkpt>
      <trkpt lat="42.65002667" lon="-2.77016833">
        <ele>616.0</ele>
        <time>2021-10-22T08:43:32.000Z</time>
      </trkpt>
      <trkpt lat="42.65002667" lon="-2.77016833">
        <ele>616.0</ele>
        <time>2021-10-22T08:43:33.000Z</time>
      </trkpt>
      <trkpt lat="42.65002667" lon="-2.77016667">
        <ele>616.0</ele>
        <time>2021-10-22T08:43:34.000Z</time>
      </trkpt>
      <trkpt lat="42.65003" lon="-2.77016333">
        <ele>616.0</ele>
        <time>2021-10-22T08:43:35.000Z</time>
      </trkpt>
      <trkpt lat="42.65003167" lon="-2.77016">
        <ele>616.0</ele>
        <time>2021-10-22T08:43:36.000Z</time>
      </trkpt>
      <trkpt lat="42.65003167" lon="-2.77015333">
        <ele>616.0</ele>
        <time>2021-10-22T08:43:37.000Z</time>
      </trkpt>
      <trkpt lat="42.65003333" lon="-2.77014667">
        <ele>617.0</ele>
        <time>2021-10-22T08:43:38.000Z</time>
      </trkpt>
      <trkpt lat="42.65003333" lon="-2.77014">
        <ele>617.0</ele>
        <time>2021-10-22T08:43:39.000Z</time>
      </trkpt>
      <trkpt lat="42.650035" lon="-2.77013333">
        <ele>617.0</ele>
        <time>2021-10-22T08:43:40.000Z</time>
      </trkpt>
      <trkpt lat="42.650035" lon="-2.77012667">
        <ele>617.0</ele>
        <time>2021-10-22T08:43:41.000Z</time>
      </trkpt>
      <trkpt lat="42.65003833" lon="-2.77011833">
        <ele>617.0</ele>
        <time>2021-10-22T08:43:42.000Z</time>
      </trkpt>
      <trkpt lat="42.65004333" lon="-2.77010833">
        <ele>617.0</ele>
        <time>2021-10-22T08:43:43.000Z</time>
      </trkpt>
      <trkpt lat="42.65004833" lon="-2.77009833">
        <ele>617.0</ele>
        <time>2021-10-22T08:43:44.000Z</time>
      </trkpt>
      <trkpt lat="42.65005167" lon="-2.77008667">
        <ele>617.0</ele>
        <time>2021-10-22T08:43:45.000Z</time>
      </trkpt>
      <trkpt lat="42.65005667" lon="-2.77007167">
        <ele>616.0</ele>
        <time>2021-10-22T08:43:46.000Z</time>
      </trkpt>
      <trkpt lat="42.65006" lon="-2.77005833">
        <ele>616.0</ele>
        <time>2021-10-22T08:43:47.000Z</time>
      </trkpt>
      <trkpt lat="42.650065" lon="-2.770045">
        <ele>616.0</ele>
        <time>2021-10-22T08:43:48.000Z</time>
      </trkpt>
      <trkpt lat="42.65007167" lon="-2.77003333">
        <ele>616.0</ele>
        <time>2021-10-22T08:43:49.000Z</time>
      </trkpt>
      <trkpt lat="42.65007667" lon="-2.77002">
        <ele>616.0</ele>
        <time>2021-10-22T08:43:50.000Z</time>
      </trkpt>
      <trkpt lat="42.65008333" lon="-2.77000833">
        <ele>616.0</ele>
        <time>2021-10-22T08:43:51.000Z</time>
      </trkpt>
      <trkpt lat="42.65009" lon="-2.769995">
        <ele>616.0</ele>
        <time>2021-10-22T08:43:52.000Z</time>
      </trkpt>
      <trkpt lat="42.65009833" lon="-2.76998167">
        <ele>616.0</ele>
        <time>2021-10-22T08:43:53.000Z</time>
      </trkpt>
      <trkpt lat="42.65010667" lon="-2.76996833">
        <ele>616.0</ele>
        <time>2021-10-22T08:43:54.000Z</time>
      </trkpt>
      <trkpt lat="42.650115" lon="-2.769955">
        <ele>616.0</ele>
        <time>2021-10-22T08:43:55.000Z</time>
      </trkpt>
      <trkpt lat="42.65012167" lon="-2.76994167">
        <ele>616.0</ele>
        <time>2021-10-22T08:43:56.000Z</time>
      </trkpt>
      <trkpt lat="42.650125" lon="-2.76993">
        <ele>616.0</ele>
        <time>2021-10-22T08:43:57.000Z</time>
      </trkpt>
      <trkpt lat="42.65012833" lon="-2.76992">
        <ele>616.0</ele>
        <time>2021-10-22T08:43:58.000Z</time>
      </trkpt>
      <trkpt lat="42.65013167" lon="-2.76990833">
        <ele>616.0</ele>
        <time>2021-10-22T08:43:59.000Z</time>
      </trkpt>
      <trkpt lat="42.65013333" lon="-2.769895">
        <ele>615.0</ele>
        <time>2021-10-22T08:44:00.000Z</time>
      </trkpt>
      <trkpt lat="42.650135" lon="-2.76988167">
        <ele>615.0</ele>
        <time>2021-10-22T08:44:01.000Z</time>
      </trkpt>
      <trkpt lat="42.65013833" lon="-2.76986833">
        <ele>615.0</ele>
        <time>2021-10-22T08:44:02.000Z</time>
      </trkpt>
      <trkpt lat="42.65014167" lon="-2.769855">
        <ele>615.0</ele>
        <time>2021-10-22T08:44:03.000Z</time>
      </trkpt>
      <trkpt lat="42.650145" lon="-2.76984">
        <ele>615.0</ele>
        <time>2021-10-22T08:44:04.000Z</time>
      </trkpt>
      <trkpt lat="42.65014833" lon="-2.769825">
        <ele>615.0</ele>
        <time>2021-10-22T08:44:05.000Z</time>
      </trkpt>
      <trkpt lat="42.65015167" lon="-2.76980833">
        <ele>615.0</ele>
        <time>2021-10-22T08:44:06.000Z</time>
      </trkpt>
      <trkpt lat="42.650155" lon="-2.769795">
        <ele>615.0</ele>
        <time>2021-10-22T08:44:07.000Z</time>
      </trkpt>
      <trkpt lat="42.65015833" lon="-2.76978333">
        <ele>615.0</ele>
        <time>2021-10-22T08:44:08.000Z</time>
      </trkpt>
      <trkpt lat="42.65016333" lon="-2.76977">
        <ele>615.0</ele>
        <time>2021-10-22T08:44:09.000Z</time>
      </trkpt>
      <trkpt lat="42.65016833" lon="-2.769755">
        <ele>615.0</ele>
        <time>2021-10-22T08:44:10.000Z</time>
      </trkpt>
      <trkpt lat="42.650175" lon="-2.76974">
        <ele>615.0</ele>
        <time>2021-10-22T08:44:11.000Z</time>
      </trkpt>
      <trkpt lat="42.65018" lon="-2.769725">
        <ele>615.0</ele>
        <time>2021-10-22T08:44:12.000Z</time>
      </trkpt>
      <trkpt lat="42.650185" lon="-2.76971">
        <ele>615.0</ele>
        <time>2021-10-22T08:44:13.000Z</time>
      </trkpt>
      <trkpt lat="42.65018833" lon="-2.76969833">
        <ele>615.0</ele>
        <time>2021-10-22T08:44:14.000Z</time>
      </trkpt>
      <trkpt lat="42.65019167" lon="-2.769685">
        <ele>615.0</ele>
        <time>2021-10-22T08:44:15.000Z</time>
      </trkpt>
      <trkpt lat="42.65019333" lon="-2.76967333">
        <ele>615.0</ele>
        <time>2021-10-22T08:44:16.000Z</time>
      </trkpt>
      <trkpt lat="42.65019667" lon="-2.76966">
        <ele>615.0</ele>
        <time>2021-10-22T08:44:17.000Z</time>
      </trkpt>
      <trkpt lat="42.65019833" lon="-2.76964667">
        <ele>615.0</ele>
        <time>2021-10-22T08:44:18.000Z</time>
      </trkpt>
      <trkpt lat="42.6502" lon="-2.769635">
        <ele>615.0</ele>
        <time>2021-10-22T08:44:19.000Z</time>
      </trkpt>
      <trkpt lat="42.6502" lon="-2.76962">
        <ele>615.0</ele>
        <time>2021-10-22T08:44:20.000Z</time>
      </trkpt>
      <trkpt lat="42.6502" lon="-2.76960667">
        <ele>615.0</ele>
        <time>2021-10-22T08:44:21.000Z</time>
      </trkpt>
      <trkpt lat="42.65020167" lon="-2.76959333">
        <ele>615.0</ele>
        <time>2021-10-22T08:44:22.000Z</time>
      </trkpt>
      <trkpt lat="42.65020333" lon="-2.76958">
        <ele>615.0</ele>
        <time>2021-10-22T08:44:23.000Z</time>
      </trkpt>
      <trkpt lat="42.650205" lon="-2.76956333">
        <ele>614.0</ele>
        <time>2021-10-22T08:44:24.000Z</time>
      </trkpt>
      <trkpt lat="42.650205" lon="-2.76954833">
        <ele>614.0</ele>
        <time>2021-10-22T08:44:25.000Z</time>
      </trkpt>
      <trkpt lat="42.65020667" lon="-2.76953167">
        <ele>614.0</ele>
        <time>2021-10-22T08:44:26.000Z</time>
      </trkpt>
      <trkpt lat="42.65020833" lon="-2.769515">
        <ele>614.0</ele>
        <time>2021-10-22T08:44:27.000Z</time>
      </trkpt>
      <trkpt lat="42.65021" lon="-2.76949833">
        <ele>614.0</ele>
        <time>2021-10-22T08:44:28.000Z</time>
      </trkpt>
      <trkpt lat="42.65021" lon="-2.76947833">
        <ele>614.0</ele>
        <time>2021-10-22T08:44:29.000Z</time>
      </trkpt>
      <trkpt lat="42.65021" lon="-2.76946">
        <ele>614.0</ele>
        <time>2021-10-22T08:44:30.000Z</time>
      </trkpt>
      <trkpt lat="42.65020833" lon="-2.76944167">
        <ele>614.0</ele>
        <time>2021-10-22T08:44:31.000Z</time>
      </trkpt>
      <trkpt lat="42.65020833" lon="-2.769425">
        <ele>614.0</ele>
        <time>2021-10-22T08:44:32.000Z</time>
      </trkpt>
      <trkpt lat="42.65020667" lon="-2.769405">
        <ele>614.0</ele>
        <time>2021-10-22T08:44:33.000Z</time>
      </trkpt>
      <trkpt lat="42.650205" lon="-2.76938667">
        <ele>614.0</ele>
        <time>2021-10-22T08:44:34.000Z</time>
      </trkpt>
      <trkpt lat="42.65020167" lon="-2.76937">
        <ele>614.0</ele>
        <time>2021-10-22T08:44:35.000Z</time>
      </trkpt>
      <trkpt lat="42.65019833" lon="-2.76935333">
        <ele>613.0</ele>
        <time>2021-10-22T08:44:36.000Z</time>
      </trkpt>
      <trkpt lat="42.65019167" lon="-2.76933833">
        <ele>613.0</ele>
        <time>2021-10-22T08:44:37.000Z</time>
      </trkpt>
      <trkpt lat="42.65018667" lon="-2.76932">
        <ele>613.0</ele>
        <time>2021-10-22T08:44:38.000Z</time>
      </trkpt>
      <trkpt lat="42.65018167" lon="-2.769305">
        <ele>613.0</ele>
        <time>2021-10-22T08:44:39.000Z</time>
      </trkpt>
      <trkpt lat="42.65017833" lon="-2.76929">
        <ele>613.0</ele>
        <time>2021-10-22T08:44:40.000Z</time>
      </trkpt>
      <trkpt lat="42.650175" lon="-2.76927667">
        <ele>612.0</ele>
        <time>2021-10-22T08:44:41.000Z</time>
      </trkpt>
      <trkpt lat="42.65017167" lon="-2.76926167">
        <ele>612.0</ele>
        <time>2021-10-22T08:44:42.000Z</time>
      </trkpt>
      <trkpt lat="42.65017" lon="-2.769245">
        <ele>612.0</ele>
        <time>2021-10-22T08:44:43.000Z</time>
      </trkpt>
      <trkpt lat="42.65016667" lon="-2.76923">
        <ele>612.0</ele>
        <time>2021-10-22T08:44:44.000Z</time>
      </trkpt>
      <trkpt lat="42.65016333" lon="-2.76921333">
        <ele>612.0</ele>
        <time>2021-10-22T08:44:45.000Z</time>
      </trkpt>
      <trkpt lat="42.65016167" lon="-2.769195">
        <ele>612.0</ele>
        <time>2021-10-22T08:44:46.000Z</time>
      </trkpt>
      <trkpt lat="42.65016" lon="-2.76918">
        <ele>612.0</ele>
        <time>2021-10-22T08:44:47.000Z</time>
      </trkpt>
      <trkpt lat="42.65015667" lon="-2.76916667">
        <ele>612.0</ele>
        <time>2021-10-22T08:44:48.000Z</time>
      </trkpt>
      <trkpt lat="42.65015333" lon="-2.76914833">
        <ele>611.0</ele>
        <time>2021-10-22T08:44:49.000Z</time>
      </trkpt>
      <trkpt lat="42.65014833" lon="-2.76913">
        <ele>611.0</ele>
        <time>2021-10-22T08:44:50.000Z</time>
      </trkpt>
      <trkpt lat="42.65014333" lon="-2.769115">
        <ele>611.0</ele>
        <time>2021-10-22T08:44:51.000Z</time>
      </trkpt>
      <trkpt lat="42.65014" lon="-2.76909833">
        <ele>611.0</ele>
        <time>2021-10-22T08:44:52.000Z</time>
      </trkpt>
      <trkpt lat="42.65013667" lon="-2.76908">
        <ele>611.0</ele>
        <time>2021-10-22T08:44:53.000Z</time>
      </trkpt>
      <trkpt lat="42.65013333" lon="-2.76906167">
        <ele>611.0</ele>
        <time>2021-10-22T08:44:54.000Z</time>
      </trkpt>
      <trkpt lat="42.65012833" lon="-2.76904333">
        <ele>611.0</ele>
        <time>2021-10-22T08:44:55.000Z</time>
      </trkpt>
      <trkpt lat="42.65012333" lon="-2.76902667">
        <ele>611.0</ele>
        <time>2021-10-22T08:44:56.000Z</time>
      </trkpt>
      <trkpt lat="42.65012" lon="-2.76900833">
        <ele>610.0</ele>
        <time>2021-10-22T08:44:57.000Z</time>
      </trkpt>
      <trkpt lat="42.650115" lon="-2.76899167">
        <ele>610.0</ele>
        <time>2021-10-22T08:44:58.000Z</time>
      </trkpt>
      <trkpt lat="42.65011167" lon="-2.76897667">
        <ele>610.0</ele>
        <time>2021-10-22T08:44:59.000Z</time>
      </trkpt>
      <trkpt lat="42.65011" lon="-2.76896333">
        <ele>610.0</ele>
        <time>2021-10-22T08:45:00.000Z</time>
      </trkpt>
      <trkpt lat="42.65010833" lon="-2.76894833">
        <ele>610.0</ele>
        <time>2021-10-22T08:45:01.000Z</time>
      </trkpt>
      <trkpt lat="42.65010833" lon="-2.76893333">
        <ele>610.0</ele>
        <time>2021-10-22T08:45:02.000Z</time>
      </trkpt>
      <trkpt lat="42.65010667" lon="-2.76892">
        <ele>610.0</ele>
        <time>2021-10-22T08:45:03.000Z</time>
      </trkpt>
      <trkpt lat="42.650105" lon="-2.768905">
        <ele>610.0</ele>
        <time>2021-10-22T08:45:04.000Z</time>
      </trkpt>
      <trkpt lat="42.6501" lon="-2.76889">
        <ele>610.0</ele>
        <time>2021-10-22T08:45:05.000Z</time>
      </trkpt>
      <trkpt lat="42.65009667" lon="-2.76887167">
        <ele>610.0</ele>
        <time>2021-10-22T08:45:06.000Z</time>
      </trkpt>
      <trkpt lat="42.65009333" lon="-2.768855">
        <ele>610.0</ele>
        <time>2021-10-22T08:45:07.000Z</time>
      </trkpt>
      <trkpt lat="42.65009" lon="-2.76883667">
        <ele>609.0</ele>
        <time>2021-10-22T08:45:08.000Z</time>
      </trkpt>
      <trkpt lat="42.65008833" lon="-2.76881833">
        <ele>609.0</ele>
        <time>2021-10-22T08:45:09.000Z</time>
      </trkpt>
      <trkpt lat="42.650085" lon="-2.76879833">
        <ele>609.0</ele>
        <time>2021-10-22T08:45:10.000Z</time>
      </trkpt>
      <trkpt lat="42.65008333" lon="-2.76877667">
        <ele>609.0</ele>
        <time>2021-10-22T08:45:11.000Z</time>
      </trkpt>
      <trkpt lat="42.65008167" lon="-2.76875333">
        <ele>609.0</ele>
        <time>2021-10-22T08:45:12.000Z</time>
      </trkpt>
      <trkpt lat="42.65008" lon="-2.76873333">
        <ele>609.0</ele>
        <time>2021-10-22T08:45:13.000Z</time>
      </trkpt>
      <trkpt lat="42.65007833" lon="-2.768715">
        <ele>609.0</ele>
        <time>2021-10-22T08:45:14.000Z</time>
      </trkpt>
      <trkpt lat="42.65007833" lon="-2.76869667">
        <ele>609.0</ele>
        <time>2021-10-22T08:45:15.000Z</time>
      </trkpt>
      <trkpt lat="42.65007667" lon="-2.76868">
        <ele>609.0</ele>
        <time>2021-10-22T08:45:16.000Z</time>
      </trkpt>
      <trkpt lat="42.65007667" lon="-2.768665">
        <ele>609.0</ele>
        <time>2021-10-22T08:45:17.000Z</time>
      </trkpt>
      <trkpt lat="42.65007667" lon="-2.76865">
        <ele>609.0</ele>
        <time>2021-10-22T08:45:18.000Z</time>
      </trkpt>
      <trkpt lat="42.65007667" lon="-2.768635">
        <ele>609.0</ele>
        <time>2021-10-22T08:45:19.000Z</time>
      </trkpt>
      <trkpt lat="42.65007833" lon="-2.76861667">
        <ele>608.0</ele>
        <time>2021-10-22T08:45:20.000Z</time>
      </trkpt>
      <trkpt lat="42.65008167" lon="-2.7686">
        <ele>608.0</ele>
        <time>2021-10-22T08:45:21.000Z</time>
      </trkpt>
      <trkpt lat="42.65008333" lon="-2.76858167">
        <ele>608.0</ele>
        <time>2021-10-22T08:45:22.000Z</time>
      </trkpt>
      <trkpt lat="42.65008667" lon="-2.76856333">
        <ele>608.0</ele>
        <time>2021-10-22T08:45:23.000Z</time>
      </trkpt>
      <trkpt lat="42.65009" lon="-2.76854833">
        <ele>608.0</ele>
        <time>2021-10-22T08:45:24.000Z</time>
      </trkpt>
      <trkpt lat="42.650095" lon="-2.76853333">
        <ele>608.0</ele>
        <time>2021-10-22T08:45:25.000Z</time>
      </trkpt>
      <trkpt lat="42.65009833" lon="-2.76851833">
        <ele>608.0</ele>
        <time>2021-10-22T08:45:26.000Z</time>
      </trkpt>
      <trkpt lat="42.65010167" lon="-2.76850333">
        <ele>608.0</ele>
        <time>2021-10-22T08:45:27.000Z</time>
      </trkpt>
      <trkpt lat="42.65010333" lon="-2.76849">
        <ele>608.0</ele>
        <time>2021-10-22T08:45:28.000Z</time>
      </trkpt>
      <trkpt lat="42.65010333" lon="-2.76847333">
        <ele>608.0</ele>
        <time>2021-10-22T08:45:29.000Z</time>
      </trkpt>
      <trkpt lat="42.65010667" lon="-2.768455">
        <ele>608.0</ele>
        <time>2021-10-22T08:45:30.000Z</time>
      </trkpt>
      <trkpt lat="42.65011" lon="-2.76843333">
        <ele>607.0</ele>
        <time>2021-10-22T08:45:31.000Z</time>
      </trkpt>
      <trkpt lat="42.650115" lon="-2.76841333">
        <ele>607.0</ele>
        <time>2021-10-22T08:45:32.000Z</time>
      </trkpt>
      <trkpt lat="42.65011833" lon="-2.768395">
        <ele>607.0</ele>
        <time>2021-10-22T08:45:33.000Z</time>
      </trkpt>
      <trkpt lat="42.65012" lon="-2.76837833">
        <ele>607.0</ele>
        <time>2021-10-22T08:45:34.000Z</time>
      </trkpt>
      <trkpt lat="42.65012167" lon="-2.768365">
        <ele>607.0</ele>
        <time>2021-10-22T08:45:35.000Z</time>
      </trkpt>
      <trkpt lat="42.65012333" lon="-2.76835333">
        <ele>607.0</ele>
        <time>2021-10-22T08:45:36.000Z</time>
      </trkpt>
      <trkpt lat="42.650125" lon="-2.76833833">
        <ele>607.0</ele>
        <time>2021-10-22T08:45:37.000Z</time>
      </trkpt>
      <trkpt lat="42.65012833" lon="-2.76832333">
        <ele>607.0</ele>
        <time>2021-10-22T08:45:38.000Z</time>
      </trkpt>
      <trkpt lat="42.65013" lon="-2.76831">
        <ele>607.0</ele>
        <time>2021-10-22T08:45:39.000Z</time>
      </trkpt>
      <trkpt lat="42.65013" lon="-2.76829167">
        <ele>607.0</ele>
        <time>2021-10-22T08:45:40.000Z</time>
      </trkpt>
      <trkpt lat="42.65012833" lon="-2.76827333">
        <ele>607.0</ele>
        <time>2021-10-22T08:45:41.000Z</time>
      </trkpt>
      <trkpt lat="42.650125" lon="-2.76825667">
        <ele>607.0</ele>
        <time>2021-10-22T08:45:42.000Z</time>
      </trkpt>
      <trkpt lat="42.65012333" lon="-2.76824167">
        <ele>607.0</ele>
        <time>2021-10-22T08:45:43.000Z</time>
      </trkpt>
      <trkpt lat="42.65012333" lon="-2.76822833">
        <ele>607.0</ele>
        <time>2021-10-22T08:45:44.000Z</time>
      </trkpt>
      <trkpt lat="42.65012333" lon="-2.76821167">
        <ele>607.0</ele>
        <time>2021-10-22T08:45:45.000Z</time>
      </trkpt>
      <trkpt lat="42.65012167" lon="-2.76819333">
        <ele>607.0</ele>
        <time>2021-10-22T08:45:46.000Z</time>
      </trkpt>
      <trkpt lat="42.65012" lon="-2.768175">
        <ele>607.0</ele>
        <time>2021-10-22T08:45:47.000Z</time>
      </trkpt>
      <trkpt lat="42.65012" lon="-2.76816">
        <ele>607.0</ele>
        <time>2021-10-22T08:45:48.000Z</time>
      </trkpt>
      <trkpt lat="42.65011833" lon="-2.768145">
        <ele>607.0</ele>
        <time>2021-10-22T08:45:49.000Z</time>
      </trkpt>
      <trkpt lat="42.65011833" lon="-2.76812833">
        <ele>607.0</ele>
        <time>2021-10-22T08:45:50.000Z</time>
      </trkpt>
      <trkpt lat="42.65011833" lon="-2.76811333">
        <ele>607.0</ele>
        <time>2021-10-22T08:45:51.000Z</time>
      </trkpt>
      <trkpt lat="42.65011833" lon="-2.768095">
        <ele>607.0</ele>
        <time>2021-10-22T08:45:52.000Z</time>
      </trkpt>
      <trkpt lat="42.65011667" lon="-2.76807833">
        <ele>607.0</ele>
        <time>2021-10-22T08:45:53.000Z</time>
      </trkpt>
      <trkpt lat="42.65011167" lon="-2.76806333">
        <ele>607.0</ele>
        <time>2021-10-22T08:45:54.000Z</time>
      </trkpt>
      <trkpt lat="42.65010833" lon="-2.76805167">
        <ele>607.0</ele>
        <time>2021-10-22T08:45:55.000Z</time>
      </trkpt>
      <trkpt lat="42.65010667" lon="-2.76803833">
        <ele>607.0</ele>
        <time>2021-10-22T08:45:56.000Z</time>
      </trkpt>
      <trkpt lat="42.650105" lon="-2.768025">
        <ele>607.0</ele>
        <time>2021-10-22T08:45:57.000Z</time>
      </trkpt>
      <trkpt lat="42.650105" lon="-2.76801333">
        <ele>607.0</ele>
        <time>2021-10-22T08:45:58.000Z</time>
      </trkpt>
      <trkpt lat="42.65010667" lon="-2.76800167">
        <ele>607.0</ele>
        <time>2021-10-22T08:45:59.000Z</time>
      </trkpt>
      <trkpt lat="42.65010833" lon="-2.76799">
        <ele>607.0</ele>
        <time>2021-10-22T08:46:00.000Z</time>
      </trkpt>
      <trkpt lat="42.65010833" lon="-2.76797667">
        <ele>607.0</ele>
        <time>2021-10-22T08:46:01.000Z</time>
      </trkpt>
      <trkpt lat="42.65010833" lon="-2.76796333">
        <ele>607.0</ele>
        <time>2021-10-22T08:46:02.000Z</time>
      </trkpt>
      <trkpt lat="42.65010667" lon="-2.76795">
        <ele>607.0</ele>
        <time>2021-10-22T08:46:03.000Z</time>
      </trkpt>
      <trkpt lat="42.650105" lon="-2.76793667">
        <ele>607.0</ele>
        <time>2021-10-22T08:46:04.000Z</time>
      </trkpt>
      <trkpt lat="42.65010167" lon="-2.76792333">
        <ele>607.0</ele>
        <time>2021-10-22T08:46:05.000Z</time>
      </trkpt>
      <trkpt lat="42.65009833" lon="-2.76791167">
        <ele>607.0</ele>
        <time>2021-10-22T08:46:06.000Z</time>
      </trkpt>
      <trkpt lat="42.650095" lon="-2.76791">
        <ele>607.0</ele>
        <time>2021-10-22T08:46:07.000Z</time>
      </trkpt>
      <trkpt lat="42.65008833" lon="-2.76791">
        <ele>607.0</ele>
        <time>2021-10-22T08:46:08.000Z</time>
      </trkpt>
      <trkpt lat="42.650085" lon="-2.767915">
        <ele>607.0</ele>
        <time>2021-10-22T08:46:09.000Z</time>
      </trkpt>
      <trkpt lat="42.65007833" lon="-2.76791833">
        <ele>607.0</ele>
        <time>2021-10-22T08:46:10.000Z</time>
      </trkpt>
      <trkpt lat="42.65007" lon="-2.76792">
        <ele>607.0</ele>
        <time>2021-10-22T08:46:11.000Z</time>
      </trkpt>
      <trkpt lat="42.65006167" lon="-2.76792167">
        <ele>607.0</ele>
        <time>2021-10-22T08:46:12.000Z</time>
      </trkpt>
      <trkpt lat="42.65005833" lon="-2.76792167">
        <ele>607.0</ele>
        <time>2021-10-22T08:46:13.000Z</time>
      </trkpt>
      <trkpt lat="42.65005667" lon="-2.76792167">
        <ele>607.0</ele>
        <time>2021-10-22T08:46:14.000Z</time>
      </trkpt>
      <trkpt lat="42.65005667" lon="-2.76792167">
        <ele>607.0</ele>
        <time>2021-10-22T08:46:15.000Z</time>
      </trkpt>
      <trkpt lat="42.65006" lon="-2.767915">
        <ele>607.0</ele>
        <time>2021-10-22T08:46:16.000Z</time>
      </trkpt>
      <trkpt lat="42.65006167" lon="-2.76791">
        <ele>607.0</ele>
        <time>2021-10-22T08:46:17.000Z</time>
      </trkpt>
      <trkpt lat="42.650065" lon="-2.76789667">
        <ele>607.0</ele>
        <time>2021-10-22T08:46:18.000Z</time>
      </trkpt>
      <trkpt lat="42.65006833" lon="-2.76788667">
        <ele>607.0</ele>
        <time>2021-10-22T08:46:19.000Z</time>
      </trkpt>
      <trkpt lat="42.65007167" lon="-2.76787833">
        <ele>607.0</ele>
        <time>2021-10-22T08:46:20.000Z</time>
      </trkpt>
      <trkpt lat="42.650075" lon="-2.76786667">
        <ele>607.0</ele>
        <time>2021-10-22T08:46:21.000Z</time>
      </trkpt>
      <trkpt lat="42.65008" lon="-2.76785333">
        <ele>607.0</ele>
        <time>2021-10-22T08:46:22.000Z</time>
      </trkpt>
      <trkpt lat="42.650085" lon="-2.76783833">
        <ele>607.0</ele>
        <time>2021-10-22T08:46:23.000Z</time>
      </trkpt>
      <trkpt lat="42.65008833" lon="-2.76782333">
        <ele>607.0</ele>
        <time>2021-10-22T08:46:24.000Z</time>
      </trkpt>
      <trkpt lat="42.65009" lon="-2.76780833">
        <ele>606.0</ele>
        <time>2021-10-22T08:46:25.000Z</time>
      </trkpt>
      <trkpt lat="42.65009333" lon="-2.76779167">
        <ele>606.0</ele>
        <time>2021-10-22T08:46:26.000Z</time>
      </trkpt>
      <trkpt lat="42.65009667" lon="-2.76778">
        <ele>606.0</ele>
        <time>2021-10-22T08:46:27.000Z</time>
      </trkpt>
      <trkpt lat="42.65009833" lon="-2.76776833">
        <ele>606.0</ele>
        <time>2021-10-22T08:46:28.000Z</time>
      </trkpt>
      <trkpt lat="42.65009833" lon="-2.76776">
        <ele>606.0</ele>
        <time>2021-10-22T08:46:29.000Z</time>
      </trkpt>
      <trkpt lat="42.65009833" lon="-2.76775333">
        <ele>606.0</ele>
        <time>2021-10-22T08:46:30.000Z</time>
      </trkpt>
      <trkpt lat="42.65009833" lon="-2.76775167">
        <ele>606.0</ele>
        <time>2021-10-22T08:46:31.000Z</time>
      </trkpt>
      <trkpt lat="42.65009667" lon="-2.76774833">
        <ele>606.0</ele>
        <time>2021-10-22T08:46:32.000Z</time>
      </trkpt>
      <trkpt lat="42.65009667" lon="-2.76774833">
        <ele>606.0</ele>
        <time>2021-10-22T08:46:33.000Z</time>
      </trkpt>
      <trkpt lat="42.650095" lon="-2.76775">
        <ele>606.0</ele>
        <time>2021-10-22T08:46:34.000Z</time>
      </trkpt>
      <trkpt lat="42.65009667" lon="-2.76774667">
        <ele>606.0</ele>
        <time>2021-10-22T08:46:35.000Z</time>
      </trkpt>
      <trkpt lat="42.65009833" lon="-2.76774667">
        <ele>606.0</ele>
        <time>2021-10-22T08:46:36.000Z</time>
      </trkpt>
      <trkpt lat="42.6501" lon="-2.767745">
        <ele>606.0</ele>
        <time>2021-10-22T08:46:37.000Z</time>
      </trkpt>
      <trkpt lat="42.6501" lon="-2.76774167">
        <ele>606.0</ele>
        <time>2021-10-22T08:46:38.000Z</time>
      </trkpt>
      <trkpt lat="42.65009833" lon="-2.76773667">
        <ele>606.0</ele>
        <time>2021-10-22T08:46:39.000Z</time>
      </trkpt>
      <trkpt lat="42.65009667" lon="-2.76773333">
        <ele>606.0</ele>
        <time>2021-10-22T08:46:40.000Z</time>
      </trkpt>
      <trkpt lat="42.65009833" lon="-2.76773">
        <ele>606.0</ele>
        <time>2021-10-22T08:46:41.000Z</time>
      </trkpt>
      <trkpt lat="42.65010333" lon="-2.767725">
        <ele>605.0</ele>
        <time>2021-10-22T08:46:42.000Z</time>
      </trkpt>
      <trkpt lat="42.65010833" lon="-2.76772">
        <ele>605.0</ele>
        <time>2021-10-22T08:46:43.000Z</time>
      </trkpt>
      <trkpt lat="42.65011667" lon="-2.76771167">
        <ele>605.0</ele>
        <time>2021-10-22T08:46:44.000Z</time>
      </trkpt>
      <trkpt lat="42.650125" lon="-2.76769833">
        <ele>605.0</ele>
        <time>2021-10-22T08:46:45.000Z</time>
      </trkpt>
      <trkpt lat="42.65013167" lon="-2.76767667">
        <ele>605.0</ele>
        <time>2021-10-22T08:46:46.000Z</time>
      </trkpt>
      <trkpt lat="42.65013833" lon="-2.76765333">
        <ele>605.0</ele>
        <time>2021-10-22T08:46:47.000Z</time>
      </trkpt>
      <trkpt lat="42.65014333" lon="-2.767625">
        <ele>605.0</ele>
        <time>2021-10-22T08:46:48.000Z</time>
      </trkpt>
      <trkpt lat="42.65015167" lon="-2.76759333">
        <ele>605.0</ele>
        <time>2021-10-22T08:46:49.000Z</time>
      </trkpt>
      <trkpt lat="42.65016167" lon="-2.76756167">
        <ele>605.0</ele>
        <time>2021-10-22T08:46:50.000Z</time>
      </trkpt>
      <trkpt lat="42.650175" lon="-2.76753167">
        <ele>605.0</ele>
        <time>2021-10-22T08:46:51.000Z</time>
      </trkpt>
      <trkpt lat="42.65018833" lon="-2.767505">
        <ele>605.0</ele>
        <time>2021-10-22T08:46:52.000Z</time>
      </trkpt>
      <trkpt lat="42.6502" lon="-2.76748167">
        <ele>605.0</ele>
        <time>2021-10-22T08:46:53.000Z</time>
      </trkpt>
      <trkpt lat="42.65021" lon="-2.76746167">
        <ele>605.0</ele>
        <time>2021-10-22T08:46:54.000Z</time>
      </trkpt>
      <trkpt lat="42.650225" lon="-2.76744333">
        <ele>605.0</ele>
        <time>2021-10-22T08:46:55.000Z</time>
      </trkpt>
      <trkpt lat="42.65023667" lon="-2.76743">
        <ele>605.0</ele>
        <time>2021-10-22T08:46:56.000Z</time>
      </trkpt>
      <trkpt lat="42.65024333" lon="-2.76741833">
        <ele>605.0</ele>
        <time>2021-10-22T08:46:57.000Z</time>
      </trkpt>
      <trkpt lat="42.65025" lon="-2.76740833">
        <ele>605.0</ele>
        <time>2021-10-22T08:46:58.000Z</time>
      </trkpt>
      <trkpt lat="42.65026" lon="-2.767395">
        <ele>606.0</ele>
        <time>2021-10-22T08:46:59.000Z</time>
      </trkpt>
      <trkpt lat="42.65027" lon="-2.76738167">
        <ele>606.0</ele>
        <time>2021-10-22T08:47:00.000Z</time>
      </trkpt>
      <trkpt lat="42.65028" lon="-2.76736833">
        <ele>606.0</ele>
        <time>2021-10-22T08:47:01.000Z</time>
      </trkpt>
      <trkpt lat="42.65029" lon="-2.76735333">
        <ele>606.0</ele>
        <time>2021-10-22T08:47:02.000Z</time>
      </trkpt>
      <trkpt lat="42.6503" lon="-2.767335">
        <ele>606.0</ele>
        <time>2021-10-22T08:47:03.000Z</time>
      </trkpt>
      <trkpt lat="42.65030833" lon="-2.76731667">
        <ele>606.0</ele>
        <time>2021-10-22T08:47:04.000Z</time>
      </trkpt>
      <trkpt lat="42.65032" lon="-2.7673">
        <ele>606.0</ele>
        <time>2021-10-22T08:47:05.000Z</time>
      </trkpt>
      <trkpt lat="42.65032833" lon="-2.76728167">
        <ele>606.0</ele>
        <time>2021-10-22T08:47:06.000Z</time>
      </trkpt>
      <trkpt lat="42.65034" lon="-2.767265">
        <ele>606.0</ele>
        <time>2021-10-22T08:47:07.000Z</time>
      </trkpt>
      <trkpt lat="42.65035" lon="-2.76724833">
        <ele>605.0</ele>
        <time>2021-10-22T08:47:08.000Z</time>
      </trkpt>
      <trkpt lat="42.65035833" lon="-2.76723167">
        <ele>605.0</ele>
        <time>2021-10-22T08:47:09.000Z</time>
      </trkpt>
      <trkpt lat="42.65036667" lon="-2.76721333">
        <ele>605.0</ele>
        <time>2021-10-22T08:47:10.000Z</time>
      </trkpt>
      <trkpt lat="42.650375" lon="-2.767195">
        <ele>605.0</ele>
        <time>2021-10-22T08:47:11.000Z</time>
      </trkpt>
      <trkpt lat="42.650385" lon="-2.76717667">
        <ele>605.0</ele>
        <time>2021-10-22T08:47:12.000Z</time>
      </trkpt>
      <trkpt lat="42.65039167" lon="-2.76716167">
        <ele>605.0</ele>
        <time>2021-10-22T08:47:13.000Z</time>
      </trkpt>
      <trkpt lat="42.65039833" lon="-2.76714667">
        <ele>605.0</ele>
        <time>2021-10-22T08:47:14.000Z</time>
      </trkpt>
      <trkpt lat="42.650405" lon="-2.76713">
        <ele>605.0</ele>
        <time>2021-10-22T08:47:15.000Z</time>
      </trkpt>
      <trkpt lat="42.65041167" lon="-2.76711167">
        <ele>605.0</ele>
        <time>2021-10-22T08:47:16.000Z</time>
      </trkpt>
      <trkpt lat="42.65042" lon="-2.76709333">
        <ele>605.0</ele>
        <time>2021-10-22T08:47:17.000Z</time>
      </trkpt>
      <trkpt lat="42.65042667" lon="-2.76707833">
        <ele>605.0</ele>
        <time>2021-10-22T08:47:18.000Z</time>
      </trkpt>
      <trkpt lat="42.650435" lon="-2.76706333">
        <ele>605.0</ele>
        <time>2021-10-22T08:47:19.000Z</time>
      </trkpt>
      <trkpt lat="42.65044333" lon="-2.76704833">
        <ele>605.0</ele>
        <time>2021-10-22T08:47:20.000Z</time>
      </trkpt>
      <trkpt lat="42.65045" lon="-2.767035">
        <ele>605.0</ele>
        <time>2021-10-22T08:47:21.000Z</time>
      </trkpt>
      <trkpt lat="42.650455" lon="-2.76701833">
        <ele>605.0</ele>
        <time>2021-10-22T08:47:22.000Z</time>
      </trkpt>
      <trkpt lat="42.65046167" lon="-2.76700167">
        <ele>604.0</ele>
        <time>2021-10-22T08:47:23.000Z</time>
      </trkpt>
      <trkpt lat="42.65047" lon="-2.76698333">
        <ele>604.0</ele>
        <time>2021-10-22T08:47:24.000Z</time>
      </trkpt>
      <trkpt lat="42.65047667" lon="-2.766965">
        <ele>604.0</ele>
        <time>2021-10-22T08:47:25.000Z</time>
      </trkpt>
      <trkpt lat="42.650485" lon="-2.766945">
        <ele>604.0</ele>
        <time>2021-10-22T08:47:26.000Z</time>
      </trkpt>
      <trkpt lat="42.65049167" lon="-2.76693">
        <ele>604.0</ele>
        <time>2021-10-22T08:47:27.000Z</time>
      </trkpt>
      <trkpt lat="42.6505" lon="-2.76691333">
        <ele>604.0</ele>
        <time>2021-10-22T08:47:28.000Z</time>
      </trkpt>
      <trkpt lat="42.65051" lon="-2.76689667">
        <ele>604.0</ele>
        <time>2021-10-22T08:47:29.000Z</time>
      </trkpt>
      <trkpt lat="42.65051833" lon="-2.76688">
        <ele>604.0</ele>
        <time>2021-10-22T08:47:30.000Z</time>
      </trkpt>
      <trkpt lat="42.65052833" lon="-2.76686333">
        <ele>604.0</ele>
        <time>2021-10-22T08:47:31.000Z</time>
      </trkpt>
      <trkpt lat="42.65053833" lon="-2.76684833">
        <ele>604.0</ele>
        <time>2021-10-22T08:47:32.000Z</time>
      </trkpt>
      <trkpt lat="42.65054667" lon="-2.76683333">
        <ele>604.0</ele>
        <time>2021-10-22T08:47:33.000Z</time>
      </trkpt>
      <trkpt lat="42.650555" lon="-2.76681833">
        <ele>604.0</ele>
        <time>2021-10-22T08:47:34.000Z</time>
      </trkpt>
      <trkpt lat="42.65056333" lon="-2.766805">
        <ele>604.0</ele>
        <time>2021-10-22T08:47:35.000Z</time>
      </trkpt>
      <trkpt lat="42.650575" lon="-2.766795">
        <ele>604.0</ele>
        <time>2021-10-22T08:47:36.000Z</time>
      </trkpt>
      <trkpt lat="42.65058333" lon="-2.76678">
        <ele>604.0</ele>
        <time>2021-10-22T08:47:37.000Z</time>
      </trkpt>
      <trkpt lat="42.65058833" lon="-2.76676667">
        <ele>603.0</ele>
        <time>2021-10-22T08:47:38.000Z</time>
      </trkpt>
      <trkpt lat="42.650595" lon="-2.76675333">
        <ele>603.0</ele>
        <time>2021-10-22T08:47:39.000Z</time>
      </trkpt>
      <trkpt lat="42.65060333" lon="-2.76673833">
        <ele>603.0</ele>
        <time>2021-10-22T08:47:40.000Z</time>
      </trkpt>
      <trkpt lat="42.65061333" lon="-2.76672167">
        <ele>603.0</ele>
        <time>2021-10-22T08:47:41.000Z</time>
      </trkpt>
      <trkpt lat="42.650625" lon="-2.766705">
        <ele>603.0</ele>
        <time>2021-10-22T08:47:42.000Z</time>
      </trkpt>
      <trkpt lat="42.650635" lon="-2.76668833">
        <ele>603.0</ele>
        <time>2021-10-22T08:47:43.000Z</time>
      </trkpt>
      <trkpt lat="42.65064333" lon="-2.76667167">
        <ele>603.0</ele>
        <time>2021-10-22T08:47:44.000Z</time>
      </trkpt>
      <trkpt lat="42.65065167" lon="-2.766655">
        <ele>603.0</ele>
        <time>2021-10-22T08:47:45.000Z</time>
      </trkpt>
      <trkpt lat="42.65066" lon="-2.76663833">
        <ele>603.0</ele>
        <time>2021-10-22T08:47:46.000Z</time>
      </trkpt>
      <trkpt lat="42.65066667" lon="-2.76662167">
        <ele>603.0</ele>
        <time>2021-10-22T08:47:47.000Z</time>
      </trkpt>
      <trkpt lat="42.650675" lon="-2.76660333">
        <ele>603.0</ele>
        <time>2021-10-22T08:47:48.000Z</time>
      </trkpt>
      <trkpt lat="42.65068333" lon="-2.766585">
        <ele>602.0</ele>
        <time>2021-10-22T08:47:49.000Z</time>
      </trkpt>
      <trkpt lat="42.65069" lon="-2.76656167">
        <ele>602.0</ele>
        <time>2021-10-22T08:47:50.000Z</time>
      </trkpt>
      <trkpt lat="42.65069667" lon="-2.76654">
        <ele>602.0</ele>
        <time>2021-10-22T08:47:51.000Z</time>
      </trkpt>
      <trkpt lat="42.65070167" lon="-2.76651833">
        <ele>602.0</ele>
        <time>2021-10-22T08:47:52.000Z</time>
      </trkpt>
      <trkpt lat="42.65070667" lon="-2.76649833">
        <ele>602.0</ele>
        <time>2021-10-22T08:47:53.000Z</time>
      </trkpt>
      <trkpt lat="42.65071167" lon="-2.76647833">
        <ele>602.0</ele>
        <time>2021-10-22T08:47:54.000Z</time>
      </trkpt>
      <trkpt lat="42.65071667" lon="-2.76645667">
        <ele>602.0</ele>
        <time>2021-10-22T08:47:55.000Z</time>
      </trkpt>
      <trkpt lat="42.65072167" lon="-2.76643333">
        <ele>602.0</ele>
        <time>2021-10-22T08:47:56.000Z</time>
      </trkpt>
      <trkpt lat="42.65072833" lon="-2.76641167">
        <ele>602.0</ele>
        <time>2021-10-22T08:47:57.000Z</time>
      </trkpt>
      <trkpt lat="42.650735" lon="-2.76639333">
        <ele>602.0</ele>
        <time>2021-10-22T08:47:58.000Z</time>
      </trkpt>
      <trkpt lat="42.65074" lon="-2.76637667">
        <ele>602.0</ele>
        <time>2021-10-22T08:47:59.000Z</time>
      </trkpt>
      <trkpt lat="42.650745" lon="-2.76635833">
        <ele>602.0</ele>
        <time>2021-10-22T08:48:00.000Z</time>
      </trkpt>
      <trkpt lat="42.65075" lon="-2.76634167">
        <ele>602.0</ele>
        <time>2021-10-22T08:48:01.000Z</time>
      </trkpt>
      <trkpt lat="42.65075667" lon="-2.76632667">
        <ele>603.0</ele>
        <time>2021-10-22T08:48:02.000Z</time>
      </trkpt>
      <trkpt lat="42.65076167" lon="-2.76631167">
        <ele>603.0</ele>
        <time>2021-10-22T08:48:03.000Z</time>
      </trkpt>
      <trkpt lat="42.65076667" lon="-2.76629667">
        <ele>603.0</ele>
        <time>2021-10-22T08:48:04.000Z</time>
      </trkpt>
      <trkpt lat="42.65077" lon="-2.76627833">
        <ele>603.0</ele>
        <time>2021-10-22T08:48:05.000Z</time>
      </trkpt>
      <trkpt lat="42.65077333" lon="-2.76626">
        <ele>603.0</ele>
        <time>2021-10-22T08:48:06.000Z</time>
      </trkpt>
      <trkpt lat="42.650775" lon="-2.76624">
        <ele>603.0</ele>
        <time>2021-10-22T08:48:07.000Z</time>
      </trkpt>
      <trkpt lat="42.65077833" lon="-2.766225">
        <ele>603.0</ele>
        <time>2021-10-22T08:48:08.000Z</time>
      </trkpt>
      <trkpt lat="42.65078167" lon="-2.76620833">
        <ele>603.0</ele>
        <time>2021-10-22T08:48:09.000Z</time>
      </trkpt>
      <trkpt lat="42.65078167" lon="-2.766195">
        <ele>603.0</ele>
        <time>2021-10-22T08:48:10.000Z</time>
      </trkpt>
      <trkpt lat="42.650785" lon="-2.76618">
        <ele>603.0</ele>
        <time>2021-10-22T08:48:11.000Z</time>
      </trkpt>
      <trkpt lat="42.65078833" lon="-2.76616333">
        <ele>603.0</ele>
        <time>2021-10-22T08:48:12.000Z</time>
      </trkpt>
      <trkpt lat="42.65079" lon="-2.76614833">
        <ele>603.0</ele>
        <time>2021-10-22T08:48:13.000Z</time>
      </trkpt>
      <trkpt lat="42.65079" lon="-2.76613167">
        <ele>603.0</ele>
        <time>2021-10-22T08:48:14.000Z</time>
      </trkpt>
      <trkpt lat="42.65079" lon="-2.766115">
        <ele>603.0</ele>
        <time>2021-10-22T08:48:15.000Z</time>
      </trkpt>
      <trkpt lat="42.65079" lon="-2.766095">
        <ele>603.0</ele>
        <time>2021-10-22T08:48:16.000Z</time>
      </trkpt>
      <trkpt lat="42.65079" lon="-2.766075">
        <ele>603.0</ele>
        <time>2021-10-22T08:48:17.000Z</time>
      </trkpt>
      <trkpt lat="42.65079167" lon="-2.76605833">
        <ele>603.0</ele>
        <time>2021-10-22T08:48:18.000Z</time>
      </trkpt>
      <trkpt lat="42.65079167" lon="-2.76604167">
        <ele>603.0</ele>
        <time>2021-10-22T08:48:19.000Z</time>
      </trkpt>
      <trkpt lat="42.65079333" lon="-2.76602833">
        <ele>603.0</ele>
        <time>2021-10-22T08:48:20.000Z</time>
      </trkpt>
      <trkpt lat="42.65079667" lon="-2.76602333">
        <ele>603.0</ele>
        <time>2021-10-22T08:48:21.000Z</time>
      </trkpt>
      <trkpt lat="42.65079833" lon="-2.76602833">
        <ele>603.0</ele>
        <time>2021-10-22T08:48:22.000Z</time>
      </trkpt>
      <trkpt lat="42.6508" lon="-2.76603">
        <ele>603.0</ele>
        <time>2021-10-22T08:48:23.000Z</time>
      </trkpt>
      <trkpt lat="42.650805" lon="-2.76603">
        <ele>603.0</ele>
        <time>2021-10-22T08:48:24.000Z</time>
      </trkpt>
      <trkpt lat="42.65081167" lon="-2.76602833">
        <ele>603.0</ele>
        <time>2021-10-22T08:48:25.000Z</time>
      </trkpt>
      <trkpt lat="42.65081833" lon="-2.76602833">
        <ele>603.0</ele>
        <time>2021-10-22T08:48:26.000Z</time>
      </trkpt>
      <trkpt lat="42.65082833" lon="-2.766025">
        <ele>603.0</ele>
        <time>2021-10-22T08:48:27.000Z</time>
      </trkpt>
      <trkpt lat="42.65083667" lon="-2.76602333">
        <ele>603.0</ele>
        <time>2021-10-22T08:48:28.000Z</time>
      </trkpt>
      <trkpt lat="42.65084333" lon="-2.76602">
        <ele>603.0</ele>
        <time>2021-10-22T08:48:29.000Z</time>
      </trkpt>
      <trkpt lat="42.65085167" lon="-2.766015">
        <ele>603.0</ele>
        <time>2021-10-22T08:48:30.000Z</time>
      </trkpt>
      <trkpt lat="42.65086" lon="-2.76600833">
        <ele>603.0</ele>
        <time>2021-10-22T08:48:31.000Z</time>
      </trkpt>
      <trkpt lat="42.65086833" lon="-2.76600167">
        <ele>604.0</ele>
        <time>2021-10-22T08:48:32.000Z</time>
      </trkpt>
      <trkpt lat="42.650875" lon="-2.76599667">
        <ele>604.0</ele>
        <time>2021-10-22T08:48:33.000Z</time>
      </trkpt>
      <trkpt lat="42.65087667" lon="-2.76599">
        <ele>604.0</ele>
        <time>2021-10-22T08:48:34.000Z</time>
      </trkpt>
      <trkpt lat="42.65087833" lon="-2.765985">
        <ele>604.0</ele>
        <time>2021-10-22T08:48:35.000Z</time>
      </trkpt>
      <trkpt lat="42.65088167" lon="-2.76598333">
        <ele>604.0</ele>
        <time>2021-10-22T08:48:36.000Z</time>
      </trkpt>
      <trkpt lat="42.65088333" lon="-2.765985">
        <ele>604.0</ele>
        <time>2021-10-22T08:48:37.000Z</time>
      </trkpt>
      <trkpt lat="42.65088333" lon="-2.76598833">
        <ele>605.0</ele>
        <time>2021-10-22T08:48:38.000Z</time>
      </trkpt>
      <trkpt lat="42.65088" lon="-2.76599">
        <ele>605.0</ele>
        <time>2021-10-22T08:48:39.000Z</time>
      </trkpt>
      <trkpt lat="42.65087333" lon="-2.76599167">
        <ele>605.0</ele>
        <time>2021-10-22T08:48:40.000Z</time>
      </trkpt>
      <trkpt lat="42.65086333" lon="-2.76599333">
        <ele>605.0</ele>
        <time>2021-10-22T08:48:41.000Z</time>
      </trkpt>
      <trkpt lat="42.650855" lon="-2.765995">
        <ele>605.0</ele>
        <time>2021-10-22T08:48:42.000Z</time>
      </trkpt>
      <trkpt lat="42.65084333" lon="-2.76599333">
        <ele>605.0</ele>
        <time>2021-10-22T08:48:43.000Z</time>
      </trkpt>
      <trkpt lat="42.65083167" lon="-2.76598833">
        <ele>605.0</ele>
        <time>2021-10-22T08:48:44.000Z</time>
      </trkpt>
      <trkpt lat="42.65082167" lon="-2.76598">
        <ele>605.0</ele>
        <time>2021-10-22T08:48:45.000Z</time>
      </trkpt>
      <trkpt lat="42.650815" lon="-2.76596833">
        <ele>605.0</ele>
        <time>2021-10-22T08:48:46.000Z</time>
      </trkpt>
      <trkpt lat="42.65081167" lon="-2.76595167">
        <ele>605.0</ele>
        <time>2021-10-22T08:48:47.000Z</time>
      </trkpt>
      <trkpt lat="42.65080667" lon="-2.765935">
        <ele>605.0</ele>
        <time>2021-10-22T08:48:48.000Z</time>
      </trkpt>
      <trkpt lat="42.65080167" lon="-2.76591833">
        <ele>605.0</ele>
        <time>2021-10-22T08:48:49.000Z</time>
      </trkpt>
      <trkpt lat="42.65079667" lon="-2.76590167">
        <ele>605.0</ele>
        <time>2021-10-22T08:48:50.000Z</time>
      </trkpt>
      <trkpt lat="42.65079333" lon="-2.76588167">
        <ele>605.0</ele>
        <time>2021-10-22T08:48:51.000Z</time>
      </trkpt>
      <trkpt lat="42.65078833" lon="-2.76586333">
        <ele>606.0</ele>
        <time>2021-10-22T08:48:52.000Z</time>
      </trkpt>
      <trkpt lat="42.65078333" lon="-2.765845">
        <ele>606.0</ele>
        <time>2021-10-22T08:48:53.000Z</time>
      </trkpt>
      <trkpt lat="42.65077833" lon="-2.76582833">
        <ele>606.0</ele>
        <time>2021-10-22T08:48:54.000Z</time>
      </trkpt>
      <trkpt lat="42.650775" lon="-2.76581167">
        <ele>606.0</ele>
        <time>2021-10-22T08:48:55.000Z</time>
      </trkpt>
      <trkpt lat="42.65076833" lon="-2.765795">
        <ele>606.0</ele>
        <time>2021-10-22T08:48:56.000Z</time>
      </trkpt>
      <trkpt lat="42.65076333" lon="-2.76577833">
        <ele>606.0</ele>
        <time>2021-10-22T08:48:57.000Z</time>
      </trkpt>
      <trkpt lat="42.65075833" lon="-2.76576167">
        <ele>606.0</ele>
        <time>2021-10-22T08:48:58.000Z</time>
      </trkpt>
      <trkpt lat="42.65075667" lon="-2.76574333">
        <ele>606.0</ele>
        <time>2021-10-22T08:48:59.000Z</time>
      </trkpt>
      <trkpt lat="42.65075667" lon="-2.76572833">
        <ele>606.0</ele>
        <time>2021-10-22T08:49:00.000Z</time>
      </trkpt>
      <trkpt lat="42.65075833" lon="-2.76571667">
        <ele>606.0</ele>
        <time>2021-10-22T08:49:01.000Z</time>
      </trkpt>
      <trkpt lat="42.65076167" lon="-2.765705">
        <ele>606.0</ele>
        <time>2021-10-22T08:49:02.000Z</time>
      </trkpt>
      <trkpt lat="42.65076333" lon="-2.7657">
        <ele>606.0</ele>
        <time>2021-10-22T08:49:03.000Z</time>
      </trkpt>
      <trkpt lat="42.65076333" lon="-2.7657">
        <ele>606.0</ele>
        <time>2021-10-22T08:49:04.000Z</time>
      </trkpt>
      <trkpt lat="42.65076167" lon="-2.76570667">
        <ele>606.0</ele>
        <time>2021-10-22T08:49:05.000Z</time>
      </trkpt>
      <trkpt lat="42.65075833" lon="-2.76571333">
        <ele>606.0</ele>
        <time>2021-10-22T08:49:06.000Z</time>
      </trkpt>
      <trkpt lat="42.65075167" lon="-2.765715">
        <ele>606.0</ele>
        <time>2021-10-22T08:49:07.000Z</time>
      </trkpt>
      <trkpt lat="42.65074333" lon="-2.76571">
        <ele>606.0</ele>
        <time>2021-10-22T08:49:08.000Z</time>
      </trkpt>
      <trkpt lat="42.65073667" lon="-2.76569667">
        <ele>606.0</ele>
        <time>2021-10-22T08:49:09.000Z</time>
      </trkpt>
      <trkpt lat="42.65073167" lon="-2.76568167">
        <ele>606.0</ele>
        <time>2021-10-22T08:49:10.000Z</time>
      </trkpt>
      <trkpt lat="42.650725" lon="-2.76566667">
        <ele>606.0</ele>
        <time>2021-10-22T08:49:11.000Z</time>
      </trkpt>
      <trkpt lat="42.65072" lon="-2.76565333">
        <ele>606.0</ele>
        <time>2021-10-22T08:49:12.000Z</time>
      </trkpt>
      <trkpt lat="42.65071333" lon="-2.76564167">
        <ele>606.0</ele>
        <time>2021-10-22T08:49:13.000Z</time>
      </trkpt>
      <trkpt lat="42.65071" lon="-2.765635">
        <ele>606.0</ele>
        <time>2021-10-22T08:49:14.000Z</time>
      </trkpt>
      <trkpt lat="42.65070667" lon="-2.76563">
        <ele>606.0</ele>
        <time>2021-10-22T08:49:15.000Z</time>
      </trkpt>
      <trkpt lat="42.650705" lon="-2.76562667">
        <ele>605.0</ele>
        <time>2021-10-22T08:49:16.000Z</time>
      </trkpt>
      <trkpt lat="42.65070333" lon="-2.76562667">
        <ele>605.0</ele>
        <time>2021-10-22T08:49:17.000Z</time>
      </trkpt>
      <trkpt lat="42.65070333" lon="-2.76563333">
        <ele>605.0</ele>
        <time>2021-10-22T08:49:18.000Z</time>
      </trkpt>
      <trkpt lat="42.65070167" lon="-2.765635">
        <ele>605.0</ele>
        <time>2021-10-22T08:49:19.000Z</time>
      </trkpt>
      <trkpt lat="42.65070167" lon="-2.765635">
        <ele>605.0</ele>
        <time>2021-10-22T08:49:20.000Z</time>
      </trkpt>
      <trkpt lat="42.65070167" lon="-2.765635">
        <ele>605.0</ele>
        <time>2021-10-22T08:49:21.000Z</time>
      </trkpt>
      <trkpt lat="42.65070167" lon="-2.76563167">
        <ele>605.0</ele>
        <time>2021-10-22T08:49:22.000Z</time>
      </trkpt>
      <trkpt lat="42.6507" lon="-2.765625">
        <ele>605.0</ele>
        <time>2021-10-22T08:49:23.000Z</time>
      </trkpt>
      <trkpt lat="42.65069833" lon="-2.765615">
        <ele>605.0</ele>
        <time>2021-10-22T08:49:24.000Z</time>
      </trkpt>
      <trkpt lat="42.650695" lon="-2.76560333">
        <ele>605.0</ele>
        <time>2021-10-22T08:49:25.000Z</time>
      </trkpt>
      <trkpt lat="42.65069167" lon="-2.76558667">
        <ele>605.0</ele>
        <time>2021-10-22T08:49:26.000Z</time>
      </trkpt>
      <trkpt lat="42.65068833" lon="-2.76557167">
        <ele>605.0</ele>
        <time>2021-10-22T08:49:27.000Z</time>
      </trkpt>
      <trkpt lat="42.65068333" lon="-2.76555667">
        <ele>605.0</ele>
        <time>2021-10-22T08:49:28.000Z</time>
      </trkpt>
      <trkpt lat="42.65068" lon="-2.76554333">
        <ele>605.0</ele>
        <time>2021-10-22T08:49:29.000Z</time>
      </trkpt>
      <trkpt lat="42.65067833" lon="-2.76552833">
        <ele>605.0</ele>
        <time>2021-10-22T08:49:30.000Z</time>
      </trkpt>
      <trkpt lat="42.65067667" lon="-2.76551167">
        <ele>605.0</ele>
        <time>2021-10-22T08:49:31.000Z</time>
      </trkpt>
      <trkpt lat="42.65067333" lon="-2.76549333">
        <ele>605.0</ele>
        <time>2021-10-22T08:49:32.000Z</time>
      </trkpt>
      <trkpt lat="42.65066833" lon="-2.76547667">
        <ele>605.0</ele>
        <time>2021-10-22T08:49:33.000Z</time>
      </trkpt>
      <trkpt lat="42.65066333" lon="-2.76546167">
        <ele>605.0</ele>
        <time>2021-10-22T08:49:34.000Z</time>
      </trkpt>
      <trkpt lat="42.65066" lon="-2.76544833">
        <ele>605.0</ele>
        <time>2021-10-22T08:49:35.000Z</time>
      </trkpt>
      <trkpt lat="42.65066" lon="-2.76543">
        <ele>605.0</ele>
        <time>2021-10-22T08:49:36.000Z</time>
      </trkpt>
      <trkpt lat="42.65065833" lon="-2.76541667">
        <ele>605.0</ele>
        <time>2021-10-22T08:49:37.000Z</time>
      </trkpt>
      <trkpt lat="42.650655" lon="-2.7654">
        <ele>605.0</ele>
        <time>2021-10-22T08:49:38.000Z</time>
      </trkpt>
      <trkpt lat="42.65065333" lon="-2.765385">
        <ele>605.0</ele>
        <time>2021-10-22T08:49:39.000Z</time>
      </trkpt>
      <trkpt lat="42.65065" lon="-2.76537667">
        <ele>605.0</ele>
        <time>2021-10-22T08:49:40.000Z</time>
      </trkpt>
      <trkpt lat="42.65064833" lon="-2.76537">
        <ele>605.0</ele>
        <time>2021-10-22T08:49:41.000Z</time>
      </trkpt>
      <trkpt lat="42.650645" lon="-2.76536667">
        <ele>606.0</ele>
        <time>2021-10-22T08:49:42.000Z</time>
      </trkpt>
      <trkpt lat="42.65064167" lon="-2.76536333">
        <ele>606.0</ele>
        <time>2021-10-22T08:49:43.000Z</time>
      </trkpt>
      <trkpt lat="42.65064" lon="-2.76536">
        <ele>606.0</ele>
        <time>2021-10-22T08:49:44.000Z</time>
      </trkpt>
      <trkpt lat="42.65063833" lon="-2.76536">
        <ele>606.0</ele>
        <time>2021-10-22T08:49:45.000Z</time>
      </trkpt>
      <trkpt lat="42.65063667" lon="-2.76535833">
        <ele>606.0</ele>
        <time>2021-10-22T08:49:46.000Z</time>
      </trkpt>
      <trkpt lat="42.65063333" lon="-2.76535667">
        <ele>606.0</ele>
        <time>2021-10-22T08:49:47.000Z</time>
      </trkpt>
      <trkpt lat="42.65063333" lon="-2.76535333">
        <ele>606.0</ele>
        <time>2021-10-22T08:49:48.000Z</time>
      </trkpt>
      <trkpt lat="42.65063333" lon="-2.76534833">
        <ele>606.0</ele>
        <time>2021-10-22T08:49:49.000Z</time>
      </trkpt>
      <trkpt lat="42.65063333" lon="-2.76533833">
        <ele>606.0</ele>
        <time>2021-10-22T08:49:50.000Z</time>
      </trkpt>
      <trkpt lat="42.65063333" lon="-2.76532833">
        <ele>606.0</ele>
        <time>2021-10-22T08:49:51.000Z</time>
      </trkpt>
      <trkpt lat="42.65063333" lon="-2.76531667">
        <ele>606.0</ele>
        <time>2021-10-22T08:49:52.000Z</time>
      </trkpt>
      <trkpt lat="42.650635" lon="-2.7653">
        <ele>606.0</ele>
        <time>2021-10-22T08:49:53.000Z</time>
      </trkpt>
      <trkpt lat="42.65063667" lon="-2.76528667">
        <ele>606.0</ele>
        <time>2021-10-22T08:49:54.000Z</time>
      </trkpt>
      <trkpt lat="42.65063833" lon="-2.765275">
        <ele>606.0</ele>
        <time>2021-10-22T08:49:55.000Z</time>
      </trkpt>
      <trkpt lat="42.65063667" lon="-2.76526833">
        <ele>606.0</ele>
        <time>2021-10-22T08:49:56.000Z</time>
      </trkpt>
      <trkpt lat="42.65063833" lon="-2.76526167">
        <ele>606.0</ele>
        <time>2021-10-22T08:49:57.000Z</time>
      </trkpt>
      <trkpt lat="42.65063667" lon="-2.76526">
        <ele>606.0</ele>
        <time>2021-10-22T08:49:58.000Z</time>
      </trkpt>
      <trkpt lat="42.65063667" lon="-2.76525667">
        <ele>606.0</ele>
        <time>2021-10-22T08:49:59.000Z</time>
      </trkpt>
      <trkpt lat="42.65063833" lon="-2.76525333">
        <ele>606.0</ele>
        <time>2021-10-22T08:50:00.000Z</time>
      </trkpt>
      <trkpt lat="42.65063833" lon="-2.76525167">
        <ele>606.0</ele>
        <time>2021-10-22T08:50:01.000Z</time>
      </trkpt>
      <trkpt lat="42.65063833" lon="-2.765245">
        <ele>606.0</ele>
        <time>2021-10-22T08:50:02.000Z</time>
      </trkpt>
      <trkpt lat="42.650635" lon="-2.76523333">
        <ele>606.0</ele>
        <time>2021-10-22T08:50:03.000Z</time>
      </trkpt>
      <trkpt lat="42.65063167" lon="-2.76522">
        <ele>606.0</ele>
        <time>2021-10-22T08:50:04.000Z</time>
      </trkpt>
      <trkpt lat="42.65062833" lon="-2.76520167">
        <ele>606.0</ele>
        <time>2021-10-22T08:50:05.000Z</time>
      </trkpt>
      <trkpt lat="42.65062667" lon="-2.76518333">
        <ele>606.0</ele>
        <time>2021-10-22T08:50:06.000Z</time>
      </trkpt>
      <trkpt lat="42.65062667" lon="-2.76516167">
        <ele>606.0</ele>
        <time>2021-10-22T08:50:07.000Z</time>
      </trkpt>
      <trkpt lat="42.65062667" lon="-2.76514167">
        <ele>606.0</ele>
        <time>2021-10-22T08:50:08.000Z</time>
      </trkpt>
      <trkpt lat="42.65062667" lon="-2.765125">
        <ele>606.0</ele>
        <time>2021-10-22T08:50:09.000Z</time>
      </trkpt>
      <trkpt lat="42.65062667" lon="-2.76511">
        <ele>606.0</ele>
        <time>2021-10-22T08:50:10.000Z</time>
      </trkpt>
      <trkpt lat="42.65062833" lon="-2.76509167">
        <ele>606.0</ele>
        <time>2021-10-22T08:50:11.000Z</time>
      </trkpt>
      <trkpt lat="42.65063333" lon="-2.765075">
        <ele>606.0</ele>
        <time>2021-10-22T08:50:12.000Z</time>
      </trkpt>
      <trkpt lat="42.65063667" lon="-2.76505833">
        <ele>606.0</ele>
        <time>2021-10-22T08:50:13.000Z</time>
      </trkpt>
      <trkpt lat="42.65064167" lon="-2.76504333">
        <ele>605.0</ele>
        <time>2021-10-22T08:50:14.000Z</time>
      </trkpt>
      <trkpt lat="42.650645" lon="-2.76502667">
        <ele>605.0</ele>
        <time>2021-10-22T08:50:15.000Z</time>
      </trkpt>
      <trkpt lat="42.650645" lon="-2.76501">
        <ele>605.0</ele>
        <time>2021-10-22T08:50:16.000Z</time>
      </trkpt>
      <trkpt lat="42.65064333" lon="-2.764995">
        <ele>605.0</ele>
        <time>2021-10-22T08:50:17.000Z</time>
      </trkpt>
      <trkpt lat="42.65064" lon="-2.76498">
        <ele>605.0</ele>
        <time>2021-10-22T08:50:18.000Z</time>
      </trkpt>
      <trkpt lat="42.65063833" lon="-2.76496167">
        <ele>605.0</ele>
        <time>2021-10-22T08:50:19.000Z</time>
      </trkpt>
      <trkpt lat="42.65063333" lon="-2.76494667">
        <ele>605.0</ele>
        <time>2021-10-22T08:50:20.000Z</time>
      </trkpt>
      <trkpt lat="42.65063167" lon="-2.76492833">
        <ele>606.0</ele>
        <time>2021-10-22T08:50:21.000Z</time>
      </trkpt>
      <trkpt lat="42.65062833" lon="-2.76491333">
        <ele>606.0</ele>
        <time>2021-10-22T08:50:22.000Z</time>
      </trkpt>
      <trkpt lat="42.650625" lon="-2.76489833">
        <ele>606.0</ele>
        <time>2021-10-22T08:50:23.000Z</time>
      </trkpt>
      <trkpt lat="42.650625" lon="-2.764885">
        <ele>606.0</ele>
        <time>2021-10-22T08:50:24.000Z</time>
      </trkpt>
      <trkpt lat="42.65062667" lon="-2.76487">
        <ele>606.0</ele>
        <time>2021-10-22T08:50:25.000Z</time>
      </trkpt>
      <trkpt lat="42.65062667" lon="-2.764855">
        <ele>606.0</ele>
        <time>2021-10-22T08:50:26.000Z</time>
      </trkpt>
      <trkpt lat="42.65062833" lon="-2.76483667">
        <ele>606.0</ele>
        <time>2021-10-22T08:50:27.000Z</time>
      </trkpt>
      <trkpt lat="42.65063167" lon="-2.76481833">
        <ele>606.0</ele>
        <time>2021-10-22T08:50:28.000Z</time>
      </trkpt>
      <trkpt lat="42.65063167" lon="-2.76479833">
        <ele>606.0</ele>
        <time>2021-10-22T08:50:29.000Z</time>
      </trkpt>
      <trkpt lat="42.65063" lon="-2.76477667">
        <ele>606.0</ele>
        <time>2021-10-22T08:50:30.000Z</time>
      </trkpt>
      <trkpt lat="42.65062833" lon="-2.76475667">
        <ele>606.0</ele>
        <time>2021-10-22T08:50:31.000Z</time>
      </trkpt>
      <trkpt lat="42.65062833" lon="-2.76474">
        <ele>606.0</ele>
        <time>2021-10-22T08:50:32.000Z</time>
      </trkpt>
      <trkpt lat="42.65062833" lon="-2.76472333">
        <ele>606.0</ele>
        <time>2021-10-22T08:50:33.000Z</time>
      </trkpt>
      <trkpt lat="42.65063" lon="-2.76470833">
        <ele>606.0</ele>
        <time>2021-10-22T08:50:34.000Z</time>
      </trkpt>
      <trkpt lat="42.65063" lon="-2.764695">
        <ele>606.0</ele>
        <time>2021-10-22T08:50:35.000Z</time>
      </trkpt>
      <trkpt lat="42.65063" lon="-2.76468167">
        <ele>606.0</ele>
        <time>2021-10-22T08:50:36.000Z</time>
      </trkpt>
      <trkpt lat="42.65062667" lon="-2.76466833">
        <ele>606.0</ele>
        <time>2021-10-22T08:50:37.000Z</time>
      </trkpt>
      <trkpt lat="42.650625" lon="-2.76465333">
        <ele>606.0</ele>
        <time>2021-10-22T08:50:38.000Z</time>
      </trkpt>
      <trkpt lat="42.65062333" lon="-2.76463833">
        <ele>606.0</ele>
        <time>2021-10-22T08:50:39.000Z</time>
      </trkpt>
      <trkpt lat="42.65062333" lon="-2.76462167">
        <ele>606.0</ele>
        <time>2021-10-22T08:50:40.000Z</time>
      </trkpt>
      <trkpt lat="42.650625" lon="-2.764605">
        <ele>606.0</ele>
        <time>2021-10-22T08:50:41.000Z</time>
      </trkpt>
      <trkpt lat="42.65062667" lon="-2.764585">
        <ele>606.0</ele>
        <time>2021-10-22T08:50:42.000Z</time>
      </trkpt>
      <trkpt lat="42.65062833" lon="-2.76457">
        <ele>607.0</ele>
        <time>2021-10-22T08:50:43.000Z</time>
      </trkpt>
      <trkpt lat="42.65062833" lon="-2.764555">
        <ele>607.0</ele>
        <time>2021-10-22T08:50:44.000Z</time>
      </trkpt>
      <trkpt lat="42.65062833" lon="-2.76454">
        <ele>607.0</ele>
        <time>2021-10-22T08:50:45.000Z</time>
      </trkpt>
      <trkpt lat="42.65062833" lon="-2.764525">
        <ele>607.0</ele>
        <time>2021-10-22T08:50:46.000Z</time>
      </trkpt>
      <trkpt lat="42.65062833" lon="-2.76451">
        <ele>607.0</ele>
        <time>2021-10-22T08:50:47.000Z</time>
      </trkpt>
      <trkpt lat="42.65062833" lon="-2.76449167">
        <ele>607.0</ele>
        <time>2021-10-22T08:50:48.000Z</time>
      </trkpt>
      <trkpt lat="42.65062667" lon="-2.76447167">
        <ele>607.0</ele>
        <time>2021-10-22T08:50:49.000Z</time>
      </trkpt>
      <trkpt lat="42.650625" lon="-2.76445167">
        <ele>607.0</ele>
        <time>2021-10-22T08:50:50.000Z</time>
      </trkpt>
      <trkpt lat="42.65062333" lon="-2.76443167">
        <ele>607.0</ele>
        <time>2021-10-22T08:50:51.000Z</time>
      </trkpt>
      <trkpt lat="42.65062333" lon="-2.76441333">
        <ele>607.0</ele>
        <time>2021-10-22T08:50:52.000Z</time>
      </trkpt>
      <trkpt lat="42.65062333" lon="-2.764395">
        <ele>607.0</ele>
        <time>2021-10-22T08:50:53.000Z</time>
      </trkpt>
      <trkpt lat="42.650625" lon="-2.76437667">
        <ele>607.0</ele>
        <time>2021-10-22T08:50:54.000Z</time>
      </trkpt>
      <trkpt lat="42.65062833" lon="-2.76436">
        <ele>607.0</ele>
        <time>2021-10-22T08:50:55.000Z</time>
      </trkpt>
      <trkpt lat="42.65063" lon="-2.76434333">
        <ele>607.0</ele>
        <time>2021-10-22T08:50:56.000Z</time>
      </trkpt>
      <trkpt lat="42.650635" lon="-2.76432667">
        <ele>607.0</ele>
        <time>2021-10-22T08:50:57.000Z</time>
      </trkpt>
      <trkpt lat="42.65063833" lon="-2.76430833">
        <ele>607.0</ele>
        <time>2021-10-22T08:50:58.000Z</time>
      </trkpt>
      <trkpt lat="42.65064167" lon="-2.76429">
        <ele>607.0</ele>
        <time>2021-10-22T08:50:59.000Z</time>
      </trkpt>
      <trkpt lat="42.65064333" lon="-2.76427167">
        <ele>607.0</ele>
        <time>2021-10-22T08:51:00.000Z</time>
      </trkpt>
      <trkpt lat="42.65064667" lon="-2.764255">
        <ele>607.0</ele>
        <time>2021-10-22T08:51:01.000Z</time>
      </trkpt>
      <trkpt lat="42.65064833" lon="-2.76423833">
        <ele>607.0</ele>
        <time>2021-10-22T08:51:02.000Z</time>
      </trkpt>
      <trkpt lat="42.65065167" lon="-2.76422167">
        <ele>607.0</ele>
        <time>2021-10-22T08:51:03.000Z</time>
      </trkpt>
      <trkpt lat="42.650655" lon="-2.76420167">
        <ele>607.0</ele>
        <time>2021-10-22T08:51:04.000Z</time>
      </trkpt>
      <trkpt lat="42.65065833" lon="-2.76418333">
        <ele>607.0</ele>
        <time>2021-10-22T08:51:05.000Z</time>
      </trkpt>
      <trkpt lat="42.65066167" lon="-2.76416667">
        <ele>607.0</ele>
        <time>2021-10-22T08:51:06.000Z</time>
      </trkpt>
      <trkpt lat="42.650665" lon="-2.76415">
        <ele>607.0</ele>
        <time>2021-10-22T08:51:07.000Z</time>
      </trkpt>
      <trkpt lat="42.65067" lon="-2.76413333">
        <ele>607.0</ele>
        <time>2021-10-22T08:51:08.000Z</time>
      </trkpt>
      <trkpt lat="42.65067667" lon="-2.76411667">
        <ele>607.0</ele>
        <time>2021-10-22T08:51:09.000Z</time>
      </trkpt>
      <trkpt lat="42.65068333" lon="-2.76409667">
        <ele>607.0</ele>
        <time>2021-10-22T08:51:10.000Z</time>
      </trkpt>
      <trkpt lat="42.65069" lon="-2.76408167">
        <ele>607.0</ele>
        <time>2021-10-22T08:51:11.000Z</time>
      </trkpt>
      <trkpt lat="42.6507" lon="-2.764065">
        <ele>607.0</ele>
        <time>2021-10-22T08:51:12.000Z</time>
      </trkpt>
      <trkpt lat="42.65070833" lon="-2.76405">
        <ele>607.0</ele>
        <time>2021-10-22T08:51:13.000Z</time>
      </trkpt>
      <trkpt lat="42.65071667" lon="-2.76403333">
        <ele>607.0</ele>
        <time>2021-10-22T08:51:14.000Z</time>
      </trkpt>
      <trkpt lat="42.65072333" lon="-2.76401667">
        <ele>607.0</ele>
        <time>2021-10-22T08:51:15.000Z</time>
      </trkpt>
      <trkpt lat="42.65072833" lon="-2.76400167">
        <ele>607.0</ele>
        <time>2021-10-22T08:51:16.000Z</time>
      </trkpt>
      <trkpt lat="42.65073333" lon="-2.76398667">
        <ele>607.0</ele>
        <time>2021-10-22T08:51:17.000Z</time>
      </trkpt>
      <trkpt lat="42.65073667" lon="-2.76397333">
        <ele>607.0</ele>
        <time>2021-10-22T08:51:18.000Z</time>
      </trkpt>
      <trkpt lat="42.65074167" lon="-2.76396167">
        <ele>607.0</ele>
        <time>2021-10-22T08:51:19.000Z</time>
      </trkpt>
      <trkpt lat="42.65074667" lon="-2.763945">
        <ele>607.0</ele>
        <time>2021-10-22T08:51:20.000Z</time>
      </trkpt>
      <trkpt lat="42.65075" lon="-2.76392667">
        <ele>607.0</ele>
        <time>2021-10-22T08:51:21.000Z</time>
      </trkpt>
      <trkpt lat="42.65075333" lon="-2.76390833">
        <ele>607.0</ele>
        <time>2021-10-22T08:51:22.000Z</time>
      </trkpt>
      <trkpt lat="42.65075667" lon="-2.76389333">
        <ele>607.0</ele>
        <time>2021-10-22T08:51:23.000Z</time>
      </trkpt>
      <trkpt lat="42.65076167" lon="-2.76388">
        <ele>607.0</ele>
        <time>2021-10-22T08:51:24.000Z</time>
      </trkpt>
      <trkpt lat="42.65076333" lon="-2.76386833">
        <ele>607.0</ele>
        <time>2021-10-22T08:51:25.000Z</time>
      </trkpt>
      <trkpt lat="42.65076667" lon="-2.76385667">
        <ele>607.0</ele>
        <time>2021-10-22T08:51:26.000Z</time>
      </trkpt>
      <trkpt lat="42.65077" lon="-2.76384167">
        <ele>607.0</ele>
        <time>2021-10-22T08:51:27.000Z</time>
      </trkpt>
      <trkpt lat="42.65077333" lon="-2.76382833">
        <ele>607.0</ele>
        <time>2021-10-22T08:51:28.000Z</time>
      </trkpt>
      <trkpt lat="42.65078" lon="-2.76381167">
        <ele>607.0</ele>
        <time>2021-10-22T08:51:29.000Z</time>
      </trkpt>
      <trkpt lat="42.650785" lon="-2.76379667">
        <ele>607.0</ele>
        <time>2021-10-22T08:51:30.000Z</time>
      </trkpt>
      <trkpt lat="42.65079" lon="-2.76378333">
        <ele>607.0</ele>
        <time>2021-10-22T08:51:31.000Z</time>
      </trkpt>
      <trkpt lat="42.650795" lon="-2.76376667">
        <ele>607.0</ele>
        <time>2021-10-22T08:51:32.000Z</time>
      </trkpt>
      <trkpt lat="42.6508" lon="-2.76375">
        <ele>607.0</ele>
        <time>2021-10-22T08:51:33.000Z</time>
      </trkpt>
      <trkpt lat="42.65080667" lon="-2.76373333">
        <ele>607.0</ele>
        <time>2021-10-22T08:51:34.000Z</time>
      </trkpt>
      <trkpt lat="42.65081167" lon="-2.76371833">
        <ele>607.0</ele>
        <time>2021-10-22T08:51:35.000Z</time>
      </trkpt>
      <trkpt lat="42.65081667" lon="-2.76370333">
        <ele>607.0</ele>
        <time>2021-10-22T08:51:36.000Z</time>
      </trkpt>
      <trkpt lat="42.65082" lon="-2.76369">
        <ele>607.0</ele>
        <time>2021-10-22T08:51:37.000Z</time>
      </trkpt>
      <trkpt lat="42.650825" lon="-2.76367333">
        <ele>607.0</ele>
        <time>2021-10-22T08:51:38.000Z</time>
      </trkpt>
      <trkpt lat="42.65083167" lon="-2.763655">
        <ele>607.0</ele>
        <time>2021-10-22T08:51:39.000Z</time>
      </trkpt>
      <trkpt lat="42.65083667" lon="-2.763635">
        <ele>607.0</ele>
        <time>2021-10-22T08:51:40.000Z</time>
      </trkpt>
      <trkpt lat="42.65084333" lon="-2.76361667">
        <ele>607.0</ele>
        <time>2021-10-22T08:51:41.000Z</time>
      </trkpt>
      <trkpt lat="42.65085167" lon="-2.76359833">
        <ele>607.0</ele>
        <time>2021-10-22T08:51:42.000Z</time>
      </trkpt>
      <trkpt lat="42.65086" lon="-2.76358167">
        <ele>607.0</ele>
        <time>2021-10-22T08:51:43.000Z</time>
      </trkpt>
      <trkpt lat="42.65086833" lon="-2.76356833">
        <ele>607.0</ele>
        <time>2021-10-22T08:51:44.000Z</time>
      </trkpt>
      <trkpt lat="42.65087333" lon="-2.763555">
        <ele>607.0</ele>
        <time>2021-10-22T08:51:45.000Z</time>
      </trkpt>
      <trkpt lat="42.65087833" lon="-2.76354333">
        <ele>607.0</ele>
        <time>2021-10-22T08:51:46.000Z</time>
      </trkpt>
      <trkpt lat="42.65088333" lon="-2.76353">
        <ele>607.0</ele>
        <time>2021-10-22T08:51:47.000Z</time>
      </trkpt>
      <trkpt lat="42.65089167" lon="-2.763515">
        <ele>607.0</ele>
        <time>2021-10-22T08:51:48.000Z</time>
      </trkpt>
      <trkpt lat="42.6509" lon="-2.76349833">
        <ele>607.0</ele>
        <time>2021-10-22T08:51:49.000Z</time>
      </trkpt>
      <trkpt lat="42.65090667" lon="-2.76348333">
        <ele>607.0</ele>
        <time>2021-10-22T08:51:50.000Z</time>
      </trkpt>
      <trkpt lat="42.65091333" lon="-2.763465">
        <ele>607.0</ele>
        <time>2021-10-22T08:51:51.000Z</time>
      </trkpt>
      <trkpt lat="42.65092" lon="-2.76344833">
        <ele>607.0</ele>
        <time>2021-10-22T08:51:52.000Z</time>
      </trkpt>
      <trkpt lat="42.65092667" lon="-2.76343167">
        <ele>607.0</ele>
        <time>2021-10-22T08:51:53.000Z</time>
      </trkpt>
      <trkpt lat="42.650935" lon="-2.76341833">
        <ele>607.0</ele>
        <time>2021-10-22T08:51:54.000Z</time>
      </trkpt>
      <trkpt lat="42.65094333" lon="-2.763405">
        <ele>607.0</ele>
        <time>2021-10-22T08:51:55.000Z</time>
      </trkpt>
      <trkpt lat="42.65095167" lon="-2.76339167">
        <ele>607.0</ele>
        <time>2021-10-22T08:51:56.000Z</time>
      </trkpt>
      <trkpt lat="42.65096167" lon="-2.76338">
        <ele>607.0</ele>
        <time>2021-10-22T08:51:57.000Z</time>
      </trkpt>
      <trkpt lat="42.65097167" lon="-2.76336667">
        <ele>607.0</ele>
        <time>2021-10-22T08:51:58.000Z</time>
      </trkpt>
      <trkpt lat="42.65098167" lon="-2.76335333">
        <ele>607.0</ele>
        <time>2021-10-22T08:51:59.000Z</time>
      </trkpt>
      <trkpt lat="42.65099167" lon="-2.76334167">
        <ele>607.0</ele>
        <time>2021-10-22T08:52:00.000Z</time>
      </trkpt>
      <trkpt lat="42.65100167" lon="-2.76333333">
        <ele>607.0</ele>
        <time>2021-10-22T08:52:01.000Z</time>
      </trkpt>
      <trkpt lat="42.65100833" lon="-2.763325">
        <ele>607.0</ele>
        <time>2021-10-22T08:52:02.000Z</time>
      </trkpt>
      <trkpt lat="42.65101833" lon="-2.76331333">
        <ele>608.0</ele>
        <time>2021-10-22T08:52:03.000Z</time>
      </trkpt>
      <trkpt lat="42.65102833" lon="-2.76330167">
        <ele>608.0</ele>
        <time>2021-10-22T08:52:04.000Z</time>
      </trkpt>
      <trkpt lat="42.65103667" lon="-2.76329">
        <ele>608.0</ele>
        <time>2021-10-22T08:52:05.000Z</time>
      </trkpt>
      <trkpt lat="42.651045" lon="-2.76327667">
        <ele>608.0</ele>
        <time>2021-10-22T08:52:06.000Z</time>
      </trkpt>
      <trkpt lat="42.65105333" lon="-2.763265">
        <ele>608.0</ele>
        <time>2021-10-22T08:52:07.000Z</time>
      </trkpt>
      <trkpt lat="42.65106" lon="-2.76325667">
        <ele>608.0</ele>
        <time>2021-10-22T08:52:08.000Z</time>
      </trkpt>
      <trkpt lat="42.65106833" lon="-2.76324833">
        <ele>608.0</ele>
        <time>2021-10-22T08:52:09.000Z</time>
      </trkpt>
      <trkpt lat="42.65107667" lon="-2.76324">
        <ele>609.0</ele>
        <time>2021-10-22T08:52:10.000Z</time>
      </trkpt>
      <trkpt lat="42.65108333" lon="-2.76322833">
        <ele>609.0</ele>
        <time>2021-10-22T08:52:11.000Z</time>
      </trkpt>
      <trkpt lat="42.65108833" lon="-2.76321667">
        <ele>609.0</ele>
        <time>2021-10-22T08:52:12.000Z</time>
      </trkpt>
      <trkpt lat="42.65109333" lon="-2.763205">
        <ele>609.0</ele>
        <time>2021-10-22T08:52:13.000Z</time>
      </trkpt>
      <trkpt lat="42.6511" lon="-2.76319167">
        <ele>609.0</ele>
        <time>2021-10-22T08:52:14.000Z</time>
      </trkpt>
      <trkpt lat="42.651105" lon="-2.76317833">
        <ele>609.0</ele>
        <time>2021-10-22T08:52:15.000Z</time>
      </trkpt>
      <trkpt lat="42.65110833" lon="-2.763165">
        <ele>609.0</ele>
        <time>2021-10-22T08:52:16.000Z</time>
      </trkpt>
      <trkpt lat="42.65111" lon="-2.76315333">
        <ele>609.0</ele>
        <time>2021-10-22T08:52:17.000Z</time>
      </trkpt>
      <trkpt lat="42.65111167" lon="-2.76314167">
        <ele>609.0</ele>
        <time>2021-10-22T08:52:18.000Z</time>
      </trkpt>
      <trkpt lat="42.65111333" lon="-2.76312833">
        <ele>609.0</ele>
        <time>2021-10-22T08:52:19.000Z</time>
      </trkpt>
      <trkpt lat="42.65111333" lon="-2.763115">
        <ele>609.0</ele>
        <time>2021-10-22T08:52:20.000Z</time>
      </trkpt>
      <trkpt lat="42.651115" lon="-2.76310667">
        <ele>610.0</ele>
        <time>2021-10-22T08:52:21.000Z</time>
      </trkpt>
      <trkpt lat="42.65112167" lon="-2.7631">
        <ele>610.0</ele>
        <time>2021-10-22T08:52:22.000Z</time>
      </trkpt>
      <trkpt lat="42.65113167" lon="-2.76309667">
        <ele>610.0</ele>
        <time>2021-10-22T08:52:23.000Z</time>
      </trkpt>
      <trkpt lat="42.65114167" lon="-2.76309667">
        <ele>610.0</ele>
        <time>2021-10-22T08:52:24.000Z</time>
      </trkpt>
      <trkpt lat="42.651155" lon="-2.76310167">
        <ele>610.0</ele>
        <time>2021-10-22T08:52:25.000Z</time>
      </trkpt>
      <trkpt lat="42.65116667" lon="-2.76310833">
        <ele>610.0</ele>
        <time>2021-10-22T08:52:26.000Z</time>
      </trkpt>
      <trkpt lat="42.65117667" lon="-2.76311667">
        <ele>610.0</ele>
        <time>2021-10-22T08:52:27.000Z</time>
      </trkpt>
      <trkpt lat="42.651185" lon="-2.763125">
        <ele>610.0</ele>
        <time>2021-10-22T08:52:28.000Z</time>
      </trkpt>
      <trkpt lat="42.65119" lon="-2.76313">
        <ele>610.0</ele>
        <time>2021-10-22T08:52:29.000Z</time>
      </trkpt>
      <trkpt lat="42.65119833" lon="-2.76313167">
        <ele>610.0</ele>
        <time>2021-10-22T08:52:30.000Z</time>
      </trkpt>
      <trkpt lat="42.65120667" lon="-2.76313167">
        <ele>610.0</ele>
        <time>2021-10-22T08:52:31.000Z</time>
      </trkpt>
      <trkpt lat="42.65121333" lon="-2.76312833">
        <ele>610.0</ele>
        <time>2021-10-22T08:52:32.000Z</time>
      </trkpt>
      <trkpt lat="42.65122" lon="-2.76312167">
        <ele>610.0</ele>
        <time>2021-10-22T08:52:33.000Z</time>
      </trkpt>
      <trkpt lat="42.65122667" lon="-2.76311833">
        <ele>611.0</ele>
        <time>2021-10-22T08:52:34.000Z</time>
      </trkpt>
      <trkpt lat="42.65123" lon="-2.76311833">
        <ele>611.0</ele>
        <time>2021-10-22T08:52:35.000Z</time>
      </trkpt>
      <trkpt lat="42.65123667" lon="-2.76312167">
        <ele>611.0</ele>
        <time>2021-10-22T08:52:36.000Z</time>
      </trkpt>
      <trkpt lat="42.65124167" lon="-2.76312333">
        <ele>611.0</ele>
        <time>2021-10-22T08:52:37.000Z</time>
      </trkpt>
      <trkpt lat="42.651245" lon="-2.76312833">
        <ele>611.0</ele>
        <time>2021-10-22T08:52:38.000Z</time>
      </trkpt>
      <trkpt lat="42.65124667" lon="-2.76312833">
        <ele>611.0</ele>
        <time>2021-10-22T08:52:39.000Z</time>
      </trkpt>
      <trkpt lat="42.65125" lon="-2.76313167">
        <ele>611.0</ele>
        <time>2021-10-22T08:52:40.000Z</time>
      </trkpt>
      <trkpt lat="42.651255" lon="-2.76314">
        <ele>611.0</ele>
        <time>2021-10-22T08:52:41.000Z</time>
      </trkpt>
      <trkpt lat="42.65125833" lon="-2.76314333">
        <ele>611.0</ele>
        <time>2021-10-22T08:52:42.000Z</time>
      </trkpt>
      <trkpt lat="42.65126167" lon="-2.763145">
        <ele>611.0</ele>
        <time>2021-10-22T08:52:43.000Z</time>
      </trkpt>
      <trkpt lat="42.65126667" lon="-2.76314333">
        <ele>611.0</ele>
        <time>2021-10-22T08:52:44.000Z</time>
      </trkpt>
      <trkpt lat="42.65127167" lon="-2.76314167">
        <ele>611.0</ele>
        <time>2021-10-22T08:52:45.000Z</time>
      </trkpt>
      <trkpt lat="42.65127667" lon="-2.76313833">
        <ele>611.0</ele>
        <time>2021-10-22T08:52:46.000Z</time>
      </trkpt>
      <trkpt lat="42.65128" lon="-2.76313167">
        <ele>611.0</ele>
        <time>2021-10-22T08:52:47.000Z</time>
      </trkpt>
      <trkpt lat="42.65128667" lon="-2.763125">
        <ele>611.0</ele>
        <time>2021-10-22T08:52:48.000Z</time>
      </trkpt>
      <trkpt lat="42.65129333" lon="-2.76311833">
        <ele>611.0</ele>
        <time>2021-10-22T08:52:49.000Z</time>
      </trkpt>
      <trkpt lat="42.65130167" lon="-2.763115">
        <ele>611.0</ele>
        <time>2021-10-22T08:52:50.000Z</time>
      </trkpt>
      <trkpt lat="42.65130667" lon="-2.76311667">
        <ele>611.0</ele>
        <time>2021-10-22T08:52:51.000Z</time>
      </trkpt>
      <trkpt lat="42.65130833" lon="-2.76312333">
        <ele>611.0</ele>
        <time>2021-10-22T08:52:52.000Z</time>
      </trkpt>
      <trkpt lat="42.65130667" lon="-2.76313">
        <ele>611.0</ele>
        <time>2021-10-22T08:52:53.000Z</time>
      </trkpt>
      <trkpt lat="42.651305" lon="-2.763135">
        <ele>611.0</ele>
        <time>2021-10-22T08:52:54.000Z</time>
      </trkpt>
      <trkpt lat="42.651305" lon="-2.76314">
        <ele>611.0</ele>
        <time>2021-10-22T08:52:55.000Z</time>
      </trkpt>
      <trkpt lat="42.651305" lon="-2.76314167">
        <ele>611.0</ele>
        <time>2021-10-22T08:52:56.000Z</time>
      </trkpt>
      <trkpt lat="42.65130333" lon="-2.76314">
        <ele>611.0</ele>
        <time>2021-10-22T08:52:57.000Z</time>
      </trkpt>
      <trkpt lat="42.65129833" lon="-2.76314">
        <ele>611.0</ele>
        <time>2021-10-22T08:52:58.000Z</time>
      </trkpt>
      <trkpt lat="42.651295" lon="-2.763145">
        <ele>611.0</ele>
        <time>2021-10-22T08:52:59.000Z</time>
      </trkpt>
      <trkpt lat="42.65129167" lon="-2.76314833">
        <ele>611.0</ele>
        <time>2021-10-22T08:53:00.000Z</time>
      </trkpt>
      <trkpt lat="42.65128833" lon="-2.76315333">
        <ele>611.0</ele>
        <time>2021-10-22T08:53:01.000Z</time>
      </trkpt>
      <trkpt lat="42.651285" lon="-2.76315667">
        <ele>611.0</ele>
        <time>2021-10-22T08:53:02.000Z</time>
      </trkpt>
      <trkpt lat="42.65128" lon="-2.76316167">
        <ele>611.0</ele>
        <time>2021-10-22T08:53:03.000Z</time>
      </trkpt>
      <trkpt lat="42.65127167" lon="-2.76316667">
        <ele>611.0</ele>
        <time>2021-10-22T08:53:04.000Z</time>
      </trkpt>
      <trkpt lat="42.651265" lon="-2.76316833">
        <ele>612.0</ele>
        <time>2021-10-22T08:53:05.000Z</time>
      </trkpt>
      <trkpt lat="42.65126" lon="-2.76317333">
        <ele>612.0</ele>
        <time>2021-10-22T08:53:06.000Z</time>
      </trkpt>
      <trkpt lat="42.65125167" lon="-2.76318">
        <ele>612.0</ele>
        <time>2021-10-22T08:53:07.000Z</time>
      </trkpt>
      <trkpt lat="42.651245" lon="-2.76318833">
        <ele>612.0</ele>
        <time>2021-10-22T08:53:08.000Z</time>
      </trkpt>
      <trkpt lat="42.65123833" lon="-2.76319833">
        <ele>612.0</ele>
        <time>2021-10-22T08:53:09.000Z</time>
      </trkpt>
      <trkpt lat="42.65123167" lon="-2.76320833">
        <ele>612.0</ele>
        <time>2021-10-22T08:53:10.000Z</time>
      </trkpt>
      <trkpt lat="42.65122833" lon="-2.76321333">
        <ele>612.0</ele>
        <time>2021-10-22T08:53:11.000Z</time>
      </trkpt>
      <trkpt lat="42.651225" lon="-2.763215">
        <ele>612.0</ele>
        <time>2021-10-22T08:53:12.000Z</time>
      </trkpt>
      <trkpt lat="42.65122167" lon="-2.76321833">
        <ele>612.0</ele>
        <time>2021-10-22T08:53:13.000Z</time>
      </trkpt>
      <trkpt lat="42.65122167" lon="-2.76321667">
        <ele>612.0</ele>
        <time>2021-10-22T08:53:14.000Z</time>
      </trkpt>
      <trkpt lat="42.65122333" lon="-2.763215">
        <ele>612.0</ele>
        <time>2021-10-22T08:53:15.000Z</time>
      </trkpt>
      <trkpt lat="42.651225" lon="-2.76321333">
        <ele>612.0</ele>
        <time>2021-10-22T08:53:16.000Z</time>
      </trkpt>
      <trkpt lat="42.65122667" lon="-2.76321333">
        <ele>612.0</ele>
        <time>2021-10-22T08:53:17.000Z</time>
      </trkpt>
      <trkpt lat="42.65123167" lon="-2.76321333">
        <ele>612.0</ele>
        <time>2021-10-22T08:53:18.000Z</time>
      </trkpt>
      <trkpt lat="42.65123667" lon="-2.76321333">
        <ele>612.0</ele>
        <time>2021-10-22T08:53:19.000Z</time>
      </trkpt>
      <trkpt lat="42.65124" lon="-2.76321167">
        <ele>613.0</ele>
        <time>2021-10-22T08:53:20.000Z</time>
      </trkpt>
      <trkpt lat="42.651245" lon="-2.76320833">
        <ele>613.0</ele>
        <time>2021-10-22T08:53:21.000Z</time>
      </trkpt>
      <trkpt lat="42.651245" lon="-2.76320333">
        <ele>613.0</ele>
        <time>2021-10-22T08:53:22.000Z</time>
      </trkpt>
      <trkpt lat="42.65124333" lon="-2.76319667">
        <ele>613.0</ele>
        <time>2021-10-22T08:53:23.000Z</time>
      </trkpt>
      <trkpt lat="42.65124333" lon="-2.76319167">
        <ele>613.0</ele>
        <time>2021-10-22T08:53:24.000Z</time>
      </trkpt>
      <trkpt lat="42.65124167" lon="-2.76318833">
        <ele>613.0</ele>
        <time>2021-10-22T08:53:25.000Z</time>
      </trkpt>
      <trkpt lat="42.65124167" lon="-2.763185">
        <ele>613.0</ele>
        <time>2021-10-22T08:53:26.000Z</time>
      </trkpt>
      <trkpt lat="42.65124167" lon="-2.763185">
        <ele>613.0</ele>
        <time>2021-10-22T08:53:27.000Z</time>
      </trkpt>
      <trkpt lat="42.65124167" lon="-2.763185">
        <ele>613.0</ele>
        <time>2021-10-22T08:53:28.000Z</time>
      </trkpt>
      <trkpt lat="42.65124167" lon="-2.76318167">
        <ele>612.0</ele>
        <time>2021-10-22T08:53:29.000Z</time>
      </trkpt>
      <trkpt lat="42.65124167" lon="-2.76317667">
        <ele>612.0</ele>
        <time>2021-10-22T08:53:30.000Z</time>
      </trkpt>
      <trkpt lat="42.65124167" lon="-2.76317">
        <ele>612.0</ele>
        <time>2021-10-22T08:53:31.000Z</time>
      </trkpt>
      <trkpt lat="42.65124" lon="-2.76316167">
        <ele>612.0</ele>
        <time>2021-10-22T08:53:32.000Z</time>
      </trkpt>
      <trkpt lat="42.65123833" lon="-2.76315333">
        <ele>612.0</ele>
        <time>2021-10-22T08:53:33.000Z</time>
      </trkpt>
      <trkpt lat="42.651235" lon="-2.76314833">
        <ele>612.0</ele>
        <time>2021-10-22T08:53:34.000Z</time>
      </trkpt>
      <trkpt lat="42.65122833" lon="-2.76314667">
        <ele>612.0</ele>
        <time>2021-10-22T08:53:35.000Z</time>
      </trkpt>
      <trkpt lat="42.65122167" lon="-2.76314833">
        <ele>612.0</ele>
        <time>2021-10-22T08:53:36.000Z</time>
      </trkpt>
      <trkpt lat="42.65121333" lon="-2.76315">
        <ele>612.0</ele>
        <time>2021-10-22T08:53:37.000Z</time>
      </trkpt>
      <trkpt lat="42.65120333" lon="-2.76314667">
        <ele>612.0</ele>
        <time>2021-10-22T08:53:38.000Z</time>
      </trkpt>
      <trkpt lat="42.65119333" lon="-2.76314">
        <ele>611.0</ele>
        <time>2021-10-22T08:53:39.000Z</time>
      </trkpt>
      <trkpt lat="42.65118333" lon="-2.76313167">
        <ele>611.0</ele>
        <time>2021-10-22T08:53:40.000Z</time>
      </trkpt>
      <trkpt lat="42.651175" lon="-2.76312167">
        <ele>611.0</ele>
        <time>2021-10-22T08:53:41.000Z</time>
      </trkpt>
      <trkpt lat="42.651165" lon="-2.763115">
        <ele>611.0</ele>
        <time>2021-10-22T08:53:42.000Z</time>
      </trkpt>
      <trkpt lat="42.65115167" lon="-2.76311">
        <ele>611.0</ele>
        <time>2021-10-22T08:53:43.000Z</time>
      </trkpt>
      <trkpt lat="42.65113833" lon="-2.76310167">
        <ele>611.0</ele>
        <time>2021-10-22T08:53:44.000Z</time>
      </trkpt>
      <trkpt lat="42.651125" lon="-2.76309">
        <ele>611.0</ele>
        <time>2021-10-22T08:53:45.000Z</time>
      </trkpt>
      <trkpt lat="42.65111667" lon="-2.76307833">
        <ele>611.0</ele>
        <time>2021-10-22T08:53:46.000Z</time>
      </trkpt>
      <trkpt lat="42.65111167" lon="-2.76306333">
        <ele>611.0</ele>
        <time>2021-10-22T08:53:47.000Z</time>
      </trkpt>
      <trkpt lat="42.65110667" lon="-2.76304833">
        <ele>610.0</ele>
        <time>2021-10-22T08:53:48.000Z</time>
      </trkpt>
      <trkpt lat="42.65110333" lon="-2.76302833">
        <ele>610.0</ele>
        <time>2021-10-22T08:53:49.000Z</time>
      </trkpt>
      <trkpt lat="42.65109667" lon="-2.76300833">
        <ele>610.0</ele>
        <time>2021-10-22T08:53:50.000Z</time>
      </trkpt>
      <trkpt lat="42.65109167" lon="-2.76299">
        <ele>610.0</ele>
        <time>2021-10-22T08:53:51.000Z</time>
      </trkpt>
      <trkpt lat="42.65108333" lon="-2.76297333">
        <ele>610.0</ele>
        <time>2021-10-22T08:53:52.000Z</time>
      </trkpt>
      <trkpt lat="42.65108167" lon="-2.76297167">
        <ele>610.0</ele>
        <time>2021-10-22T08:53:53.000Z</time>
      </trkpt>
      <trkpt lat="42.65108" lon="-2.76296833">
        <ele>610.0</ele>
        <time>2021-10-22T08:53:54.000Z</time>
      </trkpt>
      <trkpt lat="42.65107333" lon="-2.76296167">
        <ele>610.0</ele>
        <time>2021-10-22T08:53:55.000Z</time>
      </trkpt>
      <trkpt lat="42.651065" lon="-2.76295">
        <ele>610.0</ele>
        <time>2021-10-22T08:53:56.000Z</time>
      </trkpt>
      <trkpt lat="42.65105667" lon="-2.762935">
        <ele>610.0</ele>
        <time>2021-10-22T08:53:57.000Z</time>
      </trkpt>
      <trkpt lat="42.65104833" lon="-2.76291833">
        <ele>610.0</ele>
        <time>2021-10-22T08:53:58.000Z</time>
      </trkpt>
      <trkpt lat="42.65104" lon="-2.76290167">
        <ele>610.0</ele>
        <time>2021-10-22T08:53:59.000Z</time>
      </trkpt>
      <trkpt lat="42.65103167" lon="-2.762885">
        <ele>610.0</ele>
        <time>2021-10-22T08:54:00.000Z</time>
      </trkpt>
      <trkpt lat="42.65102333" lon="-2.76287">
        <ele>610.0</ele>
        <time>2021-10-22T08:54:01.000Z</time>
      </trkpt>
      <trkpt lat="42.651015" lon="-2.76285333">
        <ele>610.0</ele>
        <time>2021-10-22T08:54:02.000Z</time>
      </trkpt>
      <trkpt lat="42.65101167" lon="-2.762835">
        <ele>610.0</ele>
        <time>2021-10-22T08:54:03.000Z</time>
      </trkpt>
      <trkpt lat="42.651005" lon="-2.76281667">
        <ele>610.0</ele>
        <time>2021-10-22T08:54:04.000Z</time>
      </trkpt>
      <trkpt lat="42.65099667" lon="-2.76279667">
        <ele>610.0</ele>
        <time>2021-10-22T08:54:05.000Z</time>
      </trkpt>
      <trkpt lat="42.65099" lon="-2.76277667">
        <ele>610.0</ele>
        <time>2021-10-22T08:54:06.000Z</time>
      </trkpt>
      <trkpt lat="42.65098333" lon="-2.76275833">
        <ele>610.0</ele>
        <time>2021-10-22T08:54:07.000Z</time>
      </trkpt>
      <trkpt lat="42.65097667" lon="-2.762745">
        <ele>610.0</ele>
        <time>2021-10-22T08:54:08.000Z</time>
      </trkpt>
      <trkpt lat="42.65097" lon="-2.76273333">
        <ele>610.0</ele>
        <time>2021-10-22T08:54:09.000Z</time>
      </trkpt>
      <trkpt lat="42.650965" lon="-2.76272167">
        <ele>610.0</ele>
        <time>2021-10-22T08:54:10.000Z</time>
      </trkpt>
      <trkpt lat="42.65095833" lon="-2.76271">
        <ele>610.0</ele>
        <time>2021-10-22T08:54:11.000Z</time>
      </trkpt>
      <trkpt lat="42.65095167" lon="-2.762695">
        <ele>610.0</ele>
        <time>2021-10-22T08:54:12.000Z</time>
      </trkpt>
      <trkpt lat="42.650945" lon="-2.76268167">
        <ele>610.0</ele>
        <time>2021-10-22T08:54:13.000Z</time>
      </trkpt>
      <trkpt lat="42.65093833" lon="-2.76266167">
        <ele>610.0</ele>
        <time>2021-10-22T08:54:14.000Z</time>
      </trkpt>
      <trkpt lat="42.65093" lon="-2.762645">
        <ele>610.0</ele>
        <time>2021-10-22T08:54:15.000Z</time>
      </trkpt>
      <trkpt lat="42.65092333" lon="-2.76262833">
        <ele>610.0</ele>
        <time>2021-10-22T08:54:16.000Z</time>
      </trkpt>
      <trkpt lat="42.65091667" lon="-2.76261333">
        <ele>611.0</ele>
        <time>2021-10-22T08:54:17.000Z</time>
      </trkpt>
      <trkpt lat="42.65091167" lon="-2.7626">
        <ele>611.0</ele>
        <time>2021-10-22T08:54:18.000Z</time>
      </trkpt>
      <trkpt lat="42.65090667" lon="-2.762585">
        <ele>611.0</ele>
        <time>2021-10-22T08:54:19.000Z</time>
      </trkpt>
      <trkpt lat="42.6509" lon="-2.76257167">
        <ele>611.0</ele>
        <time>2021-10-22T08:54:20.000Z</time>
      </trkpt>
      <trkpt lat="42.65089333" lon="-2.762555">
        <ele>611.0</ele>
        <time>2021-10-22T08:54:21.000Z</time>
      </trkpt>
      <trkpt lat="42.65088667" lon="-2.76254167">
        <ele>611.0</ele>
        <time>2021-10-22T08:54:22.000Z</time>
      </trkpt>
      <trkpt lat="42.65088" lon="-2.76252333">
        <ele>611.0</ele>
        <time>2021-10-22T08:54:23.000Z</time>
      </trkpt>
      <trkpt lat="42.65087333" lon="-2.76250833">
        <ele>611.0</ele>
        <time>2021-10-22T08:54:24.000Z</time>
      </trkpt>
      <trkpt lat="42.65086667" lon="-2.76249167">
        <ele>611.0</ele>
        <time>2021-10-22T08:54:25.000Z</time>
      </trkpt>
      <trkpt lat="42.65085833" lon="-2.76247833">
        <ele>612.0</ele>
        <time>2021-10-22T08:54:26.000Z</time>
      </trkpt>
      <trkpt lat="42.65085" lon="-2.76246333">
        <ele>612.0</ele>
        <time>2021-10-22T08:54:27.000Z</time>
      </trkpt>
      <trkpt lat="42.65084167" lon="-2.76245167">
        <ele>612.0</ele>
        <time>2021-10-22T08:54:28.000Z</time>
      </trkpt>
      <trkpt lat="42.65083167" lon="-2.76243833">
        <ele>612.0</ele>
        <time>2021-10-22T08:54:29.000Z</time>
      </trkpt>
      <trkpt lat="42.65082333" lon="-2.76242667">
        <ele>612.0</ele>
        <time>2021-10-22T08:54:30.000Z</time>
      </trkpt>
      <trkpt lat="42.65081333" lon="-2.76241333">
        <ele>612.0</ele>
        <time>2021-10-22T08:54:31.000Z</time>
      </trkpt>
      <trkpt lat="42.65080333" lon="-2.7624">
        <ele>612.0</ele>
        <time>2021-10-22T08:54:32.000Z</time>
      </trkpt>
      <trkpt lat="42.650795" lon="-2.762385">
        <ele>612.0</ele>
        <time>2021-10-22T08:54:33.000Z</time>
      </trkpt>
      <trkpt lat="42.65078833" lon="-2.76236833">
        <ele>612.0</ele>
        <time>2021-10-22T08:54:34.000Z</time>
      </trkpt>
      <trkpt lat="42.65078333" lon="-2.76235167">
        <ele>612.0</ele>
        <time>2021-10-22T08:54:35.000Z</time>
      </trkpt>
      <trkpt lat="42.65078167" lon="-2.76234">
        <ele>612.0</ele>
        <time>2021-10-22T08:54:36.000Z</time>
      </trkpt>
      <trkpt lat="42.65078167" lon="-2.762335">
        <ele>612.0</ele>
        <time>2021-10-22T08:54:37.000Z</time>
      </trkpt>
      <trkpt lat="42.65078167" lon="-2.76233167">
        <ele>612.0</ele>
        <time>2021-10-22T08:54:38.000Z</time>
      </trkpt>
      <trkpt lat="42.65078" lon="-2.76232833">
        <ele>612.0</ele>
        <time>2021-10-22T08:54:39.000Z</time>
      </trkpt>
      <trkpt lat="42.65077667" lon="-2.762325">
        <ele>612.0</ele>
        <time>2021-10-22T08:54:40.000Z</time>
      </trkpt>
      <trkpt lat="42.65077333" lon="-2.76231667">
        <ele>612.0</ele>
        <time>2021-10-22T08:54:41.000Z</time>
      </trkpt>
      <trkpt lat="42.65077" lon="-2.76231">
        <ele>612.0</ele>
        <time>2021-10-22T08:54:42.000Z</time>
      </trkpt>
      <trkpt lat="42.65076833" lon="-2.76230667">
        <ele>612.0</ele>
        <time>2021-10-22T08:54:43.000Z</time>
      </trkpt>
      <trkpt lat="42.650765" lon="-2.762305">
        <ele>612.0</ele>
        <time>2021-10-22T08:54:44.000Z</time>
      </trkpt>
      <trkpt lat="42.65076" lon="-2.7623">
        <ele>612.0</ele>
        <time>2021-10-22T08:54:45.000Z</time>
      </trkpt>
      <trkpt lat="42.65075333" lon="-2.76229667">
        <ele>612.0</ele>
        <time>2021-10-22T08:54:46.000Z</time>
      </trkpt>
      <trkpt lat="42.65074833" lon="-2.76229333">
        <ele>612.0</ele>
        <time>2021-10-22T08:54:47.000Z</time>
      </trkpt>
      <trkpt lat="42.650745" lon="-2.762285">
        <ele>612.0</ele>
        <time>2021-10-22T08:54:48.000Z</time>
      </trkpt>
      <trkpt lat="42.65074167" lon="-2.76227833">
        <ele>612.0</ele>
        <time>2021-10-22T08:54:49.000Z</time>
      </trkpt>
      <trkpt lat="42.65073833" lon="-2.76227">
        <ele>612.0</ele>
        <time>2021-10-22T08:54:50.000Z</time>
      </trkpt>
      <trkpt lat="42.65073667" lon="-2.76226">
        <ele>612.0</ele>
        <time>2021-10-22T08:54:51.000Z</time>
      </trkpt>
      <trkpt lat="42.65073833" lon="-2.762245">
        <ele>612.0</ele>
        <time>2021-10-22T08:54:52.000Z</time>
      </trkpt>
      <trkpt lat="42.65074" lon="-2.76223">
        <ele>613.0</ele>
        <time>2021-10-22T08:54:53.000Z</time>
      </trkpt>
      <trkpt lat="42.65074" lon="-2.76221833">
        <ele>613.0</ele>
        <time>2021-10-22T08:54:54.000Z</time>
      </trkpt>
      <trkpt lat="42.65074167" lon="-2.76221">
        <ele>613.0</ele>
        <time>2021-10-22T08:54:55.000Z</time>
      </trkpt>
      <trkpt lat="42.65074167" lon="-2.76221">
        <ele>613.0</ele>
        <time>2021-10-22T08:54:56.000Z</time>
      </trkpt>
      <trkpt lat="42.65074167" lon="-2.76221">
        <ele>613.0</ele>
        <time>2021-10-22T08:54:57.000Z</time>
      </trkpt>
      <trkpt lat="42.65074167" lon="-2.76221">
        <ele>613.0</ele>
        <time>2021-10-22T08:54:58.000Z</time>
      </trkpt>
      <trkpt lat="42.65074333" lon="-2.76221">
        <ele>613.0</ele>
        <time>2021-10-22T08:54:59.000Z</time>
      </trkpt>
      <trkpt lat="42.65074333" lon="-2.76221">
        <ele>613.0</ele>
        <time>2021-10-22T08:55:00.000Z</time>
      </trkpt>
      <trkpt lat="42.65074333" lon="-2.76221">
        <ele>613.0</ele>
        <time>2021-10-22T08:55:01.000Z</time>
      </trkpt>
      <trkpt lat="42.65074333" lon="-2.76221">
        <ele>613.0</ele>
        <time>2021-10-22T08:55:02.000Z</time>
      </trkpt>
      <trkpt lat="42.65074333" lon="-2.76221">
        <ele>613.0</ele>
        <time>2021-10-22T08:55:03.000Z</time>
      </trkpt>
      <trkpt lat="42.65074333" lon="-2.76221">
        <ele>614.0</ele>
        <time>2021-10-22T08:55:04.000Z</time>
      </trkpt>
      <trkpt lat="42.65074333" lon="-2.76221">
        <ele>614.0</ele>
        <time>2021-10-22T08:55:05.000Z</time>
      </trkpt>
      <trkpt lat="42.65074333" lon="-2.76221">
        <ele>614.0</ele>
        <time>2021-10-22T08:55:06.000Z</time>
      </trkpt>
      <trkpt lat="42.65074333" lon="-2.76221">
        <ele>614.0</ele>
        <time>2021-10-22T08:55:07.000Z</time>
      </trkpt>
      <trkpt lat="42.650745" lon="-2.76221">
        <ele>614.0</ele>
        <time>2021-10-22T08:55:08.000Z</time>
      </trkpt>
      <trkpt lat="42.650745" lon="-2.76221">
        <ele>614.0</ele>
        <time>2021-10-22T08:55:09.000Z</time>
      </trkpt>
      <trkpt lat="42.650745" lon="-2.76221">
        <ele>614.0</ele>
        <time>2021-10-22T08:55:10.000Z</time>
      </trkpt>
      <trkpt lat="42.650745" lon="-2.76221">
        <ele>614.0</ele>
        <time>2021-10-22T08:55:11.000Z</time>
      </trkpt>
      <trkpt lat="42.650745" lon="-2.76221">
        <ele>614.0</ele>
        <time>2021-10-22T08:55:12.000Z</time>
      </trkpt>
      <trkpt lat="42.650745" lon="-2.76221">
        <ele>614.0</ele>
        <time>2021-10-22T08:55:13.000Z</time>
      </trkpt>
      <trkpt lat="42.650745" lon="-2.76221">
        <ele>614.0</ele>
        <time>2021-10-22T08:55:14.000Z</time>
      </trkpt>
      <trkpt lat="42.650745" lon="-2.76221">
        <ele>614.0</ele>
        <time>2021-10-22T08:55:15.000Z</time>
      </trkpt>
      <trkpt lat="42.650745" lon="-2.76221">
        <ele>614.0</ele>
        <time>2021-10-22T08:55:16.000Z</time>
      </trkpt>
      <trkpt lat="42.650745" lon="-2.76221">
        <ele>614.0</ele>
        <time>2021-10-22T08:55:17.000Z</time>
      </trkpt>
      <trkpt lat="42.650745" lon="-2.76221">
        <ele>614.0</ele>
        <time>2021-10-22T08:55:18.000Z</time>
      </trkpt>
      <trkpt lat="42.650745" lon="-2.76220667">
        <ele>614.0</ele>
        <time>2021-10-22T08:55:19.000Z</time>
      </trkpt>
      <trkpt lat="42.65074333" lon="-2.76220333">
        <ele>614.0</ele>
        <time>2021-10-22T08:55:20.000Z</time>
      </trkpt>
      <trkpt lat="42.65074" lon="-2.76219833">
        <ele>614.0</ele>
        <time>2021-10-22T08:55:21.000Z</time>
      </trkpt>
      <trkpt lat="42.65073833" lon="-2.76219333">
        <ele>614.0</ele>
        <time>2021-10-22T08:55:22.000Z</time>
      </trkpt>
      <trkpt lat="42.65073333" lon="-2.76218667">
        <ele>614.0</ele>
        <time>2021-10-22T08:55:23.000Z</time>
      </trkpt>
      <trkpt lat="42.65072667" lon="-2.76218">
        <ele>615.0</ele>
        <time>2021-10-22T08:55:24.000Z</time>
      </trkpt>
      <trkpt lat="42.65072" lon="-2.762175">
        <ele>615.0</ele>
        <time>2021-10-22T08:55:25.000Z</time>
      </trkpt>
      <trkpt lat="42.650715" lon="-2.76216833">
        <ele>615.0</ele>
        <time>2021-10-22T08:55:26.000Z</time>
      </trkpt>
      <trkpt lat="42.65070833" lon="-2.76216">
        <ele>615.0</ele>
        <time>2021-10-22T08:55:27.000Z</time>
      </trkpt>
      <trkpt lat="42.65070167" lon="-2.76215333">
        <ele>615.0</ele>
        <time>2021-10-22T08:55:28.000Z</time>
      </trkpt>
      <trkpt lat="42.65069667" lon="-2.76214333">
        <ele>615.0</ele>
        <time>2021-10-22T08:55:29.000Z</time>
      </trkpt>
      <trkpt lat="42.65069" lon="-2.76213333">
        <ele>615.0</ele>
        <time>2021-10-22T08:55:30.000Z</time>
      </trkpt>
      <trkpt lat="42.65068333" lon="-2.762125">
        <ele>615.0</ele>
        <time>2021-10-22T08:55:31.000Z</time>
      </trkpt>
      <trkpt lat="42.65067833" lon="-2.76211833">
        <ele>615.0</ele>
        <time>2021-10-22T08:55:32.000Z</time>
      </trkpt>
      <trkpt lat="42.65067167" lon="-2.76211">
        <ele>615.0</ele>
        <time>2021-10-22T08:55:33.000Z</time>
      </trkpt>
      <trkpt lat="42.65066833" lon="-2.76209667">
        <ele>615.0</ele>
        <time>2021-10-22T08:55:34.000Z</time>
      </trkpt>
      <trkpt lat="42.65067" lon="-2.76208333">
        <ele>615.0</ele>
        <time>2021-10-22T08:55:35.000Z</time>
      </trkpt>
      <trkpt lat="42.65067167" lon="-2.76207167">
        <ele>615.0</ele>
        <time>2021-10-22T08:55:36.000Z</time>
      </trkpt>
      <trkpt lat="42.65067167" lon="-2.76205833">
        <ele>615.0</ele>
        <time>2021-10-22T08:55:37.000Z</time>
      </trkpt>
      <trkpt lat="42.65067167" lon="-2.762045">
        <ele>615.0</ele>
        <time>2021-10-22T08:55:38.000Z</time>
      </trkpt>
      <trkpt lat="42.65067167" lon="-2.76203">
        <ele>616.0</ele>
        <time>2021-10-22T08:55:39.000Z</time>
      </trkpt>
      <trkpt lat="42.65067333" lon="-2.76201333">
        <ele>616.0</ele>
        <time>2021-10-22T08:55:40.000Z</time>
      </trkpt>
      <trkpt lat="42.650675" lon="-2.76199667">
        <ele>616.0</ele>
        <time>2021-10-22T08:55:41.000Z</time>
      </trkpt>
      <trkpt lat="42.65067667" lon="-2.76198">
        <ele>616.0</ele>
        <time>2021-10-22T08:55:42.000Z</time>
      </trkpt>
      <trkpt lat="42.65067833" lon="-2.761965">
        <ele>616.0</ele>
        <time>2021-10-22T08:55:43.000Z</time>
      </trkpt>
      <trkpt lat="42.65067667" lon="-2.76195167">
        <ele>616.0</ele>
        <time>2021-10-22T08:55:44.000Z</time>
      </trkpt>
      <trkpt lat="42.65067333" lon="-2.76193833">
        <ele>616.0</ele>
        <time>2021-10-22T08:55:45.000Z</time>
      </trkpt>
      <trkpt lat="42.65067167" lon="-2.76192167">
        <ele>616.0</ele>
        <time>2021-10-22T08:55:46.000Z</time>
      </trkpt>
      <trkpt lat="42.65066667" lon="-2.761905">
        <ele>617.0</ele>
        <time>2021-10-22T08:55:47.000Z</time>
      </trkpt>
      <trkpt lat="42.65066333" lon="-2.76188833">
        <ele>617.0</ele>
        <time>2021-10-22T08:55:48.000Z</time>
      </trkpt>
      <trkpt lat="42.65066" lon="-2.76187">
        <ele>617.0</ele>
        <time>2021-10-22T08:55:49.000Z</time>
      </trkpt>
      <trkpt lat="42.65065667" lon="-2.76185167">
        <ele>617.0</ele>
        <time>2021-10-22T08:55:50.000Z</time>
      </trkpt>
      <trkpt lat="42.65065333" lon="-2.76183333">
        <ele>617.0</ele>
        <time>2021-10-22T08:55:51.000Z</time>
      </trkpt>
      <trkpt lat="42.65065167" lon="-2.76181667">
        <ele>617.0</ele>
        <time>2021-10-22T08:55:52.000Z</time>
      </trkpt>
      <trkpt lat="42.65065" lon="-2.76179833">
        <ele>617.0</ele>
        <time>2021-10-22T08:55:53.000Z</time>
      </trkpt>
      <trkpt lat="42.65065167" lon="-2.76178167">
        <ele>617.0</ele>
        <time>2021-10-22T08:55:54.000Z</time>
      </trkpt>
      <trkpt lat="42.65065167" lon="-2.76176833">
        <ele>617.0</ele>
        <time>2021-10-22T08:55:55.000Z</time>
      </trkpt>
      <trkpt lat="42.65065167" lon="-2.761755">
        <ele>617.0</ele>
        <time>2021-10-22T08:55:56.000Z</time>
      </trkpt>
      <trkpt lat="42.65065333" lon="-2.76173667">
        <ele>617.0</ele>
        <time>2021-10-22T08:55:57.000Z</time>
      </trkpt>
      <trkpt lat="42.65065333" lon="-2.76172">
        <ele>617.0</ele>
        <time>2021-10-22T08:55:58.000Z</time>
      </trkpt>
      <trkpt lat="42.65065333" lon="-2.76170167">
        <ele>617.0</ele>
        <time>2021-10-22T08:55:59.000Z</time>
      </trkpt>
      <trkpt lat="42.650655" lon="-2.76168667">
        <ele>617.0</ele>
        <time>2021-10-22T08:56:00.000Z</time>
      </trkpt>
      <trkpt lat="42.65065667" lon="-2.761675">
        <ele>617.0</ele>
        <time>2021-10-22T08:56:01.000Z</time>
      </trkpt>
      <trkpt lat="42.65066" lon="-2.761665">
        <ele>617.0</ele>
        <time>2021-10-22T08:56:02.000Z</time>
      </trkpt>
      <trkpt lat="42.65066167" lon="-2.76165333">
        <ele>617.0</ele>
        <time>2021-10-22T08:56:03.000Z</time>
      </trkpt>
      <trkpt lat="42.65066833" lon="-2.76163833">
        <ele>617.0</ele>
        <time>2021-10-22T08:56:04.000Z</time>
      </trkpt>
      <trkpt lat="42.65067667" lon="-2.76162333">
        <ele>617.0</ele>
        <time>2021-10-22T08:56:05.000Z</time>
      </trkpt>
      <trkpt lat="42.650685" lon="-2.76160667">
        <ele>617.0</ele>
        <time>2021-10-22T08:56:06.000Z</time>
      </trkpt>
      <trkpt lat="42.65069167" lon="-2.76158833">
        <ele>617.0</ele>
        <time>2021-10-22T08:56:07.000Z</time>
      </trkpt>
      <trkpt lat="42.65069667" lon="-2.76157">
        <ele>617.0</ele>
        <time>2021-10-22T08:56:08.000Z</time>
      </trkpt>
      <trkpt lat="42.65070167" lon="-2.76155">
        <ele>617.0</ele>
        <time>2021-10-22T08:56:09.000Z</time>
      </trkpt>
      <trkpt lat="42.65070667" lon="-2.76153167">
        <ele>617.0</ele>
        <time>2021-10-22T08:56:10.000Z</time>
      </trkpt>
      <trkpt lat="42.65070667" lon="-2.76151333">
        <ele>617.0</ele>
        <time>2021-10-22T08:56:11.000Z</time>
      </trkpt>
      <trkpt lat="42.65071167" lon="-2.76149167">
        <ele>617.0</ele>
        <time>2021-10-22T08:56:12.000Z</time>
      </trkpt>
      <trkpt lat="42.65071833" lon="-2.76147167">
        <ele>617.0</ele>
        <time>2021-10-22T08:56:13.000Z</time>
      </trkpt>
      <trkpt lat="42.65072333" lon="-2.76145333">
        <ele>617.0</ele>
        <time>2021-10-22T08:56:14.000Z</time>
      </trkpt>
      <trkpt lat="42.65073" lon="-2.76143333">
        <ele>617.0</ele>
        <time>2021-10-22T08:56:15.000Z</time>
      </trkpt>
      <trkpt lat="42.650735" lon="-2.76141667">
        <ele>617.0</ele>
        <time>2021-10-22T08:56:16.000Z</time>
      </trkpt>
      <trkpt lat="42.65074167" lon="-2.76140167">
        <ele>617.0</ele>
        <time>2021-10-22T08:56:17.000Z</time>
      </trkpt>
      <trkpt lat="42.650745" lon="-2.76138667">
        <ele>617.0</ele>
        <time>2021-10-22T08:56:18.000Z</time>
      </trkpt>
      <trkpt lat="42.65075" lon="-2.76137167">
        <ele>617.0</ele>
        <time>2021-10-22T08:56:19.000Z</time>
      </trkpt>
      <trkpt lat="42.650755" lon="-2.761355">
        <ele>617.0</ele>
        <time>2021-10-22T08:56:20.000Z</time>
      </trkpt>
      <trkpt lat="42.65076" lon="-2.761335">
        <ele>617.0</ele>
        <time>2021-10-22T08:56:21.000Z</time>
      </trkpt>
      <trkpt lat="42.650765" lon="-2.76132167">
        <ele>617.0</ele>
        <time>2021-10-22T08:56:22.000Z</time>
      </trkpt>
      <trkpt lat="42.65076667" lon="-2.76131167">
        <ele>617.0</ele>
        <time>2021-10-22T08:56:23.000Z</time>
      </trkpt>
      <trkpt lat="42.65076833" lon="-2.76130333">
        <ele>617.0</ele>
        <time>2021-10-22T08:56:24.000Z</time>
      </trkpt>
      <trkpt lat="42.65076667" lon="-2.76129667">
        <ele>617.0</ele>
        <time>2021-10-22T08:56:25.000Z</time>
      </trkpt>
      <trkpt lat="42.65076333" lon="-2.76129">
        <ele>617.0</ele>
        <time>2021-10-22T08:56:26.000Z</time>
      </trkpt>
      <trkpt lat="42.65076167" lon="-2.76128167">
        <ele>617.0</ele>
        <time>2021-10-22T08:56:27.000Z</time>
      </trkpt>
      <trkpt lat="42.65076333" lon="-2.76127">
        <ele>617.0</ele>
        <time>2021-10-22T08:56:28.000Z</time>
      </trkpt>
      <trkpt lat="42.65076167" lon="-2.761265">
        <ele>617.0</ele>
        <time>2021-10-22T08:56:29.000Z</time>
      </trkpt>
      <trkpt lat="42.65075833" lon="-2.76126">
        <ele>617.0</ele>
        <time>2021-10-22T08:56:30.000Z</time>
      </trkpt>
      <trkpt lat="42.65075833" lon="-2.76125667">
        <ele>617.0</ele>
        <time>2021-10-22T08:56:31.000Z</time>
      </trkpt>
      <trkpt lat="42.650755" lon="-2.76125">
        <ele>617.0</ele>
        <time>2021-10-22T08:56:32.000Z</time>
      </trkpt>
      <trkpt lat="42.65075167" lon="-2.76124167">
        <ele>617.0</ele>
        <time>2021-10-22T08:56:33.000Z</time>
      </trkpt>
      <trkpt lat="42.65075167" lon="-2.76123167">
        <ele>617.0</ele>
        <time>2021-10-22T08:56:34.000Z</time>
      </trkpt>
      <trkpt lat="42.65075167" lon="-2.76122">
        <ele>617.0</ele>
        <time>2021-10-22T08:56:35.000Z</time>
      </trkpt>
      <trkpt lat="42.65075333" lon="-2.76120667">
        <ele>617.0</ele>
        <time>2021-10-22T08:56:36.000Z</time>
      </trkpt>
      <trkpt lat="42.65075667" lon="-2.761195">
        <ele>617.0</ele>
        <time>2021-10-22T08:56:37.000Z</time>
      </trkpt>
      <trkpt lat="42.65075833" lon="-2.76117833">
        <ele>617.0</ele>
        <time>2021-10-22T08:56:38.000Z</time>
      </trkpt>
      <trkpt lat="42.65076333" lon="-2.76116333">
        <ele>617.0</ele>
        <time>2021-10-22T08:56:39.000Z</time>
      </trkpt>
      <trkpt lat="42.65076667" lon="-2.76114667">
        <ele>617.0</ele>
        <time>2021-10-22T08:56:40.000Z</time>
      </trkpt>
      <trkpt lat="42.65077" lon="-2.76112667">
        <ele>617.0</ele>
        <time>2021-10-22T08:56:41.000Z</time>
      </trkpt>
      <trkpt lat="42.65077167" lon="-2.76111">
        <ele>617.0</ele>
        <time>2021-10-22T08:56:42.000Z</time>
      </trkpt>
      <trkpt lat="42.65077167" lon="-2.76109167">
        <ele>617.0</ele>
        <time>2021-10-22T08:56:43.000Z</time>
      </trkpt>
      <trkpt lat="42.650775" lon="-2.76107">
        <ele>617.0</ele>
        <time>2021-10-22T08:56:44.000Z</time>
      </trkpt>
      <trkpt lat="42.65077833" lon="-2.76105">
        <ele>617.0</ele>
        <time>2021-10-22T08:56:45.000Z</time>
      </trkpt>
      <trkpt lat="42.65078" lon="-2.76103">
        <ele>617.0</ele>
        <time>2021-10-22T08:56:46.000Z</time>
      </trkpt>
      <trkpt lat="42.650785" lon="-2.76100833">
        <ele>617.0</ele>
        <time>2021-10-22T08:56:47.000Z</time>
      </trkpt>
      <trkpt lat="42.65078667" lon="-2.76099167">
        <ele>617.0</ele>
        <time>2021-10-22T08:56:48.000Z</time>
      </trkpt>
      <trkpt lat="42.65078833" lon="-2.760975">
        <ele>617.0</ele>
        <time>2021-10-22T08:56:49.000Z</time>
      </trkpt>
      <trkpt lat="42.65078833" lon="-2.76095667">
        <ele>617.0</ele>
        <time>2021-10-22T08:56:50.000Z</time>
      </trkpt>
      <trkpt lat="42.65078833" lon="-2.76093833">
        <ele>617.0</ele>
        <time>2021-10-22T08:56:51.000Z</time>
      </trkpt>
      <trkpt lat="42.65078833" lon="-2.76092167">
        <ele>617.0</ele>
        <time>2021-10-22T08:56:52.000Z</time>
      </trkpt>
      <trkpt lat="42.65078667" lon="-2.76090167">
        <ele>617.0</ele>
        <time>2021-10-22T08:56:53.000Z</time>
      </trkpt>
      <trkpt lat="42.65078667" lon="-2.76088167">
        <ele>617.0</ele>
        <time>2021-10-22T08:56:54.000Z</time>
      </trkpt>
      <trkpt lat="42.65079" lon="-2.76086167">
        <ele>617.0</ele>
        <time>2021-10-22T08:56:55.000Z</time>
      </trkpt>
      <trkpt lat="42.65079167" lon="-2.760845">
        <ele>617.0</ele>
        <time>2021-10-22T08:56:56.000Z</time>
      </trkpt>
      <trkpt lat="42.65079333" lon="-2.76082833">
        <ele>617.0</ele>
        <time>2021-10-22T08:56:57.000Z</time>
      </trkpt>
      <trkpt lat="42.650795" lon="-2.76081333">
        <ele>617.0</ele>
        <time>2021-10-22T08:56:58.000Z</time>
      </trkpt>
      <trkpt lat="42.65079667" lon="-2.7608">
        <ele>617.0</ele>
        <time>2021-10-22T08:56:59.000Z</time>
      </trkpt>
      <trkpt lat="42.6508" lon="-2.76078667">
        <ele>617.0</ele>
        <time>2021-10-22T08:57:00.000Z</time>
      </trkpt>
      <trkpt lat="42.65080333" lon="-2.76077333">
        <ele>617.0</ele>
        <time>2021-10-22T08:57:01.000Z</time>
      </trkpt>
      <trkpt lat="42.65080833" lon="-2.76075667">
        <ele>617.0</ele>
        <time>2021-10-22T08:57:02.000Z</time>
      </trkpt>
      <trkpt lat="42.65081333" lon="-2.76074167">
        <ele>617.0</ele>
        <time>2021-10-22T08:57:03.000Z</time>
      </trkpt>
      <trkpt lat="42.65082" lon="-2.760725">
        <ele>617.0</ele>
        <time>2021-10-22T08:57:04.000Z</time>
      </trkpt>
      <trkpt lat="42.65082667" lon="-2.76071">
        <ele>617.0</ele>
        <time>2021-10-22T08:57:05.000Z</time>
      </trkpt>
      <trkpt lat="42.650835" lon="-2.76069667">
        <ele>617.0</ele>
        <time>2021-10-22T08:57:06.000Z</time>
      </trkpt>
      <trkpt lat="42.65084167" lon="-2.76068">
        <ele>617.0</ele>
        <time>2021-10-22T08:57:07.000Z</time>
      </trkpt>
      <trkpt lat="42.65085" lon="-2.76066333">
        <ele>617.0</ele>
        <time>2021-10-22T08:57:08.000Z</time>
      </trkpt>
      <trkpt lat="42.65085833" lon="-2.760645">
        <ele>617.0</ele>
        <time>2021-10-22T08:57:09.000Z</time>
      </trkpt>
      <trkpt lat="42.65086667" lon="-2.76062833">
        <ele>617.0</ele>
        <time>2021-10-22T08:57:10.000Z</time>
      </trkpt>
      <trkpt lat="42.65087667" lon="-2.76061">
        <ele>617.0</ele>
        <time>2021-10-22T08:57:11.000Z</time>
      </trkpt>
      <trkpt lat="42.65088667" lon="-2.76059">
        <ele>617.0</ele>
        <time>2021-10-22T08:57:12.000Z</time>
      </trkpt>
      <trkpt lat="42.650895" lon="-2.76057333">
        <ele>617.0</ele>
        <time>2021-10-22T08:57:13.000Z</time>
      </trkpt>
      <trkpt lat="42.65090333" lon="-2.76055833">
        <ele>617.0</ele>
        <time>2021-10-22T08:57:14.000Z</time>
      </trkpt>
      <trkpt lat="42.65091167" lon="-2.760545">
        <ele>617.0</ele>
        <time>2021-10-22T08:57:15.000Z</time>
      </trkpt>
      <trkpt lat="42.65091667" lon="-2.76053333">
        <ele>617.0</ele>
        <time>2021-10-22T08:57:16.000Z</time>
      </trkpt>
      <trkpt lat="42.65092333" lon="-2.76052167">
        <ele>617.0</ele>
        <time>2021-10-22T08:57:17.000Z</time>
      </trkpt>
      <trkpt lat="42.65092833" lon="-2.76051333">
        <ele>617.0</ele>
        <time>2021-10-22T08:57:18.000Z</time>
      </trkpt>
      <trkpt lat="42.650935" lon="-2.76050833">
        <ele>617.0</ele>
        <time>2021-10-22T08:57:19.000Z</time>
      </trkpt>
      <trkpt lat="42.65093833" lon="-2.7605">
        <ele>617.0</ele>
        <time>2021-10-22T08:57:20.000Z</time>
      </trkpt>
      <trkpt lat="42.650945" lon="-2.76049833">
        <ele>617.0</ele>
        <time>2021-10-22T08:57:21.000Z</time>
      </trkpt>
      <trkpt lat="42.65094833" lon="-2.76049833">
        <ele>617.0</ele>
        <time>2021-10-22T08:57:22.000Z</time>
      </trkpt>
      <trkpt lat="42.65095" lon="-2.760495">
        <ele>617.0</ele>
        <time>2021-10-22T08:57:23.000Z</time>
      </trkpt>
      <trkpt lat="42.65095" lon="-2.76049167">
        <ele>617.0</ele>
        <time>2021-10-22T08:57:24.000Z</time>
      </trkpt>
      <trkpt lat="42.65095167" lon="-2.76048667">
        <ele>617.0</ele>
        <time>2021-10-22T08:57:25.000Z</time>
      </trkpt>
      <trkpt lat="42.65095167" lon="-2.76048167">
        <ele>617.0</ele>
        <time>2021-10-22T08:57:26.000Z</time>
      </trkpt>
      <trkpt lat="42.65095333" lon="-2.76047667">
        <ele>618.0</ele>
        <time>2021-10-22T08:57:27.000Z</time>
      </trkpt>
      <trkpt lat="42.65095333" lon="-2.760475">
        <ele>618.0</ele>
        <time>2021-10-22T08:57:28.000Z</time>
      </trkpt>
      <trkpt lat="42.65095333" lon="-2.76047667">
        <ele>618.0</ele>
        <time>2021-10-22T08:57:29.000Z</time>
      </trkpt>
      <trkpt lat="42.65095167" lon="-2.76047333">
        <ele>618.0</ele>
        <time>2021-10-22T08:57:30.000Z</time>
      </trkpt>
      <trkpt lat="42.65094833" lon="-2.76047333">
        <ele>618.0</ele>
        <time>2021-10-22T08:57:31.000Z</time>
      </trkpt>
      <trkpt lat="42.65094667" lon="-2.76046833">
        <ele>618.0</ele>
        <time>2021-10-22T08:57:32.000Z</time>
      </trkpt>
      <trkpt lat="42.65094667" lon="-2.76046">
        <ele>618.0</ele>
        <time>2021-10-22T08:57:33.000Z</time>
      </trkpt>
      <trkpt lat="42.65094833" lon="-2.76044833">
        <ele>618.0</ele>
        <time>2021-10-22T08:57:34.000Z</time>
      </trkpt>
      <trkpt lat="42.65095" lon="-2.76043167">
        <ele>618.0</ele>
        <time>2021-10-22T08:57:35.000Z</time>
      </trkpt>
      <trkpt lat="42.65095333" lon="-2.760415">
        <ele>618.0</ele>
        <time>2021-10-22T08:57:36.000Z</time>
      </trkpt>
      <trkpt lat="42.65095833" lon="-2.7604">
        <ele>618.0</ele>
        <time>2021-10-22T08:57:37.000Z</time>
      </trkpt>
      <trkpt lat="42.65096333" lon="-2.76038333">
        <ele>618.0</ele>
        <time>2021-10-22T08:57:38.000Z</time>
      </trkpt>
      <trkpt lat="42.650965" lon="-2.76036833">
        <ele>618.0</ele>
        <time>2021-10-22T08:57:39.000Z</time>
      </trkpt>
      <trkpt lat="42.65097" lon="-2.760355">
        <ele>619.0</ele>
        <time>2021-10-22T08:57:40.000Z</time>
      </trkpt>
      <trkpt lat="42.65097167" lon="-2.76034167">
        <ele>619.0</ele>
        <time>2021-10-22T08:57:41.000Z</time>
      </trkpt>
      <trkpt lat="42.65097333" lon="-2.76032833">
        <ele>619.0</ele>
        <time>2021-10-22T08:57:42.000Z</time>
      </trkpt>
      <trkpt lat="42.650975" lon="-2.76031333">
        <ele>619.0</ele>
        <time>2021-10-22T08:57:43.000Z</time>
      </trkpt>
      <trkpt lat="42.65098167" lon="-2.76029833">
        <ele>619.0</ele>
        <time>2021-10-22T08:57:44.000Z</time>
      </trkpt>
      <trkpt lat="42.650985" lon="-2.76028333">
        <ele>619.0</ele>
        <time>2021-10-22T08:57:45.000Z</time>
      </trkpt>
      <trkpt lat="42.65098833" lon="-2.76026833">
        <ele>619.0</ele>
        <time>2021-10-22T08:57:46.000Z</time>
      </trkpt>
      <trkpt lat="42.65099" lon="-2.76025333">
        <ele>619.0</ele>
        <time>2021-10-22T08:57:47.000Z</time>
      </trkpt>
      <trkpt lat="42.65099167" lon="-2.76024">
        <ele>620.0</ele>
        <time>2021-10-22T08:57:48.000Z</time>
      </trkpt>
      <trkpt lat="42.65099167" lon="-2.76022667">
        <ele>620.0</ele>
        <time>2021-10-22T08:57:49.000Z</time>
      </trkpt>
      <trkpt lat="42.65099167" lon="-2.76021333">
        <ele>620.0</ele>
        <time>2021-10-22T08:57:50.000Z</time>
      </trkpt>
      <trkpt lat="42.650995" lon="-2.76019667">
        <ele>620.0</ele>
        <time>2021-10-22T08:57:51.000Z</time>
      </trkpt>
      <trkpt lat="42.65099667" lon="-2.76018167">
        <ele>620.0</ele>
        <time>2021-10-22T08:57:52.000Z</time>
      </trkpt>
      <trkpt lat="42.65099833" lon="-2.76016833">
        <ele>620.0</ele>
        <time>2021-10-22T08:57:53.000Z</time>
      </trkpt>
      <trkpt lat="42.651" lon="-2.76015667">
        <ele>620.0</ele>
        <time>2021-10-22T08:57:54.000Z</time>
      </trkpt>
      <trkpt lat="42.65100167" lon="-2.76014333">
        <ele>620.0</ele>
        <time>2021-10-22T08:57:55.000Z</time>
      </trkpt>
      <trkpt lat="42.65100167" lon="-2.76012333">
        <ele>620.0</ele>
        <time>2021-10-22T08:57:56.000Z</time>
      </trkpt>
      <trkpt lat="42.651" lon="-2.76010667">
        <ele>620.0</ele>
        <time>2021-10-22T08:57:57.000Z</time>
      </trkpt>
      <trkpt lat="42.65099833" lon="-2.76009333">
        <ele>620.0</ele>
        <time>2021-10-22T08:57:58.000Z</time>
      </trkpt>
      <trkpt lat="42.65099167" lon="-2.76008">
        <ele>620.0</ele>
        <time>2021-10-22T08:57:59.000Z</time>
      </trkpt>
      <trkpt lat="42.65098667" lon="-2.76006333">
        <ele>620.0</ele>
        <time>2021-10-22T08:58:00.000Z</time>
      </trkpt>
      <trkpt lat="42.65098167" lon="-2.76004667">
        <ele>620.0</ele>
        <time>2021-10-22T08:58:01.000Z</time>
      </trkpt>
      <trkpt lat="42.65097833" lon="-2.76003167">
        <ele>620.0</ele>
        <time>2021-10-22T08:58:02.000Z</time>
      </trkpt>
      <trkpt lat="42.65097167" lon="-2.760015">
        <ele>620.0</ele>
        <time>2021-10-22T08:58:03.000Z</time>
      </trkpt>
      <trkpt lat="42.65096667" lon="-2.76000167">
        <ele>620.0</ele>
        <time>2021-10-22T08:58:04.000Z</time>
      </trkpt>
      <trkpt lat="42.65096333" lon="-2.75999">
        <ele>620.0</ele>
        <time>2021-10-22T08:58:05.000Z</time>
      </trkpt>
      <trkpt lat="42.65096167" lon="-2.75997667">
        <ele>620.0</ele>
        <time>2021-10-22T08:58:06.000Z</time>
      </trkpt>
      <trkpt lat="42.65095833" lon="-2.759965">
        <ele>620.0</ele>
        <time>2021-10-22T08:58:07.000Z</time>
      </trkpt>
      <trkpt lat="42.65095833" lon="-2.75995167">
        <ele>620.0</ele>
        <time>2021-10-22T08:58:08.000Z</time>
      </trkpt>
      <trkpt lat="42.65095833" lon="-2.75994">
        <ele>620.0</ele>
        <time>2021-10-22T08:58:09.000Z</time>
      </trkpt>
      <trkpt lat="42.65096" lon="-2.75992667">
        <ele>620.0</ele>
        <time>2021-10-22T08:58:10.000Z</time>
      </trkpt>
      <trkpt lat="42.65096167" lon="-2.75991167">
        <ele>620.0</ele>
        <time>2021-10-22T08:58:11.000Z</time>
      </trkpt>
      <trkpt lat="42.65096333" lon="-2.75989667">
        <ele>620.0</ele>
        <time>2021-10-22T08:58:12.000Z</time>
      </trkpt>
      <trkpt lat="42.65096333" lon="-2.75988">
        <ele>620.0</ele>
        <time>2021-10-22T08:58:13.000Z</time>
      </trkpt>
      <trkpt lat="42.65096333" lon="-2.759865">
        <ele>620.0</ele>
        <time>2021-10-22T08:58:14.000Z</time>
      </trkpt>
      <trkpt lat="42.65096333" lon="-2.75984833">
        <ele>620.0</ele>
        <time>2021-10-22T08:58:15.000Z</time>
      </trkpt>
      <trkpt lat="42.65096333" lon="-2.75983333">
        <ele>620.0</ele>
        <time>2021-10-22T08:58:16.000Z</time>
      </trkpt>
      <trkpt lat="42.65096333" lon="-2.75982">
        <ele>620.0</ele>
        <time>2021-10-22T08:58:17.000Z</time>
      </trkpt>
      <trkpt lat="42.65096333" lon="-2.75980333">
        <ele>620.0</ele>
        <time>2021-10-22T08:58:18.000Z</time>
      </trkpt>
      <trkpt lat="42.65096333" lon="-2.75978667">
        <ele>620.0</ele>
        <time>2021-10-22T08:58:19.000Z</time>
      </trkpt>
      <trkpt lat="42.65096333" lon="-2.75977333">
        <ele>620.0</ele>
        <time>2021-10-22T08:58:20.000Z</time>
      </trkpt>
      <trkpt lat="42.65096167" lon="-2.75976">
        <ele>620.0</ele>
        <time>2021-10-22T08:58:21.000Z</time>
      </trkpt>
      <trkpt lat="42.65095667" lon="-2.75974667">
        <ele>620.0</ele>
        <time>2021-10-22T08:58:22.000Z</time>
      </trkpt>
      <trkpt lat="42.650955" lon="-2.75973167">
        <ele>620.0</ele>
        <time>2021-10-22T08:58:23.000Z</time>
      </trkpt>
      <trkpt lat="42.650955" lon="-2.75971833">
        <ele>620.0</ele>
        <time>2021-10-22T08:58:24.000Z</time>
      </trkpt>
      <trkpt lat="42.650955" lon="-2.75970333">
        <ele>620.0</ele>
        <time>2021-10-22T08:58:25.000Z</time>
      </trkpt>
      <trkpt lat="42.65095333" lon="-2.75968667">
        <ele>620.0</ele>
        <time>2021-10-22T08:58:26.000Z</time>
      </trkpt>
      <trkpt lat="42.650955" lon="-2.75967167">
        <ele>620.0</ele>
        <time>2021-10-22T08:58:27.000Z</time>
      </trkpt>
      <trkpt lat="42.650955" lon="-2.759655">
        <ele>620.0</ele>
        <time>2021-10-22T08:58:28.000Z</time>
      </trkpt>
      <trkpt lat="42.65095667" lon="-2.75963667">
        <ele>621.0</ele>
        <time>2021-10-22T08:58:29.000Z</time>
      </trkpt>
      <trkpt lat="42.65095833" lon="-2.75961833">
        <ele>621.0</ele>
        <time>2021-10-22T08:58:30.000Z</time>
      </trkpt>
      <trkpt lat="42.65095667" lon="-2.75960167">
        <ele>621.0</ele>
        <time>2021-10-22T08:58:31.000Z</time>
      </trkpt>
      <trkpt lat="42.65095667" lon="-2.75958167">
        <ele>621.0</ele>
        <time>2021-10-22T08:58:32.000Z</time>
      </trkpt>
      <trkpt lat="42.65096" lon="-2.75956167">
        <ele>621.0</ele>
        <time>2021-10-22T08:58:33.000Z</time>
      </trkpt>
      <trkpt lat="42.650965" lon="-2.75954333">
        <ele>621.0</ele>
        <time>2021-10-22T08:58:34.000Z</time>
      </trkpt>
      <trkpt lat="42.65097167" lon="-2.75952333">
        <ele>621.0</ele>
        <time>2021-10-22T08:58:35.000Z</time>
      </trkpt>
      <trkpt lat="42.650975" lon="-2.75950167">
        <ele>621.0</ele>
        <time>2021-10-22T08:58:36.000Z</time>
      </trkpt>
      <trkpt lat="42.65098" lon="-2.75948333">
        <ele>621.0</ele>
        <time>2021-10-22T08:58:37.000Z</time>
      </trkpt>
      <trkpt lat="42.65098333" lon="-2.75946667">
        <ele>621.0</ele>
        <time>2021-10-22T08:58:38.000Z</time>
      </trkpt>
      <trkpt lat="42.65098833" lon="-2.75945">
        <ele>621.0</ele>
        <time>2021-10-22T08:58:39.000Z</time>
      </trkpt>
      <trkpt lat="42.65099167" lon="-2.75943">
        <ele>621.0</ele>
        <time>2021-10-22T08:58:40.000Z</time>
      </trkpt>
      <trkpt lat="42.65099667" lon="-2.75941167">
        <ele>621.0</ele>
        <time>2021-10-22T08:58:41.000Z</time>
      </trkpt>
      <trkpt lat="42.651" lon="-2.75939333">
        <ele>621.0</ele>
        <time>2021-10-22T08:58:42.000Z</time>
      </trkpt>
      <trkpt lat="42.651005" lon="-2.75937333">
        <ele>621.0</ele>
        <time>2021-10-22T08:58:43.000Z</time>
      </trkpt>
      <trkpt lat="42.65101" lon="-2.75935167">
        <ele>621.0</ele>
        <time>2021-10-22T08:58:44.000Z</time>
      </trkpt>
      <trkpt lat="42.65101333" lon="-2.75933">
        <ele>621.0</ele>
        <time>2021-10-22T08:58:45.000Z</time>
      </trkpt>
      <trkpt lat="42.65101667" lon="-2.75931">
        <ele>621.0</ele>
        <time>2021-10-22T08:58:46.000Z</time>
      </trkpt>
      <trkpt lat="42.65102" lon="-2.75929167">
        <ele>621.0</ele>
        <time>2021-10-22T08:58:47.000Z</time>
      </trkpt>
      <trkpt lat="42.65102333" lon="-2.75927333">
        <ele>621.0</ele>
        <time>2021-10-22T08:58:48.000Z</time>
      </trkpt>
      <trkpt lat="42.65102833" lon="-2.759255">
        <ele>621.0</ele>
        <time>2021-10-22T08:58:49.000Z</time>
      </trkpt>
      <trkpt lat="42.65103333" lon="-2.75924">
        <ele>621.0</ele>
        <time>2021-10-22T08:58:50.000Z</time>
      </trkpt>
      <trkpt lat="42.65104333" lon="-2.75922333">
        <ele>621.0</ele>
        <time>2021-10-22T08:58:51.000Z</time>
      </trkpt>
      <trkpt lat="42.65105167" lon="-2.75920833">
        <ele>621.0</ele>
        <time>2021-10-22T08:58:52.000Z</time>
      </trkpt>
      <trkpt lat="42.65105833" lon="-2.75919167">
        <ele>621.0</ele>
        <time>2021-10-22T08:58:53.000Z</time>
      </trkpt>
      <trkpt lat="42.651065" lon="-2.75918">
        <ele>621.0</ele>
        <time>2021-10-22T08:58:54.000Z</time>
      </trkpt>
      <trkpt lat="42.65107167" lon="-2.75916833">
        <ele>621.0</ele>
        <time>2021-10-22T08:58:55.000Z</time>
      </trkpt>
      <trkpt lat="42.65108" lon="-2.759155">
        <ele>621.0</ele>
        <time>2021-10-22T08:58:56.000Z</time>
      </trkpt>
      <trkpt lat="42.65108833" lon="-2.759145">
        <ele>622.0</ele>
        <time>2021-10-22T08:58:57.000Z</time>
      </trkpt>
      <trkpt lat="42.65109667" lon="-2.75913667">
        <ele>622.0</ele>
        <time>2021-10-22T08:58:58.000Z</time>
      </trkpt>
      <trkpt lat="42.65110333" lon="-2.75913333">
        <ele>622.0</ele>
        <time>2021-10-22T08:58:59.000Z</time>
      </trkpt>
      <trkpt lat="42.65111" lon="-2.75913167">
        <ele>622.0</ele>
        <time>2021-10-22T08:59:00.000Z</time>
      </trkpt>
      <trkpt lat="42.65111833" lon="-2.75913">
        <ele>622.0</ele>
        <time>2021-10-22T08:59:01.000Z</time>
      </trkpt>
      <trkpt lat="42.65112667" lon="-2.75912833">
        <ele>622.0</ele>
        <time>2021-10-22T08:59:02.000Z</time>
      </trkpt>
      <trkpt lat="42.65113167" lon="-2.75913">
        <ele>622.0</ele>
        <time>2021-10-22T08:59:03.000Z</time>
      </trkpt>
      <trkpt lat="42.65113667" lon="-2.75913167">
        <ele>622.0</ele>
        <time>2021-10-22T08:59:04.000Z</time>
      </trkpt>
      <trkpt lat="42.65114167" lon="-2.75913667">
        <ele>622.0</ele>
        <time>2021-10-22T08:59:05.000Z</time>
      </trkpt>
      <trkpt lat="42.65114333" lon="-2.759145">
        <ele>622.0</ele>
        <time>2021-10-22T08:59:06.000Z</time>
      </trkpt>
      <trkpt lat="42.65114167" lon="-2.759155">
        <ele>622.0</ele>
        <time>2021-10-22T08:59:07.000Z</time>
      </trkpt>
      <trkpt lat="42.65114" lon="-2.75916667">
        <ele>621.0</ele>
        <time>2021-10-22T08:59:08.000Z</time>
      </trkpt>
      <trkpt lat="42.65114" lon="-2.75917833">
        <ele>621.0</ele>
        <time>2021-10-22T08:59:09.000Z</time>
      </trkpt>
      <trkpt lat="42.65113833" lon="-2.75919">
        <ele>621.0</ele>
        <time>2021-10-22T08:59:10.000Z</time>
      </trkpt>
      <trkpt lat="42.65114" lon="-2.75920333">
        <ele>621.0</ele>
        <time>2021-10-22T08:59:11.000Z</time>
      </trkpt>
      <trkpt lat="42.65114167" lon="-2.75921333">
        <ele>621.0</ele>
        <time>2021-10-22T08:59:12.000Z</time>
      </trkpt>
      <trkpt lat="42.65114" lon="-2.75922333">
        <ele>621.0</ele>
        <time>2021-10-22T08:59:13.000Z</time>
      </trkpt>
      <trkpt lat="42.65114167" lon="-2.75923">
        <ele>621.0</ele>
        <time>2021-10-22T08:59:14.000Z</time>
      </trkpt>
      <trkpt lat="42.651145" lon="-2.75923167">
        <ele>621.0</ele>
        <time>2021-10-22T08:59:15.000Z</time>
      </trkpt>
      <trkpt lat="42.65115" lon="-2.75923333">
        <ele>621.0</ele>
        <time>2021-10-22T08:59:16.000Z</time>
      </trkpt>
      <trkpt lat="42.65115" lon="-2.75923167">
        <ele>621.0</ele>
        <time>2021-10-22T08:59:17.000Z</time>
      </trkpt>
      <trkpt lat="42.65115333" lon="-2.75923333">
        <ele>621.0</ele>
        <time>2021-10-22T08:59:18.000Z</time>
      </trkpt>
      <trkpt lat="42.651155" lon="-2.759235">
        <ele>620.0</ele>
        <time>2021-10-22T08:59:19.000Z</time>
      </trkpt>
      <trkpt lat="42.65115333" lon="-2.75923667">
        <ele>620.0</ele>
        <time>2021-10-22T08:59:20.000Z</time>
      </trkpt>
      <trkpt lat="42.65115" lon="-2.759235">
        <ele>620.0</ele>
        <time>2021-10-22T08:59:21.000Z</time>
      </trkpt>
      <trkpt lat="42.65114833" lon="-2.75923333">
        <ele>620.0</ele>
        <time>2021-10-22T08:59:22.000Z</time>
      </trkpt>
      <trkpt lat="42.651145" lon="-2.75923">
        <ele>620.0</ele>
        <time>2021-10-22T08:59:23.000Z</time>
      </trkpt>
      <trkpt lat="42.651145" lon="-2.75922667">
        <ele>620.0</ele>
        <time>2021-10-22T08:59:24.000Z</time>
      </trkpt>
      <trkpt lat="42.651145" lon="-2.75922667">
        <ele>620.0</ele>
        <time>2021-10-22T08:59:25.000Z</time>
      </trkpt>
      <trkpt lat="42.65114333" lon="-2.759225">
        <ele>620.0</ele>
        <time>2021-10-22T08:59:26.000Z</time>
      </trkpt>
      <trkpt lat="42.65114333" lon="-2.759225">
        <ele>620.0</ele>
        <time>2021-10-22T08:59:27.000Z</time>
      </trkpt>
      <trkpt lat="42.65114333" lon="-2.75922333">
        <ele>620.0</ele>
        <time>2021-10-22T08:59:28.000Z</time>
      </trkpt>
      <trkpt lat="42.65114333" lon="-2.75922333">
        <ele>620.0</ele>
        <time>2021-10-22T08:59:29.000Z</time>
      </trkpt>
      <trkpt lat="42.65114167" lon="-2.75922333">
        <ele>620.0</ele>
        <time>2021-10-22T08:59:30.000Z</time>
      </trkpt>
      <trkpt lat="42.65114167" lon="-2.75922167">
        <ele>620.0</ele>
        <time>2021-10-22T08:59:31.000Z</time>
      </trkpt>
      <trkpt lat="42.65114167" lon="-2.75922167">
        <ele>620.0</ele>
        <time>2021-10-22T08:59:32.000Z</time>
      </trkpt>
      <trkpt lat="42.65114167" lon="-2.75922167">
        <ele>620.0</ele>
        <time>2021-10-22T08:59:33.000Z</time>
      </trkpt>
      <trkpt lat="42.65114167" lon="-2.75922">
        <ele>620.0</ele>
        <time>2021-10-22T08:59:34.000Z</time>
      </trkpt>
      <trkpt lat="42.65114" lon="-2.75922">
        <ele>620.0</ele>
        <time>2021-10-22T08:59:35.000Z</time>
      </trkpt>
      <trkpt lat="42.65114" lon="-2.75922">
        <ele>620.0</ele>
        <time>2021-10-22T08:59:36.000Z</time>
      </trkpt>
      <trkpt lat="42.65114" lon="-2.75922">
        <ele>620.0</ele>
        <time>2021-10-22T08:59:37.000Z</time>
      </trkpt>
      <trkpt lat="42.65114" lon="-2.75922">
        <ele>620.0</ele>
        <time>2021-10-22T08:59:38.000Z</time>
      </trkpt>
      <trkpt lat="42.65114" lon="-2.75921833">
        <ele>620.0</ele>
        <time>2021-10-22T08:59:39.000Z</time>
      </trkpt>
      <trkpt lat="42.65114" lon="-2.75921833">
        <ele>620.0</ele>
        <time>2021-10-22T08:59:40.000Z</time>
      </trkpt>
      <trkpt lat="42.65114" lon="-2.75921833">
        <ele>620.0</ele>
        <time>2021-10-22T08:59:41.000Z</time>
      </trkpt>
      <trkpt lat="42.65114" lon="-2.75921833">
        <ele>620.0</ele>
        <time>2021-10-22T08:59:42.000Z</time>
      </trkpt>
      <trkpt lat="42.65113833" lon="-2.759215">
        <ele>620.0</ele>
        <time>2021-10-22T08:59:43.000Z</time>
      </trkpt>
      <trkpt lat="42.65113667" lon="-2.75921">
        <ele>620.0</ele>
        <time>2021-10-22T08:59:44.000Z</time>
      </trkpt>
      <trkpt lat="42.65113333" lon="-2.75920167">
        <ele>620.0</ele>
        <time>2021-10-22T08:59:45.000Z</time>
      </trkpt>
      <trkpt lat="42.65113" lon="-2.75919167">
        <ele>620.0</ele>
        <time>2021-10-22T08:59:46.000Z</time>
      </trkpt>
      <trkpt lat="42.65112667" lon="-2.75918167">
        <ele>620.0</ele>
        <time>2021-10-22T08:59:47.000Z</time>
      </trkpt>
      <trkpt lat="42.65112167" lon="-2.75917167">
        <ele>620.0</ele>
        <time>2021-10-22T08:59:48.000Z</time>
      </trkpt>
      <trkpt lat="42.65111667" lon="-2.759165">
        <ele>620.0</ele>
        <time>2021-10-22T08:59:49.000Z</time>
      </trkpt>
      <trkpt lat="42.65111333" lon="-2.75915833">
        <ele>620.0</ele>
        <time>2021-10-22T08:59:50.000Z</time>
      </trkpt>
      <trkpt lat="42.65111" lon="-2.75914833">
        <ele>620.0</ele>
        <time>2021-10-22T08:59:51.000Z</time>
      </trkpt>
      <trkpt lat="42.651105" lon="-2.75914167">
        <ele>620.0</ele>
        <time>2021-10-22T08:59:52.000Z</time>
      </trkpt>
      <trkpt lat="42.6511" lon="-2.759135">
        <ele>620.0</ele>
        <time>2021-10-22T08:59:53.000Z</time>
      </trkpt>
      <trkpt lat="42.65109667" lon="-2.75912833">
        <ele>620.0</ele>
        <time>2021-10-22T08:59:54.000Z</time>
      </trkpt>
      <trkpt lat="42.65109" lon="-2.75912">
        <ele>620.0</ele>
        <time>2021-10-22T08:59:55.000Z</time>
      </trkpt>
      <trkpt lat="42.65108333" lon="-2.75911333">
        <ele>620.0</ele>
        <time>2021-10-22T08:59:56.000Z</time>
      </trkpt>
      <trkpt lat="42.651075" lon="-2.759105">
        <ele>620.0</ele>
        <time>2021-10-22T08:59:57.000Z</time>
      </trkpt>
      <trkpt lat="42.65107167" lon="-2.75909667">
        <ele>621.0</ele>
        <time>2021-10-22T08:59:58.000Z</time>
      </trkpt>
      <trkpt lat="42.65107167" lon="-2.759085">
        <ele>621.0</ele>
        <time>2021-10-22T08:59:59.000Z</time>
      </trkpt>
      <trkpt lat="42.65107167" lon="-2.75907333">
        <ele>621.0</ele>
        <time>2021-10-22T09:00:00.000Z</time>
      </trkpt>
      <trkpt lat="42.65107" lon="-2.75906167">
        <ele>621.0</ele>
        <time>2021-10-22T09:00:01.000Z</time>
      </trkpt>
      <trkpt lat="42.65107167" lon="-2.75905">
        <ele>621.0</ele>
        <time>2021-10-22T09:00:02.000Z</time>
      </trkpt>
      <trkpt lat="42.65107167" lon="-2.75903667">
        <ele>621.0</ele>
        <time>2021-10-22T09:00:03.000Z</time>
      </trkpt>
      <trkpt lat="42.65107167" lon="-2.75902167">
        <ele>621.0</ele>
        <time>2021-10-22T09:00:04.000Z</time>
      </trkpt>
      <trkpt lat="42.65107" lon="-2.75900667">
        <ele>621.0</ele>
        <time>2021-10-22T09:00:05.000Z</time>
      </trkpt>
      <trkpt lat="42.65107" lon="-2.75898833">
        <ele>621.0</ele>
        <time>2021-10-22T09:00:06.000Z</time>
      </trkpt>
      <trkpt lat="42.65106833" lon="-2.75897333">
        <ele>621.0</ele>
        <time>2021-10-22T09:00:07.000Z</time>
      </trkpt>
      <trkpt lat="42.65107" lon="-2.75896">
        <ele>621.0</ele>
        <time>2021-10-22T09:00:08.000Z</time>
      </trkpt>
      <trkpt lat="42.65107167" lon="-2.75894667">
        <ele>621.0</ele>
        <time>2021-10-22T09:00:09.000Z</time>
      </trkpt>
      <trkpt lat="42.65107167" lon="-2.75893">
        <ele>621.0</ele>
        <time>2021-10-22T09:00:10.000Z</time>
      </trkpt>
      <trkpt lat="42.65107167" lon="-2.75891333">
        <ele>621.0</ele>
        <time>2021-10-22T09:00:11.000Z</time>
      </trkpt>
      <trkpt lat="42.65107333" lon="-2.75889833">
        <ele>621.0</ele>
        <time>2021-10-22T09:00:12.000Z</time>
      </trkpt>
      <trkpt lat="42.651075" lon="-2.758885">
        <ele>621.0</ele>
        <time>2021-10-22T09:00:13.000Z</time>
      </trkpt>
      <trkpt lat="42.65107667" lon="-2.75887333">
        <ele>620.0</ele>
        <time>2021-10-22T09:00:14.000Z</time>
      </trkpt>
      <trkpt lat="42.65107833" lon="-2.75885833">
        <ele>620.0</ele>
        <time>2021-10-22T09:00:15.000Z</time>
      </trkpt>
      <trkpt lat="42.65107833" lon="-2.758845">
        <ele>620.0</ele>
        <time>2021-10-22T09:00:16.000Z</time>
      </trkpt>
      <trkpt lat="42.65108167" lon="-2.75882833">
        <ele>620.0</ele>
        <time>2021-10-22T09:00:17.000Z</time>
      </trkpt>
      <trkpt lat="42.65108667" lon="-2.75881167">
        <ele>620.0</ele>
        <time>2021-10-22T09:00:18.000Z</time>
      </trkpt>
      <trkpt lat="42.65109" lon="-2.75879667">
        <ele>620.0</ele>
        <time>2021-10-22T09:00:19.000Z</time>
      </trkpt>
      <trkpt lat="42.65109167" lon="-2.75878833">
        <ele>620.0</ele>
        <time>2021-10-22T09:00:20.000Z</time>
      </trkpt>
      <trkpt lat="42.65109333" lon="-2.75877667">
        <ele>620.0</ele>
        <time>2021-10-22T09:00:21.000Z</time>
      </trkpt>
      <trkpt lat="42.65109333" lon="-2.758765">
        <ele>620.0</ele>
        <time>2021-10-22T09:00:22.000Z</time>
      </trkpt>
      <trkpt lat="42.65109333" lon="-2.75875167">
        <ele>620.0</ele>
        <time>2021-10-22T09:00:23.000Z</time>
      </trkpt>
      <trkpt lat="42.65109333" lon="-2.75874">
        <ele>620.0</ele>
        <time>2021-10-22T09:00:24.000Z</time>
      </trkpt>
      <trkpt lat="42.651095" lon="-2.75872667">
        <ele>620.0</ele>
        <time>2021-10-22T09:00:25.000Z</time>
      </trkpt>
      <trkpt lat="42.651095" lon="-2.75871333">
        <ele>620.0</ele>
        <time>2021-10-22T09:00:26.000Z</time>
      </trkpt>
      <trkpt lat="42.651095" lon="-2.7587">
        <ele>620.0</ele>
        <time>2021-10-22T09:00:27.000Z</time>
      </trkpt>
      <trkpt lat="42.651095" lon="-2.758685">
        <ele>620.0</ele>
        <time>2021-10-22T09:00:28.000Z</time>
      </trkpt>
      <trkpt lat="42.651095" lon="-2.75866833">
        <ele>620.0</ele>
        <time>2021-10-22T09:00:29.000Z</time>
      </trkpt>
      <trkpt lat="42.651095" lon="-2.75865333">
        <ele>620.0</ele>
        <time>2021-10-22T09:00:30.000Z</time>
      </trkpt>
      <trkpt lat="42.65109333" lon="-2.758635">
        <ele>620.0</ele>
        <time>2021-10-22T09:00:31.000Z</time>
      </trkpt>
      <trkpt lat="42.65109167" lon="-2.75861833">
        <ele>620.0</ele>
        <time>2021-10-22T09:00:32.000Z</time>
      </trkpt>
      <trkpt lat="42.65109167" lon="-2.75860167">
        <ele>620.0</ele>
        <time>2021-10-22T09:00:33.000Z</time>
      </trkpt>
      <trkpt lat="42.65109167" lon="-2.758585">
        <ele>620.0</ele>
        <time>2021-10-22T09:00:34.000Z</time>
      </trkpt>
      <trkpt lat="42.651095" lon="-2.75856833">
        <ele>620.0</ele>
        <time>2021-10-22T09:00:35.000Z</time>
      </trkpt>
      <trkpt lat="42.651095" lon="-2.75855">
        <ele>620.0</ele>
        <time>2021-10-22T09:00:36.000Z</time>
      </trkpt>
      <trkpt lat="42.65109667" lon="-2.75853">
        <ele>620.0</ele>
        <time>2021-10-22T09:00:37.000Z</time>
      </trkpt>
      <trkpt lat="42.651095" lon="-2.75851167">
        <ele>620.0</ele>
        <time>2021-10-22T09:00:38.000Z</time>
      </trkpt>
      <trkpt lat="42.65109333" lon="-2.75849833">
        <ele>620.0</ele>
        <time>2021-10-22T09:00:39.000Z</time>
      </trkpt>
      <trkpt lat="42.65108833" lon="-2.75848333">
        <ele>620.0</ele>
        <time>2021-10-22T09:00:40.000Z</time>
      </trkpt>
      <trkpt lat="42.651085" lon="-2.75846833">
        <ele>620.0</ele>
        <time>2021-10-22T09:00:41.000Z</time>
      </trkpt>
      <trkpt lat="42.65108" lon="-2.75845333">
        <ele>620.0</ele>
        <time>2021-10-22T09:00:42.000Z</time>
      </trkpt>
      <trkpt lat="42.651075" lon="-2.75844">
        <ele>620.0</ele>
        <time>2021-10-22T09:00:43.000Z</time>
      </trkpt>
      <trkpt lat="42.65107" lon="-2.758425">
        <ele>620.0</ele>
        <time>2021-10-22T09:00:44.000Z</time>
      </trkpt>
      <trkpt lat="42.651065" lon="-2.75840833">
        <ele>620.0</ele>
        <time>2021-10-22T09:00:45.000Z</time>
      </trkpt>
      <trkpt lat="42.65106" lon="-2.758395">
        <ele>620.0</ele>
        <time>2021-10-22T09:00:46.000Z</time>
      </trkpt>
      <trkpt lat="42.651055" lon="-2.75838167">
        <ele>620.0</ele>
        <time>2021-10-22T09:00:47.000Z</time>
      </trkpt>
      <trkpt lat="42.65104833" lon="-2.75837">
        <ele>620.0</ele>
        <time>2021-10-22T09:00:48.000Z</time>
      </trkpt>
      <trkpt lat="42.65103833" lon="-2.75835667">
        <ele>620.0</ele>
        <time>2021-10-22T09:00:49.000Z</time>
      </trkpt>
      <trkpt lat="42.65103" lon="-2.758345">
        <ele>620.0</ele>
        <time>2021-10-22T09:00:50.000Z</time>
      </trkpt>
      <trkpt lat="42.651025" lon="-2.75833">
        <ele>620.0</ele>
        <time>2021-10-22T09:00:51.000Z</time>
      </trkpt>
      <trkpt lat="42.65101833" lon="-2.75831667">
        <ele>620.0</ele>
        <time>2021-10-22T09:00:52.000Z</time>
      </trkpt>
      <trkpt lat="42.65101" lon="-2.758305">
        <ele>620.0</ele>
        <time>2021-10-22T09:00:53.000Z</time>
      </trkpt>
      <trkpt lat="42.651005" lon="-2.75829333">
        <ele>620.0</ele>
        <time>2021-10-22T09:00:54.000Z</time>
      </trkpt>
      <trkpt lat="42.651" lon="-2.75828">
        <ele>620.0</ele>
        <time>2021-10-22T09:00:55.000Z</time>
      </trkpt>
      <trkpt lat="42.650995" lon="-2.758265">
        <ele>620.0</ele>
        <time>2021-10-22T09:00:56.000Z</time>
      </trkpt>
      <trkpt lat="42.65098833" lon="-2.75825">
        <ele>620.0</ele>
        <time>2021-10-22T09:00:57.000Z</time>
      </trkpt>
      <trkpt lat="42.65098333" lon="-2.75823667">
        <ele>620.0</ele>
        <time>2021-10-22T09:00:58.000Z</time>
      </trkpt>
      <trkpt lat="42.65097667" lon="-2.758225">
        <ele>620.0</ele>
        <time>2021-10-22T09:00:59.000Z</time>
      </trkpt>
      <trkpt lat="42.65096833" lon="-2.75821167">
        <ele>620.0</ele>
        <time>2021-10-22T09:01:00.000Z</time>
      </trkpt>
      <trkpt lat="42.65096" lon="-2.75819667">
        <ele>620.0</ele>
        <time>2021-10-22T09:01:01.000Z</time>
      </trkpt>
      <trkpt lat="42.65095" lon="-2.75818167">
        <ele>620.0</ele>
        <time>2021-10-22T09:01:02.000Z</time>
      </trkpt>
      <trkpt lat="42.65093833" lon="-2.75816833">
        <ele>620.0</ele>
        <time>2021-10-22T09:01:03.000Z</time>
      </trkpt>
      <trkpt lat="42.65092833" lon="-2.75815667">
        <ele>620.0</ele>
        <time>2021-10-22T09:01:04.000Z</time>
      </trkpt>
      <trkpt lat="42.65092" lon="-2.75814333">
        <ele>620.0</ele>
        <time>2021-10-22T09:01:05.000Z</time>
      </trkpt>
      <trkpt lat="42.65091167" lon="-2.75813">
        <ele>620.0</ele>
        <time>2021-10-22T09:01:06.000Z</time>
      </trkpt>
      <trkpt lat="42.65090167" lon="-2.75811833">
        <ele>620.0</ele>
        <time>2021-10-22T09:01:07.000Z</time>
      </trkpt>
      <trkpt lat="42.65089167" lon="-2.758105">
        <ele>620.0</ele>
        <time>2021-10-22T09:01:08.000Z</time>
      </trkpt>
      <trkpt lat="42.65088167" lon="-2.75809333">
        <ele>620.0</ele>
        <time>2021-10-22T09:01:09.000Z</time>
      </trkpt>
      <trkpt lat="42.65087167" lon="-2.75808167">
        <ele>619.0</ele>
        <time>2021-10-22T09:01:10.000Z</time>
      </trkpt>
      <trkpt lat="42.65086167" lon="-2.75806833">
        <ele>619.0</ele>
        <time>2021-10-22T09:01:11.000Z</time>
      </trkpt>
      <trkpt lat="42.65085167" lon="-2.75806">
        <ele>619.0</ele>
        <time>2021-10-22T09:01:12.000Z</time>
      </trkpt>
      <trkpt lat="42.65084167" lon="-2.75805">
        <ele>619.0</ele>
        <time>2021-10-22T09:01:13.000Z</time>
      </trkpt>
      <trkpt lat="42.65083167" lon="-2.75803833">
        <ele>619.0</ele>
        <time>2021-10-22T09:01:14.000Z</time>
      </trkpt>
      <trkpt lat="42.65082167" lon="-2.75803167">
        <ele>619.0</ele>
        <time>2021-10-22T09:01:15.000Z</time>
      </trkpt>
      <trkpt lat="42.65081167" lon="-2.758025">
        <ele>619.0</ele>
        <time>2021-10-22T09:01:16.000Z</time>
      </trkpt>
      <trkpt lat="42.6508" lon="-2.75801667">
        <ele>619.0</ele>
        <time>2021-10-22T09:01:17.000Z</time>
      </trkpt>
      <trkpt lat="42.65078833" lon="-2.75800667">
        <ele>619.0</ele>
        <time>2021-10-22T09:01:18.000Z</time>
      </trkpt>
      <trkpt lat="42.650775" lon="-2.75799833">
        <ele>619.0</ele>
        <time>2021-10-22T09:01:19.000Z</time>
      </trkpt>
      <trkpt lat="42.65076333" lon="-2.75798667">
        <ele>619.0</ele>
        <time>2021-10-22T09:01:20.000Z</time>
      </trkpt>
      <trkpt lat="42.65075333" lon="-2.75797833">
        <ele>619.0</ele>
        <time>2021-10-22T09:01:21.000Z</time>
      </trkpt>
      <trkpt lat="42.65074333" lon="-2.75796833">
        <ele>619.0</ele>
        <time>2021-10-22T09:01:22.000Z</time>
      </trkpt>
      <trkpt lat="42.65073333" lon="-2.75795833">
        <ele>619.0</ele>
        <time>2021-10-22T09:01:23.000Z</time>
      </trkpt>
      <trkpt lat="42.650725" lon="-2.75794833">
        <ele>619.0</ele>
        <time>2021-10-22T09:01:24.000Z</time>
      </trkpt>
      <trkpt lat="42.65071667" lon="-2.75793667">
        <ele>619.0</ele>
        <time>2021-10-22T09:01:25.000Z</time>
      </trkpt>
      <trkpt lat="42.65070833" lon="-2.757925">
        <ele>619.0</ele>
        <time>2021-10-22T09:01:26.000Z</time>
      </trkpt>
      <trkpt lat="42.65069833" lon="-2.757915">
        <ele>619.0</ele>
        <time>2021-10-22T09:01:27.000Z</time>
      </trkpt>
      <trkpt lat="42.65068833" lon="-2.757905">
        <ele>619.0</ele>
        <time>2021-10-22T09:01:28.000Z</time>
      </trkpt>
      <trkpt lat="42.65067833" lon="-2.75789667">
        <ele>619.0</ele>
        <time>2021-10-22T09:01:29.000Z</time>
      </trkpt>
      <trkpt lat="42.65066833" lon="-2.757885">
        <ele>619.0</ele>
        <time>2021-10-22T09:01:30.000Z</time>
      </trkpt>
      <trkpt lat="42.65066" lon="-2.75787333">
        <ele>619.0</ele>
        <time>2021-10-22T09:01:31.000Z</time>
      </trkpt>
      <trkpt lat="42.65065167" lon="-2.757865">
        <ele>619.0</ele>
        <time>2021-10-22T09:01:32.000Z</time>
      </trkpt>
      <trkpt lat="42.65064167" lon="-2.75785167">
        <ele>619.0</ele>
        <time>2021-10-22T09:01:33.000Z</time>
      </trkpt>
      <trkpt lat="42.65063" lon="-2.75783833">
        <ele>619.0</ele>
        <time>2021-10-22T09:01:34.000Z</time>
      </trkpt>
      <trkpt lat="42.65061833" lon="-2.75782833">
        <ele>620.0</ele>
        <time>2021-10-22T09:01:35.000Z</time>
      </trkpt>
      <trkpt lat="42.65060833" lon="-2.757815">
        <ele>620.0</ele>
        <time>2021-10-22T09:01:36.000Z</time>
      </trkpt>
      <trkpt lat="42.65059833" lon="-2.75780333">
        <ele>620.0</ele>
        <time>2021-10-22T09:01:37.000Z</time>
      </trkpt>
      <trkpt lat="42.65058833" lon="-2.75779667">
        <ele>620.0</ele>
        <time>2021-10-22T09:01:38.000Z</time>
      </trkpt>
      <trkpt lat="42.65057833" lon="-2.75779167">
        <ele>620.0</ele>
        <time>2021-10-22T09:01:39.000Z</time>
      </trkpt>
      <trkpt lat="42.65057167" lon="-2.757785">
        <ele>620.0</ele>
        <time>2021-10-22T09:01:40.000Z</time>
      </trkpt>
      <trkpt lat="42.65056167" lon="-2.75777833">
        <ele>620.0</ele>
        <time>2021-10-22T09:01:41.000Z</time>
      </trkpt>
      <trkpt lat="42.65055167" lon="-2.75777">
        <ele>620.0</ele>
        <time>2021-10-22T09:01:42.000Z</time>
      </trkpt>
      <trkpt lat="42.65053833" lon="-2.75776333">
        <ele>620.0</ele>
        <time>2021-10-22T09:01:43.000Z</time>
      </trkpt>
      <trkpt lat="42.65052833" lon="-2.75775833">
        <ele>620.0</ele>
        <time>2021-10-22T09:01:44.000Z</time>
      </trkpt>
      <trkpt lat="42.65051833" lon="-2.75775333">
        <ele>620.0</ele>
        <time>2021-10-22T09:01:45.000Z</time>
      </trkpt>
      <trkpt lat="42.65050833" lon="-2.757745">
        <ele>620.0</ele>
        <time>2021-10-22T09:01:46.000Z</time>
      </trkpt>
      <trkpt lat="42.65049833" lon="-2.75773667">
        <ele>620.0</ele>
        <time>2021-10-22T09:01:47.000Z</time>
      </trkpt>
      <trkpt lat="42.65048833" lon="-2.75773333">
        <ele>620.0</ele>
        <time>2021-10-22T09:01:48.000Z</time>
      </trkpt>
      <trkpt lat="42.65047667" lon="-2.75773">
        <ele>620.0</ele>
        <time>2021-10-22T09:01:49.000Z</time>
      </trkpt>
      <trkpt lat="42.65046667" lon="-2.757725">
        <ele>620.0</ele>
        <time>2021-10-22T09:01:50.000Z</time>
      </trkpt>
      <trkpt lat="42.65045833" lon="-2.75772167">
        <ele>620.0</ele>
        <time>2021-10-22T09:01:51.000Z</time>
      </trkpt>
      <trkpt lat="42.65045" lon="-2.757715">
        <ele>620.0</ele>
        <time>2021-10-22T09:01:52.000Z</time>
      </trkpt>
      <trkpt lat="42.65044" lon="-2.75770833">
        <ele>620.0</ele>
        <time>2021-10-22T09:01:53.000Z</time>
      </trkpt>
      <trkpt lat="42.65043" lon="-2.7577">
        <ele>620.0</ele>
        <time>2021-10-22T09:01:54.000Z</time>
      </trkpt>
      <trkpt lat="42.65042" lon="-2.75769333">
        <ele>620.0</ele>
        <time>2021-10-22T09:01:55.000Z</time>
      </trkpt>
      <trkpt lat="42.65041" lon="-2.757685">
        <ele>620.0</ele>
        <time>2021-10-22T09:01:56.000Z</time>
      </trkpt>
      <trkpt lat="42.65040167" lon="-2.757675">
        <ele>620.0</ele>
        <time>2021-10-22T09:01:57.000Z</time>
      </trkpt>
      <trkpt lat="42.65039167" lon="-2.75766667">
        <ele>620.0</ele>
        <time>2021-10-22T09:01:58.000Z</time>
      </trkpt>
      <trkpt lat="42.65038167" lon="-2.75766">
        <ele>621.0</ele>
        <time>2021-10-22T09:01:59.000Z</time>
      </trkpt>
      <trkpt lat="42.65037167" lon="-2.75765333">
        <ele>621.0</ele>
        <time>2021-10-22T09:02:00.000Z</time>
      </trkpt>
      <trkpt lat="42.65036" lon="-2.757645">
        <ele>621.0</ele>
        <time>2021-10-22T09:02:01.000Z</time>
      </trkpt>
      <trkpt lat="42.65034833" lon="-2.757635">
        <ele>621.0</ele>
        <time>2021-10-22T09:02:02.000Z</time>
      </trkpt>
      <trkpt lat="42.65033833" lon="-2.75762833">
        <ele>621.0</ele>
        <time>2021-10-22T09:02:03.000Z</time>
      </trkpt>
      <trkpt lat="42.65032667" lon="-2.75762167">
        <ele>621.0</ele>
        <time>2021-10-22T09:02:04.000Z</time>
      </trkpt>
      <trkpt lat="42.650315" lon="-2.757615">
        <ele>621.0</ele>
        <time>2021-10-22T09:02:05.000Z</time>
      </trkpt>
      <trkpt lat="42.65030333" lon="-2.75760667">
        <ele>621.0</ele>
        <time>2021-10-22T09:02:06.000Z</time>
      </trkpt>
      <trkpt lat="42.65029" lon="-2.75759667">
        <ele>621.0</ele>
        <time>2021-10-22T09:02:07.000Z</time>
      </trkpt>
      <trkpt lat="42.65027667" lon="-2.75758833">
        <ele>621.0</ele>
        <time>2021-10-22T09:02:08.000Z</time>
      </trkpt>
      <trkpt lat="42.650265" lon="-2.75757667">
        <ele>622.0</ele>
        <time>2021-10-22T09:02:09.000Z</time>
      </trkpt>
      <trkpt lat="42.650255" lon="-2.75757">
        <ele>622.0</ele>
        <time>2021-10-22T09:02:10.000Z</time>
      </trkpt>
      <trkpt lat="42.65024667" lon="-2.75756167">
        <ele>622.0</ele>
        <time>2021-10-22T09:02:11.000Z</time>
      </trkpt>
      <trkpt lat="42.650235" lon="-2.75755333">
        <ele>622.0</ele>
        <time>2021-10-22T09:02:12.000Z</time>
      </trkpt>
      <trkpt lat="42.65022333" lon="-2.75754667">
        <ele>622.0</ele>
        <time>2021-10-22T09:02:13.000Z</time>
      </trkpt>
      <trkpt lat="42.65021" lon="-2.75754">
        <ele>622.0</ele>
        <time>2021-10-22T09:02:14.000Z</time>
      </trkpt>
      <trkpt lat="42.6502" lon="-2.75753333">
        <ele>622.0</ele>
        <time>2021-10-22T09:02:15.000Z</time>
      </trkpt>
      <trkpt lat="42.65018833" lon="-2.75753">
        <ele>622.0</ele>
        <time>2021-10-22T09:02:16.000Z</time>
      </trkpt>
      <trkpt lat="42.65017667" lon="-2.75752333">
        <ele>622.0</ele>
        <time>2021-10-22T09:02:17.000Z</time>
      </trkpt>
      <trkpt lat="42.650165" lon="-2.75751667">
        <ele>622.0</ele>
        <time>2021-10-22T09:02:18.000Z</time>
      </trkpt>
      <trkpt lat="42.65015167" lon="-2.75750833">
        <ele>623.0</ele>
        <time>2021-10-22T09:02:19.000Z</time>
      </trkpt>
      <trkpt lat="42.65014" lon="-2.75750333">
        <ele>623.0</ele>
        <time>2021-10-22T09:02:20.000Z</time>
      </trkpt>
      <trkpt lat="42.65012667" lon="-2.757495">
        <ele>623.0</ele>
        <time>2021-10-22T09:02:21.000Z</time>
      </trkpt>
      <trkpt lat="42.650115" lon="-2.75748333">
        <ele>623.0</ele>
        <time>2021-10-22T09:02:22.000Z</time>
      </trkpt>
      <trkpt lat="42.65010333" lon="-2.757475">
        <ele>623.0</ele>
        <time>2021-10-22T09:02:23.000Z</time>
      </trkpt>
      <trkpt lat="42.65009167" lon="-2.757465">
        <ele>623.0</ele>
        <time>2021-10-22T09:02:24.000Z</time>
      </trkpt>
      <trkpt lat="42.65008333" lon="-2.75746">
        <ele>623.0</ele>
        <time>2021-10-22T09:02:25.000Z</time>
      </trkpt>
      <trkpt lat="42.65007333" lon="-2.75745333">
        <ele>623.0</ele>
        <time>2021-10-22T09:02:26.000Z</time>
      </trkpt>
      <trkpt lat="42.65006333" lon="-2.75744333">
        <ele>623.0</ele>
        <time>2021-10-22T09:02:27.000Z</time>
      </trkpt>
      <trkpt lat="42.65005333" lon="-2.75743167">
        <ele>623.0</ele>
        <time>2021-10-22T09:02:28.000Z</time>
      </trkpt>
      <trkpt lat="42.650045" lon="-2.757415">
        <ele>623.0</ele>
        <time>2021-10-22T09:02:29.000Z</time>
      </trkpt>
      <trkpt lat="42.65003667" lon="-2.7574">
        <ele>623.0</ele>
        <time>2021-10-22T09:02:30.000Z</time>
      </trkpt>
      <trkpt lat="42.65002667" lon="-2.75738667">
        <ele>623.0</ele>
        <time>2021-10-22T09:02:31.000Z</time>
      </trkpt>
      <trkpt lat="42.65001667" lon="-2.757375">
        <ele>623.0</ele>
        <time>2021-10-22T09:02:32.000Z</time>
      </trkpt>
      <trkpt lat="42.65000667" lon="-2.757365">
        <ele>623.0</ele>
        <time>2021-10-22T09:02:33.000Z</time>
      </trkpt>
      <trkpt lat="42.649995" lon="-2.757355">
        <ele>623.0</ele>
        <time>2021-10-22T09:02:34.000Z</time>
      </trkpt>
      <trkpt lat="42.649985" lon="-2.75734333">
        <ele>623.0</ele>
        <time>2021-10-22T09:02:35.000Z</time>
      </trkpt>
      <trkpt lat="42.649975" lon="-2.75733167">
        <ele>623.0</ele>
        <time>2021-10-22T09:02:36.000Z</time>
      </trkpt>
      <trkpt lat="42.64996333" lon="-2.75732167">
        <ele>623.0</ele>
        <time>2021-10-22T09:02:37.000Z</time>
      </trkpt>
      <trkpt lat="42.64995333" lon="-2.75731">
        <ele>623.0</ele>
        <time>2021-10-22T09:02:38.000Z</time>
      </trkpt>
      <trkpt lat="42.64994167" lon="-2.75729667">
        <ele>623.0</ele>
        <time>2021-10-22T09:02:39.000Z</time>
      </trkpt>
      <trkpt lat="42.649935" lon="-2.75728333">
        <ele>623.0</ele>
        <time>2021-10-22T09:02:40.000Z</time>
      </trkpt>
      <trkpt lat="42.64992667" lon="-2.75727167">
        <ele>623.0</ele>
        <time>2021-10-22T09:02:41.000Z</time>
      </trkpt>
      <trkpt lat="42.64991667" lon="-2.75725833">
        <ele>624.0</ele>
        <time>2021-10-22T09:02:42.000Z</time>
      </trkpt>
      <trkpt lat="42.64991" lon="-2.75724667">
        <ele>624.0</ele>
        <time>2021-10-22T09:02:43.000Z</time>
      </trkpt>
      <trkpt lat="42.64990333" lon="-2.75723667">
        <ele>624.0</ele>
        <time>2021-10-22T09:02:44.000Z</time>
      </trkpt>
      <trkpt lat="42.64989833" lon="-2.757225">
        <ele>624.0</ele>
        <time>2021-10-22T09:02:45.000Z</time>
      </trkpt>
      <trkpt lat="42.64989" lon="-2.75721333">
        <ele>624.0</ele>
        <time>2021-10-22T09:02:46.000Z</time>
      </trkpt>
      <trkpt lat="42.649885" lon="-2.75720167">
        <ele>624.0</ele>
        <time>2021-10-22T09:02:47.000Z</time>
      </trkpt>
      <trkpt lat="42.64988" lon="-2.75718667">
        <ele>624.0</ele>
        <time>2021-10-22T09:02:48.000Z</time>
      </trkpt>
      <trkpt lat="42.649875" lon="-2.75717">
        <ele>624.0</ele>
        <time>2021-10-22T09:02:49.000Z</time>
      </trkpt>
      <trkpt lat="42.64987167" lon="-2.75715167">
        <ele>624.0</ele>
        <time>2021-10-22T09:02:50.000Z</time>
      </trkpt>
      <trkpt lat="42.64987333" lon="-2.757135">
        <ele>624.0</ele>
        <time>2021-10-22T09:02:51.000Z</time>
      </trkpt>
      <trkpt lat="42.64988" lon="-2.75711833">
        <ele>624.0</ele>
        <time>2021-10-22T09:02:52.000Z</time>
      </trkpt>
      <trkpt lat="42.64988667" lon="-2.75710333">
        <ele>624.0</ele>
        <time>2021-10-22T09:02:53.000Z</time>
      </trkpt>
      <trkpt lat="42.64989" lon="-2.757095">
        <ele>624.0</ele>
        <time>2021-10-22T09:02:54.000Z</time>
      </trkpt>
      <trkpt lat="42.64989167" lon="-2.75709167">
        <ele>625.0</ele>
        <time>2021-10-22T09:02:55.000Z</time>
      </trkpt>
      <trkpt lat="42.64989167" lon="-2.75709167">
        <ele>625.0</ele>
        <time>2021-10-22T09:02:56.000Z</time>
      </trkpt>
      <trkpt lat="42.64989333" lon="-2.75709">
        <ele>625.0</ele>
        <time>2021-10-22T09:02:57.000Z</time>
      </trkpt>
      <trkpt lat="42.649895" lon="-2.75709">
        <ele>625.0</ele>
        <time>2021-10-22T09:02:58.000Z</time>
      </trkpt>
      <trkpt lat="42.649895" lon="-2.75709">
        <ele>625.0</ele>
        <time>2021-10-22T09:02:59.000Z</time>
      </trkpt>
      <trkpt lat="42.64989333" lon="-2.757085">
        <ele>625.0</ele>
        <time>2021-10-22T09:03:00.000Z</time>
      </trkpt>
      <trkpt lat="42.64988833" lon="-2.75707833">
        <ele>626.0</ele>
        <time>2021-10-22T09:03:01.000Z</time>
      </trkpt>
      <trkpt lat="42.64988333" lon="-2.75707">
        <ele>626.0</ele>
        <time>2021-10-22T09:03:02.000Z</time>
      </trkpt>
      <trkpt lat="42.64987833" lon="-2.75706">
        <ele>626.0</ele>
        <time>2021-10-22T09:03:03.000Z</time>
      </trkpt>
      <trkpt lat="42.64987167" lon="-2.75705">
        <ele>626.0</ele>
        <time>2021-10-22T09:03:04.000Z</time>
      </trkpt>
      <trkpt lat="42.649865" lon="-2.75703833">
        <ele>626.0</ele>
        <time>2021-10-22T09:03:05.000Z</time>
      </trkpt>
      <trkpt lat="42.64985667" lon="-2.75702667">
        <ele>626.0</ele>
        <time>2021-10-22T09:03:06.000Z</time>
      </trkpt>
      <trkpt lat="42.64984667" lon="-2.75701333">
        <ele>626.0</ele>
        <time>2021-10-22T09:03:07.000Z</time>
      </trkpt>
      <trkpt lat="42.64983667" lon="-2.75700333">
        <ele>626.0</ele>
        <time>2021-10-22T09:03:08.000Z</time>
      </trkpt>
      <trkpt lat="42.649825" lon="-2.75699167">
        <ele>626.0</ele>
        <time>2021-10-22T09:03:09.000Z</time>
      </trkpt>
      <trkpt lat="42.64981667" lon="-2.75697667">
        <ele>627.0</ele>
        <time>2021-10-22T09:03:10.000Z</time>
      </trkpt>
      <trkpt lat="42.64980833" lon="-2.75696167">
        <ele>627.0</ele>
        <time>2021-10-22T09:03:11.000Z</time>
      </trkpt>
      <trkpt lat="42.649805" lon="-2.756945">
        <ele>627.0</ele>
        <time>2021-10-22T09:03:12.000Z</time>
      </trkpt>
      <trkpt lat="42.64980167" lon="-2.75692833">
        <ele>627.0</ele>
        <time>2021-10-22T09:03:13.000Z</time>
      </trkpt>
      <trkpt lat="42.64979833" lon="-2.75691167">
        <ele>627.0</ele>
        <time>2021-10-22T09:03:14.000Z</time>
      </trkpt>
      <trkpt lat="42.64979833" lon="-2.75689667">
        <ele>627.0</ele>
        <time>2021-10-22T09:03:15.000Z</time>
      </trkpt>
      <trkpt lat="42.64979667" lon="-2.75688167">
        <ele>627.0</ele>
        <time>2021-10-22T09:03:16.000Z</time>
      </trkpt>
      <trkpt lat="42.64979667" lon="-2.75686333">
        <ele>627.0</ele>
        <time>2021-10-22T09:03:17.000Z</time>
      </trkpt>
      <trkpt lat="42.64979667" lon="-2.756845">
        <ele>627.0</ele>
        <time>2021-10-22T09:03:18.000Z</time>
      </trkpt>
      <trkpt lat="42.649795" lon="-2.756825">
        <ele>627.0</ele>
        <time>2021-10-22T09:03:19.000Z</time>
      </trkpt>
      <trkpt lat="42.64979667" lon="-2.756805">
        <ele>627.0</ele>
        <time>2021-10-22T09:03:20.000Z</time>
      </trkpt>
      <trkpt lat="42.6498" lon="-2.75679">
        <ele>627.0</ele>
        <time>2021-10-22T09:03:21.000Z</time>
      </trkpt>
      <trkpt lat="42.64980667" lon="-2.756775">
        <ele>627.0</ele>
        <time>2021-10-22T09:03:22.000Z</time>
      </trkpt>
      <trkpt lat="42.649815" lon="-2.75676">
        <ele>627.0</ele>
        <time>2021-10-22T09:03:23.000Z</time>
      </trkpt>
      <trkpt lat="42.64982167" lon="-2.75675">
        <ele>627.0</ele>
        <time>2021-10-22T09:03:24.000Z</time>
      </trkpt>
      <trkpt lat="42.64982167" lon="-2.75674667">
        <ele>628.0</ele>
        <time>2021-10-22T09:03:25.000Z</time>
      </trkpt>
      <trkpt lat="42.64982" lon="-2.756745">
        <ele>628.0</ele>
        <time>2021-10-22T09:03:26.000Z</time>
      </trkpt>
      <trkpt lat="42.64982" lon="-2.75674167">
        <ele>628.0</ele>
        <time>2021-10-22T09:03:27.000Z</time>
      </trkpt>
      <trkpt lat="42.64981833" lon="-2.75673833">
        <ele>628.0</ele>
        <time>2021-10-22T09:03:28.000Z</time>
      </trkpt>
      <trkpt lat="42.64981667" lon="-2.75673667">
        <ele>628.0</ele>
        <time>2021-10-22T09:03:29.000Z</time>
      </trkpt>
      <trkpt lat="42.649815" lon="-2.75673167">
        <ele>629.0</ele>
        <time>2021-10-22T09:03:30.000Z</time>
      </trkpt>
      <trkpt lat="42.64981167" lon="-2.756725">
        <ele>629.0</ele>
        <time>2021-10-22T09:03:31.000Z</time>
      </trkpt>
      <trkpt lat="42.64981" lon="-2.756725">
        <ele>629.0</ele>
        <time>2021-10-22T09:03:32.000Z</time>
      </trkpt>
      <trkpt lat="42.64980667" lon="-2.75672333">
        <ele>629.0</ele>
        <time>2021-10-22T09:03:33.000Z</time>
      </trkpt>
      <trkpt lat="42.64980333" lon="-2.75672">
        <ele>630.0</ele>
        <time>2021-10-22T09:03:34.000Z</time>
      </trkpt>
      <trkpt lat="42.64980167" lon="-2.756715">
        <ele>630.0</ele>
        <time>2021-10-22T09:03:35.000Z</time>
      </trkpt>
      <trkpt lat="42.64979833" lon="-2.756705">
        <ele>630.0</ele>
        <time>2021-10-22T09:03:36.000Z</time>
      </trkpt>
      <trkpt lat="42.64979167" lon="-2.75669333">
        <ele>630.0</ele>
        <time>2021-10-22T09:03:37.000Z</time>
      </trkpt>
      <trkpt lat="42.64978667" lon="-2.75668">
        <ele>630.0</ele>
        <time>2021-10-22T09:03:38.000Z</time>
      </trkpt>
      <trkpt lat="42.64978333" lon="-2.75666333">
        <ele>630.0</ele>
        <time>2021-10-22T09:03:39.000Z</time>
      </trkpt>
      <trkpt lat="42.64977833" lon="-2.756645">
        <ele>630.0</ele>
        <time>2021-10-22T09:03:40.000Z</time>
      </trkpt>
      <trkpt lat="42.649775" lon="-2.75662333">
        <ele>630.0</ele>
        <time>2021-10-22T09:03:41.000Z</time>
      </trkpt>
      <trkpt lat="42.649775" lon="-2.75660333">
        <ele>631.0</ele>
        <time>2021-10-22T09:03:42.000Z</time>
      </trkpt>
      <trkpt lat="42.649775" lon="-2.75658667">
        <ele>631.0</ele>
        <time>2021-10-22T09:03:43.000Z</time>
      </trkpt>
      <trkpt lat="42.649775" lon="-2.75657167">
        <ele>631.0</ele>
        <time>2021-10-22T09:03:44.000Z</time>
      </trkpt>
      <trkpt lat="42.649775" lon="-2.75655833">
        <ele>631.0</ele>
        <time>2021-10-22T09:03:45.000Z</time>
      </trkpt>
      <trkpt lat="42.64977333" lon="-2.75654333">
        <ele>631.0</ele>
        <time>2021-10-22T09:03:46.000Z</time>
      </trkpt>
      <trkpt lat="42.64977" lon="-2.75652833">
        <ele>631.0</ele>
        <time>2021-10-22T09:03:47.000Z</time>
      </trkpt>
      <trkpt lat="42.64976667" lon="-2.75651">
        <ele>631.0</ele>
        <time>2021-10-22T09:03:48.000Z</time>
      </trkpt>
      <trkpt lat="42.64976667" lon="-2.75649333">
        <ele>631.0</ele>
        <time>2021-10-22T09:03:49.000Z</time>
      </trkpt>
      <trkpt lat="42.64976833" lon="-2.756475">
        <ele>631.0</ele>
        <time>2021-10-22T09:03:50.000Z</time>
      </trkpt>
      <trkpt lat="42.64977" lon="-2.75645333">
        <ele>631.0</ele>
        <time>2021-10-22T09:03:51.000Z</time>
      </trkpt>
      <trkpt lat="42.64977333" lon="-2.75643167">
        <ele>631.0</ele>
        <time>2021-10-22T09:03:52.000Z</time>
      </trkpt>
      <trkpt lat="42.64977667" lon="-2.75641167">
        <ele>631.0</ele>
        <time>2021-10-22T09:03:53.000Z</time>
      </trkpt>
      <trkpt lat="42.64978" lon="-2.75639333">
        <ele>632.0</ele>
        <time>2021-10-22T09:03:54.000Z</time>
      </trkpt>
      <trkpt lat="42.64978333" lon="-2.756375">
        <ele>632.0</ele>
        <time>2021-10-22T09:03:55.000Z</time>
      </trkpt>
      <trkpt lat="42.64978833" lon="-2.75635667">
        <ele>632.0</ele>
        <time>2021-10-22T09:03:56.000Z</time>
      </trkpt>
      <trkpt lat="42.64979167" lon="-2.75633833">
        <ele>632.0</ele>
        <time>2021-10-22T09:03:57.000Z</time>
      </trkpt>
      <trkpt lat="42.64979667" lon="-2.75632333">
        <ele>632.0</ele>
        <time>2021-10-22T09:03:58.000Z</time>
      </trkpt>
      <trkpt lat="42.64979833" lon="-2.75630833">
        <ele>632.0</ele>
        <time>2021-10-22T09:03:59.000Z</time>
      </trkpt>
      <trkpt lat="42.64980167" lon="-2.75629667">
        <ele>632.0</ele>
        <time>2021-10-22T09:04:00.000Z</time>
      </trkpt>
      <trkpt lat="42.649805" lon="-2.75628333">
        <ele>632.0</ele>
        <time>2021-10-22T09:04:01.000Z</time>
      </trkpt>
      <trkpt lat="42.64981" lon="-2.75626833">
        <ele>633.0</ele>
        <time>2021-10-22T09:04:02.000Z</time>
      </trkpt>
      <trkpt lat="42.649815" lon="-2.756255">
        <ele>633.0</ele>
        <time>2021-10-22T09:04:03.000Z</time>
      </trkpt>
      <trkpt lat="42.64981833" lon="-2.75624333">
        <ele>633.0</ele>
        <time>2021-10-22T09:04:04.000Z</time>
      </trkpt>
      <trkpt lat="42.64982167" lon="-2.75623">
        <ele>633.0</ele>
        <time>2021-10-22T09:04:05.000Z</time>
      </trkpt>
      <trkpt lat="42.64983" lon="-2.75621833">
        <ele>633.0</ele>
        <time>2021-10-22T09:04:06.000Z</time>
      </trkpt>
      <trkpt lat="42.64983833" lon="-2.756205">
        <ele>633.0</ele>
        <time>2021-10-22T09:04:07.000Z</time>
      </trkpt>
      <trkpt lat="42.64984667" lon="-2.756195">
        <ele>633.0</ele>
        <time>2021-10-22T09:04:08.000Z</time>
      </trkpt>
      <trkpt lat="42.64985667" lon="-2.75619">
        <ele>634.0</ele>
        <time>2021-10-22T09:04:09.000Z</time>
      </trkpt>
      <trkpt lat="42.649865" lon="-2.75618833">
        <ele>634.0</ele>
        <time>2021-10-22T09:04:10.000Z</time>
      </trkpt>
      <trkpt lat="42.64987333" lon="-2.75618833">
        <ele>634.0</ele>
        <time>2021-10-22T09:04:11.000Z</time>
      </trkpt>
      <trkpt lat="42.64988" lon="-2.75618667">
        <ele>634.0</ele>
        <time>2021-10-22T09:04:12.000Z</time>
      </trkpt>
      <trkpt lat="42.64988667" lon="-2.756185">
        <ele>634.0</ele>
        <time>2021-10-22T09:04:13.000Z</time>
      </trkpt>
      <trkpt lat="42.64989" lon="-2.75618333">
        <ele>634.0</ele>
        <time>2021-10-22T09:04:14.000Z</time>
      </trkpt>
      <trkpt lat="42.64989" lon="-2.75618">
        <ele>634.0</ele>
        <time>2021-10-22T09:04:15.000Z</time>
      </trkpt>
      <trkpt lat="42.64988833" lon="-2.75617833">
        <ele>634.0</ele>
        <time>2021-10-22T09:04:16.000Z</time>
      </trkpt>
      <trkpt lat="42.649885" lon="-2.75617167">
        <ele>634.0</ele>
        <time>2021-10-22T09:04:17.000Z</time>
      </trkpt>
      <trkpt lat="42.64988" lon="-2.75615833">
        <ele>634.0</ele>
        <time>2021-10-22T09:04:18.000Z</time>
      </trkpt>
      <trkpt lat="42.64987667" lon="-2.756145">
        <ele>635.0</ele>
        <time>2021-10-22T09:04:19.000Z</time>
      </trkpt>
      <trkpt lat="42.64987833" lon="-2.75613">
        <ele>635.0</ele>
        <time>2021-10-22T09:04:20.000Z</time>
      </trkpt>
      <trkpt lat="42.64987833" lon="-2.75611333">
        <ele>635.0</ele>
        <time>2021-10-22T09:04:21.000Z</time>
      </trkpt>
      <trkpt lat="42.64988167" lon="-2.75609667">
        <ele>635.0</ele>
        <time>2021-10-22T09:04:22.000Z</time>
      </trkpt>
      <trkpt lat="42.649885" lon="-2.75608">
        <ele>635.0</ele>
        <time>2021-10-22T09:04:23.000Z</time>
      </trkpt>
      <trkpt lat="42.64989167" lon="-2.75606333">
        <ele>635.0</ele>
        <time>2021-10-22T09:04:24.000Z</time>
      </trkpt>
      <trkpt lat="42.64989833" lon="-2.75604667">
        <ele>635.0</ele>
        <time>2021-10-22T09:04:25.000Z</time>
      </trkpt>
      <trkpt lat="42.649905" lon="-2.75603">
        <ele>635.0</ele>
        <time>2021-10-22T09:04:26.000Z</time>
      </trkpt>
      <trkpt lat="42.64991167" lon="-2.75601333">
        <ele>635.0</ele>
        <time>2021-10-22T09:04:27.000Z</time>
      </trkpt>
      <trkpt lat="42.64991333" lon="-2.75599667">
        <ele>635.0</ele>
        <time>2021-10-22T09:04:28.000Z</time>
      </trkpt>
      <trkpt lat="42.649915" lon="-2.75598">
        <ele>635.0</ele>
        <time>2021-10-22T09:04:29.000Z</time>
      </trkpt>
      <trkpt lat="42.64991833" lon="-2.75596333">
        <ele>635.0</ele>
        <time>2021-10-22T09:04:30.000Z</time>
      </trkpt>
      <trkpt lat="42.64992167" lon="-2.755945">
        <ele>635.0</ele>
        <time>2021-10-22T09:04:31.000Z</time>
      </trkpt>
      <trkpt lat="42.64992333" lon="-2.75593">
        <ele>635.0</ele>
        <time>2021-10-22T09:04:32.000Z</time>
      </trkpt>
      <trkpt lat="42.649925" lon="-2.755915">
        <ele>635.0</ele>
        <time>2021-10-22T09:04:33.000Z</time>
      </trkpt>
      <trkpt lat="42.64992667" lon="-2.75590333">
        <ele>635.0</ele>
        <time>2021-10-22T09:04:34.000Z</time>
      </trkpt>
      <trkpt lat="42.64993" lon="-2.75589">
        <ele>635.0</ele>
        <time>2021-10-22T09:04:35.000Z</time>
      </trkpt>
      <trkpt lat="42.64993333" lon="-2.75588">
        <ele>635.0</ele>
        <time>2021-10-22T09:04:36.000Z</time>
      </trkpt>
      <trkpt lat="42.64993667" lon="-2.75587">
        <ele>636.0</ele>
        <time>2021-10-22T09:04:37.000Z</time>
      </trkpt>
      <trkpt lat="42.64994" lon="-2.75586167">
        <ele>636.0</ele>
        <time>2021-10-22T09:04:38.000Z</time>
      </trkpt>
      <trkpt lat="42.649945" lon="-2.755855">
        <ele>636.0</ele>
        <time>2021-10-22T09:04:39.000Z</time>
      </trkpt>
      <trkpt lat="42.64995167" lon="-2.75585167">
        <ele>636.0</ele>
        <time>2021-10-22T09:04:40.000Z</time>
      </trkpt>
      <trkpt lat="42.64995833" lon="-2.75584667">
        <ele>636.0</ele>
        <time>2021-10-22T09:04:41.000Z</time>
      </trkpt>
      <trkpt lat="42.64996667" lon="-2.755845">
        <ele>636.0</ele>
        <time>2021-10-22T09:04:42.000Z</time>
      </trkpt>
      <trkpt lat="42.64997333" lon="-2.75584333">
        <ele>636.0</ele>
        <time>2021-10-22T09:04:43.000Z</time>
      </trkpt>
      <trkpt lat="42.64997667" lon="-2.75584333">
        <ele>636.0</ele>
        <time>2021-10-22T09:04:44.000Z</time>
      </trkpt>
      <trkpt lat="42.64997667" lon="-2.75584167">
        <ele>636.0</ele>
        <time>2021-10-22T09:04:45.000Z</time>
      </trkpt>
      <trkpt lat="42.64997667" lon="-2.75583833">
        <ele>636.0</ele>
        <time>2021-10-22T09:04:46.000Z</time>
      </trkpt>
      <trkpt lat="42.64997667" lon="-2.755835">
        <ele>636.0</ele>
        <time>2021-10-22T09:04:47.000Z</time>
      </trkpt>
      <trkpt lat="42.64997667" lon="-2.75583167">
        <ele>636.0</ele>
        <time>2021-10-22T09:04:48.000Z</time>
      </trkpt>
      <trkpt lat="42.64997667" lon="-2.75583">
        <ele>636.0</ele>
        <time>2021-10-22T09:04:49.000Z</time>
      </trkpt>
      <trkpt lat="42.64997667" lon="-2.75582833">
        <ele>636.0</ele>
        <time>2021-10-22T09:04:50.000Z</time>
      </trkpt>
      <trkpt lat="42.64997667" lon="-2.75582833">
        <ele>636.0</ele>
        <time>2021-10-22T09:04:51.000Z</time>
      </trkpt>
      <trkpt lat="42.64997667" lon="-2.75582667">
        <ele>636.0</ele>
        <time>2021-10-22T09:04:52.000Z</time>
      </trkpt>
      <trkpt lat="42.64997667" lon="-2.755825">
        <ele>636.0</ele>
        <time>2021-10-22T09:04:53.000Z</time>
      </trkpt>
      <trkpt lat="42.64997667" lon="-2.75582333">
        <ele>636.0</ele>
        <time>2021-10-22T09:04:54.000Z</time>
      </trkpt>
      <trkpt lat="42.64997667" lon="-2.75582333">
        <ele>636.0</ele>
        <time>2021-10-22T09:04:55.000Z</time>
      </trkpt>
      <trkpt lat="42.64997667" lon="-2.75582167">
        <ele>636.0</ele>
        <time>2021-10-22T09:04:56.000Z</time>
      </trkpt>
      <trkpt lat="42.64998" lon="-2.75582">
        <ele>636.0</ele>
        <time>2021-10-22T09:04:57.000Z</time>
      </trkpt>
      <trkpt lat="42.64998167" lon="-2.75581833">
        <ele>636.0</ele>
        <time>2021-10-22T09:04:58.000Z</time>
      </trkpt>
      <trkpt lat="42.649985" lon="-2.75581667">
        <ele>636.0</ele>
        <time>2021-10-22T09:04:59.000Z</time>
      </trkpt>
      <trkpt lat="42.64998833" lon="-2.75581333">
        <ele>636.0</ele>
        <time>2021-10-22T09:05:00.000Z</time>
      </trkpt>
      <trkpt lat="42.64999" lon="-2.75581333">
        <ele>636.0</ele>
        <time>2021-10-22T09:05:01.000Z</time>
      </trkpt>
      <trkpt lat="42.64999333" lon="-2.75581167">
        <ele>637.0</ele>
        <time>2021-10-22T09:05:02.000Z</time>
      </trkpt>
      <trkpt lat="42.64999667" lon="-2.75581">
        <ele>637.0</ele>
        <time>2021-10-22T09:05:03.000Z</time>
      </trkpt>
      <trkpt lat="42.64999667" lon="-2.75581">
        <ele>637.0</ele>
        <time>2021-10-22T09:05:04.000Z</time>
      </trkpt>
      <trkpt lat="42.64999667" lon="-2.75580833">
        <ele>637.0</ele>
        <time>2021-10-22T09:05:05.000Z</time>
      </trkpt>
      <trkpt lat="42.649995" lon="-2.75581">
        <ele>637.0</ele>
        <time>2021-10-22T09:05:06.000Z</time>
      </trkpt>
      <trkpt lat="42.64999667" lon="-2.75581167">
        <ele>637.0</ele>
        <time>2021-10-22T09:05:07.000Z</time>
      </trkpt>
      <trkpt lat="42.64999667" lon="-2.75581">
        <ele>637.0</ele>
        <time>2021-10-22T09:05:08.000Z</time>
      </trkpt>
      <trkpt lat="42.64999667" lon="-2.75580833">
        <ele>637.0</ele>
        <time>2021-10-22T09:05:09.000Z</time>
      </trkpt>
      <trkpt lat="42.64999667" lon="-2.75580833">
        <ele>637.0</ele>
        <time>2021-10-22T09:05:10.000Z</time>
      </trkpt>
      <trkpt lat="42.649995" lon="-2.75580833">
        <ele>637.0</ele>
        <time>2021-10-22T09:05:11.000Z</time>
      </trkpt>
      <trkpt lat="42.64999333" lon="-2.75580667">
        <ele>637.0</ele>
        <time>2021-10-22T09:05:12.000Z</time>
      </trkpt>
      <trkpt lat="42.64999333" lon="-2.755805">
        <ele>637.0</ele>
        <time>2021-10-22T09:05:13.000Z</time>
      </trkpt>
      <trkpt lat="42.64999333" lon="-2.75580333">
        <ele>637.0</ele>
        <time>2021-10-22T09:05:14.000Z</time>
      </trkpt>
      <trkpt lat="42.64999167" lon="-2.75580333">
        <ele>637.0</ele>
        <time>2021-10-22T09:05:15.000Z</time>
      </trkpt>
      <trkpt lat="42.64999167" lon="-2.75580333">
        <ele>637.0</ele>
        <time>2021-10-22T09:05:16.000Z</time>
      </trkpt>
      <trkpt lat="42.64999167" lon="-2.75580333">
        <ele>637.0</ele>
        <time>2021-10-22T09:05:17.000Z</time>
      </trkpt>
      <trkpt lat="42.64999167" lon="-2.75580167">
        <ele>637.0</ele>
        <time>2021-10-22T09:05:18.000Z</time>
      </trkpt>
      <trkpt lat="42.64999167" lon="-2.7558">
        <ele>637.0</ele>
        <time>2021-10-22T09:05:19.000Z</time>
      </trkpt>
      <trkpt lat="42.64999167" lon="-2.75579833">
        <ele>637.0</ele>
        <time>2021-10-22T09:05:20.000Z</time>
      </trkpt>
      <trkpt lat="42.64999333" lon="-2.75579667">
        <ele>637.0</ele>
        <time>2021-10-22T09:05:21.000Z</time>
      </trkpt>
      <trkpt lat="42.64999333" lon="-2.755795">
        <ele>637.0</ele>
        <time>2021-10-22T09:05:22.000Z</time>
      </trkpt>
      <trkpt lat="42.64999667" lon="-2.75579333">
        <ele>637.0</ele>
        <time>2021-10-22T09:05:23.000Z</time>
      </trkpt>
      <trkpt lat="42.64999667" lon="-2.75579">
        <ele>637.0</ele>
        <time>2021-10-22T09:05:24.000Z</time>
      </trkpt>
      <trkpt lat="42.64999833" lon="-2.75578333">
        <ele>637.0</ele>
        <time>2021-10-22T09:05:25.000Z</time>
      </trkpt>
      <trkpt lat="42.65000167" lon="-2.755775">
        <ele>636.0</ele>
        <time>2021-10-22T09:05:26.000Z</time>
      </trkpt>
      <trkpt lat="42.65000333" lon="-2.75577167">
        <ele>636.0</ele>
        <time>2021-10-22T09:05:27.000Z</time>
      </trkpt>
      <trkpt lat="42.65000833" lon="-2.75577167">
        <ele>636.0</ele>
        <time>2021-10-22T09:05:28.000Z</time>
      </trkpt>
      <trkpt lat="42.65001167" lon="-2.75577167">
        <ele>636.0</ele>
        <time>2021-10-22T09:05:29.000Z</time>
      </trkpt>
      <trkpt lat="42.650015" lon="-2.75577333">
        <ele>636.0</ele>
        <time>2021-10-22T09:05:30.000Z</time>
      </trkpt>
      <trkpt lat="42.65001667" lon="-2.75578">
        <ele>636.0</ele>
        <time>2021-10-22T09:05:31.000Z</time>
      </trkpt>
      <trkpt lat="42.65001833" lon="-2.75578167">
        <ele>636.0</ele>
        <time>2021-10-22T09:05:32.000Z</time>
      </trkpt>
      <trkpt lat="42.65002333" lon="-2.75578">
        <ele>636.0</ele>
        <time>2021-10-22T09:05:33.000Z</time>
      </trkpt>
      <trkpt lat="42.65002833" lon="-2.75578">
        <ele>636.0</ele>
        <time>2021-10-22T09:05:34.000Z</time>
      </trkpt>
      <trkpt lat="42.65003167" lon="-2.755785">
        <ele>636.0</ele>
        <time>2021-10-22T09:05:35.000Z</time>
      </trkpt>
      <trkpt lat="42.650035" lon="-2.75579">
        <ele>635.0</ele>
        <time>2021-10-22T09:05:36.000Z</time>
      </trkpt>
      <trkpt lat="42.65003833" lon="-2.75579833">
        <ele>635.0</ele>
        <time>2021-10-22T09:05:37.000Z</time>
      </trkpt>
      <trkpt lat="42.65003667" lon="-2.75581167">
        <ele>635.0</ele>
        <time>2021-10-22T09:05:38.000Z</time>
      </trkpt>
      <trkpt lat="42.65003667" lon="-2.75582667">
        <ele>635.0</ele>
        <time>2021-10-22T09:05:39.000Z</time>
      </trkpt>
      <trkpt lat="42.65003667" lon="-2.75584">
        <ele>635.0</ele>
        <time>2021-10-22T09:05:40.000Z</time>
      </trkpt>
      <trkpt lat="42.650035" lon="-2.75585333">
        <ele>635.0</ele>
        <time>2021-10-22T09:05:41.000Z</time>
      </trkpt>
      <trkpt lat="42.65003333" lon="-2.755865">
        <ele>635.0</ele>
        <time>2021-10-22T09:05:42.000Z</time>
      </trkpt>
      <trkpt lat="42.65003167" lon="-2.75587667">
        <ele>635.0</ele>
        <time>2021-10-22T09:05:43.000Z</time>
      </trkpt>
      <trkpt lat="42.65003167" lon="-2.75588833">
        <ele>635.0</ele>
        <time>2021-10-22T09:05:44.000Z</time>
      </trkpt>
      <trkpt lat="42.65003333" lon="-2.75589667">
        <ele>635.0</ele>
        <time>2021-10-22T09:05:45.000Z</time>
      </trkpt>
      <trkpt lat="42.65003667" lon="-2.75590333">
        <ele>635.0</ele>
        <time>2021-10-22T09:05:46.000Z</time>
      </trkpt>
      <trkpt lat="42.65003833" lon="-2.75590167">
        <ele>635.0</ele>
        <time>2021-10-22T09:05:47.000Z</time>
      </trkpt>
      <trkpt lat="42.65004" lon="-2.75590333">
        <ele>634.0</ele>
        <time>2021-10-22T09:05:48.000Z</time>
      </trkpt>
      <trkpt lat="42.65004" lon="-2.755905">
        <ele>634.0</ele>
        <time>2021-10-22T09:05:49.000Z</time>
      </trkpt>
      <trkpt lat="42.65004" lon="-2.75590333">
        <ele>634.0</ele>
        <time>2021-10-22T09:05:50.000Z</time>
      </trkpt>
      <trkpt lat="42.65004167" lon="-2.75590333">
        <ele>634.0</ele>
        <time>2021-10-22T09:05:51.000Z</time>
      </trkpt>
      <trkpt lat="42.650045" lon="-2.75590167">
        <ele>634.0</ele>
        <time>2021-10-22T09:05:52.000Z</time>
      </trkpt>
      <trkpt lat="42.65004667" lon="-2.75589833">
        <ele>634.0</ele>
        <time>2021-10-22T09:05:53.000Z</time>
      </trkpt>
      <trkpt lat="42.65004833" lon="-2.75589833">
        <ele>634.0</ele>
        <time>2021-10-22T09:05:54.000Z</time>
      </trkpt>
      <trkpt lat="42.65004833" lon="-2.75589833">
        <ele>634.0</ele>
        <time>2021-10-22T09:05:55.000Z</time>
      </trkpt>
      <trkpt lat="42.65005167" lon="-2.75589667">
        <ele>634.0</ele>
        <time>2021-10-22T09:05:56.000Z</time>
      </trkpt>
      <trkpt lat="42.65005333" lon="-2.75589833">
        <ele>634.0</ele>
        <time>2021-10-22T09:05:57.000Z</time>
      </trkpt>
      <trkpt lat="42.650055" lon="-2.7559">
        <ele>634.0</ele>
        <time>2021-10-22T09:05:58.000Z</time>
      </trkpt>
      <trkpt lat="42.65005833" lon="-2.7559">
        <ele>634.0</ele>
        <time>2021-10-22T09:05:59.000Z</time>
      </trkpt>
      <trkpt lat="42.65006167" lon="-2.75589833">
        <ele>634.0</ele>
        <time>2021-10-22T09:06:00.000Z</time>
      </trkpt>
      <trkpt lat="42.650065" lon="-2.75589667">
        <ele>634.0</ele>
        <time>2021-10-22T09:06:01.000Z</time>
      </trkpt>
      <trkpt lat="42.65006667" lon="-2.755895">
        <ele>634.0</ele>
        <time>2021-10-22T09:06:02.000Z</time>
      </trkpt>
      <trkpt lat="42.65006833" lon="-2.75589333">
        <ele>634.0</ele>
        <time>2021-10-22T09:06:03.000Z</time>
      </trkpt>
      <trkpt lat="42.65007" lon="-2.75589">
        <ele>634.0</ele>
        <time>2021-10-22T09:06:04.000Z</time>
      </trkpt>
      <trkpt lat="42.65007167" lon="-2.75588833">
        <ele>634.0</ele>
        <time>2021-10-22T09:06:05.000Z</time>
      </trkpt>
      <trkpt lat="42.65007333" lon="-2.75588667">
        <ele>634.0</ele>
        <time>2021-10-22T09:06:06.000Z</time>
      </trkpt>
      <trkpt lat="42.650075" lon="-2.755885">
        <ele>634.0</ele>
        <time>2021-10-22T09:06:07.000Z</time>
      </trkpt>
      <trkpt lat="42.65007667" lon="-2.75588333">
        <ele>634.0</ele>
        <time>2021-10-22T09:06:08.000Z</time>
      </trkpt>
      <trkpt lat="42.65007667" lon="-2.75588167">
        <ele>634.0</ele>
        <time>2021-10-22T09:06:09.000Z</time>
      </trkpt>
      <trkpt lat="42.65007833" lon="-2.75588167">
        <ele>634.0</ele>
        <time>2021-10-22T09:06:10.000Z</time>
      </trkpt>
      <trkpt lat="42.65008" lon="-2.75588">
        <ele>634.0</ele>
        <time>2021-10-22T09:06:11.000Z</time>
      </trkpt>
      <trkpt lat="42.65008167" lon="-2.75587833">
        <ele>634.0</ele>
        <time>2021-10-22T09:06:12.000Z</time>
      </trkpt>
      <trkpt lat="42.65008167" lon="-2.75587667">
        <ele>635.0</ele>
        <time>2021-10-22T09:06:13.000Z</time>
      </trkpt>
      <trkpt lat="42.65008167" lon="-2.755875">
        <ele>635.0</ele>
        <time>2021-10-22T09:06:14.000Z</time>
      </trkpt>
      <trkpt lat="42.65008167" lon="-2.75587333">
        <ele>635.0</ele>
        <time>2021-10-22T09:06:15.000Z</time>
      </trkpt>
      <trkpt lat="42.65008167" lon="-2.75587167">
        <ele>635.0</ele>
        <time>2021-10-22T09:06:16.000Z</time>
      </trkpt>
      <trkpt lat="42.65008333" lon="-2.75587">
        <ele>635.0</ele>
        <time>2021-10-22T09:06:17.000Z</time>
      </trkpt>
      <trkpt lat="42.65008333" lon="-2.75586833">
        <ele>635.0</ele>
        <time>2021-10-22T09:06:18.000Z</time>
      </trkpt>
      <trkpt lat="42.65008333" lon="-2.75586667">
        <ele>635.0</ele>
        <time>2021-10-22T09:06:19.000Z</time>
      </trkpt>
      <trkpt lat="42.65008333" lon="-2.75586667">
        <ele>635.0</ele>
        <time>2021-10-22T09:06:20.000Z</time>
      </trkpt>
      <trkpt lat="42.65008333" lon="-2.755865">
        <ele>635.0</ele>
        <time>2021-10-22T09:06:21.000Z</time>
      </trkpt>
      <trkpt lat="42.65008167" lon="-2.75586333">
        <ele>635.0</ele>
        <time>2021-10-22T09:06:22.000Z</time>
      </trkpt>
      <trkpt lat="42.65008167" lon="-2.755865">
        <ele>635.0</ele>
        <time>2021-10-22T09:06:23.000Z</time>
      </trkpt>
      <trkpt lat="42.65008" lon="-2.755865">
        <ele>635.0</ele>
        <time>2021-10-22T09:06:24.000Z</time>
      </trkpt>
      <trkpt lat="42.65008" lon="-2.755865">
        <ele>635.0</ele>
        <time>2021-10-22T09:06:25.000Z</time>
      </trkpt>
      <trkpt lat="42.65008167" lon="-2.755865">
        <ele>635.0</ele>
        <time>2021-10-22T09:06:26.000Z</time>
      </trkpt>
      <trkpt lat="42.65008167" lon="-2.755865">
        <ele>635.0</ele>
        <time>2021-10-22T09:06:27.000Z</time>
      </trkpt>
      <trkpt lat="42.65008167" lon="-2.755865">
        <ele>635.0</ele>
        <time>2021-10-22T09:06:28.000Z</time>
      </trkpt>
      <trkpt lat="42.65008167" lon="-2.755865">
        <ele>635.0</ele>
        <time>2021-10-22T09:06:29.000Z</time>
      </trkpt>
      <trkpt lat="42.65008167" lon="-2.75586333">
        <ele>635.0</ele>
        <time>2021-10-22T09:06:30.000Z</time>
      </trkpt>
      <trkpt lat="42.65008333" lon="-2.75586333">
        <ele>635.0</ele>
        <time>2021-10-22T09:06:31.000Z</time>
      </trkpt>
      <trkpt lat="42.65008333" lon="-2.75586333">
        <ele>635.0</ele>
        <time>2021-10-22T09:06:32.000Z</time>
      </trkpt>
      <trkpt lat="42.65008333" lon="-2.75586333">
        <ele>635.0</ele>
        <time>2021-10-22T09:06:33.000Z</time>
      </trkpt>
      <trkpt lat="42.65008333" lon="-2.75586333">
        <ele>635.0</ele>
        <time>2021-10-22T09:06:34.000Z</time>
      </trkpt>
      <trkpt lat="42.65008333" lon="-2.75586333">
        <ele>635.0</ele>
        <time>2021-10-22T09:06:35.000Z</time>
      </trkpt>
      <trkpt lat="42.65008333" lon="-2.75586167">
        <ele>635.0</ele>
        <time>2021-10-22T09:06:36.000Z</time>
      </trkpt>
      <trkpt lat="42.65008333" lon="-2.75586">
        <ele>635.0</ele>
        <time>2021-10-22T09:06:37.000Z</time>
      </trkpt>
      <trkpt lat="42.65008333" lon="-2.75586167">
        <ele>635.0</ele>
        <time>2021-10-22T09:06:38.000Z</time>
      </trkpt>
      <trkpt lat="42.65008333" lon="-2.75586167">
        <ele>635.0</ele>
        <time>2021-10-22T09:06:39.000Z</time>
      </trkpt>
      <trkpt lat="42.65008333" lon="-2.75586167">
        <ele>635.0</ele>
        <time>2021-10-22T09:06:40.000Z</time>
      </trkpt>
      <trkpt lat="42.650085" lon="-2.75586167">
        <ele>635.0</ele>
        <time>2021-10-22T09:06:41.000Z</time>
      </trkpt>
      <trkpt lat="42.65008667" lon="-2.75586167">
        <ele>635.0</ele>
        <time>2021-10-22T09:06:42.000Z</time>
      </trkpt>
      <trkpt lat="42.65008333" lon="-2.75586667">
        <ele>635.0</ele>
        <time>2021-10-22T09:06:43.000Z</time>
      </trkpt>
      <trkpt lat="42.65008167" lon="-2.75587">
        <ele>635.0</ele>
        <time>2021-10-22T09:06:44.000Z</time>
      </trkpt>
      <trkpt lat="42.65008167" lon="-2.75587">
        <ele>635.0</ele>
        <time>2021-10-22T09:06:45.000Z</time>
      </trkpt>
      <trkpt lat="42.65008167" lon="-2.75587">
        <ele>635.0</ele>
        <time>2021-10-22T09:06:46.000Z</time>
      </trkpt>
      <trkpt lat="42.65008333" lon="-2.75587">
        <ele>635.0</ele>
        <time>2021-10-22T09:06:47.000Z</time>
      </trkpt>
      <trkpt lat="42.65008333" lon="-2.75587">
        <ele>635.0</ele>
        <time>2021-10-22T09:06:48.000Z</time>
      </trkpt>
      <trkpt lat="42.650085" lon="-2.75587">
        <ele>635.0</ele>
        <time>2021-10-22T09:06:49.000Z</time>
      </trkpt>
      <trkpt lat="42.65008667" lon="-2.75586833">
        <ele>635.0</ele>
        <time>2021-10-22T09:06:50.000Z</time>
      </trkpt>
      <trkpt lat="42.65008833" lon="-2.755865">
        <ele>635.0</ele>
        <time>2021-10-22T09:06:51.000Z</time>
      </trkpt>
      <trkpt lat="42.65009" lon="-2.75586">
        <ele>635.0</ele>
        <time>2021-10-22T09:06:52.000Z</time>
      </trkpt>
      <trkpt lat="42.65009333" lon="-2.755855">
        <ele>635.0</ele>
        <time>2021-10-22T09:06:53.000Z</time>
      </trkpt>
      <trkpt lat="42.65009333" lon="-2.75585333">
        <ele>635.0</ele>
        <time>2021-10-22T09:06:54.000Z</time>
      </trkpt>
      <trkpt lat="42.650095" lon="-2.75585333">
        <ele>635.0</ele>
        <time>2021-10-22T09:06:55.000Z</time>
      </trkpt>
      <trkpt lat="42.65009667" lon="-2.75585167">
        <ele>635.0</ele>
        <time>2021-10-22T09:06:56.000Z</time>
      </trkpt>
      <trkpt lat="42.65009667" lon="-2.75584833">
        <ele>636.0</ele>
        <time>2021-10-22T09:06:57.000Z</time>
      </trkpt>
      <trkpt lat="42.65009667" lon="-2.75584167">
        <ele>636.0</ele>
        <time>2021-10-22T09:06:58.000Z</time>
      </trkpt>
      <trkpt lat="42.6501" lon="-2.75584">
        <ele>636.0</ele>
        <time>2021-10-22T09:06:59.000Z</time>
      </trkpt>
      <trkpt lat="42.65010167" lon="-2.75583833">
        <ele>636.0</ele>
        <time>2021-10-22T09:07:00.000Z</time>
      </trkpt>
      <trkpt lat="42.65010333" lon="-2.75583833">
        <ele>636.0</ele>
        <time>2021-10-22T09:07:01.000Z</time>
      </trkpt>
      <trkpt lat="42.65010333" lon="-2.75583833">
        <ele>636.0</ele>
        <time>2021-10-22T09:07:02.000Z</time>
      </trkpt>
      <trkpt lat="42.65011167" lon="-2.75580333">
        <ele>636.0</ele>
        <time>2021-10-22T09:07:03.000Z</time>
      </trkpt>
      <trkpt lat="42.65011" lon="-2.75580167">
        <ele>636.0</ele>
        <time>2021-10-22T09:07:04.000Z</time>
      </trkpt>
      <trkpt lat="42.65010833" lon="-2.75580167">
        <ele>636.0</ele>
        <time>2021-10-22T09:07:05.000Z</time>
      </trkpt>
      <trkpt lat="42.65010667" lon="-2.75580333">
        <ele>636.0</ele>
        <time>2021-10-22T09:07:06.000Z</time>
      </trkpt>
      <trkpt lat="42.650105" lon="-2.75580333">
        <ele>636.0</ele>
        <time>2021-10-22T09:07:07.000Z</time>
      </trkpt>
      <trkpt lat="42.65010333" lon="-2.755805">
        <ele>636.0</ele>
        <time>2021-10-22T09:07:08.000Z</time>
      </trkpt>
      <trkpt lat="42.65010333" lon="-2.755805">
        <ele>636.0</ele>
        <time>2021-10-22T09:07:09.000Z</time>
      </trkpt>
      <trkpt lat="42.65010333" lon="-2.75580333">
        <ele>636.0</ele>
        <time>2021-10-22T09:07:10.000Z</time>
      </trkpt>
      <trkpt lat="42.65010333" lon="-2.75580333">
        <ele>636.0</ele>
        <time>2021-10-22T09:07:11.000Z</time>
      </trkpt>
      <trkpt lat="42.65010333" lon="-2.75580333">
        <ele>636.0</ele>
        <time>2021-10-22T09:07:12.000Z</time>
      </trkpt>
      <trkpt lat="42.65010333" lon="-2.75580167">
        <ele>636.0</ele>
        <time>2021-10-22T09:07:13.000Z</time>
      </trkpt>
      <trkpt lat="42.65010167" lon="-2.75580167">
        <ele>636.0</ele>
        <time>2021-10-22T09:07:14.000Z</time>
      </trkpt>
      <trkpt lat="42.65009833" lon="-2.75580167">
        <ele>636.0</ele>
        <time>2021-10-22T09:07:15.000Z</time>
      </trkpt>
      <trkpt lat="42.65009833" lon="-2.7558">
        <ele>636.0</ele>
        <time>2021-10-22T09:07:16.000Z</time>
      </trkpt>
      <trkpt lat="42.65009833" lon="-2.75579667">
        <ele>636.0</ele>
        <time>2021-10-22T09:07:17.000Z</time>
      </trkpt>
      <trkpt lat="42.65009833" lon="-2.75579667">
        <ele>636.0</ele>
        <time>2021-10-22T09:07:18.000Z</time>
      </trkpt>
      <trkpt lat="42.65010167" lon="-2.755795">
        <ele>636.0</ele>
        <time>2021-10-22T09:07:19.000Z</time>
      </trkpt>
      <trkpt lat="42.65010333" lon="-2.75579333">
        <ele>636.0</ele>
        <time>2021-10-22T09:07:20.000Z</time>
      </trkpt>
      <trkpt lat="42.65010833" lon="-2.75579333">
        <ele>636.0</ele>
        <time>2021-10-22T09:07:21.000Z</time>
      </trkpt>
      <trkpt lat="42.65010833" lon="-2.75579333">
        <ele>636.0</ele>
        <time>2021-10-22T09:07:22.000Z</time>
      </trkpt>
      <trkpt lat="42.65011" lon="-2.75579167">
        <ele>636.0</ele>
        <time>2021-10-22T09:07:23.000Z</time>
      </trkpt>
      <trkpt lat="42.65011" lon="-2.75579167">
        <ele>636.0</ele>
        <time>2021-10-22T09:07:24.000Z</time>
      </trkpt>
      <trkpt lat="42.65011167" lon="-2.75579">
        <ele>636.0</ele>
        <time>2021-10-22T09:07:25.000Z</time>
      </trkpt>
      <trkpt lat="42.65011167" lon="-2.75578833">
        <ele>636.0</ele>
        <time>2021-10-22T09:07:26.000Z</time>
      </trkpt>
      <trkpt lat="42.65011167" lon="-2.75578833">
        <ele>636.0</ele>
        <time>2021-10-22T09:07:27.000Z</time>
      </trkpt>
      <trkpt lat="42.65011333" lon="-2.75578667">
        <ele>636.0</ele>
        <time>2021-10-22T09:07:28.000Z</time>
      </trkpt>
      <trkpt lat="42.65011333" lon="-2.75578667">
        <ele>636.0</ele>
        <time>2021-10-22T09:07:29.000Z</time>
      </trkpt>
      <trkpt lat="42.65011333" lon="-2.75578667">
        <ele>636.0</ele>
        <time>2021-10-22T09:07:30.000Z</time>
      </trkpt>
      <trkpt lat="42.65011333" lon="-2.755785">
        <ele>636.0</ele>
        <time>2021-10-22T09:07:31.000Z</time>
      </trkpt>
      <trkpt lat="42.65011333" lon="-2.755785">
        <ele>636.0</ele>
        <time>2021-10-22T09:07:32.000Z</time>
      </trkpt>
      <trkpt lat="42.650115" lon="-2.75578333">
        <ele>636.0</ele>
        <time>2021-10-22T09:07:33.000Z</time>
      </trkpt>
      <trkpt lat="42.650115" lon="-2.75578333">
        <ele>636.0</ele>
        <time>2021-10-22T09:07:34.000Z</time>
      </trkpt>
      <trkpt lat="42.650115" lon="-2.75578333">
        <ele>636.0</ele>
        <time>2021-10-22T09:07:35.000Z</time>
      </trkpt>
      <trkpt lat="42.650115" lon="-2.75578333">
        <ele>636.0</ele>
        <time>2021-10-22T09:07:36.000Z</time>
      </trkpt>
      <trkpt lat="42.650115" lon="-2.75578167">
        <ele>636.0</ele>
        <time>2021-10-22T09:07:37.000Z</time>
      </trkpt>
      <trkpt lat="42.650115" lon="-2.75578167">
        <ele>636.0</ele>
        <time>2021-10-22T09:07:38.000Z</time>
      </trkpt>
      <trkpt lat="42.650115" lon="-2.75578167">
        <ele>636.0</ele>
        <time>2021-10-22T09:07:39.000Z</time>
      </trkpt>
      <trkpt lat="42.65011667" lon="-2.75578167">
        <ele>636.0</ele>
        <time>2021-10-22T09:07:40.000Z</time>
      </trkpt>
      <trkpt lat="42.65011667" lon="-2.75578">
        <ele>636.0</ele>
        <time>2021-10-22T09:07:41.000Z</time>
      </trkpt>
      <trkpt lat="42.65011667" lon="-2.75578">
        <ele>636.0</ele>
        <time>2021-10-22T09:07:42.000Z</time>
      </trkpt>
      <trkpt lat="42.65011667" lon="-2.75578">
        <ele>636.0</ele>
        <time>2021-10-22T09:07:43.000Z</time>
      </trkpt>
      <trkpt lat="42.65011667" lon="-2.75578">
        <ele>636.0</ele>
        <time>2021-10-22T09:07:44.000Z</time>
      </trkpt>
      <trkpt lat="42.65011667" lon="-2.75578">
        <ele>636.0</ele>
        <time>2021-10-22T09:07:45.000Z</time>
      </trkpt>
      <trkpt lat="42.65011667" lon="-2.75578">
        <ele>636.0</ele>
        <time>2021-10-22T09:07:46.000Z</time>
      </trkpt>
      <trkpt lat="42.65011667" lon="-2.75578">
        <ele>636.0</ele>
        <time>2021-10-22T09:07:47.000Z</time>
      </trkpt>
      <trkpt lat="42.65011667" lon="-2.75578">
        <ele>636.0</ele>
        <time>2021-10-22T09:07:48.000Z</time>
      </trkpt>
      <trkpt lat="42.65011667" lon="-2.75577833">
        <ele>636.0</ele>
        <time>2021-10-22T09:07:49.000Z</time>
      </trkpt>
      <trkpt lat="42.65011667" lon="-2.75578">
        <ele>636.0</ele>
        <time>2021-10-22T09:07:50.000Z</time>
      </trkpt>
      <trkpt lat="42.650115" lon="-2.75578">
        <ele>636.0</ele>
        <time>2021-10-22T09:07:51.000Z</time>
      </trkpt>
      <trkpt lat="42.65011333" lon="-2.75578">
        <ele>636.0</ele>
        <time>2021-10-22T09:07:52.000Z</time>
      </trkpt>
      <trkpt lat="42.65011333" lon="-2.75577833">
        <ele>636.0</ele>
        <time>2021-10-22T09:07:53.000Z</time>
      </trkpt>
      <trkpt lat="42.650115" lon="-2.75577667">
        <ele>636.0</ele>
        <time>2021-10-22T09:07:54.000Z</time>
      </trkpt>
      <trkpt lat="42.65011667" lon="-2.75577833">
        <ele>636.0</ele>
        <time>2021-10-22T09:07:55.000Z</time>
      </trkpt>
      <trkpt lat="42.65012" lon="-2.75577833">
        <ele>636.0</ele>
        <time>2021-10-22T09:07:56.000Z</time>
      </trkpt>
      <trkpt lat="42.65012167" lon="-2.75578">
        <ele>636.0</ele>
        <time>2021-10-22T09:07:57.000Z</time>
      </trkpt>
      <trkpt lat="42.65012333" lon="-2.75578167">
        <ele>636.0</ele>
        <time>2021-10-22T09:07:58.000Z</time>
      </trkpt>
      <trkpt lat="42.650125" lon="-2.75578167">
        <ele>636.0</ele>
        <time>2021-10-22T09:07:59.000Z</time>
      </trkpt>
      <trkpt lat="42.65012667" lon="-2.75578333">
        <ele>636.0</ele>
        <time>2021-10-22T09:08:00.000Z</time>
      </trkpt>
      <trkpt lat="42.65012667" lon="-2.75578333">
        <ele>636.0</ele>
        <time>2021-10-22T09:08:01.000Z</time>
      </trkpt>
      <trkpt lat="42.65012833" lon="-2.75578667">
        <ele>636.0</ele>
        <time>2021-10-22T09:08:02.000Z</time>
      </trkpt>
      <trkpt lat="42.65013" lon="-2.75578833">
        <ele>636.0</ele>
        <time>2021-10-22T09:08:03.000Z</time>
      </trkpt>
      <trkpt lat="42.65013333" lon="-2.75578833">
        <ele>637.0</ele>
        <time>2021-10-22T09:08:04.000Z</time>
      </trkpt>
      <trkpt lat="42.65013667" lon="-2.75579">
        <ele>637.0</ele>
        <time>2021-10-22T09:08:05.000Z</time>
      </trkpt>
      <trkpt lat="42.65014" lon="-2.75579">
        <ele>637.0</ele>
        <time>2021-10-22T09:08:06.000Z</time>
      </trkpt>
      <trkpt lat="42.65014" lon="-2.75579">
        <ele>637.0</ele>
        <time>2021-10-22T09:08:07.000Z</time>
      </trkpt>
      <trkpt lat="42.65014" lon="-2.75578833">
        <ele>637.0</ele>
        <time>2021-10-22T09:08:08.000Z</time>
      </trkpt>
      <trkpt lat="42.65014" lon="-2.75578833">
        <ele>637.0</ele>
        <time>2021-10-22T09:08:09.000Z</time>
      </trkpt>
      <trkpt lat="42.65014" lon="-2.75578833">
        <ele>637.0</ele>
        <time>2021-10-22T09:08:10.000Z</time>
      </trkpt>
      <trkpt lat="42.65014167" lon="-2.75578667">
        <ele>637.0</ele>
        <time>2021-10-22T09:08:11.000Z</time>
      </trkpt>
      <trkpt lat="42.65014167" lon="-2.75578667">
        <ele>637.0</ele>
        <time>2021-10-22T09:08:12.000Z</time>
      </trkpt>
      <trkpt lat="42.65014167" lon="-2.75578667">
        <ele>637.0</ele>
        <time>2021-10-22T09:08:13.000Z</time>
      </trkpt>
      <trkpt lat="42.65014167" lon="-2.755785">
        <ele>637.0</ele>
        <time>2021-10-22T09:08:14.000Z</time>
      </trkpt>
      <trkpt lat="42.65014167" lon="-2.755785">
        <ele>638.0</ele>
        <time>2021-10-22T09:08:15.000Z</time>
      </trkpt>
      <trkpt lat="42.65014167" lon="-2.755785">
        <ele>638.0</ele>
        <time>2021-10-22T09:08:16.000Z</time>
      </trkpt>
      <trkpt lat="42.65014167" lon="-2.755785">
        <ele>638.0</ele>
        <time>2021-10-22T09:08:17.000Z</time>
      </trkpt>
      <trkpt lat="42.65014167" lon="-2.755785">
        <ele>638.0</ele>
        <time>2021-10-22T09:08:18.000Z</time>
      </trkpt>
      <trkpt lat="42.65014167" lon="-2.75578333">
        <ele>638.0</ele>
        <time>2021-10-22T09:08:19.000Z</time>
      </trkpt>
      <trkpt lat="42.65014167" lon="-2.75578333">
        <ele>638.0</ele>
        <time>2021-10-22T09:08:20.000Z</time>
      </trkpt>
      <trkpt lat="42.65014167" lon="-2.75578333">
        <ele>638.0</ele>
        <time>2021-10-22T09:08:21.000Z</time>
      </trkpt>
      <trkpt lat="42.65014167" lon="-2.75578333">
        <ele>638.0</ele>
        <time>2021-10-22T09:08:22.000Z</time>
      </trkpt>
      <trkpt lat="42.65014" lon="-2.75578333">
        <ele>638.0</ele>
        <time>2021-10-22T09:08:23.000Z</time>
      </trkpt>
      <trkpt lat="42.65014" lon="-2.75578333">
        <ele>638.0</ele>
        <time>2021-10-22T09:08:24.000Z</time>
      </trkpt>
      <trkpt lat="42.65014" lon="-2.75578333">
        <ele>638.0</ele>
        <time>2021-10-22T09:08:25.000Z</time>
      </trkpt>
      <trkpt lat="42.65014167" lon="-2.75578167">
        <ele>638.0</ele>
        <time>2021-10-22T09:08:26.000Z</time>
      </trkpt>
      <trkpt lat="42.65014167" lon="-2.75578167">
        <ele>638.0</ele>
        <time>2021-10-22T09:08:27.000Z</time>
      </trkpt>
      <trkpt lat="42.65014333" lon="-2.75578167">
        <ele>638.0</ele>
        <time>2021-10-22T09:08:28.000Z</time>
      </trkpt>
      <trkpt lat="42.65014333" lon="-2.75578167">
        <ele>638.0</ele>
        <time>2021-10-22T09:08:29.000Z</time>
      </trkpt>
      <trkpt lat="42.650145" lon="-2.75578">
        <ele>638.0</ele>
        <time>2021-10-22T09:08:30.000Z</time>
      </trkpt>
      <trkpt lat="42.65014667" lon="-2.75578">
        <ele>638.0</ele>
        <time>2021-10-22T09:08:31.000Z</time>
      </trkpt>
      <trkpt lat="42.65014833" lon="-2.75578167">
        <ele>638.0</ele>
        <time>2021-10-22T09:08:32.000Z</time>
      </trkpt>
      <trkpt lat="42.65014833" lon="-2.75578167">
        <ele>638.0</ele>
        <time>2021-10-22T09:08:33.000Z</time>
      </trkpt>
      <trkpt lat="42.65014833" lon="-2.75578167">
        <ele>638.0</ele>
        <time>2021-10-22T09:08:34.000Z</time>
      </trkpt>
      <trkpt lat="42.65014833" lon="-2.75578">
        <ele>638.0</ele>
        <time>2021-10-22T09:08:35.000Z</time>
      </trkpt>
      <trkpt lat="42.65014833" lon="-2.75578">
        <ele>638.0</ele>
        <time>2021-10-22T09:08:36.000Z</time>
      </trkpt>
      <trkpt lat="42.65014833" lon="-2.75578">
        <ele>638.0</ele>
        <time>2021-10-22T09:08:37.000Z</time>
      </trkpt>
      <trkpt lat="42.65014833" lon="-2.75577833">
        <ele>638.0</ele>
        <time>2021-10-22T09:08:38.000Z</time>
      </trkpt>
      <trkpt lat="42.65014833" lon="-2.75577833">
        <ele>638.0</ele>
        <time>2021-10-22T09:08:39.000Z</time>
      </trkpt>
      <trkpt lat="42.65014833" lon="-2.75577833">
        <ele>638.0</ele>
        <time>2021-10-22T09:08:40.000Z</time>
      </trkpt>
      <trkpt lat="42.65014833" lon="-2.75577667">
        <ele>638.0</ele>
        <time>2021-10-22T09:08:41.000Z</time>
      </trkpt>
      <trkpt lat="42.65014833" lon="-2.75577667">
        <ele>638.0</ele>
        <time>2021-10-22T09:08:42.000Z</time>
      </trkpt>
      <trkpt lat="42.65014833" lon="-2.75577667">
        <ele>638.0</ele>
        <time>2021-10-22T09:08:43.000Z</time>
      </trkpt>
      <trkpt lat="42.65014833" lon="-2.75577667">
        <ele>638.0</ele>
        <time>2021-10-22T09:08:44.000Z</time>
      </trkpt>
      <trkpt lat="42.65014833" lon="-2.755775">
        <ele>638.0</ele>
        <time>2021-10-22T09:08:45.000Z</time>
      </trkpt>
      <trkpt lat="42.65015" lon="-2.755775">
        <ele>637.0</ele>
        <time>2021-10-22T09:08:46.000Z</time>
      </trkpt>
      <trkpt lat="42.65014833" lon="-2.755775">
        <ele>637.0</ele>
        <time>2021-10-22T09:08:47.000Z</time>
      </trkpt>
      <trkpt lat="42.65014833" lon="-2.755775">
        <ele>637.0</ele>
        <time>2021-10-22T09:08:48.000Z</time>
      </trkpt>
      <trkpt lat="42.65014833" lon="-2.755775">
        <ele>637.0</ele>
        <time>2021-10-22T09:08:49.000Z</time>
      </trkpt>
      <trkpt lat="42.65014833" lon="-2.755775">
        <ele>637.0</ele>
        <time>2021-10-22T09:08:50.000Z</time>
      </trkpt>
      <trkpt lat="42.650145" lon="-2.755775">
        <ele>637.0</ele>
        <time>2021-10-22T09:08:51.000Z</time>
      </trkpt>
      <trkpt lat="42.65014167" lon="-2.755775">
        <ele>637.0</ele>
        <time>2021-10-22T09:08:52.000Z</time>
      </trkpt>
      <trkpt lat="42.65014167" lon="-2.75577333">
        <ele>637.0</ele>
        <time>2021-10-22T09:08:53.000Z</time>
      </trkpt>
      <trkpt lat="42.65014" lon="-2.75577333">
        <ele>637.0</ele>
        <time>2021-10-22T09:08:54.000Z</time>
      </trkpt>
      <trkpt lat="42.65013833" lon="-2.755775">
        <ele>637.0</ele>
        <time>2021-10-22T09:08:55.000Z</time>
      </trkpt>
      <trkpt lat="42.65013667" lon="-2.75577333">
        <ele>637.0</ele>
        <time>2021-10-22T09:08:56.000Z</time>
      </trkpt>
      <trkpt lat="42.65013667" lon="-2.755775">
        <ele>637.0</ele>
        <time>2021-10-22T09:08:57.000Z</time>
      </trkpt>
      <trkpt lat="42.650135" lon="-2.755775">
        <ele>637.0</ele>
        <time>2021-10-22T09:08:58.000Z</time>
      </trkpt>
      <trkpt lat="42.65013333" lon="-2.75577333">
        <ele>637.0</ele>
        <time>2021-10-22T09:08:59.000Z</time>
      </trkpt>
      <trkpt lat="42.65013333" lon="-2.75577167">
        <ele>636.0</ele>
        <time>2021-10-22T09:09:00.000Z</time>
      </trkpt>
      <trkpt lat="42.65013333" lon="-2.75577333">
        <ele>636.0</ele>
        <time>2021-10-22T09:09:01.000Z</time>
      </trkpt>
      <trkpt lat="42.65013167" lon="-2.75577333">
        <ele>636.0</ele>
        <time>2021-10-22T09:09:02.000Z</time>
      </trkpt>
      <trkpt lat="42.65012833" lon="-2.75577333">
        <ele>636.0</ele>
        <time>2021-10-22T09:09:03.000Z</time>
      </trkpt>
      <trkpt lat="42.65012667" lon="-2.755775">
        <ele>636.0</ele>
        <time>2021-10-22T09:09:04.000Z</time>
      </trkpt>
      <trkpt lat="42.65012333" lon="-2.75577667">
        <ele>636.0</ele>
        <time>2021-10-22T09:09:05.000Z</time>
      </trkpt>
      <trkpt lat="42.65012333" lon="-2.75577833">
        <ele>636.0</ele>
        <time>2021-10-22T09:09:06.000Z</time>
      </trkpt>
      <trkpt lat="42.65012167" lon="-2.75578">
        <ele>636.0</ele>
        <time>2021-10-22T09:09:07.000Z</time>
      </trkpt>
      <trkpt lat="42.65012" lon="-2.75577833">
        <ele>636.0</ele>
        <time>2021-10-22T09:09:08.000Z</time>
      </trkpt>
      <trkpt lat="42.65012" lon="-2.75577667">
        <ele>636.0</ele>
        <time>2021-10-22T09:09:09.000Z</time>
      </trkpt>
      <trkpt lat="42.65012" lon="-2.75577667">
        <ele>635.0</ele>
        <time>2021-10-22T09:09:10.000Z</time>
      </trkpt>
      <trkpt lat="42.65011833" lon="-2.75577667">
        <ele>635.0</ele>
        <time>2021-10-22T09:09:11.000Z</time>
      </trkpt>
      <trkpt lat="42.65011833" lon="-2.75577667">
        <ele>635.0</ele>
        <time>2021-10-22T09:09:12.000Z</time>
      </trkpt>
      <trkpt lat="42.65011833" lon="-2.75577667">
        <ele>635.0</ele>
        <time>2021-10-22T09:09:13.000Z</time>
      </trkpt>
      <trkpt lat="42.65011667" lon="-2.75577667">
        <ele>635.0</ele>
        <time>2021-10-22T09:09:14.000Z</time>
      </trkpt>
      <trkpt lat="42.65011667" lon="-2.75577667">
        <ele>635.0</ele>
        <time>2021-10-22T09:09:15.000Z</time>
      </trkpt>
      <trkpt lat="42.65011667" lon="-2.75577667">
        <ele>635.0</ele>
        <time>2021-10-22T09:09:16.000Z</time>
      </trkpt>
      <trkpt lat="42.650115" lon="-2.75577667">
        <ele>635.0</ele>
        <time>2021-10-22T09:09:17.000Z</time>
      </trkpt>
      <trkpt lat="42.650115" lon="-2.75577667">
        <ele>635.0</ele>
        <time>2021-10-22T09:09:18.000Z</time>
      </trkpt>
      <trkpt lat="42.650115" lon="-2.75577667">
        <ele>635.0</ele>
        <time>2021-10-22T09:09:19.000Z</time>
      </trkpt>
      <trkpt lat="42.650115" lon="-2.75577667">
        <ele>635.0</ele>
        <time>2021-10-22T09:09:20.000Z</time>
      </trkpt>
      <trkpt lat="42.650115" lon="-2.75577667">
        <ele>635.0</ele>
        <time>2021-10-22T09:09:21.000Z</time>
      </trkpt>
      <trkpt lat="42.65011333" lon="-2.75577667">
        <ele>635.0</ele>
        <time>2021-10-22T09:09:22.000Z</time>
      </trkpt>
      <trkpt lat="42.65011333" lon="-2.75577667">
        <ele>635.0</ele>
        <time>2021-10-22T09:09:23.000Z</time>
      </trkpt>
      <trkpt lat="42.65011333" lon="-2.75577667">
        <ele>635.0</ele>
        <time>2021-10-22T09:09:24.000Z</time>
      </trkpt>
      <trkpt lat="42.65011333" lon="-2.75577667">
        <ele>635.0</ele>
        <time>2021-10-22T09:09:25.000Z</time>
      </trkpt>
      <trkpt lat="42.65011333" lon="-2.75577667">
        <ele>635.0</ele>
        <time>2021-10-22T09:09:26.000Z</time>
      </trkpt>
      <trkpt lat="42.65011333" lon="-2.75577667">
        <ele>635.0</ele>
        <time>2021-10-22T09:09:27.000Z</time>
      </trkpt>
      <trkpt lat="42.65011333" lon="-2.75577667">
        <ele>635.0</ele>
        <time>2021-10-22T09:09:28.000Z</time>
      </trkpt>
      <trkpt lat="42.65011167" lon="-2.75577667">
        <ele>635.0</ele>
        <time>2021-10-22T09:09:29.000Z</time>
      </trkpt>
      <trkpt lat="42.65011167" lon="-2.75577667">
        <ele>635.0</ele>
        <time>2021-10-22T09:09:30.000Z</time>
      </trkpt>
      <trkpt lat="42.65011167" lon="-2.75577667">
        <ele>635.0</ele>
        <time>2021-10-22T09:09:31.000Z</time>
      </trkpt>
      <trkpt lat="42.65011167" lon="-2.75577667">
        <ele>635.0</ele>
        <time>2021-10-22T09:09:32.000Z</time>
      </trkpt>
      <trkpt lat="42.65011167" lon="-2.75577667">
        <ele>635.0</ele>
        <time>2021-10-22T09:09:33.000Z</time>
      </trkpt>
      <trkpt lat="42.65011167" lon="-2.75577667">
        <ele>635.0</ele>
        <time>2021-10-22T09:09:34.000Z</time>
      </trkpt>
      <trkpt lat="42.65011167" lon="-2.75577667">
        <ele>635.0</ele>
        <time>2021-10-22T09:09:35.000Z</time>
      </trkpt>
      <trkpt lat="42.65011167" lon="-2.75577667">
        <ele>635.0</ele>
        <time>2021-10-22T09:09:36.000Z</time>
      </trkpt>
      <trkpt lat="42.65011167" lon="-2.75577833">
        <ele>635.0</ele>
        <time>2021-10-22T09:09:37.000Z</time>
      </trkpt>
      <trkpt lat="42.65011167" lon="-2.75577833">
        <ele>635.0</ele>
        <time>2021-10-22T09:09:38.000Z</time>
      </trkpt>
      <trkpt lat="42.65011167" lon="-2.75577833">
        <ele>635.0</ele>
        <time>2021-10-22T09:09:39.000Z</time>
      </trkpt>
      <trkpt lat="42.65011167" lon="-2.75577833">
        <ele>635.0</ele>
        <time>2021-10-22T09:09:40.000Z</time>
      </trkpt>
      <trkpt lat="42.65011167" lon="-2.75577833">
        <ele>635.0</ele>
        <time>2021-10-22T09:09:41.000Z</time>
      </trkpt>
      <trkpt lat="42.65011167" lon="-2.75577833">
        <ele>635.0</ele>
        <time>2021-10-22T09:09:42.000Z</time>
      </trkpt>
      <trkpt lat="42.65011" lon="-2.75577833">
        <ele>635.0</ele>
        <time>2021-10-22T09:09:43.000Z</time>
      </trkpt>
      <trkpt lat="42.65011" lon="-2.75577833">
        <ele>635.0</ele>
        <time>2021-10-22T09:09:44.000Z</time>
      </trkpt>
      <trkpt lat="42.65011167" lon="-2.75577833">
        <ele>635.0</ele>
        <time>2021-10-22T09:09:45.000Z</time>
      </trkpt>
      <trkpt lat="42.65011167" lon="-2.75577833">
        <ele>635.0</ele>
        <time>2021-10-22T09:09:46.000Z</time>
      </trkpt>
      <trkpt lat="42.65011" lon="-2.75577833">
        <ele>635.0</ele>
        <time>2021-10-22T09:09:47.000Z</time>
      </trkpt>
      <trkpt lat="42.65011" lon="-2.75577833">
        <ele>635.0</ele>
        <time>2021-10-22T09:09:48.000Z</time>
      </trkpt>
      <trkpt lat="42.65011" lon="-2.75577833">
        <ele>635.0</ele>
        <time>2021-10-22T09:09:49.000Z</time>
      </trkpt>
      <trkpt lat="42.65011" lon="-2.75577833">
        <ele>635.0</ele>
        <time>2021-10-22T09:09:50.000Z</time>
      </trkpt>
      <trkpt lat="42.65011" lon="-2.75577833">
        <ele>635.0</ele>
        <time>2021-10-22T09:09:51.000Z</time>
      </trkpt>
      <trkpt lat="42.65011" lon="-2.75577833">
        <ele>635.0</ele>
        <time>2021-10-22T09:09:52.000Z</time>
      </trkpt>
      <trkpt lat="42.65011" lon="-2.75577667">
        <ele>635.0</ele>
        <time>2021-10-22T09:09:53.000Z</time>
      </trkpt>
      <trkpt lat="42.65011" lon="-2.75577667">
        <ele>635.0</ele>
        <time>2021-10-22T09:09:54.000Z</time>
      </trkpt>
      <trkpt lat="42.65011167" lon="-2.75577667">
        <ele>635.0</ele>
        <time>2021-10-22T09:09:55.000Z</time>
      </trkpt>
      <trkpt lat="42.65011167" lon="-2.75577667">
        <ele>635.0</ele>
        <time>2021-10-22T09:09:56.000Z</time>
      </trkpt>
      <trkpt lat="42.65011167" lon="-2.75577667">
        <ele>635.0</ele>
        <time>2021-10-22T09:09:57.000Z</time>
      </trkpt>
      <trkpt lat="42.65011167" lon="-2.75577667">
        <ele>634.0</ele>
        <time>2021-10-22T09:09:58.000Z</time>
      </trkpt>
      <trkpt lat="42.65011167" lon="-2.75577667">
        <ele>634.0</ele>
        <time>2021-10-22T09:09:59.000Z</time>
      </trkpt>
      <trkpt lat="42.65011167" lon="-2.75577667">
        <ele>634.0</ele>
        <time>2021-10-22T09:10:00.000Z</time>
      </trkpt>
      <trkpt lat="42.65011333" lon="-2.75577667">
        <ele>634.0</ele>
        <time>2021-10-22T09:10:01.000Z</time>
      </trkpt>
      <trkpt lat="42.65011333" lon="-2.75577667">
        <ele>634.0</ele>
        <time>2021-10-22T09:10:02.000Z</time>
      </trkpt>
      <trkpt lat="42.65011333" lon="-2.75577667">
        <ele>634.0</ele>
        <time>2021-10-22T09:10:03.000Z</time>
      </trkpt>
      <trkpt lat="42.65011333" lon="-2.755775">
        <ele>634.0</ele>
        <time>2021-10-22T09:10:04.000Z</time>
      </trkpt>
      <trkpt lat="42.650115" lon="-2.755775">
        <ele>634.0</ele>
        <time>2021-10-22T09:10:05.000Z</time>
      </trkpt>
      <trkpt lat="42.65011667" lon="-2.755775">
        <ele>634.0</ele>
        <time>2021-10-22T09:10:06.000Z</time>
      </trkpt>
      <trkpt lat="42.65011667" lon="-2.755775">
        <ele>634.0</ele>
        <time>2021-10-22T09:10:07.000Z</time>
      </trkpt>
      <trkpt lat="42.65011667" lon="-2.755775">
        <ele>634.0</ele>
        <time>2021-10-22T09:10:08.000Z</time>
      </trkpt>
      <trkpt lat="42.65011667" lon="-2.755775">
        <ele>634.0</ele>
        <time>2021-10-22T09:10:09.000Z</time>
      </trkpt>
      <trkpt lat="42.65011667" lon="-2.755775">
        <ele>634.0</ele>
        <time>2021-10-22T09:10:10.000Z</time>
      </trkpt>
      <trkpt lat="42.65011667" lon="-2.755775">
        <ele>634.0</ele>
        <time>2021-10-22T09:10:11.000Z</time>
      </trkpt>
      <trkpt lat="42.65011667" lon="-2.755775">
        <ele>634.0</ele>
        <time>2021-10-22T09:10:12.000Z</time>
      </trkpt>
      <trkpt lat="42.65011833" lon="-2.755775">
        <ele>634.0</ele>
        <time>2021-10-22T09:10:13.000Z</time>
      </trkpt>
      <trkpt lat="42.65011833" lon="-2.755775">
        <ele>634.0</ele>
        <time>2021-10-22T09:10:14.000Z</time>
      </trkpt>
      <trkpt lat="42.65011833" lon="-2.755775">
        <ele>634.0</ele>
        <time>2021-10-22T09:10:15.000Z</time>
      </trkpt>
      <trkpt lat="42.65011833" lon="-2.755775">
        <ele>634.0</ele>
        <time>2021-10-22T09:10:16.000Z</time>
      </trkpt>
      <trkpt lat="42.65011833" lon="-2.755775">
        <ele>634.0</ele>
        <time>2021-10-22T09:10:17.000Z</time>
      </trkpt>
      <trkpt lat="42.65011833" lon="-2.755775">
        <ele>634.0</ele>
        <time>2021-10-22T09:10:18.000Z</time>
      </trkpt>
      <trkpt lat="42.65011833" lon="-2.755775">
        <ele>634.0</ele>
        <time>2021-10-22T09:10:19.000Z</time>
      </trkpt>
      <trkpt lat="42.65011833" lon="-2.755775">
        <ele>634.0</ele>
        <time>2021-10-22T09:10:20.000Z</time>
      </trkpt>
      <trkpt lat="42.65011833" lon="-2.755775">
        <ele>634.0</ele>
        <time>2021-10-22T09:10:21.000Z</time>
      </trkpt>
      <trkpt lat="42.65011833" lon="-2.755775">
        <ele>634.0</ele>
        <time>2021-10-22T09:10:22.000Z</time>
      </trkpt>
      <trkpt lat="42.65011833" lon="-2.755775">
        <ele>634.0</ele>
        <time>2021-10-22T09:10:23.000Z</time>
      </trkpt>
      <trkpt lat="42.65011833" lon="-2.755775">
        <ele>634.0</ele>
        <time>2021-10-22T09:10:24.000Z</time>
      </trkpt>
      <trkpt lat="42.65011833" lon="-2.755775">
        <ele>634.0</ele>
        <time>2021-10-22T09:10:25.000Z</time>
      </trkpt>
      <trkpt lat="42.65011833" lon="-2.755775">
        <ele>634.0</ele>
        <time>2021-10-22T09:10:26.000Z</time>
      </trkpt>
      <trkpt lat="42.65011833" lon="-2.755775">
        <ele>634.0</ele>
        <time>2021-10-22T09:10:27.000Z</time>
      </trkpt>
      <trkpt lat="42.65011833" lon="-2.755775">
        <ele>634.0</ele>
        <time>2021-10-22T09:10:28.000Z</time>
      </trkpt>
      <trkpt lat="42.65011833" lon="-2.755775">
        <ele>634.0</ele>
        <time>2021-10-22T09:10:29.000Z</time>
      </trkpt>
      <trkpt lat="42.65011833" lon="-2.755775">
        <ele>634.0</ele>
        <time>2021-10-22T09:10:30.000Z</time>
      </trkpt>
      <trkpt lat="42.65011833" lon="-2.755775">
        <ele>634.0</ele>
        <time>2021-10-22T09:10:31.000Z</time>
      </trkpt>
      <trkpt lat="42.65011833" lon="-2.755775">
        <ele>634.0</ele>
        <time>2021-10-22T09:10:32.000Z</time>
      </trkpt>
      <trkpt lat="42.65011833" lon="-2.755775">
        <ele>634.0</ele>
        <time>2021-10-22T09:10:33.000Z</time>
      </trkpt>
      <trkpt lat="42.65011833" lon="-2.755775">
        <ele>634.0</ele>
        <time>2021-10-22T09:10:34.000Z</time>
      </trkpt>
      <trkpt lat="42.65011833" lon="-2.755775">
        <ele>634.0</ele>
        <time>2021-10-22T09:10:35.000Z</time>
      </trkpt>
      <trkpt lat="42.65011833" lon="-2.755775">
        <ele>634.0</ele>
        <time>2021-10-22T09:10:36.000Z</time>
      </trkpt>
      <trkpt lat="42.65011833" lon="-2.755775">
        <ele>634.0</ele>
        <time>2021-10-22T09:10:37.000Z</time>
      </trkpt>
      <trkpt lat="42.65011833" lon="-2.755775">
        <ele>634.0</ele>
        <time>2021-10-22T09:10:38.000Z</time>
      </trkpt>
      <trkpt lat="42.65011833" lon="-2.755775">
        <ele>634.0</ele>
        <time>2021-10-22T09:10:39.000Z</time>
      </trkpt>
      <trkpt lat="42.65011833" lon="-2.755775">
        <ele>634.0</ele>
        <time>2021-10-22T09:10:40.000Z</time>
      </trkpt>
      <trkpt lat="42.65011833" lon="-2.755775">
        <ele>634.0</ele>
        <time>2021-10-22T09:10:41.000Z</time>
      </trkpt>
      <trkpt lat="42.65011833" lon="-2.755775">
        <ele>634.0</ele>
        <time>2021-10-22T09:10:42.000Z</time>
      </trkpt>
      <trkpt lat="42.65011833" lon="-2.755775">
        <ele>634.0</ele>
        <time>2021-10-22T09:10:43.000Z</time>
      </trkpt>
      <trkpt lat="42.65011833" lon="-2.755775">
        <ele>634.0</ele>
        <time>2021-10-22T09:10:44.000Z</time>
      </trkpt>
      <trkpt lat="42.65011833" lon="-2.755775">
        <ele>634.0</ele>
        <time>2021-10-22T09:10:45.000Z</time>
      </trkpt>
      <trkpt lat="42.65011833" lon="-2.755775">
        <ele>634.0</ele>
        <time>2021-10-22T09:10:46.000Z</time>
      </trkpt>
      <trkpt lat="42.65011833" lon="-2.755775">
        <ele>634.0</ele>
        <time>2021-10-22T09:10:47.000Z</time>
      </trkpt>
      <trkpt lat="42.65011833" lon="-2.755775">
        <ele>634.0</ele>
        <time>2021-10-22T09:10:48.000Z</time>
      </trkpt>
      <trkpt lat="42.65011833" lon="-2.755775">
        <ele>634.0</ele>
        <time>2021-10-22T09:10:49.000Z</time>
      </trkpt>
      <trkpt lat="42.65011833" lon="-2.755775">
        <ele>634.0</ele>
        <time>2021-10-22T09:10:50.000Z</time>
      </trkpt>
      <trkpt lat="42.65011833" lon="-2.755775">
        <ele>634.0</ele>
        <time>2021-10-22T09:10:51.000Z</time>
      </trkpt>
      <trkpt lat="42.65011833" lon="-2.75577667">
        <ele>634.0</ele>
        <time>2021-10-22T09:10:52.000Z</time>
      </trkpt>
      <trkpt lat="42.65011667" lon="-2.75577667">
        <ele>634.0</ele>
        <time>2021-10-22T09:10:53.000Z</time>
      </trkpt>
      <trkpt lat="42.65011667" lon="-2.75577667">
        <ele>634.0</ele>
        <time>2021-10-22T09:10:54.000Z</time>
      </trkpt>
      <trkpt lat="42.65011667" lon="-2.75577833">
        <ele>634.0</ele>
        <time>2021-10-22T09:10:55.000Z</time>
      </trkpt>
      <trkpt lat="42.65011667" lon="-2.75577833">
        <ele>634.0</ele>
        <time>2021-10-22T09:10:56.000Z</time>
      </trkpt>
      <trkpt lat="42.65011667" lon="-2.75577833">
        <ele>634.0</ele>
        <time>2021-10-22T09:10:57.000Z</time>
      </trkpt>
      <trkpt lat="42.65011667" lon="-2.75577833">
        <ele>634.0</ele>
        <time>2021-10-22T09:10:58.000Z</time>
      </trkpt>
      <trkpt lat="42.65011667" lon="-2.75577833">
        <ele>634.0</ele>
        <time>2021-10-22T09:10:59.000Z</time>
      </trkpt>
      <trkpt lat="42.65011667" lon="-2.75577833">
        <ele>634.0</ele>
        <time>2021-10-22T09:11:00.000Z</time>
      </trkpt>
      <trkpt lat="42.65011667" lon="-2.75577833">
        <ele>634.0</ele>
        <time>2021-10-22T09:11:01.000Z</time>
      </trkpt>
      <trkpt lat="42.65011667" lon="-2.75577833">
        <ele>634.0</ele>
        <time>2021-10-22T09:11:02.000Z</time>
      </trkpt>
      <trkpt lat="42.65011667" lon="-2.75577833">
        <ele>634.0</ele>
        <time>2021-10-22T09:11:03.000Z</time>
      </trkpt>
      <trkpt lat="42.65011667" lon="-2.75577833">
        <ele>634.0</ele>
        <time>2021-10-22T09:11:04.000Z</time>
      </trkpt>
      <trkpt lat="42.65011667" lon="-2.75577833">
        <ele>634.0</ele>
        <time>2021-10-22T09:11:05.000Z</time>
      </trkpt>
      <trkpt lat="42.65011667" lon="-2.75577833">
        <ele>634.0</ele>
        <time>2021-10-22T09:11:06.000Z</time>
      </trkpt>
      <trkpt lat="42.65011667" lon="-2.75577833">
        <ele>634.0</ele>
        <time>2021-10-22T09:11:07.000Z</time>
      </trkpt>
      <trkpt lat="42.65011833" lon="-2.75577833">
        <ele>634.0</ele>
        <time>2021-10-22T09:11:08.000Z</time>
      </trkpt>
      <trkpt lat="42.65011833" lon="-2.75577833">
        <ele>634.0</ele>
        <time>2021-10-22T09:11:09.000Z</time>
      </trkpt>
      <trkpt lat="42.65012" lon="-2.75577833">
        <ele>634.0</ele>
        <time>2021-10-22T09:11:10.000Z</time>
      </trkpt>
      <trkpt lat="42.65012167" lon="-2.75577833">
        <ele>634.0</ele>
        <time>2021-10-22T09:11:11.000Z</time>
      </trkpt>
      <trkpt lat="42.65012167" lon="-2.75577833">
        <ele>634.0</ele>
        <time>2021-10-22T09:11:12.000Z</time>
      </trkpt>
      <trkpt lat="42.65012333" lon="-2.75578">
        <ele>634.0</ele>
        <time>2021-10-22T09:11:13.000Z</time>
      </trkpt>
      <trkpt lat="42.65012333" lon="-2.75578">
        <ele>634.0</ele>
        <time>2021-10-22T09:11:14.000Z</time>
      </trkpt>
      <trkpt lat="42.650125" lon="-2.75578">
        <ele>634.0</ele>
        <time>2021-10-22T09:11:15.000Z</time>
      </trkpt>
      <trkpt lat="42.65012667" lon="-2.75578">
        <ele>634.0</ele>
        <time>2021-10-22T09:11:16.000Z</time>
      </trkpt>
      <trkpt lat="42.65012667" lon="-2.75578">
        <ele>634.0</ele>
        <time>2021-10-22T09:11:17.000Z</time>
      </trkpt>
      <trkpt lat="42.65012833" lon="-2.75578">
        <ele>634.0</ele>
        <time>2021-10-22T09:11:18.000Z</time>
      </trkpt>
      <trkpt lat="42.65012833" lon="-2.75578">
        <ele>634.0</ele>
        <time>2021-10-22T09:11:19.000Z</time>
      </trkpt>
      <trkpt lat="42.65013" lon="-2.75578">
        <ele>634.0</ele>
        <time>2021-10-22T09:11:20.000Z</time>
      </trkpt>
      <trkpt lat="42.65013" lon="-2.75578">
        <ele>634.0</ele>
        <time>2021-10-22T09:11:21.000Z</time>
      </trkpt>
      <trkpt lat="42.65013167" lon="-2.75578167">
        <ele>634.0</ele>
        <time>2021-10-22T09:11:22.000Z</time>
      </trkpt>
      <trkpt lat="42.65013167" lon="-2.75578167">
        <ele>634.0</ele>
        <time>2021-10-22T09:11:23.000Z</time>
      </trkpt>
      <trkpt lat="42.65013167" lon="-2.75578167">
        <ele>634.0</ele>
        <time>2021-10-22T09:11:24.000Z</time>
      </trkpt>
      <trkpt lat="42.65013333" lon="-2.75578167">
        <ele>634.0</ele>
        <time>2021-10-22T09:11:25.000Z</time>
      </trkpt>
      <trkpt lat="42.65013333" lon="-2.75578167">
        <ele>634.0</ele>
        <time>2021-10-22T09:11:26.000Z</time>
      </trkpt>
      <trkpt lat="42.65013333" lon="-2.75578167">
        <ele>634.0</ele>
        <time>2021-10-22T09:11:27.000Z</time>
      </trkpt>
      <trkpt lat="42.650135" lon="-2.75578167">
        <ele>634.0</ele>
        <time>2021-10-22T09:11:28.000Z</time>
      </trkpt>
      <trkpt lat="42.650135" lon="-2.75578333">
        <ele>634.0</ele>
        <time>2021-10-22T09:11:29.000Z</time>
      </trkpt>
      <trkpt lat="42.650135" lon="-2.75578333">
        <ele>634.0</ele>
        <time>2021-10-22T09:11:30.000Z</time>
      </trkpt>
      <trkpt lat="42.650135" lon="-2.75578333">
        <ele>634.0</ele>
        <time>2021-10-22T09:11:31.000Z</time>
      </trkpt>
      <trkpt lat="42.65013667" lon="-2.75578333">
        <ele>634.0</ele>
        <time>2021-10-22T09:11:32.000Z</time>
      </trkpt>
      <trkpt lat="42.65013667" lon="-2.75578333">
        <ele>634.0</ele>
        <time>2021-10-22T09:11:33.000Z</time>
      </trkpt>
      <trkpt lat="42.65013667" lon="-2.75578333">
        <ele>634.0</ele>
        <time>2021-10-22T09:11:34.000Z</time>
      </trkpt>
      <trkpt lat="42.65013667" lon="-2.75578333">
        <ele>634.0</ele>
        <time>2021-10-22T09:11:35.000Z</time>
      </trkpt>
      <trkpt lat="42.65013667" lon="-2.75578333">
        <ele>634.0</ele>
        <time>2021-10-22T09:11:36.000Z</time>
      </trkpt>
      <trkpt lat="42.65013667" lon="-2.75578333">
        <ele>634.0</ele>
        <time>2021-10-22T09:11:37.000Z</time>
      </trkpt>
      <trkpt lat="42.65013833" lon="-2.75578333">
        <ele>634.0</ele>
        <time>2021-10-22T09:11:38.000Z</time>
      </trkpt>
      <trkpt lat="42.65013833" lon="-2.75578333">
        <ele>634.0</ele>
        <time>2021-10-22T09:11:39.000Z</time>
      </trkpt>
      <trkpt lat="42.65013833" lon="-2.755785">
        <ele>634.0</ele>
        <time>2021-10-22T09:11:40.000Z</time>
      </trkpt>
      <trkpt lat="42.65013833" lon="-2.755785">
        <ele>634.0</ele>
        <time>2021-10-22T09:11:41.000Z</time>
      </trkpt>
      <trkpt lat="42.65014" lon="-2.75578667">
        <ele>634.0</ele>
        <time>2021-10-22T09:11:42.000Z</time>
      </trkpt>
      <trkpt lat="42.65014" lon="-2.75578667">
        <ele>634.0</ele>
        <time>2021-10-22T09:11:43.000Z</time>
      </trkpt>
      <trkpt lat="42.65014" lon="-2.75578667">
        <ele>634.0</ele>
        <time>2021-10-22T09:11:44.000Z</time>
      </trkpt>
      <trkpt lat="42.65014" lon="-2.75578667">
        <ele>634.0</ele>
        <time>2021-10-22T09:11:45.000Z</time>
      </trkpt>
      <trkpt lat="42.65014" lon="-2.75578667">
        <ele>634.0</ele>
        <time>2021-10-22T09:11:46.000Z</time>
      </trkpt>
      <trkpt lat="42.65014" lon="-2.75578667">
        <ele>634.0</ele>
        <time>2021-10-22T09:11:47.000Z</time>
      </trkpt>
      <trkpt lat="42.65014" lon="-2.75578667">
        <ele>634.0</ele>
        <time>2021-10-22T09:11:48.000Z</time>
      </trkpt>
      <trkpt lat="42.65014" lon="-2.75578833">
        <ele>634.0</ele>
        <time>2021-10-22T09:11:49.000Z</time>
      </trkpt>
      <trkpt lat="42.65014" lon="-2.75578833">
        <ele>634.0</ele>
        <time>2021-10-22T09:11:50.000Z</time>
      </trkpt>
      <trkpt lat="42.65014" lon="-2.75578833">
        <ele>634.0</ele>
        <time>2021-10-22T09:11:51.000Z</time>
      </trkpt>
      <trkpt lat="42.65014" lon="-2.75578833">
        <ele>634.0</ele>
        <time>2021-10-22T09:11:52.000Z</time>
      </trkpt>
      <trkpt lat="42.65014" lon="-2.75579">
        <ele>634.0</ele>
        <time>2021-10-22T09:11:53.000Z</time>
      </trkpt>
      <trkpt lat="42.65014" lon="-2.75579">
        <ele>634.0</ele>
        <time>2021-10-22T09:11:54.000Z</time>
      </trkpt>
      <trkpt lat="42.65014" lon="-2.75579">
        <ele>634.0</ele>
        <time>2021-10-22T09:11:55.000Z</time>
      </trkpt>
      <trkpt lat="42.65014" lon="-2.75579167">
        <ele>634.0</ele>
        <time>2021-10-22T09:11:56.000Z</time>
      </trkpt>
      <trkpt lat="42.65014" lon="-2.75579167">
        <ele>634.0</ele>
        <time>2021-10-22T09:11:57.000Z</time>
      </trkpt>
      <trkpt lat="42.65014" lon="-2.75579333">
        <ele>634.0</ele>
        <time>2021-10-22T09:11:58.000Z</time>
      </trkpt>
      <trkpt lat="42.650135" lon="-2.75579167">
        <ele>634.0</ele>
        <time>2021-10-22T09:11:59.000Z</time>
      </trkpt>
      <trkpt lat="42.65013333" lon="-2.75579333">
        <ele>634.0</ele>
        <time>2021-10-22T09:12:00.000Z</time>
      </trkpt>
      <trkpt lat="42.65013167" lon="-2.75579333">
        <ele>634.0</ele>
        <time>2021-10-22T09:12:01.000Z</time>
      </trkpt>
      <trkpt lat="42.65013" lon="-2.755795">
        <ele>634.0</ele>
        <time>2021-10-22T09:12:02.000Z</time>
      </trkpt>
      <trkpt lat="42.65013" lon="-2.755795">
        <ele>634.0</ele>
        <time>2021-10-22T09:12:03.000Z</time>
      </trkpt>
      <trkpt lat="42.65013167" lon="-2.75579667">
        <ele>634.0</ele>
        <time>2021-10-22T09:12:04.000Z</time>
      </trkpt>
      <trkpt lat="42.65013333" lon="-2.75579833">
        <ele>634.0</ele>
        <time>2021-10-22T09:12:05.000Z</time>
      </trkpt>
      <trkpt lat="42.65013667" lon="-2.755805">
        <ele>634.0</ele>
        <time>2021-10-22T09:12:06.000Z</time>
      </trkpt>
      <trkpt lat="42.65013667" lon="-2.755805">
        <ele>634.0</ele>
        <time>2021-10-22T09:12:07.000Z</time>
      </trkpt>
      <trkpt lat="42.65013667" lon="-2.755805">
        <ele>634.0</ele>
        <time>2021-10-22T09:12:08.000Z</time>
      </trkpt>
      <trkpt lat="42.65013667" lon="-2.755805">
        <ele>634.0</ele>
        <time>2021-10-22T09:12:09.000Z</time>
      </trkpt>
      <trkpt lat="42.650135" lon="-2.755805">
        <ele>634.0</ele>
        <time>2021-10-22T09:12:10.000Z</time>
      </trkpt>
      <trkpt lat="42.65013333" lon="-2.75580667">
        <ele>634.0</ele>
        <time>2021-10-22T09:12:11.000Z</time>
      </trkpt>
      <trkpt lat="42.65013333" lon="-2.75580667">
        <ele>634.0</ele>
        <time>2021-10-22T09:12:12.000Z</time>
      </trkpt>
      <trkpt lat="42.65013333" lon="-2.75581">
        <ele>634.0</ele>
        <time>2021-10-22T09:12:13.000Z</time>
      </trkpt>
      <trkpt lat="42.65013167" lon="-2.75581">
        <ele>635.0</ele>
        <time>2021-10-22T09:12:14.000Z</time>
      </trkpt>
      <trkpt lat="42.65013" lon="-2.75581167">
        <ele>635.0</ele>
        <time>2021-10-22T09:12:15.000Z</time>
      </trkpt>
      <trkpt lat="42.650125" lon="-2.75581167">
        <ele>635.0</ele>
        <time>2021-10-22T09:12:16.000Z</time>
      </trkpt>
      <trkpt lat="42.650125" lon="-2.75581333">
        <ele>635.0</ele>
        <time>2021-10-22T09:12:17.000Z</time>
      </trkpt>
      <trkpt lat="42.65012333" lon="-2.75581333">
        <ele>635.0</ele>
        <time>2021-10-22T09:12:18.000Z</time>
      </trkpt>
      <trkpt lat="42.65012333" lon="-2.75581333">
        <ele>635.0</ele>
        <time>2021-10-22T09:12:19.000Z</time>
      </trkpt>
      <trkpt lat="42.65012333" lon="-2.75581333">
        <ele>635.0</ele>
        <time>2021-10-22T09:12:20.000Z</time>
      </trkpt>
      <trkpt lat="42.65012333" lon="-2.75581333">
        <ele>635.0</ele>
        <time>2021-10-22T09:12:21.000Z</time>
      </trkpt>
      <trkpt lat="42.65012333" lon="-2.755815">
        <ele>635.0</ele>
        <time>2021-10-22T09:12:22.000Z</time>
      </trkpt>
      <trkpt lat="42.65012333" lon="-2.755815">
        <ele>635.0</ele>
        <time>2021-10-22T09:12:23.000Z</time>
      </trkpt>
      <trkpt lat="42.65012333" lon="-2.755815">
        <ele>635.0</ele>
        <time>2021-10-22T09:12:24.000Z</time>
      </trkpt>
      <trkpt lat="42.65012167" lon="-2.755815">
        <ele>635.0</ele>
        <time>2021-10-22T09:12:25.000Z</time>
      </trkpt>
      <trkpt lat="42.65012167" lon="-2.755815">
        <ele>636.0</ele>
        <time>2021-10-22T09:12:26.000Z</time>
      </trkpt>
      <trkpt lat="42.65012" lon="-2.755815">
        <ele>636.0</ele>
        <time>2021-10-22T09:12:27.000Z</time>
      </trkpt>
      <trkpt lat="42.65011833" lon="-2.75581667">
        <ele>636.0</ele>
        <time>2021-10-22T09:12:28.000Z</time>
      </trkpt>
      <trkpt lat="42.65011667" lon="-2.755815">
        <ele>636.0</ele>
        <time>2021-10-22T09:12:29.000Z</time>
      </trkpt>
      <trkpt lat="42.650115" lon="-2.755815">
        <ele>636.0</ele>
        <time>2021-10-22T09:12:30.000Z</time>
      </trkpt>
      <trkpt lat="42.650115" lon="-2.755815">
        <ele>636.0</ele>
        <time>2021-10-22T09:12:31.000Z</time>
      </trkpt>
      <trkpt lat="42.65011333" lon="-2.75581667">
        <ele>636.0</ele>
        <time>2021-10-22T09:12:32.000Z</time>
      </trkpt>
      <trkpt lat="42.65011167" lon="-2.75581667">
        <ele>636.0</ele>
        <time>2021-10-22T09:12:33.000Z</time>
      </trkpt>
      <trkpt lat="42.65011167" lon="-2.75581833">
        <ele>636.0</ele>
        <time>2021-10-22T09:12:34.000Z</time>
      </trkpt>
      <trkpt lat="42.65011" lon="-2.75581833">
        <ele>636.0</ele>
        <time>2021-10-22T09:12:35.000Z</time>
      </trkpt>
      <trkpt lat="42.65010833" lon="-2.75581833">
        <ele>636.0</ele>
        <time>2021-10-22T09:12:36.000Z</time>
      </trkpt>
      <trkpt lat="42.65010833" lon="-2.75582">
        <ele>637.0</ele>
        <time>2021-10-22T09:12:37.000Z</time>
      </trkpt>
      <trkpt lat="42.65010667" lon="-2.75582333">
        <ele>637.0</ele>
        <time>2021-10-22T09:12:38.000Z</time>
      </trkpt>
      <trkpt lat="42.65010833" lon="-2.75581667">
        <ele>637.0</ele>
        <time>2021-10-22T09:12:39.000Z</time>
      </trkpt>
      <trkpt lat="42.65011" lon="-2.755815">
        <ele>637.0</ele>
        <time>2021-10-22T09:12:40.000Z</time>
      </trkpt>
      <trkpt lat="42.65010833" lon="-2.75581333">
        <ele>637.0</ele>
        <time>2021-10-22T09:12:41.000Z</time>
      </trkpt>
      <trkpt lat="42.65010833" lon="-2.75581333">
        <ele>637.0</ele>
        <time>2021-10-22T09:12:42.000Z</time>
      </trkpt>
      <trkpt lat="42.65010667" lon="-2.755815">
        <ele>637.0</ele>
        <time>2021-10-22T09:12:43.000Z</time>
      </trkpt>
      <trkpt lat="42.650105" lon="-2.755815">
        <ele>637.0</ele>
        <time>2021-10-22T09:12:44.000Z</time>
      </trkpt>
      <trkpt lat="42.65010333" lon="-2.755815">
        <ele>637.0</ele>
        <time>2021-10-22T09:12:45.000Z</time>
      </trkpt>
      <trkpt lat="42.65010333" lon="-2.75581667">
        <ele>637.0</ele>
        <time>2021-10-22T09:12:46.000Z</time>
      </trkpt>
      <trkpt lat="42.65010167" lon="-2.75581833">
        <ele>638.0</ele>
        <time>2021-10-22T09:12:47.000Z</time>
      </trkpt>
      <trkpt lat="42.65010167" lon="-2.75581833">
        <ele>638.0</ele>
        <time>2021-10-22T09:12:48.000Z</time>
      </trkpt>
      <trkpt lat="42.65010167" lon="-2.75581833">
        <ele>638.0</ele>
        <time>2021-10-22T09:12:49.000Z</time>
      </trkpt>
      <trkpt lat="42.65010167" lon="-2.75581833">
        <ele>638.0</ele>
        <time>2021-10-22T09:12:50.000Z</time>
      </trkpt>
      <trkpt lat="42.65010167" lon="-2.75582">
        <ele>638.0</ele>
        <time>2021-10-22T09:12:51.000Z</time>
      </trkpt>
      <trkpt lat="42.6501" lon="-2.75582167">
        <ele>638.0</ele>
        <time>2021-10-22T09:12:52.000Z</time>
      </trkpt>
      <trkpt lat="42.6501" lon="-2.75582167">
        <ele>638.0</ele>
        <time>2021-10-22T09:12:53.000Z</time>
      </trkpt>
      <trkpt lat="42.65009833" lon="-2.75582167">
        <ele>638.0</ele>
        <time>2021-10-22T09:12:54.000Z</time>
      </trkpt>
      <trkpt lat="42.65009833" lon="-2.75582333">
        <ele>638.0</ele>
        <time>2021-10-22T09:12:55.000Z</time>
      </trkpt>
      <trkpt lat="42.65009667" lon="-2.75582333">
        <ele>638.0</ele>
        <time>2021-10-22T09:12:56.000Z</time>
      </trkpt>
      <trkpt lat="42.65009667" lon="-2.75582333">
        <ele>638.0</ele>
        <time>2021-10-22T09:12:57.000Z</time>
      </trkpt>
      <trkpt lat="42.65009667" lon="-2.75582333">
        <ele>638.0</ele>
        <time>2021-10-22T09:12:58.000Z</time>
      </trkpt>
      <trkpt lat="42.650095" lon="-2.75582333">
        <ele>638.0</ele>
        <time>2021-10-22T09:12:59.000Z</time>
      </trkpt>
      <trkpt lat="42.650095" lon="-2.75582333">
        <ele>638.0</ele>
        <time>2021-10-22T09:13:00.000Z</time>
      </trkpt>
      <trkpt lat="42.65009333" lon="-2.75582333">
        <ele>638.0</ele>
        <time>2021-10-22T09:13:01.000Z</time>
      </trkpt>
      <trkpt lat="42.65009333" lon="-2.75582333">
        <ele>638.0</ele>
        <time>2021-10-22T09:13:02.000Z</time>
      </trkpt>
      <trkpt lat="42.65009333" lon="-2.75582333">
        <ele>638.0</ele>
        <time>2021-10-22T09:13:03.000Z</time>
      </trkpt>
      <trkpt lat="42.65009333" lon="-2.75582333">
        <ele>638.0</ele>
        <time>2021-10-22T09:13:04.000Z</time>
      </trkpt>
      <trkpt lat="42.65009333" lon="-2.75582333">
        <ele>638.0</ele>
        <time>2021-10-22T09:13:05.000Z</time>
      </trkpt>
      <trkpt lat="42.65009333" lon="-2.75582167">
        <ele>638.0</ele>
        <time>2021-10-22T09:13:06.000Z</time>
      </trkpt>
      <trkpt lat="42.65009333" lon="-2.75582167">
        <ele>638.0</ele>
        <time>2021-10-22T09:13:07.000Z</time>
      </trkpt>
      <trkpt lat="42.65009333" lon="-2.75582167">
        <ele>638.0</ele>
        <time>2021-10-22T09:13:08.000Z</time>
      </trkpt>
      <trkpt lat="42.650095" lon="-2.75582167">
        <ele>638.0</ele>
        <time>2021-10-22T09:13:09.000Z</time>
      </trkpt>
      <trkpt lat="42.650095" lon="-2.75582167">
        <ele>638.0</ele>
        <time>2021-10-22T09:13:10.000Z</time>
      </trkpt>
      <trkpt lat="42.65009667" lon="-2.75582">
        <ele>638.0</ele>
        <time>2021-10-22T09:13:11.000Z</time>
      </trkpt>
      <trkpt lat="42.65009667" lon="-2.75582">
        <ele>638.0</ele>
        <time>2021-10-22T09:13:12.000Z</time>
      </trkpt>
      <trkpt lat="42.65009833" lon="-2.75582">
        <ele>638.0</ele>
        <time>2021-10-22T09:13:13.000Z</time>
      </trkpt>
      <trkpt lat="42.65009667" lon="-2.75582167">
        <ele>638.0</ele>
        <time>2021-10-22T09:13:14.000Z</time>
      </trkpt>
      <trkpt lat="42.65009667" lon="-2.75582167">
        <ele>638.0</ele>
        <time>2021-10-22T09:13:15.000Z</time>
      </trkpt>
      <trkpt lat="42.65009833" lon="-2.75582">
        <ele>638.0</ele>
        <time>2021-10-22T09:13:16.000Z</time>
      </trkpt>
      <trkpt lat="42.65009833" lon="-2.75582">
        <ele>638.0</ele>
        <time>2021-10-22T09:13:17.000Z</time>
      </trkpt>
      <trkpt lat="42.65009833" lon="-2.75582">
        <ele>638.0</ele>
        <time>2021-10-22T09:13:18.000Z</time>
      </trkpt>
      <trkpt lat="42.65009833" lon="-2.75582">
        <ele>638.0</ele>
        <time>2021-10-22T09:13:19.000Z</time>
      </trkpt>
      <trkpt lat="42.65009833" lon="-2.75582">
        <ele>638.0</ele>
        <time>2021-10-22T09:13:20.000Z</time>
      </trkpt>
      <trkpt lat="42.65009833" lon="-2.75582167">
        <ele>638.0</ele>
        <time>2021-10-22T09:13:21.000Z</time>
      </trkpt>
      <trkpt lat="42.65009833" lon="-2.75582167">
        <ele>638.0</ele>
        <time>2021-10-22T09:13:22.000Z</time>
      </trkpt>
      <trkpt lat="42.6501" lon="-2.75582167">
        <ele>638.0</ele>
        <time>2021-10-22T09:13:23.000Z</time>
      </trkpt>
      <trkpt lat="42.6501" lon="-2.75582333">
        <ele>638.0</ele>
        <time>2021-10-22T09:13:24.000Z</time>
      </trkpt>
      <trkpt lat="42.6501" lon="-2.75582333">
        <ele>638.0</ele>
        <time>2021-10-22T09:13:25.000Z</time>
      </trkpt>
      <trkpt lat="42.6501" lon="-2.75582333">
        <ele>638.0</ele>
        <time>2021-10-22T09:13:26.000Z</time>
      </trkpt>
      <trkpt lat="42.6501" lon="-2.75582333">
        <ele>638.0</ele>
        <time>2021-10-22T09:13:27.000Z</time>
      </trkpt>
      <trkpt lat="42.6501" lon="-2.75582333">
        <ele>638.0</ele>
        <time>2021-10-22T09:13:28.000Z</time>
      </trkpt>
      <trkpt lat="42.6501" lon="-2.75582333">
        <ele>638.0</ele>
        <time>2021-10-22T09:13:29.000Z</time>
      </trkpt>
      <trkpt lat="42.6501" lon="-2.75582333">
        <ele>638.0</ele>
        <time>2021-10-22T09:13:30.000Z</time>
      </trkpt>
      <trkpt lat="42.65010167" lon="-2.75582333">
        <ele>638.0</ele>
        <time>2021-10-22T09:13:31.000Z</time>
      </trkpt>
      <trkpt lat="42.65010167" lon="-2.75582333">
        <ele>638.0</ele>
        <time>2021-10-22T09:13:32.000Z</time>
      </trkpt>
      <trkpt lat="42.65010167" lon="-2.75582333">
        <ele>638.0</ele>
        <time>2021-10-22T09:13:33.000Z</time>
      </trkpt>
      <trkpt lat="42.65010167" lon="-2.75582333">
        <ele>638.0</ele>
        <time>2021-10-22T09:13:34.000Z</time>
      </trkpt>
      <trkpt lat="42.65010167" lon="-2.75582333">
        <ele>638.0</ele>
        <time>2021-10-22T09:13:35.000Z</time>
      </trkpt>
      <trkpt lat="42.65010167" lon="-2.75582333">
        <ele>638.0</ele>
        <time>2021-10-22T09:13:36.000Z</time>
      </trkpt>
      <trkpt lat="42.65010167" lon="-2.75582333">
        <ele>638.0</ele>
        <time>2021-10-22T09:13:37.000Z</time>
      </trkpt>
      <trkpt lat="42.65010167" lon="-2.75582333">
        <ele>638.0</ele>
        <time>2021-10-22T09:13:38.000Z</time>
      </trkpt>
      <trkpt lat="42.65010167" lon="-2.755825">
        <ele>638.0</ele>
        <time>2021-10-22T09:13:39.000Z</time>
      </trkpt>
      <trkpt lat="42.65010167" lon="-2.755825">
        <ele>638.0</ele>
        <time>2021-10-22T09:13:40.000Z</time>
      </trkpt>
      <trkpt lat="42.65010167" lon="-2.755825">
        <ele>638.0</ele>
        <time>2021-10-22T09:13:41.000Z</time>
      </trkpt>
      <trkpt lat="42.650105" lon="-2.755825">
        <ele>638.0</ele>
        <time>2021-10-22T09:13:42.000Z</time>
      </trkpt>
      <trkpt lat="42.650105" lon="-2.755825">
        <ele>638.0</ele>
        <time>2021-10-22T09:13:43.000Z</time>
      </trkpt>
      <trkpt lat="42.650105" lon="-2.75582667">
        <ele>638.0</ele>
        <time>2021-10-22T09:13:44.000Z</time>
      </trkpt>
      <trkpt lat="42.650105" lon="-2.75582667">
        <ele>638.0</ele>
        <time>2021-10-22T09:13:45.000Z</time>
      </trkpt>
      <trkpt lat="42.650105" lon="-2.75582667">
        <ele>638.0</ele>
        <time>2021-10-22T09:13:46.000Z</time>
      </trkpt>
      <trkpt lat="42.65010333" lon="-2.75582667">
        <ele>638.0</ele>
        <time>2021-10-22T09:13:47.000Z</time>
      </trkpt>
      <trkpt lat="42.6501" lon="-2.75582667">
        <ele>638.0</ele>
        <time>2021-10-22T09:13:48.000Z</time>
      </trkpt>
      <trkpt lat="42.65009833" lon="-2.75582833">
        <ele>638.0</ele>
        <time>2021-10-22T09:13:49.000Z</time>
      </trkpt>
      <trkpt lat="42.65009833" lon="-2.75582833">
        <ele>638.0</ele>
        <time>2021-10-22T09:13:50.000Z</time>
      </trkpt>
      <trkpt lat="42.65009833" lon="-2.75582833">
        <ele>638.0</ele>
        <time>2021-10-22T09:13:51.000Z</time>
      </trkpt>
      <trkpt lat="42.6501" lon="-2.75583">
        <ele>638.0</ele>
        <time>2021-10-22T09:13:52.000Z</time>
      </trkpt>
      <trkpt lat="42.6501" lon="-2.75583">
        <ele>638.0</ele>
        <time>2021-10-22T09:13:53.000Z</time>
      </trkpt>
      <trkpt lat="42.6501" lon="-2.755835">
        <ele>638.0</ele>
        <time>2021-10-22T09:13:54.000Z</time>
      </trkpt>
      <trkpt lat="42.65009667" lon="-2.75583833">
        <ele>638.0</ele>
        <time>2021-10-22T09:13:55.000Z</time>
      </trkpt>
      <trkpt lat="42.650095" lon="-2.75584">
        <ele>638.0</ele>
        <time>2021-10-22T09:13:56.000Z</time>
      </trkpt>
      <trkpt lat="42.650095" lon="-2.75584">
        <ele>638.0</ele>
        <time>2021-10-22T09:13:57.000Z</time>
      </trkpt>
      <trkpt lat="42.65009333" lon="-2.75584167">
        <ele>638.0</ele>
        <time>2021-10-22T09:13:58.000Z</time>
      </trkpt>
      <trkpt lat="42.650095" lon="-2.75584167">
        <ele>638.0</ele>
        <time>2021-10-22T09:13:59.000Z</time>
      </trkpt>
      <trkpt lat="42.65009333" lon="-2.75584167">
        <ele>638.0</ele>
        <time>2021-10-22T09:14:00.000Z</time>
      </trkpt>
      <trkpt lat="42.650095" lon="-2.75584">
        <ele>638.0</ele>
        <time>2021-10-22T09:14:01.000Z</time>
      </trkpt>
      <trkpt lat="42.65009667" lon="-2.755835">
        <ele>638.0</ele>
        <time>2021-10-22T09:14:02.000Z</time>
      </trkpt>
      <trkpt lat="42.65009833" lon="-2.755835">
        <ele>638.0</ele>
        <time>2021-10-22T09:14:03.000Z</time>
      </trkpt>
      <trkpt lat="42.65009833" lon="-2.75583333">
        <ele>638.0</ele>
        <time>2021-10-22T09:14:04.000Z</time>
      </trkpt>
      <trkpt lat="42.6501" lon="-2.75583167">
        <ele>638.0</ele>
        <time>2021-10-22T09:14:05.000Z</time>
      </trkpt>
      <trkpt lat="42.65010167" lon="-2.75583167">
        <ele>638.0</ele>
        <time>2021-10-22T09:14:06.000Z</time>
      </trkpt>
      <trkpt lat="42.65010333" lon="-2.75583">
        <ele>638.0</ele>
        <time>2021-10-22T09:14:07.000Z</time>
      </trkpt>
      <trkpt lat="42.650105" lon="-2.75583">
        <ele>638.0</ele>
        <time>2021-10-22T09:14:08.000Z</time>
      </trkpt>
      <trkpt lat="42.65010667" lon="-2.75582833">
        <ele>638.0</ele>
        <time>2021-10-22T09:14:09.000Z</time>
      </trkpt>
      <trkpt lat="42.65010833" lon="-2.75582667">
        <ele>638.0</ele>
        <time>2021-10-22T09:14:10.000Z</time>
      </trkpt>
      <trkpt lat="42.65010833" lon="-2.755825">
        <ele>638.0</ele>
        <time>2021-10-22T09:14:11.000Z</time>
      </trkpt>
      <trkpt lat="42.65011" lon="-2.755825">
        <ele>638.0</ele>
        <time>2021-10-22T09:14:12.000Z</time>
      </trkpt>
      <trkpt lat="42.65011" lon="-2.75582333">
        <ele>638.0</ele>
        <time>2021-10-22T09:14:13.000Z</time>
      </trkpt>
      <trkpt lat="42.65011" lon="-2.75582167">
        <ele>638.0</ele>
        <time>2021-10-22T09:14:14.000Z</time>
      </trkpt>
      <trkpt lat="42.65011167" lon="-2.75582">
        <ele>638.0</ele>
        <time>2021-10-22T09:14:15.000Z</time>
      </trkpt>
      <trkpt lat="42.65011333" lon="-2.75581833">
        <ele>638.0</ele>
        <time>2021-10-22T09:14:16.000Z</time>
      </trkpt>
      <trkpt lat="42.650115" lon="-2.75581833">
        <ele>638.0</ele>
        <time>2021-10-22T09:14:17.000Z</time>
      </trkpt>
      <trkpt lat="42.650115" lon="-2.75581667">
        <ele>638.0</ele>
        <time>2021-10-22T09:14:18.000Z</time>
      </trkpt>
      <trkpt lat="42.650115" lon="-2.755815">
        <ele>638.0</ele>
        <time>2021-10-22T09:14:19.000Z</time>
      </trkpt>
      <trkpt lat="42.650115" lon="-2.75581333">
        <ele>638.0</ele>
        <time>2021-10-22T09:14:20.000Z</time>
      </trkpt>
      <trkpt lat="42.650115" lon="-2.75581167">
        <ele>638.0</ele>
        <time>2021-10-22T09:14:21.000Z</time>
      </trkpt>
      <trkpt lat="42.650115" lon="-2.75581">
        <ele>638.0</ele>
        <time>2021-10-22T09:14:22.000Z</time>
      </trkpt>
      <trkpt lat="42.65011833" lon="-2.75580833">
        <ele>638.0</ele>
        <time>2021-10-22T09:14:23.000Z</time>
      </trkpt>
      <trkpt lat="42.65011833" lon="-2.75580667">
        <ele>638.0</ele>
        <time>2021-10-22T09:14:24.000Z</time>
      </trkpt>
      <trkpt lat="42.65011833" lon="-2.755805">
        <ele>638.0</ele>
        <time>2021-10-22T09:14:25.000Z</time>
      </trkpt>
      <trkpt lat="42.65011833" lon="-2.75580333">
        <ele>638.0</ele>
        <time>2021-10-22T09:14:26.000Z</time>
      </trkpt>
      <trkpt lat="42.65011833" lon="-2.75580333">
        <ele>638.0</ele>
        <time>2021-10-22T09:14:27.000Z</time>
      </trkpt>
      <trkpt lat="42.65012" lon="-2.75579833">
        <ele>638.0</ele>
        <time>2021-10-22T09:14:28.000Z</time>
      </trkpt>
      <trkpt lat="42.65011833" lon="-2.755795">
        <ele>638.0</ele>
        <time>2021-10-22T09:14:29.000Z</time>
      </trkpt>
      <trkpt lat="42.65012" lon="-2.75578833">
        <ele>637.0</ele>
        <time>2021-10-22T09:14:30.000Z</time>
      </trkpt>
      <trkpt lat="42.65012" lon="-2.75578167">
        <ele>637.0</ele>
        <time>2021-10-22T09:14:31.000Z</time>
      </trkpt>
      <trkpt lat="42.65012" lon="-2.755775">
        <ele>637.0</ele>
        <time>2021-10-22T09:14:32.000Z</time>
      </trkpt>
      <trkpt lat="42.65012" lon="-2.75577">
        <ele>637.0</ele>
        <time>2021-10-22T09:14:33.000Z</time>
      </trkpt>
      <trkpt lat="42.65012167" lon="-2.75576667">
        <ele>637.0</ele>
        <time>2021-10-22T09:14:34.000Z</time>
      </trkpt>
      <trkpt lat="42.65012" lon="-2.75576167">
        <ele>637.0</ele>
        <time>2021-10-22T09:14:35.000Z</time>
      </trkpt>
      <trkpt lat="42.65012" lon="-2.75575667">
        <ele>637.0</ele>
        <time>2021-10-22T09:14:36.000Z</time>
      </trkpt>
      <trkpt lat="42.65012" lon="-2.75575">
        <ele>637.0</ele>
        <time>2021-10-22T09:14:37.000Z</time>
      </trkpt>
      <trkpt lat="42.65012" lon="-2.75574333">
        <ele>637.0</ele>
        <time>2021-10-22T09:14:38.000Z</time>
      </trkpt>
      <trkpt lat="42.65012" lon="-2.75573667">
        <ele>637.0</ele>
        <time>2021-10-22T09:14:39.000Z</time>
      </trkpt>
      <trkpt lat="42.65012167" lon="-2.75573">
        <ele>637.0</ele>
        <time>2021-10-22T09:14:40.000Z</time>
      </trkpt>
      <trkpt lat="42.65012333" lon="-2.75572833">
        <ele>637.0</ele>
        <time>2021-10-22T09:14:41.000Z</time>
      </trkpt>
      <trkpt lat="42.65012667" lon="-2.755725">
        <ele>637.0</ele>
        <time>2021-10-22T09:14:42.000Z</time>
      </trkpt>
      <trkpt lat="42.65013" lon="-2.75572167">
        <ele>637.0</ele>
        <time>2021-10-22T09:14:43.000Z</time>
      </trkpt>
      <trkpt lat="42.65013167" lon="-2.75571833">
        <ele>637.0</ele>
        <time>2021-10-22T09:14:44.000Z</time>
      </trkpt>
      <trkpt lat="42.65013167" lon="-2.75571667">
        <ele>637.0</ele>
        <time>2021-10-22T09:14:45.000Z</time>
      </trkpt>
      <trkpt lat="42.65013" lon="-2.75571333">
        <ele>637.0</ele>
        <time>2021-10-22T09:14:46.000Z</time>
      </trkpt>
      <trkpt lat="42.65013" lon="-2.75571167">
        <ele>637.0</ele>
        <time>2021-10-22T09:14:47.000Z</time>
      </trkpt>
      <trkpt lat="42.65012833" lon="-2.75571167">
        <ele>637.0</ele>
        <time>2021-10-22T09:14:48.000Z</time>
      </trkpt>
      <trkpt lat="42.65012667" lon="-2.75571333">
        <ele>637.0</ele>
        <time>2021-10-22T09:14:49.000Z</time>
      </trkpt>
      <trkpt lat="42.65012333" lon="-2.75571333">
        <ele>637.0</ele>
        <time>2021-10-22T09:14:50.000Z</time>
      </trkpt>
      <trkpt lat="42.65012167" lon="-2.75571333">
        <ele>637.0</ele>
        <time>2021-10-22T09:14:51.000Z</time>
      </trkpt>
      <trkpt lat="42.65012" lon="-2.75571167">
        <ele>637.0</ele>
        <time>2021-10-22T09:14:52.000Z</time>
      </trkpt>
      <trkpt lat="42.65011667" lon="-2.75571">
        <ele>637.0</ele>
        <time>2021-10-22T09:14:53.000Z</time>
      </trkpt>
      <trkpt lat="42.65011333" lon="-2.75570667">
        <ele>637.0</ele>
        <time>2021-10-22T09:14:54.000Z</time>
      </trkpt>
      <trkpt lat="42.65011167" lon="-2.755705">
        <ele>637.0</ele>
        <time>2021-10-22T09:14:55.000Z</time>
      </trkpt>
      <trkpt lat="42.65011" lon="-2.75570333">
        <ele>636.0</ele>
        <time>2021-10-22T09:14:56.000Z</time>
      </trkpt>
      <trkpt lat="42.65010833" lon="-2.75569833">
        <ele>636.0</ele>
        <time>2021-10-22T09:14:57.000Z</time>
      </trkpt>
      <trkpt lat="42.65010667" lon="-2.75569333">
        <ele>636.0</ele>
        <time>2021-10-22T09:14:58.000Z</time>
      </trkpt>
      <trkpt lat="42.650105" lon="-2.75569167">
        <ele>636.0</ele>
        <time>2021-10-22T09:14:59.000Z</time>
      </trkpt>
      <trkpt lat="42.65010167" lon="-2.75569333">
        <ele>636.0</ele>
        <time>2021-10-22T09:15:00.000Z</time>
      </trkpt>
      <trkpt lat="42.65009667" lon="-2.75568833">
        <ele>636.0</ele>
        <time>2021-10-22T09:15:01.000Z</time>
      </trkpt>
      <trkpt lat="42.650095" lon="-2.75568">
        <ele>636.0</ele>
        <time>2021-10-22T09:15:02.000Z</time>
      </trkpt>
      <trkpt lat="42.65009667" lon="-2.75567333">
        <ele>636.0</ele>
        <time>2021-10-22T09:15:03.000Z</time>
      </trkpt>
      <trkpt lat="42.65009833" lon="-2.75566833">
        <ele>636.0</ele>
        <time>2021-10-22T09:15:04.000Z</time>
      </trkpt>
      <trkpt lat="42.65010167" lon="-2.75566">
        <ele>636.0</ele>
        <time>2021-10-22T09:15:05.000Z</time>
      </trkpt>
      <trkpt lat="42.65011" lon="-2.75565">
        <ele>636.0</ele>
        <time>2021-10-22T09:15:06.000Z</time>
      </trkpt>
      <trkpt lat="42.650115" lon="-2.75564167">
        <ele>636.0</ele>
        <time>2021-10-22T09:15:07.000Z</time>
      </trkpt>
      <trkpt lat="42.65011667" lon="-2.75563833">
        <ele>636.0</ele>
        <time>2021-10-22T09:15:08.000Z</time>
      </trkpt>
      <trkpt lat="42.65011667" lon="-2.75564">
        <ele>635.0</ele>
        <time>2021-10-22T09:15:09.000Z</time>
      </trkpt>
      <trkpt lat="42.65011667" lon="-2.75564333">
        <ele>635.0</ele>
        <time>2021-10-22T09:15:10.000Z</time>
      </trkpt>
      <trkpt lat="42.650115" lon="-2.75565">
        <ele>635.0</ele>
        <time>2021-10-22T09:15:11.000Z</time>
      </trkpt>
      <trkpt lat="42.650115" lon="-2.75565833">
        <ele>635.0</ele>
        <time>2021-10-22T09:15:12.000Z</time>
      </trkpt>
      <trkpt lat="42.65011667" lon="-2.75566333">
        <ele>635.0</ele>
        <time>2021-10-22T09:15:13.000Z</time>
      </trkpt>
      <trkpt lat="42.65011667" lon="-2.75566333">
        <ele>635.0</ele>
        <time>2021-10-22T09:15:14.000Z</time>
      </trkpt>
      <trkpt lat="42.650115" lon="-2.75566167">
        <ele>635.0</ele>
        <time>2021-10-22T09:15:15.000Z</time>
      </trkpt>
      <trkpt lat="42.65011333" lon="-2.75565833">
        <ele>635.0</ele>
        <time>2021-10-22T09:15:16.000Z</time>
      </trkpt>
      <trkpt lat="42.650115" lon="-2.75565167">
        <ele>634.0</ele>
        <time>2021-10-22T09:15:17.000Z</time>
      </trkpt>
      <trkpt lat="42.650115" lon="-2.755645">
        <ele>634.0</ele>
        <time>2021-10-22T09:15:18.000Z</time>
      </trkpt>
      <trkpt lat="42.650115" lon="-2.75564333">
        <ele>634.0</ele>
        <time>2021-10-22T09:15:19.000Z</time>
      </trkpt>
      <trkpt lat="42.650115" lon="-2.75564167">
        <ele>634.0</ele>
        <time>2021-10-22T09:15:20.000Z</time>
      </trkpt>
      <trkpt lat="42.650115" lon="-2.75564167">
        <ele>634.0</ele>
        <time>2021-10-22T09:15:21.000Z</time>
      </trkpt>
      <trkpt lat="42.65011333" lon="-2.75564">
        <ele>634.0</ele>
        <time>2021-10-22T09:15:22.000Z</time>
      </trkpt>
      <trkpt lat="42.650115" lon="-2.75564">
        <ele>634.0</ele>
        <time>2021-10-22T09:15:23.000Z</time>
      </trkpt>
      <trkpt lat="42.65011667" lon="-2.75564167">
        <ele>634.0</ele>
        <time>2021-10-22T09:15:24.000Z</time>
      </trkpt>
      <trkpt lat="42.65011667" lon="-2.755645">
        <ele>634.0</ele>
        <time>2021-10-22T09:15:25.000Z</time>
      </trkpt>
      <trkpt lat="42.65011667" lon="-2.755645">
        <ele>634.0</ele>
        <time>2021-10-22T09:15:26.000Z</time>
      </trkpt>
      <trkpt lat="42.650115" lon="-2.755645">
        <ele>634.0</ele>
        <time>2021-10-22T09:15:27.000Z</time>
      </trkpt>
      <trkpt lat="42.650115" lon="-2.75564333">
        <ele>633.0</ele>
        <time>2021-10-22T09:15:28.000Z</time>
      </trkpt>
      <trkpt lat="42.650115" lon="-2.75564167">
        <ele>633.0</ele>
        <time>2021-10-22T09:15:29.000Z</time>
      </trkpt>
      <trkpt lat="42.650115" lon="-2.75563667">
        <ele>633.0</ele>
        <time>2021-10-22T09:15:30.000Z</time>
      </trkpt>
      <trkpt lat="42.65011333" lon="-2.75563167">
        <ele>633.0</ele>
        <time>2021-10-22T09:15:31.000Z</time>
      </trkpt>
      <trkpt lat="42.65011333" lon="-2.755625">
        <ele>633.0</ele>
        <time>2021-10-22T09:15:32.000Z</time>
      </trkpt>
      <trkpt lat="42.65011333" lon="-2.75561833">
        <ele>633.0</ele>
        <time>2021-10-22T09:15:33.000Z</time>
      </trkpt>
      <trkpt lat="42.65011333" lon="-2.75561167">
        <ele>633.0</ele>
        <time>2021-10-22T09:15:34.000Z</time>
      </trkpt>
      <trkpt lat="42.65011667" lon="-2.75560333">
        <ele>633.0</ele>
        <time>2021-10-22T09:15:35.000Z</time>
      </trkpt>
      <trkpt lat="42.65012167" lon="-2.75559833">
        <ele>633.0</ele>
        <time>2021-10-22T09:15:36.000Z</time>
      </trkpt>
      <trkpt lat="42.650125" lon="-2.755595">
        <ele>633.0</ele>
        <time>2021-10-22T09:15:37.000Z</time>
      </trkpt>
      <trkpt lat="42.65012833" lon="-2.75558833">
        <ele>633.0</ele>
        <time>2021-10-22T09:15:38.000Z</time>
      </trkpt>
      <trkpt lat="42.65013167" lon="-2.75558167">
        <ele>634.0</ele>
        <time>2021-10-22T09:15:39.000Z</time>
      </trkpt>
      <trkpt lat="42.650135" lon="-2.755575">
        <ele>634.0</ele>
        <time>2021-10-22T09:15:40.000Z</time>
      </trkpt>
      <trkpt lat="42.65013667" lon="-2.75557">
        <ele>634.0</ele>
        <time>2021-10-22T09:15:41.000Z</time>
      </trkpt>
      <trkpt lat="42.65013833" lon="-2.75556333">
        <ele>634.0</ele>
        <time>2021-10-22T09:15:42.000Z</time>
      </trkpt>
      <trkpt lat="42.65013833" lon="-2.75555333">
        <ele>634.0</ele>
        <time>2021-10-22T09:15:43.000Z</time>
      </trkpt>
      <trkpt lat="42.65014" lon="-2.75554833">
        <ele>634.0</ele>
        <time>2021-10-22T09:15:44.000Z</time>
      </trkpt>
      <trkpt lat="42.65014167" lon="-2.75554667">
        <ele>634.0</ele>
        <time>2021-10-22T09:15:45.000Z</time>
      </trkpt>
      <trkpt lat="42.65014333" lon="-2.75554333">
        <ele>634.0</ele>
        <time>2021-10-22T09:15:46.000Z</time>
      </trkpt>
      <trkpt lat="42.650145" lon="-2.75554167">
        <ele>634.0</ele>
        <time>2021-10-22T09:15:47.000Z</time>
      </trkpt>
      <trkpt lat="42.65014667" lon="-2.75553833">
        <ele>634.0</ele>
        <time>2021-10-22T09:15:48.000Z</time>
      </trkpt>
      <trkpt lat="42.65014833" lon="-2.75553667">
        <ele>634.0</ele>
        <time>2021-10-22T09:15:49.000Z</time>
      </trkpt>
      <trkpt lat="42.65015" lon="-2.75553333">
        <ele>634.0</ele>
        <time>2021-10-22T09:15:50.000Z</time>
      </trkpt>
      <trkpt lat="42.65015167" lon="-2.75553333">
        <ele>634.0</ele>
        <time>2021-10-22T09:15:51.000Z</time>
      </trkpt>
      <trkpt lat="42.65015333" lon="-2.75553167">
        <ele>634.0</ele>
        <time>2021-10-22T09:15:52.000Z</time>
      </trkpt>
      <trkpt lat="42.65015333" lon="-2.75553">
        <ele>634.0</ele>
        <time>2021-10-22T09:15:53.000Z</time>
      </trkpt>
      <trkpt lat="42.650155" lon="-2.75552833">
        <ele>634.0</ele>
        <time>2021-10-22T09:15:54.000Z</time>
      </trkpt>
      <trkpt lat="42.65015667" lon="-2.75552667">
        <ele>634.0</ele>
        <time>2021-10-22T09:15:55.000Z</time>
      </trkpt>
      <trkpt lat="42.65015833" lon="-2.755525">
        <ele>634.0</ele>
        <time>2021-10-22T09:15:56.000Z</time>
      </trkpt>
      <trkpt lat="42.65015833" lon="-2.75552333">
        <ele>634.0</ele>
        <time>2021-10-22T09:15:57.000Z</time>
      </trkpt>
      <trkpt lat="42.65016" lon="-2.75552333">
        <ele>634.0</ele>
        <time>2021-10-22T09:15:58.000Z</time>
      </trkpt>
      <trkpt lat="42.65016167" lon="-2.755525">
        <ele>633.0</ele>
        <time>2021-10-22T09:15:59.000Z</time>
      </trkpt>
      <trkpt lat="42.65016167" lon="-2.75552333">
        <ele>633.0</ele>
        <time>2021-10-22T09:16:00.000Z</time>
      </trkpt>
      <trkpt lat="42.65016333" lon="-2.75552167">
        <ele>633.0</ele>
        <time>2021-10-22T09:16:01.000Z</time>
      </trkpt>
      <trkpt lat="42.65016333" lon="-2.75552">
        <ele>633.0</ele>
        <time>2021-10-22T09:16:02.000Z</time>
      </trkpt>
      <trkpt lat="42.65016333" lon="-2.75551833">
        <ele>633.0</ele>
        <time>2021-10-22T09:16:03.000Z</time>
      </trkpt>
      <trkpt lat="42.65016167" lon="-2.75551667">
        <ele>633.0</ele>
        <time>2021-10-22T09:16:04.000Z</time>
      </trkpt>
      <trkpt lat="42.65016167" lon="-2.755515">
        <ele>633.0</ele>
        <time>2021-10-22T09:16:05.000Z</time>
      </trkpt>
      <trkpt lat="42.65016333" lon="-2.75551333">
        <ele>633.0</ele>
        <time>2021-10-22T09:16:06.000Z</time>
      </trkpt>
      <trkpt lat="42.65016667" lon="-2.75551">
        <ele>633.0</ele>
        <time>2021-10-22T09:16:07.000Z</time>
      </trkpt>
      <trkpt lat="42.65016667" lon="-2.75550833">
        <ele>633.0</ele>
        <time>2021-10-22T09:16:08.000Z</time>
      </trkpt>
      <trkpt lat="42.65016667" lon="-2.75550667">
        <ele>633.0</ele>
        <time>2021-10-22T09:16:09.000Z</time>
      </trkpt>
      <trkpt lat="42.65016667" lon="-2.755505">
        <ele>633.0</ele>
        <time>2021-10-22T09:16:10.000Z</time>
      </trkpt>
      <trkpt lat="42.65016667" lon="-2.75550333">
        <ele>633.0</ele>
        <time>2021-10-22T09:16:11.000Z</time>
      </trkpt>
      <trkpt lat="42.65016667" lon="-2.75550167">
        <ele>633.0</ele>
        <time>2021-10-22T09:16:12.000Z</time>
      </trkpt>
      <trkpt lat="42.65016667" lon="-2.75550167">
        <ele>633.0</ele>
        <time>2021-10-22T09:16:13.000Z</time>
      </trkpt>
      <trkpt lat="42.65016667" lon="-2.7555">
        <ele>633.0</ele>
        <time>2021-10-22T09:16:14.000Z</time>
      </trkpt>
      <trkpt lat="42.65016667" lon="-2.75549833">
        <ele>633.0</ele>
        <time>2021-10-22T09:16:15.000Z</time>
      </trkpt>
      <trkpt lat="42.65016667" lon="-2.75549833">
        <ele>633.0</ele>
        <time>2021-10-22T09:16:16.000Z</time>
      </trkpt>
      <trkpt lat="42.65016667" lon="-2.75549667">
        <ele>633.0</ele>
        <time>2021-10-22T09:16:17.000Z</time>
      </trkpt>
      <trkpt lat="42.65016333" lon="-2.75549667">
        <ele>633.0</ele>
        <time>2021-10-22T09:16:18.000Z</time>
      </trkpt>
      <trkpt lat="42.65016167" lon="-2.75549333">
        <ele>633.0</ele>
        <time>2021-10-22T09:16:19.000Z</time>
      </trkpt>
      <trkpt lat="42.65016167" lon="-2.75549333">
        <ele>633.0</ele>
        <time>2021-10-22T09:16:20.000Z</time>
      </trkpt>
      <trkpt lat="42.65016167" lon="-2.75549833">
        <ele>632.0</ele>
        <time>2021-10-22T09:16:21.000Z</time>
      </trkpt>
      <trkpt lat="42.65016333" lon="-2.75550333">
        <ele>632.0</ele>
        <time>2021-10-22T09:16:22.000Z</time>
      </trkpt>
      <trkpt lat="42.65016333" lon="-2.75550833">
        <ele>632.0</ele>
        <time>2021-10-22T09:16:23.000Z</time>
      </trkpt>
      <trkpt lat="42.65016167" lon="-2.75552">
        <ele>632.0</ele>
        <time>2021-10-22T09:16:24.000Z</time>
      </trkpt>
      <trkpt lat="42.65016" lon="-2.755535">
        <ele>632.0</ele>
        <time>2021-10-22T09:16:25.000Z</time>
      </trkpt>
      <trkpt lat="42.65015667" lon="-2.755545">
        <ele>632.0</ele>
        <time>2021-10-22T09:16:26.000Z</time>
      </trkpt>
      <trkpt lat="42.65015333" lon="-2.75555333">
        <ele>632.0</ele>
        <time>2021-10-22T09:16:27.000Z</time>
      </trkpt>
      <trkpt lat="42.65015" lon="-2.75556">
        <ele>632.0</ele>
        <time>2021-10-22T09:16:28.000Z</time>
      </trkpt>
      <trkpt lat="42.65014333" lon="-2.755565">
        <ele>632.0</ele>
        <time>2021-10-22T09:16:29.000Z</time>
      </trkpt>
      <trkpt lat="42.65013667" lon="-2.75557167">
        <ele>632.0</ele>
        <time>2021-10-22T09:16:30.000Z</time>
      </trkpt>
      <trkpt lat="42.65013167" lon="-2.75558167">
        <ele>632.0</ele>
        <time>2021-10-22T09:16:31.000Z</time>
      </trkpt>
      <trkpt lat="42.65012667" lon="-2.75559333">
        <ele>632.0</ele>
        <time>2021-10-22T09:16:32.000Z</time>
      </trkpt>
      <trkpt lat="42.65012" lon="-2.75560333">
        <ele>632.0</ele>
        <time>2021-10-22T09:16:33.000Z</time>
      </trkpt>
      <trkpt lat="42.65011333" lon="-2.75561167">
        <ele>632.0</ele>
        <time>2021-10-22T09:16:34.000Z</time>
      </trkpt>
      <trkpt lat="42.65010833" lon="-2.755615">
        <ele>632.0</ele>
        <time>2021-10-22T09:16:35.000Z</time>
      </trkpt>
      <trkpt lat="42.65010333" lon="-2.75561833">
        <ele>632.0</ele>
        <time>2021-10-22T09:16:36.000Z</time>
      </trkpt>
      <trkpt lat="42.65009667" lon="-2.75562">
        <ele>632.0</ele>
        <time>2021-10-22T09:16:37.000Z</time>
      </trkpt>
      <trkpt lat="42.65009" lon="-2.75561833">
        <ele>631.0</ele>
        <time>2021-10-22T09:16:38.000Z</time>
      </trkpt>
      <trkpt lat="42.65008667" lon="-2.75561333">
        <ele>631.0</ele>
        <time>2021-10-22T09:16:39.000Z</time>
      </trkpt>
      <trkpt lat="42.65009" lon="-2.75560667">
        <ele>632.0</ele>
        <time>2021-10-22T09:16:40.000Z</time>
      </trkpt>
      <trkpt lat="42.650095" lon="-2.755595">
        <ele>632.0</ele>
        <time>2021-10-22T09:16:41.000Z</time>
      </trkpt>
      <trkpt lat="42.6501" lon="-2.75558167">
        <ele>632.0</ele>
        <time>2021-10-22T09:16:42.000Z</time>
      </trkpt>
      <trkpt lat="42.6501" lon="-2.75557">
        <ele>632.0</ele>
        <time>2021-10-22T09:16:43.000Z</time>
      </trkpt>
      <trkpt lat="42.65009667" lon="-2.75556">
        <ele>632.0</ele>
        <time>2021-10-22T09:16:44.000Z</time>
      </trkpt>
      <trkpt lat="42.65009167" lon="-2.75555">
        <ele>632.0</ele>
        <time>2021-10-22T09:16:45.000Z</time>
      </trkpt>
      <trkpt lat="42.65008667" lon="-2.75554">
        <ele>632.0</ele>
        <time>2021-10-22T09:16:46.000Z</time>
      </trkpt>
      <trkpt lat="42.65008" lon="-2.75553">
        <ele>632.0</ele>
        <time>2021-10-22T09:16:47.000Z</time>
      </trkpt>
      <trkpt lat="42.650075" lon="-2.75552167">
        <ele>632.0</ele>
        <time>2021-10-22T09:16:48.000Z</time>
      </trkpt>
      <trkpt lat="42.65007" lon="-2.75551333">
        <ele>632.0</ele>
        <time>2021-10-22T09:16:49.000Z</time>
      </trkpt>
      <trkpt lat="42.650065" lon="-2.75550667">
        <ele>632.0</ele>
        <time>2021-10-22T09:16:50.000Z</time>
      </trkpt>
      <trkpt lat="42.65005833" lon="-2.755495">
        <ele>632.0</ele>
        <time>2021-10-22T09:16:51.000Z</time>
      </trkpt>
      <trkpt lat="42.65005333" lon="-2.755485">
        <ele>632.0</ele>
        <time>2021-10-22T09:16:52.000Z</time>
      </trkpt>
      <trkpt lat="42.65004833" lon="-2.75547667">
        <ele>632.0</ele>
        <time>2021-10-22T09:16:53.000Z</time>
      </trkpt>
      <trkpt lat="42.650045" lon="-2.75547">
        <ele>632.0</ele>
        <time>2021-10-22T09:16:54.000Z</time>
      </trkpt>
      <trkpt lat="42.650045" lon="-2.75546667">
        <ele>632.0</ele>
        <time>2021-10-22T09:16:55.000Z</time>
      </trkpt>
      <trkpt lat="42.650045" lon="-2.755465">
        <ele>632.0</ele>
        <time>2021-10-22T09:16:56.000Z</time>
      </trkpt>
      <trkpt lat="42.650045" lon="-2.755465">
        <ele>632.0</ele>
        <time>2021-10-22T09:16:57.000Z</time>
      </trkpt>
      <trkpt lat="42.650045" lon="-2.75546333">
        <ele>632.0</ele>
        <time>2021-10-22T09:16:58.000Z</time>
      </trkpt>
      <trkpt lat="42.65004333" lon="-2.75546333">
        <ele>632.0</ele>
        <time>2021-10-22T09:16:59.000Z</time>
      </trkpt>
      <trkpt lat="42.65004" lon="-2.75546167">
        <ele>632.0</ele>
        <time>2021-10-22T09:17:00.000Z</time>
      </trkpt>
      <trkpt lat="42.650035" lon="-2.75545167">
        <ele>632.0</ele>
        <time>2021-10-22T09:17:01.000Z</time>
      </trkpt>
      <trkpt lat="42.65003167" lon="-2.75544333">
        <ele>632.0</ele>
        <time>2021-10-22T09:17:02.000Z</time>
      </trkpt>
      <trkpt lat="42.65002833" lon="-2.75543333">
        <ele>632.0</ele>
        <time>2021-10-22T09:17:03.000Z</time>
      </trkpt>
      <trkpt lat="42.650025" lon="-2.75542333">
        <ele>632.0</ele>
        <time>2021-10-22T09:17:04.000Z</time>
      </trkpt>
      <trkpt lat="42.65002167" lon="-2.75541333">
        <ele>632.0</ele>
        <time>2021-10-22T09:17:05.000Z</time>
      </trkpt>
      <trkpt lat="42.65002" lon="-2.755405">
        <ele>632.0</ele>
        <time>2021-10-22T09:17:06.000Z</time>
      </trkpt>
      <trkpt lat="42.65001667" lon="-2.75539333">
        <ele>632.0</ele>
        <time>2021-10-22T09:17:07.000Z</time>
      </trkpt>
      <trkpt lat="42.65001167" lon="-2.75538333">
        <ele>632.0</ele>
        <time>2021-10-22T09:17:08.000Z</time>
      </trkpt>
      <trkpt lat="42.65001" lon="-2.75537667">
        <ele>632.0</ele>
        <time>2021-10-22T09:17:09.000Z</time>
      </trkpt>
      <trkpt lat="42.65000667" lon="-2.75536833">
        <ele>632.0</ele>
        <time>2021-10-22T09:17:10.000Z</time>
      </trkpt>
      <trkpt lat="42.65000333" lon="-2.75535833">
        <ele>632.0</ele>
        <time>2021-10-22T09:17:11.000Z</time>
      </trkpt>
      <trkpt lat="42.65" lon="-2.75535">
        <ele>632.0</ele>
        <time>2021-10-22T09:17:12.000Z</time>
      </trkpt>
      <trkpt lat="42.649995" lon="-2.75534167">
        <ele>632.0</ele>
        <time>2021-10-22T09:17:13.000Z</time>
      </trkpt>
      <trkpt lat="42.64999167" lon="-2.755335">
        <ele>632.0</ele>
        <time>2021-10-22T09:17:14.000Z</time>
      </trkpt>
      <trkpt lat="42.64998667" lon="-2.75532667">
        <ele>632.0</ele>
        <time>2021-10-22T09:17:15.000Z</time>
      </trkpt>
      <trkpt lat="42.64998333" lon="-2.75532">
        <ele>632.0</ele>
        <time>2021-10-22T09:17:16.000Z</time>
      </trkpt>
      <trkpt lat="42.64997833" lon="-2.75531167">
        <ele>632.0</ele>
        <time>2021-10-22T09:17:17.000Z</time>
      </trkpt>
      <trkpt lat="42.649975" lon="-2.75529833">
        <ele>632.0</ele>
        <time>2021-10-22T09:17:18.000Z</time>
      </trkpt>
      <trkpt lat="42.649975" lon="-2.75528667">
        <ele>632.0</ele>
        <time>2021-10-22T09:17:19.000Z</time>
      </trkpt>
      <trkpt lat="42.64998" lon="-2.75527667">
        <ele>632.0</ele>
        <time>2021-10-22T09:17:20.000Z</time>
      </trkpt>
      <trkpt lat="42.64998333" lon="-2.755265">
        <ele>633.0</ele>
        <time>2021-10-22T09:17:21.000Z</time>
      </trkpt>
      <trkpt lat="42.64998667" lon="-2.75525333">
        <ele>633.0</ele>
        <time>2021-10-22T09:17:22.000Z</time>
      </trkpt>
      <trkpt lat="42.64999" lon="-2.75524333">
        <ele>633.0</ele>
        <time>2021-10-22T09:17:23.000Z</time>
      </trkpt>
      <trkpt lat="42.64999333" lon="-2.75523667">
        <ele>632.0</ele>
        <time>2021-10-22T09:17:24.000Z</time>
      </trkpt>
      <trkpt lat="42.64999333" lon="-2.755225">
        <ele>632.0</ele>
        <time>2021-10-22T09:17:25.000Z</time>
      </trkpt>
      <trkpt lat="42.64999333" lon="-2.75522">
        <ele>632.0</ele>
        <time>2021-10-22T09:17:26.000Z</time>
      </trkpt>
      <trkpt lat="42.64999333" lon="-2.75521333">
        <ele>632.0</ele>
        <time>2021-10-22T09:17:27.000Z</time>
      </trkpt>
      <trkpt lat="42.64999333" lon="-2.755205">
        <ele>632.0</ele>
        <time>2021-10-22T09:17:28.000Z</time>
      </trkpt>
      <trkpt lat="42.649995" lon="-2.7552">
        <ele>632.0</ele>
        <time>2021-10-22T09:17:29.000Z</time>
      </trkpt>
      <trkpt lat="42.64999833" lon="-2.75519333">
        <ele>632.0</ele>
        <time>2021-10-22T09:17:30.000Z</time>
      </trkpt>
      <trkpt lat="42.65000167" lon="-2.75518833">
        <ele>633.0</ele>
        <time>2021-10-22T09:17:31.000Z</time>
      </trkpt>
      <trkpt lat="42.65000333" lon="-2.75518167">
        <ele>633.0</ele>
        <time>2021-10-22T09:17:32.000Z</time>
      </trkpt>
      <trkpt lat="42.65000333" lon="-2.75517833">
        <ele>633.0</ele>
        <time>2021-10-22T09:17:33.000Z</time>
      </trkpt>
      <trkpt lat="42.65000333" lon="-2.75517833">
        <ele>633.0</ele>
        <time>2021-10-22T09:17:34.000Z</time>
      </trkpt>
      <trkpt lat="42.65000333" lon="-2.75517833">
        <ele>633.0</ele>
        <time>2021-10-22T09:17:35.000Z</time>
      </trkpt>
      <trkpt lat="42.65000333" lon="-2.75517833">
        <ele>633.0</ele>
        <time>2021-10-22T09:17:36.000Z</time>
      </trkpt>
      <trkpt lat="42.65000333" lon="-2.75517833">
        <ele>633.0</ele>
        <time>2021-10-22T09:17:37.000Z</time>
      </trkpt>
      <trkpt lat="42.65000333" lon="-2.75517833">
        <ele>633.0</ele>
        <time>2021-10-22T09:17:38.000Z</time>
      </trkpt>
      <trkpt lat="42.65000333" lon="-2.75517667">
        <ele>633.0</ele>
        <time>2021-10-22T09:17:39.000Z</time>
      </trkpt>
      <trkpt lat="42.65000333" lon="-2.75517667">
        <ele>633.0</ele>
        <time>2021-10-22T09:17:40.000Z</time>
      </trkpt>
      <trkpt lat="42.65000333" lon="-2.75517667">
        <ele>633.0</ele>
        <time>2021-10-22T09:17:41.000Z</time>
      </trkpt>
      <trkpt lat="42.65000333" lon="-2.75517667">
        <ele>633.0</ele>
        <time>2021-10-22T09:17:42.000Z</time>
      </trkpt>
      <trkpt lat="42.65000167" lon="-2.755175">
        <ele>633.0</ele>
        <time>2021-10-22T09:17:43.000Z</time>
      </trkpt>
      <trkpt lat="42.65000167" lon="-2.755175">
        <ele>633.0</ele>
        <time>2021-10-22T09:17:44.000Z</time>
      </trkpt>
      <trkpt lat="42.65000333" lon="-2.755175">
        <ele>633.0</ele>
        <time>2021-10-22T09:17:45.000Z</time>
      </trkpt>
      <trkpt lat="42.65000333" lon="-2.75517333">
        <ele>633.0</ele>
        <time>2021-10-22T09:17:46.000Z</time>
      </trkpt>
      <trkpt lat="42.65000333" lon="-2.755175">
        <ele>633.0</ele>
        <time>2021-10-22T09:17:47.000Z</time>
      </trkpt>
      <trkpt lat="42.65000333" lon="-2.75517833">
        <ele>633.0</ele>
        <time>2021-10-22T09:17:48.000Z</time>
      </trkpt>
      <trkpt lat="42.65000333" lon="-2.75517833">
        <ele>633.0</ele>
        <time>2021-10-22T09:17:49.000Z</time>
      </trkpt>
      <trkpt lat="42.65000333" lon="-2.755175">
        <ele>633.0</ele>
        <time>2021-10-22T09:17:50.000Z</time>
      </trkpt>
      <trkpt lat="42.65000167" lon="-2.75517833">
        <ele>633.0</ele>
        <time>2021-10-22T09:17:51.000Z</time>
      </trkpt>
      <trkpt lat="42.64999667" lon="-2.75518333">
        <ele>633.0</ele>
        <time>2021-10-22T09:17:52.000Z</time>
      </trkpt>
      <trkpt lat="42.64999333" lon="-2.75519333">
        <ele>633.0</ele>
        <time>2021-10-22T09:17:53.000Z</time>
      </trkpt>
      <trkpt lat="42.64999167" lon="-2.75520667">
        <ele>633.0</ele>
        <time>2021-10-22T09:17:54.000Z</time>
      </trkpt>
      <trkpt lat="42.64998833" lon="-2.75522">
        <ele>633.0</ele>
        <time>2021-10-22T09:17:55.000Z</time>
      </trkpt>
      <trkpt lat="42.649985" lon="-2.75523">
        <ele>633.0</ele>
        <time>2021-10-22T09:17:56.000Z</time>
      </trkpt>
      <trkpt lat="42.64998333" lon="-2.75523833">
        <ele>633.0</ele>
        <time>2021-10-22T09:17:57.000Z</time>
      </trkpt>
      <trkpt lat="42.64997667" lon="-2.755245">
        <ele>633.0</ele>
        <time>2021-10-22T09:17:58.000Z</time>
      </trkpt>
      <trkpt lat="42.64996833" lon="-2.75525">
        <ele>633.0</ele>
        <time>2021-10-22T09:17:59.000Z</time>
      </trkpt>
      <trkpt lat="42.64996167" lon="-2.75525333">
        <ele>634.0</ele>
        <time>2021-10-22T09:18:00.000Z</time>
      </trkpt>
      <trkpt lat="42.64995167" lon="-2.755255">
        <ele>634.0</ele>
        <time>2021-10-22T09:18:01.000Z</time>
      </trkpt>
      <trkpt lat="42.64994333" lon="-2.75525333">
        <ele>634.0</ele>
        <time>2021-10-22T09:18:02.000Z</time>
      </trkpt>
      <trkpt lat="42.64993333" lon="-2.75524667">
        <ele>634.0</ele>
        <time>2021-10-22T09:18:03.000Z</time>
      </trkpt>
      <trkpt lat="42.649925" lon="-2.75523833">
        <ele>634.0</ele>
        <time>2021-10-22T09:18:04.000Z</time>
      </trkpt>
      <trkpt lat="42.64991833" lon="-2.75522833">
        <ele>633.0</ele>
        <time>2021-10-22T09:18:05.000Z</time>
      </trkpt>
      <trkpt lat="42.64991" lon="-2.75521833">
        <ele>633.0</ele>
        <time>2021-10-22T09:18:06.000Z</time>
      </trkpt>
      <trkpt lat="42.64990167" lon="-2.75520667">
        <ele>633.0</ele>
        <time>2021-10-22T09:18:07.000Z</time>
      </trkpt>
      <trkpt lat="42.64989167" lon="-2.75519667">
        <ele>633.0</ele>
        <time>2021-10-22T09:18:08.000Z</time>
      </trkpt>
      <trkpt lat="42.64988333" lon="-2.75518167">
        <ele>633.0</ele>
        <time>2021-10-22T09:18:09.000Z</time>
      </trkpt>
      <trkpt lat="42.64987833" lon="-2.75516333">
        <ele>633.0</ele>
        <time>2021-10-22T09:18:10.000Z</time>
      </trkpt>
      <trkpt lat="42.64987" lon="-2.75514833">
        <ele>633.0</ele>
        <time>2021-10-22T09:18:11.000Z</time>
      </trkpt>
      <trkpt lat="42.64986333" lon="-2.75513333">
        <ele>633.0</ele>
        <time>2021-10-22T09:18:12.000Z</time>
      </trkpt>
      <trkpt lat="42.64986167" lon="-2.75511333">
        <ele>633.0</ele>
        <time>2021-10-22T09:18:13.000Z</time>
      </trkpt>
      <trkpt lat="42.64986333" lon="-2.75509">
        <ele>633.0</ele>
        <time>2021-10-22T09:18:14.000Z</time>
      </trkpt>
      <trkpt lat="42.64986833" lon="-2.75507167">
        <ele>633.0</ele>
        <time>2021-10-22T09:18:15.000Z</time>
      </trkpt>
      <trkpt lat="42.64987333" lon="-2.75505333">
        <ele>633.0</ele>
        <time>2021-10-22T09:18:16.000Z</time>
      </trkpt>
      <trkpt lat="42.64987833" lon="-2.75503">
        <ele>633.0</ele>
        <time>2021-10-22T09:18:17.000Z</time>
      </trkpt>
      <trkpt lat="42.64988333" lon="-2.75501">
        <ele>633.0</ele>
        <time>2021-10-22T09:18:18.000Z</time>
      </trkpt>
      <trkpt lat="42.64989167" lon="-2.754995">
        <ele>633.0</ele>
        <time>2021-10-22T09:18:19.000Z</time>
      </trkpt>
      <trkpt lat="42.64989667" lon="-2.75498167">
        <ele>633.0</ele>
        <time>2021-10-22T09:18:20.000Z</time>
      </trkpt>
      <trkpt lat="42.64990167" lon="-2.75496667">
        <ele>633.0</ele>
        <time>2021-10-22T09:18:21.000Z</time>
      </trkpt>
      <trkpt lat="42.64990333" lon="-2.75495667">
        <ele>633.0</ele>
        <time>2021-10-22T09:18:22.000Z</time>
      </trkpt>
      <trkpt lat="42.64990333" lon="-2.75494833">
        <ele>633.0</ele>
        <time>2021-10-22T09:18:23.000Z</time>
      </trkpt>
      <trkpt lat="42.64990167" lon="-2.75494333">
        <ele>633.0</ele>
        <time>2021-10-22T09:18:24.000Z</time>
      </trkpt>
      <trkpt lat="42.64989833" lon="-2.75493667">
        <ele>633.0</ele>
        <time>2021-10-22T09:18:25.000Z</time>
      </trkpt>
      <trkpt lat="42.649895" lon="-2.75493667">
        <ele>633.0</ele>
        <time>2021-10-22T09:18:26.000Z</time>
      </trkpt>
      <trkpt lat="42.64989" lon="-2.754935">
        <ele>633.0</ele>
        <time>2021-10-22T09:18:27.000Z</time>
      </trkpt>
      <trkpt lat="42.64988333" lon="-2.75493167">
        <ele>633.0</ele>
        <time>2021-10-22T09:18:28.000Z</time>
      </trkpt>
      <trkpt lat="42.649875" lon="-2.75492667">
        <ele>633.0</ele>
        <time>2021-10-22T09:18:29.000Z</time>
      </trkpt>
      <trkpt lat="42.64986833" lon="-2.75492333">
        <ele>633.0</ele>
        <time>2021-10-22T09:18:30.000Z</time>
      </trkpt>
      <trkpt lat="42.64986" lon="-2.75492">
        <ele>633.0</ele>
        <time>2021-10-22T09:18:31.000Z</time>
      </trkpt>
      <trkpt lat="42.64985333" lon="-2.75491833">
        <ele>633.0</ele>
        <time>2021-10-22T09:18:32.000Z</time>
      </trkpt>
      <trkpt lat="42.64984667" lon="-2.754915">
        <ele>633.0</ele>
        <time>2021-10-22T09:18:33.000Z</time>
      </trkpt>
      <trkpt lat="42.64984167" lon="-2.75491">
        <ele>634.0</ele>
        <time>2021-10-22T09:18:34.000Z</time>
      </trkpt>
      <trkpt lat="42.64984" lon="-2.75490833">
        <ele>634.0</ele>
        <time>2021-10-22T09:18:35.000Z</time>
      </trkpt>
      <trkpt lat="42.64984" lon="-2.75490833">
        <ele>634.0</ele>
        <time>2021-10-22T09:18:36.000Z</time>
      </trkpt>
      <trkpt lat="42.64984167" lon="-2.75490667">
        <ele>634.0</ele>
        <time>2021-10-22T09:18:37.000Z</time>
      </trkpt>
      <trkpt lat="42.64984" lon="-2.75490833">
        <ele>634.0</ele>
        <time>2021-10-22T09:18:38.000Z</time>
      </trkpt>
      <trkpt lat="42.64983833" lon="-2.75490667">
        <ele>634.0</ele>
        <time>2021-10-22T09:18:39.000Z</time>
      </trkpt>
      <trkpt lat="42.64983833" lon="-2.75490667">
        <ele>634.0</ele>
        <time>2021-10-22T09:18:40.000Z</time>
      </trkpt>
      <trkpt lat="42.64983667" lon="-2.75490667">
        <ele>634.0</ele>
        <time>2021-10-22T09:18:41.000Z</time>
      </trkpt>
      <trkpt lat="42.64983667" lon="-2.75490667">
        <ele>634.0</ele>
        <time>2021-10-22T09:18:42.000Z</time>
      </trkpt>
      <trkpt lat="42.649835" lon="-2.75490667">
        <ele>634.0</ele>
        <time>2021-10-22T09:18:43.000Z</time>
      </trkpt>
      <trkpt lat="42.649835" lon="-2.75490667">
        <ele>634.0</ele>
        <time>2021-10-22T09:18:44.000Z</time>
      </trkpt>
      <trkpt lat="42.649835" lon="-2.75491">
        <ele>634.0</ele>
        <time>2021-10-22T09:18:45.000Z</time>
      </trkpt>
      <trkpt lat="42.64983333" lon="-2.75491">
        <ele>634.0</ele>
        <time>2021-10-22T09:18:46.000Z</time>
      </trkpt>
      <trkpt lat="42.64983" lon="-2.75491167">
        <ele>634.0</ele>
        <time>2021-10-22T09:18:47.000Z</time>
      </trkpt>
      <trkpt lat="42.64982667" lon="-2.75490833">
        <ele>634.0</ele>
        <time>2021-10-22T09:18:48.000Z</time>
      </trkpt>
      <trkpt lat="42.649825" lon="-2.75490667">
        <ele>634.0</ele>
        <time>2021-10-22T09:18:49.000Z</time>
      </trkpt>
      <trkpt lat="42.64982333" lon="-2.754905">
        <ele>634.0</ele>
        <time>2021-10-22T09:18:50.000Z</time>
      </trkpt>
      <trkpt lat="42.64982167" lon="-2.75490333">
        <ele>634.0</ele>
        <time>2021-10-22T09:18:51.000Z</time>
      </trkpt>
      <trkpt lat="42.64982" lon="-2.75490333">
        <ele>634.0</ele>
        <time>2021-10-22T09:18:52.000Z</time>
      </trkpt>
      <trkpt lat="42.64981833" lon="-2.75490167">
        <ele>634.0</ele>
        <time>2021-10-22T09:18:53.000Z</time>
      </trkpt>
      <trkpt lat="42.64981667" lon="-2.75490167">
        <ele>634.0</ele>
        <time>2021-10-22T09:18:54.000Z</time>
      </trkpt>
      <trkpt lat="42.64981667" lon="-2.7549">
        <ele>635.0</ele>
        <time>2021-10-22T09:18:55.000Z</time>
      </trkpt>
      <trkpt lat="42.649815" lon="-2.7549">
        <ele>635.0</ele>
        <time>2021-10-22T09:18:56.000Z</time>
      </trkpt>
      <trkpt lat="42.64981333" lon="-2.7549">
        <ele>635.0</ele>
        <time>2021-10-22T09:18:57.000Z</time>
      </trkpt>
      <trkpt lat="42.64981167" lon="-2.7549">
        <ele>635.0</ele>
        <time>2021-10-22T09:18:58.000Z</time>
      </trkpt>
      <trkpt lat="42.64981167" lon="-2.75489833">
        <ele>635.0</ele>
        <time>2021-10-22T09:18:59.000Z</time>
      </trkpt>
      <trkpt lat="42.64981" lon="-2.75489833">
        <ele>635.0</ele>
        <time>2021-10-22T09:19:00.000Z</time>
      </trkpt>
      <trkpt lat="42.64981" lon="-2.75489833">
        <ele>635.0</ele>
        <time>2021-10-22T09:19:01.000Z</time>
      </trkpt>
      <trkpt lat="42.64980833" lon="-2.75489833">
        <ele>635.0</ele>
        <time>2021-10-22T09:19:02.000Z</time>
      </trkpt>
      <trkpt lat="42.64980833" lon="-2.75489833">
        <ele>635.0</ele>
        <time>2021-10-22T09:19:03.000Z</time>
      </trkpt>
      <trkpt lat="42.64980833" lon="-2.75489667">
        <ele>635.0</ele>
        <time>2021-10-22T09:19:04.000Z</time>
      </trkpt>
      <trkpt lat="42.64980667" lon="-2.75489833">
        <ele>635.0</ele>
        <time>2021-10-22T09:19:05.000Z</time>
      </trkpt>
      <trkpt lat="42.64980667" lon="-2.75489833">
        <ele>635.0</ele>
        <time>2021-10-22T09:19:06.000Z</time>
      </trkpt>
      <trkpt lat="42.649805" lon="-2.7549">
        <ele>635.0</ele>
        <time>2021-10-22T09:19:07.000Z</time>
      </trkpt>
      <trkpt lat="42.649805" lon="-2.7549">
        <ele>635.0</ele>
        <time>2021-10-22T09:19:08.000Z</time>
      </trkpt>
      <trkpt lat="42.64980333" lon="-2.7549">
        <ele>635.0</ele>
        <time>2021-10-22T09:19:09.000Z</time>
      </trkpt>
      <trkpt lat="42.64980333" lon="-2.7549">
        <ele>635.0</ele>
        <time>2021-10-22T09:19:10.000Z</time>
      </trkpt>
      <trkpt lat="42.64980333" lon="-2.7549">
        <ele>635.0</ele>
        <time>2021-10-22T09:19:11.000Z</time>
      </trkpt>
      <trkpt lat="42.64980333" lon="-2.7549">
        <ele>635.0</ele>
        <time>2021-10-22T09:19:12.000Z</time>
      </trkpt>
      <trkpt lat="42.64980167" lon="-2.754905">
        <ele>635.0</ele>
        <time>2021-10-22T09:19:13.000Z</time>
      </trkpt>
      <trkpt lat="42.64980167" lon="-2.75490667">
        <ele>635.0</ele>
        <time>2021-10-22T09:19:14.000Z</time>
      </trkpt>
      <trkpt lat="42.64980167" lon="-2.75491">
        <ele>635.0</ele>
        <time>2021-10-22T09:19:15.000Z</time>
      </trkpt>
      <trkpt lat="42.64980333" lon="-2.75491">
        <ele>635.0</ele>
        <time>2021-10-22T09:19:16.000Z</time>
      </trkpt>
      <trkpt lat="42.64980333" lon="-2.754915">
        <ele>635.0</ele>
        <time>2021-10-22T09:19:17.000Z</time>
      </trkpt>
      <trkpt lat="42.64980167" lon="-2.75492167">
        <ele>635.0</ele>
        <time>2021-10-22T09:19:18.000Z</time>
      </trkpt>
      <trkpt lat="42.64980167" lon="-2.75492667">
        <ele>635.0</ele>
        <time>2021-10-22T09:19:19.000Z</time>
      </trkpt>
      <trkpt lat="42.64979833" lon="-2.75493">
        <ele>635.0</ele>
        <time>2021-10-22T09:19:20.000Z</time>
      </trkpt>
      <trkpt lat="42.649795" lon="-2.75493333">
        <ele>635.0</ele>
        <time>2021-10-22T09:19:21.000Z</time>
      </trkpt>
      <trkpt lat="42.64979167" lon="-2.754935">
        <ele>636.0</ele>
        <time>2021-10-22T09:19:22.000Z</time>
      </trkpt>
      <trkpt lat="42.64978833" lon="-2.75493667">
        <ele>636.0</ele>
        <time>2021-10-22T09:19:23.000Z</time>
      </trkpt>
      <trkpt lat="42.64978667" lon="-2.75493667">
        <ele>636.0</ele>
        <time>2021-10-22T09:19:24.000Z</time>
      </trkpt>
      <trkpt lat="42.64978333" lon="-2.75493667">
        <ele>636.0</ele>
        <time>2021-10-22T09:19:25.000Z</time>
      </trkpt>
      <trkpt lat="42.64978167" lon="-2.75493667">
        <ele>636.0</ele>
        <time>2021-10-22T09:19:26.000Z</time>
      </trkpt>
      <trkpt lat="42.64978167" lon="-2.75493833">
        <ele>636.0</ele>
        <time>2021-10-22T09:19:27.000Z</time>
      </trkpt>
      <trkpt lat="42.64978" lon="-2.75494">
        <ele>636.0</ele>
        <time>2021-10-22T09:19:28.000Z</time>
      </trkpt>
      <trkpt lat="42.64977833" lon="-2.75494167">
        <ele>636.0</ele>
        <time>2021-10-22T09:19:29.000Z</time>
      </trkpt>
      <trkpt lat="42.64977833" lon="-2.75494167">
        <ele>636.0</ele>
        <time>2021-10-22T09:19:30.000Z</time>
      </trkpt>
      <trkpt lat="42.64977667" lon="-2.75494333">
        <ele>637.0</ele>
        <time>2021-10-22T09:19:31.000Z</time>
      </trkpt>
      <trkpt lat="42.64977667" lon="-2.754945">
        <ele>637.0</ele>
        <time>2021-10-22T09:19:32.000Z</time>
      </trkpt>
      <trkpt lat="42.649775" lon="-2.75494667">
        <ele>637.0</ele>
        <time>2021-10-22T09:19:33.000Z</time>
      </trkpt>
      <trkpt lat="42.64977333" lon="-2.75494833">
        <ele>637.0</ele>
        <time>2021-10-22T09:19:34.000Z</time>
      </trkpt>
      <trkpt lat="42.64977167" lon="-2.75495">
        <ele>637.0</ele>
        <time>2021-10-22T09:19:35.000Z</time>
      </trkpt>
      <trkpt lat="42.64977" lon="-2.75495167">
        <ele>637.0</ele>
        <time>2021-10-22T09:19:36.000Z</time>
      </trkpt>
      <trkpt lat="42.64976833" lon="-2.75495333">
        <ele>637.0</ele>
        <time>2021-10-22T09:19:37.000Z</time>
      </trkpt>
      <trkpt lat="42.64976667" lon="-2.75495333">
        <ele>638.0</ele>
        <time>2021-10-22T09:19:38.000Z</time>
      </trkpt>
      <trkpt lat="42.649765" lon="-2.754955">
        <ele>638.0</ele>
        <time>2021-10-22T09:19:39.000Z</time>
      </trkpt>
      <trkpt lat="42.64976333" lon="-2.754955">
        <ele>638.0</ele>
        <time>2021-10-22T09:19:40.000Z</time>
      </trkpt>
      <trkpt lat="42.64976167" lon="-2.754955">
        <ele>638.0</ele>
        <time>2021-10-22T09:19:41.000Z</time>
      </trkpt>
      <trkpt lat="42.64976167" lon="-2.75495667">
        <ele>638.0</ele>
        <time>2021-10-22T09:19:42.000Z</time>
      </trkpt>
      <trkpt lat="42.64976" lon="-2.75495667">
        <ele>638.0</ele>
        <time>2021-10-22T09:19:43.000Z</time>
      </trkpt>
      <trkpt lat="42.64976" lon="-2.75495833">
        <ele>638.0</ele>
        <time>2021-10-22T09:19:44.000Z</time>
      </trkpt>
      <trkpt lat="42.64976" lon="-2.75495833">
        <ele>638.0</ele>
        <time>2021-10-22T09:19:45.000Z</time>
      </trkpt>
      <trkpt lat="42.64975833" lon="-2.75495833">
        <ele>638.0</ele>
        <time>2021-10-22T09:19:46.000Z</time>
      </trkpt>
      <trkpt lat="42.64975833" lon="-2.75496">
        <ele>639.0</ele>
        <time>2021-10-22T09:19:47.000Z</time>
      </trkpt>
      <trkpt lat="42.64975833" lon="-2.75496">
        <ele>639.0</ele>
        <time>2021-10-22T09:19:48.000Z</time>
      </trkpt>
      <trkpt lat="42.64975667" lon="-2.75496">
        <ele>639.0</ele>
        <time>2021-10-22T09:19:49.000Z</time>
      </trkpt>
      <trkpt lat="42.64975667" lon="-2.75496167">
        <ele>639.0</ele>
        <time>2021-10-22T09:19:50.000Z</time>
      </trkpt>
      <trkpt lat="42.64975667" lon="-2.75496167">
        <ele>639.0</ele>
        <time>2021-10-22T09:19:51.000Z</time>
      </trkpt>
      <trkpt lat="42.64975667" lon="-2.75496167">
        <ele>639.0</ele>
        <time>2021-10-22T09:19:52.000Z</time>
      </trkpt>
      <trkpt lat="42.64975667" lon="-2.75496167">
        <ele>639.0</ele>
        <time>2021-10-22T09:19:53.000Z</time>
      </trkpt>
      <trkpt lat="42.649755" lon="-2.75496333">
        <ele>639.0</ele>
        <time>2021-10-22T09:19:54.000Z</time>
      </trkpt>
      <trkpt lat="42.649755" lon="-2.75496333">
        <ele>639.0</ele>
        <time>2021-10-22T09:19:55.000Z</time>
      </trkpt>
      <trkpt lat="42.649755" lon="-2.75496333">
        <ele>639.0</ele>
        <time>2021-10-22T09:19:56.000Z</time>
      </trkpt>
      <trkpt lat="42.649755" lon="-2.75496333">
        <ele>639.0</ele>
        <time>2021-10-22T09:19:57.000Z</time>
      </trkpt>
      <trkpt lat="42.649755" lon="-2.75496333">
        <ele>639.0</ele>
        <time>2021-10-22T09:19:58.000Z</time>
      </trkpt>
      <trkpt lat="42.649755" lon="-2.75496333">
        <ele>639.0</ele>
        <time>2021-10-22T09:19:59.000Z</time>
      </trkpt>
      <trkpt lat="42.649755" lon="-2.75496333">
        <ele>639.0</ele>
        <time>2021-10-22T09:20:00.000Z</time>
      </trkpt>
      <trkpt lat="42.649755" lon="-2.754965">
        <ele>639.0</ele>
        <time>2021-10-22T09:20:01.000Z</time>
      </trkpt>
      <trkpt lat="42.64975333" lon="-2.754965">
        <ele>639.0</ele>
        <time>2021-10-22T09:20:02.000Z</time>
      </trkpt>
      <trkpt lat="42.64975333" lon="-2.75496333">
        <ele>639.0</ele>
        <time>2021-10-22T09:20:03.000Z</time>
      </trkpt>
      <trkpt lat="42.64975167" lon="-2.754965">
        <ele>639.0</ele>
        <time>2021-10-22T09:20:04.000Z</time>
      </trkpt>
      <trkpt lat="42.64974833" lon="-2.75496833">
        <ele>639.0</ele>
        <time>2021-10-22T09:20:05.000Z</time>
      </trkpt>
      <trkpt lat="42.64974167" lon="-2.75497167">
        <ele>639.0</ele>
        <time>2021-10-22T09:20:06.000Z</time>
      </trkpt>
      <trkpt lat="42.64973667" lon="-2.75497667">
        <ele>639.0</ele>
        <time>2021-10-22T09:20:07.000Z</time>
      </trkpt>
      <trkpt lat="42.64973" lon="-2.75498">
        <ele>639.0</ele>
        <time>2021-10-22T09:20:08.000Z</time>
      </trkpt>
      <trkpt lat="42.64972833" lon="-2.75498167">
        <ele>639.0</ele>
        <time>2021-10-22T09:20:09.000Z</time>
      </trkpt>
      <trkpt lat="42.64972667" lon="-2.75498333">
        <ele>639.0</ele>
        <time>2021-10-22T09:20:10.000Z</time>
      </trkpt>
      <trkpt lat="42.64972333" lon="-2.75498667">
        <ele>639.0</ele>
        <time>2021-10-22T09:20:11.000Z</time>
      </trkpt>
      <trkpt lat="42.64971833" lon="-2.75498667">
        <ele>639.0</ele>
        <time>2021-10-22T09:20:12.000Z</time>
      </trkpt>
      <trkpt lat="42.64971" lon="-2.754985">
        <ele>639.0</ele>
        <time>2021-10-22T09:20:13.000Z</time>
      </trkpt>
      <trkpt lat="42.64970333" lon="-2.75498167">
        <ele>639.0</ele>
        <time>2021-10-22T09:20:14.000Z</time>
      </trkpt>
      <trkpt lat="42.64969833" lon="-2.75497833">
        <ele>639.0</ele>
        <time>2021-10-22T09:20:15.000Z</time>
      </trkpt>
      <trkpt lat="42.649695" lon="-2.75497167">
        <ele>639.0</ele>
        <time>2021-10-22T09:20:16.000Z</time>
      </trkpt>
      <trkpt lat="42.64969" lon="-2.75496667">
        <ele>639.0</ele>
        <time>2021-10-22T09:20:17.000Z</time>
      </trkpt>
      <trkpt lat="42.64968333" lon="-2.75496167">
        <ele>639.0</ele>
        <time>2021-10-22T09:20:18.000Z</time>
      </trkpt>
      <trkpt lat="42.64967833" lon="-2.75495333">
        <ele>638.0</ele>
        <time>2021-10-22T09:20:19.000Z</time>
      </trkpt>
      <trkpt lat="42.64967333" lon="-2.75494667">
        <ele>638.0</ele>
        <time>2021-10-22T09:20:20.000Z</time>
      </trkpt>
      <trkpt lat="42.64966833" lon="-2.75493833">
        <ele>638.0</ele>
        <time>2021-10-22T09:20:21.000Z</time>
      </trkpt>
      <trkpt lat="42.64966" lon="-2.75492833">
        <ele>638.0</ele>
        <time>2021-10-22T09:20:22.000Z</time>
      </trkpt>
      <trkpt lat="42.64965333" lon="-2.75492">
        <ele>638.0</ele>
        <time>2021-10-22T09:20:23.000Z</time>
      </trkpt>
      <trkpt lat="42.64964667" lon="-2.75490833">
        <ele>638.0</ele>
        <time>2021-10-22T09:20:24.000Z</time>
      </trkpt>
      <trkpt lat="42.64964167" lon="-2.75489667">
        <ele>638.0</ele>
        <time>2021-10-22T09:20:25.000Z</time>
      </trkpt>
      <trkpt lat="42.649635" lon="-2.75488333">
        <ele>638.0</ele>
        <time>2021-10-22T09:20:26.000Z</time>
      </trkpt>
      <trkpt lat="42.64963" lon="-2.75486833">
        <ele>638.0</ele>
        <time>2021-10-22T09:20:27.000Z</time>
      </trkpt>
      <trkpt lat="42.649625" lon="-2.754855">
        <ele>638.0</ele>
        <time>2021-10-22T09:20:28.000Z</time>
      </trkpt>
      <trkpt lat="42.64962" lon="-2.75484167">
        <ele>638.0</ele>
        <time>2021-10-22T09:20:29.000Z</time>
      </trkpt>
      <trkpt lat="42.649615" lon="-2.75483167">
        <ele>638.0</ele>
        <time>2021-10-22T09:20:30.000Z</time>
      </trkpt>
      <trkpt lat="42.64960833" lon="-2.75481833">
        <ele>638.0</ele>
        <time>2021-10-22T09:20:31.000Z</time>
      </trkpt>
      <trkpt lat="42.64959833" lon="-2.75480667">
        <ele>638.0</ele>
        <time>2021-10-22T09:20:32.000Z</time>
      </trkpt>
      <trkpt lat="42.64958833" lon="-2.75479667">
        <ele>638.0</ele>
        <time>2021-10-22T09:20:33.000Z</time>
      </trkpt>
      <trkpt lat="42.64957667" lon="-2.75479">
        <ele>638.0</ele>
        <time>2021-10-22T09:20:34.000Z</time>
      </trkpt>
      <trkpt lat="42.64956667" lon="-2.75478333">
        <ele>638.0</ele>
        <time>2021-10-22T09:20:35.000Z</time>
      </trkpt>
      <trkpt lat="42.64955667" lon="-2.754775">
        <ele>638.0</ele>
        <time>2021-10-22T09:20:36.000Z</time>
      </trkpt>
      <trkpt lat="42.649545" lon="-2.754765">
        <ele>638.0</ele>
        <time>2021-10-22T09:20:37.000Z</time>
      </trkpt>
      <trkpt lat="42.649535" lon="-2.75475833">
        <ele>638.0</ele>
        <time>2021-10-22T09:20:38.000Z</time>
      </trkpt>
      <trkpt lat="42.64952667" lon="-2.75475">
        <ele>638.0</ele>
        <time>2021-10-22T09:20:39.000Z</time>
      </trkpt>
      <trkpt lat="42.64951833" lon="-2.75474333">
        <ele>638.0</ele>
        <time>2021-10-22T09:20:40.000Z</time>
      </trkpt>
      <trkpt lat="42.64951" lon="-2.75473667">
        <ele>638.0</ele>
        <time>2021-10-22T09:20:41.000Z</time>
      </trkpt>
      <trkpt lat="42.64950167" lon="-2.75473333">
        <ele>638.0</ele>
        <time>2021-10-22T09:20:42.000Z</time>
      </trkpt>
      <trkpt lat="42.64949333" lon="-2.75473">
        <ele>638.0</ele>
        <time>2021-10-22T09:20:43.000Z</time>
      </trkpt>
      <trkpt lat="42.649485" lon="-2.75472833">
        <ele>638.0</ele>
        <time>2021-10-22T09:20:44.000Z</time>
      </trkpt>
      <trkpt lat="42.64947833" lon="-2.75473167">
        <ele>638.0</ele>
        <time>2021-10-22T09:20:45.000Z</time>
      </trkpt>
      <trkpt lat="42.64947167" lon="-2.75473333">
        <ele>638.0</ele>
        <time>2021-10-22T09:20:46.000Z</time>
      </trkpt>
      <trkpt lat="42.64946167" lon="-2.754735">
        <ele>638.0</ele>
        <time>2021-10-22T09:20:47.000Z</time>
      </trkpt>
      <trkpt lat="42.64945167" lon="-2.75473833">
        <ele>638.0</ele>
        <time>2021-10-22T09:20:48.000Z</time>
      </trkpt>
      <trkpt lat="42.64944" lon="-2.75474333">
        <ele>638.0</ele>
        <time>2021-10-22T09:20:49.000Z</time>
      </trkpt>
      <trkpt lat="42.64942833" lon="-2.75474667">
        <ele>638.0</ele>
        <time>2021-10-22T09:20:50.000Z</time>
      </trkpt>
      <trkpt lat="42.64941667" lon="-2.75475">
        <ele>638.0</ele>
        <time>2021-10-22T09:20:51.000Z</time>
      </trkpt>
      <trkpt lat="42.64940667" lon="-2.75475333">
        <ele>638.0</ele>
        <time>2021-10-22T09:20:52.000Z</time>
      </trkpt>
      <trkpt lat="42.64939333" lon="-2.75475333">
        <ele>638.0</ele>
        <time>2021-10-22T09:20:53.000Z</time>
      </trkpt>
      <trkpt lat="42.64938" lon="-2.75475167">
        <ele>639.0</ele>
        <time>2021-10-22T09:20:54.000Z</time>
      </trkpt>
      <trkpt lat="42.64937" lon="-2.75474833">
        <ele>639.0</ele>
        <time>2021-10-22T09:20:55.000Z</time>
      </trkpt>
      <trkpt lat="42.64935833" lon="-2.75474333">
        <ele>639.0</ele>
        <time>2021-10-22T09:20:56.000Z</time>
      </trkpt>
      <trkpt lat="42.64934833" lon="-2.754735">
        <ele>639.0</ele>
        <time>2021-10-22T09:20:57.000Z</time>
      </trkpt>
      <trkpt lat="42.64933833" lon="-2.754725">
        <ele>639.0</ele>
        <time>2021-10-22T09:20:58.000Z</time>
      </trkpt>
      <trkpt lat="42.64932667" lon="-2.75471333">
        <ele>639.0</ele>
        <time>2021-10-22T09:20:59.000Z</time>
      </trkpt>
      <trkpt lat="42.64931667" lon="-2.75470333">
        <ele>639.0</ele>
        <time>2021-10-22T09:21:00.000Z</time>
      </trkpt>
      <trkpt lat="42.64930833" lon="-2.75469333">
        <ele>639.0</ele>
        <time>2021-10-22T09:21:01.000Z</time>
      </trkpt>
      <trkpt lat="42.6493" lon="-2.75468167">
        <ele>639.0</ele>
        <time>2021-10-22T09:21:02.000Z</time>
      </trkpt>
      <trkpt lat="42.64929833" lon="-2.75468">
        <ele>639.0</ele>
        <time>2021-10-22T09:21:03.000Z</time>
      </trkpt>
      <trkpt lat="42.64929667" lon="-2.75467667">
        <ele>639.0</ele>
        <time>2021-10-22T09:21:04.000Z</time>
      </trkpt>
      <trkpt lat="42.64929167" lon="-2.75467">
        <ele>639.0</ele>
        <time>2021-10-22T09:21:05.000Z</time>
      </trkpt>
      <trkpt lat="42.64928667" lon="-2.75466167">
        <ele>639.0</ele>
        <time>2021-10-22T09:21:06.000Z</time>
      </trkpt>
      <trkpt lat="42.64928" lon="-2.75465333">
        <ele>639.0</ele>
        <time>2021-10-22T09:21:07.000Z</time>
      </trkpt>
      <trkpt lat="42.64927333" lon="-2.75464333">
        <ele>639.0</ele>
        <time>2021-10-22T09:21:08.000Z</time>
      </trkpt>
      <trkpt lat="42.64927" lon="-2.75463">
        <ele>639.0</ele>
        <time>2021-10-22T09:21:09.000Z</time>
      </trkpt>
      <trkpt lat="42.649265" lon="-2.75461833">
        <ele>639.0</ele>
        <time>2021-10-22T09:21:10.000Z</time>
      </trkpt>
      <trkpt lat="42.64925833" lon="-2.75460667">
        <ele>639.0</ele>
        <time>2021-10-22T09:21:11.000Z</time>
      </trkpt>
      <trkpt lat="42.64925" lon="-2.75459667">
        <ele>639.0</ele>
        <time>2021-10-22T09:21:12.000Z</time>
      </trkpt>
      <trkpt lat="42.64924333" lon="-2.75458333">
        <ele>639.0</ele>
        <time>2021-10-22T09:21:13.000Z</time>
      </trkpt>
      <trkpt lat="42.64924" lon="-2.75456833">
        <ele>639.0</ele>
        <time>2021-10-22T09:21:14.000Z</time>
      </trkpt>
      <trkpt lat="42.64923667" lon="-2.75455333">
        <ele>639.0</ele>
        <time>2021-10-22T09:21:15.000Z</time>
      </trkpt>
      <trkpt lat="42.64923333" lon="-2.75453833">
        <ele>640.0</ele>
        <time>2021-10-22T09:21:16.000Z</time>
      </trkpt>
      <trkpt lat="42.64923167" lon="-2.754525">
        <ele>640.0</ele>
        <time>2021-10-22T09:21:17.000Z</time>
      </trkpt>
      <trkpt lat="42.64922833" lon="-2.75451">
        <ele>640.0</ele>
        <time>2021-10-22T09:21:18.000Z</time>
      </trkpt>
      <trkpt lat="42.64922667" lon="-2.75449167">
        <ele>640.0</ele>
        <time>2021-10-22T09:21:19.000Z</time>
      </trkpt>
      <trkpt lat="42.64922333" lon="-2.75447667">
        <ele>640.0</ele>
        <time>2021-10-22T09:21:20.000Z</time>
      </trkpt>
      <trkpt lat="42.64922167" lon="-2.75446167">
        <ele>640.0</ele>
        <time>2021-10-22T09:21:21.000Z</time>
      </trkpt>
      <trkpt lat="42.64921833" lon="-2.75444667">
        <ele>640.0</ele>
        <time>2021-10-22T09:21:22.000Z</time>
      </trkpt>
      <trkpt lat="42.64921333" lon="-2.75443">
        <ele>640.0</ele>
        <time>2021-10-22T09:21:23.000Z</time>
      </trkpt>
      <trkpt lat="42.64921333" lon="-2.754415">
        <ele>640.0</ele>
        <time>2021-10-22T09:21:24.000Z</time>
      </trkpt>
      <trkpt lat="42.64921333" lon="-2.75439833">
        <ele>640.0</ele>
        <time>2021-10-22T09:21:25.000Z</time>
      </trkpt>
      <trkpt lat="42.64921333" lon="-2.75437833">
        <ele>640.0</ele>
        <time>2021-10-22T09:21:26.000Z</time>
      </trkpt>
      <trkpt lat="42.64921333" lon="-2.75436167">
        <ele>640.0</ele>
        <time>2021-10-22T09:21:27.000Z</time>
      </trkpt>
      <trkpt lat="42.649215" lon="-2.754345">
        <ele>640.0</ele>
        <time>2021-10-22T09:21:28.000Z</time>
      </trkpt>
      <trkpt lat="42.649215" lon="-2.75432833">
        <ele>640.0</ele>
        <time>2021-10-22T09:21:29.000Z</time>
      </trkpt>
      <trkpt lat="42.64921833" lon="-2.75431167">
        <ele>641.0</ele>
        <time>2021-10-22T09:21:30.000Z</time>
      </trkpt>
      <trkpt lat="42.64922333" lon="-2.75429833">
        <ele>641.0</ele>
        <time>2021-10-22T09:21:31.000Z</time>
      </trkpt>
      <trkpt lat="42.64922833" lon="-2.75428667">
        <ele>641.0</ele>
        <time>2021-10-22T09:21:32.000Z</time>
      </trkpt>
      <trkpt lat="42.64923" lon="-2.75427333">
        <ele>641.0</ele>
        <time>2021-10-22T09:21:33.000Z</time>
      </trkpt>
      <trkpt lat="42.64923333" lon="-2.75426333">
        <ele>641.0</ele>
        <time>2021-10-22T09:21:34.000Z</time>
      </trkpt>
      <trkpt lat="42.64923833" lon="-2.75425167">
        <ele>641.0</ele>
        <time>2021-10-22T09:21:35.000Z</time>
      </trkpt>
      <trkpt lat="42.649245" lon="-2.75423833">
        <ele>642.0</ele>
        <time>2021-10-22T09:21:36.000Z</time>
      </trkpt>
      <trkpt lat="42.64925167" lon="-2.754225">
        <ele>642.0</ele>
        <time>2021-10-22T09:21:37.000Z</time>
      </trkpt>
      <trkpt lat="42.64925833" lon="-2.75421">
        <ele>642.0</ele>
        <time>2021-10-22T09:21:38.000Z</time>
      </trkpt>
      <trkpt lat="42.64926333" lon="-2.75419667">
        <ele>642.0</ele>
        <time>2021-10-22T09:21:39.000Z</time>
      </trkpt>
      <trkpt lat="42.64927" lon="-2.75418333">
        <ele>643.0</ele>
        <time>2021-10-22T09:21:40.000Z</time>
      </trkpt>
      <trkpt lat="42.649275" lon="-2.75417">
        <ele>643.0</ele>
        <time>2021-10-22T09:21:41.000Z</time>
      </trkpt>
      <trkpt lat="42.64928" lon="-2.75415667">
        <ele>643.0</ele>
        <time>2021-10-22T09:21:42.000Z</time>
      </trkpt>
      <trkpt lat="42.649285" lon="-2.75414333">
        <ele>643.0</ele>
        <time>2021-10-22T09:21:43.000Z</time>
      </trkpt>
      <trkpt lat="42.64928833" lon="-2.75413333">
        <ele>644.0</ele>
        <time>2021-10-22T09:21:44.000Z</time>
      </trkpt>
      <trkpt lat="42.649295" lon="-2.75412833">
        <ele>644.0</ele>
        <time>2021-10-22T09:21:45.000Z</time>
      </trkpt>
      <trkpt lat="42.64930167" lon="-2.754125">
        <ele>644.0</ele>
        <time>2021-10-22T09:21:46.000Z</time>
      </trkpt>
      <trkpt lat="42.64930833" lon="-2.75412333">
        <ele>644.0</ele>
        <time>2021-10-22T09:21:47.000Z</time>
      </trkpt>
      <trkpt lat="42.649315" lon="-2.75412">
        <ele>645.0</ele>
        <time>2021-10-22T09:21:48.000Z</time>
      </trkpt>
      <trkpt lat="42.64932167" lon="-2.75411833">
        <ele>645.0</ele>
        <time>2021-10-22T09:21:49.000Z</time>
      </trkpt>
      <trkpt lat="42.64932333" lon="-2.75411667">
        <ele>645.0</ele>
        <time>2021-10-22T09:21:50.000Z</time>
      </trkpt>
      <trkpt lat="42.64932667" lon="-2.754115">
        <ele>645.0</ele>
        <time>2021-10-22T09:21:51.000Z</time>
      </trkpt>
      <trkpt lat="42.64932833" lon="-2.75411333">
        <ele>645.0</ele>
        <time>2021-10-22T09:21:52.000Z</time>
      </trkpt>
      <trkpt lat="42.64932833" lon="-2.75411333">
        <ele>646.0</ele>
        <time>2021-10-22T09:21:53.000Z</time>
      </trkpt>
      <trkpt lat="42.64933" lon="-2.75411167">
        <ele>646.0</ele>
        <time>2021-10-22T09:21:54.000Z</time>
      </trkpt>
      <trkpt lat="42.64933" lon="-2.75411167">
        <ele>646.0</ele>
        <time>2021-10-22T09:21:55.000Z</time>
      </trkpt>
      <trkpt lat="42.64933" lon="-2.75410833">
        <ele>647.0</ele>
        <time>2021-10-22T09:21:56.000Z</time>
      </trkpt>
      <trkpt lat="42.64933167" lon="-2.75410667">
        <ele>647.0</ele>
        <time>2021-10-22T09:21:57.000Z</time>
      </trkpt>
      <trkpt lat="42.64933333" lon="-2.75410667">
        <ele>647.0</ele>
        <time>2021-10-22T09:21:58.000Z</time>
      </trkpt>
      <trkpt lat="42.649335" lon="-2.75410667">
        <ele>647.0</ele>
        <time>2021-10-22T09:21:59.000Z</time>
      </trkpt>
      <trkpt lat="42.649335" lon="-2.75410667">
        <ele>648.0</ele>
        <time>2021-10-22T09:22:00.000Z</time>
      </trkpt>
      <trkpt lat="42.64933667" lon="-2.75410667">
        <ele>648.0</ele>
        <time>2021-10-22T09:22:01.000Z</time>
      </trkpt>
      <trkpt lat="42.64933667" lon="-2.75410667">
        <ele>648.0</ele>
        <time>2021-10-22T09:22:02.000Z</time>
      </trkpt>
      <trkpt lat="42.64933667" lon="-2.754105">
        <ele>648.0</ele>
        <time>2021-10-22T09:22:03.000Z</time>
      </trkpt>
      <trkpt lat="42.64933667" lon="-2.754105">
        <ele>648.0</ele>
        <time>2021-10-22T09:22:04.000Z</time>
      </trkpt>
      <trkpt lat="42.64933667" lon="-2.754105">
        <ele>649.0</ele>
        <time>2021-10-22T09:22:05.000Z</time>
      </trkpt>
      <trkpt lat="42.64933667" lon="-2.754105">
        <ele>649.0</ele>
        <time>2021-10-22T09:22:06.000Z</time>
      </trkpt>
      <trkpt lat="42.64933833" lon="-2.75410667">
        <ele>649.0</ele>
        <time>2021-10-22T09:22:07.000Z</time>
      </trkpt>
      <trkpt lat="42.64933833" lon="-2.75410667">
        <ele>649.0</ele>
        <time>2021-10-22T09:22:08.000Z</time>
      </trkpt>
      <trkpt lat="42.64933667" lon="-2.75410667">
        <ele>649.0</ele>
        <time>2021-10-22T09:22:09.000Z</time>
      </trkpt>
      <trkpt lat="42.64933667" lon="-2.75410667">
        <ele>650.0</ele>
        <time>2021-10-22T09:22:10.000Z</time>
      </trkpt>
      <trkpt lat="42.64933833" lon="-2.75410667">
        <ele>650.0</ele>
        <time>2021-10-22T09:22:11.000Z</time>
      </trkpt>
      <trkpt lat="42.64933833" lon="-2.75410667">
        <ele>650.0</ele>
        <time>2021-10-22T09:22:12.000Z</time>
      </trkpt>
      <trkpt lat="42.64933833" lon="-2.75410833">
        <ele>650.0</ele>
        <time>2021-10-22T09:22:13.000Z</time>
      </trkpt>
      <trkpt lat="42.64934" lon="-2.75410833">
        <ele>650.0</ele>
        <time>2021-10-22T09:22:14.000Z</time>
      </trkpt>
      <trkpt lat="42.64934" lon="-2.75410833">
        <ele>650.0</ele>
        <time>2021-10-22T09:22:15.000Z</time>
      </trkpt>
      <trkpt lat="42.64934167" lon="-2.75410833">
        <ele>651.0</ele>
        <time>2021-10-22T09:22:16.000Z</time>
      </trkpt>
      <trkpt lat="42.64934167" lon="-2.75410833">
        <ele>651.0</ele>
        <time>2021-10-22T09:22:17.000Z</time>
      </trkpt>
      <trkpt lat="42.64934167" lon="-2.75410667">
        <ele>651.0</ele>
        <time>2021-10-22T09:22:18.000Z</time>
      </trkpt>
      <trkpt lat="42.64934333" lon="-2.75410333">
        <ele>651.0</ele>
        <time>2021-10-22T09:22:19.000Z</time>
      </trkpt>
      <trkpt lat="42.649345" lon="-2.75410167">
        <ele>651.0</ele>
        <time>2021-10-22T09:22:20.000Z</time>
      </trkpt>
      <trkpt lat="42.64934667" lon="-2.754095">
        <ele>651.0</ele>
        <time>2021-10-22T09:22:21.000Z</time>
      </trkpt>
      <trkpt lat="42.64934667" lon="-2.754095">
        <ele>651.0</ele>
        <time>2021-10-22T09:22:22.000Z</time>
      </trkpt>
      <trkpt lat="42.64934833" lon="-2.75409">
        <ele>651.0</ele>
        <time>2021-10-22T09:22:23.000Z</time>
      </trkpt>
      <trkpt lat="42.64935" lon="-2.754085">
        <ele>651.0</ele>
        <time>2021-10-22T09:22:24.000Z</time>
      </trkpt>
      <trkpt lat="42.64935167" lon="-2.75408">
        <ele>651.0</ele>
        <time>2021-10-22T09:22:25.000Z</time>
      </trkpt>
      <trkpt lat="42.64935167" lon="-2.75407333">
        <ele>651.0</ele>
        <time>2021-10-22T09:22:26.000Z</time>
      </trkpt>
      <trkpt lat="42.64935" lon="-2.75406667">
        <ele>652.0</ele>
        <time>2021-10-22T09:22:27.000Z</time>
      </trkpt>
      <trkpt lat="42.64935" lon="-2.75406167">
        <ele>652.0</ele>
        <time>2021-10-22T09:22:28.000Z</time>
      </trkpt>
      <trkpt lat="42.64935" lon="-2.75405">
        <ele>652.0</ele>
        <time>2021-10-22T09:22:29.000Z</time>
      </trkpt>
      <trkpt lat="42.64935" lon="-2.75403667">
        <ele>652.0</ele>
        <time>2021-10-22T09:22:30.000Z</time>
      </trkpt>
      <trkpt lat="42.64934833" lon="-2.75402">
        <ele>652.0</ele>
        <time>2021-10-22T09:22:31.000Z</time>
      </trkpt>
      <trkpt lat="42.64934833" lon="-2.75400167">
        <ele>652.0</ele>
        <time>2021-10-22T09:22:32.000Z</time>
      </trkpt>
      <trkpt lat="42.64935" lon="-2.753985">
        <ele>652.0</ele>
        <time>2021-10-22T09:22:33.000Z</time>
      </trkpt>
      <trkpt lat="42.64935167" lon="-2.75396833">
        <ele>652.0</ele>
        <time>2021-10-22T09:22:34.000Z</time>
      </trkpt>
      <trkpt lat="42.649355" lon="-2.753955">
        <ele>652.0</ele>
        <time>2021-10-22T09:22:35.000Z</time>
      </trkpt>
      <trkpt lat="42.64936" lon="-2.75394167">
        <ele>652.0</ele>
        <time>2021-10-22T09:22:36.000Z</time>
      </trkpt>
      <trkpt lat="42.64936833" lon="-2.75393">
        <ele>652.0</ele>
        <time>2021-10-22T09:22:37.000Z</time>
      </trkpt>
      <trkpt lat="42.64937333" lon="-2.75391667">
        <ele>652.0</ele>
        <time>2021-10-22T09:22:38.000Z</time>
      </trkpt>
      <trkpt lat="42.64937833" lon="-2.75390167">
        <ele>652.0</ele>
        <time>2021-10-22T09:22:39.000Z</time>
      </trkpt>
      <trkpt lat="42.64938333" lon="-2.75389">
        <ele>652.0</ele>
        <time>2021-10-22T09:22:40.000Z</time>
      </trkpt>
      <trkpt lat="42.64938833" lon="-2.75387667">
        <ele>652.0</ele>
        <time>2021-10-22T09:22:41.000Z</time>
      </trkpt>
      <trkpt lat="42.64939333" lon="-2.75386333">
        <ele>652.0</ele>
        <time>2021-10-22T09:22:42.000Z</time>
      </trkpt>
      <trkpt lat="42.6494" lon="-2.75385167">
        <ele>652.0</ele>
        <time>2021-10-22T09:22:43.000Z</time>
      </trkpt>
      <trkpt lat="42.64940833" lon="-2.75384">
        <ele>652.0</ele>
        <time>2021-10-22T09:22:44.000Z</time>
      </trkpt>
      <trkpt lat="42.649415" lon="-2.75382833">
        <ele>652.0</ele>
        <time>2021-10-22T09:22:45.000Z</time>
      </trkpt>
      <trkpt lat="42.64942167" lon="-2.75381667">
        <ele>652.0</ele>
        <time>2021-10-22T09:22:46.000Z</time>
      </trkpt>
      <trkpt lat="42.64942833" lon="-2.75380833">
        <ele>652.0</ele>
        <time>2021-10-22T09:22:47.000Z</time>
      </trkpt>
      <trkpt lat="42.64943167" lon="-2.7538">
        <ele>652.0</ele>
        <time>2021-10-22T09:22:48.000Z</time>
      </trkpt>
      <trkpt lat="42.649435" lon="-2.75378833">
        <ele>652.0</ele>
        <time>2021-10-22T09:22:49.000Z</time>
      </trkpt>
      <trkpt lat="42.64943667" lon="-2.75377667">
        <ele>652.0</ele>
        <time>2021-10-22T09:22:50.000Z</time>
      </trkpt>
      <trkpt lat="42.64944167" lon="-2.75376333">
        <ele>653.0</ele>
        <time>2021-10-22T09:22:51.000Z</time>
      </trkpt>
      <trkpt lat="42.649445" lon="-2.75374667">
        <ele>653.0</ele>
        <time>2021-10-22T09:22:52.000Z</time>
      </trkpt>
      <trkpt lat="42.64944667" lon="-2.75373">
        <ele>653.0</ele>
        <time>2021-10-22T09:22:53.000Z</time>
      </trkpt>
      <trkpt lat="42.64945" lon="-2.75371333">
        <ele>653.0</ele>
        <time>2021-10-22T09:22:54.000Z</time>
      </trkpt>
      <trkpt lat="42.64945333" lon="-2.7537">
        <ele>653.0</ele>
        <time>2021-10-22T09:22:55.000Z</time>
      </trkpt>
      <trkpt lat="42.64945833" lon="-2.75368667">
        <ele>653.0</ele>
        <time>2021-10-22T09:22:56.000Z</time>
      </trkpt>
      <trkpt lat="42.64946333" lon="-2.75367167">
        <ele>653.0</ele>
        <time>2021-10-22T09:22:57.000Z</time>
      </trkpt>
      <trkpt lat="42.64946833" lon="-2.75365833">
        <ele>653.0</ele>
        <time>2021-10-22T09:22:58.000Z</time>
      </trkpt>
      <trkpt lat="42.64947333" lon="-2.75364833">
        <ele>653.0</ele>
        <time>2021-10-22T09:22:59.000Z</time>
      </trkpt>
      <trkpt lat="42.64947667" lon="-2.75363667">
        <ele>653.0</ele>
        <time>2021-10-22T09:23:00.000Z</time>
      </trkpt>
      <trkpt lat="42.64948333" lon="-2.75362333">
        <ele>653.0</ele>
        <time>2021-10-22T09:23:01.000Z</time>
      </trkpt>
      <trkpt lat="42.64949" lon="-2.75361167">
        <ele>653.0</ele>
        <time>2021-10-22T09:23:02.000Z</time>
      </trkpt>
      <trkpt lat="42.64949667" lon="-2.7536">
        <ele>653.0</ele>
        <time>2021-10-22T09:23:03.000Z</time>
      </trkpt>
      <trkpt lat="42.6495" lon="-2.75358667">
        <ele>653.0</ele>
        <time>2021-10-22T09:23:04.000Z</time>
      </trkpt>
      <trkpt lat="42.649505" lon="-2.753575">
        <ele>654.0</ele>
        <time>2021-10-22T09:23:05.000Z</time>
      </trkpt>
      <trkpt lat="42.64950833" lon="-2.75356333">
        <ele>654.0</ele>
        <time>2021-10-22T09:23:06.000Z</time>
      </trkpt>
      <trkpt lat="42.649515" lon="-2.75355">
        <ele>654.0</ele>
        <time>2021-10-22T09:23:07.000Z</time>
      </trkpt>
      <trkpt lat="42.64952" lon="-2.753535">
        <ele>654.0</ele>
        <time>2021-10-22T09:23:08.000Z</time>
      </trkpt>
      <trkpt lat="42.649525" lon="-2.75351833">
        <ele>654.0</ele>
        <time>2021-10-22T09:23:09.000Z</time>
      </trkpt>
      <trkpt lat="42.64953" lon="-2.75350167">
        <ele>654.0</ele>
        <time>2021-10-22T09:23:10.000Z</time>
      </trkpt>
      <trkpt lat="42.649535" lon="-2.75348833">
        <ele>654.0</ele>
        <time>2021-10-22T09:23:11.000Z</time>
      </trkpt>
      <trkpt lat="42.64954" lon="-2.75347333">
        <ele>654.0</ele>
        <time>2021-10-22T09:23:12.000Z</time>
      </trkpt>
      <trkpt lat="42.64954333" lon="-2.75345833">
        <ele>654.0</ele>
        <time>2021-10-22T09:23:13.000Z</time>
      </trkpt>
      <trkpt lat="42.64954667" lon="-2.75344333">
        <ele>655.0</ele>
        <time>2021-10-22T09:23:14.000Z</time>
      </trkpt>
      <trkpt lat="42.64955167" lon="-2.75343167">
        <ele>655.0</ele>
        <time>2021-10-22T09:23:15.000Z</time>
      </trkpt>
      <trkpt lat="42.64955667" lon="-2.75342167">
        <ele>655.0</ele>
        <time>2021-10-22T09:23:16.000Z</time>
      </trkpt>
      <trkpt lat="42.64956333" lon="-2.75341">
        <ele>655.0</ele>
        <time>2021-10-22T09:23:17.000Z</time>
      </trkpt>
      <trkpt lat="42.64956833" lon="-2.75340167">
        <ele>655.0</ele>
        <time>2021-10-22T09:23:18.000Z</time>
      </trkpt>
      <trkpt lat="42.64957667" lon="-2.75339167">
        <ele>655.0</ele>
        <time>2021-10-22T09:23:19.000Z</time>
      </trkpt>
      <trkpt lat="42.649585" lon="-2.75338333">
        <ele>655.0</ele>
        <time>2021-10-22T09:23:20.000Z</time>
      </trkpt>
      <trkpt lat="42.64959167" lon="-2.75337667">
        <ele>655.0</ele>
        <time>2021-10-22T09:23:21.000Z</time>
      </trkpt>
      <trkpt lat="42.64959667" lon="-2.75337167">
        <ele>655.0</ele>
        <time>2021-10-22T09:23:22.000Z</time>
      </trkpt>
      <trkpt lat="42.64960167" lon="-2.75336667">
        <ele>655.0</ele>
        <time>2021-10-22T09:23:23.000Z</time>
      </trkpt>
      <trkpt lat="42.64960333" lon="-2.75336333">
        <ele>655.0</ele>
        <time>2021-10-22T09:23:24.000Z</time>
      </trkpt>
      <trkpt lat="42.649605" lon="-2.753365">
        <ele>655.0</ele>
        <time>2021-10-22T09:23:25.000Z</time>
      </trkpt>
      <trkpt lat="42.649605" lon="-2.75336833">
        <ele>655.0</ele>
        <time>2021-10-22T09:23:26.000Z</time>
      </trkpt>
      <trkpt lat="42.64960333" lon="-2.75337333">
        <ele>655.0</ele>
        <time>2021-10-22T09:23:27.000Z</time>
      </trkpt>
      <trkpt lat="42.6496" lon="-2.75337833">
        <ele>655.0</ele>
        <time>2021-10-22T09:23:28.000Z</time>
      </trkpt>
      <trkpt lat="42.64959667" lon="-2.753385">
        <ele>655.0</ele>
        <time>2021-10-22T09:23:29.000Z</time>
      </trkpt>
      <trkpt lat="42.649595" lon="-2.75339167">
        <ele>655.0</ele>
        <time>2021-10-22T09:23:30.000Z</time>
      </trkpt>
      <trkpt lat="42.64959333" lon="-2.75339667">
        <ele>655.0</ele>
        <time>2021-10-22T09:23:31.000Z</time>
      </trkpt>
      <trkpt lat="42.64959" lon="-2.7534">
        <ele>655.0</ele>
        <time>2021-10-22T09:23:32.000Z</time>
      </trkpt>
      <trkpt lat="42.64958833" lon="-2.75340167">
        <ele>655.0</ele>
        <time>2021-10-22T09:23:33.000Z</time>
      </trkpt>
      <trkpt lat="42.64958667" lon="-2.75340333">
        <ele>655.0</ele>
        <time>2021-10-22T09:23:34.000Z</time>
      </trkpt>
      <trkpt lat="42.64958667" lon="-2.75340333">
        <ele>655.0</ele>
        <time>2021-10-22T09:23:35.000Z</time>
      </trkpt>
      <trkpt lat="42.64958667" lon="-2.75340167">
        <ele>655.0</ele>
        <time>2021-10-22T09:23:36.000Z</time>
      </trkpt>
      <trkpt lat="42.64958333" lon="-2.7534">
        <ele>655.0</ele>
        <time>2021-10-22T09:23:37.000Z</time>
      </trkpt>
      <trkpt lat="42.64958167" lon="-2.7534">
        <ele>655.0</ele>
        <time>2021-10-22T09:23:38.000Z</time>
      </trkpt>
      <trkpt lat="42.64958" lon="-2.75339667">
        <ele>655.0</ele>
        <time>2021-10-22T09:23:39.000Z</time>
      </trkpt>
      <trkpt lat="42.64957833" lon="-2.753395">
        <ele>654.0</ele>
        <time>2021-10-22T09:23:40.000Z</time>
      </trkpt>
      <trkpt lat="42.64957667" lon="-2.75339">
        <ele>654.0</ele>
        <time>2021-10-22T09:23:41.000Z</time>
      </trkpt>
      <trkpt lat="42.64957833" lon="-2.75338333">
        <ele>654.0</ele>
        <time>2021-10-22T09:23:42.000Z</time>
      </trkpt>
      <trkpt lat="42.64958" lon="-2.75337333">
        <ele>654.0</ele>
        <time>2021-10-22T09:23:43.000Z</time>
      </trkpt>
      <trkpt lat="42.64958333" lon="-2.75336333">
        <ele>654.0</ele>
        <time>2021-10-22T09:23:44.000Z</time>
      </trkpt>
      <trkpt lat="42.64958667" lon="-2.753355">
        <ele>654.0</ele>
        <time>2021-10-22T09:23:45.000Z</time>
      </trkpt>
      <trkpt lat="42.64959" lon="-2.753345">
        <ele>654.0</ele>
        <time>2021-10-22T09:23:46.000Z</time>
      </trkpt>
      <trkpt lat="42.64959333" lon="-2.75333333">
        <ele>654.0</ele>
        <time>2021-10-22T09:23:47.000Z</time>
      </trkpt>
      <trkpt lat="42.64959833" lon="-2.75332">
        <ele>654.0</ele>
        <time>2021-10-22T09:23:48.000Z</time>
      </trkpt>
      <trkpt lat="42.64960333" lon="-2.75330833">
        <ele>654.0</ele>
        <time>2021-10-22T09:23:49.000Z</time>
      </trkpt>
      <trkpt lat="42.64960667" lon="-2.75329667">
        <ele>654.0</ele>
        <time>2021-10-22T09:23:50.000Z</time>
      </trkpt>
      <trkpt lat="42.64961" lon="-2.75328833">
        <ele>654.0</ele>
        <time>2021-10-22T09:23:51.000Z</time>
      </trkpt>
      <trkpt lat="42.64961333" lon="-2.75327833">
        <ele>654.0</ele>
        <time>2021-10-22T09:23:52.000Z</time>
      </trkpt>
      <trkpt lat="42.64961667" lon="-2.75327">
        <ele>654.0</ele>
        <time>2021-10-22T09:23:53.000Z</time>
      </trkpt>
      <trkpt lat="42.64961833" lon="-2.75326">
        <ele>654.0</ele>
        <time>2021-10-22T09:23:54.000Z</time>
      </trkpt>
      <trkpt lat="42.64962333" lon="-2.75325333">
        <ele>654.0</ele>
        <time>2021-10-22T09:23:55.000Z</time>
      </trkpt>
      <trkpt lat="42.64962667" lon="-2.753245">
        <ele>654.0</ele>
        <time>2021-10-22T09:23:56.000Z</time>
      </trkpt>
      <trkpt lat="42.64963333" lon="-2.753235">
        <ele>654.0</ele>
        <time>2021-10-22T09:23:57.000Z</time>
      </trkpt>
      <trkpt lat="42.64964" lon="-2.75322833">
        <ele>654.0</ele>
        <time>2021-10-22T09:23:58.000Z</time>
      </trkpt>
      <trkpt lat="42.64964667" lon="-2.75322167">
        <ele>654.0</ele>
        <time>2021-10-22T09:23:59.000Z</time>
      </trkpt>
      <trkpt lat="42.64965333" lon="-2.75321167">
        <ele>654.0</ele>
        <time>2021-10-22T09:24:00.000Z</time>
      </trkpt>
      <trkpt lat="42.64966" lon="-2.75320333">
        <ele>654.0</ele>
        <time>2021-10-22T09:24:01.000Z</time>
      </trkpt>
      <trkpt lat="42.64966667" lon="-2.75319667">
        <ele>654.0</ele>
        <time>2021-10-22T09:24:02.000Z</time>
      </trkpt>
      <trkpt lat="42.64967333" lon="-2.75318667">
        <ele>654.0</ele>
        <time>2021-10-22T09:24:03.000Z</time>
      </trkpt>
      <trkpt lat="42.64967833" lon="-2.75318">
        <ele>654.0</ele>
        <time>2021-10-22T09:24:04.000Z</time>
      </trkpt>
      <trkpt lat="42.649685" lon="-2.75317167">
        <ele>655.0</ele>
        <time>2021-10-22T09:24:05.000Z</time>
      </trkpt>
      <trkpt lat="42.64969167" lon="-2.75316">
        <ele>655.0</ele>
        <time>2021-10-22T09:24:06.000Z</time>
      </trkpt>
      <trkpt lat="42.6497" lon="-2.75314667">
        <ele>655.0</ele>
        <time>2021-10-22T09:24:07.000Z</time>
      </trkpt>
      <trkpt lat="42.64970667" lon="-2.753135">
        <ele>655.0</ele>
        <time>2021-10-22T09:24:08.000Z</time>
      </trkpt>
      <trkpt lat="42.64971333" lon="-2.75312167">
        <ele>655.0</ele>
        <time>2021-10-22T09:24:09.000Z</time>
      </trkpt>
      <trkpt lat="42.64972167" lon="-2.75311">
        <ele>655.0</ele>
        <time>2021-10-22T09:24:10.000Z</time>
      </trkpt>
      <trkpt lat="42.64972833" lon="-2.75309333">
        <ele>655.0</ele>
        <time>2021-10-22T09:24:11.000Z</time>
      </trkpt>
      <trkpt lat="42.649735" lon="-2.75308">
        <ele>655.0</ele>
        <time>2021-10-22T09:24:12.000Z</time>
      </trkpt>
      <trkpt lat="42.64974" lon="-2.75306667">
        <ele>655.0</ele>
        <time>2021-10-22T09:24:13.000Z</time>
      </trkpt>
      <trkpt lat="42.649745" lon="-2.75305333">
        <ele>655.0</ele>
        <time>2021-10-22T09:24:14.000Z</time>
      </trkpt>
      <trkpt lat="42.64975167" lon="-2.75304">
        <ele>655.0</ele>
        <time>2021-10-22T09:24:15.000Z</time>
      </trkpt>
      <trkpt lat="42.64975833" lon="-2.75302667">
        <ele>655.0</ele>
        <time>2021-10-22T09:24:16.000Z</time>
      </trkpt>
      <trkpt lat="42.649765" lon="-2.75301333">
        <ele>655.0</ele>
        <time>2021-10-22T09:24:17.000Z</time>
      </trkpt>
      <trkpt lat="42.64977167" lon="-2.75299833">
        <ele>655.0</ele>
        <time>2021-10-22T09:24:18.000Z</time>
      </trkpt>
      <trkpt lat="42.64977667" lon="-2.75298333">
        <ele>655.0</ele>
        <time>2021-10-22T09:24:19.000Z</time>
      </trkpt>
      <trkpt lat="42.64978167" lon="-2.75296833">
        <ele>655.0</ele>
        <time>2021-10-22T09:24:20.000Z</time>
      </trkpt>
      <trkpt lat="42.64978667" lon="-2.75295333">
        <ele>655.0</ele>
        <time>2021-10-22T09:24:21.000Z</time>
      </trkpt>
      <trkpt lat="42.64979167" lon="-2.75294167">
        <ele>655.0</ele>
        <time>2021-10-22T09:24:22.000Z</time>
      </trkpt>
      <trkpt lat="42.64979667" lon="-2.75293167">
        <ele>655.0</ele>
        <time>2021-10-22T09:24:23.000Z</time>
      </trkpt>
      <trkpt lat="42.64979833" lon="-2.75292167">
        <ele>655.0</ele>
        <time>2021-10-22T09:24:24.000Z</time>
      </trkpt>
      <trkpt lat="42.6498" lon="-2.75290833">
        <ele>655.0</ele>
        <time>2021-10-22T09:24:25.000Z</time>
      </trkpt>
      <trkpt lat="42.64980167" lon="-2.75289667">
        <ele>655.0</ele>
        <time>2021-10-22T09:24:26.000Z</time>
      </trkpt>
      <trkpt lat="42.64980167" lon="-2.75288667">
        <ele>655.0</ele>
        <time>2021-10-22T09:24:27.000Z</time>
      </trkpt>
      <trkpt lat="42.64980333" lon="-2.752875">
        <ele>656.0</ele>
        <time>2021-10-22T09:24:28.000Z</time>
      </trkpt>
      <trkpt lat="42.64980333" lon="-2.75286333">
        <ele>656.0</ele>
        <time>2021-10-22T09:24:29.000Z</time>
      </trkpt>
      <trkpt lat="42.649805" lon="-2.752855">
        <ele>656.0</ele>
        <time>2021-10-22T09:24:30.000Z</time>
      </trkpt>
      <trkpt lat="42.64980833" lon="-2.75284667">
        <ele>656.0</ele>
        <time>2021-10-22T09:24:31.000Z</time>
      </trkpt>
      <trkpt lat="42.64981" lon="-2.75283833">
        <ele>656.0</ele>
        <time>2021-10-22T09:24:32.000Z</time>
      </trkpt>
      <trkpt lat="42.64981333" lon="-2.75282833">
        <ele>656.0</ele>
        <time>2021-10-22T09:24:33.000Z</time>
      </trkpt>
      <trkpt lat="42.64982" lon="-2.75282">
        <ele>656.0</ele>
        <time>2021-10-22T09:24:34.000Z</time>
      </trkpt>
      <trkpt lat="42.64982833" lon="-2.75281167">
        <ele>656.0</ele>
        <time>2021-10-22T09:24:35.000Z</time>
      </trkpt>
      <trkpt lat="42.64983333" lon="-2.75280667">
        <ele>656.0</ele>
        <time>2021-10-22T09:24:36.000Z</time>
      </trkpt>
      <trkpt lat="42.64984167" lon="-2.75280167">
        <ele>656.0</ele>
        <time>2021-10-22T09:24:37.000Z</time>
      </trkpt>
      <trkpt lat="42.64985" lon="-2.75279667">
        <ele>656.0</ele>
        <time>2021-10-22T09:24:38.000Z</time>
      </trkpt>
      <trkpt lat="42.64985667" lon="-2.75279167">
        <ele>656.0</ele>
        <time>2021-10-22T09:24:39.000Z</time>
      </trkpt>
      <trkpt lat="42.64986333" lon="-2.752785">
        <ele>656.0</ele>
        <time>2021-10-22T09:24:40.000Z</time>
      </trkpt>
      <trkpt lat="42.64987167" lon="-2.75277667">
        <ele>657.0</ele>
        <time>2021-10-22T09:24:41.000Z</time>
      </trkpt>
      <trkpt lat="42.64987833" lon="-2.75276833">
        <ele>657.0</ele>
        <time>2021-10-22T09:24:42.000Z</time>
      </trkpt>
      <trkpt lat="42.64988167" lon="-2.75276667">
        <ele>657.0</ele>
        <time>2021-10-22T09:24:43.000Z</time>
      </trkpt>
      <trkpt lat="42.64988333" lon="-2.75276333">
        <ele>657.0</ele>
        <time>2021-10-22T09:24:44.000Z</time>
      </trkpt>
      <trkpt lat="42.64988" lon="-2.752765">
        <ele>657.0</ele>
        <time>2021-10-22T09:24:45.000Z</time>
      </trkpt>
      <trkpt lat="42.64987333" lon="-2.75276833">
        <ele>657.0</ele>
        <time>2021-10-22T09:24:46.000Z</time>
      </trkpt>
      <trkpt lat="42.649865" lon="-2.75277333">
        <ele>657.0</ele>
        <time>2021-10-22T09:24:47.000Z</time>
      </trkpt>
      <trkpt lat="42.649855" lon="-2.75277667">
        <ele>657.0</ele>
        <time>2021-10-22T09:24:48.000Z</time>
      </trkpt>
      <trkpt lat="42.64984333" lon="-2.75277667">
        <ele>657.0</ele>
        <time>2021-10-22T09:24:49.000Z</time>
      </trkpt>
      <trkpt lat="42.64983" lon="-2.75277">
        <ele>657.0</ele>
        <time>2021-10-22T09:24:50.000Z</time>
      </trkpt>
      <trkpt lat="42.64982" lon="-2.75276">
        <ele>657.0</ele>
        <time>2021-10-22T09:24:51.000Z</time>
      </trkpt>
      <trkpt lat="42.64981167" lon="-2.75275">
        <ele>657.0</ele>
        <time>2021-10-22T09:24:52.000Z</time>
      </trkpt>
      <trkpt lat="42.64980167" lon="-2.75274">
        <ele>657.0</ele>
        <time>2021-10-22T09:24:53.000Z</time>
      </trkpt>
      <trkpt lat="42.64979167" lon="-2.75273">
        <ele>657.0</ele>
        <time>2021-10-22T09:24:54.000Z</time>
      </trkpt>
      <trkpt lat="42.64978167" lon="-2.75272">
        <ele>657.0</ele>
        <time>2021-10-22T09:24:55.000Z</time>
      </trkpt>
      <trkpt lat="42.64977333" lon="-2.75271">
        <ele>657.0</ele>
        <time>2021-10-22T09:24:56.000Z</time>
      </trkpt>
      <trkpt lat="42.64976167" lon="-2.75270167">
        <ele>656.0</ele>
        <time>2021-10-22T09:24:57.000Z</time>
      </trkpt>
      <trkpt lat="42.64975" lon="-2.75269333">
        <ele>656.0</ele>
        <time>2021-10-22T09:24:58.000Z</time>
      </trkpt>
      <trkpt lat="42.64973833" lon="-2.75268167">
        <ele>656.0</ele>
        <time>2021-10-22T09:24:59.000Z</time>
      </trkpt>
      <trkpt lat="42.64972833" lon="-2.752675">
        <ele>656.0</ele>
        <time>2021-10-22T09:25:00.000Z</time>
      </trkpt>
      <trkpt lat="42.64971833" lon="-2.75266667">
        <ele>656.0</ele>
        <time>2021-10-22T09:25:01.000Z</time>
      </trkpt>
      <trkpt lat="42.64970833" lon="-2.75266">
        <ele>656.0</ele>
        <time>2021-10-22T09:25:02.000Z</time>
      </trkpt>
      <trkpt lat="42.64969833" lon="-2.75265167">
        <ele>656.0</ele>
        <time>2021-10-22T09:25:03.000Z</time>
      </trkpt>
      <trkpt lat="42.64968667" lon="-2.752645">
        <ele>656.0</ele>
        <time>2021-10-22T09:25:04.000Z</time>
      </trkpt>
      <trkpt lat="42.64967667" lon="-2.75264">
        <ele>656.0</ele>
        <time>2021-10-22T09:25:05.000Z</time>
      </trkpt>
      <trkpt lat="42.64967" lon="-2.75263167">
        <ele>656.0</ele>
        <time>2021-10-22T09:25:06.000Z</time>
      </trkpt>
      <trkpt lat="42.64966333" lon="-2.752625">
        <ele>656.0</ele>
        <time>2021-10-22T09:25:07.000Z</time>
      </trkpt>
      <trkpt lat="42.64965333" lon="-2.75262">
        <ele>656.0</ele>
        <time>2021-10-22T09:25:08.000Z</time>
      </trkpt>
      <trkpt lat="42.649645" lon="-2.75261667">
        <ele>656.0</ele>
        <time>2021-10-22T09:25:09.000Z</time>
      </trkpt>
      <trkpt lat="42.64963667" lon="-2.75261167">
        <ele>656.0</ele>
        <time>2021-10-22T09:25:10.000Z</time>
      </trkpt>
      <trkpt lat="42.64962667" lon="-2.75260667">
        <ele>656.0</ele>
        <time>2021-10-22T09:25:11.000Z</time>
      </trkpt>
      <trkpt lat="42.64961667" lon="-2.75260167">
        <ele>656.0</ele>
        <time>2021-10-22T09:25:12.000Z</time>
      </trkpt>
      <trkpt lat="42.64961" lon="-2.7526">
        <ele>656.0</ele>
        <time>2021-10-22T09:25:13.000Z</time>
      </trkpt>
      <trkpt lat="42.64960167" lon="-2.75259667">
        <ele>656.0</ele>
        <time>2021-10-22T09:25:14.000Z</time>
      </trkpt>
      <trkpt lat="42.649595" lon="-2.75258833">
        <ele>656.0</ele>
        <time>2021-10-22T09:25:15.000Z</time>
      </trkpt>
      <trkpt lat="42.64958833" lon="-2.75258">
        <ele>656.0</ele>
        <time>2021-10-22T09:25:16.000Z</time>
      </trkpt>
      <trkpt lat="42.64958333" lon="-2.75257333">
        <ele>656.0</ele>
        <time>2021-10-22T09:25:17.000Z</time>
      </trkpt>
      <trkpt lat="42.64958167" lon="-2.75257">
        <ele>656.0</ele>
        <time>2021-10-22T09:25:18.000Z</time>
      </trkpt>
      <trkpt lat="42.64958" lon="-2.752565">
        <ele>656.0</ele>
        <time>2021-10-22T09:25:19.000Z</time>
      </trkpt>
      <trkpt lat="42.64958" lon="-2.75256167">
        <ele>656.0</ele>
        <time>2021-10-22T09:25:20.000Z</time>
      </trkpt>
      <trkpt lat="42.64957833" lon="-2.75256">
        <ele>656.0</ele>
        <time>2021-10-22T09:25:21.000Z</time>
      </trkpt>
      <trkpt lat="42.64957667" lon="-2.75256">
        <ele>656.0</ele>
        <time>2021-10-22T09:25:22.000Z</time>
      </trkpt>
      <trkpt lat="42.649575" lon="-2.75255833">
        <ele>656.0</ele>
        <time>2021-10-22T09:25:23.000Z</time>
      </trkpt>
      <trkpt lat="42.649575" lon="-2.75255833">
        <ele>656.0</ele>
        <time>2021-10-22T09:25:24.000Z</time>
      </trkpt>
      <trkpt lat="42.64957333" lon="-2.75255833">
        <ele>657.0</ele>
        <time>2021-10-22T09:25:25.000Z</time>
      </trkpt>
      <trkpt lat="42.64957" lon="-2.75256">
        <ele>657.0</ele>
        <time>2021-10-22T09:25:26.000Z</time>
      </trkpt>
      <trkpt lat="42.649565" lon="-2.75256333">
        <ele>657.0</ele>
        <time>2021-10-22T09:25:27.000Z</time>
      </trkpt>
      <trkpt lat="42.64955667" lon="-2.75256667">
        <ele>657.0</ele>
        <time>2021-10-22T09:25:28.000Z</time>
      </trkpt>
      <trkpt lat="42.64954833" lon="-2.75256833">
        <ele>657.0</ele>
        <time>2021-10-22T09:25:29.000Z</time>
      </trkpt>
      <trkpt lat="42.64954" lon="-2.75256833">
        <ele>657.0</ele>
        <time>2021-10-22T09:25:30.000Z</time>
      </trkpt>
      <trkpt lat="42.64953167" lon="-2.752565">
        <ele>657.0</ele>
        <time>2021-10-22T09:25:31.000Z</time>
      </trkpt>
      <trkpt lat="42.649525" lon="-2.75256167">
        <ele>657.0</ele>
        <time>2021-10-22T09:25:32.000Z</time>
      </trkpt>
      <trkpt lat="42.64951667" lon="-2.75255833">
        <ele>657.0</ele>
        <time>2021-10-22T09:25:33.000Z</time>
      </trkpt>
      <trkpt lat="42.64950667" lon="-2.752555">
        <ele>657.0</ele>
        <time>2021-10-22T09:25:34.000Z</time>
      </trkpt>
      <trkpt lat="42.649495" lon="-2.75255333">
        <ele>657.0</ele>
        <time>2021-10-22T09:25:35.000Z</time>
      </trkpt>
      <trkpt lat="42.64948167" lon="-2.75255">
        <ele>658.0</ele>
        <time>2021-10-22T09:25:36.000Z</time>
      </trkpt>
      <trkpt lat="42.64947" lon="-2.75254667">
        <ele>658.0</ele>
        <time>2021-10-22T09:25:37.000Z</time>
      </trkpt>
      <trkpt lat="42.64945833" lon="-2.75254333">
        <ele>658.0</ele>
        <time>2021-10-22T09:25:38.000Z</time>
      </trkpt>
      <trkpt lat="42.64944667" lon="-2.75254">
        <ele>658.0</ele>
        <time>2021-10-22T09:25:39.000Z</time>
      </trkpt>
      <trkpt lat="42.64943667" lon="-2.75253667">
        <ele>658.0</ele>
        <time>2021-10-22T09:25:40.000Z</time>
      </trkpt>
      <trkpt lat="42.64942667" lon="-2.75253">
        <ele>658.0</ele>
        <time>2021-10-22T09:25:41.000Z</time>
      </trkpt>
      <trkpt lat="42.64941667" lon="-2.75252667">
        <ele>658.0</ele>
        <time>2021-10-22T09:25:42.000Z</time>
      </trkpt>
      <trkpt lat="42.64941167" lon="-2.752525">
        <ele>658.0</ele>
        <time>2021-10-22T09:25:43.000Z</time>
      </trkpt>
      <trkpt lat="42.649405" lon="-2.75252167">
        <ele>659.0</ele>
        <time>2021-10-22T09:25:44.000Z</time>
      </trkpt>
      <trkpt lat="42.649395" lon="-2.75251833">
        <ele>659.0</ele>
        <time>2021-10-22T09:25:45.000Z</time>
      </trkpt>
      <trkpt lat="42.64938833" lon="-2.75251333">
        <ele>659.0</ele>
        <time>2021-10-22T09:25:46.000Z</time>
      </trkpt>
      <trkpt lat="42.64937833" lon="-2.75251167">
        <ele>659.0</ele>
        <time>2021-10-22T09:25:47.000Z</time>
      </trkpt>
      <trkpt lat="42.64937" lon="-2.75251167">
        <ele>659.0</ele>
        <time>2021-10-22T09:25:48.000Z</time>
      </trkpt>
      <trkpt lat="42.64936167" lon="-2.75251">
        <ele>659.0</ele>
        <time>2021-10-22T09:25:49.000Z</time>
      </trkpt>
      <trkpt lat="42.64935" lon="-2.75251">
        <ele>659.0</ele>
        <time>2021-10-22T09:25:50.000Z</time>
      </trkpt>
      <trkpt lat="42.64933833" lon="-2.75251">
        <ele>659.0</ele>
        <time>2021-10-22T09:25:51.000Z</time>
      </trkpt>
      <trkpt lat="42.64932667" lon="-2.75251167">
        <ele>660.0</ele>
        <time>2021-10-22T09:25:52.000Z</time>
      </trkpt>
      <trkpt lat="42.64931667" lon="-2.75251333">
        <ele>660.0</ele>
        <time>2021-10-22T09:25:53.000Z</time>
      </trkpt>
      <trkpt lat="42.649305" lon="-2.752515">
        <ele>660.0</ele>
        <time>2021-10-22T09:25:54.000Z</time>
      </trkpt>
      <trkpt lat="42.649295" lon="-2.75251667">
        <ele>660.0</ele>
        <time>2021-10-22T09:25:55.000Z</time>
      </trkpt>
      <trkpt lat="42.649285" lon="-2.75251667">
        <ele>660.0</ele>
        <time>2021-10-22T09:25:56.000Z</time>
      </trkpt>
      <trkpt lat="42.64927" lon="-2.75252">
        <ele>660.0</ele>
        <time>2021-10-22T09:25:57.000Z</time>
      </trkpt>
      <trkpt lat="42.64925333" lon="-2.752525">
        <ele>660.0</ele>
        <time>2021-10-22T09:25:58.000Z</time>
      </trkpt>
      <trkpt lat="42.64924" lon="-2.75252667">
        <ele>660.0</ele>
        <time>2021-10-22T09:25:59.000Z</time>
      </trkpt>
      <trkpt lat="42.64922833" lon="-2.75252833">
        <ele>660.0</ele>
        <time>2021-10-22T09:26:00.000Z</time>
      </trkpt>
      <trkpt lat="42.64921667" lon="-2.75252667">
        <ele>660.0</ele>
        <time>2021-10-22T09:26:01.000Z</time>
      </trkpt>
      <trkpt lat="42.64920833" lon="-2.752525">
        <ele>660.0</ele>
        <time>2021-10-22T09:26:02.000Z</time>
      </trkpt>
      <trkpt lat="42.64919833" lon="-2.752525">
        <ele>660.0</ele>
        <time>2021-10-22T09:26:03.000Z</time>
      </trkpt>
      <trkpt lat="42.64918667" lon="-2.752525">
        <ele>661.0</ele>
        <time>2021-10-22T09:26:04.000Z</time>
      </trkpt>
      <trkpt lat="42.64917333" lon="-2.752525">
        <ele>661.0</ele>
        <time>2021-10-22T09:26:05.000Z</time>
      </trkpt>
      <trkpt lat="42.64916167" lon="-2.752525">
        <ele>661.0</ele>
        <time>2021-10-22T09:26:06.000Z</time>
      </trkpt>
      <trkpt lat="42.64914833" lon="-2.75252333">
        <ele>661.0</ele>
        <time>2021-10-22T09:26:07.000Z</time>
      </trkpt>
      <trkpt lat="42.64913667" lon="-2.75251833">
        <ele>661.0</ele>
        <time>2021-10-22T09:26:08.000Z</time>
      </trkpt>
      <trkpt lat="42.64912333" lon="-2.75250833">
        <ele>661.0</ele>
        <time>2021-10-22T09:26:09.000Z</time>
      </trkpt>
      <trkpt lat="42.64911" lon="-2.7525">
        <ele>661.0</ele>
        <time>2021-10-22T09:26:10.000Z</time>
      </trkpt>
      <trkpt lat="42.64909833" lon="-2.75249167">
        <ele>661.0</ele>
        <time>2021-10-22T09:26:11.000Z</time>
      </trkpt>
      <trkpt lat="42.64908667" lon="-2.75248167">
        <ele>661.0</ele>
        <time>2021-10-22T09:26:12.000Z</time>
      </trkpt>
      <trkpt lat="42.649075" lon="-2.75247167">
        <ele>661.0</ele>
        <time>2021-10-22T09:26:13.000Z</time>
      </trkpt>
      <trkpt lat="42.649065" lon="-2.75246333">
        <ele>661.0</ele>
        <time>2021-10-22T09:26:14.000Z</time>
      </trkpt>
      <trkpt lat="42.649055" lon="-2.75245667">
        <ele>661.0</ele>
        <time>2021-10-22T09:26:15.000Z</time>
      </trkpt>
      <trkpt lat="42.64904667" lon="-2.75244667">
        <ele>661.0</ele>
        <time>2021-10-22T09:26:16.000Z</time>
      </trkpt>
      <trkpt lat="42.64903833" lon="-2.75243667">
        <ele>661.0</ele>
        <time>2021-10-22T09:26:17.000Z</time>
      </trkpt>
      <trkpt lat="42.64902833" lon="-2.75242833">
        <ele>661.0</ele>
        <time>2021-10-22T09:26:18.000Z</time>
      </trkpt>
      <trkpt lat="42.64902167" lon="-2.75242">
        <ele>661.0</ele>
        <time>2021-10-22T09:26:19.000Z</time>
      </trkpt>
      <trkpt lat="42.649015" lon="-2.75241167">
        <ele>661.0</ele>
        <time>2021-10-22T09:26:20.000Z</time>
      </trkpt>
      <trkpt lat="42.64901" lon="-2.75240167">
        <ele>661.0</ele>
        <time>2021-10-22T09:26:21.000Z</time>
      </trkpt>
      <trkpt lat="42.64900167" lon="-2.75239333">
        <ele>661.0</ele>
        <time>2021-10-22T09:26:22.000Z</time>
      </trkpt>
      <trkpt lat="42.648995" lon="-2.752385">
        <ele>661.0</ele>
        <time>2021-10-22T09:26:23.000Z</time>
      </trkpt>
      <trkpt lat="42.64899" lon="-2.752375">
        <ele>661.0</ele>
        <time>2021-10-22T09:26:24.000Z</time>
      </trkpt>
      <trkpt lat="42.648985" lon="-2.752365">
        <ele>661.0</ele>
        <time>2021-10-22T09:26:25.000Z</time>
      </trkpt>
      <trkpt lat="42.64898" lon="-2.752355">
        <ele>661.0</ele>
        <time>2021-10-22T09:26:26.000Z</time>
      </trkpt>
      <trkpt lat="42.648975" lon="-2.75234667">
        <ele>661.0</ele>
        <time>2021-10-22T09:26:27.000Z</time>
      </trkpt>
      <trkpt lat="42.64897333" lon="-2.75234333">
        <ele>661.0</ele>
        <time>2021-10-22T09:26:28.000Z</time>
      </trkpt>
      <trkpt lat="42.64897333" lon="-2.75233833">
        <ele>661.0</ele>
        <time>2021-10-22T09:26:29.000Z</time>
      </trkpt>
      <trkpt lat="42.64897167" lon="-2.75233667">
        <ele>661.0</ele>
        <time>2021-10-22T09:26:30.000Z</time>
      </trkpt>
      <trkpt lat="42.64897167" lon="-2.75233333">
        <ele>662.0</ele>
        <time>2021-10-22T09:26:31.000Z</time>
      </trkpt>
      <trkpt lat="42.64897" lon="-2.75233167">
        <ele>662.0</ele>
        <time>2021-10-22T09:26:32.000Z</time>
      </trkpt>
      <trkpt lat="42.64896833" lon="-2.75232833">
        <ele>662.0</ele>
        <time>2021-10-22T09:26:33.000Z</time>
      </trkpt>
      <trkpt lat="42.64896833" lon="-2.75232667">
        <ele>662.0</ele>
        <time>2021-10-22T09:26:34.000Z</time>
      </trkpt>
      <trkpt lat="42.64896833" lon="-2.752325">
        <ele>662.0</ele>
        <time>2021-10-22T09:26:35.000Z</time>
      </trkpt>
      <trkpt lat="42.64896833" lon="-2.75232333">
        <ele>662.0</ele>
        <time>2021-10-22T09:26:36.000Z</time>
      </trkpt>
      <trkpt lat="42.648965" lon="-2.75232">
        <ele>662.0</ele>
        <time>2021-10-22T09:26:37.000Z</time>
      </trkpt>
      <trkpt lat="42.64896167" lon="-2.75231333">
        <ele>662.0</ele>
        <time>2021-10-22T09:26:38.000Z</time>
      </trkpt>
      <trkpt lat="42.64895667" lon="-2.75230667">
        <ele>662.0</ele>
        <time>2021-10-22T09:26:39.000Z</time>
      </trkpt>
      <trkpt lat="42.64895167" lon="-2.75229833">
        <ele>662.0</ele>
        <time>2021-10-22T09:26:40.000Z</time>
      </trkpt>
      <trkpt lat="42.64894667" lon="-2.75229">
        <ele>662.0</ele>
        <time>2021-10-22T09:26:41.000Z</time>
      </trkpt>
      <trkpt lat="42.64893833" lon="-2.75228">
        <ele>662.0</ele>
        <time>2021-10-22T09:26:42.000Z</time>
      </trkpt>
      <trkpt lat="42.64892833" lon="-2.75227167">
        <ele>662.0</ele>
        <time>2021-10-22T09:26:43.000Z</time>
      </trkpt>
      <trkpt lat="42.64891667" lon="-2.75226167">
        <ele>662.0</ele>
        <time>2021-10-22T09:26:44.000Z</time>
      </trkpt>
      <trkpt lat="42.64890667" lon="-2.75225">
        <ele>662.0</ele>
        <time>2021-10-22T09:26:45.000Z</time>
      </trkpt>
      <trkpt lat="42.6489" lon="-2.75223667">
        <ele>662.0</ele>
        <time>2021-10-22T09:26:46.000Z</time>
      </trkpt>
      <trkpt lat="42.64889333" lon="-2.75222">
        <ele>662.0</ele>
        <time>2021-10-22T09:26:47.000Z</time>
      </trkpt>
      <trkpt lat="42.64888833" lon="-2.752205">
        <ele>662.0</ele>
        <time>2021-10-22T09:26:48.000Z</time>
      </trkpt>
      <trkpt lat="42.64888667" lon="-2.75219167">
        <ele>662.0</ele>
        <time>2021-10-22T09:26:49.000Z</time>
      </trkpt>
      <trkpt lat="42.64888667" lon="-2.75217667">
        <ele>662.0</ele>
        <time>2021-10-22T09:26:50.000Z</time>
      </trkpt>
      <trkpt lat="42.64888833" lon="-2.75216167">
        <ele>662.0</ele>
        <time>2021-10-22T09:26:51.000Z</time>
      </trkpt>
      <trkpt lat="42.648895" lon="-2.75214333">
        <ele>662.0</ele>
        <time>2021-10-22T09:26:52.000Z</time>
      </trkpt>
      <trkpt lat="42.6489" lon="-2.75212833">
        <ele>662.0</ele>
        <time>2021-10-22T09:26:53.000Z</time>
      </trkpt>
      <trkpt lat="42.64890333" lon="-2.75211333">
        <ele>662.0</ele>
        <time>2021-10-22T09:26:54.000Z</time>
      </trkpt>
      <trkpt lat="42.64890667" lon="-2.75209667">
        <ele>662.0</ele>
        <time>2021-10-22T09:26:55.000Z</time>
      </trkpt>
      <trkpt lat="42.64890833" lon="-2.75207667">
        <ele>662.0</ele>
        <time>2021-10-22T09:26:56.000Z</time>
      </trkpt>
      <trkpt lat="42.64891" lon="-2.75206">
        <ele>662.0</ele>
        <time>2021-10-22T09:26:57.000Z</time>
      </trkpt>
      <trkpt lat="42.64891333" lon="-2.75204">
        <ele>662.0</ele>
        <time>2021-10-22T09:26:58.000Z</time>
      </trkpt>
      <trkpt lat="42.648915" lon="-2.752025">
        <ele>662.0</ele>
        <time>2021-10-22T09:26:59.000Z</time>
      </trkpt>
      <trkpt lat="42.64891667" lon="-2.75202">
        <ele>662.0</ele>
        <time>2021-10-22T09:27:00.000Z</time>
      </trkpt>
      <trkpt lat="42.64891667" lon="-2.75201667">
        <ele>662.0</ele>
        <time>2021-10-22T09:27:01.000Z</time>
      </trkpt>
      <trkpt lat="42.64891667" lon="-2.752015">
        <ele>662.0</ele>
        <time>2021-10-22T09:27:02.000Z</time>
      </trkpt>
      <trkpt lat="42.64891833" lon="-2.75201">
        <ele>662.0</ele>
        <time>2021-10-22T09:27:03.000Z</time>
      </trkpt>
      <trkpt lat="42.64891667" lon="-2.75200667">
        <ele>661.0</ele>
        <time>2021-10-22T09:27:04.000Z</time>
      </trkpt>
      <trkpt lat="42.648915" lon="-2.75200167">
        <ele>661.0</ele>
        <time>2021-10-22T09:27:05.000Z</time>
      </trkpt>
      <trkpt lat="42.64891167" lon="-2.75199333">
        <ele>661.0</ele>
        <time>2021-10-22T09:27:06.000Z</time>
      </trkpt>
      <trkpt lat="42.64890833" lon="-2.75198167">
        <ele>661.0</ele>
        <time>2021-10-22T09:27:07.000Z</time>
      </trkpt>
      <trkpt lat="42.64890333" lon="-2.75197333">
        <ele>661.0</ele>
        <time>2021-10-22T09:27:08.000Z</time>
      </trkpt>
      <trkpt lat="42.64889833" lon="-2.75196333">
        <ele>661.0</ele>
        <time>2021-10-22T09:27:09.000Z</time>
      </trkpt>
      <trkpt lat="42.648895" lon="-2.75195167">
        <ele>661.0</ele>
        <time>2021-10-22T09:27:10.000Z</time>
      </trkpt>
      <trkpt lat="42.64889" lon="-2.75194167">
        <ele>661.0</ele>
        <time>2021-10-22T09:27:11.000Z</time>
      </trkpt>
      <trkpt lat="42.64888333" lon="-2.751935">
        <ele>661.0</ele>
        <time>2021-10-22T09:27:12.000Z</time>
      </trkpt>
      <trkpt lat="42.64887333" lon="-2.75192667">
        <ele>661.0</ele>
        <time>2021-10-22T09:27:13.000Z</time>
      </trkpt>
      <trkpt lat="42.64886333" lon="-2.75191833">
        <ele>661.0</ele>
        <time>2021-10-22T09:27:14.000Z</time>
      </trkpt>
      <trkpt lat="42.64885333" lon="-2.75191">
        <ele>660.0</ele>
        <time>2021-10-22T09:27:15.000Z</time>
      </trkpt>
      <trkpt lat="42.64884667" lon="-2.7519">
        <ele>660.0</ele>
        <time>2021-10-22T09:27:16.000Z</time>
      </trkpt>
      <trkpt lat="42.64884" lon="-2.75189167">
        <ele>660.0</ele>
        <time>2021-10-22T09:27:17.000Z</time>
      </trkpt>
      <trkpt lat="42.64883167" lon="-2.751885">
        <ele>660.0</ele>
        <time>2021-10-22T09:27:18.000Z</time>
      </trkpt>
      <trkpt lat="42.64882333" lon="-2.75187833">
        <ele>660.0</ele>
        <time>2021-10-22T09:27:19.000Z</time>
      </trkpt>
      <trkpt lat="42.648815" lon="-2.75187167">
        <ele>660.0</ele>
        <time>2021-10-22T09:27:20.000Z</time>
      </trkpt>
      <trkpt lat="42.64880833" lon="-2.751865">
        <ele>660.0</ele>
        <time>2021-10-22T09:27:21.000Z</time>
      </trkpt>
      <trkpt lat="42.6488" lon="-2.75186">
        <ele>660.0</ele>
        <time>2021-10-22T09:27:22.000Z</time>
      </trkpt>
      <trkpt lat="42.64879167" lon="-2.75185167">
        <ele>660.0</ele>
        <time>2021-10-22T09:27:23.000Z</time>
      </trkpt>
      <trkpt lat="42.648785" lon="-2.751845">
        <ele>660.0</ele>
        <time>2021-10-22T09:27:24.000Z</time>
      </trkpt>
      <trkpt lat="42.64877667" lon="-2.75183833">
        <ele>660.0</ele>
        <time>2021-10-22T09:27:25.000Z</time>
      </trkpt>
      <trkpt lat="42.64876833" lon="-2.75183333">
        <ele>660.0</ele>
        <time>2021-10-22T09:27:26.000Z</time>
      </trkpt>
      <trkpt lat="42.64875833" lon="-2.75182833">
        <ele>660.0</ele>
        <time>2021-10-22T09:27:27.000Z</time>
      </trkpt>
      <trkpt lat="42.64874833" lon="-2.75182167">
        <ele>660.0</ele>
        <time>2021-10-22T09:27:28.000Z</time>
      </trkpt>
      <trkpt lat="42.64873667" lon="-2.75181667">
        <ele>660.0</ele>
        <time>2021-10-22T09:27:29.000Z</time>
      </trkpt>
      <trkpt lat="42.64872667" lon="-2.75181">
        <ele>660.0</ele>
        <time>2021-10-22T09:27:30.000Z</time>
      </trkpt>
      <trkpt lat="42.64871667" lon="-2.751805">
        <ele>660.0</ele>
        <time>2021-10-22T09:27:31.000Z</time>
      </trkpt>
      <trkpt lat="42.64870667" lon="-2.7518">
        <ele>660.0</ele>
        <time>2021-10-22T09:27:32.000Z</time>
      </trkpt>
      <trkpt lat="42.648695" lon="-2.75179833">
        <ele>660.0</ele>
        <time>2021-10-22T09:27:33.000Z</time>
      </trkpt>
      <trkpt lat="42.648685" lon="-2.751795">
        <ele>660.0</ele>
        <time>2021-10-22T09:27:34.000Z</time>
      </trkpt>
      <trkpt lat="42.64867667" lon="-2.75179167">
        <ele>660.0</ele>
        <time>2021-10-22T09:27:35.000Z</time>
      </trkpt>
      <trkpt lat="42.64866667" lon="-2.75178833">
        <ele>660.0</ele>
        <time>2021-10-22T09:27:36.000Z</time>
      </trkpt>
      <trkpt lat="42.64865333" lon="-2.75178333">
        <ele>660.0</ele>
        <time>2021-10-22T09:27:37.000Z</time>
      </trkpt>
      <trkpt lat="42.64864167" lon="-2.75178">
        <ele>661.0</ele>
        <time>2021-10-22T09:27:38.000Z</time>
      </trkpt>
      <trkpt lat="42.64863167" lon="-2.75177667">
        <ele>661.0</ele>
        <time>2021-10-22T09:27:39.000Z</time>
      </trkpt>
      <trkpt lat="42.64861833" lon="-2.75177333">
        <ele>661.0</ele>
        <time>2021-10-22T09:27:40.000Z</time>
      </trkpt>
      <trkpt lat="42.64860833" lon="-2.75176833">
        <ele>661.0</ele>
        <time>2021-10-22T09:27:41.000Z</time>
      </trkpt>
      <trkpt lat="42.64859667" lon="-2.75176167">
        <ele>661.0</ele>
        <time>2021-10-22T09:27:42.000Z</time>
      </trkpt>
      <trkpt lat="42.64858833" lon="-2.75175667">
        <ele>661.0</ele>
        <time>2021-10-22T09:27:43.000Z</time>
      </trkpt>
      <trkpt lat="42.64857667" lon="-2.751755">
        <ele>661.0</ele>
        <time>2021-10-22T09:27:44.000Z</time>
      </trkpt>
      <trkpt lat="42.64856833" lon="-2.75175167">
        <ele>661.0</ele>
        <time>2021-10-22T09:27:45.000Z</time>
      </trkpt>
      <trkpt lat="42.64855833" lon="-2.75174833">
        <ele>661.0</ele>
        <time>2021-10-22T09:27:46.000Z</time>
      </trkpt>
      <trkpt lat="42.64854833" lon="-2.751745">
        <ele>661.0</ele>
        <time>2021-10-22T09:27:47.000Z</time>
      </trkpt>
      <trkpt lat="42.64854" lon="-2.751745">
        <ele>662.0</ele>
        <time>2021-10-22T09:27:48.000Z</time>
      </trkpt>
      <trkpt lat="42.64853" lon="-2.75174833">
        <ele>662.0</ele>
        <time>2021-10-22T09:27:49.000Z</time>
      </trkpt>
      <trkpt lat="42.64852167" lon="-2.75175">
        <ele>662.0</ele>
        <time>2021-10-22T09:27:50.000Z</time>
      </trkpt>
      <trkpt lat="42.648515" lon="-2.75175">
        <ele>662.0</ele>
        <time>2021-10-22T09:27:51.000Z</time>
      </trkpt>
      <trkpt lat="42.64850833" lon="-2.75175167">
        <ele>662.0</ele>
        <time>2021-10-22T09:27:52.000Z</time>
      </trkpt>
      <trkpt lat="42.64850167" lon="-2.75175333">
        <ele>662.0</ele>
        <time>2021-10-22T09:27:53.000Z</time>
      </trkpt>
      <trkpt lat="42.64849333" lon="-2.75175333">
        <ele>662.0</ele>
        <time>2021-10-22T09:27:54.000Z</time>
      </trkpt>
      <trkpt lat="42.648485" lon="-2.75175667">
        <ele>662.0</ele>
        <time>2021-10-22T09:27:55.000Z</time>
      </trkpt>
      <trkpt lat="42.64847333" lon="-2.75175833">
        <ele>662.0</ele>
        <time>2021-10-22T09:27:56.000Z</time>
      </trkpt>
      <trkpt lat="42.648465" lon="-2.75175833">
        <ele>662.0</ele>
        <time>2021-10-22T09:27:57.000Z</time>
      </trkpt>
      <trkpt lat="42.64845833" lon="-2.75175833">
        <ele>662.0</ele>
        <time>2021-10-22T09:27:58.000Z</time>
      </trkpt>
      <trkpt lat="42.64845" lon="-2.75175833">
        <ele>662.0</ele>
        <time>2021-10-22T09:27:59.000Z</time>
      </trkpt>
      <trkpt lat="42.64844167" lon="-2.75176">
        <ele>662.0</ele>
        <time>2021-10-22T09:28:00.000Z</time>
      </trkpt>
      <trkpt lat="42.64843" lon="-2.75176333">
        <ele>662.0</ele>
        <time>2021-10-22T09:28:01.000Z</time>
      </trkpt>
      <trkpt lat="42.64842" lon="-2.751765">
        <ele>662.0</ele>
        <time>2021-10-22T09:28:02.000Z</time>
      </trkpt>
      <trkpt lat="42.64841" lon="-2.75176833">
        <ele>662.0</ele>
        <time>2021-10-22T09:28:03.000Z</time>
      </trkpt>
      <trkpt lat="42.64840167" lon="-2.75177167">
        <ele>662.0</ele>
        <time>2021-10-22T09:28:04.000Z</time>
      </trkpt>
      <trkpt lat="42.64839167" lon="-2.751775">
        <ele>662.0</ele>
        <time>2021-10-22T09:28:05.000Z</time>
      </trkpt>
      <trkpt lat="42.64837833" lon="-2.75177833">
        <ele>662.0</ele>
        <time>2021-10-22T09:28:06.000Z</time>
      </trkpt>
      <trkpt lat="42.64836167" lon="-2.75178333">
        <ele>662.0</ele>
        <time>2021-10-22T09:28:07.000Z</time>
      </trkpt>
      <trkpt lat="42.64834833" lon="-2.75178833">
        <ele>662.0</ele>
        <time>2021-10-22T09:28:08.000Z</time>
      </trkpt>
      <trkpt lat="42.64833667" lon="-2.75179333">
        <ele>662.0</ele>
        <time>2021-10-22T09:28:09.000Z</time>
      </trkpt>
      <trkpt lat="42.648325" lon="-2.75179833">
        <ele>662.0</ele>
        <time>2021-10-22T09:28:10.000Z</time>
      </trkpt>
      <trkpt lat="42.64831667" lon="-2.75180333">
        <ele>662.0</ele>
        <time>2021-10-22T09:28:11.000Z</time>
      </trkpt>
      <trkpt lat="42.64830833" lon="-2.75180667">
        <ele>662.0</ele>
        <time>2021-10-22T09:28:12.000Z</time>
      </trkpt>
      <trkpt lat="42.6483" lon="-2.75181333">
        <ele>662.0</ele>
        <time>2021-10-22T09:28:13.000Z</time>
      </trkpt>
      <trkpt lat="42.64828833" lon="-2.75182">
        <ele>662.0</ele>
        <time>2021-10-22T09:28:14.000Z</time>
      </trkpt>
      <trkpt lat="42.64827667" lon="-2.75182333">
        <ele>662.0</ele>
        <time>2021-10-22T09:28:15.000Z</time>
      </trkpt>
      <trkpt lat="42.648265" lon="-2.75182667">
        <ele>663.0</ele>
        <time>2021-10-22T09:28:16.000Z</time>
      </trkpt>
      <trkpt lat="42.648255" lon="-2.75183333">
        <ele>663.0</ele>
        <time>2021-10-22T09:28:17.000Z</time>
      </trkpt>
      <trkpt lat="42.64824833" lon="-2.75184">
        <ele>663.0</ele>
        <time>2021-10-22T09:28:18.000Z</time>
      </trkpt>
      <trkpt lat="42.648245" lon="-2.75184833">
        <ele>663.0</ele>
        <time>2021-10-22T09:28:19.000Z</time>
      </trkpt>
      <trkpt lat="42.64824167" lon="-2.75185167">
        <ele>663.0</ele>
        <time>2021-10-22T09:28:20.000Z</time>
      </trkpt>
      <trkpt lat="42.64824167" lon="-2.75185667">
        <ele>663.0</ele>
        <time>2021-10-22T09:28:21.000Z</time>
      </trkpt>
      <trkpt lat="42.64824167" lon="-2.75186167">
        <ele>663.0</ele>
        <time>2021-10-22T09:28:22.000Z</time>
      </trkpt>
      <trkpt lat="42.64824" lon="-2.75186333">
        <ele>663.0</ele>
        <time>2021-10-22T09:28:23.000Z</time>
      </trkpt>
      <trkpt lat="42.64824" lon="-2.75186333">
        <ele>663.0</ele>
        <time>2021-10-22T09:28:24.000Z</time>
      </trkpt>
      <trkpt lat="42.64823833" lon="-2.75186333">
        <ele>663.0</ele>
        <time>2021-10-22T09:28:25.000Z</time>
      </trkpt>
      <trkpt lat="42.64823333" lon="-2.75185833">
        <ele>663.0</ele>
        <time>2021-10-22T09:28:26.000Z</time>
      </trkpt>
      <trkpt lat="42.64822833" lon="-2.75185333">
        <ele>663.0</ele>
        <time>2021-10-22T09:28:27.000Z</time>
      </trkpt>
      <trkpt lat="42.64822167" lon="-2.75185">
        <ele>663.0</ele>
        <time>2021-10-22T09:28:28.000Z</time>
      </trkpt>
      <trkpt lat="42.64821333" lon="-2.75185">
        <ele>663.0</ele>
        <time>2021-10-22T09:28:29.000Z</time>
      </trkpt>
      <trkpt lat="42.648205" lon="-2.75185">
        <ele>663.0</ele>
        <time>2021-10-22T09:28:30.000Z</time>
      </trkpt>
      <trkpt lat="42.64819833" lon="-2.75185333">
        <ele>663.0</ele>
        <time>2021-10-22T09:28:31.000Z</time>
      </trkpt>
      <trkpt lat="42.64819" lon="-2.751855">
        <ele>663.0</ele>
        <time>2021-10-22T09:28:32.000Z</time>
      </trkpt>
      <trkpt lat="42.648185" lon="-2.751855">
        <ele>663.0</ele>
        <time>2021-10-22T09:28:33.000Z</time>
      </trkpt>
      <trkpt lat="42.64817667" lon="-2.751855">
        <ele>664.0</ele>
        <time>2021-10-22T09:28:34.000Z</time>
      </trkpt>
      <trkpt lat="42.64817" lon="-2.75185833">
        <ele>664.0</ele>
        <time>2021-10-22T09:28:35.000Z</time>
      </trkpt>
      <trkpt lat="42.64816167" lon="-2.75186">
        <ele>664.0</ele>
        <time>2021-10-22T09:28:36.000Z</time>
      </trkpt>
      <trkpt lat="42.64815167" lon="-2.75186167">
        <ele>664.0</ele>
        <time>2021-10-22T09:28:37.000Z</time>
      </trkpt>
      <trkpt lat="42.64814333" lon="-2.75186">
        <ele>664.0</ele>
        <time>2021-10-22T09:28:38.000Z</time>
      </trkpt>
      <trkpt lat="42.64814167" lon="-2.75186">
        <ele>664.0</ele>
        <time>2021-10-22T09:28:39.000Z</time>
      </trkpt>
      <trkpt lat="42.64813833" lon="-2.75186333">
        <ele>664.0</ele>
        <time>2021-10-22T09:28:40.000Z</time>
      </trkpt>
      <trkpt lat="42.64813333" lon="-2.75186667">
        <ele>664.0</ele>
        <time>2021-10-22T09:28:41.000Z</time>
      </trkpt>
      <trkpt lat="42.64812667" lon="-2.75187167">
        <ele>664.0</ele>
        <time>2021-10-22T09:28:42.000Z</time>
      </trkpt>
      <trkpt lat="42.648125" lon="-2.75187333">
        <ele>664.0</ele>
        <time>2021-10-22T09:28:43.000Z</time>
      </trkpt>
      <trkpt lat="42.64812333" lon="-2.75187333">
        <ele>664.0</ele>
        <time>2021-10-22T09:28:44.000Z</time>
      </trkpt>
      <trkpt lat="42.64812167" lon="-2.75187333">
        <ele>664.0</ele>
        <time>2021-10-22T09:28:45.000Z</time>
      </trkpt>
      <trkpt lat="42.64812167" lon="-2.75187333">
        <ele>664.0</ele>
        <time>2021-10-22T09:28:46.000Z</time>
      </trkpt>
      <trkpt lat="42.64812" lon="-2.751875">
        <ele>665.0</ele>
        <time>2021-10-22T09:28:47.000Z</time>
      </trkpt>
      <trkpt lat="42.64811667" lon="-2.75187333">
        <ele>665.0</ele>
        <time>2021-10-22T09:28:48.000Z</time>
      </trkpt>
      <trkpt lat="42.64811167" lon="-2.75187">
        <ele>665.0</ele>
        <time>2021-10-22T09:28:49.000Z</time>
      </trkpt>
      <trkpt lat="42.64810333" lon="-2.75187">
        <ele>665.0</ele>
        <time>2021-10-22T09:28:50.000Z</time>
      </trkpt>
      <trkpt lat="42.64809667" lon="-2.75187">
        <ele>665.0</ele>
        <time>2021-10-22T09:28:51.000Z</time>
      </trkpt>
      <trkpt lat="42.64808833" lon="-2.75187167">
        <ele>665.0</ele>
        <time>2021-10-22T09:28:52.000Z</time>
      </trkpt>
      <trkpt lat="42.64808167" lon="-2.75187333">
        <ele>665.0</ele>
        <time>2021-10-22T09:28:53.000Z</time>
      </trkpt>
      <trkpt lat="42.648075" lon="-2.75187667">
        <ele>665.0</ele>
        <time>2021-10-22T09:28:54.000Z</time>
      </trkpt>
      <trkpt lat="42.64806833" lon="-2.75188">
        <ele>665.0</ele>
        <time>2021-10-22T09:28:55.000Z</time>
      </trkpt>
      <trkpt lat="42.64806" lon="-2.75188333">
        <ele>665.0</ele>
        <time>2021-10-22T09:28:56.000Z</time>
      </trkpt>
      <trkpt lat="42.64805167" lon="-2.75188667">
        <ele>665.0</ele>
        <time>2021-10-22T09:28:57.000Z</time>
      </trkpt>
      <trkpt lat="42.64804" lon="-2.75188833">
        <ele>665.0</ele>
        <time>2021-10-22T09:28:58.000Z</time>
      </trkpt>
      <trkpt lat="42.64803" lon="-2.75189167">
        <ele>665.0</ele>
        <time>2021-10-22T09:28:59.000Z</time>
      </trkpt>
      <trkpt lat="42.64802" lon="-2.75189333">
        <ele>665.0</ele>
        <time>2021-10-22T09:29:00.000Z</time>
      </trkpt>
      <trkpt lat="42.64800833" lon="-2.751895">
        <ele>665.0</ele>
        <time>2021-10-22T09:29:01.000Z</time>
      </trkpt>
      <trkpt lat="42.64799833" lon="-2.75189667">
        <ele>665.0</ele>
        <time>2021-10-22T09:29:02.000Z</time>
      </trkpt>
      <trkpt lat="42.64798833" lon="-2.751895">
        <ele>665.0</ele>
        <time>2021-10-22T09:29:03.000Z</time>
      </trkpt>
      <trkpt lat="42.64797833" lon="-2.75189167">
        <ele>665.0</ele>
        <time>2021-10-22T09:29:04.000Z</time>
      </trkpt>
      <trkpt lat="42.64796833" lon="-2.751885">
        <ele>665.0</ele>
        <time>2021-10-22T09:29:05.000Z</time>
      </trkpt>
      <trkpt lat="42.64795833" lon="-2.75187667">
        <ele>665.0</ele>
        <time>2021-10-22T09:29:06.000Z</time>
      </trkpt>
      <trkpt lat="42.64794833" lon="-2.75186667">
        <ele>665.0</ele>
        <time>2021-10-22T09:29:07.000Z</time>
      </trkpt>
      <trkpt lat="42.64793667" lon="-2.75185333">
        <ele>666.0</ele>
        <time>2021-10-22T09:29:08.000Z</time>
      </trkpt>
      <trkpt lat="42.64792167" lon="-2.75183667">
        <ele>666.0</ele>
        <time>2021-10-22T09:29:09.000Z</time>
      </trkpt>
      <trkpt lat="42.64790167" lon="-2.75181833">
        <ele>666.0</ele>
        <time>2021-10-22T09:29:10.000Z</time>
      </trkpt>
      <trkpt lat="42.647885" lon="-2.751805">
        <ele>666.0</ele>
        <time>2021-10-22T09:29:11.000Z</time>
      </trkpt>
      <trkpt lat="42.64787" lon="-2.75179167">
        <ele>666.0</ele>
        <time>2021-10-22T09:29:12.000Z</time>
      </trkpt>
      <trkpt lat="42.647855" lon="-2.75178333">
        <ele>666.0</ele>
        <time>2021-10-22T09:29:13.000Z</time>
      </trkpt>
      <trkpt lat="42.64784333" lon="-2.75177833">
        <ele>666.0</ele>
        <time>2021-10-22T09:29:14.000Z</time>
      </trkpt>
      <trkpt lat="42.647835" lon="-2.75177167">
        <ele>666.0</ele>
        <time>2021-10-22T09:29:15.000Z</time>
      </trkpt>
      <trkpt lat="42.64782667" lon="-2.75176667">
        <ele>666.0</ele>
        <time>2021-10-22T09:29:16.000Z</time>
      </trkpt>
      <trkpt lat="42.64782167" lon="-2.75176167">
        <ele>667.0</ele>
        <time>2021-10-22T09:29:17.000Z</time>
      </trkpt>
      <trkpt lat="42.647815" lon="-2.75175667">
        <ele>667.0</ele>
        <time>2021-10-22T09:29:18.000Z</time>
      </trkpt>
      <trkpt lat="42.647805" lon="-2.75175167">
        <ele>667.0</ele>
        <time>2021-10-22T09:29:19.000Z</time>
      </trkpt>
      <trkpt lat="42.64779333" lon="-2.75174333">
        <ele>667.0</ele>
        <time>2021-10-22T09:29:20.000Z</time>
      </trkpt>
      <trkpt lat="42.64778333" lon="-2.75173667">
        <ele>667.0</ele>
        <time>2021-10-22T09:29:21.000Z</time>
      </trkpt>
      <trkpt lat="42.64777833" lon="-2.75173333">
        <ele>667.0</ele>
        <time>2021-10-22T09:29:22.000Z</time>
      </trkpt>
      <trkpt lat="42.647775" lon="-2.75173">
        <ele>668.0</ele>
        <time>2021-10-22T09:29:23.000Z</time>
      </trkpt>
      <trkpt lat="42.64777333" lon="-2.75172833">
        <ele>668.0</ele>
        <time>2021-10-22T09:29:24.000Z</time>
      </trkpt>
      <trkpt lat="42.647775" lon="-2.75173">
        <ele>668.0</ele>
        <time>2021-10-22T09:29:25.000Z</time>
      </trkpt>
      <trkpt lat="42.64777333" lon="-2.75172833">
        <ele>668.0</ele>
        <time>2021-10-22T09:29:26.000Z</time>
      </trkpt>
      <trkpt lat="42.64777333" lon="-2.75172667">
        <ele>668.0</ele>
        <time>2021-10-22T09:29:27.000Z</time>
      </trkpt>
      <trkpt lat="42.647775" lon="-2.75172667">
        <ele>668.0</ele>
        <time>2021-10-22T09:29:28.000Z</time>
      </trkpt>
      <trkpt lat="42.64778" lon="-2.75172833">
        <ele>668.0</ele>
        <time>2021-10-22T09:29:29.000Z</time>
      </trkpt>
      <trkpt lat="42.647785" lon="-2.75173">
        <ele>669.0</ele>
        <time>2021-10-22T09:29:30.000Z</time>
      </trkpt>
      <trkpt lat="42.64779167" lon="-2.75173333">
        <ele>669.0</ele>
        <time>2021-10-22T09:29:31.000Z</time>
      </trkpt>
      <trkpt lat="42.647795" lon="-2.751735">
        <ele>669.0</ele>
        <time>2021-10-22T09:29:32.000Z</time>
      </trkpt>
      <trkpt lat="42.6478" lon="-2.751735">
        <ele>669.0</ele>
        <time>2021-10-22T09:29:33.000Z</time>
      </trkpt>
      <trkpt lat="42.6478" lon="-2.751735">
        <ele>669.0</ele>
        <time>2021-10-22T09:29:34.000Z</time>
      </trkpt>
      <trkpt lat="42.64780333" lon="-2.751735">
        <ele>669.0</ele>
        <time>2021-10-22T09:29:35.000Z</time>
      </trkpt>
      <trkpt lat="42.647805" lon="-2.75174">
        <ele>669.0</ele>
        <time>2021-10-22T09:29:36.000Z</time>
      </trkpt>
      <trkpt lat="42.64781" lon="-2.75175">
        <ele>669.0</ele>
        <time>2021-10-22T09:29:37.000Z</time>
      </trkpt>
      <trkpt lat="42.64781667" lon="-2.75176667">
        <ele>670.0</ele>
        <time>2021-10-22T09:29:38.000Z</time>
      </trkpt>
      <trkpt lat="42.64782667" lon="-2.75179">
        <ele>670.0</ele>
        <time>2021-10-22T09:29:39.000Z</time>
      </trkpt>
      <trkpt lat="42.64783667" lon="-2.75181167">
        <ele>670.0</ele>
        <time>2021-10-22T09:29:40.000Z</time>
      </trkpt>
      <trkpt lat="42.64784667" lon="-2.75183">
        <ele>670.0</ele>
        <time>2021-10-22T09:29:41.000Z</time>
      </trkpt>
      <trkpt lat="42.64785667" lon="-2.75184833">
        <ele>670.0</ele>
        <time>2021-10-22T09:29:42.000Z</time>
      </trkpt>
      <trkpt lat="42.64786333" lon="-2.75186333">
        <ele>670.0</ele>
        <time>2021-10-22T09:29:43.000Z</time>
      </trkpt>
      <trkpt lat="42.64787167" lon="-2.75187833">
        <ele>670.0</ele>
        <time>2021-10-22T09:29:44.000Z</time>
      </trkpt>
      <trkpt lat="42.64787833" lon="-2.75189">
        <ele>670.0</ele>
        <time>2021-10-22T09:29:45.000Z</time>
      </trkpt>
      <trkpt lat="42.64788333" lon="-2.751905">
        <ele>670.0</ele>
        <time>2021-10-22T09:29:46.000Z</time>
      </trkpt>
      <trkpt lat="42.64788833" lon="-2.75192">
        <ele>670.0</ele>
        <time>2021-10-22T09:29:47.000Z</time>
      </trkpt>
      <trkpt lat="42.64789333" lon="-2.751935">
        <ele>670.0</ele>
        <time>2021-10-22T09:29:48.000Z</time>
      </trkpt>
      <trkpt lat="42.647895" lon="-2.75195167">
        <ele>671.0</ele>
        <time>2021-10-22T09:29:49.000Z</time>
      </trkpt>
      <trkpt lat="42.64789833" lon="-2.75196667">
        <ele>671.0</ele>
        <time>2021-10-22T09:29:50.000Z</time>
      </trkpt>
      <trkpt lat="42.64790167" lon="-2.75198167">
        <ele>671.0</ele>
        <time>2021-10-22T09:29:51.000Z</time>
      </trkpt>
      <trkpt lat="42.64790667" lon="-2.75199167">
        <ele>671.0</ele>
        <time>2021-10-22T09:29:52.000Z</time>
      </trkpt>
      <trkpt lat="42.64791" lon="-2.75199667">
        <ele>671.0</ele>
        <time>2021-10-22T09:29:53.000Z</time>
      </trkpt>
      <trkpt lat="42.64791167" lon="-2.752">
        <ele>671.0</ele>
        <time>2021-10-22T09:29:54.000Z</time>
      </trkpt>
      <trkpt lat="42.64791667" lon="-2.75200333">
        <ele>671.0</ele>
        <time>2021-10-22T09:29:55.000Z</time>
      </trkpt>
      <trkpt lat="42.64792" lon="-2.75200667">
        <ele>671.0</ele>
        <time>2021-10-22T09:29:56.000Z</time>
      </trkpt>
      <trkpt lat="42.64792" lon="-2.75200833">
        <ele>671.0</ele>
        <time>2021-10-22T09:29:57.000Z</time>
      </trkpt>
      <trkpt lat="42.64792" lon="-2.75200833">
        <ele>671.0</ele>
        <time>2021-10-22T09:29:58.000Z</time>
      </trkpt>
      <trkpt lat="42.64792167" lon="-2.75201">
        <ele>671.0</ele>
        <time>2021-10-22T09:29:59.000Z</time>
      </trkpt>
      <trkpt lat="42.64792333" lon="-2.75201167">
        <ele>672.0</ele>
        <time>2021-10-22T09:30:00.000Z</time>
      </trkpt>
      <trkpt lat="42.64792333" lon="-2.75201333">
        <ele>672.0</ele>
        <time>2021-10-22T09:30:01.000Z</time>
      </trkpt>
      <trkpt lat="42.64792333" lon="-2.75201333">
        <ele>672.0</ele>
        <time>2021-10-22T09:30:02.000Z</time>
      </trkpt>
      <trkpt lat="42.64792333" lon="-2.752015">
        <ele>672.0</ele>
        <time>2021-10-22T09:30:03.000Z</time>
      </trkpt>
      <trkpt lat="42.64792333" lon="-2.752015">
        <ele>672.0</ele>
        <time>2021-10-22T09:30:04.000Z</time>
      </trkpt>
      <trkpt lat="42.64792333" lon="-2.752015">
        <ele>672.0</ele>
        <time>2021-10-22T09:30:05.000Z</time>
      </trkpt>
      <trkpt lat="42.64792" lon="-2.752015">
        <ele>672.0</ele>
        <time>2021-10-22T09:30:06.000Z</time>
      </trkpt>
      <trkpt lat="42.64791833" lon="-2.752015">
        <ele>672.0</ele>
        <time>2021-10-22T09:30:07.000Z</time>
      </trkpt>
      <trkpt lat="42.64791833" lon="-2.75201667">
        <ele>672.0</ele>
        <time>2021-10-22T09:30:08.000Z</time>
      </trkpt>
      <trkpt lat="42.64791833" lon="-2.75201667">
        <ele>672.0</ele>
        <time>2021-10-22T09:30:09.000Z</time>
      </trkpt>
      <trkpt lat="42.64791667" lon="-2.75201833">
        <ele>672.0</ele>
        <time>2021-10-22T09:30:10.000Z</time>
      </trkpt>
      <trkpt lat="42.64791667" lon="-2.75202">
        <ele>672.0</ele>
        <time>2021-10-22T09:30:11.000Z</time>
      </trkpt>
      <trkpt lat="42.64791667" lon="-2.75202167">
        <ele>672.0</ele>
        <time>2021-10-22T09:30:12.000Z</time>
      </trkpt>
      <trkpt lat="42.647915" lon="-2.75202333">
        <ele>672.0</ele>
        <time>2021-10-22T09:30:13.000Z</time>
      </trkpt>
      <trkpt lat="42.647915" lon="-2.75202333">
        <ele>673.0</ele>
        <time>2021-10-22T09:30:14.000Z</time>
      </trkpt>
      <trkpt lat="42.647915" lon="-2.752025">
        <ele>673.0</ele>
        <time>2021-10-22T09:30:15.000Z</time>
      </trkpt>
      <trkpt lat="42.64791333" lon="-2.75202667">
        <ele>673.0</ele>
        <time>2021-10-22T09:30:16.000Z</time>
      </trkpt>
      <trkpt lat="42.64791167" lon="-2.75203">
        <ele>673.0</ele>
        <time>2021-10-22T09:30:17.000Z</time>
      </trkpt>
      <trkpt lat="42.64791167" lon="-2.75203333">
        <ele>673.0</ele>
        <time>2021-10-22T09:30:18.000Z</time>
      </trkpt>
      <trkpt lat="42.64791167" lon="-2.75203333">
        <ele>673.0</ele>
        <time>2021-10-22T09:30:19.000Z</time>
      </trkpt>
      <trkpt lat="42.64791" lon="-2.752035">
        <ele>673.0</ele>
        <time>2021-10-22T09:30:20.000Z</time>
      </trkpt>
      <trkpt lat="42.64791" lon="-2.752035">
        <ele>673.0</ele>
        <time>2021-10-22T09:30:21.000Z</time>
      </trkpt>
      <trkpt lat="42.64791" lon="-2.75203667">
        <ele>673.0</ele>
        <time>2021-10-22T09:30:22.000Z</time>
      </trkpt>
      <trkpt lat="42.64790833" lon="-2.75203667">
        <ele>673.0</ele>
        <time>2021-10-22T09:30:23.000Z</time>
      </trkpt>
      <trkpt lat="42.64790833" lon="-2.75203667">
        <ele>673.0</ele>
        <time>2021-10-22T09:30:24.000Z</time>
      </trkpt>
      <trkpt lat="42.64790833" lon="-2.75203667">
        <ele>673.0</ele>
        <time>2021-10-22T09:30:25.000Z</time>
      </trkpt>
      <trkpt lat="42.64790833" lon="-2.75203667">
        <ele>673.0</ele>
        <time>2021-10-22T09:30:26.000Z</time>
      </trkpt>
      <trkpt lat="42.64790833" lon="-2.75203833">
        <ele>673.0</ele>
        <time>2021-10-22T09:30:27.000Z</time>
      </trkpt>
      <trkpt lat="42.64790833" lon="-2.75203833">
        <ele>673.0</ele>
        <time>2021-10-22T09:30:28.000Z</time>
      </trkpt>
      <trkpt lat="42.64790667" lon="-2.75204">
        <ele>673.0</ele>
        <time>2021-10-22T09:30:29.000Z</time>
      </trkpt>
      <trkpt lat="42.64790333" lon="-2.752035">
        <ele>673.0</ele>
        <time>2021-10-22T09:30:30.000Z</time>
      </trkpt>
      <trkpt lat="42.64790333" lon="-2.75202833">
        <ele>673.0</ele>
        <time>2021-10-22T09:30:31.000Z</time>
      </trkpt>
      <trkpt lat="42.6479" lon="-2.75202">
        <ele>673.0</ele>
        <time>2021-10-22T09:30:32.000Z</time>
      </trkpt>
      <trkpt lat="42.6479" lon="-2.75201">
        <ele>673.0</ele>
        <time>2021-10-22T09:30:33.000Z</time>
      </trkpt>
      <trkpt lat="42.64789833" lon="-2.75200333">
        <ele>673.0</ele>
        <time>2021-10-22T09:30:34.000Z</time>
      </trkpt>
      <trkpt lat="42.64789667" lon="-2.75199833">
        <ele>673.0</ele>
        <time>2021-10-22T09:30:35.000Z</time>
      </trkpt>
      <trkpt lat="42.647895" lon="-2.75199333">
        <ele>673.0</ele>
        <time>2021-10-22T09:30:36.000Z</time>
      </trkpt>
      <trkpt lat="42.647895" lon="-2.75199">
        <ele>673.0</ele>
        <time>2021-10-22T09:30:37.000Z</time>
      </trkpt>
      <trkpt lat="42.647895" lon="-2.75198333">
        <ele>673.0</ele>
        <time>2021-10-22T09:30:38.000Z</time>
      </trkpt>
      <trkpt lat="42.64789333" lon="-2.75197333">
        <ele>673.0</ele>
        <time>2021-10-22T09:30:39.000Z</time>
      </trkpt>
      <trkpt lat="42.64789833" lon="-2.75196">
        <ele>673.0</ele>
        <time>2021-10-22T09:30:40.000Z</time>
      </trkpt>
      <trkpt lat="42.64790667" lon="-2.75194833">
        <ele>673.0</ele>
        <time>2021-10-22T09:30:41.000Z</time>
      </trkpt>
      <trkpt lat="42.64791667" lon="-2.75193833">
        <ele>673.0</ele>
        <time>2021-10-22T09:30:42.000Z</time>
      </trkpt>
      <trkpt lat="42.64792667" lon="-2.75192667">
        <ele>673.0</ele>
        <time>2021-10-22T09:30:43.000Z</time>
      </trkpt>
      <trkpt lat="42.64793667" lon="-2.75191833">
        <ele>673.0</ele>
        <time>2021-10-22T09:30:44.000Z</time>
      </trkpt>
      <trkpt lat="42.64794667" lon="-2.75190833">
        <ele>673.0</ele>
        <time>2021-10-22T09:30:45.000Z</time>
      </trkpt>
      <trkpt lat="42.64796" lon="-2.7519">
        <ele>673.0</ele>
        <time>2021-10-22T09:30:46.000Z</time>
      </trkpt>
      <trkpt lat="42.64797167" lon="-2.751895">
        <ele>673.0</ele>
        <time>2021-10-22T09:30:47.000Z</time>
      </trkpt>
      <trkpt lat="42.64798167" lon="-2.75189167">
        <ele>673.0</ele>
        <time>2021-10-22T09:30:48.000Z</time>
      </trkpt>
      <trkpt lat="42.64799333" lon="-2.75188667">
        <ele>673.0</ele>
        <time>2021-10-22T09:30:49.000Z</time>
      </trkpt>
      <trkpt lat="42.648005" lon="-2.75188167">
        <ele>673.0</ele>
        <time>2021-10-22T09:30:50.000Z</time>
      </trkpt>
      <trkpt lat="42.64801667" lon="-2.751875">
        <ele>673.0</ele>
        <time>2021-10-22T09:30:51.000Z</time>
      </trkpt>
      <trkpt lat="42.64803167" lon="-2.75186667">
        <ele>673.0</ele>
        <time>2021-10-22T09:30:52.000Z</time>
      </trkpt>
      <trkpt lat="42.64804833" lon="-2.75186">
        <ele>673.0</ele>
        <time>2021-10-22T09:30:53.000Z</time>
      </trkpt>
      <trkpt lat="42.64806833" lon="-2.75185">
        <ele>673.0</ele>
        <time>2021-10-22T09:30:54.000Z</time>
      </trkpt>
      <trkpt lat="42.648085" lon="-2.75184167">
        <ele>673.0</ele>
        <time>2021-10-22T09:30:55.000Z</time>
      </trkpt>
      <trkpt lat="42.64809833" lon="-2.75183333">
        <ele>673.0</ele>
        <time>2021-10-22T09:30:56.000Z</time>
      </trkpt>
      <trkpt lat="42.64811333" lon="-2.75182167">
        <ele>673.0</ele>
        <time>2021-10-22T09:30:57.000Z</time>
      </trkpt>
      <trkpt lat="42.64812833" lon="-2.75181167">
        <ele>673.0</ele>
        <time>2021-10-22T09:30:58.000Z</time>
      </trkpt>
      <trkpt lat="42.64814167" lon="-2.7518">
        <ele>673.0</ele>
        <time>2021-10-22T09:30:59.000Z</time>
      </trkpt>
      <trkpt lat="42.64815167" lon="-2.751785">
        <ele>673.0</ele>
        <time>2021-10-22T09:31:00.000Z</time>
      </trkpt>
      <trkpt lat="42.64815667" lon="-2.75176667">
        <ele>673.0</ele>
        <time>2021-10-22T09:31:01.000Z</time>
      </trkpt>
      <trkpt lat="42.64815667" lon="-2.75174833">
        <ele>673.0</ele>
        <time>2021-10-22T09:31:02.000Z</time>
      </trkpt>
      <trkpt lat="42.648155" lon="-2.75173">
        <ele>673.0</ele>
        <time>2021-10-22T09:31:03.000Z</time>
      </trkpt>
      <trkpt lat="42.64815333" lon="-2.75171167">
        <ele>673.0</ele>
        <time>2021-10-22T09:31:04.000Z</time>
      </trkpt>
      <trkpt lat="42.64815" lon="-2.751695">
        <ele>673.0</ele>
        <time>2021-10-22T09:31:05.000Z</time>
      </trkpt>
      <trkpt lat="42.648145" lon="-2.751675">
        <ele>673.0</ele>
        <time>2021-10-22T09:31:06.000Z</time>
      </trkpt>
      <trkpt lat="42.64814" lon="-2.75165333">
        <ele>672.0</ele>
        <time>2021-10-22T09:31:07.000Z</time>
      </trkpt>
      <trkpt lat="42.648135" lon="-2.75163167">
        <ele>672.0</ele>
        <time>2021-10-22T09:31:08.000Z</time>
      </trkpt>
      <trkpt lat="42.64812667" lon="-2.75161333">
        <ele>672.0</ele>
        <time>2021-10-22T09:31:09.000Z</time>
      </trkpt>
      <trkpt lat="42.64812" lon="-2.75159667">
        <ele>672.0</ele>
        <time>2021-10-22T09:31:10.000Z</time>
      </trkpt>
      <trkpt lat="42.64811" lon="-2.75157667">
        <ele>672.0</ele>
        <time>2021-10-22T09:31:11.000Z</time>
      </trkpt>
      <trkpt lat="42.6481" lon="-2.75155833">
        <ele>672.0</ele>
        <time>2021-10-22T09:31:12.000Z</time>
      </trkpt>
      <trkpt lat="42.64808833" lon="-2.75153833">
        <ele>672.0</ele>
        <time>2021-10-22T09:31:13.000Z</time>
      </trkpt>
      <trkpt lat="42.64807833" lon="-2.75152167">
        <ele>672.0</ele>
        <time>2021-10-22T09:31:14.000Z</time>
      </trkpt>
      <trkpt lat="42.64807" lon="-2.75150833">
        <ele>672.0</ele>
        <time>2021-10-22T09:31:15.000Z</time>
      </trkpt>
      <trkpt lat="42.64806333" lon="-2.75149833">
        <ele>672.0</ele>
        <time>2021-10-22T09:31:16.000Z</time>
      </trkpt>
      <trkpt lat="42.64805667" lon="-2.75148667">
        <ele>672.0</ele>
        <time>2021-10-22T09:31:17.000Z</time>
      </trkpt>
      <trkpt lat="42.64804833" lon="-2.75147667">
        <ele>672.0</ele>
        <time>2021-10-22T09:31:18.000Z</time>
      </trkpt>
      <trkpt lat="42.64804" lon="-2.75146667">
        <ele>671.0</ele>
        <time>2021-10-22T09:31:19.000Z</time>
      </trkpt>
      <trkpt lat="42.64803167" lon="-2.75145667">
        <ele>671.0</ele>
        <time>2021-10-22T09:31:20.000Z</time>
      </trkpt>
      <trkpt lat="42.64802" lon="-2.75144167">
        <ele>671.0</ele>
        <time>2021-10-22T09:31:21.000Z</time>
      </trkpt>
      <trkpt lat="42.64801167" lon="-2.75143">
        <ele>671.0</ele>
        <time>2021-10-22T09:31:22.000Z</time>
      </trkpt>
      <trkpt lat="42.648005" lon="-2.75142333">
        <ele>671.0</ele>
        <time>2021-10-22T09:31:23.000Z</time>
      </trkpt>
      <trkpt lat="42.64799833" lon="-2.75142">
        <ele>671.0</ele>
        <time>2021-10-22T09:31:24.000Z</time>
      </trkpt>
      <trkpt lat="42.64799333" lon="-2.75141833">
        <ele>671.0</ele>
        <time>2021-10-22T09:31:25.000Z</time>
      </trkpt>
      <trkpt lat="42.64799" lon="-2.75141667">
        <ele>671.0</ele>
        <time>2021-10-22T09:31:26.000Z</time>
      </trkpt>
      <trkpt lat="42.64798667" lon="-2.75141667">
        <ele>671.0</ele>
        <time>2021-10-22T09:31:27.000Z</time>
      </trkpt>
      <trkpt lat="42.647985" lon="-2.75141667">
        <ele>671.0</ele>
        <time>2021-10-22T09:31:28.000Z</time>
      </trkpt>
      <trkpt lat="42.64798333" lon="-2.751415">
        <ele>671.0</ele>
        <time>2021-10-22T09:31:29.000Z</time>
      </trkpt>
      <trkpt lat="42.64798167" lon="-2.75141333">
        <ele>671.0</ele>
        <time>2021-10-22T09:31:30.000Z</time>
      </trkpt>
      <trkpt lat="42.64798333" lon="-2.75141167">
        <ele>671.0</ele>
        <time>2021-10-22T09:31:31.000Z</time>
      </trkpt>
      <trkpt lat="42.64798" lon="-2.75141">
        <ele>670.0</ele>
        <time>2021-10-22T09:31:32.000Z</time>
      </trkpt>
      <trkpt lat="42.647975" lon="-2.75140833">
        <ele>670.0</ele>
        <time>2021-10-22T09:31:33.000Z</time>
      </trkpt>
      <trkpt lat="42.64797167" lon="-2.75140333">
        <ele>670.0</ele>
        <time>2021-10-22T09:31:34.000Z</time>
      </trkpt>
      <trkpt lat="42.647965" lon="-2.75139833">
        <ele>670.0</ele>
        <time>2021-10-22T09:31:35.000Z</time>
      </trkpt>
      <trkpt lat="42.64795833" lon="-2.75138667">
        <ele>670.0</ele>
        <time>2021-10-22T09:31:36.000Z</time>
      </trkpt>
      <trkpt lat="42.64795167" lon="-2.75137333">
        <ele>670.0</ele>
        <time>2021-10-22T09:31:37.000Z</time>
      </trkpt>
      <trkpt lat="42.64795" lon="-2.75135667">
        <ele>670.0</ele>
        <time>2021-10-22T09:31:38.000Z</time>
      </trkpt>
      <trkpt lat="42.64795" lon="-2.751345">
        <ele>670.0</ele>
        <time>2021-10-22T09:31:39.000Z</time>
      </trkpt>
      <trkpt lat="42.64795" lon="-2.75133667">
        <ele>670.0</ele>
        <time>2021-10-22T09:31:40.000Z</time>
      </trkpt>
      <trkpt lat="42.64795167" lon="-2.75133167">
        <ele>670.0</ele>
        <time>2021-10-22T09:31:41.000Z</time>
      </trkpt>
      <trkpt lat="42.647955" lon="-2.75133">
        <ele>670.0</ele>
        <time>2021-10-22T09:31:42.000Z</time>
      </trkpt>
      <trkpt lat="42.64795833" lon="-2.751325">
        <ele>669.0</ele>
        <time>2021-10-22T09:31:43.000Z</time>
      </trkpt>
      <trkpt lat="42.647965" lon="-2.75132">
        <ele>669.0</ele>
        <time>2021-10-22T09:31:44.000Z</time>
      </trkpt>
      <trkpt lat="42.647975" lon="-2.75131667">
        <ele>669.0</ele>
        <time>2021-10-22T09:31:45.000Z</time>
      </trkpt>
      <trkpt lat="42.647985" lon="-2.751315">
        <ele>669.0</ele>
        <time>2021-10-22T09:31:46.000Z</time>
      </trkpt>
      <trkpt lat="42.64799" lon="-2.75131333">
        <ele>670.0</ele>
        <time>2021-10-22T09:31:47.000Z</time>
      </trkpt>
      <trkpt lat="42.647995" lon="-2.75131">
        <ele>670.0</ele>
        <time>2021-10-22T09:31:48.000Z</time>
      </trkpt>
      <trkpt lat="42.64799833" lon="-2.75130667">
        <ele>670.0</ele>
        <time>2021-10-22T09:31:49.000Z</time>
      </trkpt>
      <trkpt lat="42.64799833" lon="-2.75130167">
        <ele>670.0</ele>
        <time>2021-10-22T09:31:50.000Z</time>
      </trkpt>
      <trkpt lat="42.647995" lon="-2.75129833">
        <ele>670.0</ele>
        <time>2021-10-22T09:31:51.000Z</time>
      </trkpt>
      <trkpt lat="42.64799167" lon="-2.75129667">
        <ele>670.0</ele>
        <time>2021-10-22T09:31:52.000Z</time>
      </trkpt>
      <trkpt lat="42.64799" lon="-2.751295">
        <ele>670.0</ele>
        <time>2021-10-22T09:31:53.000Z</time>
      </trkpt>
      <trkpt lat="42.64798667" lon="-2.75129833">
        <ele>670.0</ele>
        <time>2021-10-22T09:31:54.000Z</time>
      </trkpt>
      <trkpt lat="42.647985" lon="-2.7513">
        <ele>670.0</ele>
        <time>2021-10-22T09:31:55.000Z</time>
      </trkpt>
      <trkpt lat="42.647985" lon="-2.75130167">
        <ele>670.0</ele>
        <time>2021-10-22T09:31:56.000Z</time>
      </trkpt>
      <trkpt lat="42.64798333" lon="-2.7513">
        <ele>670.0</ele>
        <time>2021-10-22T09:31:57.000Z</time>
      </trkpt>
      <trkpt lat="42.64798167" lon="-2.7513">
        <ele>670.0</ele>
        <time>2021-10-22T09:31:58.000Z</time>
      </trkpt>
      <trkpt lat="42.64798167" lon="-2.75129833">
        <ele>670.0</ele>
        <time>2021-10-22T09:31:59.000Z</time>
      </trkpt>
      <trkpt lat="42.64798" lon="-2.7513">
        <ele>670.0</ele>
        <time>2021-10-22T09:32:00.000Z</time>
      </trkpt>
      <trkpt lat="42.64797667" lon="-2.75130167">
        <ele>670.0</ele>
        <time>2021-10-22T09:32:01.000Z</time>
      </trkpt>
      <trkpt lat="42.64797667" lon="-2.75130167">
        <ele>670.0</ele>
        <time>2021-10-22T09:32:10.000Z</time>
      </trkpt>
      <trkpt lat="42.64797667" lon="-2.75130167">
        <ele>670.0</ele>
        <time>2021-10-22T09:32:11.000Z</time>
      </trkpt>
      <trkpt lat="42.64793667" lon="-2.75131167">
        <ele>670.0</ele>
        <time>2021-10-22T09:32:12.000Z</time>
      </trkpt>
      <trkpt lat="42.647935" lon="-2.75130667">
        <ele>670.0</ele>
        <time>2021-10-22T09:32:13.000Z</time>
      </trkpt>
      <trkpt lat="42.64793833" lon="-2.75129667">
        <ele>670.0</ele>
        <time>2021-10-22T09:32:14.000Z</time>
      </trkpt>
      <trkpt lat="42.64794667" lon="-2.75128167">
        <ele>669.0</ele>
        <time>2021-10-22T09:32:15.000Z</time>
      </trkpt>
      <trkpt lat="42.647955" lon="-2.75126667">
        <ele>669.0</ele>
        <time>2021-10-22T09:32:16.000Z</time>
      </trkpt>
      <trkpt lat="42.647965" lon="-2.75125167">
        <ele>669.0</ele>
        <time>2021-10-22T09:32:17.000Z</time>
      </trkpt>
      <trkpt lat="42.647975" lon="-2.75123833">
        <ele>669.0</ele>
        <time>2021-10-22T09:32:18.000Z</time>
      </trkpt>
      <trkpt lat="42.64798333" lon="-2.75122667">
        <ele>669.0</ele>
        <time>2021-10-22T09:32:19.000Z</time>
      </trkpt>
      <trkpt lat="42.64799" lon="-2.751215">
        <ele>669.0</ele>
        <time>2021-10-22T09:32:20.000Z</time>
      </trkpt>
      <trkpt lat="42.64799333" lon="-2.75120667">
        <ele>669.0</ele>
        <time>2021-10-22T09:32:21.000Z</time>
      </trkpt>
      <trkpt lat="42.648" lon="-2.75119667">
        <ele>669.0</ele>
        <time>2021-10-22T09:32:22.000Z</time>
      </trkpt>
      <trkpt lat="42.64800333" lon="-2.75118333">
        <ele>669.0</ele>
        <time>2021-10-22T09:32:23.000Z</time>
      </trkpt>
      <trkpt lat="42.64800667" lon="-2.751175">
        <ele>669.0</ele>
        <time>2021-10-22T09:32:24.000Z</time>
      </trkpt>
      <trkpt lat="42.64801" lon="-2.75116833">
        <ele>670.0</ele>
        <time>2021-10-22T09:32:25.000Z</time>
      </trkpt>
      <trkpt lat="42.648015" lon="-2.75116333">
        <ele>670.0</ele>
        <time>2021-10-22T09:32:26.000Z</time>
      </trkpt>
      <trkpt lat="42.64801667" lon="-2.75116167">
        <ele>670.0</ele>
        <time>2021-10-22T09:32:27.000Z</time>
      </trkpt>
      <trkpt lat="42.64802167" lon="-2.75116">
        <ele>671.0</ele>
        <time>2021-10-22T09:32:28.000Z</time>
      </trkpt>
      <trkpt lat="42.64802667" lon="-2.751155">
        <ele>671.0</ele>
        <time>2021-10-22T09:32:29.000Z</time>
      </trkpt>
      <trkpt lat="42.64803167" lon="-2.75115167">
        <ele>671.0</ele>
        <time>2021-10-22T09:32:30.000Z</time>
      </trkpt>
      <trkpt lat="42.648035" lon="-2.75114833">
        <ele>672.0</ele>
        <time>2021-10-22T09:32:31.000Z</time>
      </trkpt>
      <trkpt lat="42.64803667" lon="-2.75114333">
        <ele>673.0</ele>
        <time>2021-10-22T09:32:32.000Z</time>
      </trkpt>
      <trkpt lat="42.64804167" lon="-2.75113667">
        <ele>673.0</ele>
        <time>2021-10-22T09:32:33.000Z</time>
      </trkpt>
      <trkpt lat="42.64804333" lon="-2.75113333">
        <ele>674.0</ele>
        <time>2021-10-22T09:32:34.000Z</time>
      </trkpt>
      <trkpt lat="42.648045" lon="-2.751135">
        <ele>674.0</ele>
        <time>2021-10-22T09:32:35.000Z</time>
      </trkpt>
      <trkpt lat="42.64804667" lon="-2.751135">
        <ele>675.0</ele>
        <time>2021-10-22T09:32:36.000Z</time>
      </trkpt>
      <trkpt lat="42.64804667" lon="-2.751135">
        <ele>676.0</ele>
        <time>2021-10-22T09:32:37.000Z</time>
      </trkpt>
      <trkpt lat="42.648045" lon="-2.75113333">
        <ele>676.0</ele>
        <time>2021-10-22T09:32:38.000Z</time>
      </trkpt>
      <trkpt lat="42.648045" lon="-2.75113333">
        <ele>677.0</ele>
        <time>2021-10-22T09:32:39.000Z</time>
      </trkpt>
      <trkpt lat="42.64804333" lon="-2.75113333">
        <ele>678.0</ele>
        <time>2021-10-22T09:32:40.000Z</time>
      </trkpt>
      <trkpt lat="42.64804167" lon="-2.751135">
        <ele>678.0</ele>
        <time>2021-10-22T09:32:41.000Z</time>
      </trkpt>
      <trkpt lat="42.64804" lon="-2.751135">
        <ele>678.0</ele>
        <time>2021-10-22T09:32:42.000Z</time>
      </trkpt>
      <trkpt lat="42.64804" lon="-2.75113667">
        <ele>678.0</ele>
        <time>2021-10-22T09:32:43.000Z</time>
      </trkpt>
      <trkpt lat="42.64803667" lon="-2.75113667">
        <ele>678.0</ele>
        <time>2021-10-22T09:32:44.000Z</time>
      </trkpt>
      <trkpt lat="42.64803167" lon="-2.75113833">
        <ele>678.0</ele>
        <time>2021-10-22T09:32:45.000Z</time>
      </trkpt>
      <trkpt lat="42.64802833" lon="-2.75114">
        <ele>678.0</ele>
        <time>2021-10-22T09:32:46.000Z</time>
      </trkpt>
      <trkpt lat="42.648025" lon="-2.75114167">
        <ele>679.0</ele>
        <time>2021-10-22T09:32:47.000Z</time>
      </trkpt>
      <trkpt lat="42.64802" lon="-2.75114333">
        <ele>679.0</ele>
        <time>2021-10-22T09:32:48.000Z</time>
      </trkpt>
      <trkpt lat="42.64801667" lon="-2.751145">
        <ele>679.0</ele>
        <time>2021-10-22T09:32:49.000Z</time>
      </trkpt>
      <trkpt lat="42.64801333" lon="-2.751145">
        <ele>679.0</ele>
        <time>2021-10-22T09:32:50.000Z</time>
      </trkpt>
      <trkpt lat="42.64801" lon="-2.75114667">
        <ele>679.0</ele>
        <time>2021-10-22T09:32:51.000Z</time>
      </trkpt>
      <trkpt lat="42.64801" lon="-2.75114667">
        <ele>679.0</ele>
        <time>2021-10-22T09:32:52.000Z</time>
      </trkpt>
      <trkpt lat="42.64800833" lon="-2.75114833">
        <ele>679.0</ele>
        <time>2021-10-22T09:32:53.000Z</time>
      </trkpt>
      <trkpt lat="42.64800667" lon="-2.75114667">
        <ele>679.0</ele>
        <time>2021-10-22T09:32:54.000Z</time>
      </trkpt>
      <trkpt lat="42.648005" lon="-2.75114833">
        <ele>679.0</ele>
        <time>2021-10-22T09:32:55.000Z</time>
      </trkpt>
      <trkpt lat="42.648005" lon="-2.75114833">
        <ele>679.0</ele>
        <time>2021-10-22T09:32:56.000Z</time>
      </trkpt>
      <trkpt lat="42.64800333" lon="-2.75115">
        <ele>679.0</ele>
        <time>2021-10-22T09:32:57.000Z</time>
      </trkpt>
      <trkpt lat="42.64800333" lon="-2.75115">
        <ele>680.0</ele>
        <time>2021-10-22T09:32:58.000Z</time>
      </trkpt>
      <trkpt lat="42.64800167" lon="-2.75115167">
        <ele>680.0</ele>
        <time>2021-10-22T09:32:59.000Z</time>
      </trkpt>
      <trkpt lat="42.648" lon="-2.75115167">
        <ele>680.0</ele>
        <time>2021-10-22T09:33:00.000Z</time>
      </trkpt>
      <trkpt lat="42.64799833" lon="-2.75115167">
        <ele>680.0</ele>
        <time>2021-10-22T09:33:01.000Z</time>
      </trkpt>
      <trkpt lat="42.64799833" lon="-2.75115333">
        <ele>680.0</ele>
        <time>2021-10-22T09:33:02.000Z</time>
      </trkpt>
      <trkpt lat="42.64800167" lon="-2.75115333">
        <ele>680.0</ele>
        <time>2021-10-22T09:33:03.000Z</time>
      </trkpt>
      <trkpt lat="42.64800333" lon="-2.75115167">
        <ele>680.0</ele>
        <time>2021-10-22T09:33:04.000Z</time>
      </trkpt>
      <trkpt lat="42.64800333" lon="-2.75115167">
        <ele>680.0</ele>
        <time>2021-10-22T09:33:05.000Z</time>
      </trkpt>
      <trkpt lat="42.64800167" lon="-2.75115167">
        <ele>680.0</ele>
        <time>2021-10-22T09:33:06.000Z</time>
      </trkpt>
      <trkpt lat="42.64800167" lon="-2.75115">
        <ele>680.0</ele>
        <time>2021-10-22T09:33:07.000Z</time>
      </trkpt>
      <trkpt lat="42.64800167" lon="-2.75115">
        <ele>680.0</ele>
        <time>2021-10-22T09:33:08.000Z</time>
      </trkpt>
      <trkpt lat="42.648" lon="-2.75114833">
        <ele>680.0</ele>
        <time>2021-10-22T09:33:09.000Z</time>
      </trkpt>
      <trkpt lat="42.648" lon="-2.75114833">
        <ele>680.0</ele>
        <time>2021-10-22T09:33:10.000Z</time>
      </trkpt>
      <trkpt lat="42.648" lon="-2.75114667">
        <ele>680.0</ele>
        <time>2021-10-22T09:33:11.000Z</time>
      </trkpt>
      <trkpt lat="42.648" lon="-2.75114667">
        <ele>680.0</ele>
        <time>2021-10-22T09:33:12.000Z</time>
      </trkpt>
      <trkpt lat="42.648" lon="-2.75114667">
        <ele>680.0</ele>
        <time>2021-10-22T09:33:13.000Z</time>
      </trkpt>
      <trkpt lat="42.64799833" lon="-2.75114667">
        <ele>681.0</ele>
        <time>2021-10-22T09:33:14.000Z</time>
      </trkpt>
      <trkpt lat="42.64799833" lon="-2.751145">
        <ele>681.0</ele>
        <time>2021-10-22T09:33:15.000Z</time>
      </trkpt>
      <trkpt lat="42.64799833" lon="-2.751145">
        <ele>681.0</ele>
        <time>2021-10-22T09:33:16.000Z</time>
      </trkpt>
      <trkpt lat="42.64799833" lon="-2.751145">
        <ele>681.0</ele>
        <time>2021-10-22T09:33:17.000Z</time>
      </trkpt>
      <trkpt lat="42.64799833" lon="-2.751145">
        <ele>681.0</ele>
        <time>2021-10-22T09:33:18.000Z</time>
      </trkpt>
      <trkpt lat="42.64799833" lon="-2.751145">
        <ele>681.0</ele>
        <time>2021-10-22T09:33:19.000Z</time>
      </trkpt>
      <trkpt lat="42.64799833" lon="-2.751145">
        <ele>681.0</ele>
        <time>2021-10-22T09:33:20.000Z</time>
      </trkpt>
      <trkpt lat="42.64799833" lon="-2.751145">
        <ele>681.0</ele>
        <time>2021-10-22T09:33:21.000Z</time>
      </trkpt>
      <trkpt lat="42.64799833" lon="-2.751145">
        <ele>681.0</ele>
        <time>2021-10-22T09:33:22.000Z</time>
      </trkpt>
      <trkpt lat="42.648" lon="-2.751145">
        <ele>681.0</ele>
        <time>2021-10-22T09:33:23.000Z</time>
      </trkpt>
      <trkpt lat="42.648" lon="-2.75114333">
        <ele>681.0</ele>
        <time>2021-10-22T09:33:24.000Z</time>
      </trkpt>
      <trkpt lat="42.648" lon="-2.75114167">
        <ele>681.0</ele>
        <time>2021-10-22T09:33:25.000Z</time>
      </trkpt>
      <trkpt lat="42.64800167" lon="-2.75114">
        <ele>681.0</ele>
        <time>2021-10-22T09:33:26.000Z</time>
      </trkpt>
      <trkpt lat="42.64800167" lon="-2.75113833">
        <ele>681.0</ele>
        <time>2021-10-22T09:33:27.000Z</time>
      </trkpt>
      <trkpt lat="42.64800333" lon="-2.75113667">
        <ele>681.0</ele>
        <time>2021-10-22T09:33:28.000Z</time>
      </trkpt>
      <trkpt lat="42.64800333" lon="-2.751135">
        <ele>681.0</ele>
        <time>2021-10-22T09:33:29.000Z</time>
      </trkpt>
      <trkpt lat="42.648005" lon="-2.75113333">
        <ele>681.0</ele>
        <time>2021-10-22T09:33:30.000Z</time>
      </trkpt>
      <trkpt lat="42.648005" lon="-2.75113167">
        <ele>681.0</ele>
        <time>2021-10-22T09:33:31.000Z</time>
      </trkpt>
      <trkpt lat="42.64800667" lon="-2.75113">
        <ele>681.0</ele>
        <time>2021-10-22T09:33:32.000Z</time>
      </trkpt>
      <trkpt lat="42.64800667" lon="-2.75112833">
        <ele>681.0</ele>
        <time>2021-10-22T09:33:33.000Z</time>
      </trkpt>
      <trkpt lat="42.64800667" lon="-2.75112667">
        <ele>681.0</ele>
        <time>2021-10-22T09:33:34.000Z</time>
      </trkpt>
      <trkpt lat="42.64800667" lon="-2.751125">
        <ele>681.0</ele>
        <time>2021-10-22T09:33:35.000Z</time>
      </trkpt>
      <trkpt lat="42.64800833" lon="-2.75112333">
        <ele>681.0</ele>
        <time>2021-10-22T09:33:36.000Z</time>
      </trkpt>
      <trkpt lat="42.64800833" lon="-2.75112167">
        <ele>681.0</ele>
        <time>2021-10-22T09:33:37.000Z</time>
      </trkpt>
      <trkpt lat="42.64800833" lon="-2.75112">
        <ele>681.0</ele>
        <time>2021-10-22T09:33:38.000Z</time>
      </trkpt>
      <trkpt lat="42.64801" lon="-2.75111833">
        <ele>681.0</ele>
        <time>2021-10-22T09:33:39.000Z</time>
      </trkpt>
      <trkpt lat="42.64801" lon="-2.75111667">
        <ele>681.0</ele>
        <time>2021-10-22T09:33:40.000Z</time>
      </trkpt>
      <trkpt lat="42.64801" lon="-2.75111667">
        <ele>681.0</ele>
        <time>2021-10-22T09:33:41.000Z</time>
      </trkpt>
      <trkpt lat="42.64801" lon="-2.751115">
        <ele>681.0</ele>
        <time>2021-10-22T09:33:42.000Z</time>
      </trkpt>
      <trkpt lat="42.64801" lon="-2.75111333">
        <ele>681.0</ele>
        <time>2021-10-22T09:33:43.000Z</time>
      </trkpt>
      <trkpt lat="42.64801167" lon="-2.75111333">
        <ele>682.0</ele>
        <time>2021-10-22T09:33:44.000Z</time>
      </trkpt>
      <trkpt lat="42.64801167" lon="-2.75111167">
        <ele>682.0</ele>
        <time>2021-10-22T09:33:45.000Z</time>
      </trkpt>
      <trkpt lat="42.64801167" lon="-2.75111167">
        <ele>682.0</ele>
        <time>2021-10-22T09:33:46.000Z</time>
      </trkpt>
      <trkpt lat="42.64801167" lon="-2.75111167">
        <ele>682.0</ele>
        <time>2021-10-22T09:33:47.000Z</time>
      </trkpt>
      <trkpt lat="42.64801167" lon="-2.75111">
        <ele>682.0</ele>
        <time>2021-10-22T09:33:48.000Z</time>
      </trkpt>
      <trkpt lat="42.64801167" lon="-2.75111">
        <ele>682.0</ele>
        <time>2021-10-22T09:33:49.000Z</time>
      </trkpt>
      <trkpt lat="42.64801167" lon="-2.75111">
        <ele>682.0</ele>
        <time>2021-10-22T09:33:50.000Z</time>
      </trkpt>
      <trkpt lat="42.64801167" lon="-2.75110833">
        <ele>682.0</ele>
        <time>2021-10-22T09:33:51.000Z</time>
      </trkpt>
      <trkpt lat="42.64801333" lon="-2.75110833">
        <ele>682.0</ele>
        <time>2021-10-22T09:33:52.000Z</time>
      </trkpt>
      <trkpt lat="42.64801333" lon="-2.75110833">
        <ele>682.0</ele>
        <time>2021-10-22T09:33:53.000Z</time>
      </trkpt>
      <trkpt lat="42.64801333" lon="-2.75110833">
        <ele>682.0</ele>
        <time>2021-10-22T09:33:54.000Z</time>
      </trkpt>
      <trkpt lat="42.64801333" lon="-2.75110667">
        <ele>682.0</ele>
        <time>2021-10-22T09:33:55.000Z</time>
      </trkpt>
      <trkpt lat="42.64801333" lon="-2.75110667">
        <ele>682.0</ele>
        <time>2021-10-22T09:33:56.000Z</time>
      </trkpt>
      <trkpt lat="42.64801333" lon="-2.75110667">
        <ele>682.0</ele>
        <time>2021-10-22T09:33:57.000Z</time>
      </trkpt>
      <trkpt lat="42.64801333" lon="-2.75110667">
        <ele>682.0</ele>
        <time>2021-10-22T09:33:58.000Z</time>
      </trkpt>
      <trkpt lat="42.64801333" lon="-2.75110667">
        <ele>682.0</ele>
        <time>2021-10-22T09:33:59.000Z</time>
      </trkpt>
      <trkpt lat="42.64801333" lon="-2.75110667">
        <ele>682.0</ele>
        <time>2021-10-22T09:34:00.000Z</time>
      </trkpt>
      <trkpt lat="42.64801333" lon="-2.75110667">
        <ele>682.0</ele>
        <time>2021-10-22T09:34:01.000Z</time>
      </trkpt>
      <trkpt lat="42.64801333" lon="-2.75110667">
        <ele>683.0</ele>
        <time>2021-10-22T09:34:02.000Z</time>
      </trkpt>
      <trkpt lat="42.64801333" lon="-2.751105">
        <ele>683.0</ele>
        <time>2021-10-22T09:34:03.000Z</time>
      </trkpt>
      <trkpt lat="42.64801333" lon="-2.751105">
        <ele>683.0</ele>
        <time>2021-10-22T09:34:04.000Z</time>
      </trkpt>
      <trkpt lat="42.64801333" lon="-2.751105">
        <ele>683.0</ele>
        <time>2021-10-22T09:34:05.000Z</time>
      </trkpt>
      <trkpt lat="42.64801333" lon="-2.751105">
        <ele>683.0</ele>
        <time>2021-10-22T09:34:06.000Z</time>
      </trkpt>
      <trkpt lat="42.64801333" lon="-2.751105">
        <ele>683.0</ele>
        <time>2021-10-22T09:34:07.000Z</time>
      </trkpt>
      <trkpt lat="42.64801333" lon="-2.75110333">
        <ele>683.0</ele>
        <time>2021-10-22T09:34:08.000Z</time>
      </trkpt>
      <trkpt lat="42.64801333" lon="-2.75110333">
        <ele>683.0</ele>
        <time>2021-10-22T09:34:09.000Z</time>
      </trkpt>
      <trkpt lat="42.648015" lon="-2.751105">
        <ele>683.0</ele>
        <time>2021-10-22T09:34:10.000Z</time>
      </trkpt>
      <trkpt lat="42.648015" lon="-2.751105">
        <ele>683.0</ele>
        <time>2021-10-22T09:34:11.000Z</time>
      </trkpt>
      <trkpt lat="42.648015" lon="-2.751105">
        <ele>683.0</ele>
        <time>2021-10-22T09:34:12.000Z</time>
      </trkpt>
      <trkpt lat="42.648015" lon="-2.751105">
        <ele>684.0</ele>
        <time>2021-10-22T09:34:13.000Z</time>
      </trkpt>
      <trkpt lat="42.648015" lon="-2.751105">
        <ele>684.0</ele>
        <time>2021-10-22T09:34:14.000Z</time>
      </trkpt>
      <trkpt lat="42.648015" lon="-2.751105">
        <ele>684.0</ele>
        <time>2021-10-22T09:34:15.000Z</time>
      </trkpt>
      <trkpt lat="42.648015" lon="-2.751105">
        <ele>684.0</ele>
        <time>2021-10-22T09:34:16.000Z</time>
      </trkpt>
      <trkpt lat="42.648015" lon="-2.751105">
        <ele>684.0</ele>
        <time>2021-10-22T09:34:17.000Z</time>
      </trkpt>
      <trkpt lat="42.648015" lon="-2.751105">
        <ele>685.0</ele>
        <time>2021-10-22T09:34:18.000Z</time>
      </trkpt>
      <trkpt lat="42.648015" lon="-2.751105">
        <ele>685.0</ele>
        <time>2021-10-22T09:34:19.000Z</time>
      </trkpt>
      <trkpt lat="42.648015" lon="-2.751105">
        <ele>685.0</ele>
        <time>2021-10-22T09:34:20.000Z</time>
      </trkpt>
      <trkpt lat="42.648015" lon="-2.751105">
        <ele>685.0</ele>
        <time>2021-10-22T09:34:21.000Z</time>
      </trkpt>
      <trkpt lat="42.648015" lon="-2.751105">
        <ele>686.0</ele>
        <time>2021-10-22T09:34:22.000Z</time>
      </trkpt>
      <trkpt lat="42.648015" lon="-2.751105">
        <ele>686.0</ele>
        <time>2021-10-22T09:34:23.000Z</time>
      </trkpt>
      <trkpt lat="42.648015" lon="-2.751105">
        <ele>686.0</ele>
        <time>2021-10-22T09:34:24.000Z</time>
      </trkpt>
      <trkpt lat="42.64801333" lon="-2.751105">
        <ele>686.0</ele>
        <time>2021-10-22T09:34:25.000Z</time>
      </trkpt>
      <trkpt lat="42.64801333" lon="-2.75110667">
        <ele>687.0</ele>
        <time>2021-10-22T09:34:26.000Z</time>
      </trkpt>
      <trkpt lat="42.64801333" lon="-2.75110833">
        <ele>687.0</ele>
        <time>2021-10-22T09:34:27.000Z</time>
      </trkpt>
      <trkpt lat="42.64801333" lon="-2.75110833">
        <ele>687.0</ele>
        <time>2021-10-22T09:34:28.000Z</time>
      </trkpt>
      <trkpt lat="42.64801167" lon="-2.75110833">
        <ele>687.0</ele>
        <time>2021-10-22T09:34:29.000Z</time>
      </trkpt>
      <trkpt lat="42.64801333" lon="-2.75110833">
        <ele>688.0</ele>
        <time>2021-10-22T09:34:30.000Z</time>
      </trkpt>
      <trkpt lat="42.648015" lon="-2.75111">
        <ele>688.0</ele>
        <time>2021-10-22T09:34:31.000Z</time>
      </trkpt>
      <trkpt lat="42.648015" lon="-2.75111333">
        <ele>688.0</ele>
        <time>2021-10-22T09:34:32.000Z</time>
      </trkpt>
      <trkpt lat="42.64801333" lon="-2.751115">
        <ele>688.0</ele>
        <time>2021-10-22T09:34:33.000Z</time>
      </trkpt>
      <trkpt lat="42.648015" lon="-2.75111833">
        <ele>689.0</ele>
        <time>2021-10-22T09:34:34.000Z</time>
      </trkpt>
      <trkpt lat="42.64801667" lon="-2.75112167">
        <ele>689.0</ele>
        <time>2021-10-22T09:34:35.000Z</time>
      </trkpt>
      <trkpt lat="42.64801667" lon="-2.751125">
        <ele>689.0</ele>
        <time>2021-10-22T09:34:36.000Z</time>
      </trkpt>
      <trkpt lat="42.64801833" lon="-2.751125">
        <ele>689.0</ele>
        <time>2021-10-22T09:34:37.000Z</time>
      </trkpt>
      <trkpt lat="42.64802" lon="-2.75112833">
        <ele>689.0</ele>
        <time>2021-10-22T09:34:38.000Z</time>
      </trkpt>
      <trkpt lat="42.64802" lon="-2.75113">
        <ele>689.0</ele>
        <time>2021-10-22T09:34:39.000Z</time>
      </trkpt>
      <trkpt lat="42.648025" lon="-2.751135">
        <ele>689.0</ele>
        <time>2021-10-22T09:34:40.000Z</time>
      </trkpt>
      <trkpt lat="42.64802833" lon="-2.75113667">
        <ele>689.0</ele>
        <time>2021-10-22T09:34:41.000Z</time>
      </trkpt>
      <trkpt lat="42.648035" lon="-2.75113833">
        <ele>689.0</ele>
        <time>2021-10-22T09:34:42.000Z</time>
      </trkpt>
      <trkpt lat="42.64804" lon="-2.75114167">
        <ele>690.0</ele>
        <time>2021-10-22T09:34:43.000Z</time>
      </trkpt>
      <trkpt lat="42.648045" lon="-2.75114667">
        <ele>690.0</ele>
        <time>2021-10-22T09:34:44.000Z</time>
      </trkpt>
      <trkpt lat="42.648045" lon="-2.75115">
        <ele>690.0</ele>
        <time>2021-10-22T09:34:45.000Z</time>
      </trkpt>
      <trkpt lat="42.64804333" lon="-2.75115333">
        <ele>690.0</ele>
        <time>2021-10-22T09:34:46.000Z</time>
      </trkpt>
      <trkpt lat="42.64804167" lon="-2.75115833">
        <ele>690.0</ele>
        <time>2021-10-22T09:34:47.000Z</time>
      </trkpt>
      <trkpt lat="42.64804167" lon="-2.751165">
        <ele>690.0</ele>
        <time>2021-10-22T09:34:48.000Z</time>
      </trkpt>
      <trkpt lat="42.64803833" lon="-2.751175">
        <ele>690.0</ele>
        <time>2021-10-22T09:34:49.000Z</time>
      </trkpt>
      <trkpt lat="42.64803667" lon="-2.751185">
        <ele>690.0</ele>
        <time>2021-10-22T09:34:50.000Z</time>
      </trkpt>
      <trkpt lat="42.648035" lon="-2.75119667">
        <ele>690.0</ele>
        <time>2021-10-22T09:34:51.000Z</time>
      </trkpt>
      <trkpt lat="42.64803" lon="-2.75120833">
        <ele>690.0</ele>
        <time>2021-10-22T09:34:52.000Z</time>
      </trkpt>
      <trkpt lat="42.64802333" lon="-2.75122333">
        <ele>690.0</ele>
        <time>2021-10-22T09:34:53.000Z</time>
      </trkpt>
      <trkpt lat="42.64801667" lon="-2.751235">
        <ele>690.0</ele>
        <time>2021-10-22T09:34:54.000Z</time>
      </trkpt>
      <trkpt lat="42.64801" lon="-2.75124333">
        <ele>689.0</ele>
        <time>2021-10-22T09:34:55.000Z</time>
      </trkpt>
      <trkpt lat="42.648005" lon="-2.75124833">
        <ele>689.0</ele>
        <time>2021-10-22T09:34:56.000Z</time>
      </trkpt>
      <trkpt lat="42.648" lon="-2.75125">
        <ele>689.0</ele>
        <time>2021-10-22T09:34:57.000Z</time>
      </trkpt>
      <trkpt lat="42.64799333" lon="-2.75125333">
        <ele>689.0</ele>
        <time>2021-10-22T09:34:58.000Z</time>
      </trkpt>
      <trkpt lat="42.64798833" lon="-2.751255">
        <ele>689.0</ele>
        <time>2021-10-22T09:34:59.000Z</time>
      </trkpt>
      <trkpt lat="42.64798333" lon="-2.751255">
        <ele>688.0</ele>
        <time>2021-10-22T09:35:00.000Z</time>
      </trkpt>
      <trkpt lat="42.64798" lon="-2.75125667">
        <ele>688.0</ele>
        <time>2021-10-22T09:35:01.000Z</time>
      </trkpt>
      <trkpt lat="42.64797667" lon="-2.75125833">
        <ele>688.0</ele>
        <time>2021-10-22T09:35:02.000Z</time>
      </trkpt>
      <trkpt lat="42.64797333" lon="-2.75126167">
        <ele>688.0</ele>
        <time>2021-10-22T09:35:03.000Z</time>
      </trkpt>
      <trkpt lat="42.64797167" lon="-2.751265">
        <ele>688.0</ele>
        <time>2021-10-22T09:35:04.000Z</time>
      </trkpt>
      <trkpt lat="42.64797" lon="-2.75127">
        <ele>688.0</ele>
        <time>2021-10-22T09:35:05.000Z</time>
      </trkpt>
      <trkpt lat="42.64796667" lon="-2.75127333">
        <ele>687.0</ele>
        <time>2021-10-22T09:35:06.000Z</time>
      </trkpt>
      <trkpt lat="42.64796667" lon="-2.751275">
        <ele>687.0</ele>
        <time>2021-10-22T09:35:07.000Z</time>
      </trkpt>
      <trkpt lat="42.64796667" lon="-2.75127833">
        <ele>687.0</ele>
        <time>2021-10-22T09:35:08.000Z</time>
      </trkpt>
      <trkpt lat="42.64796333" lon="-2.75128">
        <ele>687.0</ele>
        <time>2021-10-22T09:35:09.000Z</time>
      </trkpt>
      <trkpt lat="42.64795667" lon="-2.75128">
        <ele>686.0</ele>
        <time>2021-10-22T09:35:10.000Z</time>
      </trkpt>
      <trkpt lat="42.64795167" lon="-2.75127833">
        <ele>686.0</ele>
        <time>2021-10-22T09:35:11.000Z</time>
      </trkpt>
      <trkpt lat="42.64795" lon="-2.75127167">
        <ele>686.0</ele>
        <time>2021-10-22T09:35:12.000Z</time>
      </trkpt>
      <trkpt lat="42.64795167" lon="-2.75126833">
        <ele>686.0</ele>
        <time>2021-10-22T09:35:13.000Z</time>
      </trkpt>
      <trkpt lat="42.64795" lon="-2.75126667">
        <ele>686.0</ele>
        <time>2021-10-22T09:35:14.000Z</time>
      </trkpt>
      <trkpt lat="42.64794833" lon="-2.75126667">
        <ele>685.0</ele>
        <time>2021-10-22T09:35:15.000Z</time>
      </trkpt>
      <trkpt lat="42.64794667" lon="-2.75126333">
        <ele>685.0</ele>
        <time>2021-10-22T09:35:16.000Z</time>
      </trkpt>
      <trkpt lat="42.647945" lon="-2.75126167">
        <ele>685.0</ele>
        <time>2021-10-22T09:35:17.000Z</time>
      </trkpt>
      <trkpt lat="42.647945" lon="-2.75126">
        <ele>685.0</ele>
        <time>2021-10-22T09:35:18.000Z</time>
      </trkpt>
      <trkpt lat="42.64794333" lon="-2.75125833">
        <ele>685.0</ele>
        <time>2021-10-22T09:35:19.000Z</time>
      </trkpt>
      <trkpt lat="42.64794167" lon="-2.75125667">
        <ele>684.0</ele>
        <time>2021-10-22T09:35:20.000Z</time>
      </trkpt>
      <trkpt lat="42.64794167" lon="-2.75125833">
        <ele>684.0</ele>
        <time>2021-10-22T09:35:21.000Z</time>
      </trkpt>
      <trkpt lat="42.64794167" lon="-2.75126333">
        <ele>684.0</ele>
        <time>2021-10-22T09:35:22.000Z</time>
      </trkpt>
      <trkpt lat="42.64794" lon="-2.75126667">
        <ele>684.0</ele>
        <time>2021-10-22T09:35:23.000Z</time>
      </trkpt>
      <trkpt lat="42.64794" lon="-2.75126833">
        <ele>684.0</ele>
        <time>2021-10-22T09:35:24.000Z</time>
      </trkpt>
      <trkpt lat="42.64794" lon="-2.75127">
        <ele>684.0</ele>
        <time>2021-10-22T09:35:25.000Z</time>
      </trkpt>
      <trkpt lat="42.64794167" lon="-2.75127">
        <ele>683.0</ele>
        <time>2021-10-22T09:35:26.000Z</time>
      </trkpt>
      <trkpt lat="42.647945" lon="-2.75127">
        <ele>683.0</ele>
        <time>2021-10-22T09:35:27.000Z</time>
      </trkpt>
      <trkpt lat="42.64794833" lon="-2.75127167">
        <ele>683.0</ele>
        <time>2021-10-22T09:35:28.000Z</time>
      </trkpt>
      <trkpt lat="42.64794833" lon="-2.75127">
        <ele>683.0</ele>
        <time>2021-10-22T09:35:29.000Z</time>
      </trkpt>
      <trkpt lat="42.64795167" lon="-2.75126667">
        <ele>683.0</ele>
        <time>2021-10-22T09:35:30.000Z</time>
      </trkpt>
      <trkpt lat="42.647955" lon="-2.75126667">
        <ele>683.0</ele>
        <time>2021-10-22T09:35:31.000Z</time>
      </trkpt>
      <trkpt lat="42.647955" lon="-2.75127">
        <ele>683.0</ele>
        <time>2021-10-22T09:35:32.000Z</time>
      </trkpt>
      <trkpt lat="42.64795667" lon="-2.751275">
        <ele>683.0</ele>
        <time>2021-10-22T09:35:33.000Z</time>
      </trkpt>
      <trkpt lat="42.64796" lon="-2.75128333">
        <ele>682.0</ele>
        <time>2021-10-22T09:35:34.000Z</time>
      </trkpt>
      <trkpt lat="42.64796333" lon="-2.75129667">
        <ele>682.0</ele>
        <time>2021-10-22T09:35:35.000Z</time>
      </trkpt>
      <trkpt lat="42.647965" lon="-2.75131167">
        <ele>682.0</ele>
        <time>2021-10-22T09:35:36.000Z</time>
      </trkpt>
      <trkpt lat="42.64796333" lon="-2.75132833">
        <ele>682.0</ele>
        <time>2021-10-22T09:35:37.000Z</time>
      </trkpt>
      <trkpt lat="42.647965" lon="-2.75134833">
        <ele>682.0</ele>
        <time>2021-10-22T09:35:38.000Z</time>
      </trkpt>
      <trkpt lat="42.64796667" lon="-2.751365">
        <ele>682.0</ele>
        <time>2021-10-22T09:35:39.000Z</time>
      </trkpt>
      <trkpt lat="42.64796667" lon="-2.75138">
        <ele>681.0</ele>
        <time>2021-10-22T09:35:40.000Z</time>
      </trkpt>
      <trkpt lat="42.64796667" lon="-2.75139333">
        <ele>681.0</ele>
        <time>2021-10-22T09:35:41.000Z</time>
      </trkpt>
      <trkpt lat="42.64796833" lon="-2.75140833">
        <ele>681.0</ele>
        <time>2021-10-22T09:35:42.000Z</time>
      </trkpt>
      <trkpt lat="42.64797" lon="-2.751425">
        <ele>681.0</ele>
        <time>2021-10-22T09:35:43.000Z</time>
      </trkpt>
      <trkpt lat="42.64796833" lon="-2.75144">
        <ele>681.0</ele>
        <time>2021-10-22T09:35:44.000Z</time>
      </trkpt>
      <trkpt lat="42.647965" lon="-2.75145833">
        <ele>681.0</ele>
        <time>2021-10-22T09:35:45.000Z</time>
      </trkpt>
      <trkpt lat="42.64795833" lon="-2.75147333">
        <ele>681.0</ele>
        <time>2021-10-22T09:35:46.000Z</time>
      </trkpt>
      <trkpt lat="42.64795" lon="-2.75148667">
        <ele>680.0</ele>
        <time>2021-10-22T09:35:47.000Z</time>
      </trkpt>
      <trkpt lat="42.64794167" lon="-2.7515">
        <ele>680.0</ele>
        <time>2021-10-22T09:35:48.000Z</time>
      </trkpt>
      <trkpt lat="42.64793167" lon="-2.75151">
        <ele>680.0</ele>
        <time>2021-10-22T09:35:49.000Z</time>
      </trkpt>
      <trkpt lat="42.64792333" lon="-2.75152">
        <ele>680.0</ele>
        <time>2021-10-22T09:35:50.000Z</time>
      </trkpt>
      <trkpt lat="42.64791333" lon="-2.75153">
        <ele>680.0</ele>
        <time>2021-10-22T09:35:51.000Z</time>
      </trkpt>
      <trkpt lat="42.647905" lon="-2.75154167">
        <ele>680.0</ele>
        <time>2021-10-22T09:35:52.000Z</time>
      </trkpt>
      <trkpt lat="42.647895" lon="-2.75155167">
        <ele>680.0</ele>
        <time>2021-10-22T09:35:53.000Z</time>
      </trkpt>
      <trkpt lat="42.64788333" lon="-2.75155667">
        <ele>680.0</ele>
        <time>2021-10-22T09:35:54.000Z</time>
      </trkpt>
      <trkpt lat="42.647875" lon="-2.75156167">
        <ele>680.0</ele>
        <time>2021-10-22T09:35:55.000Z</time>
      </trkpt>
      <trkpt lat="42.64787" lon="-2.75156667">
        <ele>679.0</ele>
        <time>2021-10-22T09:35:56.000Z</time>
      </trkpt>
      <trkpt lat="42.64786833" lon="-2.75156667">
        <ele>679.0</ele>
        <time>2021-10-22T09:35:57.000Z</time>
      </trkpt>
      <trkpt lat="42.64786833" lon="-2.75156833">
        <ele>679.0</ele>
        <time>2021-10-22T09:35:58.000Z</time>
      </trkpt>
      <trkpt lat="42.647875" lon="-2.75157333">
        <ele>679.0</ele>
        <time>2021-10-22T09:35:59.000Z</time>
      </trkpt>
      <trkpt lat="42.64788" lon="-2.75158">
        <ele>679.0</ele>
        <time>2021-10-22T09:36:00.000Z</time>
      </trkpt>
      <trkpt lat="42.647885" lon="-2.75159">
        <ele>679.0</ele>
        <time>2021-10-22T09:36:01.000Z</time>
      </trkpt>
      <trkpt lat="42.64789167" lon="-2.75159833">
        <ele>679.0</ele>
        <time>2021-10-22T09:36:02.000Z</time>
      </trkpt>
      <trkpt lat="42.64790167" lon="-2.75160833">
        <ele>679.0</ele>
        <time>2021-10-22T09:36:03.000Z</time>
      </trkpt>
      <trkpt lat="42.64790833" lon="-2.75161833">
        <ele>679.0</ele>
        <time>2021-10-22T09:36:04.000Z</time>
      </trkpt>
      <trkpt lat="42.64791833" lon="-2.751625">
        <ele>679.0</ele>
        <time>2021-10-22T09:36:05.000Z</time>
      </trkpt>
      <trkpt lat="42.647925" lon="-2.75163333">
        <ele>679.0</ele>
        <time>2021-10-22T09:36:06.000Z</time>
      </trkpt>
      <trkpt lat="42.64793333" lon="-2.75164833">
        <ele>678.0</ele>
        <time>2021-10-22T09:36:07.000Z</time>
      </trkpt>
      <trkpt lat="42.64794" lon="-2.75166">
        <ele>678.0</ele>
        <time>2021-10-22T09:36:08.000Z</time>
      </trkpt>
      <trkpt lat="42.64794667" lon="-2.75167">
        <ele>678.0</ele>
        <time>2021-10-22T09:36:09.000Z</time>
      </trkpt>
      <trkpt lat="42.64795667" lon="-2.75167833">
        <ele>678.0</ele>
        <time>2021-10-22T09:36:10.000Z</time>
      </trkpt>
      <trkpt lat="42.64796667" lon="-2.75168333">
        <ele>678.0</ele>
        <time>2021-10-22T09:36:11.000Z</time>
      </trkpt>
      <trkpt lat="42.64797667" lon="-2.75169">
        <ele>678.0</ele>
        <time>2021-10-22T09:36:12.000Z</time>
      </trkpt>
      <trkpt lat="42.64798667" lon="-2.75169833">
        <ele>677.0</ele>
        <time>2021-10-22T09:36:13.000Z</time>
      </trkpt>
      <trkpt lat="42.647995" lon="-2.75170833">
        <ele>677.0</ele>
        <time>2021-10-22T09:36:14.000Z</time>
      </trkpt>
      <trkpt lat="42.64800333" lon="-2.75171833">
        <ele>677.0</ele>
        <time>2021-10-22T09:36:15.000Z</time>
      </trkpt>
      <trkpt lat="42.648005" lon="-2.751725">
        <ele>677.0</ele>
        <time>2021-10-22T09:36:16.000Z</time>
      </trkpt>
      <trkpt lat="42.64800667" lon="-2.75173333">
        <ele>677.0</ele>
        <time>2021-10-22T09:36:17.000Z</time>
      </trkpt>
      <trkpt lat="42.64800667" lon="-2.75174167">
        <ele>677.0</ele>
        <time>2021-10-22T09:36:18.000Z</time>
      </trkpt>
      <trkpt lat="42.648005" lon="-2.75175833">
        <ele>677.0</ele>
        <time>2021-10-22T09:36:19.000Z</time>
      </trkpt>
      <trkpt lat="42.64800167" lon="-2.75177667">
        <ele>676.0</ele>
        <time>2021-10-22T09:36:20.000Z</time>
      </trkpt>
      <trkpt lat="42.64799667" lon="-2.751795">
        <ele>676.0</ele>
        <time>2021-10-22T09:36:21.000Z</time>
      </trkpt>
      <trkpt lat="42.64799" lon="-2.75181">
        <ele>676.0</ele>
        <time>2021-10-22T09:36:22.000Z</time>
      </trkpt>
      <trkpt lat="42.64798333" lon="-2.75182167">
        <ele>676.0</ele>
        <time>2021-10-22T09:36:23.000Z</time>
      </trkpt>
      <trkpt lat="42.64797333" lon="-2.75183">
        <ele>676.0</ele>
        <time>2021-10-22T09:36:24.000Z</time>
      </trkpt>
      <trkpt lat="42.64796333" lon="-2.75183667">
        <ele>676.0</ele>
        <time>2021-10-22T09:36:25.000Z</time>
      </trkpt>
      <trkpt lat="42.64795333" lon="-2.75184">
        <ele>676.0</ele>
        <time>2021-10-22T09:36:26.000Z</time>
      </trkpt>
      <trkpt lat="42.647945" lon="-2.75184333">
        <ele>676.0</ele>
        <time>2021-10-22T09:36:27.000Z</time>
      </trkpt>
      <trkpt lat="42.647935" lon="-2.75184667">
        <ele>676.0</ele>
        <time>2021-10-22T09:36:28.000Z</time>
      </trkpt>
      <trkpt lat="42.64792667" lon="-2.75185">
        <ele>676.0</ele>
        <time>2021-10-22T09:36:29.000Z</time>
      </trkpt>
      <trkpt lat="42.64791833" lon="-2.75185333">
        <ele>675.0</ele>
        <time>2021-10-22T09:36:30.000Z</time>
      </trkpt>
      <trkpt lat="42.64791" lon="-2.75185833">
        <ele>675.0</ele>
        <time>2021-10-22T09:36:31.000Z</time>
      </trkpt>
      <trkpt lat="42.64790167" lon="-2.75186333">
        <ele>675.0</ele>
        <time>2021-10-22T09:36:32.000Z</time>
      </trkpt>
      <trkpt lat="42.64789167" lon="-2.75186833">
        <ele>675.0</ele>
        <time>2021-10-22T09:36:33.000Z</time>
      </trkpt>
      <trkpt lat="42.64788" lon="-2.75187333">
        <ele>675.0</ele>
        <time>2021-10-22T09:36:34.000Z</time>
      </trkpt>
      <trkpt lat="42.64786833" lon="-2.75188">
        <ele>675.0</ele>
        <time>2021-10-22T09:36:35.000Z</time>
      </trkpt>
      <trkpt lat="42.647855" lon="-2.75188667">
        <ele>675.0</ele>
        <time>2021-10-22T09:36:36.000Z</time>
      </trkpt>
      <trkpt lat="42.64784333" lon="-2.75189333">
        <ele>675.0</ele>
        <time>2021-10-22T09:36:37.000Z</time>
      </trkpt>
      <trkpt lat="42.64783167" lon="-2.75190333">
        <ele>675.0</ele>
        <time>2021-10-22T09:36:38.000Z</time>
      </trkpt>
      <trkpt lat="42.64781833" lon="-2.751915">
        <ele>675.0</ele>
        <time>2021-10-22T09:36:39.000Z</time>
      </trkpt>
      <trkpt lat="42.64780833" lon="-2.75193">
        <ele>675.0</ele>
        <time>2021-10-22T09:36:40.000Z</time>
      </trkpt>
      <trkpt lat="42.64779833" lon="-2.75194333">
        <ele>675.0</ele>
        <time>2021-10-22T09:36:41.000Z</time>
      </trkpt>
      <trkpt lat="42.647785" lon="-2.75195">
        <ele>675.0</ele>
        <time>2021-10-22T09:36:42.000Z</time>
      </trkpt>
      <trkpt lat="42.64776833" lon="-2.75194833">
        <ele>675.0</ele>
        <time>2021-10-22T09:36:43.000Z</time>
      </trkpt>
      <trkpt lat="42.64775333" lon="-2.75194333">
        <ele>675.0</ele>
        <time>2021-10-22T09:36:44.000Z</time>
      </trkpt>
      <trkpt lat="42.64774" lon="-2.75193167">
        <ele>675.0</ele>
        <time>2021-10-22T09:36:45.000Z</time>
      </trkpt>
      <trkpt lat="42.647725" lon="-2.75192">
        <ele>675.0</ele>
        <time>2021-10-22T09:36:46.000Z</time>
      </trkpt>
      <trkpt lat="42.64771333" lon="-2.75190333">
        <ele>675.0</ele>
        <time>2021-10-22T09:36:47.000Z</time>
      </trkpt>
      <trkpt lat="42.64770333" lon="-2.75189">
        <ele>675.0</ele>
        <time>2021-10-22T09:36:48.000Z</time>
      </trkpt>
      <trkpt lat="42.64769333" lon="-2.75187333">
        <ele>675.0</ele>
        <time>2021-10-22T09:36:49.000Z</time>
      </trkpt>
      <trkpt lat="42.64768333" lon="-2.75185833">
        <ele>675.0</ele>
        <time>2021-10-22T09:36:50.000Z</time>
      </trkpt>
      <trkpt lat="42.64767333" lon="-2.751845">
        <ele>675.0</ele>
        <time>2021-10-22T09:36:51.000Z</time>
      </trkpt>
      <trkpt lat="42.64766667" lon="-2.751835">
        <ele>675.0</ele>
        <time>2021-10-22T09:36:52.000Z</time>
      </trkpt>
      <trkpt lat="42.64766" lon="-2.75182667">
        <ele>675.0</ele>
        <time>2021-10-22T09:36:53.000Z</time>
      </trkpt>
      <trkpt lat="42.64765167" lon="-2.75182">
        <ele>675.0</ele>
        <time>2021-10-22T09:36:54.000Z</time>
      </trkpt>
      <trkpt lat="42.64764167" lon="-2.751815">
        <ele>675.0</ele>
        <time>2021-10-22T09:36:55.000Z</time>
      </trkpt>
      <trkpt lat="42.64763167" lon="-2.75180667">
        <ele>675.0</ele>
        <time>2021-10-22T09:36:56.000Z</time>
      </trkpt>
      <trkpt lat="42.64762333" lon="-2.75179833">
        <ele>675.0</ele>
        <time>2021-10-22T09:36:57.000Z</time>
      </trkpt>
      <trkpt lat="42.64761333" lon="-2.751785">
        <ele>675.0</ele>
        <time>2021-10-22T09:36:58.000Z</time>
      </trkpt>
      <trkpt lat="42.64760667" lon="-2.75177">
        <ele>674.0</ele>
        <time>2021-10-22T09:36:59.000Z</time>
      </trkpt>
      <trkpt lat="42.64760167" lon="-2.75175333">
        <ele>674.0</ele>
        <time>2021-10-22T09:37:00.000Z</time>
      </trkpt>
      <trkpt lat="42.64759833" lon="-2.75173167">
        <ele>674.0</ele>
        <time>2021-10-22T09:37:01.000Z</time>
      </trkpt>
      <trkpt lat="42.64759667" lon="-2.751705">
        <ele>674.0</ele>
        <time>2021-10-22T09:37:02.000Z</time>
      </trkpt>
      <trkpt lat="42.64759667" lon="-2.75168">
        <ele>674.0</ele>
        <time>2021-10-22T09:37:03.000Z</time>
      </trkpt>
      <trkpt lat="42.647595" lon="-2.75165667">
        <ele>674.0</ele>
        <time>2021-10-22T09:37:04.000Z</time>
      </trkpt>
      <trkpt lat="42.64759833" lon="-2.75163667">
        <ele>674.0</ele>
        <time>2021-10-22T09:37:05.000Z</time>
      </trkpt>
      <trkpt lat="42.647605" lon="-2.75161833">
        <ele>674.0</ele>
        <time>2021-10-22T09:37:06.000Z</time>
      </trkpt>
      <trkpt lat="42.64760667" lon="-2.75159667">
        <ele>674.0</ele>
        <time>2021-10-22T09:37:07.000Z</time>
      </trkpt>
      <trkpt lat="42.64761167" lon="-2.75157333">
        <ele>674.0</ele>
        <time>2021-10-22T09:37:08.000Z</time>
      </trkpt>
      <trkpt lat="42.64761833" lon="-2.75155167">
        <ele>674.0</ele>
        <time>2021-10-22T09:37:09.000Z</time>
      </trkpt>
      <trkpt lat="42.64763" lon="-2.75152833">
        <ele>674.0</ele>
        <time>2021-10-22T09:37:10.000Z</time>
      </trkpt>
      <trkpt lat="42.647645" lon="-2.75150667">
        <ele>674.0</ele>
        <time>2021-10-22T09:37:11.000Z</time>
      </trkpt>
      <trkpt lat="42.64766333" lon="-2.751485">
        <ele>674.0</ele>
        <time>2021-10-22T09:37:12.000Z</time>
      </trkpt>
      <trkpt lat="42.64768333" lon="-2.751465">
        <ele>675.0</ele>
        <time>2021-10-22T09:37:13.000Z</time>
      </trkpt>
      <trkpt lat="42.64770333" lon="-2.751445">
        <ele>675.0</ele>
        <time>2021-10-22T09:37:14.000Z</time>
      </trkpt>
      <trkpt lat="42.64772167" lon="-2.75142667">
        <ele>675.0</ele>
        <time>2021-10-22T09:37:15.000Z</time>
      </trkpt>
      <trkpt lat="42.64773833" lon="-2.75140833">
        <ele>675.0</ele>
        <time>2021-10-22T09:37:16.000Z</time>
      </trkpt>
      <trkpt lat="42.64775833" lon="-2.75138833">
        <ele>675.0</ele>
        <time>2021-10-22T09:37:17.000Z</time>
      </trkpt>
      <trkpt lat="42.64777833" lon="-2.75137">
        <ele>675.0</ele>
        <time>2021-10-22T09:37:18.000Z</time>
      </trkpt>
      <trkpt lat="42.64779667" lon="-2.75135167">
        <ele>675.0</ele>
        <time>2021-10-22T09:37:19.000Z</time>
      </trkpt>
      <trkpt lat="42.64781333" lon="-2.75133667">
        <ele>675.0</ele>
        <time>2021-10-22T09:37:20.000Z</time>
      </trkpt>
      <trkpt lat="42.64782667" lon="-2.75132167">
        <ele>676.0</ele>
        <time>2021-10-22T09:37:21.000Z</time>
      </trkpt>
      <trkpt lat="42.64783833" lon="-2.751305">
        <ele>676.0</ele>
        <time>2021-10-22T09:37:22.000Z</time>
      </trkpt>
      <trkpt lat="42.64784667" lon="-2.75129">
        <ele>676.0</ele>
        <time>2021-10-22T09:37:23.000Z</time>
      </trkpt>
      <trkpt lat="42.64785167" lon="-2.751275">
        <ele>676.0</ele>
        <time>2021-10-22T09:37:24.000Z</time>
      </trkpt>
      <trkpt lat="42.64785833" lon="-2.75126">
        <ele>676.0</ele>
        <time>2021-10-22T09:37:25.000Z</time>
      </trkpt>
      <trkpt lat="42.64786333" lon="-2.75124667">
        <ele>676.0</ele>
        <time>2021-10-22T09:37:26.000Z</time>
      </trkpt>
      <trkpt lat="42.64787" lon="-2.75123667">
        <ele>676.0</ele>
        <time>2021-10-22T09:37:27.000Z</time>
      </trkpt>
      <trkpt lat="42.64787833" lon="-2.75123">
        <ele>676.0</ele>
        <time>2021-10-22T09:37:28.000Z</time>
      </trkpt>
      <trkpt lat="42.64788833" lon="-2.75122333">
        <ele>676.0</ele>
        <time>2021-10-22T09:37:29.000Z</time>
      </trkpt>
      <trkpt lat="42.6479" lon="-2.75121333">
        <ele>676.0</ele>
        <time>2021-10-22T09:37:30.000Z</time>
      </trkpt>
      <trkpt lat="42.64790667" lon="-2.75120833">
        <ele>676.0</ele>
        <time>2021-10-22T09:37:31.000Z</time>
      </trkpt>
      <trkpt lat="42.64790667" lon="-2.75120667">
        <ele>676.0</ele>
        <time>2021-10-22T09:37:32.000Z</time>
      </trkpt>
      <trkpt lat="42.64790333" lon="-2.751205">
        <ele>676.0</ele>
        <time>2021-10-22T09:37:33.000Z</time>
      </trkpt>
      <trkpt lat="42.6479" lon="-2.75120167">
        <ele>676.0</ele>
        <time>2021-10-22T09:37:34.000Z</time>
      </trkpt>
      <trkpt lat="42.64789833" lon="-2.7512">
        <ele>676.0</ele>
        <time>2021-10-22T09:37:35.000Z</time>
      </trkpt>
      <trkpt lat="42.64789667" lon="-2.751195">
        <ele>676.0</ele>
        <time>2021-10-22T09:37:36.000Z</time>
      </trkpt>
      <trkpt lat="42.64789833" lon="-2.75119">
        <ele>676.0</ele>
        <time>2021-10-22T09:37:37.000Z</time>
      </trkpt>
      <trkpt lat="42.64789833" lon="-2.75118667">
        <ele>676.0</ele>
        <time>2021-10-22T09:37:38.000Z</time>
      </trkpt>
      <trkpt lat="42.64789833" lon="-2.75118333">
        <ele>676.0</ele>
        <time>2021-10-22T09:37:39.000Z</time>
      </trkpt>
      <trkpt lat="42.64789833" lon="-2.75118">
        <ele>677.0</ele>
        <time>2021-10-22T09:37:40.000Z</time>
      </trkpt>
      <trkpt lat="42.64789833" lon="-2.751175">
        <ele>677.0</ele>
        <time>2021-10-22T09:37:41.000Z</time>
      </trkpt>
      <trkpt lat="42.64789833" lon="-2.75117167">
        <ele>677.0</ele>
        <time>2021-10-22T09:37:42.000Z</time>
      </trkpt>
      <trkpt lat="42.6479" lon="-2.75116833">
        <ele>677.0</ele>
        <time>2021-10-22T09:37:43.000Z</time>
      </trkpt>
      <trkpt lat="42.6479" lon="-2.751165">
        <ele>677.0</ele>
        <time>2021-10-22T09:37:44.000Z</time>
      </trkpt>
      <trkpt lat="42.6479" lon="-2.75116333">
        <ele>677.0</ele>
        <time>2021-10-22T09:37:45.000Z</time>
      </trkpt>
      <trkpt lat="42.6479" lon="-2.75116">
        <ele>677.0</ele>
        <time>2021-10-22T09:37:46.000Z</time>
      </trkpt>
      <trkpt lat="42.6479" lon="-2.75115833">
        <ele>677.0</ele>
        <time>2021-10-22T09:37:47.000Z</time>
      </trkpt>
      <trkpt lat="42.64790167" lon="-2.751155">
        <ele>677.0</ele>
        <time>2021-10-22T09:37:48.000Z</time>
      </trkpt>
      <trkpt lat="42.6479" lon="-2.751155">
        <ele>677.0</ele>
        <time>2021-10-22T09:37:49.000Z</time>
      </trkpt>
      <trkpt lat="42.6479" lon="-2.75115333">
        <ele>677.0</ele>
        <time>2021-10-22T09:37:50.000Z</time>
      </trkpt>
      <trkpt lat="42.6479" lon="-2.75115167">
        <ele>677.0</ele>
        <time>2021-10-22T09:37:51.000Z</time>
      </trkpt>
      <trkpt lat="42.6479" lon="-2.75115">
        <ele>678.0</ele>
        <time>2021-10-22T09:37:52.000Z</time>
      </trkpt>
      <trkpt lat="42.6479" lon="-2.75114833">
        <ele>678.0</ele>
        <time>2021-10-22T09:37:53.000Z</time>
      </trkpt>
      <trkpt lat="42.6479" lon="-2.75114667">
        <ele>678.0</ele>
        <time>2021-10-22T09:37:54.000Z</time>
      </trkpt>
      <trkpt lat="42.64790167" lon="-2.75114667">
        <ele>678.0</ele>
        <time>2021-10-22T09:37:55.000Z</time>
      </trkpt>
      <trkpt lat="42.64790167" lon="-2.751145">
        <ele>678.0</ele>
        <time>2021-10-22T09:37:56.000Z</time>
      </trkpt>
      <trkpt lat="42.6479" lon="-2.75114333">
        <ele>678.0</ele>
        <time>2021-10-22T09:37:57.000Z</time>
      </trkpt>
      <trkpt lat="42.64790167" lon="-2.75114333">
        <ele>678.0</ele>
        <time>2021-10-22T09:37:58.000Z</time>
      </trkpt>
      <trkpt lat="42.647905" lon="-2.75115">
        <ele>678.0</ele>
        <time>2021-10-22T09:37:59.000Z</time>
      </trkpt>
      <trkpt lat="42.64790833" lon="-2.751155">
        <ele>678.0</ele>
        <time>2021-10-22T09:38:00.000Z</time>
      </trkpt>
      <trkpt lat="42.64791667" lon="-2.75116">
        <ele>678.0</ele>
        <time>2021-10-22T09:38:01.000Z</time>
      </trkpt>
      <trkpt lat="42.64792333" lon="-2.75116667">
        <ele>678.0</ele>
        <time>2021-10-22T09:38:02.000Z</time>
      </trkpt>
      <trkpt lat="42.64793167" lon="-2.75117167">
        <ele>678.0</ele>
        <time>2021-10-22T09:38:03.000Z</time>
      </trkpt>
      <trkpt lat="42.647935" lon="-2.75117333">
        <ele>678.0</ele>
        <time>2021-10-22T09:38:04.000Z</time>
      </trkpt>
      <trkpt lat="42.64793833" lon="-2.75117167">
        <ele>678.0</ele>
        <time>2021-10-22T09:38:05.000Z</time>
      </trkpt>
      <trkpt lat="42.64794" lon="-2.751175">
        <ele>677.0</ele>
        <time>2021-10-22T09:38:06.000Z</time>
      </trkpt>
      <trkpt lat="42.64794167" lon="-2.75117833">
        <ele>677.0</ele>
        <time>2021-10-22T09:38:07.000Z</time>
      </trkpt>
      <trkpt lat="42.647945" lon="-2.75117667">
        <ele>677.0</ele>
        <time>2021-10-22T09:38:08.000Z</time>
      </trkpt>
      <trkpt lat="42.64794667" lon="-2.75117333">
        <ele>677.0</ele>
        <time>2021-10-22T09:38:09.000Z</time>
      </trkpt>
      <trkpt lat="42.64794833" lon="-2.75117167">
        <ele>677.0</ele>
        <time>2021-10-22T09:38:10.000Z</time>
      </trkpt>
      <trkpt lat="42.64794833" lon="-2.75117333">
        <ele>677.0</ele>
        <time>2021-10-22T09:38:11.000Z</time>
      </trkpt>
      <trkpt lat="42.64795" lon="-2.75117333">
        <ele>677.0</ele>
        <time>2021-10-22T09:38:12.000Z</time>
      </trkpt>
      <trkpt lat="42.64795" lon="-2.75117333">
        <ele>677.0</ele>
        <time>2021-10-22T09:38:13.000Z</time>
      </trkpt>
      <trkpt lat="42.64795" lon="-2.75117333">
        <ele>677.0</ele>
        <time>2021-10-22T09:38:14.000Z</time>
      </trkpt>
      <trkpt lat="42.64795167" lon="-2.751175">
        <ele>677.0</ele>
        <time>2021-10-22T09:38:15.000Z</time>
      </trkpt>
      <trkpt lat="42.64795167" lon="-2.751175">
        <ele>677.0</ele>
        <time>2021-10-22T09:38:16.000Z</time>
      </trkpt>
      <trkpt lat="42.64795333" lon="-2.75117667">
        <ele>677.0</ele>
        <time>2021-10-22T09:38:17.000Z</time>
      </trkpt>
      <trkpt lat="42.64795333" lon="-2.75117667">
        <ele>677.0</ele>
        <time>2021-10-22T09:38:18.000Z</time>
      </trkpt>
      <trkpt lat="42.64795333" lon="-2.75117833">
        <ele>677.0</ele>
        <time>2021-10-22T09:38:19.000Z</time>
      </trkpt>
      <trkpt lat="42.647955" lon="-2.75117833">
        <ele>677.0</ele>
        <time>2021-10-22T09:38:20.000Z</time>
      </trkpt>
      <trkpt lat="42.647955" lon="-2.75117833">
        <ele>677.0</ele>
        <time>2021-10-22T09:38:21.000Z</time>
      </trkpt>
      <trkpt lat="42.647955" lon="-2.75118">
        <ele>677.0</ele>
        <time>2021-10-22T09:38:22.000Z</time>
      </trkpt>
      <trkpt lat="42.64795667" lon="-2.75118">
        <ele>677.0</ele>
        <time>2021-10-22T09:38:23.000Z</time>
      </trkpt>
      <trkpt lat="42.64795667" lon="-2.75118">
        <ele>677.0</ele>
        <time>2021-10-22T09:38:24.000Z</time>
      </trkpt>
      <trkpt lat="42.64795667" lon="-2.75118">
        <ele>677.0</ele>
        <time>2021-10-22T09:38:25.000Z</time>
      </trkpt>
      <trkpt lat="42.64795667" lon="-2.75118">
        <ele>677.0</ele>
        <time>2021-10-22T09:38:26.000Z</time>
      </trkpt>
      <trkpt lat="42.64795667" lon="-2.75118">
        <ele>677.0</ele>
        <time>2021-10-22T09:38:27.000Z</time>
      </trkpt>
      <trkpt lat="42.64795667" lon="-2.75118167">
        <ele>677.0</ele>
        <time>2021-10-22T09:38:28.000Z</time>
      </trkpt>
      <trkpt lat="42.64795667" lon="-2.75118167">
        <ele>677.0</ele>
        <time>2021-10-22T09:38:29.000Z</time>
      </trkpt>
      <trkpt lat="42.647955" lon="-2.75118167">
        <ele>677.0</ele>
        <time>2021-10-22T09:38:30.000Z</time>
      </trkpt>
      <trkpt lat="42.647955" lon="-2.75118167">
        <ele>677.0</ele>
        <time>2021-10-22T09:38:31.000Z</time>
      </trkpt>
      <trkpt lat="42.647955" lon="-2.75118167">
        <ele>677.0</ele>
        <time>2021-10-22T09:38:32.000Z</time>
      </trkpt>
      <trkpt lat="42.647955" lon="-2.75118167">
        <ele>677.0</ele>
        <time>2021-10-22T09:38:33.000Z</time>
      </trkpt>
      <trkpt lat="42.647955" lon="-2.75118167">
        <ele>677.0</ele>
        <time>2021-10-22T09:38:34.000Z</time>
      </trkpt>
      <trkpt lat="42.64795333" lon="-2.75118167">
        <ele>677.0</ele>
        <time>2021-10-22T09:38:35.000Z</time>
      </trkpt>
      <trkpt lat="42.64795333" lon="-2.75118333">
        <ele>677.0</ele>
        <time>2021-10-22T09:38:36.000Z</time>
      </trkpt>
      <trkpt lat="42.64795167" lon="-2.75118167">
        <ele>677.0</ele>
        <time>2021-10-22T09:38:37.000Z</time>
      </trkpt>
      <trkpt lat="42.64795" lon="-2.75118167">
        <ele>677.0</ele>
        <time>2021-10-22T09:38:38.000Z</time>
      </trkpt>
      <trkpt lat="42.64795" lon="-2.75118333">
        <ele>677.0</ele>
        <time>2021-10-22T09:38:39.000Z</time>
      </trkpt>
      <trkpt lat="42.64794833" lon="-2.75118333">
        <ele>677.0</ele>
        <time>2021-10-22T09:38:40.000Z</time>
      </trkpt>
      <trkpt lat="42.64794833" lon="-2.75118333">
        <ele>677.0</ele>
        <time>2021-10-22T09:38:41.000Z</time>
      </trkpt>
      <trkpt lat="42.64794667" lon="-2.75118333">
        <ele>677.0</ele>
        <time>2021-10-22T09:38:42.000Z</time>
      </trkpt>
      <trkpt lat="42.64794667" lon="-2.75118333">
        <ele>677.0</ele>
        <time>2021-10-22T09:38:43.000Z</time>
      </trkpt>
      <trkpt lat="42.64794667" lon="-2.751185">
        <ele>677.0</ele>
        <time>2021-10-22T09:38:44.000Z</time>
      </trkpt>
      <trkpt lat="42.64794667" lon="-2.751185">
        <ele>677.0</ele>
        <time>2021-10-22T09:38:45.000Z</time>
      </trkpt>
      <trkpt lat="42.647945" lon="-2.751185">
        <ele>677.0</ele>
        <time>2021-10-22T09:38:46.000Z</time>
      </trkpt>
      <trkpt lat="42.647945" lon="-2.751185">
        <ele>677.0</ele>
        <time>2021-10-22T09:38:47.000Z</time>
      </trkpt>
      <trkpt lat="42.647945" lon="-2.751185">
        <ele>677.0</ele>
        <time>2021-10-22T09:38:48.000Z</time>
      </trkpt>
      <trkpt lat="42.647945" lon="-2.751185">
        <ele>677.0</ele>
        <time>2021-10-22T09:38:49.000Z</time>
      </trkpt>
      <trkpt lat="42.64794333" lon="-2.751185">
        <ele>677.0</ele>
        <time>2021-10-22T09:38:50.000Z</time>
      </trkpt>
      <trkpt lat="42.64794333" lon="-2.751185">
        <ele>677.0</ele>
        <time>2021-10-22T09:38:51.000Z</time>
      </trkpt>
      <trkpt lat="42.64794167" lon="-2.75118833">
        <ele>677.0</ele>
        <time>2021-10-22T09:38:52.000Z</time>
      </trkpt>
      <trkpt lat="42.64793833" lon="-2.75119333">
        <ele>677.0</ele>
        <time>2021-10-22T09:38:53.000Z</time>
      </trkpt>
      <trkpt lat="42.647935" lon="-2.75119667">
        <ele>677.0</ele>
        <time>2021-10-22T09:38:54.000Z</time>
      </trkpt>
      <trkpt lat="42.64793" lon="-2.7512">
        <ele>677.0</ele>
        <time>2021-10-22T09:38:55.000Z</time>
      </trkpt>
      <trkpt lat="42.64792667" lon="-2.75120167">
        <ele>677.0</ele>
        <time>2021-10-22T09:38:56.000Z</time>
      </trkpt>
      <trkpt lat="42.64792333" lon="-2.751205">
        <ele>677.0</ele>
        <time>2021-10-22T09:38:57.000Z</time>
      </trkpt>
      <trkpt lat="42.64791833" lon="-2.75121333">
        <ele>677.0</ele>
        <time>2021-10-22T09:38:58.000Z</time>
      </trkpt>
      <trkpt lat="42.64791333" lon="-2.75122333">
        <ele>677.0</ele>
        <time>2021-10-22T09:38:59.000Z</time>
      </trkpt>
      <trkpt lat="42.64790833" lon="-2.75123167">
        <ele>677.0</ele>
        <time>2021-10-22T09:39:00.000Z</time>
      </trkpt>
      <trkpt lat="42.64790333" lon="-2.75124">
        <ele>677.0</ele>
        <time>2021-10-22T09:39:01.000Z</time>
      </trkpt>
      <trkpt lat="42.64789667" lon="-2.75125167">
        <ele>676.0</ele>
        <time>2021-10-22T09:39:02.000Z</time>
      </trkpt>
      <trkpt lat="42.64788667" lon="-2.751265">
        <ele>676.0</ele>
        <time>2021-10-22T09:39:03.000Z</time>
      </trkpt>
      <trkpt lat="42.64787667" lon="-2.75127833">
        <ele>676.0</ele>
        <time>2021-10-22T09:39:04.000Z</time>
      </trkpt>
      <trkpt lat="42.64786667" lon="-2.75128833">
        <ele>676.0</ele>
        <time>2021-10-22T09:39:05.000Z</time>
      </trkpt>
      <trkpt lat="42.64785667" lon="-2.75129667">
        <ele>676.0</ele>
        <time>2021-10-22T09:39:06.000Z</time>
      </trkpt>
      <trkpt lat="42.64784833" lon="-2.75130667">
        <ele>676.0</ele>
        <time>2021-10-22T09:39:07.000Z</time>
      </trkpt>
      <trkpt lat="42.64783833" lon="-2.75131667">
        <ele>676.0</ele>
        <time>2021-10-22T09:39:08.000Z</time>
      </trkpt>
      <trkpt lat="42.64782667" lon="-2.751325">
        <ele>676.0</ele>
        <time>2021-10-22T09:39:09.000Z</time>
      </trkpt>
      <trkpt lat="42.64781667" lon="-2.75133333">
        <ele>676.0</ele>
        <time>2021-10-22T09:39:10.000Z</time>
      </trkpt>
      <trkpt lat="42.64780833" lon="-2.75134167">
        <ele>676.0</ele>
        <time>2021-10-22T09:39:11.000Z</time>
      </trkpt>
      <trkpt lat="42.64779833" lon="-2.75135">
        <ele>676.0</ele>
        <time>2021-10-22T09:39:12.000Z</time>
      </trkpt>
      <trkpt lat="42.64779" lon="-2.75136167">
        <ele>676.0</ele>
        <time>2021-10-22T09:39:13.000Z</time>
      </trkpt>
      <trkpt lat="42.64778167" lon="-2.751375">
        <ele>676.0</ele>
        <time>2021-10-22T09:39:14.000Z</time>
      </trkpt>
      <trkpt lat="42.64777167" lon="-2.75138833">
        <ele>676.0</ele>
        <time>2021-10-22T09:39:15.000Z</time>
      </trkpt>
      <trkpt lat="42.64776167" lon="-2.75140333">
        <ele>676.0</ele>
        <time>2021-10-22T09:39:16.000Z</time>
      </trkpt>
      <trkpt lat="42.64775" lon="-2.75141667">
        <ele>676.0</ele>
        <time>2021-10-22T09:39:17.000Z</time>
      </trkpt>
      <trkpt lat="42.64773833" lon="-2.75143167">
        <ele>676.0</ele>
        <time>2021-10-22T09:39:18.000Z</time>
      </trkpt>
      <trkpt lat="42.64772667" lon="-2.75144667">
        <ele>676.0</ele>
        <time>2021-10-22T09:39:19.000Z</time>
      </trkpt>
      <trkpt lat="42.647715" lon="-2.75146833">
        <ele>676.0</ele>
        <time>2021-10-22T09:39:20.000Z</time>
      </trkpt>
      <trkpt lat="42.6477" lon="-2.751495">
        <ele>676.0</ele>
        <time>2021-10-22T09:39:21.000Z</time>
      </trkpt>
      <trkpt lat="42.647685" lon="-2.75152167">
        <ele>676.0</ele>
        <time>2021-10-22T09:39:22.000Z</time>
      </trkpt>
      <trkpt lat="42.64767333" lon="-2.75155167">
        <ele>676.0</ele>
        <time>2021-10-22T09:39:23.000Z</time>
      </trkpt>
      <trkpt lat="42.64766" lon="-2.75158167">
        <ele>676.0</ele>
        <time>2021-10-22T09:39:24.000Z</time>
      </trkpt>
      <trkpt lat="42.64765167" lon="-2.75161333">
        <ele>676.0</ele>
        <time>2021-10-22T09:39:25.000Z</time>
      </trkpt>
      <trkpt lat="42.64764667" lon="-2.75164333">
        <ele>676.0</ele>
        <time>2021-10-22T09:39:26.000Z</time>
      </trkpt>
      <trkpt lat="42.64764833" lon="-2.75167667">
        <ele>675.0</ele>
        <time>2021-10-22T09:39:27.000Z</time>
      </trkpt>
      <trkpt lat="42.64765667" lon="-2.75171333">
        <ele>675.0</ele>
        <time>2021-10-22T09:39:28.000Z</time>
      </trkpt>
      <trkpt lat="42.64766667" lon="-2.75175167">
        <ele>675.0</ele>
        <time>2021-10-22T09:39:29.000Z</time>
      </trkpt>
      <trkpt lat="42.64767833" lon="-2.75179">
        <ele>674.0</ele>
        <time>2021-10-22T09:39:30.000Z</time>
      </trkpt>
      <trkpt lat="42.64769" lon="-2.75183">
        <ele>674.0</ele>
        <time>2021-10-22T09:39:31.000Z</time>
      </trkpt>
      <trkpt lat="42.64770333" lon="-2.751865">
        <ele>674.0</ele>
        <time>2021-10-22T09:39:32.000Z</time>
      </trkpt>
      <trkpt lat="42.647715" lon="-2.751895">
        <ele>674.0</ele>
        <time>2021-10-22T09:39:33.000Z</time>
      </trkpt>
      <trkpt lat="42.64772667" lon="-2.75191667">
        <ele>674.0</ele>
        <time>2021-10-22T09:39:34.000Z</time>
      </trkpt>
      <trkpt lat="42.64774" lon="-2.75192833">
        <ele>673.0</ele>
        <time>2021-10-22T09:39:35.000Z</time>
      </trkpt>
      <trkpt lat="42.64775833" lon="-2.75193167">
        <ele>673.0</ele>
        <time>2021-10-22T09:39:36.000Z</time>
      </trkpt>
      <trkpt lat="42.64778" lon="-2.75193333">
        <ele>673.0</ele>
        <time>2021-10-22T09:39:37.000Z</time>
      </trkpt>
      <trkpt lat="42.64780167" lon="-2.75193">
        <ele>673.0</ele>
        <time>2021-10-22T09:39:38.000Z</time>
      </trkpt>
      <trkpt lat="42.64782167" lon="-2.75192833">
        <ele>673.0</ele>
        <time>2021-10-22T09:39:39.000Z</time>
      </trkpt>
      <trkpt lat="42.64783833" lon="-2.75192167">
        <ele>673.0</ele>
        <time>2021-10-22T09:39:40.000Z</time>
      </trkpt>
      <trkpt lat="42.647855" lon="-2.75191833">
        <ele>673.0</ele>
        <time>2021-10-22T09:39:41.000Z</time>
      </trkpt>
      <trkpt lat="42.64787167" lon="-2.751915">
        <ele>673.0</ele>
        <time>2021-10-22T09:39:42.000Z</time>
      </trkpt>
      <trkpt lat="42.647885" lon="-2.75191333">
        <ele>673.0</ele>
        <time>2021-10-22T09:39:43.000Z</time>
      </trkpt>
      <trkpt lat="42.64789667" lon="-2.75191">
        <ele>673.0</ele>
        <time>2021-10-22T09:39:44.000Z</time>
      </trkpt>
      <trkpt lat="42.64791" lon="-2.75190833">
        <ele>673.0</ele>
        <time>2021-10-22T09:39:45.000Z</time>
      </trkpt>
      <trkpt lat="42.64792333" lon="-2.751905">
        <ele>673.0</ele>
        <time>2021-10-22T09:39:46.000Z</time>
      </trkpt>
      <trkpt lat="42.647935" lon="-2.7519">
        <ele>673.0</ele>
        <time>2021-10-22T09:39:47.000Z</time>
      </trkpt>
      <trkpt lat="42.64794667" lon="-2.751895">
        <ele>673.0</ele>
        <time>2021-10-22T09:39:48.000Z</time>
      </trkpt>
      <trkpt lat="42.64795667" lon="-2.75189167">
        <ele>673.0</ele>
        <time>2021-10-22T09:39:49.000Z</time>
      </trkpt>
      <trkpt lat="42.64796833" lon="-2.75189">
        <ele>673.0</ele>
        <time>2021-10-22T09:39:50.000Z</time>
      </trkpt>
      <trkpt lat="42.64798167" lon="-2.751885">
        <ele>673.0</ele>
        <time>2021-10-22T09:39:51.000Z</time>
      </trkpt>
      <trkpt lat="42.647995" lon="-2.75188167">
        <ele>673.0</ele>
        <time>2021-10-22T09:39:52.000Z</time>
      </trkpt>
      <trkpt lat="42.64800667" lon="-2.75187667">
        <ele>673.0</ele>
        <time>2021-10-22T09:39:53.000Z</time>
      </trkpt>
      <trkpt lat="42.64801833" lon="-2.75187333">
        <ele>673.0</ele>
        <time>2021-10-22T09:39:54.000Z</time>
      </trkpt>
      <trkpt lat="42.64803333" lon="-2.75186667">
        <ele>673.0</ele>
        <time>2021-10-22T09:39:55.000Z</time>
      </trkpt>
      <trkpt lat="42.64804833" lon="-2.75186">
        <ele>673.0</ele>
        <time>2021-10-22T09:39:56.000Z</time>
      </trkpt>
      <trkpt lat="42.64806333" lon="-2.75185333">
        <ele>673.0</ele>
        <time>2021-10-22T09:39:57.000Z</time>
      </trkpt>
      <trkpt lat="42.64807333" lon="-2.751845">
        <ele>673.0</ele>
        <time>2021-10-22T09:39:58.000Z</time>
      </trkpt>
      <trkpt lat="42.64808667" lon="-2.751835">
        <ele>673.0</ele>
        <time>2021-10-22T09:39:59.000Z</time>
      </trkpt>
      <trkpt lat="42.64809833" lon="-2.75182333">
        <ele>673.0</ele>
        <time>2021-10-22T09:40:00.000Z</time>
      </trkpt>
      <trkpt lat="42.64811167" lon="-2.75181167">
        <ele>673.0</ele>
        <time>2021-10-22T09:40:01.000Z</time>
      </trkpt>
      <trkpt lat="42.64812333" lon="-2.75179833">
        <ele>673.0</ele>
        <time>2021-10-22T09:40:02.000Z</time>
      </trkpt>
      <trkpt lat="42.64813333" lon="-2.75178333">
        <ele>673.0</ele>
        <time>2021-10-22T09:40:03.000Z</time>
      </trkpt>
      <trkpt lat="42.64814333" lon="-2.751765">
        <ele>673.0</ele>
        <time>2021-10-22T09:40:04.000Z</time>
      </trkpt>
      <trkpt lat="42.64814833" lon="-2.75174833">
        <ele>673.0</ele>
        <time>2021-10-22T09:40:05.000Z</time>
      </trkpt>
      <trkpt lat="42.64815333" lon="-2.75173">
        <ele>673.0</ele>
        <time>2021-10-22T09:40:06.000Z</time>
      </trkpt>
      <trkpt lat="42.64815667" lon="-2.751715">
        <ele>672.0</ele>
        <time>2021-10-22T09:40:07.000Z</time>
      </trkpt>
      <trkpt lat="42.64815833" lon="-2.75169833">
        <ele>672.0</ele>
        <time>2021-10-22T09:40:08.000Z</time>
      </trkpt>
      <trkpt lat="42.64815667" lon="-2.75168">
        <ele>672.0</ele>
        <time>2021-10-22T09:40:09.000Z</time>
      </trkpt>
      <trkpt lat="42.64815167" lon="-2.75166167">
        <ele>672.0</ele>
        <time>2021-10-22T09:40:10.000Z</time>
      </trkpt>
      <trkpt lat="42.64814333" lon="-2.75164333">
        <ele>672.0</ele>
        <time>2021-10-22T09:40:11.000Z</time>
      </trkpt>
      <trkpt lat="42.64813167" lon="-2.75162667">
        <ele>671.0</ele>
        <time>2021-10-22T09:40:12.000Z</time>
      </trkpt>
      <trkpt lat="42.64812333" lon="-2.75161">
        <ele>671.0</ele>
        <time>2021-10-22T09:40:13.000Z</time>
      </trkpt>
      <trkpt lat="42.64811333" lon="-2.75159167">
        <ele>671.0</ele>
        <time>2021-10-22T09:40:14.000Z</time>
      </trkpt>
      <trkpt lat="42.64810333" lon="-2.751575">
        <ele>671.0</ele>
        <time>2021-10-22T09:40:15.000Z</time>
      </trkpt>
      <trkpt lat="42.64809333" lon="-2.75156167">
        <ele>671.0</ele>
        <time>2021-10-22T09:40:16.000Z</time>
      </trkpt>
      <trkpt lat="42.648085" lon="-2.75154667">
        <ele>670.0</ele>
        <time>2021-10-22T09:40:17.000Z</time>
      </trkpt>
      <trkpt lat="42.64807667" lon="-2.75153167">
        <ele>670.0</ele>
        <time>2021-10-22T09:40:18.000Z</time>
      </trkpt>
      <trkpt lat="42.64807" lon="-2.75151333">
        <ele>670.0</ele>
        <time>2021-10-22T09:40:19.000Z</time>
      </trkpt>
      <trkpt lat="42.64806333" lon="-2.751495">
        <ele>670.0</ele>
        <time>2021-10-22T09:40:20.000Z</time>
      </trkpt>
      <trkpt lat="42.64805833" lon="-2.75148">
        <ele>670.0</ele>
        <time>2021-10-22T09:40:21.000Z</time>
      </trkpt>
      <trkpt lat="42.64805333" lon="-2.751465">
        <ele>670.0</ele>
        <time>2021-10-22T09:40:22.000Z</time>
      </trkpt>
      <trkpt lat="42.64804833" lon="-2.75145">
        <ele>670.0</ele>
        <time>2021-10-22T09:40:23.000Z</time>
      </trkpt>
      <trkpt lat="42.64805" lon="-2.75143667">
        <ele>670.0</ele>
        <time>2021-10-22T09:40:24.000Z</time>
      </trkpt>
      <trkpt lat="42.648055" lon="-2.75142333">
        <ele>670.0</ele>
        <time>2021-10-22T09:40:25.000Z</time>
      </trkpt>
      <trkpt lat="42.64806333" lon="-2.75141333">
        <ele>670.0</ele>
        <time>2021-10-22T09:40:26.000Z</time>
      </trkpt>
      <trkpt lat="42.64807167" lon="-2.75140333">
        <ele>670.0</ele>
        <time>2021-10-22T09:40:27.000Z</time>
      </trkpt>
      <trkpt lat="42.64808167" lon="-2.75139667">
        <ele>670.0</ele>
        <time>2021-10-22T09:40:28.000Z</time>
      </trkpt>
      <trkpt lat="42.64808833" lon="-2.75139">
        <ele>670.0</ele>
        <time>2021-10-22T09:40:29.000Z</time>
      </trkpt>
      <trkpt lat="42.64809167" lon="-2.75138667">
        <ele>670.0</ele>
        <time>2021-10-22T09:40:30.000Z</time>
      </trkpt>
      <trkpt lat="42.648095" lon="-2.75138333">
        <ele>670.0</ele>
        <time>2021-10-22T09:40:31.000Z</time>
      </trkpt>
      <trkpt lat="42.64809833" lon="-2.75138">
        <ele>670.0</ele>
        <time>2021-10-22T09:40:32.000Z</time>
      </trkpt>
      <trkpt lat="42.64810167" lon="-2.751375">
        <ele>670.0</ele>
        <time>2021-10-22T09:40:33.000Z</time>
      </trkpt>
      <trkpt lat="42.648105" lon="-2.75136833">
        <ele>670.0</ele>
        <time>2021-10-22T09:40:34.000Z</time>
      </trkpt>
      <trkpt lat="42.64810667" lon="-2.75136333">
        <ele>671.0</ele>
        <time>2021-10-22T09:40:35.000Z</time>
      </trkpt>
      <trkpt lat="42.64810667" lon="-2.75136">
        <ele>671.0</ele>
        <time>2021-10-22T09:40:36.000Z</time>
      </trkpt>
      <trkpt lat="42.64810333" lon="-2.75135833">
        <ele>671.0</ele>
        <time>2021-10-22T09:40:37.000Z</time>
      </trkpt>
      <trkpt lat="42.64810333" lon="-2.75135833">
        <ele>671.0</ele>
        <time>2021-10-22T09:40:38.000Z</time>
      </trkpt>
      <trkpt lat="42.64810333" lon="-2.751355">
        <ele>671.0</ele>
        <time>2021-10-22T09:40:39.000Z</time>
      </trkpt>
      <trkpt lat="42.64810333" lon="-2.75135167">
        <ele>671.0</ele>
        <time>2021-10-22T09:40:40.000Z</time>
      </trkpt>
      <trkpt lat="42.64810167" lon="-2.75135">
        <ele>671.0</ele>
        <time>2021-10-22T09:40:41.000Z</time>
      </trkpt>
      <trkpt lat="42.64810167" lon="-2.75134667">
        <ele>671.0</ele>
        <time>2021-10-22T09:40:42.000Z</time>
      </trkpt>
      <trkpt lat="42.64810167" lon="-2.75134">
        <ele>671.0</ele>
        <time>2021-10-22T09:40:43.000Z</time>
      </trkpt>
      <trkpt lat="42.64810333" lon="-2.751335">
        <ele>671.0</ele>
        <time>2021-10-22T09:40:44.000Z</time>
      </trkpt>
      <trkpt lat="42.64810667" lon="-2.75132833">
        <ele>671.0</ele>
        <time>2021-10-22T09:40:45.000Z</time>
      </trkpt>
      <trkpt lat="42.64811167" lon="-2.75132167">
        <ele>671.0</ele>
        <time>2021-10-22T09:40:46.000Z</time>
      </trkpt>
      <trkpt lat="42.648115" lon="-2.75131667">
        <ele>671.0</ele>
        <time>2021-10-22T09:40:47.000Z</time>
      </trkpt>
      <trkpt lat="42.64811667" lon="-2.75130833">
        <ele>671.0</ele>
        <time>2021-10-22T09:40:48.000Z</time>
      </trkpt>
      <trkpt lat="42.64812" lon="-2.75130167">
        <ele>671.0</ele>
        <time>2021-10-22T09:40:49.000Z</time>
      </trkpt>
      <trkpt lat="42.64812167" lon="-2.75129333">
        <ele>671.0</ele>
        <time>2021-10-22T09:40:50.000Z</time>
      </trkpt>
      <trkpt lat="42.648125" lon="-2.75128667">
        <ele>671.0</ele>
        <time>2021-10-22T09:40:51.000Z</time>
      </trkpt>
      <trkpt lat="42.64812833" lon="-2.75127833">
        <ele>671.0</ele>
        <time>2021-10-22T09:40:52.000Z</time>
      </trkpt>
      <trkpt lat="42.64813167" lon="-2.75127167">
        <ele>671.0</ele>
        <time>2021-10-22T09:40:53.000Z</time>
      </trkpt>
      <trkpt lat="42.64813167" lon="-2.75126333">
        <ele>671.0</ele>
        <time>2021-10-22T09:40:54.000Z</time>
      </trkpt>
      <trkpt lat="42.64813333" lon="-2.75125">
        <ele>671.0</ele>
        <time>2021-10-22T09:40:55.000Z</time>
      </trkpt>
      <trkpt lat="42.64813333" lon="-2.75123833">
        <ele>671.0</ele>
        <time>2021-10-22T09:40:56.000Z</time>
      </trkpt>
      <trkpt lat="42.64813667" lon="-2.75122667">
        <ele>671.0</ele>
        <time>2021-10-22T09:40:57.000Z</time>
      </trkpt>
      <trkpt lat="42.64814333" lon="-2.75121667">
        <ele>671.0</ele>
        <time>2021-10-22T09:40:58.000Z</time>
      </trkpt>
      <trkpt lat="42.64814833" lon="-2.75120833">
        <ele>671.0</ele>
        <time>2021-10-22T09:40:59.000Z</time>
      </trkpt>
      <trkpt lat="42.64815333" lon="-2.7512">
        <ele>671.0</ele>
        <time>2021-10-22T09:41:00.000Z</time>
      </trkpt>
      <trkpt lat="42.64816" lon="-2.75119167">
        <ele>671.0</ele>
        <time>2021-10-22T09:41:01.000Z</time>
      </trkpt>
      <trkpt lat="42.64816833" lon="-2.75118333">
        <ele>672.0</ele>
        <time>2021-10-22T09:41:02.000Z</time>
      </trkpt>
      <trkpt lat="42.64817833" lon="-2.751175">
        <ele>672.0</ele>
        <time>2021-10-22T09:41:03.000Z</time>
      </trkpt>
      <trkpt lat="42.64819" lon="-2.751165">
        <ele>672.0</ele>
        <time>2021-10-22T09:41:04.000Z</time>
      </trkpt>
      <trkpt lat="42.6482" lon="-2.75115667">
        <ele>672.0</ele>
        <time>2021-10-22T09:41:05.000Z</time>
      </trkpt>
      <trkpt lat="42.64821" lon="-2.751145">
        <ele>672.0</ele>
        <time>2021-10-22T09:41:06.000Z</time>
      </trkpt>
      <trkpt lat="42.64821833" lon="-2.75113333">
        <ele>672.0</ele>
        <time>2021-10-22T09:41:07.000Z</time>
      </trkpt>
      <trkpt lat="42.64822667" lon="-2.75112333">
        <ele>672.0</ele>
        <time>2021-10-22T09:41:08.000Z</time>
      </trkpt>
      <trkpt lat="42.64823333" lon="-2.75111333">
        <ele>673.0</ele>
        <time>2021-10-22T09:41:09.000Z</time>
      </trkpt>
      <trkpt lat="42.64824" lon="-2.75110167">
        <ele>673.0</ele>
        <time>2021-10-22T09:41:10.000Z</time>
      </trkpt>
      <trkpt lat="42.64824833" lon="-2.75109167">
        <ele>673.0</ele>
        <time>2021-10-22T09:41:11.000Z</time>
      </trkpt>
      <trkpt lat="42.64825167" lon="-2.75108167">
        <ele>674.0</ele>
        <time>2021-10-22T09:41:12.000Z</time>
      </trkpt>
      <trkpt lat="42.64825667" lon="-2.751075">
        <ele>674.0</ele>
        <time>2021-10-22T09:41:13.000Z</time>
      </trkpt>
      <trkpt lat="42.64826667" lon="-2.75106833">
        <ele>674.0</ele>
        <time>2021-10-22T09:41:14.000Z</time>
      </trkpt>
      <trkpt lat="42.64827667" lon="-2.75106167">
        <ele>674.0</ele>
        <time>2021-10-22T09:41:15.000Z</time>
      </trkpt>
      <trkpt lat="42.648285" lon="-2.751055">
        <ele>674.0</ele>
        <time>2021-10-22T09:41:16.000Z</time>
      </trkpt>
      <trkpt lat="42.64829167" lon="-2.75105">
        <ele>674.0</ele>
        <time>2021-10-22T09:41:17.000Z</time>
      </trkpt>
      <trkpt lat="42.64829833" lon="-2.75104167">
        <ele>675.0</ele>
        <time>2021-10-22T09:41:18.000Z</time>
      </trkpt>
      <trkpt lat="42.64830333" lon="-2.751035">
        <ele>675.0</ele>
        <time>2021-10-22T09:41:19.000Z</time>
      </trkpt>
      <trkpt lat="42.64830667" lon="-2.75102833">
        <ele>675.0</ele>
        <time>2021-10-22T09:41:20.000Z</time>
      </trkpt>
      <trkpt lat="42.64830833" lon="-2.75101833">
        <ele>675.0</ele>
        <time>2021-10-22T09:41:21.000Z</time>
      </trkpt>
      <trkpt lat="42.64830833" lon="-2.75100833">
        <ele>675.0</ele>
        <time>2021-10-22T09:41:22.000Z</time>
      </trkpt>
      <trkpt lat="42.64830667" lon="-2.75100167">
        <ele>676.0</ele>
        <time>2021-10-22T09:41:23.000Z</time>
      </trkpt>
      <trkpt lat="42.64830333" lon="-2.75099333">
        <ele>676.0</ele>
        <time>2021-10-22T09:41:24.000Z</time>
      </trkpt>
      <trkpt lat="42.64829833" lon="-2.75098833">
        <ele>677.0</ele>
        <time>2021-10-22T09:41:25.000Z</time>
      </trkpt>
      <trkpt lat="42.64829" lon="-2.75098333">
        <ele>677.0</ele>
        <time>2021-10-22T09:41:26.000Z</time>
      </trkpt>
      <trkpt lat="42.64828167" lon="-2.75097833">
        <ele>677.0</ele>
        <time>2021-10-22T09:41:27.000Z</time>
      </trkpt>
      <trkpt lat="42.64827167" lon="-2.750975">
        <ele>678.0</ele>
        <time>2021-10-22T09:41:28.000Z</time>
      </trkpt>
      <trkpt lat="42.64826333" lon="-2.75097">
        <ele>678.0</ele>
        <time>2021-10-22T09:41:29.000Z</time>
      </trkpt>
      <trkpt lat="42.64825333" lon="-2.75096167">
        <ele>678.0</ele>
        <time>2021-10-22T09:41:30.000Z</time>
      </trkpt>
      <trkpt lat="42.64824" lon="-2.75095167">
        <ele>678.0</ele>
        <time>2021-10-22T09:41:31.000Z</time>
      </trkpt>
      <trkpt lat="42.64822333" lon="-2.750945">
        <ele>679.0</ele>
        <time>2021-10-22T09:41:32.000Z</time>
      </trkpt>
      <trkpt lat="42.64820833" lon="-2.75094167">
        <ele>679.0</ele>
        <time>2021-10-22T09:41:33.000Z</time>
      </trkpt>
      <trkpt lat="42.64819" lon="-2.75093667">
        <ele>679.0</ele>
        <time>2021-10-22T09:41:34.000Z</time>
      </trkpt>
      <trkpt lat="42.64817333" lon="-2.75093">
        <ele>679.0</ele>
        <time>2021-10-22T09:41:35.000Z</time>
      </trkpt>
      <trkpt lat="42.64815667" lon="-2.75092">
        <ele>679.0</ele>
        <time>2021-10-22T09:41:36.000Z</time>
      </trkpt>
      <trkpt lat="42.64814" lon="-2.75091">
        <ele>680.0</ele>
        <time>2021-10-22T09:41:37.000Z</time>
      </trkpt>
      <trkpt lat="42.64812833" lon="-2.75090667">
        <ele>680.0</ele>
        <time>2021-10-22T09:41:38.000Z</time>
      </trkpt>
      <trkpt lat="42.64812167" lon="-2.75090667">
        <ele>680.0</ele>
        <time>2021-10-22T09:41:39.000Z</time>
      </trkpt>
      <trkpt lat="42.64812167" lon="-2.75090333">
        <ele>680.0</ele>
        <time>2021-10-22T09:41:40.000Z</time>
      </trkpt>
      <trkpt lat="42.64811833" lon="-2.75089833">
        <ele>680.0</ele>
        <time>2021-10-22T09:41:41.000Z</time>
      </trkpt>
      <trkpt lat="42.64811667" lon="-2.75089167">
        <ele>680.0</ele>
        <time>2021-10-22T09:41:42.000Z</time>
      </trkpt>
      <trkpt lat="42.64812" lon="-2.75088333">
        <ele>680.0</ele>
        <time>2021-10-22T09:41:43.000Z</time>
      </trkpt>
      <trkpt lat="42.64812667" lon="-2.75087667">
        <ele>681.0</ele>
        <time>2021-10-22T09:41:44.000Z</time>
      </trkpt>
      <trkpt lat="42.64813833" lon="-2.75087167">
        <ele>681.0</ele>
        <time>2021-10-22T09:41:45.000Z</time>
      </trkpt>
      <trkpt lat="42.64815" lon="-2.750865">
        <ele>681.0</ele>
        <time>2021-10-22T09:41:46.000Z</time>
      </trkpt>
      <trkpt lat="42.64816" lon="-2.75085667">
        <ele>681.0</ele>
        <time>2021-10-22T09:41:47.000Z</time>
      </trkpt>
      <trkpt lat="42.64816833" lon="-2.75084667">
        <ele>681.0</ele>
        <time>2021-10-22T09:41:48.000Z</time>
      </trkpt>
      <trkpt lat="42.64817667" lon="-2.75083333">
        <ele>681.0</ele>
        <time>2021-10-22T09:41:49.000Z</time>
      </trkpt>
      <trkpt lat="42.64818667" lon="-2.75082333">
        <ele>682.0</ele>
        <time>2021-10-22T09:41:50.000Z</time>
      </trkpt>
      <trkpt lat="42.648195" lon="-2.75081333">
        <ele>682.0</ele>
        <time>2021-10-22T09:41:51.000Z</time>
      </trkpt>
      <trkpt lat="42.64820167" lon="-2.75080667">
        <ele>682.0</ele>
        <time>2021-10-22T09:41:52.000Z</time>
      </trkpt>
      <trkpt lat="42.64821" lon="-2.75080333">
        <ele>682.0</ele>
        <time>2021-10-22T09:41:53.000Z</time>
      </trkpt>
      <trkpt lat="42.648215" lon="-2.75079833">
        <ele>682.0</ele>
        <time>2021-10-22T09:41:54.000Z</time>
      </trkpt>
      <trkpt lat="42.64822" lon="-2.75079333">
        <ele>682.0</ele>
        <time>2021-10-22T09:41:55.000Z</time>
      </trkpt>
      <trkpt lat="42.648225" lon="-2.75078667">
        <ele>683.0</ele>
        <time>2021-10-22T09:41:56.000Z</time>
      </trkpt>
      <trkpt lat="42.64823" lon="-2.75078167">
        <ele>683.0</ele>
        <time>2021-10-22T09:41:57.000Z</time>
      </trkpt>
      <trkpt lat="42.648235" lon="-2.75077667">
        <ele>683.0</ele>
        <time>2021-10-22T09:41:58.000Z</time>
      </trkpt>
      <trkpt lat="42.64823667" lon="-2.75077167">
        <ele>683.0</ele>
        <time>2021-10-22T09:41:59.000Z</time>
      </trkpt>
      <trkpt lat="42.64823833" lon="-2.75077167">
        <ele>683.0</ele>
        <time>2021-10-22T09:42:00.000Z</time>
      </trkpt>
      <trkpt lat="42.64823667" lon="-2.75076833">
        <ele>683.0</ele>
        <time>2021-10-22T09:42:01.000Z</time>
      </trkpt>
      <trkpt lat="42.64823333" lon="-2.75076333">
        <ele>683.0</ele>
        <time>2021-10-22T09:42:02.000Z</time>
      </trkpt>
      <trkpt lat="42.64823" lon="-2.75075833">
        <ele>683.0</ele>
        <time>2021-10-22T09:42:03.000Z</time>
      </trkpt>
      <trkpt lat="42.64822833" lon="-2.75075833">
        <ele>683.0</ele>
        <time>2021-10-22T09:42:04.000Z</time>
      </trkpt>
      <trkpt lat="42.64822833" lon="-2.75075667">
        <ele>683.0</ele>
        <time>2021-10-22T09:42:05.000Z</time>
      </trkpt>
      <trkpt lat="42.648225" lon="-2.75075333">
        <ele>684.0</ele>
        <time>2021-10-22T09:42:06.000Z</time>
      </trkpt>
      <trkpt lat="42.64821833" lon="-2.75075">
        <ele>684.0</ele>
        <time>2021-10-22T09:42:07.000Z</time>
      </trkpt>
      <trkpt lat="42.64821167" lon="-2.75074667">
        <ele>684.0</ele>
        <time>2021-10-22T09:42:08.000Z</time>
      </trkpt>
      <trkpt lat="42.64820333" lon="-2.75074333">
        <ele>684.0</ele>
        <time>2021-10-22T09:42:09.000Z</time>
      </trkpt>
      <trkpt lat="42.64819333" lon="-2.75073833">
        <ele>684.0</ele>
        <time>2021-10-22T09:42:10.000Z</time>
      </trkpt>
      <trkpt lat="42.64818333" lon="-2.75073">
        <ele>684.0</ele>
        <time>2021-10-22T09:42:11.000Z</time>
      </trkpt>
      <trkpt lat="42.64817667" lon="-2.750725">
        <ele>684.0</ele>
        <time>2021-10-22T09:42:12.000Z</time>
      </trkpt>
      <trkpt lat="42.64817" lon="-2.75072167">
        <ele>684.0</ele>
        <time>2021-10-22T09:42:13.000Z</time>
      </trkpt>
      <trkpt lat="42.64816167" lon="-2.75072">
        <ele>684.0</ele>
        <time>2021-10-22T09:42:14.000Z</time>
      </trkpt>
      <trkpt lat="42.64815167" lon="-2.75071667">
        <ele>684.0</ele>
        <time>2021-10-22T09:42:15.000Z</time>
      </trkpt>
      <trkpt lat="42.64814333" lon="-2.75071167">
        <ele>684.0</ele>
        <time>2021-10-22T09:42:16.000Z</time>
      </trkpt>
      <trkpt lat="42.648135" lon="-2.75071">
        <ele>684.0</ele>
        <time>2021-10-22T09:42:17.000Z</time>
      </trkpt>
      <trkpt lat="42.64813" lon="-2.75070833">
        <ele>685.0</ele>
        <time>2021-10-22T09:42:18.000Z</time>
      </trkpt>
      <trkpt lat="42.648125" lon="-2.750705">
        <ele>685.0</ele>
        <time>2021-10-22T09:42:19.000Z</time>
      </trkpt>
      <trkpt lat="42.64811833" lon="-2.75070167">
        <ele>685.0</ele>
        <time>2021-10-22T09:42:20.000Z</time>
      </trkpt>
      <trkpt lat="42.648115" lon="-2.75070333">
        <ele>685.0</ele>
        <time>2021-10-22T09:42:21.000Z</time>
      </trkpt>
      <trkpt lat="42.64811167" lon="-2.75069833">
        <ele>685.0</ele>
        <time>2021-10-22T09:42:22.000Z</time>
      </trkpt>
      <trkpt lat="42.64810833" lon="-2.75069333">
        <ele>685.0</ele>
        <time>2021-10-22T09:42:23.000Z</time>
      </trkpt>
      <trkpt lat="42.64810167" lon="-2.75069">
        <ele>685.0</ele>
        <time>2021-10-22T09:42:24.000Z</time>
      </trkpt>
      <trkpt lat="42.64809667" lon="-2.75068667">
        <ele>685.0</ele>
        <time>2021-10-22T09:42:25.000Z</time>
      </trkpt>
      <trkpt lat="42.64809167" lon="-2.75068167">
        <ele>686.0</ele>
        <time>2021-10-22T09:42:26.000Z</time>
      </trkpt>
      <trkpt lat="42.64808667" lon="-2.75068">
        <ele>686.0</ele>
        <time>2021-10-22T09:42:27.000Z</time>
      </trkpt>
      <trkpt lat="42.64808333" lon="-2.75067833">
        <ele>686.0</ele>
        <time>2021-10-22T09:42:28.000Z</time>
      </trkpt>
      <trkpt lat="42.64808167" lon="-2.75067833">
        <ele>686.0</ele>
        <time>2021-10-22T09:42:29.000Z</time>
      </trkpt>
      <trkpt lat="42.64808" lon="-2.75068167">
        <ele>686.0</ele>
        <time>2021-10-22T09:42:30.000Z</time>
      </trkpt>
      <trkpt lat="42.64807833" lon="-2.75068833">
        <ele>686.0</ele>
        <time>2021-10-22T09:42:31.000Z</time>
      </trkpt>
      <trkpt lat="42.64807667" lon="-2.750695">
        <ele>686.0</ele>
        <time>2021-10-22T09:42:32.000Z</time>
      </trkpt>
      <trkpt lat="42.648075" lon="-2.75070167">
        <ele>686.0</ele>
        <time>2021-10-22T09:42:33.000Z</time>
      </trkpt>
      <trkpt lat="42.64806833" lon="-2.75070667">
        <ele>686.0</ele>
        <time>2021-10-22T09:42:34.000Z</time>
      </trkpt>
      <trkpt lat="42.64806" lon="-2.75071333">
        <ele>686.0</ele>
        <time>2021-10-22T09:42:35.000Z</time>
      </trkpt>
      <trkpt lat="42.64805167" lon="-2.75071833">
        <ele>686.0</ele>
        <time>2021-10-22T09:42:36.000Z</time>
      </trkpt>
      <trkpt lat="42.64804833" lon="-2.75072167">
        <ele>686.0</ele>
        <time>2021-10-22T09:42:37.000Z</time>
      </trkpt>
      <trkpt lat="42.648045" lon="-2.75072333">
        <ele>686.0</ele>
        <time>2021-10-22T09:42:38.000Z</time>
      </trkpt>
      <trkpt lat="42.64804167" lon="-2.75072667">
        <ele>686.0</ele>
        <time>2021-10-22T09:42:39.000Z</time>
      </trkpt>
      <trkpt lat="42.64803833" lon="-2.75072667">
        <ele>686.0</ele>
        <time>2021-10-22T09:42:40.000Z</time>
      </trkpt>
      <trkpt lat="42.64803833" lon="-2.75073">
        <ele>686.0</ele>
        <time>2021-10-22T09:42:41.000Z</time>
      </trkpt>
      <trkpt lat="42.648035" lon="-2.75073167">
        <ele>686.0</ele>
        <time>2021-10-22T09:42:42.000Z</time>
      </trkpt>
      <trkpt lat="42.64803333" lon="-2.750735">
        <ele>686.0</ele>
        <time>2021-10-22T09:42:43.000Z</time>
      </trkpt>
      <trkpt lat="42.64803333" lon="-2.75073333">
        <ele>686.0</ele>
        <time>2021-10-22T09:42:44.000Z</time>
      </trkpt>
      <trkpt lat="42.64803667" lon="-2.75073">
        <ele>686.0</ele>
        <time>2021-10-22T09:42:45.000Z</time>
      </trkpt>
      <trkpt lat="42.64804" lon="-2.75072667">
        <ele>686.0</ele>
        <time>2021-10-22T09:42:46.000Z</time>
      </trkpt>
      <trkpt lat="42.64804833" lon="-2.75072333">
        <ele>686.0</ele>
        <time>2021-10-22T09:42:47.000Z</time>
      </trkpt>
      <trkpt lat="42.648055" lon="-2.75071667">
        <ele>686.0</ele>
        <time>2021-10-22T09:42:48.000Z</time>
      </trkpt>
      <trkpt lat="42.64805833" lon="-2.75070833">
        <ele>686.0</ele>
        <time>2021-10-22T09:42:49.000Z</time>
      </trkpt>
      <trkpt lat="42.64806167" lon="-2.75069833">
        <ele>686.0</ele>
        <time>2021-10-22T09:42:50.000Z</time>
      </trkpt>
      <trkpt lat="42.648065" lon="-2.75068667">
        <ele>686.0</ele>
        <time>2021-10-22T09:42:51.000Z</time>
      </trkpt>
      <trkpt lat="42.64806667" lon="-2.75068">
        <ele>686.0</ele>
        <time>2021-10-22T09:42:52.000Z</time>
      </trkpt>
      <trkpt lat="42.64806333" lon="-2.75067333">
        <ele>686.0</ele>
        <time>2021-10-22T09:42:53.000Z</time>
      </trkpt>
      <trkpt lat="42.64806" lon="-2.75066833">
        <ele>686.0</ele>
        <time>2021-10-22T09:42:54.000Z</time>
      </trkpt>
      <trkpt lat="42.64805333" lon="-2.75066167">
        <ele>686.0</ele>
        <time>2021-10-22T09:42:55.000Z</time>
      </trkpt>
      <trkpt lat="42.64804333" lon="-2.75065167">
        <ele>686.0</ele>
        <time>2021-10-22T09:42:56.000Z</time>
      </trkpt>
      <trkpt lat="42.64803333" lon="-2.75063833">
        <ele>686.0</ele>
        <time>2021-10-22T09:42:57.000Z</time>
      </trkpt>
      <trkpt lat="42.648025" lon="-2.750625">
        <ele>687.0</ele>
        <time>2021-10-22T09:42:58.000Z</time>
      </trkpt>
      <trkpt lat="42.648015" lon="-2.75061">
        <ele>687.0</ele>
        <time>2021-10-22T09:42:59.000Z</time>
      </trkpt>
      <trkpt lat="42.64800667" lon="-2.750595">
        <ele>687.0</ele>
        <time>2021-10-22T09:43:00.000Z</time>
      </trkpt>
      <trkpt lat="42.64799833" lon="-2.75058167">
        <ele>687.0</ele>
        <time>2021-10-22T09:43:01.000Z</time>
      </trkpt>
      <trkpt lat="42.64799" lon="-2.75057333">
        <ele>687.0</ele>
        <time>2021-10-22T09:43:02.000Z</time>
      </trkpt>
      <trkpt lat="42.64798333" lon="-2.75056667">
        <ele>687.0</ele>
        <time>2021-10-22T09:43:03.000Z</time>
      </trkpt>
      <trkpt lat="42.64797833" lon="-2.75056167">
        <ele>687.0</ele>
        <time>2021-10-22T09:43:04.000Z</time>
      </trkpt>
      <trkpt lat="42.64797333" lon="-2.75056">
        <ele>687.0</ele>
        <time>2021-10-22T09:43:05.000Z</time>
      </trkpt>
      <trkpt lat="42.64796833" lon="-2.750555">
        <ele>687.0</ele>
        <time>2021-10-22T09:43:06.000Z</time>
      </trkpt>
      <trkpt lat="42.647965" lon="-2.75055">
        <ele>687.0</ele>
        <time>2021-10-22T09:43:07.000Z</time>
      </trkpt>
      <trkpt lat="42.64796" lon="-2.75054333">
        <ele>687.0</ele>
        <time>2021-10-22T09:43:08.000Z</time>
      </trkpt>
      <trkpt lat="42.64795667" lon="-2.75053667">
        <ele>687.0</ele>
        <time>2021-10-22T09:43:09.000Z</time>
      </trkpt>
      <trkpt lat="42.647955" lon="-2.75052667">
        <ele>687.0</ele>
        <time>2021-10-22T09:43:10.000Z</time>
      </trkpt>
      <trkpt lat="42.647955" lon="-2.75051667">
        <ele>688.0</ele>
        <time>2021-10-22T09:43:11.000Z</time>
      </trkpt>
      <trkpt lat="42.647955" lon="-2.75050833">
        <ele>688.0</ele>
        <time>2021-10-22T09:43:12.000Z</time>
      </trkpt>
      <trkpt lat="42.64795667" lon="-2.75050333">
        <ele>688.0</ele>
        <time>2021-10-22T09:43:13.000Z</time>
      </trkpt>
      <trkpt lat="42.64795833" lon="-2.75049833">
        <ele>688.0</ele>
        <time>2021-10-22T09:43:14.000Z</time>
      </trkpt>
      <trkpt lat="42.64796167" lon="-2.75049333">
        <ele>688.0</ele>
        <time>2021-10-22T09:43:15.000Z</time>
      </trkpt>
      <trkpt lat="42.647965" lon="-2.75048833">
        <ele>688.0</ele>
        <time>2021-10-22T09:43:16.000Z</time>
      </trkpt>
      <trkpt lat="42.64796667" lon="-2.75048333">
        <ele>689.0</ele>
        <time>2021-10-22T09:43:17.000Z</time>
      </trkpt>
      <trkpt lat="42.647965" lon="-2.750475">
        <ele>689.0</ele>
        <time>2021-10-22T09:43:18.000Z</time>
      </trkpt>
      <trkpt lat="42.64796333" lon="-2.75046667">
        <ele>689.0</ele>
        <time>2021-10-22T09:43:19.000Z</time>
      </trkpt>
      <trkpt lat="42.64796167" lon="-2.75046167">
        <ele>689.0</ele>
        <time>2021-10-22T09:43:20.000Z</time>
      </trkpt>
      <trkpt lat="42.64796" lon="-2.750455">
        <ele>689.0</ele>
        <time>2021-10-22T09:43:21.000Z</time>
      </trkpt>
      <trkpt lat="42.647955" lon="-2.75044833">
        <ele>690.0</ele>
        <time>2021-10-22T09:43:22.000Z</time>
      </trkpt>
      <trkpt lat="42.64794833" lon="-2.75044">
        <ele>690.0</ele>
        <time>2021-10-22T09:43:23.000Z</time>
      </trkpt>
      <trkpt lat="42.64794333" lon="-2.750435">
        <ele>690.0</ele>
        <time>2021-10-22T09:43:24.000Z</time>
      </trkpt>
      <trkpt lat="42.647935" lon="-2.75042833">
        <ele>690.0</ele>
        <time>2021-10-22T09:43:25.000Z</time>
      </trkpt>
      <trkpt lat="42.64793" lon="-2.75042333">
        <ele>690.0</ele>
        <time>2021-10-22T09:43:26.000Z</time>
      </trkpt>
      <trkpt lat="42.64792667" lon="-2.750415">
        <ele>690.0</ele>
        <time>2021-10-22T09:43:27.000Z</time>
      </trkpt>
      <trkpt lat="42.64792333" lon="-2.75040667">
        <ele>690.0</ele>
        <time>2021-10-22T09:43:28.000Z</time>
      </trkpt>
      <trkpt lat="42.64792" lon="-2.7504">
        <ele>691.0</ele>
        <time>2021-10-22T09:43:29.000Z</time>
      </trkpt>
      <trkpt lat="42.64791667" lon="-2.75039333">
        <ele>691.0</ele>
        <time>2021-10-22T09:43:30.000Z</time>
      </trkpt>
      <trkpt lat="42.64791167" lon="-2.75038667">
        <ele>691.0</ele>
        <time>2021-10-22T09:43:31.000Z</time>
      </trkpt>
      <trkpt lat="42.64790833" lon="-2.75038">
        <ele>691.0</ele>
        <time>2021-10-22T09:43:32.000Z</time>
      </trkpt>
      <trkpt lat="42.64790667" lon="-2.75037167">
        <ele>691.0</ele>
        <time>2021-10-22T09:43:33.000Z</time>
      </trkpt>
      <trkpt lat="42.64790667" lon="-2.75036333">
        <ele>692.0</ele>
        <time>2021-10-22T09:43:34.000Z</time>
      </trkpt>
      <trkpt lat="42.64790667" lon="-2.750355">
        <ele>692.0</ele>
        <time>2021-10-22T09:43:35.000Z</time>
      </trkpt>
      <trkpt lat="42.64790667" lon="-2.75034667">
        <ele>692.0</ele>
        <time>2021-10-22T09:43:36.000Z</time>
      </trkpt>
      <trkpt lat="42.64790667" lon="-2.75033833">
        <ele>693.0</ele>
        <time>2021-10-22T09:43:37.000Z</time>
      </trkpt>
      <trkpt lat="42.64790333" lon="-2.75032833">
        <ele>693.0</ele>
        <time>2021-10-22T09:43:38.000Z</time>
      </trkpt>
      <trkpt lat="42.6479" lon="-2.75031833">
        <ele>693.0</ele>
        <time>2021-10-22T09:43:39.000Z</time>
      </trkpt>
      <trkpt lat="42.64789667" lon="-2.75030667">
        <ele>694.0</ele>
        <time>2021-10-22T09:43:40.000Z</time>
      </trkpt>
      <trkpt lat="42.64789333" lon="-2.75029333">
        <ele>694.0</ele>
        <time>2021-10-22T09:43:41.000Z</time>
      </trkpt>
      <trkpt lat="42.64789167" lon="-2.75028">
        <ele>694.0</ele>
        <time>2021-10-22T09:43:42.000Z</time>
      </trkpt>
      <trkpt lat="42.64789333" lon="-2.75027">
        <ele>695.0</ele>
        <time>2021-10-22T09:43:43.000Z</time>
      </trkpt>
      <trkpt lat="42.64789667" lon="-2.75026">
        <ele>695.0</ele>
        <time>2021-10-22T09:43:44.000Z</time>
      </trkpt>
      <trkpt lat="42.64790167" lon="-2.75025333">
        <ele>695.0</ele>
        <time>2021-10-22T09:43:45.000Z</time>
      </trkpt>
      <trkpt lat="42.64790667" lon="-2.75024667">
        <ele>696.0</ele>
        <time>2021-10-22T09:43:46.000Z</time>
      </trkpt>
      <trkpt lat="42.64791167" lon="-2.75024167">
        <ele>696.0</ele>
        <time>2021-10-22T09:43:47.000Z</time>
      </trkpt>
      <trkpt lat="42.64792" lon="-2.75023833">
        <ele>696.0</ele>
        <time>2021-10-22T09:43:48.000Z</time>
      </trkpt>
      <trkpt lat="42.64792667" lon="-2.75023833">
        <ele>697.0</ele>
        <time>2021-10-22T09:43:49.000Z</time>
      </trkpt>
      <trkpt lat="42.647935" lon="-2.75023667">
        <ele>697.0</ele>
        <time>2021-10-22T09:43:50.000Z</time>
      </trkpt>
      <trkpt lat="42.64794167" lon="-2.75023833">
        <ele>697.0</ele>
        <time>2021-10-22T09:43:51.000Z</time>
      </trkpt>
      <trkpt lat="42.64795" lon="-2.75023833">
        <ele>697.0</ele>
        <time>2021-10-22T09:43:52.000Z</time>
      </trkpt>
      <trkpt lat="42.64795833" lon="-2.75023833">
        <ele>698.0</ele>
        <time>2021-10-22T09:43:53.000Z</time>
      </trkpt>
      <trkpt lat="42.64796833" lon="-2.75023833">
        <ele>698.0</ele>
        <time>2021-10-22T09:43:54.000Z</time>
      </trkpt>
      <trkpt lat="42.64797333" lon="-2.75024">
        <ele>698.0</ele>
        <time>2021-10-22T09:43:55.000Z</time>
      </trkpt>
      <trkpt lat="42.64798" lon="-2.75024">
        <ele>698.0</ele>
        <time>2021-10-22T09:43:56.000Z</time>
      </trkpt>
      <trkpt lat="42.64799" lon="-2.750245">
        <ele>698.0</ele>
        <time>2021-10-22T09:43:57.000Z</time>
      </trkpt>
      <trkpt lat="42.64799667" lon="-2.75025167">
        <ele>699.0</ele>
        <time>2021-10-22T09:43:58.000Z</time>
      </trkpt>
      <trkpt lat="42.648005" lon="-2.75025667">
        <ele>699.0</ele>
        <time>2021-10-22T09:43:59.000Z</time>
      </trkpt>
      <trkpt lat="42.648015" lon="-2.75026333">
        <ele>699.0</ele>
        <time>2021-10-22T09:44:00.000Z</time>
      </trkpt>
      <trkpt lat="42.64802167" lon="-2.75027167">
        <ele>699.0</ele>
        <time>2021-10-22T09:44:01.000Z</time>
      </trkpt>
      <trkpt lat="42.64802833" lon="-2.75028">
        <ele>699.0</ele>
        <time>2021-10-22T09:44:02.000Z</time>
      </trkpt>
      <trkpt lat="42.648035" lon="-2.75028667">
        <ele>699.0</ele>
        <time>2021-10-22T09:44:03.000Z</time>
      </trkpt>
      <trkpt lat="42.64804167" lon="-2.75029167">
        <ele>699.0</ele>
        <time>2021-10-22T09:44:04.000Z</time>
      </trkpt>
      <trkpt lat="42.64805167" lon="-2.75029333">
        <ele>699.0</ele>
        <time>2021-10-22T09:44:05.000Z</time>
      </trkpt>
      <trkpt lat="42.64806" lon="-2.75029667">
        <ele>700.0</ele>
        <time>2021-10-22T09:44:06.000Z</time>
      </trkpt>
      <trkpt lat="42.64807167" lon="-2.75029833">
        <ele>700.0</ele>
        <time>2021-10-22T09:44:07.000Z</time>
      </trkpt>
      <trkpt lat="42.64808167" lon="-2.7503">
        <ele>700.0</ele>
        <time>2021-10-22T09:44:08.000Z</time>
      </trkpt>
      <trkpt lat="42.64809167" lon="-2.75030167">
        <ele>700.0</ele>
        <time>2021-10-22T09:44:09.000Z</time>
      </trkpt>
      <trkpt lat="42.6481" lon="-2.75030167">
        <ele>700.0</ele>
        <time>2021-10-22T09:44:10.000Z</time>
      </trkpt>
      <trkpt lat="42.64810833" lon="-2.7503">
        <ele>700.0</ele>
        <time>2021-10-22T09:44:11.000Z</time>
      </trkpt>
      <trkpt lat="42.64812" lon="-2.75029833">
        <ele>700.0</ele>
        <time>2021-10-22T09:44:12.000Z</time>
      </trkpt>
      <trkpt lat="42.64813" lon="-2.75029833">
        <ele>700.0</ele>
        <time>2021-10-22T09:44:13.000Z</time>
      </trkpt>
      <trkpt lat="42.64814333" lon="-2.75029833">
        <ele>700.0</ele>
        <time>2021-10-22T09:44:14.000Z</time>
      </trkpt>
      <trkpt lat="42.648155" lon="-2.75029833">
        <ele>701.0</ele>
        <time>2021-10-22T09:44:15.000Z</time>
      </trkpt>
      <trkpt lat="42.64816333" lon="-2.75029667">
        <ele>701.0</ele>
        <time>2021-10-22T09:44:16.000Z</time>
      </trkpt>
      <trkpt lat="42.64817167" lon="-2.75029333">
        <ele>701.0</ele>
        <time>2021-10-22T09:44:17.000Z</time>
      </trkpt>
      <trkpt lat="42.64818" lon="-2.75029167">
        <ele>701.0</ele>
        <time>2021-10-22T09:44:18.000Z</time>
      </trkpt>
      <trkpt lat="42.64819" lon="-2.75029">
        <ele>701.0</ele>
        <time>2021-10-22T09:44:19.000Z</time>
      </trkpt>
      <trkpt lat="42.6482" lon="-2.75028667">
        <ele>701.0</ele>
        <time>2021-10-22T09:44:20.000Z</time>
      </trkpt>
      <trkpt lat="42.64821" lon="-2.750285">
        <ele>701.0</ele>
        <time>2021-10-22T09:44:21.000Z</time>
      </trkpt>
      <trkpt lat="42.64822" lon="-2.750285">
        <ele>701.0</ele>
        <time>2021-10-22T09:44:22.000Z</time>
      </trkpt>
      <trkpt lat="42.64823" lon="-2.75028667">
        <ele>702.0</ele>
        <time>2021-10-22T09:44:23.000Z</time>
      </trkpt>
      <trkpt lat="42.64823833" lon="-2.75028667">
        <ele>702.0</ele>
        <time>2021-10-22T09:44:24.000Z</time>
      </trkpt>
      <trkpt lat="42.64824667" lon="-2.75028833">
        <ele>702.0</ele>
        <time>2021-10-22T09:44:25.000Z</time>
      </trkpt>
      <trkpt lat="42.64825667" lon="-2.75029">
        <ele>702.0</ele>
        <time>2021-10-22T09:44:26.000Z</time>
      </trkpt>
      <trkpt lat="42.64826833" lon="-2.75029333">
        <ele>702.0</ele>
        <time>2021-10-22T09:44:27.000Z</time>
      </trkpt>
      <trkpt lat="42.64827667" lon="-2.750295">
        <ele>702.0</ele>
        <time>2021-10-22T09:44:28.000Z</time>
      </trkpt>
      <trkpt lat="42.64828667" lon="-2.75029833">
        <ele>702.0</ele>
        <time>2021-10-22T09:44:29.000Z</time>
      </trkpt>
      <trkpt lat="42.64829667" lon="-2.75030167">
        <ele>703.0</ele>
        <time>2021-10-22T09:44:30.000Z</time>
      </trkpt>
      <trkpt lat="42.64830667" lon="-2.75030333">
        <ele>703.0</ele>
        <time>2021-10-22T09:44:31.000Z</time>
      </trkpt>
      <trkpt lat="42.648315" lon="-2.750305">
        <ele>703.0</ele>
        <time>2021-10-22T09:44:32.000Z</time>
      </trkpt>
      <trkpt lat="42.64832333" lon="-2.75030667">
        <ele>703.0</ele>
        <time>2021-10-22T09:44:33.000Z</time>
      </trkpt>
      <trkpt lat="42.64833" lon="-2.75030667">
        <ele>703.0</ele>
        <time>2021-10-22T09:44:34.000Z</time>
      </trkpt>
      <trkpt lat="42.64833667" lon="-2.75030833">
        <ele>703.0</ele>
        <time>2021-10-22T09:44:35.000Z</time>
      </trkpt>
      <trkpt lat="42.64834333" lon="-2.75030833">
        <ele>703.0</ele>
        <time>2021-10-22T09:44:36.000Z</time>
      </trkpt>
      <trkpt lat="42.64834333" lon="-2.75030833">
        <ele>703.0</ele>
        <time>2021-10-22T09:44:37.000Z</time>
      </trkpt>
      <trkpt lat="42.648345" lon="-2.75030833">
        <ele>703.0</ele>
        <time>2021-10-22T09:44:38.000Z</time>
      </trkpt>
      <trkpt lat="42.648345" lon="-2.750305">
        <ele>703.0</ele>
        <time>2021-10-22T09:44:39.000Z</time>
      </trkpt>
      <trkpt lat="42.648345" lon="-2.75030833">
        <ele>704.0</ele>
        <time>2021-10-22T09:44:40.000Z</time>
      </trkpt>
      <trkpt lat="42.648345" lon="-2.75030833">
        <ele>704.0</ele>
        <time>2021-10-22T09:44:41.000Z</time>
      </trkpt>
      <trkpt lat="42.64834667" lon="-2.75031">
        <ele>704.0</ele>
        <time>2021-10-22T09:44:42.000Z</time>
      </trkpt>
      <trkpt lat="42.648345" lon="-2.75030833">
        <ele>704.0</ele>
        <time>2021-10-22T09:44:43.000Z</time>
      </trkpt>
      <trkpt lat="42.64834667" lon="-2.75030833">
        <ele>704.0</ele>
        <time>2021-10-22T09:44:44.000Z</time>
      </trkpt>
      <trkpt lat="42.64834667" lon="-2.75030667">
        <ele>704.0</ele>
        <time>2021-10-22T09:44:45.000Z</time>
      </trkpt>
      <trkpt lat="42.64834833" lon="-2.75030833">
        <ele>704.0</ele>
        <time>2021-10-22T09:44:46.000Z</time>
      </trkpt>
      <trkpt lat="42.64834833" lon="-2.75030833">
        <ele>704.0</ele>
        <time>2021-10-22T09:44:47.000Z</time>
      </trkpt>
      <trkpt lat="42.64834833" lon="-2.75030833">
        <ele>704.0</ele>
        <time>2021-10-22T09:44:48.000Z</time>
      </trkpt>
      <trkpt lat="42.64835" lon="-2.75030833">
        <ele>704.0</ele>
        <time>2021-10-22T09:44:49.000Z</time>
      </trkpt>
      <trkpt lat="42.64835" lon="-2.75031">
        <ele>704.0</ele>
        <time>2021-10-22T09:44:50.000Z</time>
      </trkpt>
      <trkpt lat="42.64835" lon="-2.75031">
        <ele>704.0</ele>
        <time>2021-10-22T09:44:51.000Z</time>
      </trkpt>
      <trkpt lat="42.64835167" lon="-2.75031">
        <ele>704.0</ele>
        <time>2021-10-22T09:44:52.000Z</time>
      </trkpt>
      <trkpt lat="42.64835167" lon="-2.75031">
        <ele>704.0</ele>
        <time>2021-10-22T09:44:53.000Z</time>
      </trkpt>
      <trkpt lat="42.64835167" lon="-2.75031333">
        <ele>704.0</ele>
        <time>2021-10-22T09:44:54.000Z</time>
      </trkpt>
      <trkpt lat="42.64835167" lon="-2.75031333">
        <ele>704.0</ele>
        <time>2021-10-22T09:44:55.000Z</time>
      </trkpt>
      <trkpt lat="42.64835167" lon="-2.75031333">
        <ele>705.0</ele>
        <time>2021-10-22T09:44:56.000Z</time>
      </trkpt>
      <trkpt lat="42.64835167" lon="-2.75031333">
        <ele>705.0</ele>
        <time>2021-10-22T09:44:57.000Z</time>
      </trkpt>
      <trkpt lat="42.64835167" lon="-2.75031167">
        <ele>705.0</ele>
        <time>2021-10-22T09:44:58.000Z</time>
      </trkpt>
      <trkpt lat="42.64835333" lon="-2.75031">
        <ele>705.0</ele>
        <time>2021-10-22T09:44:59.000Z</time>
      </trkpt>
      <trkpt lat="42.64835167" lon="-2.75031">
        <ele>705.0</ele>
        <time>2021-10-22T09:45:00.000Z</time>
      </trkpt>
      <trkpt lat="42.64835" lon="-2.75031167">
        <ele>705.0</ele>
        <time>2021-10-22T09:45:01.000Z</time>
      </trkpt>
      <trkpt lat="42.64835" lon="-2.75031333">
        <ele>705.0</ele>
        <time>2021-10-22T09:45:02.000Z</time>
      </trkpt>
      <trkpt lat="42.64834833" lon="-2.75031333">
        <ele>705.0</ele>
        <time>2021-10-22T09:45:03.000Z</time>
      </trkpt>
      <trkpt lat="42.64834833" lon="-2.750315">
        <ele>705.0</ele>
        <time>2021-10-22T09:45:04.000Z</time>
      </trkpt>
      <trkpt lat="42.64835" lon="-2.750315">
        <ele>705.0</ele>
        <time>2021-10-22T09:45:05.000Z</time>
      </trkpt>
      <trkpt lat="42.64835" lon="-2.75031667">
        <ele>705.0</ele>
        <time>2021-10-22T09:45:06.000Z</time>
      </trkpt>
      <trkpt lat="42.64835" lon="-2.75031667">
        <ele>705.0</ele>
        <time>2021-10-22T09:45:07.000Z</time>
      </trkpt>
      <trkpt lat="42.64835" lon="-2.75031667">
        <ele>705.0</ele>
        <time>2021-10-22T09:45:08.000Z</time>
      </trkpt>
      <trkpt lat="42.64835" lon="-2.75031833">
        <ele>705.0</ele>
        <time>2021-10-22T09:45:09.000Z</time>
      </trkpt>
      <trkpt lat="42.64835167" lon="-2.75031833">
        <ele>705.0</ele>
        <time>2021-10-22T09:45:10.000Z</time>
      </trkpt>
      <trkpt lat="42.64835167" lon="-2.75031833">
        <ele>705.0</ele>
        <time>2021-10-22T09:45:11.000Z</time>
      </trkpt>
      <trkpt lat="42.64835167" lon="-2.75031833">
        <ele>705.0</ele>
        <time>2021-10-22T09:45:12.000Z</time>
      </trkpt>
      <trkpt lat="42.64835333" lon="-2.75031833">
        <ele>705.0</ele>
        <time>2021-10-22T09:45:13.000Z</time>
      </trkpt>
      <trkpt lat="42.648355" lon="-2.75031833">
        <ele>705.0</ele>
        <time>2021-10-22T09:45:14.000Z</time>
      </trkpt>
      <trkpt lat="42.648355" lon="-2.75031833">
        <ele>705.0</ele>
        <time>2021-10-22T09:45:15.000Z</time>
      </trkpt>
      <trkpt lat="42.64835667" lon="-2.75032">
        <ele>705.0</ele>
        <time>2021-10-22T09:45:16.000Z</time>
      </trkpt>
      <trkpt lat="42.64835667" lon="-2.75032">
        <ele>705.0</ele>
        <time>2021-10-22T09:45:17.000Z</time>
      </trkpt>
      <trkpt lat="42.648355" lon="-2.75031833">
        <ele>705.0</ele>
        <time>2021-10-22T09:45:18.000Z</time>
      </trkpt>
      <trkpt lat="42.648355" lon="-2.75031833">
        <ele>705.0</ele>
        <time>2021-10-22T09:45:19.000Z</time>
      </trkpt>
      <trkpt lat="42.648355" lon="-2.75032">
        <ele>705.0</ele>
        <time>2021-10-22T09:45:20.000Z</time>
      </trkpt>
      <trkpt lat="42.648355" lon="-2.75032">
        <ele>705.0</ele>
        <time>2021-10-22T09:45:21.000Z</time>
      </trkpt>
      <trkpt lat="42.648355" lon="-2.75032">
        <ele>705.0</ele>
        <time>2021-10-22T09:45:22.000Z</time>
      </trkpt>
      <trkpt lat="42.648355" lon="-2.75032">
        <ele>705.0</ele>
        <time>2021-10-22T09:45:23.000Z</time>
      </trkpt>
      <trkpt lat="42.64835667" lon="-2.75032">
        <ele>705.0</ele>
        <time>2021-10-22T09:45:24.000Z</time>
      </trkpt>
      <trkpt lat="42.64835833" lon="-2.75032167">
        <ele>705.0</ele>
        <time>2021-10-22T09:45:25.000Z</time>
      </trkpt>
      <trkpt lat="42.64836" lon="-2.75032">
        <ele>705.0</ele>
        <time>2021-10-22T09:45:26.000Z</time>
      </trkpt>
      <trkpt lat="42.64836" lon="-2.75031833">
        <ele>705.0</ele>
        <time>2021-10-22T09:45:27.000Z</time>
      </trkpt>
      <trkpt lat="42.64836" lon="-2.75031667">
        <ele>705.0</ele>
        <time>2021-10-22T09:45:28.000Z</time>
      </trkpt>
      <trkpt lat="42.64836" lon="-2.75031667">
        <ele>705.0</ele>
        <time>2021-10-22T09:45:29.000Z</time>
      </trkpt>
      <trkpt lat="42.64835833" lon="-2.75031667">
        <ele>705.0</ele>
        <time>2021-10-22T09:45:30.000Z</time>
      </trkpt>
      <trkpt lat="42.64835833" lon="-2.75031833">
        <ele>705.0</ele>
        <time>2021-10-22T09:45:31.000Z</time>
      </trkpt>
      <trkpt lat="42.64836" lon="-2.75032">
        <ele>705.0</ele>
        <time>2021-10-22T09:45:32.000Z</time>
      </trkpt>
      <trkpt lat="42.64836" lon="-2.75032167">
        <ele>705.0</ele>
        <time>2021-10-22T09:45:33.000Z</time>
      </trkpt>
      <trkpt lat="42.64836167" lon="-2.75032167">
        <ele>705.0</ele>
        <time>2021-10-22T09:45:34.000Z</time>
      </trkpt>
      <trkpt lat="42.64836167" lon="-2.75032333">
        <ele>705.0</ele>
        <time>2021-10-22T09:45:35.000Z</time>
      </trkpt>
      <trkpt lat="42.64836167" lon="-2.75032333">
        <ele>705.0</ele>
        <time>2021-10-22T09:45:36.000Z</time>
      </trkpt>
      <trkpt lat="42.64836333" lon="-2.75032333">
        <ele>705.0</ele>
        <time>2021-10-22T09:45:37.000Z</time>
      </trkpt>
      <trkpt lat="42.64836333" lon="-2.75032333">
        <ele>705.0</ele>
        <time>2021-10-22T09:45:38.000Z</time>
      </trkpt>
      <trkpt lat="42.648365" lon="-2.750325">
        <ele>705.0</ele>
        <time>2021-10-22T09:45:39.000Z</time>
      </trkpt>
      <trkpt lat="42.648365" lon="-2.750325">
        <ele>705.0</ele>
        <time>2021-10-22T09:45:40.000Z</time>
      </trkpt>
      <trkpt lat="42.648365" lon="-2.75032667">
        <ele>705.0</ele>
        <time>2021-10-22T09:45:41.000Z</time>
      </trkpt>
      <trkpt lat="42.64836667" lon="-2.750325">
        <ele>704.0</ele>
        <time>2021-10-22T09:45:42.000Z</time>
      </trkpt>
      <trkpt lat="42.64836833" lon="-2.75032333">
        <ele>704.0</ele>
        <time>2021-10-22T09:45:43.000Z</time>
      </trkpt>
      <trkpt lat="42.64836833" lon="-2.750325">
        <ele>704.0</ele>
        <time>2021-10-22T09:45:44.000Z</time>
      </trkpt>
      <trkpt lat="42.64836833" lon="-2.75032667">
        <ele>704.0</ele>
        <time>2021-10-22T09:45:45.000Z</time>
      </trkpt>
      <trkpt lat="42.64836833" lon="-2.75032667">
        <ele>704.0</ele>
        <time>2021-10-22T09:45:46.000Z</time>
      </trkpt>
      <trkpt lat="42.64836833" lon="-2.75032667">
        <ele>704.0</ele>
        <time>2021-10-22T09:45:47.000Z</time>
      </trkpt>
      <trkpt lat="42.64836833" lon="-2.75032667">
        <ele>704.0</ele>
        <time>2021-10-22T09:45:48.000Z</time>
      </trkpt>
      <trkpt lat="42.64836833" lon="-2.75032667">
        <ele>704.0</ele>
        <time>2021-10-22T09:45:49.000Z</time>
      </trkpt>
      <trkpt lat="42.64836833" lon="-2.750325">
        <ele>704.0</ele>
        <time>2021-10-22T09:45:50.000Z</time>
      </trkpt>
      <trkpt lat="42.64836833" lon="-2.750325">
        <ele>704.0</ele>
        <time>2021-10-22T09:45:51.000Z</time>
      </trkpt>
      <trkpt lat="42.64836833" lon="-2.750325">
        <ele>704.0</ele>
        <time>2021-10-22T09:45:52.000Z</time>
      </trkpt>
      <trkpt lat="42.64836833" lon="-2.750325">
        <ele>704.0</ele>
        <time>2021-10-22T09:45:53.000Z</time>
      </trkpt>
      <trkpt lat="42.64837" lon="-2.750325">
        <ele>704.0</ele>
        <time>2021-10-22T09:45:54.000Z</time>
      </trkpt>
      <trkpt lat="42.64836833" lon="-2.75032667">
        <ele>704.0</ele>
        <time>2021-10-22T09:45:55.000Z</time>
      </trkpt>
      <trkpt lat="42.64836833" lon="-2.75033">
        <ele>704.0</ele>
        <time>2021-10-22T09:45:56.000Z</time>
      </trkpt>
      <trkpt lat="42.64836667" lon="-2.75032833">
        <ele>704.0</ele>
        <time>2021-10-22T09:45:57.000Z</time>
      </trkpt>
      <trkpt lat="42.64836667" lon="-2.75032833">
        <ele>704.0</ele>
        <time>2021-10-22T09:45:58.000Z</time>
      </trkpt>
      <trkpt lat="42.64836667" lon="-2.75032833">
        <ele>704.0</ele>
        <time>2021-10-22T09:45:59.000Z</time>
      </trkpt>
      <trkpt lat="42.64836833" lon="-2.75032833">
        <ele>704.0</ele>
        <time>2021-10-22T09:46:00.000Z</time>
      </trkpt>
      <trkpt lat="42.64836833" lon="-2.75032833">
        <ele>704.0</ele>
        <time>2021-10-22T09:46:01.000Z</time>
      </trkpt>
      <trkpt lat="42.64836833" lon="-2.75032833">
        <ele>704.0</ele>
        <time>2021-10-22T09:46:02.000Z</time>
      </trkpt>
      <trkpt lat="42.64836833" lon="-2.75032833">
        <ele>704.0</ele>
        <time>2021-10-22T09:46:03.000Z</time>
      </trkpt>
      <trkpt lat="42.64836833" lon="-2.75032833">
        <ele>704.0</ele>
        <time>2021-10-22T09:46:04.000Z</time>
      </trkpt>
      <trkpt lat="42.64836833" lon="-2.75032833">
        <ele>704.0</ele>
        <time>2021-10-22T09:46:05.000Z</time>
      </trkpt>
      <trkpt lat="42.64836833" lon="-2.75032833">
        <ele>704.0</ele>
        <time>2021-10-22T09:46:06.000Z</time>
      </trkpt>
      <trkpt lat="42.64836833" lon="-2.75032833">
        <ele>705.0</ele>
        <time>2021-10-22T09:46:07.000Z</time>
      </trkpt>
      <trkpt lat="42.64836667" lon="-2.75032833">
        <ele>705.0</ele>
        <time>2021-10-22T09:46:08.000Z</time>
      </trkpt>
      <trkpt lat="42.64836667" lon="-2.75032833">
        <ele>705.0</ele>
        <time>2021-10-22T09:46:09.000Z</time>
      </trkpt>
      <trkpt lat="42.64836667" lon="-2.75032833">
        <ele>705.0</ele>
        <time>2021-10-22T09:46:10.000Z</time>
      </trkpt>
      <trkpt lat="42.64836833" lon="-2.75032833">
        <ele>705.0</ele>
        <time>2021-10-22T09:46:11.000Z</time>
      </trkpt>
      <trkpt lat="42.64836833" lon="-2.75032833">
        <ele>705.0</ele>
        <time>2021-10-22T09:46:12.000Z</time>
      </trkpt>
      <trkpt lat="42.64836667" lon="-2.75032833">
        <ele>705.0</ele>
        <time>2021-10-22T09:46:13.000Z</time>
      </trkpt>
      <trkpt lat="42.64836667" lon="-2.75033">
        <ele>705.0</ele>
        <time>2021-10-22T09:46:14.000Z</time>
      </trkpt>
      <trkpt lat="42.64836667" lon="-2.75033">
        <ele>705.0</ele>
        <time>2021-10-22T09:46:15.000Z</time>
      </trkpt>
      <trkpt lat="42.64836667" lon="-2.75033">
        <ele>705.0</ele>
        <time>2021-10-22T09:46:16.000Z</time>
      </trkpt>
      <trkpt lat="42.64836667" lon="-2.75033">
        <ele>705.0</ele>
        <time>2021-10-22T09:46:17.000Z</time>
      </trkpt>
      <trkpt lat="42.64836833" lon="-2.75032833">
        <ele>705.0</ele>
        <time>2021-10-22T09:46:18.000Z</time>
      </trkpt>
      <trkpt lat="42.64836833" lon="-2.75033">
        <ele>705.0</ele>
        <time>2021-10-22T09:46:19.000Z</time>
      </trkpt>
      <trkpt lat="42.64836833" lon="-2.75033">
        <ele>705.0</ele>
        <time>2021-10-22T09:46:20.000Z</time>
      </trkpt>
      <trkpt lat="42.64836833" lon="-2.75033">
        <ele>705.0</ele>
        <time>2021-10-22T09:46:21.000Z</time>
      </trkpt>
      <trkpt lat="42.64836833" lon="-2.75033">
        <ele>705.0</ele>
        <time>2021-10-22T09:46:22.000Z</time>
      </trkpt>
      <trkpt lat="42.64836833" lon="-2.75032833">
        <ele>705.0</ele>
        <time>2021-10-22T09:46:23.000Z</time>
      </trkpt>
      <trkpt lat="42.64836667" lon="-2.75032833">
        <ele>704.0</ele>
        <time>2021-10-22T09:46:24.000Z</time>
      </trkpt>
      <trkpt lat="42.64836667" lon="-2.75032833">
        <ele>704.0</ele>
        <time>2021-10-22T09:46:25.000Z</time>
      </trkpt>
      <trkpt lat="42.64836667" lon="-2.75032833">
        <ele>704.0</ele>
        <time>2021-10-22T09:46:26.000Z</time>
      </trkpt>
      <trkpt lat="42.64836667" lon="-2.75033">
        <ele>705.0</ele>
        <time>2021-10-22T09:46:27.000Z</time>
      </trkpt>
      <trkpt lat="42.64836667" lon="-2.75033">
        <ele>704.0</ele>
        <time>2021-10-22T09:46:28.000Z</time>
      </trkpt>
      <trkpt lat="42.64836833" lon="-2.75033">
        <ele>704.0</ele>
        <time>2021-10-22T09:46:29.000Z</time>
      </trkpt>
      <trkpt lat="42.64837" lon="-2.75032833">
        <ele>704.0</ele>
        <time>2021-10-22T09:46:30.000Z</time>
      </trkpt>
      <trkpt lat="42.64837" lon="-2.75032833">
        <ele>704.0</ele>
        <time>2021-10-22T09:46:31.000Z</time>
      </trkpt>
      <trkpt lat="42.64837" lon="-2.75032833">
        <ele>704.0</ele>
        <time>2021-10-22T09:46:32.000Z</time>
      </trkpt>
      <trkpt lat="42.64837" lon="-2.75033">
        <ele>704.0</ele>
        <time>2021-10-22T09:46:33.000Z</time>
      </trkpt>
      <trkpt lat="42.64837167" lon="-2.75033">
        <ele>704.0</ele>
        <time>2021-10-22T09:46:34.000Z</time>
      </trkpt>
      <trkpt lat="42.64837" lon="-2.75033167">
        <ele>704.0</ele>
        <time>2021-10-22T09:46:35.000Z</time>
      </trkpt>
      <trkpt lat="42.64837" lon="-2.75033167">
        <ele>705.0</ele>
        <time>2021-10-22T09:46:36.000Z</time>
      </trkpt>
      <trkpt lat="42.64837" lon="-2.75033167">
        <ele>705.0</ele>
        <time>2021-10-22T09:46:37.000Z</time>
      </trkpt>
      <trkpt lat="42.64837167" lon="-2.75033167">
        <ele>705.0</ele>
        <time>2021-10-22T09:46:38.000Z</time>
      </trkpt>
      <trkpt lat="42.64837167" lon="-2.75033167">
        <ele>705.0</ele>
        <time>2021-10-22T09:46:39.000Z</time>
      </trkpt>
      <trkpt lat="42.64837167" lon="-2.75033167">
        <ele>705.0</ele>
        <time>2021-10-22T09:46:40.000Z</time>
      </trkpt>
      <trkpt lat="42.64837167" lon="-2.75033167">
        <ele>705.0</ele>
        <time>2021-10-22T09:46:41.000Z</time>
      </trkpt>
      <trkpt lat="42.64837333" lon="-2.75033333">
        <ele>705.0</ele>
        <time>2021-10-22T09:46:42.000Z</time>
      </trkpt>
      <trkpt lat="42.64837167" lon="-2.75033333">
        <ele>705.0</ele>
        <time>2021-10-22T09:46:43.000Z</time>
      </trkpt>
      <trkpt lat="42.64837167" lon="-2.75033333">
        <ele>705.0</ele>
        <time>2021-10-22T09:46:44.000Z</time>
      </trkpt>
      <trkpt lat="42.64837333" lon="-2.750335">
        <ele>705.0</ele>
        <time>2021-10-22T09:46:45.000Z</time>
      </trkpt>
      <trkpt lat="42.64837167" lon="-2.750335">
        <ele>705.0</ele>
        <time>2021-10-22T09:46:46.000Z</time>
      </trkpt>
      <trkpt lat="42.64837" lon="-2.75033667">
        <ele>705.0</ele>
        <time>2021-10-22T09:46:47.000Z</time>
      </trkpt>
      <trkpt lat="42.64837" lon="-2.75033667">
        <ele>705.0</ele>
        <time>2021-10-22T09:46:48.000Z</time>
      </trkpt>
      <trkpt lat="42.64836833" lon="-2.750335">
        <ele>705.0</ele>
        <time>2021-10-22T09:46:49.000Z</time>
      </trkpt>
      <trkpt lat="42.64836833" lon="-2.750335">
        <ele>705.0</ele>
        <time>2021-10-22T09:46:50.000Z</time>
      </trkpt>
      <trkpt lat="42.64836833" lon="-2.750335">
        <ele>705.0</ele>
        <time>2021-10-22T09:46:51.000Z</time>
      </trkpt>
      <trkpt lat="42.64836833" lon="-2.75033667">
        <ele>705.0</ele>
        <time>2021-10-22T09:46:52.000Z</time>
      </trkpt>
      <trkpt lat="42.64836833" lon="-2.75033667">
        <ele>705.0</ele>
        <time>2021-10-22T09:46:53.000Z</time>
      </trkpt>
      <trkpt lat="42.64836833" lon="-2.75033667">
        <ele>705.0</ele>
        <time>2021-10-22T09:46:54.000Z</time>
      </trkpt>
      <trkpt lat="42.64836833" lon="-2.75033667">
        <ele>705.0</ele>
        <time>2021-10-22T09:46:55.000Z</time>
      </trkpt>
      <trkpt lat="42.64836833" lon="-2.75033667">
        <ele>705.0</ele>
        <time>2021-10-22T09:46:56.000Z</time>
      </trkpt>
      <trkpt lat="42.64836667" lon="-2.75033833">
        <ele>705.0</ele>
        <time>2021-10-22T09:46:57.000Z</time>
      </trkpt>
      <trkpt lat="42.64836833" lon="-2.75033833">
        <ele>705.0</ele>
        <time>2021-10-22T09:46:58.000Z</time>
      </trkpt>
      <trkpt lat="42.64836833" lon="-2.75034">
        <ele>705.0</ele>
        <time>2021-10-22T09:46:59.000Z</time>
      </trkpt>
      <trkpt lat="42.64837" lon="-2.75034">
        <ele>705.0</ele>
        <time>2021-10-22T09:47:00.000Z</time>
      </trkpt>
      <trkpt lat="42.64837" lon="-2.75034">
        <ele>705.0</ele>
        <time>2021-10-22T09:47:01.000Z</time>
      </trkpt>
      <trkpt lat="42.64837" lon="-2.75034">
        <ele>705.0</ele>
        <time>2021-10-22T09:47:02.000Z</time>
      </trkpt>
      <trkpt lat="42.64837167" lon="-2.75034">
        <ele>705.0</ele>
        <time>2021-10-22T09:47:03.000Z</time>
      </trkpt>
      <trkpt lat="42.64837167" lon="-2.75033833">
        <ele>705.0</ele>
        <time>2021-10-22T09:47:04.000Z</time>
      </trkpt>
      <trkpt lat="42.64837167" lon="-2.75034">
        <ele>705.0</ele>
        <time>2021-10-22T09:47:05.000Z</time>
      </trkpt>
      <trkpt lat="42.64837167" lon="-2.75033833">
        <ele>705.0</ele>
        <time>2021-10-22T09:47:06.000Z</time>
      </trkpt>
      <trkpt lat="42.64837167" lon="-2.75033833">
        <ele>705.0</ele>
        <time>2021-10-22T09:47:07.000Z</time>
      </trkpt>
      <trkpt lat="42.64837167" lon="-2.75033833">
        <ele>705.0</ele>
        <time>2021-10-22T09:47:08.000Z</time>
      </trkpt>
      <trkpt lat="42.64837167" lon="-2.75033833">
        <ele>705.0</ele>
        <time>2021-10-22T09:47:09.000Z</time>
      </trkpt>
      <trkpt lat="42.64837167" lon="-2.75033833">
        <ele>705.0</ele>
        <time>2021-10-22T09:47:10.000Z</time>
      </trkpt>
      <trkpt lat="42.64837" lon="-2.75033833">
        <ele>705.0</ele>
        <time>2021-10-22T09:47:11.000Z</time>
      </trkpt>
      <trkpt lat="42.64837" lon="-2.75033833">
        <ele>705.0</ele>
        <time>2021-10-22T09:47:12.000Z</time>
      </trkpt>
      <trkpt lat="42.64836833" lon="-2.75034">
        <ele>705.0</ele>
        <time>2021-10-22T09:47:13.000Z</time>
      </trkpt>
      <trkpt lat="42.64836833" lon="-2.75034">
        <ele>705.0</ele>
        <time>2021-10-22T09:47:14.000Z</time>
      </trkpt>
      <trkpt lat="42.64836833" lon="-2.75034">
        <ele>705.0</ele>
        <time>2021-10-22T09:47:15.000Z</time>
      </trkpt>
      <trkpt lat="42.64836667" lon="-2.75034">
        <ele>705.0</ele>
        <time>2021-10-22T09:47:16.000Z</time>
      </trkpt>
      <trkpt lat="42.64836667" lon="-2.75033833">
        <ele>705.0</ele>
        <time>2021-10-22T09:47:17.000Z</time>
      </trkpt>
      <trkpt lat="42.64836667" lon="-2.75033833">
        <ele>705.0</ele>
        <time>2021-10-22T09:47:18.000Z</time>
      </trkpt>
      <trkpt lat="42.64836667" lon="-2.75033833">
        <ele>705.0</ele>
        <time>2021-10-22T09:47:19.000Z</time>
      </trkpt>
      <trkpt lat="42.64836667" lon="-2.75033833">
        <ele>705.0</ele>
        <time>2021-10-22T09:47:20.000Z</time>
      </trkpt>
      <trkpt lat="42.64836667" lon="-2.75033833">
        <ele>705.0</ele>
        <time>2021-10-22T09:47:21.000Z</time>
      </trkpt>
      <trkpt lat="42.64836667" lon="-2.75033833">
        <ele>705.0</ele>
        <time>2021-10-22T09:47:22.000Z</time>
      </trkpt>
      <trkpt lat="42.64836333" lon="-2.75033833">
        <ele>705.0</ele>
        <time>2021-10-22T09:47:23.000Z</time>
      </trkpt>
      <trkpt lat="42.64836333" lon="-2.75033833">
        <ele>705.0</ele>
        <time>2021-10-22T09:47:24.000Z</time>
      </trkpt>
      <trkpt lat="42.64836333" lon="-2.75033833">
        <ele>705.0</ele>
        <time>2021-10-22T09:47:25.000Z</time>
      </trkpt>
      <trkpt lat="42.64836333" lon="-2.75033833">
        <ele>705.0</ele>
        <time>2021-10-22T09:47:26.000Z</time>
      </trkpt>
      <trkpt lat="42.64836167" lon="-2.75033833">
        <ele>705.0</ele>
        <time>2021-10-22T09:47:27.000Z</time>
      </trkpt>
      <trkpt lat="42.64836167" lon="-2.75033833">
        <ele>705.0</ele>
        <time>2021-10-22T09:47:28.000Z</time>
      </trkpt>
      <trkpt lat="42.64836333" lon="-2.75033833">
        <ele>705.0</ele>
        <time>2021-10-22T09:47:29.000Z</time>
      </trkpt>
      <trkpt lat="42.64836167" lon="-2.75033833">
        <ele>705.0</ele>
        <time>2021-10-22T09:47:30.000Z</time>
      </trkpt>
      <trkpt lat="42.64836167" lon="-2.75033833">
        <ele>705.0</ele>
        <time>2021-10-22T09:47:31.000Z</time>
      </trkpt>
      <trkpt lat="42.64836167" lon="-2.75033833">
        <ele>705.0</ele>
        <time>2021-10-22T09:47:32.000Z</time>
      </trkpt>
      <trkpt lat="42.64836167" lon="-2.75033833">
        <ele>705.0</ele>
        <time>2021-10-22T09:47:33.000Z</time>
      </trkpt>
      <trkpt lat="42.64836" lon="-2.75033833">
        <ele>705.0</ele>
        <time>2021-10-22T09:47:34.000Z</time>
      </trkpt>
      <trkpt lat="42.64836167" lon="-2.75033833">
        <ele>705.0</ele>
        <time>2021-10-22T09:47:35.000Z</time>
      </trkpt>
      <trkpt lat="42.64836167" lon="-2.75033833">
        <ele>706.0</ele>
        <time>2021-10-22T09:47:36.000Z</time>
      </trkpt>
      <trkpt lat="42.64836167" lon="-2.75033833">
        <ele>706.0</ele>
        <time>2021-10-22T09:47:37.000Z</time>
      </trkpt>
      <trkpt lat="42.64836167" lon="-2.75033833">
        <ele>706.0</ele>
        <time>2021-10-22T09:47:38.000Z</time>
      </trkpt>
      <trkpt lat="42.64836167" lon="-2.75033833">
        <ele>706.0</ele>
        <time>2021-10-22T09:47:39.000Z</time>
      </trkpt>
      <trkpt lat="42.64836167" lon="-2.75033667">
        <ele>706.0</ele>
        <time>2021-10-22T09:47:40.000Z</time>
      </trkpt>
      <trkpt lat="42.64836333" lon="-2.75033667">
        <ele>706.0</ele>
        <time>2021-10-22T09:47:41.000Z</time>
      </trkpt>
      <trkpt lat="42.64836333" lon="-2.75033667">
        <ele>706.0</ele>
        <time>2021-10-22T09:47:42.000Z</time>
      </trkpt>
      <trkpt lat="42.64836333" lon="-2.75033667">
        <ele>706.0</ele>
        <time>2021-10-22T09:47:43.000Z</time>
      </trkpt>
      <trkpt lat="42.64836333" lon="-2.750335">
        <ele>706.0</ele>
        <time>2021-10-22T09:47:44.000Z</time>
      </trkpt>
      <trkpt lat="42.64836333" lon="-2.750335">
        <ele>706.0</ele>
        <time>2021-10-22T09:47:45.000Z</time>
      </trkpt>
      <trkpt lat="42.64836333" lon="-2.750335">
        <ele>706.0</ele>
        <time>2021-10-22T09:47:46.000Z</time>
      </trkpt>
      <trkpt lat="42.64836333" lon="-2.750335">
        <ele>706.0</ele>
        <time>2021-10-22T09:47:47.000Z</time>
      </trkpt>
      <trkpt lat="42.64836333" lon="-2.750335">
        <ele>706.0</ele>
        <time>2021-10-22T09:47:48.000Z</time>
      </trkpt>
      <trkpt lat="42.64836333" lon="-2.750335">
        <ele>706.0</ele>
        <time>2021-10-22T09:47:49.000Z</time>
      </trkpt>
      <trkpt lat="42.64836333" lon="-2.750335">
        <ele>706.0</ele>
        <time>2021-10-22T09:47:50.000Z</time>
      </trkpt>
      <trkpt lat="42.64836333" lon="-2.750335">
        <ele>706.0</ele>
        <time>2021-10-22T09:47:51.000Z</time>
      </trkpt>
      <trkpt lat="42.64836333" lon="-2.750335">
        <ele>706.0</ele>
        <time>2021-10-22T09:47:52.000Z</time>
      </trkpt>
      <trkpt lat="42.64836333" lon="-2.750335">
        <ele>706.0</ele>
        <time>2021-10-22T09:47:53.000Z</time>
      </trkpt>
      <trkpt lat="42.64836333" lon="-2.750335">
        <ele>706.0</ele>
        <time>2021-10-22T09:47:54.000Z</time>
      </trkpt>
      <trkpt lat="42.64836333" lon="-2.750335">
        <ele>706.0</ele>
        <time>2021-10-22T09:47:55.000Z</time>
      </trkpt>
      <trkpt lat="42.64836333" lon="-2.750335">
        <ele>706.0</ele>
        <time>2021-10-22T09:47:56.000Z</time>
      </trkpt>
      <trkpt lat="42.64836333" lon="-2.750335">
        <ele>706.0</ele>
        <time>2021-10-22T09:47:57.000Z</time>
      </trkpt>
      <trkpt lat="42.64836333" lon="-2.750335">
        <ele>706.0</ele>
        <time>2021-10-22T09:47:58.000Z</time>
      </trkpt>
      <trkpt lat="42.64836333" lon="-2.750335">
        <ele>706.0</ele>
        <time>2021-10-22T09:47:59.000Z</time>
      </trkpt>
      <trkpt lat="42.64836333" lon="-2.750335">
        <ele>706.0</ele>
        <time>2021-10-22T09:48:00.000Z</time>
      </trkpt>
      <trkpt lat="42.648365" lon="-2.750335">
        <ele>706.0</ele>
        <time>2021-10-22T09:48:01.000Z</time>
      </trkpt>
      <trkpt lat="42.648365" lon="-2.750335">
        <ele>706.0</ele>
        <time>2021-10-22T09:48:02.000Z</time>
      </trkpt>
      <trkpt lat="42.648365" lon="-2.750335">
        <ele>706.0</ele>
        <time>2021-10-22T09:48:03.000Z</time>
      </trkpt>
      <trkpt lat="42.648365" lon="-2.750335">
        <ele>706.0</ele>
        <time>2021-10-22T09:48:04.000Z</time>
      </trkpt>
      <trkpt lat="42.648365" lon="-2.750335">
        <ele>706.0</ele>
        <time>2021-10-22T09:48:05.000Z</time>
      </trkpt>
      <trkpt lat="42.648365" lon="-2.750335">
        <ele>706.0</ele>
        <time>2021-10-22T09:48:06.000Z</time>
      </trkpt>
      <trkpt lat="42.648365" lon="-2.750335">
        <ele>706.0</ele>
        <time>2021-10-22T09:48:07.000Z</time>
      </trkpt>
      <trkpt lat="42.648365" lon="-2.750335">
        <ele>706.0</ele>
        <time>2021-10-22T09:48:08.000Z</time>
      </trkpt>
      <trkpt lat="42.648365" lon="-2.750335">
        <ele>706.0</ele>
        <time>2021-10-22T09:48:09.000Z</time>
      </trkpt>
      <trkpt lat="42.648365" lon="-2.750335">
        <ele>706.0</ele>
        <time>2021-10-22T09:48:10.000Z</time>
      </trkpt>
      <trkpt lat="42.648365" lon="-2.750335">
        <ele>706.0</ele>
        <time>2021-10-22T09:48:11.000Z</time>
      </trkpt>
      <trkpt lat="42.648365" lon="-2.750335">
        <ele>706.0</ele>
        <time>2021-10-22T09:48:12.000Z</time>
      </trkpt>
      <trkpt lat="42.648365" lon="-2.750335">
        <ele>706.0</ele>
        <time>2021-10-22T09:48:13.000Z</time>
      </trkpt>
      <trkpt lat="42.648365" lon="-2.750335">
        <ele>706.0</ele>
        <time>2021-10-22T09:48:14.000Z</time>
      </trkpt>
      <trkpt lat="42.648365" lon="-2.750335">
        <ele>706.0</ele>
        <time>2021-10-22T09:48:15.000Z</time>
      </trkpt>
      <trkpt lat="42.648365" lon="-2.750335">
        <ele>706.0</ele>
        <time>2021-10-22T09:48:16.000Z</time>
      </trkpt>
      <trkpt lat="42.648365" lon="-2.75033667">
        <ele>706.0</ele>
        <time>2021-10-22T09:48:17.000Z</time>
      </trkpt>
      <trkpt lat="42.648365" lon="-2.75033667">
        <ele>706.0</ele>
        <time>2021-10-22T09:48:18.000Z</time>
      </trkpt>
      <trkpt lat="42.648365" lon="-2.75033667">
        <ele>706.0</ele>
        <time>2021-10-22T09:48:19.000Z</time>
      </trkpt>
      <trkpt lat="42.648365" lon="-2.750335">
        <ele>706.0</ele>
        <time>2021-10-22T09:48:20.000Z</time>
      </trkpt>
      <trkpt lat="42.648365" lon="-2.75033833">
        <ele>706.0</ele>
        <time>2021-10-22T09:48:21.000Z</time>
      </trkpt>
      <trkpt lat="42.648365" lon="-2.75034">
        <ele>706.0</ele>
        <time>2021-10-22T09:48:22.000Z</time>
      </trkpt>
      <trkpt lat="42.64836333" lon="-2.75033833">
        <ele>706.0</ele>
        <time>2021-10-22T09:48:23.000Z</time>
      </trkpt>
      <trkpt lat="42.64836333" lon="-2.75033833">
        <ele>706.0</ele>
        <time>2021-10-22T09:48:24.000Z</time>
      </trkpt>
      <trkpt lat="42.64836333" lon="-2.75033833">
        <ele>706.0</ele>
        <time>2021-10-22T09:48:25.000Z</time>
      </trkpt>
      <trkpt lat="42.64836333" lon="-2.75033833">
        <ele>706.0</ele>
        <time>2021-10-22T09:48:26.000Z</time>
      </trkpt>
      <trkpt lat="42.64836333" lon="-2.75033833">
        <ele>706.0</ele>
        <time>2021-10-22T09:48:27.000Z</time>
      </trkpt>
      <trkpt lat="42.64836333" lon="-2.75033833">
        <ele>706.0</ele>
        <time>2021-10-22T09:48:28.000Z</time>
      </trkpt>
      <trkpt lat="42.64836333" lon="-2.75033833">
        <ele>706.0</ele>
        <time>2021-10-22T09:48:29.000Z</time>
      </trkpt>
      <trkpt lat="42.64836333" lon="-2.75033833">
        <ele>706.0</ele>
        <time>2021-10-22T09:48:30.000Z</time>
      </trkpt>
      <trkpt lat="42.64836333" lon="-2.75033833">
        <ele>706.0</ele>
        <time>2021-10-22T09:48:31.000Z</time>
      </trkpt>
      <trkpt lat="42.64836333" lon="-2.75033833">
        <ele>707.0</ele>
        <time>2021-10-22T09:48:32.000Z</time>
      </trkpt>
      <trkpt lat="42.64836333" lon="-2.75033833">
        <ele>707.0</ele>
        <time>2021-10-22T09:48:33.000Z</time>
      </trkpt>
      <trkpt lat="42.64836333" lon="-2.75034">
        <ele>707.0</ele>
        <time>2021-10-22T09:48:34.000Z</time>
      </trkpt>
      <trkpt lat="42.64836167" lon="-2.75034">
        <ele>707.0</ele>
        <time>2021-10-22T09:48:35.000Z</time>
      </trkpt>
      <trkpt lat="42.64836333" lon="-2.75033833">
        <ele>707.0</ele>
        <time>2021-10-22T09:48:36.000Z</time>
      </trkpt>
      <trkpt lat="42.64836333" lon="-2.75033833">
        <ele>707.0</ele>
        <time>2021-10-22T09:48:37.000Z</time>
      </trkpt>
      <trkpt lat="42.64836333" lon="-2.75033833">
        <ele>707.0</ele>
        <time>2021-10-22T09:48:38.000Z</time>
      </trkpt>
      <trkpt lat="42.64836333" lon="-2.75033833">
        <ele>707.0</ele>
        <time>2021-10-22T09:48:39.000Z</time>
      </trkpt>
      <trkpt lat="42.64836333" lon="-2.75033833">
        <ele>707.0</ele>
        <time>2021-10-22T09:48:40.000Z</time>
      </trkpt>
      <trkpt lat="42.64836333" lon="-2.75033833">
        <ele>707.0</ele>
        <time>2021-10-22T09:48:41.000Z</time>
      </trkpt>
      <trkpt lat="42.64836333" lon="-2.75034">
        <ele>707.0</ele>
        <time>2021-10-22T09:48:42.000Z</time>
      </trkpt>
      <trkpt lat="42.64836333" lon="-2.75034">
        <ele>707.0</ele>
        <time>2021-10-22T09:48:43.000Z</time>
      </trkpt>
      <trkpt lat="42.64836333" lon="-2.75034">
        <ele>707.0</ele>
        <time>2021-10-22T09:48:44.000Z</time>
      </trkpt>
      <trkpt lat="42.64836333" lon="-2.75034">
        <ele>707.0</ele>
        <time>2021-10-22T09:48:45.000Z</time>
      </trkpt>
      <trkpt lat="42.64836333" lon="-2.75034">
        <ele>707.0</ele>
        <time>2021-10-22T09:48:46.000Z</time>
      </trkpt>
      <trkpt lat="42.64836167" lon="-2.75034167">
        <ele>707.0</ele>
        <time>2021-10-22T09:48:47.000Z</time>
      </trkpt>
      <trkpt lat="42.64836167" lon="-2.75034167">
        <ele>707.0</ele>
        <time>2021-10-22T09:48:48.000Z</time>
      </trkpt>
      <trkpt lat="42.64836167" lon="-2.75034167">
        <ele>707.0</ele>
        <time>2021-10-22T09:48:49.000Z</time>
      </trkpt>
      <trkpt lat="42.64836167" lon="-2.75034167">
        <ele>707.0</ele>
        <time>2021-10-22T09:48:50.000Z</time>
      </trkpt>
      <trkpt lat="42.64836167" lon="-2.75034167">
        <ele>707.0</ele>
        <time>2021-10-22T09:48:51.000Z</time>
      </trkpt>
      <trkpt lat="42.64836167" lon="-2.75034167">
        <ele>707.0</ele>
        <time>2021-10-22T09:48:52.000Z</time>
      </trkpt>
      <trkpt lat="42.64836167" lon="-2.75034333">
        <ele>707.0</ele>
        <time>2021-10-22T09:48:53.000Z</time>
      </trkpt>
      <trkpt lat="42.64836" lon="-2.75034167">
        <ele>707.0</ele>
        <time>2021-10-22T09:48:54.000Z</time>
      </trkpt>
      <trkpt lat="42.64835833" lon="-2.75034">
        <ele>707.0</ele>
        <time>2021-10-22T09:48:55.000Z</time>
      </trkpt>
      <trkpt lat="42.64835833" lon="-2.75034">
        <ele>707.0</ele>
        <time>2021-10-22T09:48:56.000Z</time>
      </trkpt>
      <trkpt lat="42.64835833" lon="-2.75034">
        <ele>707.0</ele>
        <time>2021-10-22T09:48:57.000Z</time>
      </trkpt>
      <trkpt lat="42.64835833" lon="-2.75034">
        <ele>707.0</ele>
        <time>2021-10-22T09:48:58.000Z</time>
      </trkpt>
      <trkpt lat="42.64835833" lon="-2.75034">
        <ele>707.0</ele>
        <time>2021-10-22T09:48:59.000Z</time>
      </trkpt>
      <trkpt lat="42.64835833" lon="-2.75034">
        <ele>707.0</ele>
        <time>2021-10-22T09:49:00.000Z</time>
      </trkpt>
      <trkpt lat="42.64835833" lon="-2.75034">
        <ele>707.0</ele>
        <time>2021-10-22T09:49:01.000Z</time>
      </trkpt>
      <trkpt lat="42.64835833" lon="-2.75034">
        <ele>707.0</ele>
        <time>2021-10-22T09:49:02.000Z</time>
      </trkpt>
      <trkpt lat="42.64835833" lon="-2.75034">
        <ele>707.0</ele>
        <time>2021-10-22T09:49:03.000Z</time>
      </trkpt>
      <trkpt lat="42.64835833" lon="-2.75034">
        <ele>706.0</ele>
        <time>2021-10-22T09:49:04.000Z</time>
      </trkpt>
      <trkpt lat="42.64835833" lon="-2.75034">
        <ele>706.0</ele>
        <time>2021-10-22T09:49:05.000Z</time>
      </trkpt>
      <trkpt lat="42.64835833" lon="-2.75034">
        <ele>706.0</ele>
        <time>2021-10-22T09:49:06.000Z</time>
      </trkpt>
      <trkpt lat="42.64835833" lon="-2.75034">
        <ele>706.0</ele>
        <time>2021-10-22T09:49:07.000Z</time>
      </trkpt>
      <trkpt lat="42.64835833" lon="-2.75034">
        <ele>706.0</ele>
        <time>2021-10-22T09:49:08.000Z</time>
      </trkpt>
      <trkpt lat="42.64835833" lon="-2.75034">
        <ele>706.0</ele>
        <time>2021-10-22T09:49:09.000Z</time>
      </trkpt>
      <trkpt lat="42.64835833" lon="-2.75034">
        <ele>706.0</ele>
        <time>2021-10-22T09:49:10.000Z</time>
      </trkpt>
      <trkpt lat="42.64835833" lon="-2.75034">
        <ele>706.0</ele>
        <time>2021-10-22T09:49:11.000Z</time>
      </trkpt>
      <trkpt lat="42.64835833" lon="-2.75034">
        <ele>706.0</ele>
        <time>2021-10-22T09:49:12.000Z</time>
      </trkpt>
      <trkpt lat="42.64835667" lon="-2.75034">
        <ele>706.0</ele>
        <time>2021-10-22T09:49:13.000Z</time>
      </trkpt>
      <trkpt lat="42.64835667" lon="-2.75034">
        <ele>706.0</ele>
        <time>2021-10-22T09:49:14.000Z</time>
      </trkpt>
      <trkpt lat="42.64835667" lon="-2.75034">
        <ele>706.0</ele>
        <time>2021-10-22T09:49:15.000Z</time>
      </trkpt>
      <trkpt lat="42.64835667" lon="-2.75034">
        <ele>706.0</ele>
        <time>2021-10-22T09:49:16.000Z</time>
      </trkpt>
      <trkpt lat="42.64835667" lon="-2.75034">
        <ele>706.0</ele>
        <time>2021-10-22T09:49:17.000Z</time>
      </trkpt>
      <trkpt lat="42.64835667" lon="-2.75034">
        <ele>706.0</ele>
        <time>2021-10-22T09:49:18.000Z</time>
      </trkpt>
      <trkpt lat="42.64835667" lon="-2.75034">
        <ele>706.0</ele>
        <time>2021-10-22T09:49:19.000Z</time>
      </trkpt>
      <trkpt lat="42.64835667" lon="-2.75034">
        <ele>706.0</ele>
        <time>2021-10-22T09:49:20.000Z</time>
      </trkpt>
      <trkpt lat="42.64835667" lon="-2.75034">
        <ele>706.0</ele>
        <time>2021-10-22T09:49:21.000Z</time>
      </trkpt>
      <trkpt lat="42.64835667" lon="-2.75034">
        <ele>706.0</ele>
        <time>2021-10-22T09:49:22.000Z</time>
      </trkpt>
      <trkpt lat="42.64835667" lon="-2.75034">
        <ele>706.0</ele>
        <time>2021-10-22T09:49:23.000Z</time>
      </trkpt>
      <trkpt lat="42.64835667" lon="-2.75034">
        <ele>706.0</ele>
        <time>2021-10-22T09:49:24.000Z</time>
      </trkpt>
      <trkpt lat="42.648355" lon="-2.75034">
        <ele>706.0</ele>
        <time>2021-10-22T09:49:25.000Z</time>
      </trkpt>
      <trkpt lat="42.648355" lon="-2.75034">
        <ele>706.0</ele>
        <time>2021-10-22T09:49:26.000Z</time>
      </trkpt>
      <trkpt lat="42.648355" lon="-2.75034">
        <ele>706.0</ele>
        <time>2021-10-22T09:49:27.000Z</time>
      </trkpt>
      <trkpt lat="42.648355" lon="-2.75034">
        <ele>706.0</ele>
        <time>2021-10-22T09:49:28.000Z</time>
      </trkpt>
      <trkpt lat="42.648355" lon="-2.75033833">
        <ele>706.0</ele>
        <time>2021-10-22T09:49:29.000Z</time>
      </trkpt>
      <trkpt lat="42.64835667" lon="-2.75033833">
        <ele>706.0</ele>
        <time>2021-10-22T09:49:30.000Z</time>
      </trkpt>
      <trkpt lat="42.64835667" lon="-2.75033833">
        <ele>706.0</ele>
        <time>2021-10-22T09:49:31.000Z</time>
      </trkpt>
      <trkpt lat="42.64835667" lon="-2.75033833">
        <ele>706.0</ele>
        <time>2021-10-22T09:49:32.000Z</time>
      </trkpt>
      <trkpt lat="42.648355" lon="-2.75033833">
        <ele>706.0</ele>
        <time>2021-10-22T09:49:33.000Z</time>
      </trkpt>
      <trkpt lat="42.648355" lon="-2.75034">
        <ele>706.0</ele>
        <time>2021-10-22T09:49:34.000Z</time>
      </trkpt>
      <trkpt lat="42.64835333" lon="-2.75034">
        <ele>706.0</ele>
        <time>2021-10-22T09:49:35.000Z</time>
      </trkpt>
      <trkpt lat="42.64835333" lon="-2.75034">
        <ele>706.0</ele>
        <time>2021-10-22T09:49:36.000Z</time>
      </trkpt>
      <trkpt lat="42.648355" lon="-2.75034">
        <ele>706.0</ele>
        <time>2021-10-22T09:49:37.000Z</time>
      </trkpt>
      <trkpt lat="42.648355" lon="-2.75034">
        <ele>706.0</ele>
        <time>2021-10-22T09:49:38.000Z</time>
      </trkpt>
      <trkpt lat="42.648355" lon="-2.75033833">
        <ele>706.0</ele>
        <time>2021-10-22T09:49:39.000Z</time>
      </trkpt>
      <trkpt lat="42.648355" lon="-2.75033833">
        <ele>706.0</ele>
        <time>2021-10-22T09:49:40.000Z</time>
      </trkpt>
      <trkpt lat="42.648355" lon="-2.75033667">
        <ele>707.0</ele>
        <time>2021-10-22T09:49:41.000Z</time>
      </trkpt>
      <trkpt lat="42.648355" lon="-2.750335">
        <ele>707.0</ele>
        <time>2021-10-22T09:49:42.000Z</time>
      </trkpt>
      <trkpt lat="42.648355" lon="-2.750335">
        <ele>707.0</ele>
        <time>2021-10-22T09:49:43.000Z</time>
      </trkpt>
      <trkpt lat="42.648355" lon="-2.750335">
        <ele>707.0</ele>
        <time>2021-10-22T09:49:44.000Z</time>
      </trkpt>
      <trkpt lat="42.648355" lon="-2.75033333">
        <ele>707.0</ele>
        <time>2021-10-22T09:49:45.000Z</time>
      </trkpt>
      <trkpt lat="42.648355" lon="-2.75033333">
        <ele>707.0</ele>
        <time>2021-10-22T09:49:46.000Z</time>
      </trkpt>
      <trkpt lat="42.64835667" lon="-2.75033333">
        <ele>707.0</ele>
        <time>2021-10-22T09:49:47.000Z</time>
      </trkpt>
      <trkpt lat="42.64835667" lon="-2.75033333">
        <ele>707.0</ele>
        <time>2021-10-22T09:49:48.000Z</time>
      </trkpt>
      <trkpt lat="42.64835667" lon="-2.75033167">
        <ele>707.0</ele>
        <time>2021-10-22T09:49:49.000Z</time>
      </trkpt>
      <trkpt lat="42.64835667" lon="-2.75033167">
        <ele>707.0</ele>
        <time>2021-10-22T09:49:50.000Z</time>
      </trkpt>
      <trkpt lat="42.64835667" lon="-2.75033333">
        <ele>707.0</ele>
        <time>2021-10-22T09:49:51.000Z</time>
      </trkpt>
      <trkpt lat="42.64835667" lon="-2.750335">
        <ele>707.0</ele>
        <time>2021-10-22T09:49:52.000Z</time>
      </trkpt>
      <trkpt lat="42.64835833" lon="-2.750335">
        <ele>707.0</ele>
        <time>2021-10-22T09:49:53.000Z</time>
      </trkpt>
      <trkpt lat="42.64835833" lon="-2.750335">
        <ele>707.0</ele>
        <time>2021-10-22T09:49:54.000Z</time>
      </trkpt>
      <trkpt lat="42.64835667" lon="-2.75033333">
        <ele>707.0</ele>
        <time>2021-10-22T09:49:55.000Z</time>
      </trkpt>
      <trkpt lat="42.648355" lon="-2.75033167">
        <ele>707.0</ele>
        <time>2021-10-22T09:49:56.000Z</time>
      </trkpt>
      <trkpt lat="42.648355" lon="-2.75033333">
        <ele>707.0</ele>
        <time>2021-10-22T09:49:57.000Z</time>
      </trkpt>
      <trkpt lat="42.648355" lon="-2.75033333">
        <ele>707.0</ele>
        <time>2021-10-22T09:49:58.000Z</time>
      </trkpt>
      <trkpt lat="42.648355" lon="-2.75033333">
        <ele>707.0</ele>
        <time>2021-10-22T09:49:59.000Z</time>
      </trkpt>
      <trkpt lat="42.648355" lon="-2.75033333">
        <ele>707.0</ele>
        <time>2021-10-22T09:50:00.000Z</time>
      </trkpt>
      <trkpt lat="42.64835667" lon="-2.75033167">
        <ele>707.0</ele>
        <time>2021-10-22T09:50:01.000Z</time>
      </trkpt>
      <trkpt lat="42.64835667" lon="-2.75033167">
        <ele>707.0</ele>
        <time>2021-10-22T09:50:02.000Z</time>
      </trkpt>
      <trkpt lat="42.64835667" lon="-2.75033167">
        <ele>707.0</ele>
        <time>2021-10-22T09:50:03.000Z</time>
      </trkpt>
      <trkpt lat="42.64835667" lon="-2.75033167">
        <ele>707.0</ele>
        <time>2021-10-22T09:50:04.000Z</time>
      </trkpt>
      <trkpt lat="42.64835667" lon="-2.75033167">
        <ele>707.0</ele>
        <time>2021-10-22T09:50:05.000Z</time>
      </trkpt>
      <trkpt lat="42.64835667" lon="-2.75033167">
        <ele>707.0</ele>
        <time>2021-10-22T09:50:06.000Z</time>
      </trkpt>
      <trkpt lat="42.64835833" lon="-2.75033167">
        <ele>707.0</ele>
        <time>2021-10-22T09:50:07.000Z</time>
      </trkpt>
      <trkpt lat="42.64835833" lon="-2.75033167">
        <ele>707.0</ele>
        <time>2021-10-22T09:50:08.000Z</time>
      </trkpt>
      <trkpt lat="42.64835833" lon="-2.75033167">
        <ele>707.0</ele>
        <time>2021-10-22T09:50:09.000Z</time>
      </trkpt>
      <trkpt lat="42.64835833" lon="-2.75033167">
        <ele>707.0</ele>
        <time>2021-10-22T09:50:10.000Z</time>
      </trkpt>
      <trkpt lat="42.64835833" lon="-2.75033167">
        <ele>707.0</ele>
        <time>2021-10-22T09:50:11.000Z</time>
      </trkpt>
      <trkpt lat="42.64835833" lon="-2.75033167">
        <ele>707.0</ele>
        <time>2021-10-22T09:50:12.000Z</time>
      </trkpt>
      <trkpt lat="42.64835833" lon="-2.75033167">
        <ele>707.0</ele>
        <time>2021-10-22T09:50:13.000Z</time>
      </trkpt>
      <trkpt lat="42.64835833" lon="-2.75033167">
        <ele>707.0</ele>
        <time>2021-10-22T09:50:14.000Z</time>
      </trkpt>
      <trkpt lat="42.64835833" lon="-2.75033167">
        <ele>707.0</ele>
        <time>2021-10-22T09:50:15.000Z</time>
      </trkpt>
      <trkpt lat="42.64835833" lon="-2.75033167">
        <ele>707.0</ele>
        <time>2021-10-22T09:50:16.000Z</time>
      </trkpt>
      <trkpt lat="42.64836" lon="-2.75033167">
        <ele>707.0</ele>
        <time>2021-10-22T09:50:17.000Z</time>
      </trkpt>
      <trkpt lat="42.64836" lon="-2.75033167">
        <ele>707.0</ele>
        <time>2021-10-22T09:50:18.000Z</time>
      </trkpt>
      <trkpt lat="42.64835833" lon="-2.75033167">
        <ele>707.0</ele>
        <time>2021-10-22T09:50:19.000Z</time>
      </trkpt>
      <trkpt lat="42.64835833" lon="-2.75033">
        <ele>707.0</ele>
        <time>2021-10-22T09:50:20.000Z</time>
      </trkpt>
      <trkpt lat="42.64835833" lon="-2.75033">
        <ele>707.0</ele>
        <time>2021-10-22T09:50:21.000Z</time>
      </trkpt>
      <trkpt lat="42.64835833" lon="-2.75033">
        <ele>707.0</ele>
        <time>2021-10-22T09:50:22.000Z</time>
      </trkpt>
      <trkpt lat="42.64835833" lon="-2.75033167">
        <ele>707.0</ele>
        <time>2021-10-22T09:50:23.000Z</time>
      </trkpt>
      <trkpt lat="42.64836" lon="-2.75033">
        <ele>707.0</ele>
        <time>2021-10-22T09:50:24.000Z</time>
      </trkpt>
      <trkpt lat="42.64836" lon="-2.75033">
        <ele>707.0</ele>
        <time>2021-10-22T09:50:25.000Z</time>
      </trkpt>
      <trkpt lat="42.64836" lon="-2.75033">
        <ele>707.0</ele>
        <time>2021-10-22T09:50:26.000Z</time>
      </trkpt>
      <trkpt lat="42.64836" lon="-2.75033">
        <ele>707.0</ele>
        <time>2021-10-22T09:50:27.000Z</time>
      </trkpt>
      <trkpt lat="42.64836167" lon="-2.75033">
        <ele>707.0</ele>
        <time>2021-10-22T09:50:28.000Z</time>
      </trkpt>
      <trkpt lat="42.64836167" lon="-2.75033">
        <ele>707.0</ele>
        <time>2021-10-22T09:50:29.000Z</time>
      </trkpt>
      <trkpt lat="42.64836167" lon="-2.75033">
        <ele>707.0</ele>
        <time>2021-10-22T09:50:30.000Z</time>
      </trkpt>
      <trkpt lat="42.64836167" lon="-2.75033">
        <ele>707.0</ele>
        <time>2021-10-22T09:50:31.000Z</time>
      </trkpt>
      <trkpt lat="42.64836333" lon="-2.75033">
        <ele>707.0</ele>
        <time>2021-10-22T09:50:32.000Z</time>
      </trkpt>
      <trkpt lat="42.648365" lon="-2.75033">
        <ele>707.0</ele>
        <time>2021-10-22T09:50:33.000Z</time>
      </trkpt>
      <trkpt lat="42.648365" lon="-2.75033">
        <ele>707.0</ele>
        <time>2021-10-22T09:50:34.000Z</time>
      </trkpt>
      <trkpt lat="42.648365" lon="-2.75033">
        <ele>707.0</ele>
        <time>2021-10-22T09:50:35.000Z</time>
      </trkpt>
      <trkpt lat="42.648365" lon="-2.75033">
        <ele>707.0</ele>
        <time>2021-10-22T09:50:36.000Z</time>
      </trkpt>
      <trkpt lat="42.648365" lon="-2.75033">
        <ele>707.0</ele>
        <time>2021-10-22T09:50:37.000Z</time>
      </trkpt>
      <trkpt lat="42.64836667" lon="-2.75033">
        <ele>707.0</ele>
        <time>2021-10-22T09:50:38.000Z</time>
      </trkpt>
      <trkpt lat="42.64836667" lon="-2.75033">
        <ele>707.0</ele>
        <time>2021-10-22T09:50:39.000Z</time>
      </trkpt>
      <trkpt lat="42.64836667" lon="-2.75033">
        <ele>707.0</ele>
        <time>2021-10-22T09:50:40.000Z</time>
      </trkpt>
      <trkpt lat="42.64836667" lon="-2.75033">
        <ele>707.0</ele>
        <time>2021-10-22T09:50:41.000Z</time>
      </trkpt>
      <trkpt lat="42.64836667" lon="-2.75033">
        <ele>707.0</ele>
        <time>2021-10-22T09:50:42.000Z</time>
      </trkpt>
      <trkpt lat="42.64836667" lon="-2.75033">
        <ele>707.0</ele>
        <time>2021-10-22T09:50:43.000Z</time>
      </trkpt>
      <trkpt lat="42.64836667" lon="-2.75033167">
        <ele>707.0</ele>
        <time>2021-10-22T09:50:44.000Z</time>
      </trkpt>
      <trkpt lat="42.64836667" lon="-2.75033167">
        <ele>707.0</ele>
        <time>2021-10-22T09:50:45.000Z</time>
      </trkpt>
      <trkpt lat="42.64836667" lon="-2.75033167">
        <ele>707.0</ele>
        <time>2021-10-22T09:50:46.000Z</time>
      </trkpt>
      <trkpt lat="42.64836667" lon="-2.75033167">
        <ele>707.0</ele>
        <time>2021-10-22T09:50:47.000Z</time>
      </trkpt>
      <trkpt lat="42.64836667" lon="-2.75033167">
        <ele>707.0</ele>
        <time>2021-10-22T09:50:48.000Z</time>
      </trkpt>
      <trkpt lat="42.64836667" lon="-2.75033167">
        <ele>707.0</ele>
        <time>2021-10-22T09:50:49.000Z</time>
      </trkpt>
      <trkpt lat="42.64836667" lon="-2.75033167">
        <ele>707.0</ele>
        <time>2021-10-22T09:50:50.000Z</time>
      </trkpt>
      <trkpt lat="42.64836667" lon="-2.75033167">
        <ele>707.0</ele>
        <time>2021-10-22T09:50:51.000Z</time>
      </trkpt>
      <trkpt lat="42.64836667" lon="-2.75033167">
        <ele>707.0</ele>
        <time>2021-10-22T09:50:52.000Z</time>
      </trkpt>
      <trkpt lat="42.64836667" lon="-2.75033167">
        <ele>707.0</ele>
        <time>2021-10-22T09:50:53.000Z</time>
      </trkpt>
      <trkpt lat="42.64836667" lon="-2.75033167">
        <ele>707.0</ele>
        <time>2021-10-22T09:50:54.000Z</time>
      </trkpt>
      <trkpt lat="42.64836667" lon="-2.75033167">
        <ele>707.0</ele>
        <time>2021-10-22T09:50:55.000Z</time>
      </trkpt>
      <trkpt lat="42.64836667" lon="-2.75033167">
        <ele>707.0</ele>
        <time>2021-10-22T09:50:56.000Z</time>
      </trkpt>
      <trkpt lat="42.64836667" lon="-2.75033167">
        <ele>707.0</ele>
        <time>2021-10-22T09:50:57.000Z</time>
      </trkpt>
      <trkpt lat="42.64836667" lon="-2.75033167">
        <ele>707.0</ele>
        <time>2021-10-22T09:50:58.000Z</time>
      </trkpt>
      <trkpt lat="42.64836667" lon="-2.75033167">
        <ele>707.0</ele>
        <time>2021-10-22T09:50:59.000Z</time>
      </trkpt>
      <trkpt lat="42.64836667" lon="-2.75033167">
        <ele>707.0</ele>
        <time>2021-10-22T09:51:00.000Z</time>
      </trkpt>
      <trkpt lat="42.64836833" lon="-2.75033167">
        <ele>707.0</ele>
        <time>2021-10-22T09:51:01.000Z</time>
      </trkpt>
      <trkpt lat="42.64836833" lon="-2.75033167">
        <ele>707.0</ele>
        <time>2021-10-22T09:51:02.000Z</time>
      </trkpt>
      <trkpt lat="42.64836833" lon="-2.75033167">
        <ele>707.0</ele>
        <time>2021-10-22T09:51:03.000Z</time>
      </trkpt>
      <trkpt lat="42.64836833" lon="-2.75033167">
        <ele>707.0</ele>
        <time>2021-10-22T09:51:04.000Z</time>
      </trkpt>
      <trkpt lat="42.64836833" lon="-2.75033167">
        <ele>707.0</ele>
        <time>2021-10-22T09:51:05.000Z</time>
      </trkpt>
      <trkpt lat="42.64836833" lon="-2.75033167">
        <ele>707.0</ele>
        <time>2021-10-22T09:51:06.000Z</time>
      </trkpt>
      <trkpt lat="42.64836833" lon="-2.75033167">
        <ele>707.0</ele>
        <time>2021-10-22T09:51:07.000Z</time>
      </trkpt>
      <trkpt lat="42.64836833" lon="-2.75033167">
        <ele>707.0</ele>
        <time>2021-10-22T09:51:08.000Z</time>
      </trkpt>
      <trkpt lat="42.64836833" lon="-2.75033167">
        <ele>707.0</ele>
        <time>2021-10-22T09:51:09.000Z</time>
      </trkpt>
      <trkpt lat="42.64836833" lon="-2.75033167">
        <ele>707.0</ele>
        <time>2021-10-22T09:51:10.000Z</time>
      </trkpt>
      <trkpt lat="42.64836833" lon="-2.75033167">
        <ele>707.0</ele>
        <time>2021-10-22T09:51:11.000Z</time>
      </trkpt>
      <trkpt lat="42.64836833" lon="-2.75033167">
        <ele>707.0</ele>
        <time>2021-10-22T09:51:12.000Z</time>
      </trkpt>
      <trkpt lat="42.64836667" lon="-2.75033167">
        <ele>707.0</ele>
        <time>2021-10-22T09:51:13.000Z</time>
      </trkpt>
      <trkpt lat="42.64836667" lon="-2.75033167">
        <ele>707.0</ele>
        <time>2021-10-22T09:51:14.000Z</time>
      </trkpt>
      <trkpt lat="42.64836667" lon="-2.75033333">
        <ele>707.0</ele>
        <time>2021-10-22T09:51:15.000Z</time>
      </trkpt>
      <trkpt lat="42.64836667" lon="-2.75033333">
        <ele>707.0</ele>
        <time>2021-10-22T09:51:16.000Z</time>
      </trkpt>
      <trkpt lat="42.64836667" lon="-2.75033333">
        <ele>707.0</ele>
        <time>2021-10-22T09:51:17.000Z</time>
      </trkpt>
      <trkpt lat="42.64836667" lon="-2.75033333">
        <ele>707.0</ele>
        <time>2021-10-22T09:51:18.000Z</time>
      </trkpt>
      <trkpt lat="42.64837" lon="-2.75033333">
        <ele>707.0</ele>
        <time>2021-10-22T09:51:19.000Z</time>
      </trkpt>
      <trkpt lat="42.64837" lon="-2.75033667">
        <ele>707.0</ele>
        <time>2021-10-22T09:51:20.000Z</time>
      </trkpt>
      <trkpt lat="42.64836833" lon="-2.75033667">
        <ele>707.0</ele>
        <time>2021-10-22T09:51:21.000Z</time>
      </trkpt>
      <trkpt lat="42.64836833" lon="-2.75033667">
        <ele>707.0</ele>
        <time>2021-10-22T09:51:22.000Z</time>
      </trkpt>
      <trkpt lat="42.64836833" lon="-2.75034">
        <ele>707.0</ele>
        <time>2021-10-22T09:51:23.000Z</time>
      </trkpt>
      <trkpt lat="42.64836833" lon="-2.75034">
        <ele>707.0</ele>
        <time>2021-10-22T09:51:24.000Z</time>
      </trkpt>
      <trkpt lat="42.64836833" lon="-2.75033667">
        <ele>707.0</ele>
        <time>2021-10-22T09:51:25.000Z</time>
      </trkpt>
      <trkpt lat="42.64837167" lon="-2.75033833">
        <ele>707.0</ele>
        <time>2021-10-22T09:51:26.000Z</time>
      </trkpt>
      <trkpt lat="42.64837" lon="-2.75033667">
        <ele>707.0</ele>
        <time>2021-10-22T09:51:27.000Z</time>
      </trkpt>
      <trkpt lat="42.64837" lon="-2.75033833">
        <ele>707.0</ele>
        <time>2021-10-22T09:51:28.000Z</time>
      </trkpt>
      <trkpt lat="42.64836833" lon="-2.75034">
        <ele>707.0</ele>
        <time>2021-10-22T09:51:29.000Z</time>
      </trkpt>
      <trkpt lat="42.64836667" lon="-2.75034">
        <ele>707.0</ele>
        <time>2021-10-22T09:51:30.000Z</time>
      </trkpt>
      <trkpt lat="42.64836833" lon="-2.75033833">
        <ele>707.0</ele>
        <time>2021-10-22T09:51:31.000Z</time>
      </trkpt>
      <trkpt lat="42.64836833" lon="-2.750335">
        <ele>707.0</ele>
        <time>2021-10-22T09:51:32.000Z</time>
      </trkpt>
      <trkpt lat="42.64837" lon="-2.75033333">
        <ele>707.0</ele>
        <time>2021-10-22T09:51:33.000Z</time>
      </trkpt>
      <trkpt lat="42.64836833" lon="-2.75032833">
        <ele>707.0</ele>
        <time>2021-10-22T09:51:34.000Z</time>
      </trkpt>
      <trkpt lat="42.64836833" lon="-2.75032333">
        <ele>707.0</ele>
        <time>2021-10-22T09:51:35.000Z</time>
      </trkpt>
      <trkpt lat="42.648365" lon="-2.75031833">
        <ele>707.0</ele>
        <time>2021-10-22T09:51:36.000Z</time>
      </trkpt>
      <trkpt lat="42.64836333" lon="-2.75031333">
        <ele>707.0</ele>
        <time>2021-10-22T09:51:37.000Z</time>
      </trkpt>
      <trkpt lat="42.64836167" lon="-2.75031167">
        <ele>707.0</ele>
        <time>2021-10-22T09:51:38.000Z</time>
      </trkpt>
      <trkpt lat="42.64836333" lon="-2.75031333">
        <ele>707.0</ele>
        <time>2021-10-22T09:51:39.000Z</time>
      </trkpt>
      <trkpt lat="42.64836333" lon="-2.750315">
        <ele>707.0</ele>
        <time>2021-10-22T09:51:40.000Z</time>
      </trkpt>
      <trkpt lat="42.64836333" lon="-2.750315">
        <ele>707.0</ele>
        <time>2021-10-22T09:51:41.000Z</time>
      </trkpt>
      <trkpt lat="42.64836333" lon="-2.75031333">
        <ele>707.0</ele>
        <time>2021-10-22T09:51:42.000Z</time>
      </trkpt>
      <trkpt lat="42.64836167" lon="-2.750315">
        <ele>707.0</ele>
        <time>2021-10-22T09:51:43.000Z</time>
      </trkpt>
      <trkpt lat="42.64836333" lon="-2.75031333">
        <ele>707.0</ele>
        <time>2021-10-22T09:51:44.000Z</time>
      </trkpt>
      <trkpt lat="42.64836333" lon="-2.750315">
        <ele>707.0</ele>
        <time>2021-10-22T09:51:45.000Z</time>
      </trkpt>
      <trkpt lat="42.64836333" lon="-2.75031333">
        <ele>707.0</ele>
        <time>2021-10-22T09:51:46.000Z</time>
      </trkpt>
      <trkpt lat="42.64836167" lon="-2.75031333">
        <ele>707.0</ele>
        <time>2021-10-22T09:51:47.000Z</time>
      </trkpt>
      <trkpt lat="42.64836167" lon="-2.75031333">
        <ele>707.0</ele>
        <time>2021-10-22T09:51:48.000Z</time>
      </trkpt>
      <trkpt lat="42.64836167" lon="-2.75031333">
        <ele>707.0</ele>
        <time>2021-10-22T09:51:49.000Z</time>
      </trkpt>
      <trkpt lat="42.64836333" lon="-2.75031333">
        <ele>707.0</ele>
        <time>2021-10-22T09:51:50.000Z</time>
      </trkpt>
      <trkpt lat="42.648365" lon="-2.75031">
        <ele>707.0</ele>
        <time>2021-10-22T09:51:51.000Z</time>
      </trkpt>
      <trkpt lat="42.648365" lon="-2.75031167">
        <ele>707.0</ele>
        <time>2021-10-22T09:51:52.000Z</time>
      </trkpt>
      <trkpt lat="42.648365" lon="-2.75031167">
        <ele>707.0</ele>
        <time>2021-10-22T09:51:53.000Z</time>
      </trkpt>
      <trkpt lat="42.64836667" lon="-2.75031167">
        <ele>707.0</ele>
        <time>2021-10-22T09:51:54.000Z</time>
      </trkpt>
      <trkpt lat="42.64836333" lon="-2.75031333">
        <ele>707.0</ele>
        <time>2021-10-22T09:51:55.000Z</time>
      </trkpt>
      <trkpt lat="42.64836333" lon="-2.75031333">
        <ele>707.0</ele>
        <time>2021-10-22T09:51:56.000Z</time>
      </trkpt>
      <trkpt lat="42.648365" lon="-2.75031333">
        <ele>707.0</ele>
        <time>2021-10-22T09:51:57.000Z</time>
      </trkpt>
      <trkpt lat="42.64837" lon="-2.75031333">
        <ele>707.0</ele>
        <time>2021-10-22T09:51:58.000Z</time>
      </trkpt>
      <trkpt lat="42.64837167" lon="-2.75031333">
        <ele>707.0</ele>
        <time>2021-10-22T09:51:59.000Z</time>
      </trkpt>
      <trkpt lat="42.64837167" lon="-2.75031333">
        <ele>707.0</ele>
        <time>2021-10-22T09:52:00.000Z</time>
      </trkpt>
      <trkpt lat="42.64837167" lon="-2.750315">
        <ele>707.0</ele>
        <time>2021-10-22T09:52:01.000Z</time>
      </trkpt>
      <trkpt lat="42.64837333" lon="-2.750315">
        <ele>707.0</ele>
        <time>2021-10-22T09:52:02.000Z</time>
      </trkpt>
      <trkpt lat="42.64837333" lon="-2.750315">
        <ele>707.0</ele>
        <time>2021-10-22T09:52:03.000Z</time>
      </trkpt>
      <trkpt lat="42.648375" lon="-2.750315">
        <ele>707.0</ele>
        <time>2021-10-22T09:52:04.000Z</time>
      </trkpt>
      <trkpt lat="42.648375" lon="-2.750315">
        <ele>707.0</ele>
        <time>2021-10-22T09:52:05.000Z</time>
      </trkpt>
      <trkpt lat="42.64837667" lon="-2.750315">
        <ele>707.0</ele>
        <time>2021-10-22T09:52:06.000Z</time>
      </trkpt>
      <trkpt lat="42.64837667" lon="-2.750315">
        <ele>707.0</ele>
        <time>2021-10-22T09:52:07.000Z</time>
      </trkpt>
      <trkpt lat="42.64837667" lon="-2.75031333">
        <ele>707.0</ele>
        <time>2021-10-22T09:52:08.000Z</time>
      </trkpt>
      <trkpt lat="42.64837833" lon="-2.75031333">
        <ele>707.0</ele>
        <time>2021-10-22T09:52:09.000Z</time>
      </trkpt>
      <trkpt lat="42.64837833" lon="-2.75031333">
        <ele>707.0</ele>
        <time>2021-10-22T09:52:10.000Z</time>
      </trkpt>
      <trkpt lat="42.64838" lon="-2.75031333">
        <ele>707.0</ele>
        <time>2021-10-22T09:52:11.000Z</time>
      </trkpt>
      <trkpt lat="42.64838" lon="-2.75031333">
        <ele>707.0</ele>
        <time>2021-10-22T09:52:12.000Z</time>
      </trkpt>
      <trkpt lat="42.64838" lon="-2.75031333">
        <ele>707.0</ele>
        <time>2021-10-22T09:52:13.000Z</time>
      </trkpt>
      <trkpt lat="42.64838167" lon="-2.75031333">
        <ele>707.0</ele>
        <time>2021-10-22T09:52:14.000Z</time>
      </trkpt>
      <trkpt lat="42.64838167" lon="-2.75031333">
        <ele>707.0</ele>
        <time>2021-10-22T09:52:15.000Z</time>
      </trkpt>
      <trkpt lat="42.64838167" lon="-2.75031333">
        <ele>707.0</ele>
        <time>2021-10-22T09:52:16.000Z</time>
      </trkpt>
      <trkpt lat="42.64838167" lon="-2.75031333">
        <ele>707.0</ele>
        <time>2021-10-22T09:52:17.000Z</time>
      </trkpt>
      <trkpt lat="42.64838167" lon="-2.75031333">
        <ele>707.0</ele>
        <time>2021-10-22T09:52:18.000Z</time>
      </trkpt>
      <trkpt lat="42.64838167" lon="-2.75031333">
        <ele>707.0</ele>
        <time>2021-10-22T09:52:19.000Z</time>
      </trkpt>
      <trkpt lat="42.64838333" lon="-2.75031333">
        <ele>707.0</ele>
        <time>2021-10-22T09:52:20.000Z</time>
      </trkpt>
      <trkpt lat="42.64838333" lon="-2.750315">
        <ele>707.0</ele>
        <time>2021-10-22T09:52:21.000Z</time>
      </trkpt>
      <trkpt lat="42.64838167" lon="-2.75031333">
        <ele>707.0</ele>
        <time>2021-10-22T09:52:22.000Z</time>
      </trkpt>
      <trkpt lat="42.64838167" lon="-2.75031333">
        <ele>707.0</ele>
        <time>2021-10-22T09:52:23.000Z</time>
      </trkpt>
      <trkpt lat="42.64838167" lon="-2.75031333">
        <ele>707.0</ele>
        <time>2021-10-22T09:52:24.000Z</time>
      </trkpt>
      <trkpt lat="42.64838167" lon="-2.75031333">
        <ele>707.0</ele>
        <time>2021-10-22T09:52:25.000Z</time>
      </trkpt>
      <trkpt lat="42.64838167" lon="-2.750315">
        <ele>707.0</ele>
        <time>2021-10-22T09:52:26.000Z</time>
      </trkpt>
      <trkpt lat="42.64838333" lon="-2.750315">
        <ele>707.0</ele>
        <time>2021-10-22T09:52:27.000Z</time>
      </trkpt>
      <trkpt lat="42.64838333" lon="-2.75031667">
        <ele>707.0</ele>
        <time>2021-10-22T09:52:28.000Z</time>
      </trkpt>
      <trkpt lat="42.64838333" lon="-2.75031667">
        <ele>707.0</ele>
        <time>2021-10-22T09:52:29.000Z</time>
      </trkpt>
      <trkpt lat="42.64838333" lon="-2.75031667">
        <ele>707.0</ele>
        <time>2021-10-22T09:52:30.000Z</time>
      </trkpt>
      <trkpt lat="42.64838333" lon="-2.75031833">
        <ele>707.0</ele>
        <time>2021-10-22T09:52:31.000Z</time>
      </trkpt>
      <trkpt lat="42.64838333" lon="-2.75031833">
        <ele>707.0</ele>
        <time>2021-10-22T09:52:32.000Z</time>
      </trkpt>
      <trkpt lat="42.64838333" lon="-2.75031833">
        <ele>707.0</ele>
        <time>2021-10-22T09:52:33.000Z</time>
      </trkpt>
      <trkpt lat="42.648385" lon="-2.75031833">
        <ele>707.0</ele>
        <time>2021-10-22T09:52:34.000Z</time>
      </trkpt>
      <trkpt lat="42.64838333" lon="-2.75031667">
        <ele>707.0</ele>
        <time>2021-10-22T09:52:35.000Z</time>
      </trkpt>
      <trkpt lat="42.64838333" lon="-2.75031833">
        <ele>707.0</ele>
        <time>2021-10-22T09:52:36.000Z</time>
      </trkpt>
      <trkpt lat="42.64838333" lon="-2.75032">
        <ele>707.0</ele>
        <time>2021-10-22T09:52:37.000Z</time>
      </trkpt>
      <trkpt lat="42.64838333" lon="-2.75031833">
        <ele>707.0</ele>
        <time>2021-10-22T09:52:38.000Z</time>
      </trkpt>
      <trkpt lat="42.64838167" lon="-2.75031833">
        <ele>707.0</ele>
        <time>2021-10-22T09:52:39.000Z</time>
      </trkpt>
      <trkpt lat="42.64838167" lon="-2.75031833">
        <ele>707.0</ele>
        <time>2021-10-22T09:52:40.000Z</time>
      </trkpt>
      <trkpt lat="42.64838333" lon="-2.75031833">
        <ele>707.0</ele>
        <time>2021-10-22T09:52:41.000Z</time>
      </trkpt>
      <trkpt lat="42.64838167" lon="-2.75032167">
        <ele>707.0</ele>
        <time>2021-10-22T09:52:42.000Z</time>
      </trkpt>
      <trkpt lat="42.64838" lon="-2.75032167">
        <ele>707.0</ele>
        <time>2021-10-22T09:52:43.000Z</time>
      </trkpt>
      <trkpt lat="42.64838" lon="-2.75032167">
        <ele>707.0</ele>
        <time>2021-10-22T09:52:44.000Z</time>
      </trkpt>
      <trkpt lat="42.64838" lon="-2.75032167">
        <ele>707.0</ele>
        <time>2021-10-22T09:52:45.000Z</time>
      </trkpt>
      <trkpt lat="42.64838" lon="-2.75032">
        <ele>707.0</ele>
        <time>2021-10-22T09:52:46.000Z</time>
      </trkpt>
      <trkpt lat="42.64838" lon="-2.75032">
        <ele>706.0</ele>
        <time>2021-10-22T09:52:47.000Z</time>
      </trkpt>
      <trkpt lat="42.64838" lon="-2.75032">
        <ele>706.0</ele>
        <time>2021-10-22T09:52:48.000Z</time>
      </trkpt>
      <trkpt lat="42.64838" lon="-2.75032">
        <ele>706.0</ele>
        <time>2021-10-22T09:52:49.000Z</time>
      </trkpt>
      <trkpt lat="42.64838" lon="-2.75032">
        <ele>706.0</ele>
        <time>2021-10-22T09:52:50.000Z</time>
      </trkpt>
      <trkpt lat="42.64838" lon="-2.75032">
        <ele>706.0</ele>
        <time>2021-10-22T09:52:51.000Z</time>
      </trkpt>
      <trkpt lat="42.64838167" lon="-2.75031667">
        <ele>706.0</ele>
        <time>2021-10-22T09:52:52.000Z</time>
      </trkpt>
      <trkpt lat="42.64838167" lon="-2.75031667">
        <ele>706.0</ele>
        <time>2021-10-22T09:52:53.000Z</time>
      </trkpt>
      <trkpt lat="42.64838167" lon="-2.75031667">
        <ele>706.0</ele>
        <time>2021-10-22T09:52:54.000Z</time>
      </trkpt>
      <trkpt lat="42.64837833" lon="-2.75031667">
        <ele>706.0</ele>
        <time>2021-10-22T09:52:55.000Z</time>
      </trkpt>
      <trkpt lat="42.64838" lon="-2.75031833">
        <ele>706.0</ele>
        <time>2021-10-22T09:52:56.000Z</time>
      </trkpt>
      <trkpt lat="42.64838167" lon="-2.75031833">
        <ele>706.0</ele>
        <time>2021-10-22T09:52:57.000Z</time>
      </trkpt>
      <trkpt lat="42.64838167" lon="-2.75031667">
        <ele>706.0</ele>
        <time>2021-10-22T09:52:58.000Z</time>
      </trkpt>
      <trkpt lat="42.64838167" lon="-2.75031667">
        <ele>706.0</ele>
        <time>2021-10-22T09:52:59.000Z</time>
      </trkpt>
      <trkpt lat="42.64838167" lon="-2.75031667">
        <ele>706.0</ele>
        <time>2021-10-22T09:53:00.000Z</time>
      </trkpt>
      <trkpt lat="42.64838333" lon="-2.75031667">
        <ele>706.0</ele>
        <time>2021-10-22T09:53:01.000Z</time>
      </trkpt>
      <trkpt lat="42.64838333" lon="-2.75031667">
        <ele>706.0</ele>
        <time>2021-10-22T09:53:02.000Z</time>
      </trkpt>
      <trkpt lat="42.64838333" lon="-2.75031667">
        <ele>706.0</ele>
        <time>2021-10-22T09:53:03.000Z</time>
      </trkpt>
      <trkpt lat="42.64838333" lon="-2.75031667">
        <ele>706.0</ele>
        <time>2021-10-22T09:53:04.000Z</time>
      </trkpt>
      <trkpt lat="42.64838333" lon="-2.75031667">
        <ele>706.0</ele>
        <time>2021-10-22T09:53:05.000Z</time>
      </trkpt>
      <trkpt lat="42.64838333" lon="-2.75031667">
        <ele>706.0</ele>
        <time>2021-10-22T09:53:06.000Z</time>
      </trkpt>
      <trkpt lat="42.64838333" lon="-2.75031667">
        <ele>706.0</ele>
        <time>2021-10-22T09:53:07.000Z</time>
      </trkpt>
      <trkpt lat="42.64838333" lon="-2.75031667">
        <ele>706.0</ele>
        <time>2021-10-22T09:53:08.000Z</time>
      </trkpt>
      <trkpt lat="42.64838333" lon="-2.75031667">
        <ele>706.0</ele>
        <time>2021-10-22T09:53:09.000Z</time>
      </trkpt>
      <trkpt lat="42.648385" lon="-2.750315">
        <ele>706.0</ele>
        <time>2021-10-22T09:53:10.000Z</time>
      </trkpt>
      <trkpt lat="42.648385" lon="-2.750315">
        <ele>706.0</ele>
        <time>2021-10-22T09:53:11.000Z</time>
      </trkpt>
      <trkpt lat="42.648385" lon="-2.75031333">
        <ele>706.0</ele>
        <time>2021-10-22T09:53:12.000Z</time>
      </trkpt>
      <trkpt lat="42.648385" lon="-2.75031333">
        <ele>706.0</ele>
        <time>2021-10-22T09:53:13.000Z</time>
      </trkpt>
      <trkpt lat="42.648385" lon="-2.75031333">
        <ele>706.0</ele>
        <time>2021-10-22T09:53:14.000Z</time>
      </trkpt>
      <trkpt lat="42.648385" lon="-2.75031333">
        <ele>706.0</ele>
        <time>2021-10-22T09:53:15.000Z</time>
      </trkpt>
      <trkpt lat="42.64838333" lon="-2.750315">
        <ele>706.0</ele>
        <time>2021-10-22T09:53:16.000Z</time>
      </trkpt>
      <trkpt lat="42.64838167" lon="-2.75031333">
        <ele>706.0</ele>
        <time>2021-10-22T09:53:17.000Z</time>
      </trkpt>
      <trkpt lat="42.64838" lon="-2.750315">
        <ele>706.0</ele>
        <time>2021-10-22T09:53:18.000Z</time>
      </trkpt>
      <trkpt lat="42.64838" lon="-2.750315">
        <ele>706.0</ele>
        <time>2021-10-22T09:53:19.000Z</time>
      </trkpt>
      <trkpt lat="42.64838" lon="-2.750315">
        <ele>706.0</ele>
        <time>2021-10-22T09:53:20.000Z</time>
      </trkpt>
      <trkpt lat="42.64838167" lon="-2.75031333">
        <ele>706.0</ele>
        <time>2021-10-22T09:53:21.000Z</time>
      </trkpt>
      <trkpt lat="42.64838167" lon="-2.75031167">
        <ele>706.0</ele>
        <time>2021-10-22T09:53:22.000Z</time>
      </trkpt>
      <trkpt lat="42.64838167" lon="-2.75031167">
        <ele>706.0</ele>
        <time>2021-10-22T09:53:23.000Z</time>
      </trkpt>
      <trkpt lat="42.64838167" lon="-2.75031167">
        <ele>706.0</ele>
        <time>2021-10-22T09:53:24.000Z</time>
      </trkpt>
      <trkpt lat="42.64838167" lon="-2.75031167">
        <ele>706.0</ele>
        <time>2021-10-22T09:53:25.000Z</time>
      </trkpt>
      <trkpt lat="42.64838167" lon="-2.75031167">
        <ele>706.0</ele>
        <time>2021-10-22T09:53:26.000Z</time>
      </trkpt>
      <trkpt lat="42.64838167" lon="-2.75031167">
        <ele>706.0</ele>
        <time>2021-10-22T09:53:27.000Z</time>
      </trkpt>
      <trkpt lat="42.64838167" lon="-2.75031167">
        <ele>706.0</ele>
        <time>2021-10-22T09:53:28.000Z</time>
      </trkpt>
      <trkpt lat="42.64838333" lon="-2.75031">
        <ele>706.0</ele>
        <time>2021-10-22T09:53:29.000Z</time>
      </trkpt>
      <trkpt lat="42.64838333" lon="-2.75031">
        <ele>706.0</ele>
        <time>2021-10-22T09:53:30.000Z</time>
      </trkpt>
      <trkpt lat="42.64838" lon="-2.75031">
        <ele>706.0</ele>
        <time>2021-10-22T09:53:31.000Z</time>
      </trkpt>
      <trkpt lat="42.64838" lon="-2.75031">
        <ele>706.0</ele>
        <time>2021-10-22T09:53:32.000Z</time>
      </trkpt>
      <trkpt lat="42.64838" lon="-2.75031">
        <ele>706.0</ele>
        <time>2021-10-22T09:53:33.000Z</time>
      </trkpt>
      <trkpt lat="42.64838167" lon="-2.75031">
        <ele>706.0</ele>
        <time>2021-10-22T09:53:34.000Z</time>
      </trkpt>
      <trkpt lat="42.64838167" lon="-2.75031">
        <ele>706.0</ele>
        <time>2021-10-22T09:53:35.000Z</time>
      </trkpt>
      <trkpt lat="42.64838167" lon="-2.75031">
        <ele>706.0</ele>
        <time>2021-10-22T09:53:36.000Z</time>
      </trkpt>
      <trkpt lat="42.64838167" lon="-2.75031333">
        <ele>706.0</ele>
        <time>2021-10-22T09:53:37.000Z</time>
      </trkpt>
      <trkpt lat="42.64838167" lon="-2.750315">
        <ele>706.0</ele>
        <time>2021-10-22T09:53:38.000Z</time>
      </trkpt>
      <trkpt lat="42.64838167" lon="-2.75031333">
        <ele>706.0</ele>
        <time>2021-10-22T09:53:39.000Z</time>
      </trkpt>
      <trkpt lat="42.64838167" lon="-2.75031333">
        <ele>706.0</ele>
        <time>2021-10-22T09:53:40.000Z</time>
      </trkpt>
      <trkpt lat="42.64838167" lon="-2.75031333">
        <ele>706.0</ele>
        <time>2021-10-22T09:53:41.000Z</time>
      </trkpt>
      <trkpt lat="42.64838333" lon="-2.75031333">
        <ele>706.0</ele>
        <time>2021-10-22T09:53:42.000Z</time>
      </trkpt>
      <trkpt lat="42.64838333" lon="-2.75031333">
        <ele>706.0</ele>
        <time>2021-10-22T09:53:43.000Z</time>
      </trkpt>
      <trkpt lat="42.64838333" lon="-2.75031333">
        <ele>706.0</ele>
        <time>2021-10-22T09:53:44.000Z</time>
      </trkpt>
      <trkpt lat="42.64838333" lon="-2.75031167">
        <ele>706.0</ele>
        <time>2021-10-22T09:53:45.000Z</time>
      </trkpt>
      <trkpt lat="42.648385" lon="-2.75031167">
        <ele>706.0</ele>
        <time>2021-10-22T09:53:46.000Z</time>
      </trkpt>
      <trkpt lat="42.648385" lon="-2.75031167">
        <ele>706.0</ele>
        <time>2021-10-22T09:53:47.000Z</time>
      </trkpt>
      <trkpt lat="42.648385" lon="-2.75031167">
        <ele>706.0</ele>
        <time>2021-10-22T09:53:48.000Z</time>
      </trkpt>
      <trkpt lat="42.648385" lon="-2.75031167">
        <ele>706.0</ele>
        <time>2021-10-22T09:53:49.000Z</time>
      </trkpt>
      <trkpt lat="42.648385" lon="-2.75031167">
        <ele>706.0</ele>
        <time>2021-10-22T09:53:50.000Z</time>
      </trkpt>
      <trkpt lat="42.648385" lon="-2.75031167">
        <ele>706.0</ele>
        <time>2021-10-22T09:53:51.000Z</time>
      </trkpt>
      <trkpt lat="42.64838333" lon="-2.75031167">
        <ele>706.0</ele>
        <time>2021-10-22T09:53:52.000Z</time>
      </trkpt>
      <trkpt lat="42.64838333" lon="-2.75031167">
        <ele>706.0</ele>
        <time>2021-10-22T09:53:53.000Z</time>
      </trkpt>
      <trkpt lat="42.648385" lon="-2.75031167">
        <ele>706.0</ele>
        <time>2021-10-22T09:53:54.000Z</time>
      </trkpt>
      <trkpt lat="42.64838333" lon="-2.75031167">
        <ele>706.0</ele>
        <time>2021-10-22T09:53:55.000Z</time>
      </trkpt>
      <trkpt lat="42.64838333" lon="-2.75031167">
        <ele>706.0</ele>
        <time>2021-10-22T09:53:56.000Z</time>
      </trkpt>
      <trkpt lat="42.64838333" lon="-2.75031333">
        <ele>706.0</ele>
        <time>2021-10-22T09:53:57.000Z</time>
      </trkpt>
      <trkpt lat="42.648385" lon="-2.75031333">
        <ele>706.0</ele>
        <time>2021-10-22T09:53:58.000Z</time>
      </trkpt>
      <trkpt lat="42.648385" lon="-2.75031333">
        <ele>706.0</ele>
        <time>2021-10-22T09:53:59.000Z</time>
      </trkpt>
      <trkpt lat="42.648385" lon="-2.75031333">
        <ele>706.0</ele>
        <time>2021-10-22T09:54:00.000Z</time>
      </trkpt>
      <trkpt lat="42.648385" lon="-2.75031333">
        <ele>706.0</ele>
        <time>2021-10-22T09:54:01.000Z</time>
      </trkpt>
      <trkpt lat="42.648385" lon="-2.75031333">
        <ele>706.0</ele>
        <time>2021-10-22T09:54:02.000Z</time>
      </trkpt>
      <trkpt lat="42.648385" lon="-2.75031333">
        <ele>706.0</ele>
        <time>2021-10-22T09:54:03.000Z</time>
      </trkpt>
      <trkpt lat="42.648385" lon="-2.75031333">
        <ele>706.0</ele>
        <time>2021-10-22T09:54:04.000Z</time>
      </trkpt>
      <trkpt lat="42.648385" lon="-2.75031">
        <ele>706.0</ele>
        <time>2021-10-22T09:54:05.000Z</time>
      </trkpt>
      <trkpt lat="42.648385" lon="-2.75031">
        <ele>706.0</ele>
        <time>2021-10-22T09:54:06.000Z</time>
      </trkpt>
      <trkpt lat="42.648385" lon="-2.75031">
        <ele>706.0</ele>
        <time>2021-10-22T09:54:07.000Z</time>
      </trkpt>
      <trkpt lat="42.648385" lon="-2.75031">
        <ele>706.0</ele>
        <time>2021-10-22T09:54:08.000Z</time>
      </trkpt>
      <trkpt lat="42.648385" lon="-2.75031">
        <ele>706.0</ele>
        <time>2021-10-22T09:54:09.000Z</time>
      </trkpt>
      <trkpt lat="42.648385" lon="-2.75031">
        <ele>706.0</ele>
        <time>2021-10-22T09:54:10.000Z</time>
      </trkpt>
      <trkpt lat="42.648385" lon="-2.75031">
        <ele>706.0</ele>
        <time>2021-10-22T09:54:11.000Z</time>
      </trkpt>
      <trkpt lat="42.648385" lon="-2.75030833">
        <ele>706.0</ele>
        <time>2021-10-22T09:54:12.000Z</time>
      </trkpt>
      <trkpt lat="42.648385" lon="-2.75030833">
        <ele>706.0</ele>
        <time>2021-10-22T09:54:13.000Z</time>
      </trkpt>
      <trkpt lat="42.648385" lon="-2.75030833">
        <ele>706.0</ele>
        <time>2021-10-22T09:54:14.000Z</time>
      </trkpt>
      <trkpt lat="42.648385" lon="-2.75030833">
        <ele>706.0</ele>
        <time>2021-10-22T09:54:15.000Z</time>
      </trkpt>
      <trkpt lat="42.648385" lon="-2.75030667">
        <ele>706.0</ele>
        <time>2021-10-22T09:54:16.000Z</time>
      </trkpt>
      <trkpt lat="42.648385" lon="-2.75030667">
        <ele>706.0</ele>
        <time>2021-10-22T09:54:17.000Z</time>
      </trkpt>
      <trkpt lat="42.648385" lon="-2.75030833">
        <ele>706.0</ele>
        <time>2021-10-22T09:54:18.000Z</time>
      </trkpt>
      <trkpt lat="42.64838333" lon="-2.75030833">
        <ele>706.0</ele>
        <time>2021-10-22T09:54:19.000Z</time>
      </trkpt>
      <trkpt lat="42.64838333" lon="-2.75030833">
        <ele>706.0</ele>
        <time>2021-10-22T09:54:20.000Z</time>
      </trkpt>
      <trkpt lat="42.64838333" lon="-2.75030833">
        <ele>706.0</ele>
        <time>2021-10-22T09:54:21.000Z</time>
      </trkpt>
      <trkpt lat="42.64838333" lon="-2.75030833">
        <ele>706.0</ele>
        <time>2021-10-22T09:54:22.000Z</time>
      </trkpt>
      <trkpt lat="42.64838333" lon="-2.75030833">
        <ele>706.0</ele>
        <time>2021-10-22T09:54:23.000Z</time>
      </trkpt>
      <trkpt lat="42.648385" lon="-2.75030833">
        <ele>706.0</ele>
        <time>2021-10-22T09:54:24.000Z</time>
      </trkpt>
      <trkpt lat="42.648385" lon="-2.75030833">
        <ele>706.0</ele>
        <time>2021-10-22T09:54:25.000Z</time>
      </trkpt>
      <trkpt lat="42.648385" lon="-2.75030667">
        <ele>706.0</ele>
        <time>2021-10-22T09:54:26.000Z</time>
      </trkpt>
      <trkpt lat="42.64838333" lon="-2.75030333">
        <ele>706.0</ele>
        <time>2021-10-22T09:54:27.000Z</time>
      </trkpt>
      <trkpt lat="42.64838" lon="-2.75030167">
        <ele>706.0</ele>
        <time>2021-10-22T09:54:28.000Z</time>
      </trkpt>
      <trkpt lat="42.64837667" lon="-2.7503">
        <ele>706.0</ele>
        <time>2021-10-22T09:54:29.000Z</time>
      </trkpt>
      <trkpt lat="42.64837333" lon="-2.75029833">
        <ele>706.0</ele>
        <time>2021-10-22T09:54:30.000Z</time>
      </trkpt>
      <trkpt lat="42.648375" lon="-2.750295">
        <ele>706.0</ele>
        <time>2021-10-22T09:54:31.000Z</time>
      </trkpt>
      <trkpt lat="42.648375" lon="-2.75029167">
        <ele>706.0</ele>
        <time>2021-10-22T09:54:32.000Z</time>
      </trkpt>
      <trkpt lat="42.64837833" lon="-2.75029333">
        <ele>706.0</ele>
        <time>2021-10-22T09:54:33.000Z</time>
      </trkpt>
      <trkpt lat="42.64837833" lon="-2.75029667">
        <ele>706.0</ele>
        <time>2021-10-22T09:54:34.000Z</time>
      </trkpt>
      <trkpt lat="42.64837833" lon="-2.75029833">
        <ele>706.0</ele>
        <time>2021-10-22T09:54:35.000Z</time>
      </trkpt>
      <trkpt lat="42.64837833" lon="-2.75029833">
        <ele>706.0</ele>
        <time>2021-10-22T09:54:36.000Z</time>
      </trkpt>
      <trkpt lat="42.64837833" lon="-2.75029833">
        <ele>706.0</ele>
        <time>2021-10-22T09:54:37.000Z</time>
      </trkpt>
      <trkpt lat="42.64837833" lon="-2.75029833">
        <ele>706.0</ele>
        <time>2021-10-22T09:54:38.000Z</time>
      </trkpt>
      <trkpt lat="42.648375" lon="-2.75029833">
        <ele>706.0</ele>
        <time>2021-10-22T09:54:39.000Z</time>
      </trkpt>
      <trkpt lat="42.648375" lon="-2.75029833">
        <ele>706.0</ele>
        <time>2021-10-22T09:54:40.000Z</time>
      </trkpt>
      <trkpt lat="42.64837333" lon="-2.75029833">
        <ele>706.0</ele>
        <time>2021-10-22T09:54:41.000Z</time>
      </trkpt>
      <trkpt lat="42.64837333" lon="-2.75029833">
        <ele>706.0</ele>
        <time>2021-10-22T09:54:42.000Z</time>
      </trkpt>
      <trkpt lat="42.64837333" lon="-2.75029833">
        <ele>706.0</ele>
        <time>2021-10-22T09:54:43.000Z</time>
      </trkpt>
      <trkpt lat="42.64837333" lon="-2.75029833">
        <ele>706.0</ele>
        <time>2021-10-22T09:54:44.000Z</time>
      </trkpt>
      <trkpt lat="42.64837333" lon="-2.75029833">
        <ele>706.0</ele>
        <time>2021-10-22T09:54:45.000Z</time>
      </trkpt>
      <trkpt lat="42.64837333" lon="-2.75029833">
        <ele>706.0</ele>
        <time>2021-10-22T09:54:46.000Z</time>
      </trkpt>
      <trkpt lat="42.64837333" lon="-2.75029833">
        <ele>706.0</ele>
        <time>2021-10-22T09:54:47.000Z</time>
      </trkpt>
      <trkpt lat="42.64837333" lon="-2.75029833">
        <ele>706.0</ele>
        <time>2021-10-22T09:54:48.000Z</time>
      </trkpt>
      <trkpt lat="42.64837333" lon="-2.75029833">
        <ele>706.0</ele>
        <time>2021-10-22T09:54:49.000Z</time>
      </trkpt>
      <trkpt lat="42.64837333" lon="-2.75029833">
        <ele>706.0</ele>
        <time>2021-10-22T09:54:50.000Z</time>
      </trkpt>
      <trkpt lat="42.64837333" lon="-2.75029667">
        <ele>706.0</ele>
        <time>2021-10-22T09:54:51.000Z</time>
      </trkpt>
      <trkpt lat="42.64837333" lon="-2.75029667">
        <ele>706.0</ele>
        <time>2021-10-22T09:54:52.000Z</time>
      </trkpt>
      <trkpt lat="42.64837333" lon="-2.75029667">
        <ele>706.0</ele>
        <time>2021-10-22T09:54:53.000Z</time>
      </trkpt>
      <trkpt lat="42.64837333" lon="-2.75029667">
        <ele>706.0</ele>
        <time>2021-10-22T09:54:54.000Z</time>
      </trkpt>
      <trkpt lat="42.64837333" lon="-2.75029667">
        <ele>706.0</ele>
        <time>2021-10-22T09:54:55.000Z</time>
      </trkpt>
      <trkpt lat="42.64837333" lon="-2.75029667">
        <ele>706.0</ele>
        <time>2021-10-22T09:54:56.000Z</time>
      </trkpt>
      <trkpt lat="42.64837333" lon="-2.75029667">
        <ele>706.0</ele>
        <time>2021-10-22T09:54:57.000Z</time>
      </trkpt>
      <trkpt lat="42.64837333" lon="-2.75029833">
        <ele>706.0</ele>
        <time>2021-10-22T09:54:58.000Z</time>
      </trkpt>
      <trkpt lat="42.64837333" lon="-2.75029833">
        <ele>706.0</ele>
        <time>2021-10-22T09:54:59.000Z</time>
      </trkpt>
      <trkpt lat="42.64837333" lon="-2.75029833">
        <ele>706.0</ele>
        <time>2021-10-22T09:55:00.000Z</time>
      </trkpt>
      <trkpt lat="42.64837333" lon="-2.75029833">
        <ele>706.0</ele>
        <time>2021-10-22T09:55:01.000Z</time>
      </trkpt>
      <trkpt lat="42.64837333" lon="-2.75029833">
        <ele>706.0</ele>
        <time>2021-10-22T09:55:02.000Z</time>
      </trkpt>
      <trkpt lat="42.64837333" lon="-2.75029833">
        <ele>706.0</ele>
        <time>2021-10-22T09:55:03.000Z</time>
      </trkpt>
      <trkpt lat="42.64837333" lon="-2.75029833">
        <ele>706.0</ele>
        <time>2021-10-22T09:55:04.000Z</time>
      </trkpt>
      <trkpt lat="42.64837333" lon="-2.75029667">
        <ele>706.0</ele>
        <time>2021-10-22T09:55:05.000Z</time>
      </trkpt>
      <trkpt lat="42.64837333" lon="-2.75029667">
        <ele>706.0</ele>
        <time>2021-10-22T09:55:06.000Z</time>
      </trkpt>
      <trkpt lat="42.64837333" lon="-2.75029667">
        <ele>706.0</ele>
        <time>2021-10-22T09:55:07.000Z</time>
      </trkpt>
      <trkpt lat="42.64837333" lon="-2.75029667">
        <ele>706.0</ele>
        <time>2021-10-22T09:55:08.000Z</time>
      </trkpt>
      <trkpt lat="42.64837333" lon="-2.75029667">
        <ele>706.0</ele>
        <time>2021-10-22T09:55:09.000Z</time>
      </trkpt>
      <trkpt lat="42.64837167" lon="-2.75029667">
        <ele>706.0</ele>
        <time>2021-10-22T09:55:10.000Z</time>
      </trkpt>
      <trkpt lat="42.64837167" lon="-2.75029667">
        <ele>706.0</ele>
        <time>2021-10-22T09:55:11.000Z</time>
      </trkpt>
      <trkpt lat="42.64837167" lon="-2.75029667">
        <ele>706.0</ele>
        <time>2021-10-22T09:55:12.000Z</time>
      </trkpt>
      <trkpt lat="42.64837167" lon="-2.75029833">
        <ele>706.0</ele>
        <time>2021-10-22T09:55:13.000Z</time>
      </trkpt>
      <trkpt lat="42.64837" lon="-2.75029667">
        <ele>706.0</ele>
        <time>2021-10-22T09:55:14.000Z</time>
      </trkpt>
      <trkpt lat="42.64837" lon="-2.75029667">
        <ele>706.0</ele>
        <time>2021-10-22T09:55:15.000Z</time>
      </trkpt>
      <trkpt lat="42.64837" lon="-2.75029667">
        <ele>706.0</ele>
        <time>2021-10-22T09:55:16.000Z</time>
      </trkpt>
      <trkpt lat="42.64837" lon="-2.75029667">
        <ele>706.0</ele>
        <time>2021-10-22T09:55:17.000Z</time>
      </trkpt>
      <trkpt lat="42.64837" lon="-2.75029667">
        <ele>706.0</ele>
        <time>2021-10-22T09:55:18.000Z</time>
      </trkpt>
      <trkpt lat="42.64837" lon="-2.75029667">
        <ele>706.0</ele>
        <time>2021-10-22T09:55:19.000Z</time>
      </trkpt>
      <trkpt lat="42.64837" lon="-2.75029667">
        <ele>706.0</ele>
        <time>2021-10-22T09:55:20.000Z</time>
      </trkpt>
      <trkpt lat="42.64837" lon="-2.75029667">
        <ele>706.0</ele>
        <time>2021-10-22T09:55:21.000Z</time>
      </trkpt>
      <trkpt lat="42.64837" lon="-2.75029667">
        <ele>706.0</ele>
        <time>2021-10-22T09:55:22.000Z</time>
      </trkpt>
      <trkpt lat="42.64837" lon="-2.75029667">
        <ele>706.0</ele>
        <time>2021-10-22T09:55:23.000Z</time>
      </trkpt>
      <trkpt lat="42.64837" lon="-2.75029667">
        <ele>706.0</ele>
        <time>2021-10-22T09:55:24.000Z</time>
      </trkpt>
      <trkpt lat="42.64836833" lon="-2.750295">
        <ele>706.0</ele>
        <time>2021-10-22T09:55:25.000Z</time>
      </trkpt>
      <trkpt lat="42.64836833" lon="-2.750295">
        <ele>706.0</ele>
        <time>2021-10-22T09:55:26.000Z</time>
      </trkpt>
      <trkpt lat="42.64836833" lon="-2.750295">
        <ele>706.0</ele>
        <time>2021-10-22T09:55:27.000Z</time>
      </trkpt>
      <trkpt lat="42.64836833" lon="-2.750295">
        <ele>706.0</ele>
        <time>2021-10-22T09:55:28.000Z</time>
      </trkpt>
      <trkpt lat="42.64836833" lon="-2.750295">
        <ele>706.0</ele>
        <time>2021-10-22T09:55:29.000Z</time>
      </trkpt>
      <trkpt lat="42.64836833" lon="-2.750295">
        <ele>706.0</ele>
        <time>2021-10-22T09:55:30.000Z</time>
      </trkpt>
      <trkpt lat="42.64836833" lon="-2.750295">
        <ele>706.0</ele>
        <time>2021-10-22T09:55:31.000Z</time>
      </trkpt>
      <trkpt lat="42.64836833" lon="-2.750295">
        <ele>706.0</ele>
        <time>2021-10-22T09:55:32.000Z</time>
      </trkpt>
      <trkpt lat="42.64836667" lon="-2.750295">
        <ele>706.0</ele>
        <time>2021-10-22T09:55:33.000Z</time>
      </trkpt>
      <trkpt lat="42.64836667" lon="-2.750295">
        <ele>706.0</ele>
        <time>2021-10-22T09:55:34.000Z</time>
      </trkpt>
      <trkpt lat="42.64836667" lon="-2.750295">
        <ele>706.0</ele>
        <time>2021-10-22T09:55:35.000Z</time>
      </trkpt>
      <trkpt lat="42.64836667" lon="-2.750295">
        <ele>706.0</ele>
        <time>2021-10-22T09:55:36.000Z</time>
      </trkpt>
      <trkpt lat="42.64836667" lon="-2.750295">
        <ele>706.0</ele>
        <time>2021-10-22T09:55:37.000Z</time>
      </trkpt>
      <trkpt lat="42.64836667" lon="-2.750295">
        <ele>706.0</ele>
        <time>2021-10-22T09:55:38.000Z</time>
      </trkpt>
      <trkpt lat="42.64836667" lon="-2.750295">
        <ele>706.0</ele>
        <time>2021-10-22T09:55:39.000Z</time>
      </trkpt>
      <trkpt lat="42.64836667" lon="-2.750295">
        <ele>706.0</ele>
        <time>2021-10-22T09:55:40.000Z</time>
      </trkpt>
      <trkpt lat="42.64836667" lon="-2.750295">
        <ele>706.0</ele>
        <time>2021-10-22T09:55:41.000Z</time>
      </trkpt>
      <trkpt lat="42.64836667" lon="-2.750295">
        <ele>706.0</ele>
        <time>2021-10-22T09:55:42.000Z</time>
      </trkpt>
      <trkpt lat="42.64836667" lon="-2.750295">
        <ele>706.0</ele>
        <time>2021-10-22T09:55:43.000Z</time>
      </trkpt>
      <trkpt lat="42.64836667" lon="-2.750295">
        <ele>706.0</ele>
        <time>2021-10-22T09:55:44.000Z</time>
      </trkpt>
      <trkpt lat="42.64836667" lon="-2.750295">
        <ele>706.0</ele>
        <time>2021-10-22T09:55:45.000Z</time>
      </trkpt>
      <trkpt lat="42.64836667" lon="-2.750295">
        <ele>706.0</ele>
        <time>2021-10-22T09:55:46.000Z</time>
      </trkpt>
      <trkpt lat="42.64836667" lon="-2.750295">
        <ele>706.0</ele>
        <time>2021-10-22T09:55:47.000Z</time>
      </trkpt>
      <trkpt lat="42.64836667" lon="-2.750295">
        <ele>706.0</ele>
        <time>2021-10-22T09:55:48.000Z</time>
      </trkpt>
      <trkpt lat="42.64836667" lon="-2.750295">
        <ele>706.0</ele>
        <time>2021-10-22T09:55:49.000Z</time>
      </trkpt>
      <trkpt lat="42.64836667" lon="-2.750295">
        <ele>706.0</ele>
        <time>2021-10-22T09:55:50.000Z</time>
      </trkpt>
      <trkpt lat="42.64836667" lon="-2.750295">
        <ele>706.0</ele>
        <time>2021-10-22T09:55:51.000Z</time>
      </trkpt>
      <trkpt lat="42.64836667" lon="-2.750295">
        <ele>706.0</ele>
        <time>2021-10-22T09:55:52.000Z</time>
      </trkpt>
      <trkpt lat="42.64836667" lon="-2.750295">
        <ele>706.0</ele>
        <time>2021-10-22T09:55:53.000Z</time>
      </trkpt>
      <trkpt lat="42.64836667" lon="-2.750295">
        <ele>706.0</ele>
        <time>2021-10-22T09:55:54.000Z</time>
      </trkpt>
      <trkpt lat="42.64836667" lon="-2.750295">
        <ele>706.0</ele>
        <time>2021-10-22T09:55:55.000Z</time>
      </trkpt>
      <trkpt lat="42.648365" lon="-2.750295">
        <ele>706.0</ele>
        <time>2021-10-22T09:55:56.000Z</time>
      </trkpt>
      <trkpt lat="42.648365" lon="-2.750295">
        <ele>706.0</ele>
        <time>2021-10-22T09:55:57.000Z</time>
      </trkpt>
      <trkpt lat="42.648365" lon="-2.750295">
        <ele>706.0</ele>
        <time>2021-10-22T09:55:58.000Z</time>
      </trkpt>
      <trkpt lat="42.648365" lon="-2.750295">
        <ele>706.0</ele>
        <time>2021-10-22T09:55:59.000Z</time>
      </trkpt>
      <trkpt lat="42.648365" lon="-2.75029667">
        <ele>706.0</ele>
        <time>2021-10-22T09:56:00.000Z</time>
      </trkpt>
      <trkpt lat="42.64836333" lon="-2.750295">
        <ele>706.0</ele>
        <time>2021-10-22T09:56:01.000Z</time>
      </trkpt>
      <trkpt lat="42.64836333" lon="-2.750295">
        <ele>706.0</ele>
        <time>2021-10-22T09:56:02.000Z</time>
      </trkpt>
      <trkpt lat="42.64836333" lon="-2.750295">
        <ele>706.0</ele>
        <time>2021-10-22T09:56:03.000Z</time>
      </trkpt>
      <trkpt lat="42.64836333" lon="-2.750295">
        <ele>706.0</ele>
        <time>2021-10-22T09:56:04.000Z</time>
      </trkpt>
      <trkpt lat="42.64836333" lon="-2.750295">
        <ele>706.0</ele>
        <time>2021-10-22T09:56:05.000Z</time>
      </trkpt>
      <trkpt lat="42.64836167" lon="-2.75029333">
        <ele>706.0</ele>
        <time>2021-10-22T09:56:06.000Z</time>
      </trkpt>
      <trkpt lat="42.64836167" lon="-2.750295">
        <ele>706.0</ele>
        <time>2021-10-22T09:56:07.000Z</time>
      </trkpt>
      <trkpt lat="42.64836167" lon="-2.75029667">
        <ele>706.0</ele>
        <time>2021-10-22T09:56:08.000Z</time>
      </trkpt>
      <trkpt lat="42.64836" lon="-2.75029667">
        <ele>706.0</ele>
        <time>2021-10-22T09:56:09.000Z</time>
      </trkpt>
      <trkpt lat="42.64836167" lon="-2.75029667">
        <ele>706.0</ele>
        <time>2021-10-22T09:56:10.000Z</time>
      </trkpt>
      <trkpt lat="42.64836167" lon="-2.75029667">
        <ele>706.0</ele>
        <time>2021-10-22T09:56:11.000Z</time>
      </trkpt>
      <trkpt lat="42.64836167" lon="-2.75029833">
        <ele>706.0</ele>
        <time>2021-10-22T09:56:12.000Z</time>
      </trkpt>
      <trkpt lat="42.64836167" lon="-2.75029833">
        <ele>706.0</ele>
        <time>2021-10-22T09:56:13.000Z</time>
      </trkpt>
      <trkpt lat="42.64836167" lon="-2.75029833">
        <ele>706.0</ele>
        <time>2021-10-22T09:56:14.000Z</time>
      </trkpt>
      <trkpt lat="42.64836167" lon="-2.75029833">
        <ele>706.0</ele>
        <time>2021-10-22T09:56:15.000Z</time>
      </trkpt>
      <trkpt lat="42.64836167" lon="-2.75029833">
        <ele>706.0</ele>
        <time>2021-10-22T09:56:16.000Z</time>
      </trkpt>
      <trkpt lat="42.64836167" lon="-2.7503">
        <ele>706.0</ele>
        <time>2021-10-22T09:56:17.000Z</time>
      </trkpt>
      <trkpt lat="42.64836167" lon="-2.7503">
        <ele>706.0</ele>
        <time>2021-10-22T09:56:18.000Z</time>
      </trkpt>
      <trkpt lat="42.64836167" lon="-2.7503">
        <ele>706.0</ele>
        <time>2021-10-22T09:56:19.000Z</time>
      </trkpt>
      <trkpt lat="42.64836167" lon="-2.7503">
        <ele>706.0</ele>
        <time>2021-10-22T09:56:20.000Z</time>
      </trkpt>
      <trkpt lat="42.64836167" lon="-2.75030167">
        <ele>706.0</ele>
        <time>2021-10-22T09:56:21.000Z</time>
      </trkpt>
      <trkpt lat="42.64836167" lon="-2.75030167">
        <ele>706.0</ele>
        <time>2021-10-22T09:56:22.000Z</time>
      </trkpt>
      <trkpt lat="42.64836167" lon="-2.7503">
        <ele>706.0</ele>
        <time>2021-10-22T09:56:23.000Z</time>
      </trkpt>
      <trkpt lat="42.64836" lon="-2.75029833">
        <ele>706.0</ele>
        <time>2021-10-22T09:56:24.000Z</time>
      </trkpt>
      <trkpt lat="42.64835833" lon="-2.75029833">
        <ele>706.0</ele>
        <time>2021-10-22T09:56:25.000Z</time>
      </trkpt>
      <trkpt lat="42.64835667" lon="-2.75029833">
        <ele>706.0</ele>
        <time>2021-10-22T09:56:26.000Z</time>
      </trkpt>
      <trkpt lat="42.64835667" lon="-2.75029833">
        <ele>706.0</ele>
        <time>2021-10-22T09:56:27.000Z</time>
      </trkpt>
      <trkpt lat="42.64835667" lon="-2.75029833">
        <ele>706.0</ele>
        <time>2021-10-22T09:56:28.000Z</time>
      </trkpt>
      <trkpt lat="42.64835667" lon="-2.75029833">
        <ele>706.0</ele>
        <time>2021-10-22T09:56:29.000Z</time>
      </trkpt>
      <trkpt lat="42.64835667" lon="-2.75029833">
        <ele>706.0</ele>
        <time>2021-10-22T09:56:30.000Z</time>
      </trkpt>
      <trkpt lat="42.64836" lon="-2.75029667">
        <ele>706.0</ele>
        <time>2021-10-22T09:56:31.000Z</time>
      </trkpt>
      <trkpt lat="42.64836167" lon="-2.7503">
        <ele>706.0</ele>
        <time>2021-10-22T09:56:32.000Z</time>
      </trkpt>
      <trkpt lat="42.64836333" lon="-2.75030333">
        <ele>706.0</ele>
        <time>2021-10-22T09:56:33.000Z</time>
      </trkpt>
      <trkpt lat="42.64836333" lon="-2.75030333">
        <ele>706.0</ele>
        <time>2021-10-22T09:56:34.000Z</time>
      </trkpt>
      <trkpt lat="42.64836167" lon="-2.75030333">
        <ele>706.0</ele>
        <time>2021-10-22T09:56:35.000Z</time>
      </trkpt>
      <trkpt lat="42.64835833" lon="-2.75030167">
        <ele>706.0</ele>
        <time>2021-10-22T09:56:36.000Z</time>
      </trkpt>
      <trkpt lat="42.64835667" lon="-2.7503">
        <ele>706.0</ele>
        <time>2021-10-22T09:56:37.000Z</time>
      </trkpt>
      <trkpt lat="42.64835667" lon="-2.75029833">
        <ele>706.0</ele>
        <time>2021-10-22T09:56:38.000Z</time>
      </trkpt>
      <trkpt lat="42.64835667" lon="-2.75030167">
        <ele>706.0</ele>
        <time>2021-10-22T09:56:39.000Z</time>
      </trkpt>
      <trkpt lat="42.64836" lon="-2.7503">
        <ele>706.0</ele>
        <time>2021-10-22T09:56:40.000Z</time>
      </trkpt>
      <trkpt lat="42.64836" lon="-2.75029667">
        <ele>706.0</ele>
        <time>2021-10-22T09:56:41.000Z</time>
      </trkpt>
      <trkpt lat="42.64836167" lon="-2.75029667">
        <ele>706.0</ele>
        <time>2021-10-22T09:56:42.000Z</time>
      </trkpt>
      <trkpt lat="42.64836333" lon="-2.75029833">
        <ele>706.0</ele>
        <time>2021-10-22T09:56:43.000Z</time>
      </trkpt>
      <trkpt lat="42.64836333" lon="-2.75029833">
        <ele>706.0</ele>
        <time>2021-10-22T09:56:44.000Z</time>
      </trkpt>
      <trkpt lat="42.648365" lon="-2.75029833">
        <ele>706.0</ele>
        <time>2021-10-22T09:56:45.000Z</time>
      </trkpt>
      <trkpt lat="42.648365" lon="-2.7503">
        <ele>706.0</ele>
        <time>2021-10-22T09:56:46.000Z</time>
      </trkpt>
      <trkpt lat="42.64836667" lon="-2.7503">
        <ele>706.0</ele>
        <time>2021-10-22T09:56:47.000Z</time>
      </trkpt>
      <trkpt lat="42.64836667" lon="-2.75029833">
        <ele>706.0</ele>
        <time>2021-10-22T09:56:48.000Z</time>
      </trkpt>
      <trkpt lat="42.64836667" lon="-2.7503">
        <ele>706.0</ele>
        <time>2021-10-22T09:56:49.000Z</time>
      </trkpt>
      <trkpt lat="42.64836833" lon="-2.7503">
        <ele>706.0</ele>
        <time>2021-10-22T09:56:50.000Z</time>
      </trkpt>
      <trkpt lat="42.64836833" lon="-2.7503">
        <ele>706.0</ele>
        <time>2021-10-22T09:56:51.000Z</time>
      </trkpt>
      <trkpt lat="42.64836833" lon="-2.7503">
        <ele>706.0</ele>
        <time>2021-10-22T09:56:52.000Z</time>
      </trkpt>
      <trkpt lat="42.64836833" lon="-2.75030167">
        <ele>706.0</ele>
        <time>2021-10-22T09:56:53.000Z</time>
      </trkpt>
      <trkpt lat="42.64837" lon="-2.75030167">
        <ele>706.0</ele>
        <time>2021-10-22T09:56:54.000Z</time>
      </trkpt>
      <trkpt lat="42.64837" lon="-2.75030167">
        <ele>706.0</ele>
        <time>2021-10-22T09:56:55.000Z</time>
      </trkpt>
      <trkpt lat="42.64837167" lon="-2.75030167">
        <ele>706.0</ele>
        <time>2021-10-22T09:56:56.000Z</time>
      </trkpt>
      <trkpt lat="42.64837167" lon="-2.75030167">
        <ele>706.0</ele>
        <time>2021-10-22T09:56:57.000Z</time>
      </trkpt>
      <trkpt lat="42.64837167" lon="-2.75030167">
        <ele>706.0</ele>
        <time>2021-10-22T09:56:58.000Z</time>
      </trkpt>
      <trkpt lat="42.64837167" lon="-2.75030167">
        <ele>706.0</ele>
        <time>2021-10-22T09:56:59.000Z</time>
      </trkpt>
      <trkpt lat="42.64837167" lon="-2.75030167">
        <ele>706.0</ele>
        <time>2021-10-22T09:57:00.000Z</time>
      </trkpt>
      <trkpt lat="42.64837333" lon="-2.75030167">
        <ele>706.0</ele>
        <time>2021-10-22T09:57:01.000Z</time>
      </trkpt>
      <trkpt lat="42.64837333" lon="-2.75030167">
        <ele>706.0</ele>
        <time>2021-10-22T09:57:02.000Z</time>
      </trkpt>
      <trkpt lat="42.64837333" lon="-2.75030167">
        <ele>706.0</ele>
        <time>2021-10-22T09:57:03.000Z</time>
      </trkpt>
      <trkpt lat="42.64837333" lon="-2.75030333">
        <ele>706.0</ele>
        <time>2021-10-22T09:57:04.000Z</time>
      </trkpt>
      <trkpt lat="42.64837333" lon="-2.75030167">
        <ele>706.0</ele>
        <time>2021-10-22T09:57:05.000Z</time>
      </trkpt>
      <trkpt lat="42.64837333" lon="-2.75030167">
        <ele>706.0</ele>
        <time>2021-10-22T09:57:06.000Z</time>
      </trkpt>
      <trkpt lat="42.64837333" lon="-2.75030333">
        <ele>706.0</ele>
        <time>2021-10-22T09:57:07.000Z</time>
      </trkpt>
      <trkpt lat="42.64837333" lon="-2.75030333">
        <ele>706.0</ele>
        <time>2021-10-22T09:57:08.000Z</time>
      </trkpt>
      <trkpt lat="42.64837333" lon="-2.75030333">
        <ele>706.0</ele>
        <time>2021-10-22T09:57:09.000Z</time>
      </trkpt>
      <trkpt lat="42.648375" lon="-2.75030333">
        <ele>706.0</ele>
        <time>2021-10-22T09:57:10.000Z</time>
      </trkpt>
      <trkpt lat="42.648375" lon="-2.75030333">
        <ele>706.0</ele>
        <time>2021-10-22T09:57:11.000Z</time>
      </trkpt>
      <trkpt lat="42.648375" lon="-2.75030333">
        <ele>706.0</ele>
        <time>2021-10-22T09:57:12.000Z</time>
      </trkpt>
      <trkpt lat="42.648375" lon="-2.75030333">
        <ele>706.0</ele>
        <time>2021-10-22T09:57:13.000Z</time>
      </trkpt>
      <trkpt lat="42.648375" lon="-2.75030333">
        <ele>706.0</ele>
        <time>2021-10-22T09:57:14.000Z</time>
      </trkpt>
      <trkpt lat="42.648375" lon="-2.75030333">
        <ele>706.0</ele>
        <time>2021-10-22T09:57:15.000Z</time>
      </trkpt>
      <trkpt lat="42.648375" lon="-2.75030333">
        <ele>706.0</ele>
        <time>2021-10-22T09:57:16.000Z</time>
      </trkpt>
      <trkpt lat="42.64837667" lon="-2.75030333">
        <ele>706.0</ele>
        <time>2021-10-22T09:57:17.000Z</time>
      </trkpt>
      <trkpt lat="42.64837667" lon="-2.75030333">
        <ele>706.0</ele>
        <time>2021-10-22T09:57:18.000Z</time>
      </trkpt>
      <trkpt lat="42.64837667" lon="-2.75030333">
        <ele>706.0</ele>
        <time>2021-10-22T09:57:19.000Z</time>
      </trkpt>
      <trkpt lat="42.64837667" lon="-2.75030333">
        <ele>706.0</ele>
        <time>2021-10-22T09:57:20.000Z</time>
      </trkpt>
      <trkpt lat="42.64837667" lon="-2.75030333">
        <ele>706.0</ele>
        <time>2021-10-22T09:57:21.000Z</time>
      </trkpt>
      <trkpt lat="42.64837667" lon="-2.75030333">
        <ele>706.0</ele>
        <time>2021-10-22T09:57:22.000Z</time>
      </trkpt>
      <trkpt lat="42.64837667" lon="-2.750305">
        <ele>706.0</ele>
        <time>2021-10-22T09:57:23.000Z</time>
      </trkpt>
      <trkpt lat="42.64837667" lon="-2.750305">
        <ele>706.0</ele>
        <time>2021-10-22T09:57:24.000Z</time>
      </trkpt>
      <trkpt lat="42.64837667" lon="-2.750305">
        <ele>706.0</ele>
        <time>2021-10-22T09:57:25.000Z</time>
      </trkpt>
      <trkpt lat="42.64837667" lon="-2.750305">
        <ele>706.0</ele>
        <time>2021-10-22T09:57:26.000Z</time>
      </trkpt>
      <trkpt lat="42.64837667" lon="-2.750305">
        <ele>706.0</ele>
        <time>2021-10-22T09:57:27.000Z</time>
      </trkpt>
      <trkpt lat="42.64837667" lon="-2.750305">
        <ele>706.0</ele>
        <time>2021-10-22T09:57:28.000Z</time>
      </trkpt>
      <trkpt lat="42.64837667" lon="-2.750305">
        <ele>706.0</ele>
        <time>2021-10-22T09:57:29.000Z</time>
      </trkpt>
      <trkpt lat="42.64837667" lon="-2.750305">
        <ele>706.0</ele>
        <time>2021-10-22T09:57:30.000Z</time>
      </trkpt>
      <trkpt lat="42.64837667" lon="-2.750305">
        <ele>706.0</ele>
        <time>2021-10-22T09:57:31.000Z</time>
      </trkpt>
      <trkpt lat="42.64837667" lon="-2.750305">
        <ele>706.0</ele>
        <time>2021-10-22T09:57:32.000Z</time>
      </trkpt>
      <trkpt lat="42.64837667" lon="-2.750305">
        <ele>706.0</ele>
        <time>2021-10-22T09:57:33.000Z</time>
      </trkpt>
      <trkpt lat="42.64837667" lon="-2.750305">
        <ele>706.0</ele>
        <time>2021-10-22T09:57:34.000Z</time>
      </trkpt>
      <trkpt lat="42.64837667" lon="-2.750305">
        <ele>706.0</ele>
        <time>2021-10-22T09:57:35.000Z</time>
      </trkpt>
      <trkpt lat="42.64837667" lon="-2.750305">
        <ele>706.0</ele>
        <time>2021-10-22T09:57:36.000Z</time>
      </trkpt>
      <trkpt lat="42.64837667" lon="-2.750305">
        <ele>706.0</ele>
        <time>2021-10-22T09:57:37.000Z</time>
      </trkpt>
      <trkpt lat="42.64837667" lon="-2.750305">
        <ele>707.0</ele>
        <time>2021-10-22T09:57:38.000Z</time>
      </trkpt>
      <trkpt lat="42.64837667" lon="-2.750305">
        <ele>707.0</ele>
        <time>2021-10-22T09:57:39.000Z</time>
      </trkpt>
      <trkpt lat="42.64837667" lon="-2.750305">
        <ele>707.0</ele>
        <time>2021-10-22T09:57:40.000Z</time>
      </trkpt>
      <trkpt lat="42.64837667" lon="-2.750305">
        <ele>707.0</ele>
        <time>2021-10-22T09:57:41.000Z</time>
      </trkpt>
      <trkpt lat="42.64837833" lon="-2.750305">
        <ele>707.0</ele>
        <time>2021-10-22T09:57:42.000Z</time>
      </trkpt>
      <trkpt lat="42.64837833" lon="-2.750305">
        <ele>707.0</ele>
        <time>2021-10-22T09:57:43.000Z</time>
      </trkpt>
      <trkpt lat="42.64837833" lon="-2.750305">
        <ele>707.0</ele>
        <time>2021-10-22T09:57:44.000Z</time>
      </trkpt>
      <trkpt lat="42.64837833" lon="-2.750305">
        <ele>707.0</ele>
        <time>2021-10-22T09:57:45.000Z</time>
      </trkpt>
      <trkpt lat="42.64837833" lon="-2.750305">
        <ele>707.0</ele>
        <time>2021-10-22T09:57:46.000Z</time>
      </trkpt>
      <trkpt lat="42.64837833" lon="-2.750305">
        <ele>707.0</ele>
        <time>2021-10-22T09:57:47.000Z</time>
      </trkpt>
      <trkpt lat="42.64837833" lon="-2.750305">
        <ele>707.0</ele>
        <time>2021-10-22T09:57:48.000Z</time>
      </trkpt>
      <trkpt lat="42.64837833" lon="-2.750305">
        <ele>707.0</ele>
        <time>2021-10-22T09:57:49.000Z</time>
      </trkpt>
      <trkpt lat="42.64837833" lon="-2.750305">
        <ele>707.0</ele>
        <time>2021-10-22T09:57:50.000Z</time>
      </trkpt>
      <trkpt lat="42.64837833" lon="-2.750305">
        <ele>707.0</ele>
        <time>2021-10-22T09:57:51.000Z</time>
      </trkpt>
      <trkpt lat="42.64837833" lon="-2.750305">
        <ele>707.0</ele>
        <time>2021-10-22T09:57:52.000Z</time>
      </trkpt>
      <trkpt lat="42.64837833" lon="-2.750305">
        <ele>707.0</ele>
        <time>2021-10-22T09:57:53.000Z</time>
      </trkpt>
      <trkpt lat="42.64837833" lon="-2.750305">
        <ele>707.0</ele>
        <time>2021-10-22T09:57:54.000Z</time>
      </trkpt>
      <trkpt lat="42.64838" lon="-2.750305">
        <ele>707.0</ele>
        <time>2021-10-22T09:57:55.000Z</time>
      </trkpt>
      <trkpt lat="42.64838" lon="-2.750305">
        <ele>707.0</ele>
        <time>2021-10-22T09:57:56.000Z</time>
      </trkpt>
      <trkpt lat="42.64838" lon="-2.750305">
        <ele>707.0</ele>
        <time>2021-10-22T09:57:57.000Z</time>
      </trkpt>
      <trkpt lat="42.64838" lon="-2.750305">
        <ele>707.0</ele>
        <time>2021-10-22T09:57:58.000Z</time>
      </trkpt>
      <trkpt lat="42.64837833" lon="-2.750305">
        <ele>707.0</ele>
        <time>2021-10-22T09:57:59.000Z</time>
      </trkpt>
      <trkpt lat="42.64837833" lon="-2.750305">
        <ele>707.0</ele>
        <time>2021-10-22T09:58:00.000Z</time>
      </trkpt>
      <trkpt lat="42.64837833" lon="-2.75030667">
        <ele>707.0</ele>
        <time>2021-10-22T09:58:01.000Z</time>
      </trkpt>
      <trkpt lat="42.64837667" lon="-2.75030667">
        <ele>707.0</ele>
        <time>2021-10-22T09:58:02.000Z</time>
      </trkpt>
      <trkpt lat="42.64837667" lon="-2.75030667">
        <ele>707.0</ele>
        <time>2021-10-22T09:58:03.000Z</time>
      </trkpt>
      <trkpt lat="42.64837667" lon="-2.75030667">
        <ele>707.0</ele>
        <time>2021-10-22T09:58:04.000Z</time>
      </trkpt>
      <trkpt lat="42.64837833" lon="-2.75030667">
        <ele>707.0</ele>
        <time>2021-10-22T09:58:05.000Z</time>
      </trkpt>
      <trkpt lat="42.64837833" lon="-2.75030667">
        <ele>707.0</ele>
        <time>2021-10-22T09:58:06.000Z</time>
      </trkpt>
      <trkpt lat="42.64837833" lon="-2.75030667">
        <ele>707.0</ele>
        <time>2021-10-22T09:58:07.000Z</time>
      </trkpt>
      <trkpt lat="42.64837833" lon="-2.75030667">
        <ele>707.0</ele>
        <time>2021-10-22T09:58:08.000Z</time>
      </trkpt>
      <trkpt lat="42.64837833" lon="-2.75030667">
        <ele>707.0</ele>
        <time>2021-10-22T09:58:09.000Z</time>
      </trkpt>
      <trkpt lat="42.64837833" lon="-2.75030667">
        <ele>707.0</ele>
        <time>2021-10-22T09:58:10.000Z</time>
      </trkpt>
      <trkpt lat="42.64837833" lon="-2.75030667">
        <ele>707.0</ele>
        <time>2021-10-22T09:58:11.000Z</time>
      </trkpt>
      <trkpt lat="42.64837833" lon="-2.75030667">
        <ele>707.0</ele>
        <time>2021-10-22T09:58:12.000Z</time>
      </trkpt>
      <trkpt lat="42.64837833" lon="-2.75030833">
        <ele>707.0</ele>
        <time>2021-10-22T09:58:13.000Z</time>
      </trkpt>
      <trkpt lat="42.64837667" lon="-2.75030667">
        <ele>707.0</ele>
        <time>2021-10-22T09:58:14.000Z</time>
      </trkpt>
      <trkpt lat="42.64837667" lon="-2.75030667">
        <ele>707.0</ele>
        <time>2021-10-22T09:58:15.000Z</time>
      </trkpt>
      <trkpt lat="42.64837667" lon="-2.75030667">
        <ele>707.0</ele>
        <time>2021-10-22T09:58:16.000Z</time>
      </trkpt>
      <trkpt lat="42.64837833" lon="-2.75030667">
        <ele>707.0</ele>
        <time>2021-10-22T09:58:17.000Z</time>
      </trkpt>
      <trkpt lat="42.64837833" lon="-2.75030667">
        <ele>707.0</ele>
        <time>2021-10-22T09:58:18.000Z</time>
      </trkpt>
      <trkpt lat="42.64837833" lon="-2.75030833">
        <ele>707.0</ele>
        <time>2021-10-22T09:58:19.000Z</time>
      </trkpt>
      <trkpt lat="42.64837833" lon="-2.75030833">
        <ele>707.0</ele>
        <time>2021-10-22T09:58:20.000Z</time>
      </trkpt>
      <trkpt lat="42.64837833" lon="-2.75031">
        <ele>707.0</ele>
        <time>2021-10-22T09:58:21.000Z</time>
      </trkpt>
      <trkpt lat="42.64837833" lon="-2.75031">
        <ele>707.0</ele>
        <time>2021-10-22T09:58:22.000Z</time>
      </trkpt>
      <trkpt lat="42.64837833" lon="-2.75031">
        <ele>707.0</ele>
        <time>2021-10-22T09:58:23.000Z</time>
      </trkpt>
      <trkpt lat="42.64838" lon="-2.75031">
        <ele>707.0</ele>
        <time>2021-10-22T09:58:24.000Z</time>
      </trkpt>
      <trkpt lat="42.64838167" lon="-2.75031">
        <ele>707.0</ele>
        <time>2021-10-22T09:58:25.000Z</time>
      </trkpt>
      <trkpt lat="42.64838167" lon="-2.75031333">
        <ele>707.0</ele>
        <time>2021-10-22T09:58:26.000Z</time>
      </trkpt>
      <trkpt lat="42.64838333" lon="-2.75031833">
        <ele>707.0</ele>
        <time>2021-10-22T09:58:27.000Z</time>
      </trkpt>
      <trkpt lat="42.64838833" lon="-2.75032667">
        <ele>707.0</ele>
        <time>2021-10-22T09:58:28.000Z</time>
      </trkpt>
      <trkpt lat="42.64839" lon="-2.75033667">
        <ele>707.0</ele>
        <time>2021-10-22T09:58:29.000Z</time>
      </trkpt>
      <trkpt lat="42.64838833" lon="-2.75034333">
        <ele>707.0</ele>
        <time>2021-10-22T09:58:30.000Z</time>
      </trkpt>
      <trkpt lat="42.64838833" lon="-2.75034667">
        <ele>706.0</ele>
        <time>2021-10-22T09:58:31.000Z</time>
      </trkpt>
      <trkpt lat="42.64838833" lon="-2.75034667">
        <ele>706.0</ele>
        <time>2021-10-22T09:58:32.000Z</time>
      </trkpt>
      <trkpt lat="42.64838833" lon="-2.75034833">
        <ele>706.0</ele>
        <time>2021-10-22T09:58:33.000Z</time>
      </trkpt>
      <trkpt lat="42.64838833" lon="-2.75034833">
        <ele>706.0</ele>
        <time>2021-10-22T09:58:34.000Z</time>
      </trkpt>
      <trkpt lat="42.64838833" lon="-2.75034833">
        <ele>706.0</ele>
        <time>2021-10-22T09:58:35.000Z</time>
      </trkpt>
      <trkpt lat="42.64838667" lon="-2.75034833">
        <ele>706.0</ele>
        <time>2021-10-22T09:58:36.000Z</time>
      </trkpt>
      <trkpt lat="42.64838667" lon="-2.75034667">
        <ele>706.0</ele>
        <time>2021-10-22T09:58:37.000Z</time>
      </trkpt>
      <trkpt lat="42.648385" lon="-2.75034333">
        <ele>706.0</ele>
        <time>2021-10-22T09:58:38.000Z</time>
      </trkpt>
      <trkpt lat="42.648385" lon="-2.75033667">
        <ele>706.0</ele>
        <time>2021-10-22T09:58:39.000Z</time>
      </trkpt>
      <trkpt lat="42.64838167" lon="-2.75033333">
        <ele>706.0</ele>
        <time>2021-10-22T09:58:40.000Z</time>
      </trkpt>
      <trkpt lat="42.64837833" lon="-2.75033">
        <ele>706.0</ele>
        <time>2021-10-22T09:58:41.000Z</time>
      </trkpt>
      <trkpt lat="42.64837333" lon="-2.750325">
        <ele>706.0</ele>
        <time>2021-10-22T09:58:42.000Z</time>
      </trkpt>
      <trkpt lat="42.64837167" lon="-2.75031833">
        <ele>706.0</ele>
        <time>2021-10-22T09:58:43.000Z</time>
      </trkpt>
      <trkpt lat="42.64837167" lon="-2.75031167">
        <ele>706.0</ele>
        <time>2021-10-22T09:58:44.000Z</time>
      </trkpt>
      <trkpt lat="42.64837167" lon="-2.75031167">
        <ele>706.0</ele>
        <time>2021-10-22T09:58:45.000Z</time>
      </trkpt>
      <trkpt lat="42.64837167" lon="-2.75031333">
        <ele>706.0</ele>
        <time>2021-10-22T09:58:46.000Z</time>
      </trkpt>
      <trkpt lat="42.64837" lon="-2.75031167">
        <ele>706.0</ele>
        <time>2021-10-22T09:58:47.000Z</time>
      </trkpt>
      <trkpt lat="42.64836833" lon="-2.75031333">
        <ele>706.0</ele>
        <time>2021-10-22T09:58:48.000Z</time>
      </trkpt>
      <trkpt lat="42.64836167" lon="-2.75031167">
        <ele>706.0</ele>
        <time>2021-10-22T09:58:49.000Z</time>
      </trkpt>
      <trkpt lat="42.64835667" lon="-2.75030833">
        <ele>706.0</ele>
        <time>2021-10-22T09:58:50.000Z</time>
      </trkpt>
      <trkpt lat="42.64835" lon="-2.75030667">
        <ele>706.0</ele>
        <time>2021-10-22T09:58:51.000Z</time>
      </trkpt>
      <trkpt lat="42.648345" lon="-2.75030667">
        <ele>706.0</ele>
        <time>2021-10-22T09:58:52.000Z</time>
      </trkpt>
      <trkpt lat="42.64834167" lon="-2.75030333">
        <ele>706.0</ele>
        <time>2021-10-22T09:58:53.000Z</time>
      </trkpt>
      <trkpt lat="42.64834" lon="-2.75030167">
        <ele>706.0</ele>
        <time>2021-10-22T09:58:54.000Z</time>
      </trkpt>
      <trkpt lat="42.64833833" lon="-2.75030167">
        <ele>706.0</ele>
        <time>2021-10-22T09:58:55.000Z</time>
      </trkpt>
      <trkpt lat="42.64833667" lon="-2.75030167">
        <ele>706.0</ele>
        <time>2021-10-22T09:58:56.000Z</time>
      </trkpt>
      <trkpt lat="42.64833667" lon="-2.75030167">
        <ele>706.0</ele>
        <time>2021-10-22T09:58:57.000Z</time>
      </trkpt>
      <trkpt lat="42.64833667" lon="-2.75030333">
        <ele>706.0</ele>
        <time>2021-10-22T09:58:58.000Z</time>
      </trkpt>
      <trkpt lat="42.648335" lon="-2.75030833">
        <ele>706.0</ele>
        <time>2021-10-22T09:58:59.000Z</time>
      </trkpt>
      <trkpt lat="42.64833167" lon="-2.75031167">
        <ele>706.0</ele>
        <time>2021-10-22T09:59:00.000Z</time>
      </trkpt>
      <trkpt lat="42.64833" lon="-2.750315">
        <ele>706.0</ele>
        <time>2021-10-22T09:59:01.000Z</time>
      </trkpt>
      <trkpt lat="42.64833" lon="-2.75031667">
        <ele>706.0</ele>
        <time>2021-10-22T09:59:02.000Z</time>
      </trkpt>
      <trkpt lat="42.64833" lon="-2.75031833">
        <ele>706.0</ele>
        <time>2021-10-22T09:59:03.000Z</time>
      </trkpt>
      <trkpt lat="42.64833167" lon="-2.75032333">
        <ele>706.0</ele>
        <time>2021-10-22T09:59:04.000Z</time>
      </trkpt>
      <trkpt lat="42.64833333" lon="-2.75033">
        <ele>706.0</ele>
        <time>2021-10-22T09:59:05.000Z</time>
      </trkpt>
      <trkpt lat="42.648335" lon="-2.75034">
        <ele>706.0</ele>
        <time>2021-10-22T09:59:06.000Z</time>
      </trkpt>
      <trkpt lat="42.64833667" lon="-2.750345">
        <ele>706.0</ele>
        <time>2021-10-22T09:59:07.000Z</time>
      </trkpt>
      <trkpt lat="42.64833833" lon="-2.75034833">
        <ele>706.0</ele>
        <time>2021-10-22T09:59:08.000Z</time>
      </trkpt>
      <trkpt lat="42.64834" lon="-2.75035">
        <ele>706.0</ele>
        <time>2021-10-22T09:59:09.000Z</time>
      </trkpt>
      <trkpt lat="42.64834" lon="-2.75035">
        <ele>706.0</ele>
        <time>2021-10-22T09:59:10.000Z</time>
      </trkpt>
      <trkpt lat="42.64834" lon="-2.75035">
        <ele>706.0</ele>
        <time>2021-10-22T09:59:11.000Z</time>
      </trkpt>
      <trkpt lat="42.64834" lon="-2.75034833">
        <ele>706.0</ele>
        <time>2021-10-22T09:59:12.000Z</time>
      </trkpt>
      <trkpt lat="42.64834" lon="-2.75034833">
        <ele>706.0</ele>
        <time>2021-10-22T09:59:13.000Z</time>
      </trkpt>
      <trkpt lat="42.64834" lon="-2.75034667">
        <ele>706.0</ele>
        <time>2021-10-22T09:59:14.000Z</time>
      </trkpt>
      <trkpt lat="42.64834" lon="-2.75034333">
        <ele>706.0</ele>
        <time>2021-10-22T09:59:15.000Z</time>
      </trkpt>
      <trkpt lat="42.64834167" lon="-2.75034167">
        <ele>706.0</ele>
        <time>2021-10-22T09:59:16.000Z</time>
      </trkpt>
      <trkpt lat="42.64834333" lon="-2.75033833">
        <ele>706.0</ele>
        <time>2021-10-22T09:59:17.000Z</time>
      </trkpt>
      <trkpt lat="42.64834333" lon="-2.75033667">
        <ele>706.0</ele>
        <time>2021-10-22T09:59:18.000Z</time>
      </trkpt>
      <trkpt lat="42.648345" lon="-2.750335">
        <ele>706.0</ele>
        <time>2021-10-22T09:59:19.000Z</time>
      </trkpt>
      <trkpt lat="42.64834667" lon="-2.75033167">
        <ele>706.0</ele>
        <time>2021-10-22T09:59:20.000Z</time>
      </trkpt>
      <trkpt lat="42.64835167" lon="-2.75032833">
        <ele>706.0</ele>
        <time>2021-10-22T09:59:21.000Z</time>
      </trkpt>
      <trkpt lat="42.64835833" lon="-2.75032833">
        <ele>706.0</ele>
        <time>2021-10-22T09:59:22.000Z</time>
      </trkpt>
      <trkpt lat="42.64836333" lon="-2.75032833">
        <ele>706.0</ele>
        <time>2021-10-22T09:59:23.000Z</time>
      </trkpt>
      <trkpt lat="42.64837" lon="-2.75032833">
        <ele>706.0</ele>
        <time>2021-10-22T09:59:24.000Z</time>
      </trkpt>
      <trkpt lat="42.64838" lon="-2.75032833">
        <ele>706.0</ele>
        <time>2021-10-22T09:59:25.000Z</time>
      </trkpt>
      <trkpt lat="42.64838833" lon="-2.75033167">
        <ele>706.0</ele>
        <time>2021-10-22T09:59:26.000Z</time>
      </trkpt>
      <trkpt lat="42.648395" lon="-2.75033833">
        <ele>706.0</ele>
        <time>2021-10-22T09:59:27.000Z</time>
      </trkpt>
      <trkpt lat="42.64839667" lon="-2.75034167">
        <ele>706.0</ele>
        <time>2021-10-22T09:59:28.000Z</time>
      </trkpt>
      <trkpt lat="42.64839667" lon="-2.75034167">
        <ele>706.0</ele>
        <time>2021-10-22T09:59:29.000Z</time>
      </trkpt>
      <trkpt lat="42.64839333" lon="-2.75034">
        <ele>706.0</ele>
        <time>2021-10-22T09:59:30.000Z</time>
      </trkpt>
      <trkpt lat="42.64838833" lon="-2.75034">
        <ele>706.0</ele>
        <time>2021-10-22T09:59:31.000Z</time>
      </trkpt>
      <trkpt lat="42.648385" lon="-2.75033833">
        <ele>706.0</ele>
        <time>2021-10-22T09:59:32.000Z</time>
      </trkpt>
      <trkpt lat="42.648385" lon="-2.75033833">
        <ele>706.0</ele>
        <time>2021-10-22T09:59:33.000Z</time>
      </trkpt>
      <trkpt lat="42.648385" lon="-2.75033833">
        <ele>706.0</ele>
        <time>2021-10-22T09:59:34.000Z</time>
      </trkpt>
      <trkpt lat="42.648385" lon="-2.75033833">
        <ele>706.0</ele>
        <time>2021-10-22T09:59:35.000Z</time>
      </trkpt>
      <trkpt lat="42.64838667" lon="-2.75033833">
        <ele>706.0</ele>
        <time>2021-10-22T09:59:36.000Z</time>
      </trkpt>
      <trkpt lat="42.64838667" lon="-2.75033833">
        <ele>706.0</ele>
        <time>2021-10-22T09:59:37.000Z</time>
      </trkpt>
      <trkpt lat="42.64838667" lon="-2.75033833">
        <ele>706.0</ele>
        <time>2021-10-22T09:59:38.000Z</time>
      </trkpt>
      <trkpt lat="42.64838833" lon="-2.75033833">
        <ele>706.0</ele>
        <time>2021-10-22T09:59:39.000Z</time>
      </trkpt>
      <trkpt lat="42.64838833" lon="-2.75033833">
        <ele>706.0</ele>
        <time>2021-10-22T09:59:40.000Z</time>
      </trkpt>
      <trkpt lat="42.64838833" lon="-2.75033833">
        <ele>706.0</ele>
        <time>2021-10-22T09:59:41.000Z</time>
      </trkpt>
      <trkpt lat="42.64838833" lon="-2.75033667">
        <ele>706.0</ele>
        <time>2021-10-22T09:59:42.000Z</time>
      </trkpt>
      <trkpt lat="42.64839" lon="-2.75033667">
        <ele>706.0</ele>
        <time>2021-10-22T09:59:43.000Z</time>
      </trkpt>
      <trkpt lat="42.64839" lon="-2.750335">
        <ele>706.0</ele>
        <time>2021-10-22T09:59:44.000Z</time>
      </trkpt>
      <trkpt lat="42.64839" lon="-2.750335">
        <ele>706.0</ele>
        <time>2021-10-22T09:59:45.000Z</time>
      </trkpt>
      <trkpt lat="42.64839" lon="-2.75034">
        <ele>706.0</ele>
        <time>2021-10-22T09:59:46.000Z</time>
      </trkpt>
      <trkpt lat="42.64838667" lon="-2.75034167">
        <ele>706.0</ele>
        <time>2021-10-22T09:59:47.000Z</time>
      </trkpt>
      <trkpt lat="42.64838333" lon="-2.75034333">
        <ele>706.0</ele>
        <time>2021-10-22T09:59:48.000Z</time>
      </trkpt>
      <trkpt lat="42.64838" lon="-2.750345">
        <ele>706.0</ele>
        <time>2021-10-22T09:59:49.000Z</time>
      </trkpt>
      <trkpt lat="42.64837667" lon="-2.750345">
        <ele>706.0</ele>
        <time>2021-10-22T09:59:50.000Z</time>
      </trkpt>
      <trkpt lat="42.64837667" lon="-2.750345">
        <ele>706.0</ele>
        <time>2021-10-22T09:59:51.000Z</time>
      </trkpt>
      <trkpt lat="42.64837833" lon="-2.750345">
        <ele>706.0</ele>
        <time>2021-10-22T09:59:52.000Z</time>
      </trkpt>
      <trkpt lat="42.64838" lon="-2.75034667">
        <ele>706.0</ele>
        <time>2021-10-22T09:59:53.000Z</time>
      </trkpt>
      <trkpt lat="42.64838" lon="-2.75034667">
        <ele>706.0</ele>
        <time>2021-10-22T09:59:54.000Z</time>
      </trkpt>
      <trkpt lat="42.64838" lon="-2.75034833">
        <ele>707.0</ele>
        <time>2021-10-22T09:59:55.000Z</time>
      </trkpt>
      <trkpt lat="42.64838" lon="-2.75035">
        <ele>707.0</ele>
        <time>2021-10-22T09:59:56.000Z</time>
      </trkpt>
      <trkpt lat="42.64838" lon="-2.75035">
        <ele>707.0</ele>
        <time>2021-10-22T09:59:57.000Z</time>
      </trkpt>
      <trkpt lat="42.64838167" lon="-2.75035167">
        <ele>707.0</ele>
        <time>2021-10-22T09:59:58.000Z</time>
      </trkpt>
      <trkpt lat="42.64838" lon="-2.75035">
        <ele>707.0</ele>
        <time>2021-10-22T09:59:59.000Z</time>
      </trkpt>
      <trkpt lat="42.64838167" lon="-2.75034667">
        <ele>707.0</ele>
        <time>2021-10-22T10:00:00.000Z</time>
      </trkpt>
      <trkpt lat="42.64838167" lon="-2.75034667">
        <ele>707.0</ele>
        <time>2021-10-22T10:00:01.000Z</time>
      </trkpt>
      <trkpt lat="42.64838333" lon="-2.75034667">
        <ele>707.0</ele>
        <time>2021-10-22T10:00:02.000Z</time>
      </trkpt>
      <trkpt lat="42.64838333" lon="-2.75034667">
        <ele>707.0</ele>
        <time>2021-10-22T10:00:03.000Z</time>
      </trkpt>
      <trkpt lat="42.64838333" lon="-2.75034667">
        <ele>707.0</ele>
        <time>2021-10-22T10:00:04.000Z</time>
      </trkpt>
      <trkpt lat="42.64838167" lon="-2.75034667">
        <ele>707.0</ele>
        <time>2021-10-22T10:00:05.000Z</time>
      </trkpt>
      <trkpt lat="42.64838167" lon="-2.75034667">
        <ele>707.0</ele>
        <time>2021-10-22T10:00:06.000Z</time>
      </trkpt>
      <trkpt lat="42.64838167" lon="-2.75034667">
        <ele>707.0</ele>
        <time>2021-10-22T10:00:07.000Z</time>
      </trkpt>
      <trkpt lat="42.64838167" lon="-2.75034667">
        <ele>707.0</ele>
        <time>2021-10-22T10:00:08.000Z</time>
      </trkpt>
      <trkpt lat="42.64838167" lon="-2.75034667">
        <ele>707.0</ele>
        <time>2021-10-22T10:00:09.000Z</time>
      </trkpt>
      <trkpt lat="42.64838167" lon="-2.75034667">
        <ele>707.0</ele>
        <time>2021-10-22T10:00:10.000Z</time>
      </trkpt>
      <trkpt lat="42.64838167" lon="-2.75034667">
        <ele>707.0</ele>
        <time>2021-10-22T10:00:11.000Z</time>
      </trkpt>
      <trkpt lat="42.64838167" lon="-2.75034667">
        <ele>707.0</ele>
        <time>2021-10-22T10:00:12.000Z</time>
      </trkpt>
      <trkpt lat="42.64838167" lon="-2.75034667">
        <ele>707.0</ele>
        <time>2021-10-22T10:00:13.000Z</time>
      </trkpt>
      <trkpt lat="42.64838167" lon="-2.75034667">
        <ele>707.0</ele>
        <time>2021-10-22T10:00:14.000Z</time>
      </trkpt>
      <trkpt lat="42.64838167" lon="-2.75034667">
        <ele>707.0</ele>
        <time>2021-10-22T10:00:15.000Z</time>
      </trkpt>
      <trkpt lat="42.64838167" lon="-2.75034667">
        <ele>707.0</ele>
        <time>2021-10-22T10:00:16.000Z</time>
      </trkpt>
      <trkpt lat="42.64838167" lon="-2.75034667">
        <ele>707.0</ele>
        <time>2021-10-22T10:00:17.000Z</time>
      </trkpt>
      <trkpt lat="42.64838167" lon="-2.75034667">
        <ele>707.0</ele>
        <time>2021-10-22T10:00:18.000Z</time>
      </trkpt>
      <trkpt lat="42.64838167" lon="-2.75034667">
        <ele>707.0</ele>
        <time>2021-10-22T10:00:19.000Z</time>
      </trkpt>
      <trkpt lat="42.64838" lon="-2.75034667">
        <ele>707.0</ele>
        <time>2021-10-22T10:00:20.000Z</time>
      </trkpt>
      <trkpt lat="42.64838" lon="-2.750345">
        <ele>707.0</ele>
        <time>2021-10-22T10:00:21.000Z</time>
      </trkpt>
      <trkpt lat="42.64838" lon="-2.750345">
        <ele>707.0</ele>
        <time>2021-10-22T10:00:22.000Z</time>
      </trkpt>
      <trkpt lat="42.64838" lon="-2.75034667">
        <ele>707.0</ele>
        <time>2021-10-22T10:00:23.000Z</time>
      </trkpt>
      <trkpt lat="42.64838" lon="-2.75034833">
        <ele>707.0</ele>
        <time>2021-10-22T10:00:24.000Z</time>
      </trkpt>
      <trkpt lat="42.64838" lon="-2.75035167">
        <ele>707.0</ele>
        <time>2021-10-22T10:00:25.000Z</time>
      </trkpt>
      <trkpt lat="42.64837833" lon="-2.75035167">
        <ele>707.0</ele>
        <time>2021-10-22T10:00:26.000Z</time>
      </trkpt>
      <trkpt lat="42.64837833" lon="-2.75035167">
        <ele>707.0</ele>
        <time>2021-10-22T10:00:27.000Z</time>
      </trkpt>
      <trkpt lat="42.64837833" lon="-2.75035167">
        <ele>707.0</ele>
        <time>2021-10-22T10:00:28.000Z</time>
      </trkpt>
      <trkpt lat="42.64837833" lon="-2.75035167">
        <ele>707.0</ele>
        <time>2021-10-22T10:00:29.000Z</time>
      </trkpt>
      <trkpt lat="42.64837833" lon="-2.75035">
        <ele>707.0</ele>
        <time>2021-10-22T10:00:30.000Z</time>
      </trkpt>
      <trkpt lat="42.64837833" lon="-2.75035">
        <ele>707.0</ele>
        <time>2021-10-22T10:00:31.000Z</time>
      </trkpt>
      <trkpt lat="42.64837833" lon="-2.75035">
        <ele>707.0</ele>
        <time>2021-10-22T10:00:32.000Z</time>
      </trkpt>
      <trkpt lat="42.64837833" lon="-2.75035">
        <ele>707.0</ele>
        <time>2021-10-22T10:00:33.000Z</time>
      </trkpt>
      <trkpt lat="42.64837833" lon="-2.75035">
        <ele>707.0</ele>
        <time>2021-10-22T10:00:34.000Z</time>
      </trkpt>
      <trkpt lat="42.64837833" lon="-2.75035">
        <ele>707.0</ele>
        <time>2021-10-22T10:00:35.000Z</time>
      </trkpt>
      <trkpt lat="42.64837667" lon="-2.75035">
        <ele>707.0</ele>
        <time>2021-10-22T10:00:36.000Z</time>
      </trkpt>
      <trkpt lat="42.64837833" lon="-2.75034833">
        <ele>707.0</ele>
        <time>2021-10-22T10:00:37.000Z</time>
      </trkpt>
      <trkpt lat="42.64837833" lon="-2.75034833">
        <ele>707.0</ele>
        <time>2021-10-22T10:00:38.000Z</time>
      </trkpt>
      <trkpt lat="42.64837833" lon="-2.75034833">
        <ele>707.0</ele>
        <time>2021-10-22T10:00:39.000Z</time>
      </trkpt>
      <trkpt lat="42.64837833" lon="-2.75035">
        <ele>707.0</ele>
        <time>2021-10-22T10:00:40.000Z</time>
      </trkpt>
      <trkpt lat="42.64837833" lon="-2.75035">
        <ele>707.0</ele>
        <time>2021-10-22T10:00:41.000Z</time>
      </trkpt>
      <trkpt lat="42.64837667" lon="-2.75035">
        <ele>707.0</ele>
        <time>2021-10-22T10:00:42.000Z</time>
      </trkpt>
      <trkpt lat="42.64837333" lon="-2.75034833">
        <ele>707.0</ele>
        <time>2021-10-22T10:00:43.000Z</time>
      </trkpt>
      <trkpt lat="42.64837333" lon="-2.75034833">
        <ele>707.0</ele>
        <time>2021-10-22T10:00:44.000Z</time>
      </trkpt>
      <trkpt lat="42.64837333" lon="-2.75034833">
        <ele>707.0</ele>
        <time>2021-10-22T10:00:45.000Z</time>
      </trkpt>
      <trkpt lat="42.648375" lon="-2.75034833">
        <ele>707.0</ele>
        <time>2021-10-22T10:00:46.000Z</time>
      </trkpt>
      <trkpt lat="42.64837333" lon="-2.75034833">
        <ele>707.0</ele>
        <time>2021-10-22T10:00:47.000Z</time>
      </trkpt>
      <trkpt lat="42.648375" lon="-2.75035">
        <ele>707.0</ele>
        <time>2021-10-22T10:00:48.000Z</time>
      </trkpt>
      <trkpt lat="42.648375" lon="-2.75035">
        <ele>707.0</ele>
        <time>2021-10-22T10:00:49.000Z</time>
      </trkpt>
      <trkpt lat="42.648375" lon="-2.75035">
        <ele>707.0</ele>
        <time>2021-10-22T10:00:50.000Z</time>
      </trkpt>
      <trkpt lat="42.648375" lon="-2.75035">
        <ele>706.0</ele>
        <time>2021-10-22T10:00:51.000Z</time>
      </trkpt>
      <trkpt lat="42.648375" lon="-2.75035">
        <ele>706.0</ele>
        <time>2021-10-22T10:00:52.000Z</time>
      </trkpt>
      <trkpt lat="42.648375" lon="-2.75035">
        <ele>706.0</ele>
        <time>2021-10-22T10:00:53.000Z</time>
      </trkpt>
      <trkpt lat="42.648375" lon="-2.75035">
        <ele>706.0</ele>
        <time>2021-10-22T10:00:54.000Z</time>
      </trkpt>
      <trkpt lat="42.648375" lon="-2.75034833">
        <ele>706.0</ele>
        <time>2021-10-22T10:00:55.000Z</time>
      </trkpt>
      <trkpt lat="42.648375" lon="-2.75034833">
        <ele>706.0</ele>
        <time>2021-10-22T10:00:56.000Z</time>
      </trkpt>
      <trkpt lat="42.648375" lon="-2.75034833">
        <ele>706.0</ele>
        <time>2021-10-22T10:00:57.000Z</time>
      </trkpt>
      <trkpt lat="42.64837667" lon="-2.75034833">
        <ele>706.0</ele>
        <time>2021-10-22T10:00:58.000Z</time>
      </trkpt>
      <trkpt lat="42.64837667" lon="-2.75034833">
        <ele>706.0</ele>
        <time>2021-10-22T10:00:59.000Z</time>
      </trkpt>
      <trkpt lat="42.64837667" lon="-2.75034833">
        <ele>706.0</ele>
        <time>2021-10-22T10:01:00.000Z</time>
      </trkpt>
      <trkpt lat="42.64837667" lon="-2.75034833">
        <ele>706.0</ele>
        <time>2021-10-22T10:01:01.000Z</time>
      </trkpt>
      <trkpt lat="42.64837667" lon="-2.75034833">
        <ele>706.0</ele>
        <time>2021-10-22T10:01:02.000Z</time>
      </trkpt>
      <trkpt lat="42.64837667" lon="-2.75034833">
        <ele>706.0</ele>
        <time>2021-10-22T10:01:03.000Z</time>
      </trkpt>
      <trkpt lat="42.64837667" lon="-2.75034833">
        <ele>706.0</ele>
        <time>2021-10-22T10:01:04.000Z</time>
      </trkpt>
      <trkpt lat="42.64837667" lon="-2.75034833">
        <ele>706.0</ele>
        <time>2021-10-22T10:01:05.000Z</time>
      </trkpt>
      <trkpt lat="42.64837667" lon="-2.75034833">
        <ele>706.0</ele>
        <time>2021-10-22T10:01:06.000Z</time>
      </trkpt>
      <trkpt lat="42.64837667" lon="-2.75034833">
        <ele>706.0</ele>
        <time>2021-10-22T10:01:07.000Z</time>
      </trkpt>
      <trkpt lat="42.64837667" lon="-2.75034833">
        <ele>706.0</ele>
        <time>2021-10-22T10:01:08.000Z</time>
      </trkpt>
      <trkpt lat="42.64837667" lon="-2.75034833">
        <ele>706.0</ele>
        <time>2021-10-22T10:01:09.000Z</time>
      </trkpt>
      <trkpt lat="42.64837667" lon="-2.75034833">
        <ele>706.0</ele>
        <time>2021-10-22T10:01:10.000Z</time>
      </trkpt>
      <trkpt lat="42.648375" lon="-2.75034833">
        <ele>706.0</ele>
        <time>2021-10-22T10:01:11.000Z</time>
      </trkpt>
      <trkpt lat="42.64837333" lon="-2.75034833">
        <ele>706.0</ele>
        <time>2021-10-22T10:01:12.000Z</time>
      </trkpt>
      <trkpt lat="42.64837333" lon="-2.75034833">
        <ele>706.0</ele>
        <time>2021-10-22T10:01:13.000Z</time>
      </trkpt>
      <trkpt lat="42.64837333" lon="-2.75034833">
        <ele>706.0</ele>
        <time>2021-10-22T10:01:14.000Z</time>
      </trkpt>
      <trkpt lat="42.648375" lon="-2.75034833">
        <ele>706.0</ele>
        <time>2021-10-22T10:01:15.000Z</time>
      </trkpt>
      <trkpt lat="42.648375" lon="-2.75035">
        <ele>706.0</ele>
        <time>2021-10-22T10:01:16.000Z</time>
      </trkpt>
      <trkpt lat="42.648375" lon="-2.75035167">
        <ele>706.0</ele>
        <time>2021-10-22T10:01:17.000Z</time>
      </trkpt>
      <trkpt lat="42.64837667" lon="-2.75035167">
        <ele>706.0</ele>
        <time>2021-10-22T10:01:18.000Z</time>
      </trkpt>
      <trkpt lat="42.64837667" lon="-2.75035167">
        <ele>706.0</ele>
        <time>2021-10-22T10:01:19.000Z</time>
      </trkpt>
      <trkpt lat="42.648375" lon="-2.75035">
        <ele>706.0</ele>
        <time>2021-10-22T10:01:20.000Z</time>
      </trkpt>
      <trkpt lat="42.648375" lon="-2.75035167">
        <ele>706.0</ele>
        <time>2021-10-22T10:01:21.000Z</time>
      </trkpt>
      <trkpt lat="42.648375" lon="-2.75035167">
        <ele>706.0</ele>
        <time>2021-10-22T10:01:22.000Z</time>
      </trkpt>
      <trkpt lat="42.64837333" lon="-2.75035333">
        <ele>706.0</ele>
        <time>2021-10-22T10:01:23.000Z</time>
      </trkpt>
      <trkpt lat="42.64837333" lon="-2.75035333">
        <ele>706.0</ele>
        <time>2021-10-22T10:01:24.000Z</time>
      </trkpt>
      <trkpt lat="42.64837167" lon="-2.750355">
        <ele>706.0</ele>
        <time>2021-10-22T10:01:25.000Z</time>
      </trkpt>
      <trkpt lat="42.64837167" lon="-2.750355">
        <ele>706.0</ele>
        <time>2021-10-22T10:01:26.000Z</time>
      </trkpt>
      <trkpt lat="42.64837333" lon="-2.750355">
        <ele>707.0</ele>
        <time>2021-10-22T10:01:27.000Z</time>
      </trkpt>
      <trkpt lat="42.64837333" lon="-2.750355">
        <ele>707.0</ele>
        <time>2021-10-22T10:01:28.000Z</time>
      </trkpt>
      <trkpt lat="42.64837333" lon="-2.750355">
        <ele>707.0</ele>
        <time>2021-10-22T10:01:29.000Z</time>
      </trkpt>
      <trkpt lat="42.64837333" lon="-2.75035667">
        <ele>707.0</ele>
        <time>2021-10-22T10:01:30.000Z</time>
      </trkpt>
      <trkpt lat="42.64837333" lon="-2.75035667">
        <ele>707.0</ele>
        <time>2021-10-22T10:01:31.000Z</time>
      </trkpt>
      <trkpt lat="42.64837167" lon="-2.75035667">
        <ele>707.0</ele>
        <time>2021-10-22T10:01:32.000Z</time>
      </trkpt>
      <trkpt lat="42.64837" lon="-2.75036167">
        <ele>707.0</ele>
        <time>2021-10-22T10:01:33.000Z</time>
      </trkpt>
      <trkpt lat="42.64836833" lon="-2.750365">
        <ele>707.0</ele>
        <time>2021-10-22T10:01:34.000Z</time>
      </trkpt>
      <trkpt lat="42.64836833" lon="-2.75036833">
        <ele>706.0</ele>
        <time>2021-10-22T10:01:35.000Z</time>
      </trkpt>
      <trkpt lat="42.64837" lon="-2.75037167">
        <ele>706.0</ele>
        <time>2021-10-22T10:01:36.000Z</time>
      </trkpt>
      <trkpt lat="42.64837167" lon="-2.75037333">
        <ele>706.0</ele>
        <time>2021-10-22T10:01:37.000Z</time>
      </trkpt>
      <trkpt lat="42.64837333" lon="-2.75037167">
        <ele>706.0</ele>
        <time>2021-10-22T10:01:38.000Z</time>
      </trkpt>
      <trkpt lat="42.648375" lon="-2.75036667">
        <ele>706.0</ele>
        <time>2021-10-22T10:01:39.000Z</time>
      </trkpt>
      <trkpt lat="42.64837667" lon="-2.75036333">
        <ele>706.0</ele>
        <time>2021-10-22T10:01:40.000Z</time>
      </trkpt>
      <trkpt lat="42.64837667" lon="-2.75036333">
        <ele>706.0</ele>
        <time>2021-10-22T10:01:41.000Z</time>
      </trkpt>
      <trkpt lat="42.64837667" lon="-2.75036333">
        <ele>706.0</ele>
        <time>2021-10-22T10:01:42.000Z</time>
      </trkpt>
      <trkpt lat="42.64837667" lon="-2.75036333">
        <ele>706.0</ele>
        <time>2021-10-22T10:01:43.000Z</time>
      </trkpt>
      <trkpt lat="42.64837667" lon="-2.75036333">
        <ele>706.0</ele>
        <time>2021-10-22T10:01:44.000Z</time>
      </trkpt>
      <trkpt lat="42.64837667" lon="-2.75036167">
        <ele>706.0</ele>
        <time>2021-10-22T10:01:45.000Z</time>
      </trkpt>
      <trkpt lat="42.64837667" lon="-2.75036167">
        <ele>706.0</ele>
        <time>2021-10-22T10:01:46.000Z</time>
      </trkpt>
      <trkpt lat="42.64837667" lon="-2.75036167">
        <ele>706.0</ele>
        <time>2021-10-22T10:01:47.000Z</time>
      </trkpt>
      <trkpt lat="42.64837667" lon="-2.75036167">
        <ele>706.0</ele>
        <time>2021-10-22T10:01:48.000Z</time>
      </trkpt>
      <trkpt lat="42.648375" lon="-2.75036167">
        <ele>706.0</ele>
        <time>2021-10-22T10:01:49.000Z</time>
      </trkpt>
      <trkpt lat="42.648375" lon="-2.75036167">
        <ele>706.0</ele>
        <time>2021-10-22T10:01:50.000Z</time>
      </trkpt>
      <trkpt lat="42.64837167" lon="-2.75036333">
        <ele>706.0</ele>
        <time>2021-10-22T10:01:51.000Z</time>
      </trkpt>
      <trkpt lat="42.64837" lon="-2.750365">
        <ele>706.0</ele>
        <time>2021-10-22T10:01:52.000Z</time>
      </trkpt>
      <trkpt lat="42.64836833" lon="-2.75036333">
        <ele>706.0</ele>
        <time>2021-10-22T10:01:53.000Z</time>
      </trkpt>
      <trkpt lat="42.64836833" lon="-2.75036333">
        <ele>706.0</ele>
        <time>2021-10-22T10:01:54.000Z</time>
      </trkpt>
      <trkpt lat="42.64836833" lon="-2.75036333">
        <ele>706.0</ele>
        <time>2021-10-22T10:01:55.000Z</time>
      </trkpt>
      <trkpt lat="42.64836833" lon="-2.75036167">
        <ele>706.0</ele>
        <time>2021-10-22T10:01:56.000Z</time>
      </trkpt>
      <trkpt lat="42.64836833" lon="-2.75036167">
        <ele>706.0</ele>
        <time>2021-10-22T10:01:57.000Z</time>
      </trkpt>
      <trkpt lat="42.64836833" lon="-2.75036167">
        <ele>706.0</ele>
        <time>2021-10-22T10:01:58.000Z</time>
      </trkpt>
      <trkpt lat="42.64836833" lon="-2.75035833">
        <ele>706.0</ele>
        <time>2021-10-22T10:01:59.000Z</time>
      </trkpt>
      <trkpt lat="42.64837" lon="-2.75035833">
        <ele>706.0</ele>
        <time>2021-10-22T10:02:00.000Z</time>
      </trkpt>
      <trkpt lat="42.64837167" lon="-2.75036">
        <ele>706.0</ele>
        <time>2021-10-22T10:02:01.000Z</time>
      </trkpt>
      <trkpt lat="42.64837333" lon="-2.75036">
        <ele>706.0</ele>
        <time>2021-10-22T10:02:02.000Z</time>
      </trkpt>
      <trkpt lat="42.64837333" lon="-2.75036">
        <ele>706.0</ele>
        <time>2021-10-22T10:02:03.000Z</time>
      </trkpt>
      <trkpt lat="42.64837333" lon="-2.75036">
        <ele>706.0</ele>
        <time>2021-10-22T10:02:04.000Z</time>
      </trkpt>
      <trkpt lat="42.64837333" lon="-2.75035833">
        <ele>706.0</ele>
        <time>2021-10-22T10:02:05.000Z</time>
      </trkpt>
      <trkpt lat="42.648375" lon="-2.75035833">
        <ele>706.0</ele>
        <time>2021-10-22T10:02:06.000Z</time>
      </trkpt>
      <trkpt lat="42.648375" lon="-2.75035833">
        <ele>706.0</ele>
        <time>2021-10-22T10:02:07.000Z</time>
      </trkpt>
      <trkpt lat="42.648375" lon="-2.75035833">
        <ele>706.0</ele>
        <time>2021-10-22T10:02:08.000Z</time>
      </trkpt>
      <trkpt lat="42.648375" lon="-2.75035833">
        <ele>706.0</ele>
        <time>2021-10-22T10:02:09.000Z</time>
      </trkpt>
      <trkpt lat="42.648375" lon="-2.75035667">
        <ele>706.0</ele>
        <time>2021-10-22T10:02:10.000Z</time>
      </trkpt>
      <trkpt lat="42.648375" lon="-2.75035667">
        <ele>706.0</ele>
        <time>2021-10-22T10:02:11.000Z</time>
      </trkpt>
      <trkpt lat="42.648375" lon="-2.75035667">
        <ele>706.0</ele>
        <time>2021-10-22T10:02:12.000Z</time>
      </trkpt>
      <trkpt lat="42.648375" lon="-2.75035667">
        <ele>706.0</ele>
        <time>2021-10-22T10:02:13.000Z</time>
      </trkpt>
      <trkpt lat="42.64837667" lon="-2.75035667">
        <ele>706.0</ele>
        <time>2021-10-22T10:02:14.000Z</time>
      </trkpt>
      <trkpt lat="42.64837667" lon="-2.750355">
        <ele>706.0</ele>
        <time>2021-10-22T10:02:15.000Z</time>
      </trkpt>
      <trkpt lat="42.648375" lon="-2.750355">
        <ele>706.0</ele>
        <time>2021-10-22T10:02:16.000Z</time>
      </trkpt>
      <trkpt lat="42.648375" lon="-2.750355">
        <ele>706.0</ele>
        <time>2021-10-22T10:02:17.000Z</time>
      </trkpt>
      <trkpt lat="42.64837333" lon="-2.750355">
        <ele>706.0</ele>
        <time>2021-10-22T10:02:18.000Z</time>
      </trkpt>
      <trkpt lat="42.64837333" lon="-2.75035167">
        <ele>706.0</ele>
        <time>2021-10-22T10:02:19.000Z</time>
      </trkpt>
      <trkpt lat="42.64837333" lon="-2.75035167">
        <ele>706.0</ele>
        <time>2021-10-22T10:02:20.000Z</time>
      </trkpt>
      <trkpt lat="42.64837333" lon="-2.75035167">
        <ele>706.0</ele>
        <time>2021-10-22T10:02:21.000Z</time>
      </trkpt>
      <trkpt lat="42.648375" lon="-2.75035167">
        <ele>706.0</ele>
        <time>2021-10-22T10:02:22.000Z</time>
      </trkpt>
      <trkpt lat="42.64837333" lon="-2.75035167">
        <ele>706.0</ele>
        <time>2021-10-22T10:02:23.000Z</time>
      </trkpt>
      <trkpt lat="42.64837333" lon="-2.75035167">
        <ele>706.0</ele>
        <time>2021-10-22T10:02:24.000Z</time>
      </trkpt>
      <trkpt lat="42.64837333" lon="-2.75035167">
        <ele>706.0</ele>
        <time>2021-10-22T10:02:25.000Z</time>
      </trkpt>
      <trkpt lat="42.648375" lon="-2.75035167">
        <ele>706.0</ele>
        <time>2021-10-22T10:02:26.000Z</time>
      </trkpt>
      <trkpt lat="42.648375" lon="-2.75035167">
        <ele>706.0</ele>
        <time>2021-10-22T10:02:27.000Z</time>
      </trkpt>
      <trkpt lat="42.648375" lon="-2.75035167">
        <ele>706.0</ele>
        <time>2021-10-22T10:02:28.000Z</time>
      </trkpt>
      <trkpt lat="42.648375" lon="-2.75035">
        <ele>706.0</ele>
        <time>2021-10-22T10:02:29.000Z</time>
      </trkpt>
      <trkpt lat="42.648375" lon="-2.75035">
        <ele>706.0</ele>
        <time>2021-10-22T10:02:30.000Z</time>
      </trkpt>
      <trkpt lat="42.64837667" lon="-2.75035333">
        <ele>706.0</ele>
        <time>2021-10-22T10:02:31.000Z</time>
      </trkpt>
      <trkpt lat="42.64837833" lon="-2.75035333">
        <ele>706.0</ele>
        <time>2021-10-22T10:02:32.000Z</time>
      </trkpt>
      <trkpt lat="42.648375" lon="-2.75035333">
        <ele>706.0</ele>
        <time>2021-10-22T10:02:33.000Z</time>
      </trkpt>
      <trkpt lat="42.648375" lon="-2.75035333">
        <ele>706.0</ele>
        <time>2021-10-22T10:02:34.000Z</time>
      </trkpt>
      <trkpt lat="42.64837333" lon="-2.750355">
        <ele>706.0</ele>
        <time>2021-10-22T10:02:35.000Z</time>
      </trkpt>
      <trkpt lat="42.64837333" lon="-2.75035667">
        <ele>706.0</ele>
        <time>2021-10-22T10:02:36.000Z</time>
      </trkpt>
      <trkpt lat="42.64837" lon="-2.75035667">
        <ele>706.0</ele>
        <time>2021-10-22T10:02:37.000Z</time>
      </trkpt>
      <trkpt lat="42.64836667" lon="-2.75036">
        <ele>706.0</ele>
        <time>2021-10-22T10:02:38.000Z</time>
      </trkpt>
      <trkpt lat="42.648365" lon="-2.75035833">
        <ele>706.0</ele>
        <time>2021-10-22T10:02:39.000Z</time>
      </trkpt>
      <trkpt lat="42.64836167" lon="-2.75036">
        <ele>706.0</ele>
        <time>2021-10-22T10:02:40.000Z</time>
      </trkpt>
      <trkpt lat="42.64835833" lon="-2.75036333">
        <ele>706.0</ele>
        <time>2021-10-22T10:02:41.000Z</time>
      </trkpt>
      <trkpt lat="42.64835833" lon="-2.75036167">
        <ele>706.0</ele>
        <time>2021-10-22T10:02:42.000Z</time>
      </trkpt>
      <trkpt lat="42.64836" lon="-2.75035833">
        <ele>706.0</ele>
        <time>2021-10-22T10:02:43.000Z</time>
      </trkpt>
      <trkpt lat="42.64836333" lon="-2.75035333">
        <ele>706.0</ele>
        <time>2021-10-22T10:02:44.000Z</time>
      </trkpt>
      <trkpt lat="42.648365" lon="-2.75034833">
        <ele>706.0</ele>
        <time>2021-10-22T10:02:45.000Z</time>
      </trkpt>
      <trkpt lat="42.64836833" lon="-2.750345">
        <ele>706.0</ele>
        <time>2021-10-22T10:02:46.000Z</time>
      </trkpt>
      <trkpt lat="42.64837" lon="-2.75034333">
        <ele>706.0</ele>
        <time>2021-10-22T10:02:47.000Z</time>
      </trkpt>
      <trkpt lat="42.64836833" lon="-2.750345">
        <ele>706.0</ele>
        <time>2021-10-22T10:02:48.000Z</time>
      </trkpt>
      <trkpt lat="42.64836833" lon="-2.75034167">
        <ele>705.0</ele>
        <time>2021-10-22T10:02:49.000Z</time>
      </trkpt>
      <trkpt lat="42.64836833" lon="-2.75034">
        <ele>705.0</ele>
        <time>2021-10-22T10:02:50.000Z</time>
      </trkpt>
      <trkpt lat="42.64836833" lon="-2.75034">
        <ele>705.0</ele>
        <time>2021-10-22T10:02:51.000Z</time>
      </trkpt>
      <trkpt lat="42.64837167" lon="-2.75034">
        <ele>705.0</ele>
        <time>2021-10-22T10:02:52.000Z</time>
      </trkpt>
      <trkpt lat="42.648375" lon="-2.75034167">
        <ele>705.0</ele>
        <time>2021-10-22T10:02:53.000Z</time>
      </trkpt>
      <trkpt lat="42.64837833" lon="-2.75034">
        <ele>705.0</ele>
        <time>2021-10-22T10:02:54.000Z</time>
      </trkpt>
      <trkpt lat="42.64837833" lon="-2.75034">
        <ele>705.0</ele>
        <time>2021-10-22T10:02:55.000Z</time>
      </trkpt>
      <trkpt lat="42.64837833" lon="-2.75034">
        <ele>705.0</ele>
        <time>2021-10-22T10:02:56.000Z</time>
      </trkpt>
      <trkpt lat="42.64837833" lon="-2.75033833">
        <ele>705.0</ele>
        <time>2021-10-22T10:02:57.000Z</time>
      </trkpt>
      <trkpt lat="42.64837833" lon="-2.75033833">
        <ele>705.0</ele>
        <time>2021-10-22T10:02:58.000Z</time>
      </trkpt>
      <trkpt lat="42.64838" lon="-2.75033833">
        <ele>705.0</ele>
        <time>2021-10-22T10:02:59.000Z</time>
      </trkpt>
      <trkpt lat="42.64837833" lon="-2.75033667">
        <ele>705.0</ele>
        <time>2021-10-22T10:03:00.000Z</time>
      </trkpt>
      <trkpt lat="42.64837833" lon="-2.75033667">
        <ele>705.0</ele>
        <time>2021-10-22T10:03:01.000Z</time>
      </trkpt>
      <trkpt lat="42.64837833" lon="-2.75033667">
        <ele>705.0</ele>
        <time>2021-10-22T10:03:02.000Z</time>
      </trkpt>
      <trkpt lat="42.64837833" lon="-2.75033667">
        <ele>705.0</ele>
        <time>2021-10-22T10:03:03.000Z</time>
      </trkpt>
      <trkpt lat="42.64837833" lon="-2.75033667">
        <ele>705.0</ele>
        <time>2021-10-22T10:03:04.000Z</time>
      </trkpt>
      <trkpt lat="42.64837833" lon="-2.75033667">
        <ele>705.0</ele>
        <time>2021-10-22T10:03:05.000Z</time>
      </trkpt>
      <trkpt lat="42.64837833" lon="-2.75033667">
        <ele>705.0</ele>
        <time>2021-10-22T10:03:06.000Z</time>
      </trkpt>
      <trkpt lat="42.64837833" lon="-2.75033667">
        <ele>705.0</ele>
        <time>2021-10-22T10:03:07.000Z</time>
      </trkpt>
      <trkpt lat="42.64838" lon="-2.75033667">
        <ele>705.0</ele>
        <time>2021-10-22T10:03:08.000Z</time>
      </trkpt>
      <trkpt lat="42.64838" lon="-2.750335">
        <ele>705.0</ele>
        <time>2021-10-22T10:03:09.000Z</time>
      </trkpt>
      <trkpt lat="42.64838333" lon="-2.75033333">
        <ele>705.0</ele>
        <time>2021-10-22T10:03:10.000Z</time>
      </trkpt>
      <trkpt lat="42.64838167" lon="-2.750335">
        <ele>705.0</ele>
        <time>2021-10-22T10:03:11.000Z</time>
      </trkpt>
      <trkpt lat="42.64837833" lon="-2.75033333">
        <ele>705.0</ele>
        <time>2021-10-22T10:03:12.000Z</time>
      </trkpt>
      <trkpt lat="42.64837667" lon="-2.75033333">
        <ele>705.0</ele>
        <time>2021-10-22T10:03:13.000Z</time>
      </trkpt>
      <trkpt lat="42.64837333" lon="-2.750335">
        <ele>705.0</ele>
        <time>2021-10-22T10:03:14.000Z</time>
      </trkpt>
      <trkpt lat="42.64837167" lon="-2.75033833">
        <ele>705.0</ele>
        <time>2021-10-22T10:03:15.000Z</time>
      </trkpt>
      <trkpt lat="42.64836667" lon="-2.75034">
        <ele>705.0</ele>
        <time>2021-10-22T10:03:16.000Z</time>
      </trkpt>
      <trkpt lat="42.64836167" lon="-2.75034333">
        <ele>705.0</ele>
        <time>2021-10-22T10:03:17.000Z</time>
      </trkpt>
      <trkpt lat="42.64835833" lon="-2.750345">
        <ele>705.0</ele>
        <time>2021-10-22T10:03:18.000Z</time>
      </trkpt>
      <trkpt lat="42.64835333" lon="-2.75034667">
        <ele>705.0</ele>
        <time>2021-10-22T10:03:19.000Z</time>
      </trkpt>
      <trkpt lat="42.64835333" lon="-2.750345">
        <ele>706.0</ele>
        <time>2021-10-22T10:03:20.000Z</time>
      </trkpt>
      <trkpt lat="42.64835333" lon="-2.75034">
        <ele>706.0</ele>
        <time>2021-10-22T10:03:21.000Z</time>
      </trkpt>
      <trkpt lat="42.648355" lon="-2.75033667">
        <ele>705.0</ele>
        <time>2021-10-22T10:03:22.000Z</time>
      </trkpt>
      <trkpt lat="42.64836" lon="-2.75033333">
        <ele>705.0</ele>
        <time>2021-10-22T10:03:23.000Z</time>
      </trkpt>
      <trkpt lat="42.648365" lon="-2.75033833">
        <ele>705.0</ele>
        <time>2021-10-22T10:03:24.000Z</time>
      </trkpt>
      <trkpt lat="42.64837" lon="-2.75033833">
        <ele>705.0</ele>
        <time>2021-10-22T10:03:25.000Z</time>
      </trkpt>
      <trkpt lat="42.64837167" lon="-2.75033833">
        <ele>705.0</ele>
        <time>2021-10-22T10:03:26.000Z</time>
      </trkpt>
      <trkpt lat="42.64837167" lon="-2.75033833">
        <ele>705.0</ele>
        <time>2021-10-22T10:03:27.000Z</time>
      </trkpt>
      <trkpt lat="42.64837167" lon="-2.75033667">
        <ele>705.0</ele>
        <time>2021-10-22T10:03:28.000Z</time>
      </trkpt>
      <trkpt lat="42.64837333" lon="-2.75033667">
        <ele>705.0</ele>
        <time>2021-10-22T10:03:29.000Z</time>
      </trkpt>
      <trkpt lat="42.648375" lon="-2.75033667">
        <ele>705.0</ele>
        <time>2021-10-22T10:03:30.000Z</time>
      </trkpt>
      <trkpt lat="42.64837667" lon="-2.750335">
        <ele>705.0</ele>
        <time>2021-10-22T10:03:31.000Z</time>
      </trkpt>
      <trkpt lat="42.64837667" lon="-2.750335">
        <ele>705.0</ele>
        <time>2021-10-22T10:03:32.000Z</time>
      </trkpt>
      <trkpt lat="42.64837833" lon="-2.750335">
        <ele>705.0</ele>
        <time>2021-10-22T10:03:33.000Z</time>
      </trkpt>
      <trkpt lat="42.64837667" lon="-2.750335">
        <ele>705.0</ele>
        <time>2021-10-22T10:03:34.000Z</time>
      </trkpt>
      <trkpt lat="42.64837833" lon="-2.750335">
        <ele>705.0</ele>
        <time>2021-10-22T10:03:35.000Z</time>
      </trkpt>
      <trkpt lat="42.64837833" lon="-2.750335">
        <ele>705.0</ele>
        <time>2021-10-22T10:03:36.000Z</time>
      </trkpt>
      <trkpt lat="42.64838" lon="-2.750335">
        <ele>705.0</ele>
        <time>2021-10-22T10:03:37.000Z</time>
      </trkpt>
      <trkpt lat="42.64838" lon="-2.750335">
        <ele>705.0</ele>
        <time>2021-10-22T10:03:38.000Z</time>
      </trkpt>
      <trkpt lat="42.64838" lon="-2.750335">
        <ele>705.0</ele>
        <time>2021-10-22T10:03:39.000Z</time>
      </trkpt>
      <trkpt lat="42.64838167" lon="-2.750335">
        <ele>705.0</ele>
        <time>2021-10-22T10:03:40.000Z</time>
      </trkpt>
      <trkpt lat="42.64838167" lon="-2.750335">
        <ele>706.0</ele>
        <time>2021-10-22T10:03:41.000Z</time>
      </trkpt>
      <trkpt lat="42.64838167" lon="-2.75033333">
        <ele>706.0</ele>
        <time>2021-10-22T10:03:42.000Z</time>
      </trkpt>
      <trkpt lat="42.64838333" lon="-2.75033333">
        <ele>706.0</ele>
        <time>2021-10-22T10:03:43.000Z</time>
      </trkpt>
      <trkpt lat="42.64838333" lon="-2.75033333">
        <ele>706.0</ele>
        <time>2021-10-22T10:03:44.000Z</time>
      </trkpt>
      <trkpt lat="42.64838333" lon="-2.75033333">
        <ele>706.0</ele>
        <time>2021-10-22T10:03:45.000Z</time>
      </trkpt>
      <trkpt lat="42.648385" lon="-2.75033333">
        <ele>706.0</ele>
        <time>2021-10-22T10:03:46.000Z</time>
      </trkpt>
      <trkpt lat="42.648385" lon="-2.75033333">
        <ele>706.0</ele>
        <time>2021-10-22T10:03:47.000Z</time>
      </trkpt>
      <trkpt lat="42.648385" lon="-2.75033333">
        <ele>706.0</ele>
        <time>2021-10-22T10:03:48.000Z</time>
      </trkpt>
      <trkpt lat="42.648385" lon="-2.75033333">
        <ele>706.0</ele>
        <time>2021-10-22T10:03:49.000Z</time>
      </trkpt>
      <trkpt lat="42.648385" lon="-2.75033333">
        <ele>706.0</ele>
        <time>2021-10-22T10:03:50.000Z</time>
      </trkpt>
      <trkpt lat="42.64838667" lon="-2.75033333">
        <ele>706.0</ele>
        <time>2021-10-22T10:03:51.000Z</time>
      </trkpt>
      <trkpt lat="42.64838667" lon="-2.75033333">
        <ele>706.0</ele>
        <time>2021-10-22T10:03:52.000Z</time>
      </trkpt>
      <trkpt lat="42.64838667" lon="-2.75033333">
        <ele>706.0</ele>
        <time>2021-10-22T10:03:53.000Z</time>
      </trkpt>
      <trkpt lat="42.64838667" lon="-2.75033333">
        <ele>706.0</ele>
        <time>2021-10-22T10:03:54.000Z</time>
      </trkpt>
      <trkpt lat="42.64838667" lon="-2.75033333">
        <ele>706.0</ele>
        <time>2021-10-22T10:03:55.000Z</time>
      </trkpt>
      <trkpt lat="42.64838667" lon="-2.75033333">
        <ele>706.0</ele>
        <time>2021-10-22T10:03:56.000Z</time>
      </trkpt>
      <trkpt lat="42.64838667" lon="-2.75033333">
        <ele>706.0</ele>
        <time>2021-10-22T10:03:57.000Z</time>
      </trkpt>
      <trkpt lat="42.64838667" lon="-2.75033333">
        <ele>706.0</ele>
        <time>2021-10-22T10:03:58.000Z</time>
      </trkpt>
      <trkpt lat="42.64838667" lon="-2.75033333">
        <ele>706.0</ele>
        <time>2021-10-22T10:03:59.000Z</time>
      </trkpt>
      <trkpt lat="42.64838667" lon="-2.75033333">
        <ele>706.0</ele>
        <time>2021-10-22T10:04:00.000Z</time>
      </trkpt>
      <trkpt lat="42.64838833" lon="-2.75033333">
        <ele>706.0</ele>
        <time>2021-10-22T10:04:01.000Z</time>
      </trkpt>
      <trkpt lat="42.64838833" lon="-2.75033333">
        <ele>706.0</ele>
        <time>2021-10-22T10:04:02.000Z</time>
      </trkpt>
      <trkpt lat="42.64838833" lon="-2.75033333">
        <ele>706.0</ele>
        <time>2021-10-22T10:04:03.000Z</time>
      </trkpt>
      <trkpt lat="42.64838833" lon="-2.75033333">
        <ele>706.0</ele>
        <time>2021-10-22T10:04:04.000Z</time>
      </trkpt>
      <trkpt lat="42.64838833" lon="-2.75033333">
        <ele>706.0</ele>
        <time>2021-10-22T10:04:05.000Z</time>
      </trkpt>
      <trkpt lat="42.64838833" lon="-2.75033333">
        <ele>706.0</ele>
        <time>2021-10-22T10:04:06.000Z</time>
      </trkpt>
      <trkpt lat="42.64838833" lon="-2.75033333">
        <ele>706.0</ele>
        <time>2021-10-22T10:04:07.000Z</time>
      </trkpt>
      <trkpt lat="42.64838833" lon="-2.75033333">
        <ele>706.0</ele>
        <time>2021-10-22T10:04:08.000Z</time>
      </trkpt>
      <trkpt lat="42.64838833" lon="-2.75033333">
        <ele>706.0</ele>
        <time>2021-10-22T10:04:09.000Z</time>
      </trkpt>
      <trkpt lat="42.64838833" lon="-2.75033333">
        <ele>706.0</ele>
        <time>2021-10-22T10:04:10.000Z</time>
      </trkpt>
      <trkpt lat="42.64838833" lon="-2.75033333">
        <ele>706.0</ele>
        <time>2021-10-22T10:04:11.000Z</time>
      </trkpt>
      <trkpt lat="42.64838833" lon="-2.75033333">
        <ele>706.0</ele>
        <time>2021-10-22T10:04:12.000Z</time>
      </trkpt>
      <trkpt lat="42.64838833" lon="-2.75033333">
        <ele>706.0</ele>
        <time>2021-10-22T10:04:13.000Z</time>
      </trkpt>
      <trkpt lat="42.64838833" lon="-2.75033333">
        <ele>706.0</ele>
        <time>2021-10-22T10:04:14.000Z</time>
      </trkpt>
      <trkpt lat="42.64838833" lon="-2.75033333">
        <ele>706.0</ele>
        <time>2021-10-22T10:04:15.000Z</time>
      </trkpt>
      <trkpt lat="42.64838833" lon="-2.75033333">
        <ele>706.0</ele>
        <time>2021-10-22T10:04:16.000Z</time>
      </trkpt>
      <trkpt lat="42.64838833" lon="-2.75033333">
        <ele>706.0</ele>
        <time>2021-10-22T10:04:17.000Z</time>
      </trkpt>
      <trkpt lat="42.64838833" lon="-2.75033333">
        <ele>706.0</ele>
        <time>2021-10-22T10:04:18.000Z</time>
      </trkpt>
      <trkpt lat="42.64838833" lon="-2.75033333">
        <ele>706.0</ele>
        <time>2021-10-22T10:04:19.000Z</time>
      </trkpt>
      <trkpt lat="42.64838833" lon="-2.75033333">
        <ele>706.0</ele>
        <time>2021-10-22T10:04:20.000Z</time>
      </trkpt>
      <trkpt lat="42.64838833" lon="-2.75033333">
        <ele>706.0</ele>
        <time>2021-10-22T10:04:21.000Z</time>
      </trkpt>
      <trkpt lat="42.64838833" lon="-2.75033333">
        <ele>706.0</ele>
        <time>2021-10-22T10:04:22.000Z</time>
      </trkpt>
      <trkpt lat="42.64838833" lon="-2.75033333">
        <ele>706.0</ele>
        <time>2021-10-22T10:04:23.000Z</time>
      </trkpt>
      <trkpt lat="42.64838833" lon="-2.75033333">
        <ele>706.0</ele>
        <time>2021-10-22T10:04:24.000Z</time>
      </trkpt>
      <trkpt lat="42.64838833" lon="-2.75033333">
        <ele>706.0</ele>
        <time>2021-10-22T10:04:25.000Z</time>
      </trkpt>
      <trkpt lat="42.64838833" lon="-2.75033333">
        <ele>706.0</ele>
        <time>2021-10-22T10:04:26.000Z</time>
      </trkpt>
      <trkpt lat="42.64839" lon="-2.75033333">
        <ele>706.0</ele>
        <time>2021-10-22T10:04:27.000Z</time>
      </trkpt>
      <trkpt lat="42.64839" lon="-2.75033333">
        <ele>706.0</ele>
        <time>2021-10-22T10:04:28.000Z</time>
      </trkpt>
      <trkpt lat="42.64839" lon="-2.75033333">
        <ele>706.0</ele>
        <time>2021-10-22T10:04:29.000Z</time>
      </trkpt>
      <trkpt lat="42.64839" lon="-2.75033333">
        <ele>706.0</ele>
        <time>2021-10-22T10:04:30.000Z</time>
      </trkpt>
      <trkpt lat="42.64839" lon="-2.75033333">
        <ele>706.0</ele>
        <time>2021-10-22T10:04:31.000Z</time>
      </trkpt>
      <trkpt lat="42.64839" lon="-2.750335">
        <ele>706.0</ele>
        <time>2021-10-22T10:04:32.000Z</time>
      </trkpt>
      <trkpt lat="42.64839" lon="-2.750335">
        <ele>706.0</ele>
        <time>2021-10-22T10:04:33.000Z</time>
      </trkpt>
      <trkpt lat="42.64839" lon="-2.750335">
        <ele>706.0</ele>
        <time>2021-10-22T10:04:34.000Z</time>
      </trkpt>
      <trkpt lat="42.64839167" lon="-2.750335">
        <ele>706.0</ele>
        <time>2021-10-22T10:04:35.000Z</time>
      </trkpt>
      <trkpt lat="42.64839167" lon="-2.750335">
        <ele>706.0</ele>
        <time>2021-10-22T10:04:36.000Z</time>
      </trkpt>
      <trkpt lat="42.64839167" lon="-2.750335">
        <ele>706.0</ele>
        <time>2021-10-22T10:04:37.000Z</time>
      </trkpt>
      <trkpt lat="42.64839167" lon="-2.750335">
        <ele>706.0</ele>
        <time>2021-10-22T10:04:38.000Z</time>
      </trkpt>
      <trkpt lat="42.64839167" lon="-2.750335">
        <ele>706.0</ele>
        <time>2021-10-22T10:04:39.000Z</time>
      </trkpt>
      <trkpt lat="42.64839167" lon="-2.750335">
        <ele>706.0</ele>
        <time>2021-10-22T10:04:40.000Z</time>
      </trkpt>
      <trkpt lat="42.64839167" lon="-2.75033667">
        <ele>706.0</ele>
        <time>2021-10-22T10:04:41.000Z</time>
      </trkpt>
      <trkpt lat="42.64839167" lon="-2.75033667">
        <ele>706.0</ele>
        <time>2021-10-22T10:04:42.000Z</time>
      </trkpt>
      <trkpt lat="42.64839167" lon="-2.75033833">
        <ele>706.0</ele>
        <time>2021-10-22T10:04:43.000Z</time>
      </trkpt>
      <trkpt lat="42.64839167" lon="-2.75033833">
        <ele>706.0</ele>
        <time>2021-10-22T10:04:44.000Z</time>
      </trkpt>
      <trkpt lat="42.64839333" lon="-2.75033833">
        <ele>706.0</ele>
        <time>2021-10-22T10:04:45.000Z</time>
      </trkpt>
      <trkpt lat="42.64839333" lon="-2.75033833">
        <ele>706.0</ele>
        <time>2021-10-22T10:04:46.000Z</time>
      </trkpt>
      <trkpt lat="42.64839333" lon="-2.75034">
        <ele>706.0</ele>
        <time>2021-10-22T10:04:47.000Z</time>
      </trkpt>
      <trkpt lat="42.64839333" lon="-2.75034167">
        <ele>706.0</ele>
        <time>2021-10-22T10:04:48.000Z</time>
      </trkpt>
      <trkpt lat="42.64839333" lon="-2.75034167">
        <ele>706.0</ele>
        <time>2021-10-22T10:04:49.000Z</time>
      </trkpt>
      <trkpt lat="42.64839333" lon="-2.75034333">
        <ele>706.0</ele>
        <time>2021-10-22T10:04:50.000Z</time>
      </trkpt>
      <trkpt lat="42.64839333" lon="-2.75034333">
        <ele>706.0</ele>
        <time>2021-10-22T10:04:51.000Z</time>
      </trkpt>
      <trkpt lat="42.64839333" lon="-2.750345">
        <ele>706.0</ele>
        <time>2021-10-22T10:04:52.000Z</time>
      </trkpt>
      <trkpt lat="42.648395" lon="-2.750345">
        <ele>706.0</ele>
        <time>2021-10-22T10:04:53.000Z</time>
      </trkpt>
      <trkpt lat="42.648395" lon="-2.750345">
        <ele>706.0</ele>
        <time>2021-10-22T10:04:54.000Z</time>
      </trkpt>
      <trkpt lat="42.648395" lon="-2.75034667">
        <ele>706.0</ele>
        <time>2021-10-22T10:04:55.000Z</time>
      </trkpt>
      <trkpt lat="42.648395" lon="-2.75034667">
        <ele>706.0</ele>
        <time>2021-10-22T10:04:56.000Z</time>
      </trkpt>
      <trkpt lat="42.648395" lon="-2.75034833">
        <ele>706.0</ele>
        <time>2021-10-22T10:04:57.000Z</time>
      </trkpt>
      <trkpt lat="42.648395" lon="-2.75034833">
        <ele>706.0</ele>
        <time>2021-10-22T10:04:58.000Z</time>
      </trkpt>
      <trkpt lat="42.648395" lon="-2.75035">
        <ele>706.0</ele>
        <time>2021-10-22T10:04:59.000Z</time>
      </trkpt>
      <trkpt lat="42.648395" lon="-2.75035">
        <ele>706.0</ele>
        <time>2021-10-22T10:05:00.000Z</time>
      </trkpt>
      <trkpt lat="42.648395" lon="-2.75035167">
        <ele>706.0</ele>
        <time>2021-10-22T10:05:01.000Z</time>
      </trkpt>
      <trkpt lat="42.648395" lon="-2.75035333">
        <ele>706.0</ele>
        <time>2021-10-22T10:05:02.000Z</time>
      </trkpt>
      <trkpt lat="42.648395" lon="-2.750355">
        <ele>706.0</ele>
        <time>2021-10-22T10:05:03.000Z</time>
      </trkpt>
      <trkpt lat="42.648395" lon="-2.750355">
        <ele>706.0</ele>
        <time>2021-10-22T10:05:04.000Z</time>
      </trkpt>
      <trkpt lat="42.648395" lon="-2.75035667">
        <ele>707.0</ele>
        <time>2021-10-22T10:05:05.000Z</time>
      </trkpt>
      <trkpt lat="42.648395" lon="-2.75035833">
        <ele>707.0</ele>
        <time>2021-10-22T10:05:06.000Z</time>
      </trkpt>
      <trkpt lat="42.648395" lon="-2.75036">
        <ele>707.0</ele>
        <time>2021-10-22T10:05:07.000Z</time>
      </trkpt>
      <trkpt lat="42.648395" lon="-2.75036167">
        <ele>707.0</ele>
        <time>2021-10-22T10:05:08.000Z</time>
      </trkpt>
      <trkpt lat="42.648395" lon="-2.75036167">
        <ele>707.0</ele>
        <time>2021-10-22T10:05:09.000Z</time>
      </trkpt>
      <trkpt lat="42.648395" lon="-2.75036333">
        <ele>707.0</ele>
        <time>2021-10-22T10:05:10.000Z</time>
      </trkpt>
      <trkpt lat="42.648395" lon="-2.75036333">
        <ele>707.0</ele>
        <time>2021-10-22T10:05:11.000Z</time>
      </trkpt>
      <trkpt lat="42.648395" lon="-2.750365">
        <ele>707.0</ele>
        <time>2021-10-22T10:05:12.000Z</time>
      </trkpt>
      <trkpt lat="42.648395" lon="-2.75036667">
        <ele>707.0</ele>
        <time>2021-10-22T10:05:13.000Z</time>
      </trkpt>
      <trkpt lat="42.648395" lon="-2.75036667">
        <ele>707.0</ele>
        <time>2021-10-22T10:05:14.000Z</time>
      </trkpt>
      <trkpt lat="42.648395" lon="-2.75037">
        <ele>707.0</ele>
        <time>2021-10-22T10:05:15.000Z</time>
      </trkpt>
      <trkpt lat="42.648395" lon="-2.75037">
        <ele>707.0</ele>
        <time>2021-10-22T10:05:16.000Z</time>
      </trkpt>
      <trkpt lat="42.648395" lon="-2.75037167">
        <ele>707.0</ele>
        <time>2021-10-22T10:05:17.000Z</time>
      </trkpt>
      <trkpt lat="42.64839333" lon="-2.75037333">
        <ele>707.0</ele>
        <time>2021-10-22T10:05:18.000Z</time>
      </trkpt>
      <trkpt lat="42.64839333" lon="-2.750375">
        <ele>707.0</ele>
        <time>2021-10-22T10:05:19.000Z</time>
      </trkpt>
      <trkpt lat="42.648395" lon="-2.750375">
        <ele>707.0</ele>
        <time>2021-10-22T10:05:20.000Z</time>
      </trkpt>
      <trkpt lat="42.648395" lon="-2.75037667">
        <ele>707.0</ele>
        <time>2021-10-22T10:05:21.000Z</time>
      </trkpt>
      <trkpt lat="42.64839333" lon="-2.75037833">
        <ele>707.0</ele>
        <time>2021-10-22T10:05:22.000Z</time>
      </trkpt>
      <trkpt lat="42.64839333" lon="-2.75038">
        <ele>708.0</ele>
        <time>2021-10-22T10:05:23.000Z</time>
      </trkpt>
      <trkpt lat="42.64839333" lon="-2.75038">
        <ele>708.0</ele>
        <time>2021-10-22T10:05:24.000Z</time>
      </trkpt>
      <trkpt lat="42.64839333" lon="-2.75038">
        <ele>708.0</ele>
        <time>2021-10-22T10:05:25.000Z</time>
      </trkpt>
      <trkpt lat="42.64839333" lon="-2.75038167">
        <ele>708.0</ele>
        <time>2021-10-22T10:05:26.000Z</time>
      </trkpt>
      <trkpt lat="42.64839333" lon="-2.75038333">
        <ele>708.0</ele>
        <time>2021-10-22T10:05:27.000Z</time>
      </trkpt>
      <trkpt lat="42.64839333" lon="-2.750385">
        <ele>708.0</ele>
        <time>2021-10-22T10:05:28.000Z</time>
      </trkpt>
      <trkpt lat="42.64839167" lon="-2.750385">
        <ele>708.0</ele>
        <time>2021-10-22T10:05:29.000Z</time>
      </trkpt>
      <trkpt lat="42.64839167" lon="-2.75038667">
        <ele>708.0</ele>
        <time>2021-10-22T10:05:30.000Z</time>
      </trkpt>
      <trkpt lat="42.64839167" lon="-2.75038833">
        <ele>708.0</ele>
        <time>2021-10-22T10:05:31.000Z</time>
      </trkpt>
      <trkpt lat="42.64839167" lon="-2.75038833">
        <ele>708.0</ele>
        <time>2021-10-22T10:05:32.000Z</time>
      </trkpt>
      <trkpt lat="42.64839167" lon="-2.75039">
        <ele>708.0</ele>
        <time>2021-10-22T10:05:33.000Z</time>
      </trkpt>
      <trkpt lat="42.64839167" lon="-2.75039167">
        <ele>708.0</ele>
        <time>2021-10-22T10:05:34.000Z</time>
      </trkpt>
      <trkpt lat="42.64839" lon="-2.750395">
        <ele>708.0</ele>
        <time>2021-10-22T10:05:35.000Z</time>
      </trkpt>
      <trkpt lat="42.64839167" lon="-2.750395">
        <ele>708.0</ele>
        <time>2021-10-22T10:05:36.000Z</time>
      </trkpt>
      <trkpt lat="42.64839167" lon="-2.75039333">
        <ele>708.0</ele>
        <time>2021-10-22T10:05:37.000Z</time>
      </trkpt>
      <trkpt lat="42.64839167" lon="-2.750395">
        <ele>708.0</ele>
        <time>2021-10-22T10:05:38.000Z</time>
      </trkpt>
      <trkpt lat="42.64839167" lon="-2.75039667">
        <ele>708.0</ele>
        <time>2021-10-22T10:05:39.000Z</time>
      </trkpt>
      <trkpt lat="42.64839167" lon="-2.75039667">
        <ele>708.0</ele>
        <time>2021-10-22T10:05:40.000Z</time>
      </trkpt>
      <trkpt lat="42.64839167" lon="-2.750395">
        <ele>708.0</ele>
        <time>2021-10-22T10:05:41.000Z</time>
      </trkpt>
      <trkpt lat="42.64839167" lon="-2.750395">
        <ele>708.0</ele>
        <time>2021-10-22T10:05:42.000Z</time>
      </trkpt>
      <trkpt lat="42.64839167" lon="-2.75039667">
        <ele>708.0</ele>
        <time>2021-10-22T10:05:43.000Z</time>
      </trkpt>
      <trkpt lat="42.64839" lon="-2.75039833">
        <ele>708.0</ele>
        <time>2021-10-22T10:05:44.000Z</time>
      </trkpt>
      <trkpt lat="42.64839" lon="-2.75039833">
        <ele>708.0</ele>
        <time>2021-10-22T10:05:45.000Z</time>
      </trkpt>
      <trkpt lat="42.64839" lon="-2.7504">
        <ele>708.0</ele>
        <time>2021-10-22T10:05:46.000Z</time>
      </trkpt>
      <trkpt lat="42.64839" lon="-2.75040167">
        <ele>708.0</ele>
        <time>2021-10-22T10:05:47.000Z</time>
      </trkpt>
      <trkpt lat="42.64839" lon="-2.75040167">
        <ele>708.0</ele>
        <time>2021-10-22T10:05:48.000Z</time>
      </trkpt>
      <trkpt lat="42.64839" lon="-2.75040167">
        <ele>708.0</ele>
        <time>2021-10-22T10:05:49.000Z</time>
      </trkpt>
      <trkpt lat="42.64839" lon="-2.75040167">
        <ele>708.0</ele>
        <time>2021-10-22T10:05:50.000Z</time>
      </trkpt>
      <trkpt lat="42.64839" lon="-2.75040333">
        <ele>708.0</ele>
        <time>2021-10-22T10:05:51.000Z</time>
      </trkpt>
      <trkpt lat="42.64839" lon="-2.75040333">
        <ele>708.0</ele>
        <time>2021-10-22T10:05:52.000Z</time>
      </trkpt>
      <trkpt lat="42.64839" lon="-2.75040333">
        <ele>708.0</ele>
        <time>2021-10-22T10:05:53.000Z</time>
      </trkpt>
      <trkpt lat="42.64838667" lon="-2.75040333">
        <ele>708.0</ele>
        <time>2021-10-22T10:05:54.000Z</time>
      </trkpt>
      <trkpt lat="42.64838833" lon="-2.75040333">
        <ele>708.0</ele>
        <time>2021-10-22T10:05:55.000Z</time>
      </trkpt>
      <trkpt lat="42.64839" lon="-2.7504">
        <ele>708.0</ele>
        <time>2021-10-22T10:05:56.000Z</time>
      </trkpt>
      <trkpt lat="42.64839167" lon="-2.75039833">
        <ele>708.0</ele>
        <time>2021-10-22T10:05:57.000Z</time>
      </trkpt>
      <trkpt lat="42.64839167" lon="-2.75039667">
        <ele>708.0</ele>
        <time>2021-10-22T10:05:58.000Z</time>
      </trkpt>
      <trkpt lat="42.64839167" lon="-2.750395">
        <ele>708.0</ele>
        <time>2021-10-22T10:05:59.000Z</time>
      </trkpt>
      <trkpt lat="42.64839167" lon="-2.75039167">
        <ele>708.0</ele>
        <time>2021-10-22T10:06:00.000Z</time>
      </trkpt>
      <trkpt lat="42.64839167" lon="-2.75039">
        <ele>707.0</ele>
        <time>2021-10-22T10:06:01.000Z</time>
      </trkpt>
      <trkpt lat="42.64839167" lon="-2.75038667">
        <ele>707.0</ele>
        <time>2021-10-22T10:06:02.000Z</time>
      </trkpt>
      <trkpt lat="42.64839167" lon="-2.750385">
        <ele>707.0</ele>
        <time>2021-10-22T10:06:03.000Z</time>
      </trkpt>
      <trkpt lat="42.64839167" lon="-2.75038333">
        <ele>707.0</ele>
        <time>2021-10-22T10:06:04.000Z</time>
      </trkpt>
      <trkpt lat="42.64838667" lon="-2.75038167">
        <ele>707.0</ele>
        <time>2021-10-22T10:06:05.000Z</time>
      </trkpt>
      <trkpt lat="42.64838333" lon="-2.75038333">
        <ele>707.0</ele>
        <time>2021-10-22T10:06:06.000Z</time>
      </trkpt>
      <trkpt lat="42.64838" lon="-2.75038333">
        <ele>707.0</ele>
        <time>2021-10-22T10:06:07.000Z</time>
      </trkpt>
      <trkpt lat="42.64837833" lon="-2.75038167">
        <ele>707.0</ele>
        <time>2021-10-22T10:06:08.000Z</time>
      </trkpt>
      <trkpt lat="42.64838" lon="-2.75037833">
        <ele>707.0</ele>
        <time>2021-10-22T10:06:09.000Z</time>
      </trkpt>
      <trkpt lat="42.64838167" lon="-2.750375">
        <ele>706.0</ele>
        <time>2021-10-22T10:06:10.000Z</time>
      </trkpt>
      <trkpt lat="42.64838333" lon="-2.75037333">
        <ele>706.0</ele>
        <time>2021-10-22T10:06:11.000Z</time>
      </trkpt>
      <trkpt lat="42.64838333" lon="-2.75037333">
        <ele>706.0</ele>
        <time>2021-10-22T10:06:12.000Z</time>
      </trkpt>
      <trkpt lat="42.64838333" lon="-2.75037">
        <ele>706.0</ele>
        <time>2021-10-22T10:06:13.000Z</time>
      </trkpt>
      <trkpt lat="42.64838333" lon="-2.75037">
        <ele>706.0</ele>
        <time>2021-10-22T10:06:14.000Z</time>
      </trkpt>
      <trkpt lat="42.64838333" lon="-2.75037">
        <ele>706.0</ele>
        <time>2021-10-22T10:06:15.000Z</time>
      </trkpt>
      <trkpt lat="42.64838167" lon="-2.75036833">
        <ele>706.0</ele>
        <time>2021-10-22T10:06:16.000Z</time>
      </trkpt>
      <trkpt lat="42.64838" lon="-2.75036667">
        <ele>706.0</ele>
        <time>2021-10-22T10:06:17.000Z</time>
      </trkpt>
      <trkpt lat="42.64838" lon="-2.75036667">
        <ele>706.0</ele>
        <time>2021-10-22T10:06:18.000Z</time>
      </trkpt>
      <trkpt lat="42.64838" lon="-2.750365">
        <ele>706.0</ele>
        <time>2021-10-22T10:06:19.000Z</time>
      </trkpt>
      <trkpt lat="42.64838" lon="-2.75036667">
        <ele>706.0</ele>
        <time>2021-10-22T10:06:20.000Z</time>
      </trkpt>
      <trkpt lat="42.64837833" lon="-2.75036667">
        <ele>706.0</ele>
        <time>2021-10-22T10:06:21.000Z</time>
      </trkpt>
      <trkpt lat="42.64837833" lon="-2.75036667">
        <ele>706.0</ele>
        <time>2021-10-22T10:06:22.000Z</time>
      </trkpt>
      <trkpt lat="42.64837833" lon="-2.750365">
        <ele>706.0</ele>
        <time>2021-10-22T10:06:23.000Z</time>
      </trkpt>
      <trkpt lat="42.64837833" lon="-2.750365">
        <ele>706.0</ele>
        <time>2021-10-22T10:06:24.000Z</time>
      </trkpt>
      <trkpt lat="42.64837667" lon="-2.75036667">
        <ele>706.0</ele>
        <time>2021-10-22T10:06:25.000Z</time>
      </trkpt>
      <trkpt lat="42.64837667" lon="-2.75036667">
        <ele>706.0</ele>
        <time>2021-10-22T10:06:26.000Z</time>
      </trkpt>
      <trkpt lat="42.64837667" lon="-2.75036667">
        <ele>706.0</ele>
        <time>2021-10-22T10:06:27.000Z</time>
      </trkpt>
      <trkpt lat="42.64837667" lon="-2.75036667">
        <ele>705.0</ele>
        <time>2021-10-22T10:06:28.000Z</time>
      </trkpt>
      <trkpt lat="42.64837667" lon="-2.75036667">
        <ele>705.0</ele>
        <time>2021-10-22T10:06:29.000Z</time>
      </trkpt>
      <trkpt lat="42.64837667" lon="-2.75036833">
        <ele>705.0</ele>
        <time>2021-10-22T10:06:30.000Z</time>
      </trkpt>
      <trkpt lat="42.64837667" lon="-2.75036833">
        <ele>705.0</ele>
        <time>2021-10-22T10:06:31.000Z</time>
      </trkpt>
      <trkpt lat="42.64837667" lon="-2.75036833">
        <ele>705.0</ele>
        <time>2021-10-22T10:06:32.000Z</time>
      </trkpt>
      <trkpt lat="42.64837667" lon="-2.75036833">
        <ele>705.0</ele>
        <time>2021-10-22T10:06:33.000Z</time>
      </trkpt>
      <trkpt lat="42.64837667" lon="-2.75036833">
        <ele>705.0</ele>
        <time>2021-10-22T10:06:34.000Z</time>
      </trkpt>
      <trkpt lat="42.648375" lon="-2.75036667">
        <ele>705.0</ele>
        <time>2021-10-22T10:06:35.000Z</time>
      </trkpt>
      <trkpt lat="42.64837333" lon="-2.75036667">
        <ele>705.0</ele>
        <time>2021-10-22T10:06:36.000Z</time>
      </trkpt>
      <trkpt lat="42.64837333" lon="-2.75036833">
        <ele>705.0</ele>
        <time>2021-10-22T10:06:37.000Z</time>
      </trkpt>
      <trkpt lat="42.64837167" lon="-2.75036667">
        <ele>705.0</ele>
        <time>2021-10-22T10:06:38.000Z</time>
      </trkpt>
      <trkpt lat="42.64837167" lon="-2.750365">
        <ele>705.0</ele>
        <time>2021-10-22T10:06:39.000Z</time>
      </trkpt>
      <trkpt lat="42.64837" lon="-2.75036667">
        <ele>705.0</ele>
        <time>2021-10-22T10:06:40.000Z</time>
      </trkpt>
      <trkpt lat="42.64836833" lon="-2.75036667">
        <ele>705.0</ele>
        <time>2021-10-22T10:06:41.000Z</time>
      </trkpt>
      <trkpt lat="42.64836833" lon="-2.750365">
        <ele>705.0</ele>
        <time>2021-10-22T10:06:42.000Z</time>
      </trkpt>
      <trkpt lat="42.64836667" lon="-2.75036333">
        <ele>705.0</ele>
        <time>2021-10-22T10:06:43.000Z</time>
      </trkpt>
      <trkpt lat="42.64836667" lon="-2.75036167">
        <ele>705.0</ele>
        <time>2021-10-22T10:06:44.000Z</time>
      </trkpt>
      <trkpt lat="42.648365" lon="-2.75036167">
        <ele>705.0</ele>
        <time>2021-10-22T10:06:45.000Z</time>
      </trkpt>
      <trkpt lat="42.648365" lon="-2.75036">
        <ele>705.0</ele>
        <time>2021-10-22T10:06:46.000Z</time>
      </trkpt>
      <trkpt lat="42.64836333" lon="-2.75035833">
        <ele>705.0</ele>
        <time>2021-10-22T10:06:47.000Z</time>
      </trkpt>
      <trkpt lat="42.64836333" lon="-2.75035667">
        <ele>705.0</ele>
        <time>2021-10-22T10:06:48.000Z</time>
      </trkpt>
      <trkpt lat="42.64836333" lon="-2.75035667">
        <ele>705.0</ele>
        <time>2021-10-22T10:06:49.000Z</time>
      </trkpt>
      <trkpt lat="42.64836333" lon="-2.750355">
        <ele>705.0</ele>
        <time>2021-10-22T10:06:50.000Z</time>
      </trkpt>
      <trkpt lat="42.64836167" lon="-2.75035333">
        <ele>705.0</ele>
        <time>2021-10-22T10:06:51.000Z</time>
      </trkpt>
      <trkpt lat="42.64836167" lon="-2.75035333">
        <ele>705.0</ele>
        <time>2021-10-22T10:06:52.000Z</time>
      </trkpt>
      <trkpt lat="42.64836167" lon="-2.75035333">
        <ele>705.0</ele>
        <time>2021-10-22T10:06:53.000Z</time>
      </trkpt>
      <trkpt lat="42.64836167" lon="-2.75035167">
        <ele>705.0</ele>
        <time>2021-10-22T10:06:54.000Z</time>
      </trkpt>
      <trkpt lat="42.64836167" lon="-2.75035">
        <ele>705.0</ele>
        <time>2021-10-22T10:06:55.000Z</time>
      </trkpt>
      <trkpt lat="42.64836167" lon="-2.75035">
        <ele>705.0</ele>
        <time>2021-10-22T10:06:56.000Z</time>
      </trkpt>
      <trkpt lat="42.64836167" lon="-2.75034833">
        <ele>705.0</ele>
        <time>2021-10-22T10:06:57.000Z</time>
      </trkpt>
      <trkpt lat="42.64836167" lon="-2.75034833">
        <ele>705.0</ele>
        <time>2021-10-22T10:06:58.000Z</time>
      </trkpt>
      <trkpt lat="42.64836167" lon="-2.75035">
        <ele>705.0</ele>
        <time>2021-10-22T10:06:59.000Z</time>
      </trkpt>
      <trkpt lat="42.64836167" lon="-2.75035">
        <ele>705.0</ele>
        <time>2021-10-22T10:07:00.000Z</time>
      </trkpt>
      <trkpt lat="42.64836167" lon="-2.75035">
        <ele>705.0</ele>
        <time>2021-10-22T10:07:01.000Z</time>
      </trkpt>
      <trkpt lat="42.64836167" lon="-2.75035167">
        <ele>705.0</ele>
        <time>2021-10-22T10:07:02.000Z</time>
      </trkpt>
      <trkpt lat="42.64836167" lon="-2.75035167">
        <ele>705.0</ele>
        <time>2021-10-22T10:07:03.000Z</time>
      </trkpt>
      <trkpt lat="42.64836167" lon="-2.75035167">
        <ele>706.0</ele>
        <time>2021-10-22T10:07:04.000Z</time>
      </trkpt>
      <trkpt lat="42.64836167" lon="-2.75035167">
        <ele>706.0</ele>
        <time>2021-10-22T10:07:05.000Z</time>
      </trkpt>
      <trkpt lat="42.64836167" lon="-2.75035167">
        <ele>706.0</ele>
        <time>2021-10-22T10:07:06.000Z</time>
      </trkpt>
      <trkpt lat="42.64836167" lon="-2.75035167">
        <ele>706.0</ele>
        <time>2021-10-22T10:07:07.000Z</time>
      </trkpt>
      <trkpt lat="42.64836167" lon="-2.75035167">
        <ele>706.0</ele>
        <time>2021-10-22T10:07:08.000Z</time>
      </trkpt>
      <trkpt lat="42.64836167" lon="-2.75035167">
        <ele>706.0</ele>
        <time>2021-10-22T10:07:09.000Z</time>
      </trkpt>
      <trkpt lat="42.64836333" lon="-2.75035167">
        <ele>706.0</ele>
        <time>2021-10-22T10:07:10.000Z</time>
      </trkpt>
      <trkpt lat="42.64836333" lon="-2.75035167">
        <ele>706.0</ele>
        <time>2021-10-22T10:07:11.000Z</time>
      </trkpt>
      <trkpt lat="42.64836333" lon="-2.75035167">
        <ele>706.0</ele>
        <time>2021-10-22T10:07:12.000Z</time>
      </trkpt>
      <trkpt lat="42.64836333" lon="-2.75035167">
        <ele>706.0</ele>
        <time>2021-10-22T10:07:13.000Z</time>
      </trkpt>
      <trkpt lat="42.648365" lon="-2.75035167">
        <ele>706.0</ele>
        <time>2021-10-22T10:07:14.000Z</time>
      </trkpt>
      <trkpt lat="42.648365" lon="-2.75035167">
        <ele>706.0</ele>
        <time>2021-10-22T10:07:15.000Z</time>
      </trkpt>
      <trkpt lat="42.648365" lon="-2.75035333">
        <ele>706.0</ele>
        <time>2021-10-22T10:07:16.000Z</time>
      </trkpt>
      <trkpt lat="42.648365" lon="-2.750355">
        <ele>706.0</ele>
        <time>2021-10-22T10:07:17.000Z</time>
      </trkpt>
      <trkpt lat="42.64836667" lon="-2.750355">
        <ele>706.0</ele>
        <time>2021-10-22T10:07:18.000Z</time>
      </trkpt>
      <trkpt lat="42.64836833" lon="-2.75035333">
        <ele>706.0</ele>
        <time>2021-10-22T10:07:19.000Z</time>
      </trkpt>
      <trkpt lat="42.64837" lon="-2.75035333">
        <ele>706.0</ele>
        <time>2021-10-22T10:07:20.000Z</time>
      </trkpt>
      <trkpt lat="42.64837167" lon="-2.75035333">
        <ele>705.0</ele>
        <time>2021-10-22T10:07:21.000Z</time>
      </trkpt>
      <trkpt lat="42.64837333" lon="-2.750355">
        <ele>705.0</ele>
        <time>2021-10-22T10:07:22.000Z</time>
      </trkpt>
      <trkpt lat="42.64837333" lon="-2.75035833">
        <ele>705.0</ele>
        <time>2021-10-22T10:07:23.000Z</time>
      </trkpt>
      <trkpt lat="42.648375" lon="-2.75036167">
        <ele>705.0</ele>
        <time>2021-10-22T10:07:24.000Z</time>
      </trkpt>
      <trkpt lat="42.648375" lon="-2.75036167">
        <ele>705.0</ele>
        <time>2021-10-22T10:07:25.000Z</time>
      </trkpt>
      <trkpt lat="42.648375" lon="-2.75036333">
        <ele>705.0</ele>
        <time>2021-10-22T10:07:26.000Z</time>
      </trkpt>
      <trkpt lat="42.64837333" lon="-2.75036333">
        <ele>705.0</ele>
        <time>2021-10-22T10:07:27.000Z</time>
      </trkpt>
      <trkpt lat="42.64837333" lon="-2.75036333">
        <ele>705.0</ele>
        <time>2021-10-22T10:07:28.000Z</time>
      </trkpt>
      <trkpt lat="42.64837333" lon="-2.75036333">
        <ele>705.0</ele>
        <time>2021-10-22T10:07:29.000Z</time>
      </trkpt>
      <trkpt lat="42.64837333" lon="-2.75036333">
        <ele>705.0</ele>
        <time>2021-10-22T10:07:30.000Z</time>
      </trkpt>
      <trkpt lat="42.64837333" lon="-2.75036333">
        <ele>705.0</ele>
        <time>2021-10-22T10:07:31.000Z</time>
      </trkpt>
    </trkseg>
  </trk>
</gpx>
